
Distance (Route):
Temperature : 14.1°C
Humidity : 0%
Pressure : 901.8hPa| Receiver | Frames | First received | Last received |
|---|---|---|---|
| BIOWL1-15 | 1014 | 2026-09-03 22:46:57 | 2026-09-04 01:55:19 |
| DM0DOS-11 | 862 | 2026-09-03 22:45:58 | 2026-09-04 01:56:58 |
| HSKMA3-T | 772 | 2026-09-03 23:10:21 | 2026-09-04 01:50:58 |
| DL1NUX | 709 | 2026-09-03 23:16:15 | 2026-09-04 01:55:24 |
| DL1XH-west | 697 | 2026-09-03 23:04:09 | 2026-09-04 01:26:42 |
| DL1XH1-15 | 436 | 2026-09-03 23:04:20 | 2026-09-04 01:18:12 |
| AA1-15 | 407 | 2026-09-03 23:27:45 | 2026-09-04 01:04:11 |
| DL1XH-15 | 338 | 2026-09-03 23:20:43 | 2026-09-04 01:08:15 |
| DD8BA-10 | 226 | 2026-09-03 22:52:30 | 2026-09-04 01:24:15 |
| DO3DL | 212 | 2026-09-03 22:45:38 | 2026-09-04 01:30:50 |
| DF8AY | 172 | 2026-09-03 23:24:48 | 2026-09-04 01:35:12 |
| DL3AQ-11 | 160 | 2026-09-03 22:59:19 | 2026-09-04 01:20:54 |
| DJ2DS-15 | 136 | 2026-09-03 22:56:06 | 2026-09-04 01:23:27 |
| GOEST3-10 | 128 | 2026-09-03 23:23:14 | 2026-09-04 00:53:37 |
| DO2JMG | 123 | 2026-09-03 23:04:01 | 2026-09-04 01:11:20 |
| DO3MHA-12 | 114 | 2026-09-03 23:28:11 | 2026-09-04 01:15:05 |
| DB0NH | 103 | 2026-09-03 23:04:36 | 2026-09-04 01:58:55 |
| DB0UT-7 | 97 | 2026-09-03 22:49:29 | 2026-09-04 01:51:37 |
| SO1NDE-10 | 87 | 2026-09-03 23:17:17 | 2026-09-04 01:54:17 |
| DJ8HS-15 | 86 | 2026-09-03 23:17:21 | 2026-09-04 01:35:30 |
| DL1ZP-14 | 84 | 2026-09-03 23:01:42 | 2026-09-04 01:57:15 |
| DD1CC8 | 80 | 2026-09-03 22:51:12 | 2026-09-04 01:43:32 |
| DD1CC3-15 | 77 | 2026-09-03 22:47:10 | 2026-09-04 01:45:18 |
| DL4BBY-15 | 77 | 2026-09-03 22:58:13 | 2026-09-04 01:20:19 |
| DO3MHA-11 | 75 | 2026-09-03 23:27:15 | 2026-09-04 00:55:54 |
| BIOWL9-15 | 72 | 2026-09-03 22:47:50 | 2026-09-04 01:51:38 |
| DO2KSM | 68 | 2026-09-03 22:47:07 | 2026-09-04 01:16:11 |
| DF2AP-13 | 67 | 2026-09-03 23:11:26 | 2026-09-04 01:56:42 |
| DJ2KF-10 | 64 | 2026-09-03 22:50:50 | 2026-09-04 01:23:01 |
| DL8DAS-14 | 61 | 2026-09-03 22:49:52 | 2026-09-04 01:15:43 |
| DB0ND-19 | 57 | 2026-09-03 23:09:16 | 2026-09-04 01:58:24 |
| DO9LL-15 | 55 | 2026-09-03 22:47:18 | 2026-09-04 01:24:25 |
| NBG1-10 | 55 | 2026-09-03 23:06:44 | 2026-09-04 01:54:38 |
| DF7PN | 55 | 2026-09-03 23:25:43 | 2026-09-04 01:51:44 |
| DH3RM | 53 | 2026-09-03 22:50:29 | 2026-09-03 23:12:55 |
| WPPR-10 | 49 | 2026-09-03 22:47:17 | 2026-09-04 01:33:28 |
| DK9SH | 47 | 2026-09-03 22:53:46 | 2026-09-04 01:11:34 |
| DB0DAN | 46 | 2026-09-03 23:25:40 | 2026-09-04 01:44:10 |
| BUE01 | 42 | 2026-09-03 23:08:45 | 2026-09-04 01:18:44 |
| DL8DAS-15 | 40 | 2026-09-03 22:47:25 | 2026-09-04 01:16:24 |
| SONCRA | 40 | 2026-09-03 23:16:38 | 2026-09-04 01:46:47 |
| DO1YAY-16 | 39 | 2026-09-03 22:48:50 | 2026-09-04 00:58:46 |
| AU51GT2 | 37 | 2026-09-03 22:58:01 | 2026-09-04 01:19:47 |
| HTAHTA | 35 | 2026-09-03 22:57:00 | 2026-09-04 01:06:24 |
| DL4XJ-10 | 33 | 2026-09-03 23:36:51 | 2026-09-04 01:22:40 |
| DD1CC1-15 | 32 | 2026-09-03 22:47:11 | 2026-09-04 00:15:41 |
| DL8OAI-8 | 29 | 2026-09-03 23:20:18 | 2026-09-04 01:31:33 |
| EDDB2-11 | 29 | 2026-09-03 23:46:50 | 2026-09-04 01:16:53 |
| DL3OBA | 25 | 2026-09-03 23:25:57 | 2026-09-04 01:15:45 |
| BIOWL7-15 | 23 | 2026-09-03 22:47:11 | 2026-09-04 01:50:23 |
| DC6BW-12 | 22 | 2026-09-03 23:55:42 | 2026-09-04 00:46:43 |
| DJ3KS | 19 | 2026-09-03 22:57:26 | 2026-09-04 01:25:48 |
| DL1CLM-18 | 17 | 2026-09-03 23:06:03 | 2026-09-04 01:19:44 |
| AM1SDL-15 | 15 | 2026-09-03 23:33:28 | 2026-09-04 01:28:11 |
| DJTTGO | 10 | 2026-09-03 23:40:06 | 2026-09-04 01:15:32 |
| DL1LOL-11 | 8 | 2026-09-03 23:24:32 | 2026-09-04 01:25:10 |
| DO2SHX-10 | 6 | 2026-09-03 23:45:34 | 2026-09-03 23:46:34 |
| SONDE2-11 | 5 | 2026-09-04 01:00:22 | 2026-09-04 01:16:25 |
| SMARD9-10 | 3 | 2026-09-04 00:17:43 | 2026-09-04 00:38:11 |
| SP3BTT-10 | 1 | 2026-09-04 00:27:04 | 2026-09-04 00:27:04 |
| HEMX73-6 | 1 | 2026-09-04 00:31:38 | 2026-09-04 00:31:38 |
| DF3TZ-5 | 1 | 2026-09-04 00:38:53 | 2026-09-04 00:38:53 |
| Receiver | Date | Latitude | Longitude | Direction | Speed | Altitude | Climb | Temperature | Humidity | Pressure | Voltage | Killtimer | Uptime | BKT | XDATA |
|---|---|---|---|---|---|---|---|---|---|---|---|---|---|---|---|
| DB0NH | 2026-09-04 01:58:55 | 50.72898 | 9.89937 | 83° | 55km/h | 1066m | -3.1m/s | 14.1°C | 0% | 901.8hPa | 2.7V | 00:00:00 | 03:41:01 | 00:00:00 | |
| DB0NH | 2026-09-04 01:58:45 | 50.72865 | 9.89725 | 73° | 49km/h | 1099m | -3.3m/s | 14.0°C | 0% | 898.1hPa | 2.7V | 00:00:00 | 03:40:51 | 00:00:00 | |
| DB0NH | 2026-09-04 01:58:35 | 50.72836 | 9.89533 | 86° | 51km/h | 1131m | -3.1m/s | 13.8°C | 0% | 894.9hPa | 2.7V | 07:04:00 | 03:40:41 | 00:00:00 | |
| DB0NH | 2026-09-04 01:58:25 | 50.72822 | 9.89330 | 81° | 55km/h | 1161m | -2.3m/s | 13.7°C | 0% | 891.9hPa | 2.7V | 00:00:00 | 03:40:31 | 00:00:00 | |
| DB0ND-19 | 2026-09-04 01:58:24 | 50.72809 | 9.89183 | 82° | 57km/h | 1176m | -2.6m/s | 13.7°C | 100.0% | 890.0hPa | 2.7V | 00:00:00 | 00:00:00 | 00:00:00 | |
| DB0NH | 2026-09-04 01:58:15 | 50.72801 | 9.89116 | 79° | 51km/h | 1183m | -1.8m/s | 13.6°C | 0% | 889.4hPa | 2.7V | 00:00:00 | 03:40:21 | 00:00:00 | |
| DB0NH | 2026-09-04 01:58:05 | 50.72790 | 9.88916 | 90° | 60km/h | 1209m | -3.3m/s | 13.6°C | 0% | 886.7hPa | 2.7V | 00:00:00 | 03:40:11 | 00:00:00 | |
| DB0ND-19 | 2026-09-04 01:57:53 | 50.72780 | 9.88634 | 78° | 53km/h | 1234m | -1.3m/s | 13.5°C | 100.0% | 884.2hPa | 2.7V | 00:00:00 | 00:00:00 | 00:00:00 | |
| DB0NH | 2026-09-04 01:57:45 | 50.72777 | 9.88459 | 93° | 64km/h | 1249m | -2.4m/s | 13.4°C | 0% | 882.5hPa | 2.7V | 00:00:00 | 03:39:51 | 00:00:00 | |
| DB0NH | 2026-09-04 01:57:35 | 50.72769 | 9.88206 | 88° | 62km/h | 1271m | -2.8m/s | 13.3°C | 0% | 880.1hPa | 2.7V | 00:00:00 | 03:39:41 | 00:00:00 | |
| DB0NH | 2026-09-04 01:57:25 | 50.72752 | 9.87962 | 84° | 62km/h | 1296m | -2.1m/s | 13.2°C | 0% | 877.4hPa | 2.7V | 00:00:00 | 03:39:31 | 00:00:00 | |
| DB0ND-19 | 2026-09-04 01:57:22 | 50.72748 | 9.87891 | 83° | 62km/h | 1301m | -1.7m/s | 13.2°C | 100.0% | 876.7hPa | 2.8V | 00:00:00 | 00:00:00 | 00:00:00 | |
| DB0NH | 2026-09-04 01:57:15 | 50.72732 | 9.87715 | 83° | 58km/h | 1316m | -2.3m/s | 13.1°C | 0% | 875.2hPa | 2.8V | 07:06:00 | 03:39:21 | 00:00:00 | |
| DL1ZP-14 | 2026-09-04 01:57:15 | 50.72723 | 9.87618 | 81° | 57km/h | 1325m | -2.0m/s | 13.1°C | 100.0% | 874.4hPa | 2.8V | 00:00:00 | 00:00:00 | 00:00:00 | |
| DB0NH | 2026-09-04 01:57:05 | 50.72717 | 9.87482 | 86° | 58km/h | 1337m | -2.1m/s | 13.0°C | 0% | 873.2hPa | 2.8V | 00:00:00 | 03:39:11 | 00:00:00 | |
| DM0DOS-11 | 2026-09-04 01:56:58 | 50.72707 | 9.87300 | 87° | 58km/h | 1357m | -1.8m/s | 13°C | 0% | 871.1hPa | 2.8V | 07:06:20 | 03:39:03 | 00:00:00 | |
| DB0ND-19 | 2026-09-04 01:56:51 | 50.72700 | 9.87164 | 88° | 57km/h | 1370m | -2.3m/s | 12.9°C | 100.0% | 869.8hPa | 2.8V | 00:00:00 | 00:00:00 | 00:00:00 | |
| DM0DOS-11 | 2026-09-04 01:56:47 | 50.72694 | 9.86950 | 90° | 58km/h | 1395m | -2.9m/s | 12.8°C | 0% | 867.2hPa | 2.8V | 07:06:35 | 03:38:48 | 00:00:00 | |
| DB0NH | 2026-09-04 01:56:45 | 50.72695 | 9.87020 | 86° | 60km/h | 1387m | -2.8m/s | 12.8°C | 0% | 868.1hPa | 2.8V | 00:00:00 | 03:38:51 | 00:00:00 | |
| DL1ZP-14 | 2026-09-04 01:56:44 | 50.72694 | 9.86973 | 88° | 57km/h | 1392m | -2.9m/s | 12.8°C | 100.0% | 867.5hPa | 2.8V | 00:00:00 | 00:00:00 | 00:00:00 | |
| DF2AP-13 | 2026-09-04 01:56:42 | 50.72693 | 9.86950 | 91° | 60km/h | 1395m | -2.9m/s | 12.8°C | 0% | 867.1hPa | 2.7V | 07:06:00 | 03:38:48 | 00:00:00 | |
| DB0NH | 2026-09-04 01:56:35 | 50.72688 | 9.86779 | 87° | 62km/h | 1415m | -2.4m/s | 12.7°C | 0% | 865.2hPa | 2.7V | 00:00:00 | 03:38:41 | 00:00:00 | |
| DF2AP-13 | 2026-09-04 01:56:32 | 50.72688 | 9.86706 | 90° | 64km/h | 1422m | -2.4m/s | 12.6°C | 0% | 864.4hPa | 2.7V | 00:00:00 | 03:38:38 | 00:00:00 | |
| DB0NH | 2026-09-04 01:56:25 | 50.72684 | 9.86531 | 92° | 64km/h | 1438m | -2.1m/s | 12.4°C | 0% | 862.6hPa | 2.7V | 00:00:00 | 03:38:31 | 00:00:00 | |
| DF2AP-13 | 2026-09-04 01:56:22 | 50.72683 | 9.86452 | 87° | 64km/h | 1446m | -2.4m/s | 12.4°C | 0% | 861.9hPa | 2.8V | 00:00:00 | 03:38:28 | 00:00:00 | |
| DB0ND-19 | 2026-09-04 01:56:20 | 50.72680 | 9.86400 | 84° | 62km/h | 1451m | -2.6m/s | 12.4°C | 100.0% | 861.5hPa | 2.8V | 00:00:00 | 00:00:00 | 00:00:00 | |
| DB0NH | 2026-09-04 01:56:15 | 50.72681 | 9.86277 | 94° | 68km/h | 1461m | -2.0m/s | 12.3°C | 0% | 860.5hPa | 2.8V | 00:00:00 | 03:38:21 | 00:00:00 | |
| DM0DOS-11 | 2026-09-04 01:56:14 | 50.72687 | 9.86110 | 94° | 69km/h | 1476m | -2.4m/s | 12.4°C | 0% | 858.9hPa | 2.8V | 07:07:08 | 03:38:15 | 00:00:00 | |
| DL1ZP-14 | 2026-09-04 01:56:12 | 50.72684 | 9.86194 | 92° | 69km/h | 1469m | -2.6m/s | 12.3°C | 100.0% | 859.7hPa | 2.7V | 00:00:00 | 00:00:00 | 00:00:00 | |
| DF2AP-13 | 2026-09-04 01:56:12 | 50.72684 | 9.86194 | 93° | 66km/h | 1469m | -2.6m/s | 12.3°C | 0% | 859.7hPa | 2.7V | 00:00:00 | 03:38:18 | 00:00:00 | |
| DB0NH | 2026-09-04 01:56:05 | 50.72692 | 9.86005 | 93° | 64km/h | 1485m | -2.1m/s | 12.2°C | 0% | 857.9hPa | 2.7V | 00:00:00 | 03:38:11 | 00:00:00 | |
| DB0ND-19 | 2026-09-04 01:55:49 | 50.72667 | 9.85575 | 90° | 73km/h | 1529m | -2.8m/s | 12.1°C | 99.7% | 853.6hPa | 2.7V | 00:00:00 | 00:00:00 | 00:00:00 | |
| DB0NH | 2026-09-04 01:55:45 | 50.72670 | 9.85462 | 94° | 64km/h | 1540m | -2.6m/s | 11.9°C | 0% | 852.3hPa | 2.7V | 00:00:00 | 03:37:51 | 00:00:00 | |
| DF2AP-13 | 2026-09-04 01:55:42 | 50.72672 | 9.85386 | 91° | 66km/h | 1548m | -2.4m/s | 11.8°C | 0% | 851.6hPa | 2.7V | 00:00:00 | 03:37:48 | 00:00:00 | |
| DL1ZP-14 | 2026-09-04 01:55:42 | 50.72672 | 9.85362 | 88° | 60km/h | 1550m | -2.7m/s | 11.8°C | 99.5% | 851.2hPa | 2.8V | 00:00:00 | 00:00:00 | 00:00:00 | |
| DB0NH | 2026-09-04 01:55:35 | 50.72661 | 9.85209 | 81° | 73km/h | 1566m | -2.6m/s | 11.7°C | 0% | 849.6hPa | 2.8V | 00:00:00 | 03:37:41 | 00:00:00 | |
| DM0DOS-11 | 2026-09-04 01:55:32 | 50.72647 | 9.85037 | 86° | 73km/h | 1583m | -2.4m/s | 11.7°C | 0% | 848hPa | 2.8V | 07:07:48 | 03:37:35 | 00:00:00 | |
| DF2AP-13 | 2026-09-04 01:55:32 | 50.72653 | 9.85125 | 83° | 73km/h | 1575m | -2.7m/s | 11.7°C | 0% | 848.8hPa | 2.7V | 00:00:00 | 03:37:38 | 00:00:00 | |
| DB0NH | 2026-09-04 01:55:25 | 50.72646 | 9.84921 | 92° | 66km/h | 1593m | -2.5m/s | 11.6°C | 0% | 846.9hPa | 2.7V | 00:00:00 | 03:37:31 | 00:00:00 | |
| DL1NUX | 2026-09-04 01:55:24 | 50.72649 | 9.84838 | 92° | 68km/h | 1601m | -2.4m/s | 11.6°C | 0% | 846.1hPa | 2.8V | 07:07:55 | 03:37:28 | 00:00:00 | |
| DF2AP-13 | 2026-09-04 01:55:22 | 50.72649 | 9.84838 | 93° | 66km/h | 1601m | -2.3m/s | 11.5°C | 0% | 846.1hPa | 2.8V | 07:07:00 | 03:37:28 | 00:00:00 | |
| DM0DOS-11 | 2026-09-04 01:55:20 | 50.72648 | 9.84734 | 86° | 64km/h | 1612m | -3m/s | 11.5°C | 0% | 845hPa | 2.8V | 07:07:59 | 03:37:24 | 00:00:00 | |
| BIOWL1-15 | 2026-09-04 01:55:19 | 50.72649 | 9.84760 | 88° | 64km/h | 1609m | -3m/s | 11.5°C | 100% | 845.3hPa | 2.8V | 07:08:38 | 03:37:25 | 00:00:00 | |
| BIOWL1-15 | 2026-09-04 01:55:18 | 50.72645 | 9.84683 | 83° | 66km/h | 1618m | -2.3m/s | 11.5°C | 100% | 844.4hPa | 2.8V | 07:08:38 | 03:37:22 | 00:00:00 | |
| BIOWL1-15 | 2026-09-04 01:55:17 | 50.72643 | 9.84657 | 82° | 66km/h | 1621m | -3.2m/s | 11.4°C | 100% | 844.3hPa | 2.8V | 07:08:38 | 03:37:21 | 00:00:00 | |
| DL1NUX | 2026-09-04 01:55:14 | 50.72640 | 9.84631 | 81° | 68km/h | 1624m | -3.6m/s | 11.4°C | 99.7% | 843.9hPa | 2.8V | 07:08:03 | 03:37:20 | 00:00:00 | |
| DF2AP-13 | 2026-09-04 01:55:12 | 50.72634 | 9.84577 | 81° | 73km/h | 1631m | -3.2m/s | 11.3°C | 0% | 843.2hPa | 2.7V | 00:00:00 | 03:37:18 | 00:00:00 | |
| DL1ZP-14 | 2026-09-04 01:55:10 | 50.72628 | 9.84523 | 79° | 69km/h | 1637m | -3.1m/s | 11.3°C | 97.9% | 842.6hPa | 2.8V | 00:00:00 | 00:00:00 | 00:00:00 | |
| DM0DOS-11 | 2026-09-04 01:55:08 | 50.72616 | 9.84408 | 81° | 77km/h | 1649m | -2.9m/s | 11.3°C | 0% | 841.4hPa | 2.8V | 07:08:11 | 03:37:12 | 00:00:00 | |
| DM0DOS-11 | 2026-09-04 01:55:08 | 50.72609 | 9.84316 | 84° | 78km/h | 1657m | -2.8m/s | 11.3°C | 0% | 840.4hPa | 2.8V | 07:08:14 | 03:37:09 | 00:00:00 | |
| BIOWL1-15 | 2026-09-04 01:55:04 | 50.72605 | 9.84224 | 88° | 75km/h | 1665m | -2.7m/s | 11.2°C | 100% | 839.6hPa | 2.8V | 07:08:38 | 03:37:06 | 00:00:00 | |
| BIOWL1-15 | 2026-09-04 01:54:55 | 50.72603 | 9.84087 | 86° | 64km/h | 1679m | -2.7m/s | 11.2°C | 100% | 838.4hPa | 2.8V | 07:08:38 | 03:37:01 | 00:00:00 | |
| BIOWL1-15 | 2026-09-04 01:54:53 | 50.72599 | 9.84036 | 81° | 66km/h | 1684m | -2.5m/s | 11.3°C | 100% | 837.9hPa | 2.8V | 07:08:38 | 03:36:59 | 00:00:00 | |
| DM0DOS-11 | 2026-09-04 01:54:53 | 50.72579 | 9.83898 | 77° | 75km/h | 1698m | -2.8m/s | 11.1°C | 0% | 836.4hPa | 2.8V | 07:08:29 | 03:36:54 | 00:00:00 | |
| DB0ND-19 | 2026-09-04 01:54:47 | 50.72575 | 9.83869 | 78° | 77km/h | 1701m | -2.9m/s | 10.9°C | 99.6% | 836.1hPa | 2.8V | 00:00:00 | 00:00:00 | 00:00:00 | |
| DM0DOS-11 | 2026-09-04 01:54:45 | 50.72566 | 9.83776 | 83° | 78km/h | 1709m | -2.7m/s | 10.8°C | 99.5% | 835.2hPa | 2.8V | 07:08:33 | 03:36:50 | 00:00:00 | |
| DM0DOS-11 | 2026-09-04 01:54:45 | 50.72562 | 9.83652 | 89° | 75km/h | 1720m | -2.7m/s | 10.8°C | 0% | 834.1hPa | 2.8V | 07:08:37 | 03:36:46 | 00:00:00 | |
| BIOWL1-15 | 2026-09-04 01:54:42 | 50.72563 | 9.83713 | 87° | 78km/h | 1715m | -2.6m/s | 10.8°C | 100% | 834.6hPa | 2.8V | 07:08:38 | 03:36:48 | 00:00:00 | |
| BIOWL1-15 | 2026-09-04 01:54:40 | 50.72562 | 9.83622 | 90° | 73km/h | 1723m | -2.8m/s | 10.7°C | 100% | 833.9hPa | 2.8V | 07:08:38 | 03:36:45 | 00:00:00 | |
| BIOWL1-15 | 2026-09-04 01:54:40 | 50.72562 | 9.83594 | 90° | 69km/h | 1725m | -2.8m/s | 10.7°C | 100% | 833.6hPa | 2.8V | 07:09:29 | 03:36:44 | 00:00:00 | |
| DL1ZP-14 | 2026-09-04 01:54:39 | 50.72562 | 9.83622 | 89° | 71km/h | 1722m | -2.8m/s | 10.7°C | 99.8% | 833.9hPa | 2.8V | 00:00:00 | 00:00:00 | 00:00:00 | |
| NBG1-10 | 2026-09-04 01:54:38 | 50.72562 | 9.83594 | 90° | 68km/h | 1725m | -2.7m/s | 10.6°C | 99.4% | 833.5hPa | 2.7V | 07:08:00 | 03:36:44 | 00:00:00 | |
| DM0DOS-11 | 2026-09-04 01:54:37 | 50.72554 | 9.83437 | 79° | 66km/h | 1742m | -2.6m/s | 10.6°C | 98.9% | 832hPa | 2.8V | 07:08:45 | 03:36:38 | 00:00:00 | |
| BIOWL1-15 | 2026-09-04 01:54:35 | 50.72560 | 9.83514 | 86° | 64km/h | 1734m | -2.7m/s | 10.6°C | 100% | 832.9hPa | 2.7V | 07:09:29 | 03:36:41 | 00:00:00 | |
| DB0NH | 2026-09-04 01:54:35 | 50.72560 | 9.83514 | 87° | 71km/h | 1734m | -2.7m/s | 10.6°C | 98.7% | 832.8hPa | 2.8V | 07:08:00 | 03:36:41 | 00:00:00 | |
| DL1NUX | 2026-09-04 01:54:34 | 50.72543 | 9.83356 | 77° | 73km/h | 1749m | -2.5m/s | 10.6°C | 99% | 831.3hPa | 2.8V | 07:08:48 | 03:36:35 | 00:00:00 | |
| BIOWL1-15 | 2026-09-04 01:54:34 | 50.72559 | 9.83488 | 84° | 64km/h | 1736m | -2.8m/s | 10.6°C | 100% | 832.5hPa | 2.8V | 07:09:29 | 03:36:40 | 00:00:00 | |
| BIOWL1-15 | 2026-09-04 01:54:32 | 50.72554 | 9.83437 | 80° | 66km/h | 1742m | -2.6m/s | 10.6°C | 100% | 832hPa | 2.8V | 07:09:29 | 03:36:38 | 00:00:00 | |
| DF2AP-13 | 2026-09-04 01:54:32 | 50.72554 | 9.83437 | 80° | 75km/h | 1742m | -2.5m/s | 10.5°C | 98.9% | 831.9hPa | 2.8V | 00:00:00 | 03:36:38 | 00:00:00 | |
| DM0DOS-11 | 2026-09-04 01:54:31 | 50.72540 | 9.83327 | 78° | 77km/h | 1752m | -2.5m/s | 10.5°C | 99% | 831hPa | 2.8V | 07:08:49 | 03:36:34 | 00:00:00 | |
| BIOWL1-15 | 2026-09-04 01:54:30 | 50.72540 | 9.83326 | 79° | 77km/h | 1752m | -2.5m/s | 10.5°C | 100% | 831hPa | 2.8V | 07:09:29 | 03:36:34 | 00:00:00 | |
| BIOWL1-15 | 2026-09-04 01:54:26 | 50.72533 | 9.83265 | 83° | 78km/h | 1757m | -2.5m/s | 10.5°C | 100% | 830.6hPa | 2.8V | 07:09:29 | 03:36:32 | 00:00:00 | |
| BIOWL1-15 | 2026-09-04 01:54:25 | 50.72529 | 9.83172 | 89° | 75km/h | 1764m | -2.4m/s | 10.5°C | 100% | 829.8hPa | 2.8V | 07:09:29 | 03:36:29 | 00:00:00 | |
| BIOWL1-15 | 2026-09-04 01:54:24 | 50.72529 | 9.83142 | 90° | 73km/h | 1766m | -2.6m/s | 10.4°C | 100% | 829.6hPa | 2.8V | 07:09:29 | 03:36:28 | 00:00:00 | |
| DF2AP-13 | 2026-09-04 01:54:22 | 50.72529 | 9.83142 | 90° | 68km/h | 1766m | -2.6m/s | 10.4°C | 99.4% | 829.6hPa | 2.8V | 00:00:00 | 03:36:28 | 00:00:00 | |
| DM0DOS-11 | 2026-09-04 01:54:20 | 50.72522 | 9.82956 | 79° | 66km/h | 1784m | -2.4m/s | 10.3°C | 0% | 827.9hPa | 2.8V | 07:09:02 | 03:36:21 | 00:00:00 | |
| BIOWL1-15 | 2026-09-04 01:54:20 | 50.72529 | 9.83086 | 89° | 68km/h | 1771m | -2.6m/s | 10.4°C | 100% | 829hPa | 2.8V | 07:09:29 | 03:36:26 | 00:00:00 | |
| BIOWL1-15 | 2026-09-04 01:54:17 | 50.72525 | 9.82982 | 82° | 64km/h | 1782m | -2.5m/s | 10.3°C | 100% | 828.2hPa | 2.8V | 07:09:29 | 03:36:22 | 00:00:00 | |
| BIOWL1-15 | 2026-09-04 01:54:17 | 50.72522 | 9.82956 | 80° | 66km/h | 1784m | -2.4m/s | 10.3°C | 100% | 827.9hPa | 2.8V | 07:09:29 | 03:36:21 | 00:00:00 | |
| SO1NDE-10 | 2026-09-04 01:54:17 | 50.72527 | 9.83007 | 85° | 75km/h | 1779m | -2.4m/s | 10.3°C | 0% | 828.2hPa | 2.7V | 00:00:00 | 03:36:23 | 00:00:00 | |
| DL1NUX | 2026-09-04 01:54:16 | 50.72507 | 9.82846 | 78° | 75km/h | 1794m | -2.6m/s | 10.3°C | 0% | 826.9hPa | 2.8V | 07:09:06 | 03:36:17 | 00:00:00 | |
| DM0DOS-11 | 2026-09-04 01:54:14 | 50.72515 | 9.82903 | 77° | 71km/h | 1789m | -2.4m/s | 10.3°C | 0% | 827.4hPa | 2.8V | 07:09:04 | 03:36:19 | 00:00:00 | |
| BIOWL1-15 | 2026-09-04 01:54:14 | 50.72511 | 9.82875 | 78° | 73km/h | 1791m | -2.6m/s | 10.3°C | 100% | 827hPa | 2.8V | 07:09:29 | 03:36:18 | 00:00:00 | |
| BIOWL1-15 | 2026-09-04 01:54:13 | 50.72507 | 9.82846 | 78° | 75km/h | 1794m | -2.6m/s | 10.3°C | 100% | 826.9hPa | 2.8V | 07:09:29 | 03:36:17 | 00:00:00 | |
| BIOWL1-15 | 2026-09-04 01:54:10 | 50.72503 | 9.82816 | 79° | 77km/h | 1797m | -2.7m/s | 10.3°C | 100% | 826.6hPa | 2.8V | 07:09:29 | 03:36:16 | 00:00:00 | |
| DL1ZP-14 | 2026-09-04 01:54:08 | 50.72497 | 9.82755 | 81° | 78km/h | 1802m | -2.7m/s | 10.2°C | 100.0% | 826.1hPa | 2.8V | 00:00:00 | 00:00:00 | 00:00:00 | |
| DM0DOS-11 | 2026-09-04 01:54:08 | 50.72490 | 9.82660 | 84° | 80km/h | 1811m | -2.8m/s | 10.2°C | 0% | 825.2hPa | 2.8V | 07:09:12 | 03:36:11 | 00:00:00 | |
| DM0DOS-11 | 2026-09-04 01:54:08 | 50.72486 | 9.82597 | 87° | 78km/h | 1816m | -2.8m/s | 10.2°C | 0% | 824.7hPa | 2.8V | 07:09:14 | 03:36:09 | 00:00:00 | |
| BIOWL1-15 | 2026-09-04 01:54:08 | 50.72497 | 9.82755 | 81° | 78km/h | 1802m | -2.7m/s | 10.2°C | 100% | 826.1hPa | 2.8V | 07:09:29 | 03:36:14 | 00:00:00 | |
| BIOWL1-15 | 2026-09-04 01:54:06 | 50.72491 | 9.82692 | 84° | 80km/h | 1808m | -2.8m/s | 10.2°C | 100% | 825.5hPa | 2.8V | 07:09:29 | 03:36:12 | 00:00:00 | |
| BIOWL1-15 | 2026-09-04 01:54:05 | 50.72489 | 9.82660 | 85° | 80km/h | 1811m | -2.8m/s | 10.2°C | 100% | 825.2hPa | 2.8V | 07:09:29 | 03:36:11 | 00:00:00 | |
| BIOWL1-15 | 2026-09-04 01:54:03 | 50.72487 | 9.82597 | 87° | 78km/h | 1816m | -2.8m/s | 10.2°C | 100% | 824.7hPa | 2.8V | 07:09:29 | 03:36:09 | 00:00:00 | |
| DL1NUX | 2026-09-04 01:54:03 | 50.72485 | 9.82450 | 89° | 69km/h | 1829m | -2.6m/s | 10.1°C | 0% | 823.4hPa | 2.8V | 07:09:19 | 03:36:04 | 00:00:00 | |
| DM0DOS-11 | 2026-09-04 01:54:02 | 50.72485 | 9.82423 | 89° | 68km/h | 1832m | -2.5m/s | 10.1°C | 0% | 823hPa | 2.8V | 07:09:20 | 03:36:03 | 00:00:00 | |
| BIOWL1-15 | 2026-09-04 01:54:02 | 50.72486 | 9.82567 | 88° | 77km/h | 1819m | -2.7m/s | 10.2°C | 100% | 824.3hPa | 2.8V | 07:09:29 | 03:36:08 | 00:00:00 | |
| BIOWL1-15 | 2026-09-04 01:53:57 | 50.72485 | 9.82423 | 89° | 68km/h | 1832m | -2.5m/s | 10.1°C | 100% | 823hPa | 2.8V | 07:09:29 | 03:36:03 | 00:00:00 | |
| DL1NUX | 2026-09-04 01:53:57 | 50.72485 | 9.82396 | 88° | 66km/h | 1834m | -2.4m/s | 10.1°C | 0% | 822.9hPa | 2.8V | 07:09:21 | 03:36:02 | 00:00:00 | |
| DL1NUX | 2026-09-04 01:53:57 | 50.72480 | 9.82294 | 83° | 64km/h | 1844m | -2.5m/s | 10°C | 0% | 821.9hPa | 2.8V | 07:09:25 | 03:35:58 | 00:00:00 | |
| DM0DOS-11 | 2026-09-04 01:53:56 | 50.72482 | 9.82319 | 84° | 64km/h | 1842m | -2.5m/s | 10°C | 0% | 822.1hPa | 2.7V | 07:09:24 | 03:35:59 | 00:00:00 | |
| BIOWL1-15 | 2026-09-04 01:53:55 | 50.72484 | 9.82370 | 87° | 64km/h | 1837m | -2.4m/s | 10.1°C | 100% | 822.7hPa | 2.8V | 07:09:29 | 03:36:01 | 00:00:00 | |
| BIOWL1-15 | 2026-09-04 01:53:54 | 50.72483 | 9.82345 | 86° | 64km/h | 1839m | -2.4m/s | 10°C | 100% | 822.5hPa | 2.8V | 07:09:29 | 03:36:00 | 00:00:00 | |
| BIOWL1-15 | 2026-09-04 01:53:52 | 50.72480 | 9.82294 | 83° | 64km/h | 1844m | -2.5m/s | 10°C | 100% | 821.9hPa | 2.8V | 07:09:29 | 03:35:58 | 00:00:00 | |
| BIOWL1-15 | 2026-09-04 01:53:48 | 50.72465 | 9.82165 | 77° | 69km/h | 1857m | -2.3m/s | 10°C | 100% | 820.7hPa | 2.8V | 07:10:20 | 03:35:53 | 00:00:00 | |
| BIOWL1-15 | 2026-09-04 01:53:48 | 50.72461 | 9.82137 | 78° | 73km/h | 1859m | -2.4m/s | 9.9°C | 100% | 820.6hPa | 2.8V | 07:10:20 | 03:35:52 | 00:00:00 | |
| DL1NUX | 2026-09-04 01:53:46 | 50.72458 | 9.82109 | 78° | 75km/h | 1861m | -2.2m/s | 9.9°C | 0% | 820.3hPa | 2.8V | 07:09:32 | 03:35:51 | 00:00:00 | |
| DM0DOS-11 | 2026-09-04 01:53:44 | 50.72450 | 9.82049 | 80° | 77km/h | 1865m | -2m/s | 9.9°C | 0% | 819.8hPa | 2.8V | 07:09:34 | 03:35:49 | 00:00:00 | |
| BIOWL1-15 | 2026-09-04 01:53:44 | 50.72454 | 9.82079 | 79° | 77km/h | 1863m | -2.2m/s | 9.9°C | 100% | 820hPa | 2.8V | 07:10:20 | 03:35:50 | 00:00:00 | |
| BIOWL1-15 | 2026-09-04 01:53:41 | 50.72444 | 9.81956 | 87° | 77km/h | 1871m | -1.9m/s | 9.9°C | 100% | 819.3hPa | 2.7V | 07:10:20 | 03:35:46 | 00:00:00 | |
| BIOWL1-15 | 2026-09-04 01:53:41 | 50.72443 | 9.81926 | 89° | 75km/h | 1873m | -2.1m/s | 9.9°C | 100% | 819hPa | 2.8V | 07:10:20 | 03:35:45 | 00:00:00 | |
| DL1NUX | 2026-09-04 01:53:40 | 50.72443 | 9.81926 | 88° | 75km/h | 1873m | -2.1m/s | 9.9°C | 0% | 819hPa | 2.8V | 07:09:38 | 03:35:45 | 00:00:00 | |
| DM0DOS-11 | 2026-09-04 01:53:38 | 50.72443 | 9.81811 | 90° | 69km/h | 1882m | -2.3m/s | 9.8°C | 0% | 818.2hPa | 2.8V | 07:09:42 | 03:35:41 | 00:00:00 | |
| BIOWL1-15 | 2026-09-04 01:53:37 | 50.72443 | 9.81839 | 91° | 71km/h | 1880m | -2.5m/s | 9.8°C | 100% | 818.4hPa | 2.8V | 07:10:20 | 03:35:42 | 00:00:00 | |
| BIOWL1-15 | 2026-09-04 01:53:37 | 50.72443 | 9.81811 | 91° | 69km/h | 1882m | -2.3m/s | 9.8°C | 100% | 818.2hPa | 2.8V | 07:10:20 | 03:35:41 | 00:00:00 | |
| BIOWL1-15 | 2026-09-04 01:53:34 | 50.72444 | 9.81783 | 90° | 68km/h | 1885m | -2.2m/s | 9.8°C | 100% | 817.9hPa | 2.8V | 07:10:20 | 03:35:40 | 00:00:00 | |
| DM0DOS-11 | 2026-09-04 01:53:32 | 50.72439 | 9.81655 | 81° | 64km/h | 1896m | -2.3m/s | 9.7°C | 0% | 816.8hPa | 2.8V | 07:09:48 | 03:35:35 | 00:00:00 | |
| BIOWL1-15 | 2026-09-04 01:53:32 | 50.72443 | 9.81731 | 88° | 64km/h | 1889m | -2.2m/s | 9.8°C | 100% | 817.5hPa | 2.8V | 07:10:20 | 03:35:38 | 00:00:00 | |
| BIOWL1-15 | 2026-09-04 01:53:31 | 50.72442 | 9.81705 | 86° | 64km/h | 1891m | -2.2m/s | 9.8°C | 100% | 817.1hPa | 2.8V | 07:10:20 | 03:35:37 | 00:00:00 | |
| BIOWL1-15 | 2026-09-04 01:53:29 | 50.72439 | 9.81655 | 82° | 64km/h | 1896m | -2.3m/s | 9.7°C | 100% | 816.8hPa | 2.8V | 07:10:20 | 03:35:35 | 00:00:00 | |
| DL1NUX | 2026-09-04 01:53:28 | 50.72433 | 9.81604 | 78° | 68km/h | 1900m | -2.2m/s | 9.7°C | 0% | 816.4hPa | 2.7V | 07:09:50 | 03:35:33 | 00:00:00 | |
| BIOWL1-15 | 2026-09-04 01:53:27 | 50.72430 | 9.81578 | 78° | 69km/h | 1903m | -2.1m/s | 9.7°C | 100% | 816.2hPa | 2.8V | 07:10:20 | 03:35:32 | 00:00:00 | |
| BIOWL1-15 | 2026-09-04 01:53:27 | 50.72426 | 9.81551 | 78° | 71km/h | 1905m | -2.3m/s | 9.7°C | 100% | 816hPa | 2.8V | 07:10:20 | 03:35:31 | 00:00:00 | |
| BIOWL1-15 | 2026-09-04 01:53:23 | 50.72416 | 9.81464 | 82° | 77km/h | 1911m | -2.2m/s | 9.7°C | 100% | 815.4hPa | 2.8V | 07:10:20 | 03:35:28 | 00:00:00 | |
| BIOWL1-15 | 2026-09-04 01:53:23 | 50.72413 | 9.81433 | 83° | 78km/h | 1914m | -2.1m/s | 9.7°C | 100% | 815.1hPa | 2.8V | 07:10:20 | 03:35:27 | 00:00:00 | |
| DL1NUX | 2026-09-04 01:53:22 | 50.72413 | 9.81433 | 83° | 78km/h | 1913m | -2.1m/s | 9.7°C | 0% | 815.1hPa | 2.8V | 07:09:56 | 03:35:27 | 00:00:00 | |
| DF2AP-13 | 2026-09-04 01:53:22 | 50.72416 | 9.81464 | 82° | 75km/h | 1911m | -2.1m/s | 9.6°C | 0% | 815.4hPa | 2.8V | 00:00:00 | 03:35:28 | 00:00:00 | |
| DM0DOS-11 | 2026-09-04 01:53:20 | 50.72410 | 9.81371 | 87° | 78km/h | 1918m | -2.4m/s | 9.6°C | 0% | 814.7hPa | 2.8V | 07:09:58 | 03:35:25 | 00:00:00 | |
| DM0DOS-11 | 2026-09-04 01:53:20 | 50.72409 | 9.81310 | 89° | 75km/h | 1923m | -2.4m/s | 9.6°C | 0% | 814.1hPa | 2.8V | 07:10:00 | 03:35:23 | 00:00:00 | |
| BIOWL1-15 | 2026-09-04 01:53:19 | 50.72410 | 9.81371 | 87° | 78km/h | 1918m | -2.4m/s | 9.6°C | 100% | 814.7hPa | 2.8V | 07:10:20 | 03:35:25 | 00:00:00 | |
| BIOWL1-15 | 2026-09-04 01:53:18 | 50.72409 | 9.81340 | 89° | 77km/h | 1920m | -2.5m/s | 9.6°C | 100% | 814.4hPa | 2.8V | 07:10:20 | 03:35:24 | 00:00:00 | |
| BIOWL1-15 | 2026-09-04 01:53:17 | 50.72409 | 9.81310 | 90° | 75km/h | 1923m | -2.4m/s | 9.6°C | 100% | 814.2hPa | 2.8V | 07:10:20 | 03:35:23 | 00:00:00 | |
| DL1NUX | 2026-09-04 01:53:16 | 50.72409 | 9.81251 | 91° | 71km/h | 1928m | -2.5m/s | 9.6°C | 0% | 813.6hPa | 2.7V | 07:10:02 | 03:35:21 | 00:00:00 | |
| BIOWL1-15 | 2026-09-04 01:53:16 | 50.72409 | 9.81280 | 91° | 73km/h | 1925m | -2.6m/s | 9.6°C | 100% | 813.9hPa | 2.8V | 07:10:20 | 03:35:22 | 00:00:00 | |
| BIOWL1-15 | 2026-09-04 01:53:15 | 50.72409 | 9.81251 | 91° | 71km/h | 1928m | -2.5m/s | 9.6°C | 100% | 813.7hPa | 2.7V | 07:10:20 | 03:35:21 | 00:00:00 | |
| DM0DOS-11 | 2026-09-04 01:53:14 | 50.72409 | 9.81196 | 89° | 66km/h | 1932m | -2.1m/s | 9.6°C | 0% | 813.2hPa | 2.8V | 07:10:04 | 03:35:19 | 00:00:00 | |
| BIOWL1-15 | 2026-09-04 01:53:13 | 50.72409 | 9.81197 | 89° | 66km/h | 1932m | -2.1m/s | 9.6°C | 100% | 813.2hPa | 2.8V | 07:10:20 | 03:35:19 | 00:00:00 | |
| BIOWL1-15 | 2026-09-04 01:53:11 | 50.72408 | 9.81145 | 85° | 64km/h | 1936m | -2.1m/s | 9.6°C | 100% | 812.8hPa | 2.8V | 07:10:20 | 03:35:17 | 00:00:00 | |
| DL1NUX | 2026-09-04 01:53:10 | 50.72403 | 9.81095 | 80° | 66km/h | 1941m | -2.2m/s | 9.5°C | 0% | 812.4hPa | 2.8V | 07:10:08 | 03:35:15 | 00:00:00 | |
| BIOWL1-15 | 2026-09-04 01:53:10 | 50.72406 | 9.81120 | 82° | 64km/h | 1939m | -2.2m/s | 9.6°C | 100% | 812.6hPa | 2.8V | 07:10:20 | 03:35:16 | 00:00:00 | |
| BIOWL1-15 | 2026-09-04 01:53:08 | 50.72400 | 9.81069 | 79° | 66km/h | 1943m | -2.2m/s | 9.5°C | 100% | 812.2hPa | 2.8V | 07:10:20 | 03:35:14 | 00:00:00 | |
| DM0DOS-11 | 2026-09-04 01:53:08 | 50.72390 | 9.80988 | 78° | 71km/h | 1950m | -2.2m/s | 9.5°C | 0% | 811.5hPa | 2.8V | 07:10:12 | 03:35:11 | 00:00:00 | |
| BIOWL1-15 | 2026-09-04 01:53:07 | 50.72397 | 9.81043 | 78° | 68km/h | 1945m | -2.3m/s | 9.5°C | 100% | 812hPa | 2.8V | 07:10:20 | 03:35:13 | 00:00:00 | |
| BIOWL1-15 | 2026-09-04 01:53:05 | 50.72390 | 9.80988 | 79° | 71km/h | 1950m | -2.2m/s | 9.5°C | 100% | 811.5hPa | 2.8V | 07:10:20 | 03:35:11 | 00:00:00 | |
| DL1NUX | 2026-09-04 01:53:04 | 50.72383 | 9.80931 | 80° | 75km/h | 1954m | -2.1m/s | 9.5°C | 0% | 811.1hPa | 2.8V | 07:10:14 | 03:35:09 | 00:00:00 | |
| BIOWL1-15 | 2026-09-04 01:53:04 | 50.72384 | 9.80931 | 81° | 75km/h | 1954m | -2.1m/s | 9.5°C | 100% | 811.1hPa | 2.8V | 07:10:20 | 03:35:09 | 00:00:00 | |
| DM0DOS-11 | 2026-09-04 01:53:02 | 50.72375 | 9.80808 | 86° | 78km/h | 1964m | -2.6m/s | 9.4°C | 0% | 810.3hPa | 2.8V | 07:10:18 | 03:35:05 | 00:00:00 | |
| BIOWL1-15 | 2026-09-04 01:53:01 | 50.72379 | 9.80870 | 84° | 78km/h | 1959m | -2.3m/s | 9.4°C | 100% | 810.6hPa | 2.8V | 07:10:20 | 03:35:07 | 00:00:00 | |
| BIOWL1-15 | 2026-09-04 01:52:59 | 50.72374 | 9.80717 | 91° | 75km/h | 1971m | -2.2m/s | 9.4°C | 100% | 809.5hPa | 2.8V | 07:11:11 | 03:35:02 | 00:00:00 | |
| DL1NUX | 2026-09-04 01:52:58 | 50.72374 | 9.80746 | 89° | 77km/h | 1968m | -2.4m/s | 9.4°C | 0% | 809.7hPa | 2.8V | 07:10:20 | 03:35:03 | 00:00:00 | |
| BIOWL1-15 | 2026-09-04 01:52:57 | 50.72375 | 9.80687 | 92° | 71km/h | 1973m | -2.4m/s | 9.4°C | 100% | 809.3hPa | 2.8V | 07:11:11 | 03:35:01 | 00:00:00 | |
| DM0DOS-11 | 2026-09-04 01:52:56 | 50.72375 | 9.80687 | 91° | 71km/h | 1973m | -2.4m/s | 9.4°C | 0% | 809.3hPa | 2.8V | 07:10:22 | 03:35:01 | 00:00:00 | |
| DM0DOS-11 | 2026-09-04 01:52:56 | 50.72376 | 9.80632 | 92° | 68km/h | 1977m | -2.1m/s | 9.4°C | 0% | 808.9hPa | 2.8V | 07:10:24 | 03:34:59 | 00:00:00 | |
| BIOWL1-15 | 2026-09-04 01:52:53 | 50.72376 | 9.80632 | 93° | 68km/h | 1977m | -2.1m/s | 9.4°C | 100% | 808.9hPa | 2.8V | 07:11:11 | 03:34:59 | 00:00:00 | |
| BIOWL1-15 | 2026-09-04 01:52:52 | 50.72377 | 9.80605 | 92° | 66km/h | 1980m | -2.5m/s | 9.4°C | 100% | 808.6hPa | 2.8V | 07:11:11 | 03:34:58 | 00:00:00 | |
| DL1NUX | 2026-09-04 01:52:52 | 50.72377 | 9.80579 | 90° | 64km/h | 1982m | -2.5m/s | 9.3°C | 0% | 808.3hPa | 2.8V | 07:10:26 | 03:34:57 | 00:00:00 | |
| BIOWL1-15 | 2026-09-04 01:52:51 | 50.72377 | 9.80579 | 91° | 64km/h | 1982m | -2.5m/s | 9.3°C | 100% | 808.3hPa | 2.8V | 07:11:11 | 03:34:57 | 00:00:00 | |
| DM0DOS-11 | 2026-09-04 01:52:50 | 50.72377 | 9.80529 | 87° | 62km/h | 1987m | -2.8m/s | 9.3°C | 0% | 807.9hPa | 2.8V | 07:10:28 | 03:34:55 | 00:00:00 | |
| DM0DOS-11 | 2026-09-04 01:52:50 | 50.72374 | 9.80479 | 83° | 62km/h | 1993m | -2.7m/s | 9.3°C | 0% | 807.4hPa | 2.8V | 07:10:30 | 03:34:53 | 00:00:00 | |
| BIOWL1-15 | 2026-09-04 01:52:49 | 50.72377 | 9.80529 | 88° | 62km/h | 1987m | -2.8m/s | 9.3°C | 100% | 807.9hPa | 2.8V | 07:11:11 | 03:34:55 | 00:00:00 | |
| BIOWL1-15 | 2026-09-04 01:52:47 | 50.72374 | 9.80479 | 84° | 64km/h | 1993m | -2.7m/s | 9.3°C | 100% | 807.4hPa | 2.8V | 07:11:11 | 03:34:53 | 00:00:00 | |
| DL1NUX | 2026-09-04 01:52:46 | 50.72370 | 9.80428 | 80° | 66km/h | 1998m | -2.4m/s | 9.2°C | 0% | 806.9hPa | 2.8V | 07:10:32 | 03:34:51 | 00:00:00 | |
| DL1NUX | 2026-09-04 01:52:46 | 50.72358 | 9.80316 | 81° | 75km/h | 2008m | -2.3m/s | 9.2°C | 0% | 805.9hPa | 2.8V | 07:10:36 | 03:34:47 | 00:00:00 | |
| BIOWL1-15 | 2026-09-04 01:52:46 | 50.72372 | 9.80454 | 82° | 64km/h | 1996m | -2.5m/s | 9.3°C | 100% | 807hPa | 2.8V | 07:11:11 | 03:34:52 | 00:00:00 | |
| DM0DOS-11 | 2026-09-04 01:52:45 | 50.72355 | 9.80286 | 83° | 77km/h | 2010m | -2.8m/s | 9.2°C | 0% | 805.6hPa | 2.8V | 07:10:37 | 03:34:46 | 00:00:00 | |
| BIOWL1-15 | 2026-09-04 01:52:45 | 50.72370 | 9.80428 | 81° | 66km/h | 1998m | -2.4m/s | 9.2°C | 100% | 806.9hPa | 2.8V | 07:11:11 | 03:34:51 | 00:00:00 | |
| DB0NH | 2026-09-04 01:52:45 | 50.72369 | 9.80428 | 81° | 73km/h | 1998m | -2.4m/s | 9.2°C | 0% | 806.8hPa | 2.7V | 00:00:00 | 03:34:51 | 00:00:00 | |
| DB0ND-19 | 2026-09-04 01:52:43 | 50.72361 | 9.80345 | 80° | 73km/h | 2006m | -2.2m/s | 9.2°C | 100.0% | 806.1hPa | 2.7V | 00:00:00 | 00:00:00 | 00:00:00 | |
| SO1NDE-10 | 2026-09-04 01:52:41 | 50.72358 | 9.80316 | 82° | 75km/h | 2008m | -2.2m/s | 9.1°C | 0% | 805.9hPa | 2.7V | 00:00:00 | 03:34:47 | 00:00:00 | |
| DL1NUX | 2026-09-04 01:52:40 | 50.72351 | 9.80133 | 92° | 75km/h | 2024m | -2.6m/s | 9.1°C | 0% | 804.4hPa | 2.8V | 07:10:42 | 03:34:41 | 00:00:00 | |
| DL1NUX | 2026-09-04 01:52:35 | 50.72357 | 9.79995 | 92° | 64km/h | 2038m | -2.8m/s | 9.1°C | 0% | 803.1hPa | 2.8V | 07:10:47 | 03:34:36 | 00:00:00 | |
| BIOWL1-15 | 2026-09-04 01:52:35 | 50.72351 | 9.79817 | 83° | 71km/h | 2057m | -2.5m/s | 8.9°C | 100% | 801.2hPa | 2.8V | 07:11:11 | 03:34:29 | 00:00:00 | |
| DL1NUX | 2026-09-04 01:52:30 | 50.72355 | 9.79870 | 83° | 64km/h | 2052m | -2.5m/s | 9°C | 0% | 801.7hPa | 2.8V | 07:10:52 | 03:34:31 | 00:00:00 | |
| BIOWL1-15 | 2026-09-04 01:52:30 | 50.72349 | 9.79789 | 84° | 73km/h | 2060m | -2.5m/s | 8.9°C | 100% | 800.9hPa | 2.8V | 07:11:11 | 03:34:28 | 00:00:00 | |
| SO1NDE-10 | 2026-09-04 01:52:30 | 50.72357 | 9.79995 | 93° | 64km/h | 2039m | -2.8m/s | 9.0°C | 0% | 803.0hPa | 2.8V | 00:00:00 | 03:34:36 | 00:00:00 | |
| DM0DOS-11 | 2026-09-04 01:52:25 | 50.72345 | 9.79729 | 86° | 77km/h | 2064m | -2.4m/s | 8.9°C | 0% | 800.4hPa | 2.8V | 07:10:57 | 03:34:26 | 00:00:00 | |
| NBG1-10 | 2026-09-04 01:52:24 | 50.72353 | 9.79844 | 83° | 68km/h | 2054m | -2.7m/s | 8.9°C | 0% | 801.4hPa | 2.7V | 00:00:00 | 03:34:30 | 00:00:00 | |
| DL1NUX | 2026-09-04 01:52:22 | 50.72345 | 9.79639 | 91° | 73km/h | 2072m | -2.5m/s | 8.8°C | 0% | 799.6hPa | 2.8V | 07:11:00 | 03:34:23 | 00:00:00 | |
| DF2AP-13 | 2026-09-04 01:52:21 | 50.72347 | 9.79759 | 86° | 68km/h | 2062m | -2.3m/s | 8.8°C | 0% | 800.9hPa | 2.7V | 00:00:00 | 03:34:27 | 00:00:00 | |
| DM0DOS-11 | 2026-09-04 01:52:20 | 50.72346 | 9.79582 | 93° | 69km/h | 2077m | -2.6m/s | 8.8°C | 0% | 799.3hPa | 2.7V | 07:11:02 | 03:34:21 | 00:00:00 | |
| SO1NDE-10 | 2026-09-04 01:52:20 | 50.72345 | 9.79729 | 87° | 68km/h | 2064m | -2.3m/s | 8.8°C | 0% | 800.4hPa | 2.8V | 07:10:00 | 03:34:26 | 00:00:00 | |
| DL1NUX | 2026-09-04 01:52:15 | 50.72349 | 9.79455 | 88° | 60km/h | 2090m | -2.6m/s | 8.8°C | 0% | 798.1hPa | 2.8V | 07:11:07 | 03:34:16 | 00:00:00 | |
| BIOWL1-15 | 2026-09-04 01:52:12 | 50.72349 | 9.79504 | 92° | 62km/h | 2084m | -2.5m/s | 8.8°C | 100% | 798.5hPa | 2.8V | 07:11:11 | 03:34:18 | 00:00:00 | |
| DB0ND-19 | 2026-09-04 01:52:12 | 50.72349 | 9.79480 | 90° | 60km/h | 2087m | -2.7m/s | 8.8°C | 100.0% | 798.4hPa | 2.7V | 00:00:00 | 00:00:00 | 00:00:00 | |
| DB0NH | 2026-09-04 01:52:11 | 50.72349 | 9.79480 | 91° | 69km/h | 2087m | -2.6m/s | 8.7°C | 0% | 798.3hPa | 2.7V | 00:00:00 | 03:34:17 | 00:00:00 | |
| DM0DOS-11 | 2026-09-04 01:52:10 | 50.72341 | 9.79333 | 81° | 66km/h | 2103m | -2.6m/s | 8.7°C | 0% | 796.8hPa | 2.8V | 07:11:12 | 03:34:11 | 00:00:00 | |
| SO1NDE-10 | 2026-09-04 01:52:10 | 50.72349 | 9.79455 | 89° | 66km/h | 2090m | -2.6m/s | 8.7°C | 0% | 798.1hPa | 2.7V | 00:00:00 | 03:34:16 | 00:00:00 | |
| DL1NUX | 2026-09-04 01:52:09 | 50.72338 | 9.79307 | 81° | 68km/h | 2106m | -2.8m/s | 8.7°C | 0% | 796.5hPa | 2.8V | 07:11:13 | 03:34:10 | 00:00:00 | |
| DM0DOS-11 | 2026-09-04 01:52:05 | 50.72330 | 9.79195 | 86° | 75km/h | 2116m | -2.1m/s | 8.7°C | 0% | 795.6hPa | 2.8V | 07:11:17 | 03:34:06 | 00:00:00 | |
| DL1NUX | 2026-09-04 01:52:04 | 50.72329 | 9.79165 | 88° | 75km/h | 2118m | -2.2m/s | 8.7°C | 0% | 795.5hPa | 2.8V | 07:11:18 | 03:34:05 | 00:00:00 | |
| BIOWL1-15 | 2026-09-04 01:52:01 | 50.72331 | 9.79224 | 84° | 73km/h | 2113m | -2.4m/s | 8.7°C | 100% | 795.8hPa | 2.8V | 07:12:02 | 03:34:07 | 00:00:00 | |
| DF2AP-13 | 2026-09-04 01:52:01 | 50.72331 | 9.79224 | 84° | 71km/h | 2113m | -2.4m/s | 8.6°C | 0% | 795.7hPa | 2.8V | 00:00:00 | 03:34:07 | 00:00:00 | |
| DM0DOS-11 | 2026-09-04 01:52:00 | 50.72334 | 9.79017 | 95° | 73km/h | 2132m | -2.9m/s | 8.6°C | 0% | 793.9hPa | 2.8V | 07:11:23 | 03:34:00 | 00:00:00 | |
| SO1NDE-10 | 2026-09-04 01:52:00 | 50.72330 | 9.79195 | 87° | 73km/h | 2116m | -2.1m/s | 8.6°C | 0% | 795.5hPa | 2.8V | 00:00:00 | 03:34:06 | 00:00:00 | |
| DL1NUX | 2026-09-04 01:51:55 | 50.72334 | 9.79017 | 95° | 73km/h | 2132m | -2.9m/s | 8.6°C | 0% | 793.9hPa | 2.8V | 07:11:23 | 03:34:00 | 00:00:00 | |
| DL1NUX | 2026-09-04 01:51:55 | 50.72342 | 9.78880 | 94° | 64km/h | 2146m | -2.9m/s | 8.5°C | 0% | 792.6hPa | 2.8V | 07:11:28 | 03:33:55 | 00:00:00 | |
| BIOWL1-15 | 2026-09-04 01:51:51 | 50.72339 | 9.78932 | 96° | 68km/h | 2141m | -2.7m/s | 8.5°C | 100% | 793.2hPa | 2.8V | 07:12:02 | 03:33:57 | 00:00:00 | |
| BIOWL1-15 | 2026-09-04 01:51:45 | 50.72341 | 9.78662 | 89° | 77km/h | 2168m | -3m/s | 8.4°C | 100% | 790.6hPa | 2.7V | 07:12:02 | 03:33:47 | 00:00:00 | |
| DL1NUX | 2026-09-04 01:51:44 | 50.72343 | 9.78751 | 86° | 71km/h | 2160m | -2.5m/s | 8.4°C | 0% | 791.4hPa | 2.8V | 07:11:33 | 03:33:50 | 00:00:00 | |
| DL1NUX | 2026-09-04 01:51:44 | 50.72341 | 9.78601 | 92° | 77km/h | 2174m | -3m/s | 8.3°C | 0% | 790hPa | 2.8V | 07:11:38 | 03:33:45 | 00:00:00 | |
| DF7PN | 2026-09-04 01:51:44 | 50.72342 | 9.78722 | 87° | 73km/h | 2162m | -2.7m/s | 8.4°C | 99.8% | 791.2hPa | 2.7V | 00:00:00 | 00:00:00 | 00:00:00 | |
| DB0ND-19 | 2026-09-04 01:51:41 | 50.72341 | 9.78631 | 90° | 77km/h | 2170m | -3.1m/s | 8.4°C | 100.0% | 790.3hPa | 2.7V | 00:00:00 | 00:00:00 | 00:00:00 | |
| SO1NDE-10 | 2026-09-04 01:51:40 | 50.72340 | 9.78631 | 91° | 73km/h | 2171m | -3.0m/s | 8.3°C | 0% | 790.2hPa | 2.7V | 00:00:00 | 03:33:46 | 00:00:00 | |
| DL1NUX | 2026-09-04 01:51:39 | 50.72350 | 9.78453 | 97° | 69km/h | 2188m | -2.6m/s | 8.2°C | 0% | 788.7hPa | 2.8V | 07:11:43 | 03:33:40 | 00:00:00 | |
| NBG1-10 | 2026-09-04 01:51:39 | 50.72341 | 9.78601 | 93° | 75km/h | 2174m | -3.0m/s | 8.3°C | 0% | 790.0hPa | 2.8V | 00:00:00 | 03:33:45 | 00:00:00 | |
| BIOWL9-15 | 2026-09-04 01:51:38 | 50.72342 | 9.78570 | 94° | 75km/h | 2177m | -3.0m/s | 8.3°C | 99.8% | 789.9hPa | 2.8V | 00:00:00 | 00:00:00 | 00:00:00 | |
| DB0UT-7 | 2026-09-04 01:51:37 | 50.72344 | 9.78540 | 96° | 75km/h | 2180m | -2.8m/s | 8.3°C | 0% | 789.3hPa | 2.8V | 00:00:00 | 00:00:00 | 00:00:00 | |
| DL1NUX | 2026-09-04 01:51:34 | 50.72355 | 9.78318 | 88° | 69km/h | 2201m | -2.8m/s | 8.2°C | 0% | 787.3hPa | 2.8V | 07:11:48 | 03:33:35 | 00:00:00 | |
| BIOWL1-15 | 2026-09-04 01:51:30 | 50.72356 | 9.78346 | 90° | 68km/h | 2198m | -2.6m/s | 8.2°C | 99.8% | 787.7hPa | 2.7V | 07:12:02 | 03:33:36 | 00:00:00 | |
| SO1NDE-10 | 2026-09-04 01:51:30 | 50.72356 | 9.78346 | 90° | 75km/h | 2198m | -2.5m/s | 8.2°C | 0% | 787.6hPa | 2.8V | 00:00:00 | 03:33:36 | 00:00:00 | |
| DL1NUX | 2026-09-04 01:51:29 | 50.72352 | 9.78171 | 88° | 77km/h | 2215m | -2.9m/s | 8.3°C | 0% | 786.1hPa | 2.8V | 07:11:53 | 03:33:30 | 00:00:00 | |
| DL1NUX | 2026-09-04 01:51:24 | 50.72351 | 9.78015 | 90° | 80km/h | 2229m | -2.8m/s | 8.3°C | 99.6% | 784.8hPa | 2.8V | 07:11:58 | 03:33:25 | 00:00:00 | |
| BIOWL1-15 | 2026-09-04 01:51:20 | 50.72350 | 9.78047 | 90° | 80km/h | 2226m | -2.8m/s | 8.4°C | 100% | 785hPa | 2.7V | 07:12:02 | 03:33:26 | 00:00:00 | |
| SO1NDE-10 | 2026-09-04 01:51:20 | 50.72350 | 9.78047 | 91° | 80km/h | 2227m | -2.8m/s | 8.3°C | 99.4% | 785.0hPa | 2.8V | 00:00:00 | 03:33:26 | 00:00:00 | |
| DL1NUX | 2026-09-04 01:51:19 | 50.72356 | 9.77852 | 95° | 82km/h | 2243m | -2.8m/s | 8.7°C | 93.1% | 783.4hPa | 2.8V | 07:12:03 | 03:33:20 | 00:00:00 | |
| DB0UT-7 | 2026-09-04 01:51:17 | 50.72351 | 9.77950 | 93° | 78km/h | 2235m | -2.7m/s | 8.3°C | 98.9% | 784.1hPa | 2.7V | 00:00:00 | 03:33:23 | 00:00:00 | |
| NBG1-10 | 2026-09-04 01:51:15 | 50.72354 | 9.77884 | 95° | 78km/h | 2241m | -2.8m/s | 8.7°C | 92.9% | 783.6hPa | 2.7V | 00:00:00 | 03:33:21 | 00:00:00 | |
| DL1NUX | 2026-09-04 01:51:14 | 50.72371 | 9.77697 | 98° | 73km/h | 2256m | -2.4m/s | 8.6°C | 93.5% | 782.2hPa | 2.7V | 07:12:08 | 03:33:15 | 00:00:00 | |
| BIOWL1-15 | 2026-09-04 01:51:12 | 50.72368 | 9.77725 | 100° | 75km/h | 2254m | -2.3m/s | 8.6°C | 94.8% | 782.4hPa | 2.8V | 07:12:53 | 03:33:16 | 00:00:00 | |
| DB0NH | 2026-09-04 01:51:11 | 50.72364 | 9.77756 | 100° | 77km/h | 2252m | -2.6m/s | 8.6°C | 93.6% | 782.5hPa | 2.7V | 07:12:00 | 03:33:17 | 00:00:00 | |
| SO1NDE-10 | 2026-09-04 01:51:10 | 50.72368 | 9.77725 | 100° | 77km/h | 2254m | -2.3m/s | 8.6°C | 93.5% | 782.3hPa | 2.7V | 00:00:00 | 03:33:16 | 00:00:00 | |
| BIOWL9-15 | 2026-09-04 01:51:07 | 50.72374 | 9.77640 | 92° | 71km/h | 2261m | -2.3m/s | 8.5°C | 93.1% | 781.8hPa | 2.8V | 00:00:00 | 00:00:00 | 00:00:00 | |
| DL1NUX | 2026-09-04 01:51:04 | 50.72374 | 9.77551 | 88° | 78km/h | 2269m | -2.5m/s | 8.5°C | 94% | 781hPa | 2.8V | 07:12:13 | 03:33:10 | 00:00:00 | |
| DL1NUX | 2026-09-04 01:51:04 | 50.72377 | 9.77386 | 96° | 84km/h | 2281m | -2.5m/s | 8.5°C | 92.2% | 779.9hPa | 2.8V | 07:12:18 | 03:33:05 | 00:00:00 | |
| BIOWL1-15 | 2026-09-04 01:51:02 | 50.72386 | 9.77290 | 100° | 78km/h | 2288m | -2.3m/s | 8.6°C | 92.4% | 779.1hPa | 2.8V | 07:12:53 | 03:33:02 | 00:00:00 | |
| HSKMA3-T | 2026-09-04 01:50:58 | 50.72380 | 9.77353 | 98° | 82km/h | 2284m | -2.5m/s | 8.5°C | 93.2% | 779.5hPa | 2.7V | 07:17:08 | 03:33:04 | 00:00:00 | |
| DB0UT-7 | 2026-09-04 01:50:57 | 50.72383 | 9.77321 | 100° | 77km/h | 2286m | -2.3m/s | 8.5°C | 91.5% | 779.2hPa | 2.7V | 00:00:00 | 00:00:00 | 00:00:00 | |
| DL1NUX | 2026-09-04 01:50:54 | 50.72393 | 9.77231 | 99° | 73km/h | 2293m | -2.4m/s | 8.6°C | 90% | 778.8hPa | 2.8V | 07:12:23 | 03:33:00 | 00:00:00 | |
| BIOWL1-15 | 2026-09-04 01:50:49 | 50.72404 | 9.76978 | 88° | 73km/h | 2316m | -2.5m/s | 8.7°C | 84.3% | 776.6hPa | 2.8V | 07:12:53 | 03:32:51 | 00:00:00 | |
| DM0DOS-11 | 2026-09-04 01:50:49 | 50.72403 | 9.77091 | 93° | 69km/h | 2306m | -2.5m/s | 8.8°C | 84.2% | 777.6hPa | 2.8V | 07:12:28 | 03:32:55 | 00:00:00 | |
| DL1NUX | 2026-09-04 01:50:49 | 50.72403 | 9.76949 | 87° | 75km/h | 2319m | -2.5m/s | 8.7°C | 82.2% | 776.3hPa | 2.8V | 07:12:33 | 03:32:50 | 00:00:00 | |
| DL1NUX | 2026-09-04 01:50:44 | 50.72403 | 9.76787 | 93° | 86km/h | 2330m | -2.2m/s | 8.6°C | 83.1% | 775.4hPa | 2.8V | 07:12:38 | 03:32:45 | 00:00:00 | |
| SO1NDE-10 | 2026-09-04 01:50:40 | 50.72401 | 9.76821 | 92° | 80km/h | 2328m | -2.1m/s | 8.6°C | 82.9% | 775.5hPa | 2.7V | 00:00:00 | 03:32:46 | 00:00:00 | |
| DL1NUX | 2026-09-04 01:50:39 | 50.72416 | 9.76623 | 99° | 77km/h | 2341m | -2.3m/s | 8.6°C | 82.1% | 774.2hPa | 2.8V | 07:12:43 | 03:32:40 | 00:00:00 | |
| BIOWL1-15 | 2026-09-04 01:50:35 | 50.72413 | 9.76654 | 99° | 80km/h | 2339m | -2.3m/s | 8.6°C | 84.6% | 774.5hPa | 2.8V | 07:12:53 | 03:32:41 | 00:00:00 | |
| HSKMA3-T | 2026-09-04 01:50:33 | 50.72419 | 9.76593 | 99° | 75km/h | 2344m | -2.2m/s | 8.6°C | 83.2% | 774hPa | 2.8V | 07:17:08 | 03:32:39 | 00:00:00 | |
| DL1NUX | 2026-09-04 01:50:29 | 50.72426 | 9.76481 | 91° | 69km/h | 2353m | -2.4m/s | 8.8°C | 67.1% | 773.3hPa | 2.8V | 07:12:48 | 03:32:35 | 00:00:00 | |
| DL1NUX | 2026-09-04 01:50:29 | 50.72424 | 9.76335 | 87° | 78km/h | 2364m | -2.3m/s | 8.9°C | 59.2% | 772hPa | 2.8V | 07:12:53 | 03:32:30 | 00:00:00 | |
| BIOWL1-15 | 2026-09-04 01:50:25 | 50.72424 | 9.76366 | 88° | 77km/h | 2362m | -2.4m/s | 9°C | 63.7% | 772.2hPa | 2.8V | 07:12:53 | 03:32:31 | 00:00:00 | |
| DL1NUX | 2026-09-04 01:50:24 | 50.72425 | 9.76169 | 95° | 86km/h | 2376m | -2.5m/s | 9°C | 55.7% | 770.9hPa | 2.8V | 07:12:58 | 03:32:25 | 00:00:00 | |
| BIOWL7-15 | 2026-09-04 01:50:23 | 50.72423 | 9.76335 | 89° | 78km/h | 2365m | -2.3m/s | 8.9°C | 58.7% | 772.0hPa | 2.8V | 07:12:00 | 00:00:00 | 00:00:00 | |
| DF2AP-13 | 2026-09-04 01:50:21 | 50.72422 | 9.76237 | 92° | 78km/h | 2372m | -2.3m/s | 8.9°C | 55.1% | 771.3hPa | 2.8V | 00:00:00 | 03:32:27 | 00:00:00 | |
| SO1NDE-10 | 2026-09-04 01:50:20 | 50.72423 | 9.76203 | 93° | 78km/h | 2374m | -2.4m/s | 9.0°C | 53.1% | 771.2hPa | 2.8V | 00:00:00 | 03:32:26 | 00:00:00 | |
| DL1NUX | 2026-09-04 01:50:19 | 50.72439 | 9.76010 | 98° | 73km/h | 2388m | -2.2m/s | 8.9°C | 61.3% | 769.7hPa | 2.8V | 07:13:03 | 03:32:20 | 00:00:00 | |
| HSKMA3-T | 2026-09-04 01:50:16 | 50.72433 | 9.76070 | 99° | 80km/h | 2384m | -2.3m/s | 8.9°C | 63.4% | 770.2hPa | 2.8V | 07:17:08 | 03:32:22 | 00:00:00 | |
| BIOWL1-15 | 2026-09-04 01:50:14 | 50.72443 | 9.75954 | 94° | 69km/h | 2393m | -2.3m/s | 8.8°C | 66.4% | 769.4hPa | 2.8V | 07:13:44 | 03:32:18 | 00:00:00 | |
| DL1NUX | 2026-09-04 01:50:14 | 50.72443 | 9.75869 | 88° | 73km/h | 2400m | -2.5m/s | 8.8°C | 62.6% | 768.7hPa | 2.7V | 07:13:08 | 03:32:15 | 00:00:00 | |
| DB0NH | 2026-09-04 01:50:11 | 50.72443 | 9.75926 | 92° | 77km/h | 2395m | -2.2m/s | 8.8°C | 62.5% | 769.2hPa | 2.7V | 00:00:00 | 03:32:17 | 00:00:00 | |
| SO1NDE-10 | 2026-09-04 01:50:10 | 50.72444 | 9.75898 | 90° | 80km/h | 2397m | -2.3m/s | 8.7°C | 62.4% | 769.0hPa | 2.7V | 00:00:00 | 03:32:16 | 00:00:00 | |
| NBG1-10 | 2026-09-04 01:50:09 | 50.72443 | 9.75869 | 89° | 77km/h | 2400m | -2.4m/s | 8.7°C | 62.6% | 768.6hPa | 2.7V | 00:00:00 | 03:32:15 | 00:00:00 | |
| DB0ND-19 | 2026-09-04 01:50:08 | 50.72442 | 9.75808 | 88° | 78km/h | 2405m | -2.4m/s | 8.7°C | 61.6% | 768.2hPa | 2.8V | 00:00:00 | 00:00:00 | 00:00:00 | |
| DL1NUX | 2026-09-04 01:50:04 | 50.72442 | 9.75709 | 92° | 86km/h | 2412m | -2.4m/s | 8.7°C | 62.3% | 767.6hPa | 2.8V | 07:13:13 | 03:32:10 | 00:00:00 | |
| BIOWL1-15 | 2026-09-04 01:50:03 | 50.72443 | 9.75675 | 94° | 86km/h | 2414m | -2.4m/s | 8.6°C | 67.2% | 767.4hPa | 2.8V | 07:13:44 | 03:32:09 | 00:00:00 | |
| DM0DOS-11 | 2026-09-04 01:50:02 | 50.72454 | 9.75542 | 100° | 80km/h | 2423m | -2.5m/s | 8.5°C | 64.6% | 766.6hPa | 2.8V | 07:13:18 | 03:32:05 | 00:00:00 | |
| HSKMA3-T | 2026-09-04 01:49:57 | 50.72461 | 9.75481 | 101° | 77km/h | 2429m | -2.5m/s | 8.5°C | 70.3% | 766.2hPa | 2.8V | 07:17:08 | 03:32:03 | 00:00:00 | |
| DB0UT-7 | 2026-09-04 01:49:57 | 50.72461 | 9.75481 | 101° | 78km/h | 2429m | -2.4m/s | 8.4°C | 66.5% | 766.1hPa | 2.7V | 00:00:00 | 03:32:03 | 00:00:00 | |
| DL1NUX | 2026-09-04 01:49:54 | 50.72470 | 9.75395 | 96° | 71km/h | 2436m | -2.4m/s | 8.4°C | 66.9% | 765.4hPa | 2.8V | 07:13:23 | 03:32:00 | 00:00:00 | |
| DL1NUX | 2026-09-04 01:49:54 | 50.72473 | 9.75223 | 88° | 77km/h | 2451m | -2.5m/s | 8.3°C | 68.4% | 764hPa | 2.8V | 07:13:29 | 03:31:54 | 00:00:00 | |
| BIOWL1-15 | 2026-09-04 01:49:52 | 50.72474 | 9.75282 | 89° | 73km/h | 2446m | -2.4m/s | 8.3°C | 72% | 764.5hPa | 2.8V | 07:13:44 | 03:31:56 | 00:00:00 | |
| DB0NH | 2026-09-04 01:49:51 | 50.72473 | 9.75311 | 91° | 78km/h | 2443m | -2.3m/s | 8.3°C | 67.6% | 764.7hPa | 2.7V | 00:00:00 | 03:31:57 | 00:00:00 | |
| DL1NUX | 2026-09-04 01:49:48 | 50.72470 | 9.75061 | 89° | 86km/h | 2463m | -2.5m/s | 8.3°C | 65.9% | 762.8hPa | 2.7V | 07:13:34 | 03:31:49 | 00:00:00 | |
| NBG1-10 | 2026-09-04 01:49:47 | 50.72472 | 9.75192 | 88° | 77km/h | 2453m | -2.4m/s | 8.3°C | 68.0% | 763.8hPa | 2.8V | 00:00:00 | 03:31:53 | 00:00:00 | |
| DL1NUX | 2026-09-04 01:49:43 | 50.72477 | 9.74889 | 98° | 84km/h | 2475m | -2.3m/s | 8.3°C | 68.6% | 761.8hPa | 2.8V | 07:13:39 | 03:31:44 | 00:00:00 | |
| BIOWL1-15 | 2026-09-04 01:49:42 | 50.72472 | 9.74957 | 94° | 88km/h | 2471m | -2.4m/s | 8.3°C | 70% | 762.2hPa | 2.7V | 07:13:44 | 03:31:46 | 00:00:00 | |
| HSKMA3-T | 2026-09-04 01:49:42 | 50.72470 | 9.75027 | 91° | 86km/h | 2466m | -2.6m/s | 8.3°C | 69% | 762.8hPa | 2.8V | 07:17:08 | 03:31:48 | 00:00:00 | |
| DF2AP-13 | 2026-09-04 01:49:41 | 50.72470 | 9.74992 | 93° | 80km/h | 2468m | -2.4m/s | 8.2°C | 67.1% | 762.3hPa | 2.7V | 00:00:00 | 03:31:47 | 00:00:00 | |
| DF7PN | 2026-09-04 01:49:39 | 50.72474 | 9.74923 | 96° | 86km/h | 2473m | -2.3m/s | 8.3°C | 67.6% | 762.0hPa | 2.7V | 00:00:00 | 00:00:00 | 00:00:00 | |
| DL1NUX | 2026-09-04 01:49:38 | 50.72493 | 9.74738 | 97° | 71km/h | 2487m | -2.6m/s | 8.3°C | 74.8% | 760.7hPa | 2.7V | 07:13:44 | 03:31:39 | 00:00:00 | |
| DB0UT-7 | 2026-09-04 01:49:37 | 50.72480 | 9.74857 | 100° | 78km/h | 2478m | -2.3m/s | 8.2°C | 70.4% | 761.6hPa | 2.7V | 00:00:00 | 00:00:00 | 00:00:00 | |
| DB0ND-19 | 2026-09-04 01:49:36 | 50.72483 | 9.74825 | 100° | 77km/h | 2480m | -2.4m/s | 8.3°C | 70.7% | 761.4hPa | 2.7V | 00:00:00 | 00:00:00 | 00:00:00 | |
| SO1NDE-10 | 2026-09-04 01:49:35 | 50.72486 | 9.74795 | 101° | 78km/h | 2482m | -2.4m/s | 8.2°C | 72.4% | 761.1hPa | 2.7V | 00:00:00 | 03:31:41 | 00:00:00 | |
| DL1NUX | 2026-09-04 01:49:33 | 50.72496 | 9.74594 | 88° | 78km/h | 2500m | -2.3m/s | 8.4°C | 77.7% | 759.6hPa | 2.7V | 07:13:49 | 03:31:34 | 00:00:00 | |
| HSKMA3-T | 2026-09-04 01:49:31 | 50.72496 | 9.74682 | 94° | 69km/h | 2492m | -2.5m/s | 8.3°C | 79.3% | 760.4hPa | 2.7V | 07:17:08 | 03:31:37 | 00:00:00 | |
| BIOWL1-15 | 2026-09-04 01:49:29 | 50.72497 | 9.74625 | 90° | 75km/h | 2497m | -2.4m/s | 8.4°C | 80.5% | 759.8hPa | 2.8V | 07:14:35 | 03:31:35 | 00:00:00 | |
| DL1ZP-14 | 2026-09-04 01:49:29 | 50.72497 | 9.74625 | 89° | 73km/h | 2497m | -2.4m/s | 8.4°C | 77.8% | 759.8hPa | 2.8V | 00:00:00 | 00:00:00 | 00:00:00 | |
| DL1NUX | 2026-09-04 01:49:28 | 50.72498 | 9.74426 | 94° | 88km/h | 2511m | -2.5m/s | 8.7°C | 72.5% | 758.5hPa | 2.7V | 07:13:54 | 03:31:29 | 00:00:00 | |
| NBG1-10 | 2026-09-04 01:49:25 | 50.72496 | 9.74495 | 92° | 82km/h | 2507m | -2.4m/s | 8.6°C | 73.3% | 758.9hPa | 2.8V | 00:00:00 | 03:31:31 | 00:00:00 | |
| DL1NUX | 2026-09-04 01:49:23 | 50.72513 | 9.74261 | 99° | 77km/h | 2524m | -2.6m/s | 8.9°C | 63% | 757.2hPa | 2.8V | 07:13:59 | 03:31:24 | 00:00:00 | |
| BIOWL1-15 | 2026-09-04 01:49:21 | 50.72510 | 9.74292 | 100° | 80km/h | 2522m | -2.8m/s | 8.9°C | 67.5% | 757.6hPa | 2.8V | 07:14:35 | 03:31:25 | 00:00:00 | |
| DF2AP-13 | 2026-09-04 01:49:21 | 50.72503 | 9.74357 | 99° | 80km/h | 2517m | -2.6m/s | 8.7°C | 72.0% | 758.0hPa | 2.8V | 00:00:00 | 03:31:27 | 00:00:00 | |
| DL1NUX | 2026-09-04 01:49:18 | 50.72519 | 9.74115 | 88° | 77km/h | 2537m | -2.5m/s | 8.9°C | 55.5% | 756.1hPa | 2.8V | 07:14:04 | 03:31:19 | 00:00:00 | |
| DB0UT-7 | 2026-09-04 01:49:17 | 50.72516 | 9.74232 | 98° | 78km/h | 2527m | -2.4m/s | 8.8°C | 63.4% | 757.0hPa | 2.7V | 00:00:00 | 03:31:23 | 00:00:00 | |
| SO1NDE-10 | 2026-09-04 01:49:15 | 50.72519 | 9.74174 | 93° | 78km/h | 2532m | -2.3m/s | 8.9°C | 59.4% | 756.6hPa | 2.7V | 07:14:00 | 03:31:21 | 00:00:00 | |
| DL1NUX | 2026-09-04 01:49:13 | 50.72518 | 9.73951 | 93° | 88km/h | 2550m | -2.6m/s | 8.9°C | 55.2% | 755hPa | 2.8V | 07:14:09 | 03:31:14 | 00:00:00 | |
| BIOWL1-15 | 2026-09-04 01:49:10 | 50.72523 | 9.73882 | 98° | 86km/h | 2555m | -2.4m/s | 8.9°C | 59.7% | 754.5hPa | 2.8V | 07:14:35 | 03:31:12 | 00:00:00 | |
| DL1NUX | 2026-09-04 01:49:08 | 50.72533 | 9.73786 | 99° | 77km/h | 2562m | -2.4m/s | 8.9°C | 53.8% | 753.9hPa | 2.7V | 07:14:14 | 03:31:09 | 00:00:00 | |
| DB0ND-19 | 2026-09-04 01:49:05 | 50.72555 | 9.73240 | 99° | 84km/h | 2603m | -2.6m/s | 8.5°C | 56.3% | 750.2hPa | 2.7V | 00:00:00 | 00:00:00 | 00:00:00 | |
| DL1NUX | 2026-09-04 01:49:03 | 50.72541 | 9.73642 | 90° | 73km/h | 2574m | -2.5m/s | 8.8°C | 56.2% | 752.9hPa | 2.7V | 07:14:19 | 03:31:04 | 00:00:00 | |
| NBG1-10 | 2026-09-04 01:49:03 | 50.72532 | 9.73786 | 100° | 80km/h | 2562m | -2.3m/s | 8.8°C | 53.8% | 753.8hPa | 2.7V | 00:00:00 | 03:31:09 | 00:00:00 | |
| DF2AP-13 | 2026-09-04 01:49:01 | 50.72538 | 9.73728 | 97° | 80km/h | 2567m | -2.2m/s | 8.8°C | 55.6% | 753.4hPa | 2.7V | 00:00:00 | 03:31:07 | 00:00:00 | |
| DL1NUX | 2026-09-04 01:48:58 | 50.72540 | 9.73482 | 91° | 86km/h | 2586m | -2.4m/s | 8.7°C | 56.7% | 751.8hPa | 2.7V | 07:14:24 | 03:30:59 | 00:00:00 | |
| BIOWL1-15 | 2026-09-04 01:48:57 | 50.72540 | 9.73582 | 89° | 78km/h | 2579m | -2.3m/s | 8.7°C | 60.6% | 752.3hPa | 2.7V | 07:14:35 | 03:31:02 | 00:00:00 | |
| DB0UT-7 | 2026-09-04 01:48:57 | 50.72541 | 9.73612 | 89° | 82km/h | 2576m | -2.4m/s | 8.7°C | 56.3% | 752.6hPa | 2.7V | 00:00:00 | 00:00:00 | 00:00:00 | |
| SO1NDE-10 | 2026-09-04 01:48:55 | 50.72540 | 9.73549 | 90° | 80km/h | 2581m | -2.3m/s | 8.7°C | 56.6% | 752.2hPa | 2.7V | 00:00:00 | 03:31:01 | 00:00:00 | |
| DB0NH | 2026-09-04 01:48:51 | 50.72542 | 9.73413 | 94° | 80km/h | 2590m | -2.5m/s | 8.6°C | 56.6% | 751.3hPa | 2.7V | 00:00:00 | 03:30:57 | 00:00:00 | |
| DL1NUX | 2026-09-04 01:48:48 | 50.72549 | 9.73309 | 97° | 88km/h | 2598m | -2.6m/s | 8.6°C | 57% | 750.6hPa | 2.7V | 07:14:29 | 03:30:54 | 00:00:00 | |
| DL1NUX | 2026-09-04 01:48:48 | 50.72566 | 9.73143 | 100° | 78km/h | 2611m | -2.5m/s | 8.5°C | 56.4% | 749.3hPa | 2.7V | 07:14:34 | 03:30:49 | 00:00:00 | |
| BIOWL1-15 | 2026-09-04 01:48:46 | 50.72555 | 9.73240 | 99° | 86km/h | 2604m | -2.6m/s | 8.5°C | 61.7% | 750.2hPa | 2.7V | 07:14:35 | 03:30:52 | 00:00:00 | |
| DL1NUX | 2026-09-04 01:48:43 | 50.72578 | 9.72997 | 91° | 71km/h | 2624m | -2.5m/s | 8.3°C | 56.8% | 748.4hPa | 2.7V | 07:14:39 | 03:30:44 | 00:00:00 | |
| DF2AP-13 | 2026-09-04 01:48:41 | 50.72572 | 9.73083 | 100° | 77km/h | 2616m | -2.5m/s | 8.4°C | 56.1% | 749.0hPa | 2.7V | 00:00:00 | 03:30:47 | 00:00:00 | |
| DL1NUX | 2026-09-04 01:48:38 | 50.72578 | 9.72840 | 92° | 86km/h | 2636m | -2.4m/s | 8.3°C | 56.4% | 747.3hPa | 2.7V | 07:14:44 | 03:30:39 | 00:00:00 | |
| BIOWL1-15 | 2026-09-04 01:48:35 | 50.72578 | 9.72906 | 90° | 80km/h | 2631m | -2.5m/s | 8.3°C | 60.8% | 747.6hPa | 2.7V | 07:15:26 | 03:30:41 | 00:00:00 | |
| SO1NDE-10 | 2026-09-04 01:48:35 | 50.72578 | 9.72906 | 90° | 78km/h | 2631m | -2.4m/s | 8.3°C | 56.5% | 747.5hPa | 2.7V | 00:00:00 | 03:30:41 | 00:00:00 | |
| DL1NUX | 2026-09-04 01:48:33 | 50.72593 | 9.72673 | 101° | 80km/h | 2648m | -2.6m/s | 8.1°C | 57.1% | 746hPa | 2.7V | 07:14:49 | 03:30:34 | 00:00:00 | |
| BIOWL9-15 | 2026-09-04 01:48:32 | 50.72582 | 9.72772 | 96° | 84km/h | 2641m | -2.4m/s | 0°C | -1.0% | -1.0hPa | 2.7V | 00:00:00 | 00:00:00 | 00:00:00 | |
| DB0NH | 2026-09-04 01:48:31 | 50.72582 | 9.72771 | 97° | 78km/h | 2641m | -2.3m/s | 8.2°C | 56.9% | 746.8hPa | 2.7V | 07:14:00 | 03:30:37 | 00:00:00 | |
| BIOWL7-15 | 2026-09-04 01:48:30 | 50.72582 | 9.72771 | 98° | 86km/h | 2641m | -2.4m/s | 8.2°C | 56.4% | 746.9hPa | 2.7V | 00:00:00 | 00:00:00 | 00:00:00 | |
| DL1NUX | 2026-09-04 01:48:28 | 50.72609 | 9.72527 | 95° | 69km/h | 2661m | -2.6m/s | 8.1°C | 55.5% | 745hPa | 2.7V | 07:14:54 | 03:30:29 | 00:00:00 | |
| BIOWL1-15 | 2026-09-04 01:48:24 | 50.72607 | 9.72555 | 98° | 71km/h | 2659m | -2.7m/s | 8.1°C | 59.3% | 745.1hPa | 2.7V | 07:15:26 | 03:30:30 | 00:00:00 | |
| DL1NUX | 2026-09-04 01:48:23 | 50.72612 | 9.72379 | 91° | 82km/h | 2674m | -2.3m/s | 8.1°C | 54.9% | 743.9hPa | 2.7V | 07:14:59 | 03:30:24 | 00:00:00 | |
| DF2AP-13 | 2026-09-04 01:48:21 | 50.72611 | 9.72471 | 92° | 77km/h | 2666m | -2.4m/s | 8.0°C | 55.2% | 744.5hPa | 2.7V | 00:00:00 | 03:30:27 | 00:00:00 | |
| DL1NUX | 2026-09-04 01:48:18 | 50.72625 | 9.72213 | 101° | 82km/h | 2686m | -2.5m/s | 8°C | 55% | 742.6hPa | 2.7V | 07:15:04 | 03:30:19 | 00:00:00 | |
| BIOWL1-15 | 2026-09-04 01:48:16 | 50.72621 | 9.72246 | 101° | 84km/h | 2683m | -2.6m/s | 8°C | 59.2% | 743hPa | 2.7V | 07:15:26 | 03:30:20 | 00:00:00 | |
| SO1NDE-10 | 2026-09-04 01:48:15 | 50.72618 | 9.72279 | 99° | 77km/h | 2681m | -2.4m/s | 8.0°C | 55.3% | 743.2hPa | 2.7V | 00:00:00 | 03:30:21 | 00:00:00 | |
| DL1NUX | 2026-09-04 01:48:13 | 50.72646 | 9.72065 | 101° | 71km/h | 2699m | -2.5m/s | 8°C | 53.3% | 741.5hPa | 2.7V | 07:15:09 | 03:30:14 | 00:00:00 | |
| DB0NH | 2026-09-04 01:48:11 | 50.72634 | 9.72151 | 104° | 75km/h | 2691m | -2.5m/s | 7.9°C | 54.9% | 742.2hPa | 2.7V | 00:00:00 | 03:30:17 | 00:00:00 | |
| DL1NUX | 2026-09-04 01:48:08 | 50.72655 | 9.71927 | 90° | 73km/h | 2711m | -2.4m/s | 8°C | 53.4% | 740.4hPa | 2.7V | 07:15:14 | 03:30:09 | 00:00:00 | |
| BIOWL1-15 | 2026-09-04 01:48:04 | 50.72654 | 9.71956 | 92° | 71km/h | 2708m | -2.6m/s | 8°C | 56.1% | 740.8hPa | 2.7V | 07:15:26 | 03:30:10 | 00:00:00 | |
| DL1NUX | 2026-09-04 01:48:03 | 50.72660 | 9.71768 | 97° | 84km/h | 2723m | -2.5m/s | 8.1°C | 47.7% | 739.3hPa | 2.7V | 07:15:19 | 03:30:04 | 00:00:00 | |
| BIOWL1-15 | 2026-09-04 01:47:56 | 50.72675 | 9.71643 | 104° | 75km/h | 2733m | -2.4m/s | 8.1°C | 44.6% | 738.4hPa | 2.7V | 07:15:26 | 03:30:00 | 00:00:00 | |
| DL1ZP-14 | 2026-09-04 01:47:56 | 50.72671 | 9.71673 | 102° | 77km/h | 2730m | -2.3m/s | 8.1°C | 43.3% | 738.8hPa | 2.7V | 00:00:00 | 00:00:00 | 00:00:00 | |
| DM0DOS-11 | 2026-09-04 01:47:53 | 50.72680 | 9.71615 | 103° | 71km/h | 2736m | -2.5m/s | 8.2°C | 34.7% | 738.2hPa | 2.7V | 07:15:24 | 03:29:59 | 00:00:00 | |
| DB0NH | 2026-09-04 01:47:51 | 50.72687 | 9.71561 | 101° | 75km/h | 2740m | -2.6m/s | 8.3°C | 25.9% | 737.7hPa | 2.7V | 00:00:00 | 03:29:57 | 00:00:00 | |
| DL1NUX | 2026-09-04 01:47:48 | 50.72692 | 9.71481 | 93° | 69km/h | 2748m | -2.4m/s | 8.5°C | 14.1% | 737.2hPa | 2.7V | 07:15:29 | 03:29:54 | 00:00:00 | |
| DL1NUX | 2026-09-04 01:47:48 | 50.72701 | 9.71325 | 99° | 84km/h | 2760m | -2.4m/s | 8.4°C | 11.4% | 736.1hPa | 2.7V | 07:15:34 | 03:29:49 | 00:00:00 | |
| BIOWL1-15 | 2026-09-04 01:47:43 | 50.72710 | 9.71261 | 104° | 80km/h | 2765m | -2.6m/s | 8.5°C | 9.3% | 735.7hPa | 2.7V | 07:16:17 | 03:29:47 | 00:00:00 | |
| DL1NUX | 2026-09-04 01:47:43 | 50.72725 | 9.71173 | 103° | 71km/h | 2772m | -2.5m/s | 8.4°C | 9.9% | 735hPa | 2.7V | 07:15:39 | 03:29:44 | 00:00:00 | |
| NBG1-10 | 2026-09-04 01:47:43 | 50.72701 | 9.71325 | 100° | 78km/h | 2760m | -2.3m/s | 8.4°C | 11.4% | 736.0hPa | 2.7V | 00:00:00 | 03:29:49 | 00:00:00 | |
| DF2AP-13 | 2026-09-04 01:47:41 | 50.72710 | 9.71261 | 104° | 78km/h | 2765m | -2.6m/s | 8.4°C | 10.1% | 735.6hPa | 2.7V | 00:00:00 | 03:29:47 | 00:00:00 | |
| DM0DOS-11 | 2026-09-04 01:47:37 | 50.72737 | 9.71005 | 92° | 77km/h | 2786m | -2.4m/s | 8.5°C | 10.3% | 733.6hPa | 2.7V | 07:15:45 | 03:29:38 | 00:00:00 | |
| BIOWL1-15 | 2026-09-04 01:47:35 | 50.72737 | 9.71005 | 93° | 77km/h | 2786m | -2.4m/s | 8.5°C | 9.9% | 733.6hPa | 2.7V | 07:16:17 | 03:29:38 | 00:00:00 | |
| DL1NUX | 2026-09-04 01:47:33 | 50.72736 | 9.71035 | 92° | 73km/h | 2784m | -2.3m/s | 8.4°C | 10.3% | 734hPa | 2.7V | 07:15:44 | 03:29:39 | 00:00:00 | |
| DL1NUX | 2026-09-04 01:47:33 | 50.72744 | 9.70878 | 97° | 84km/h | 2797m | -2.4m/s | 8.4°C | 11.2% | 732.9hPa | 2.7V | 07:15:49 | 03:29:34 | 00:00:00 | |
| DB0NH | 2026-09-04 01:47:31 | 50.72738 | 9.70974 | 94° | 77km/h | 2789m | -2.5m/s | 8.4°C | 10.6% | 733.4hPa | 2.7V | 00:00:00 | 03:29:37 | 00:00:00 | |
| BIOWL7-15 | 2026-09-04 01:47:29 | 50.72739 | 9.70943 | 95° | 80km/h | 2792m | -2.5m/s | 8.5°C | 10.7% | 733.3hPa | 2.7V | 07:16:00 | 00:00:00 | 00:00:00 | |
| DL1NUX | 2026-09-04 01:47:28 | 50.72762 | 9.70714 | 103° | 82km/h | 2809m | -2.5m/s | 8.4°C | 11.4% | 731.6hPa | 2.7V | 07:15:54 | 03:29:29 | 00:00:00 | |
| DM0DOS-11 | 2026-09-04 01:47:27 | 50.72767 | 9.70682 | 104° | 82km/h | 2812m | -2.4m/s | 8.4°C | 11.7% | 731.4hPa | 2.7V | 07:15:55 | 03:29:28 | 00:00:00 | |
| HSKMA3-T | 2026-09-04 01:47:24 | 50.72758 | 9.70746 | 102° | 84km/h | 2807m | -2.6m/s | 8.4°C | 11.1% | 732hPa | 2.7V | 07:17:08 | 03:29:30 | 00:00:00 | |
| DL1NUX | 2026-09-04 01:47:23 | 50.72788 | 9.70564 | 105° | 71km/h | 2822m | -2.2m/s | 8.4°C | 11.8% | 730.6hPa | 2.7V | 07:15:59 | 03:29:24 | 00:00:00 | |
| DM0DOS-11 | 2026-09-04 01:47:22 | 50.72792 | 9.70537 | 103° | 69km/h | 2824m | -2.3m/s | 8.4°C | 11.6% | 730.5hPa | 2.7V | 07:16:00 | 03:29:23 | 00:00:00 | |
| BIOWL1-15 | 2026-09-04 01:47:22 | 50.72767 | 9.70682 | 104° | 82km/h | 2812m | -2.4m/s | 8.4°C | 11.5% | 731.5hPa | 2.7V | 07:16:17 | 03:29:28 | 00:00:00 | |
| DF2AP-13 | 2026-09-04 01:47:21 | 50.72772 | 9.70651 | 106° | 77km/h | 2815m | -2.4m/s | 8.3°C | 11.8% | 731.1hPa | 2.7V | 07:15:00 | 03:29:27 | 00:00:00 | |
| DL1NUX | 2026-09-04 01:47:18 | 50.72802 | 9.70427 | 94° | 73km/h | 2833m | -2.3m/s | 8.5°C | 11.4% | 729.7hPa | 2.7V | 07:16:04 | 03:29:19 | 00:00:00 | |
| DM0DOS-11 | 2026-09-04 01:47:17 | 50.72803 | 9.70397 | 93° | 77km/h | 2835m | -2.2m/s | 8.5°C | 11% | 729.5hPa | 2.7V | 07:16:05 | 03:29:18 | 00:00:00 | |
| DB0UT-7 | 2026-09-04 01:47:17 | 50.72792 | 9.70536 | 104° | 75km/h | 2824m | -2.3m/s | 8.4°C | 11.6% | 730.4hPa | 2.7V | 00:00:00 | 03:29:23 | 00:00:00 | |
| SO1NDE-10 | 2026-09-04 01:47:15 | 50.72799 | 9.70483 | 98° | 77km/h | 2828m | -2.2m/s | 8.4°C | 11.5% | 730.1hPa | 2.7V | 00:00:00 | 03:29:21 | 00:00:00 | |
| DL1NUX | 2026-09-04 01:47:13 | 50.72812 | 9.70269 | 99° | 84km/h | 2844m | -2.3m/s | 8.6°C | 10.6% | 728.6hPa | 2.7V | 07:16:09 | 03:29:14 | 00:00:00 | |
| DM0DOS-11 | 2026-09-04 01:47:12 | 50.72820 | 9.70203 | 103° | 82km/h | 2849m | -2.4m/s | 8.6°C | 11.9% | 728.2hPa | 2.7V | 07:16:11 | 03:29:12 | 00:00:00 | |
| HSKMA3-T | 2026-09-04 01:47:12 | 50.72804 | 9.70397 | 94° | 77km/h | 2835m | -2.2m/s | 8.5°C | 10.6% | 729.5hPa | 2.7V | 07:17:08 | 03:29:18 | 00:00:00 | |
| BIOWL1-15 | 2026-09-04 01:47:11 | 50.72805 | 9.70366 | 94° | 78km/h | 2837m | -2.3m/s | 8.5°C | 10.4% | 729.3hPa | 2.7V | 07:16:17 | 03:29:17 | 00:00:00 | |
| DB0NH | 2026-09-04 01:47:11 | 50.72805 | 9.70366 | 95° | 77km/h | 2838m | -2.3m/s | 8.5°C | 10.8% | 729.2hPa | 2.7V | 00:00:00 | 03:29:17 | 00:00:00 | |
| DL1NUX | 2026-09-04 01:47:08 | 50.72836 | 9.70110 | 107° | 78km/h | 2856m | -2.4m/s | 8.6°C | 11.3% | 727.7hPa | 2.7V | 07:16:14 | 03:29:09 | 00:00:00 | |
| DF7PN | 2026-09-04 01:47:04 | 50.72831 | 9.70141 | 106° | 78km/h | 2854m | -2.3m/s | 8.6°C | 11.3% | 727.8hPa | 2.7V | 00:00:00 | 00:00:00 | 00:00:00 | |
| DL1NUX | 2026-09-04 01:47:03 | 50.72863 | 9.69970 | 104° | 69km/h | 2868m | -2.3m/s | 8.5°C | 11.3% | 726.5hPa | 2.7V | 07:16:19 | 03:29:04 | 00:00:00 | |
| BIOWL1-15 | 2026-09-04 01:47:02 | 50.72853 | 9.70024 | 107° | 73km/h | 2863m | -2.4m/s | 8.6°C | 11.2% | 727hPa | 2.7V | 07:16:17 | 03:29:06 | 00:00:00 | |
| DM0DOS-11 | 2026-09-04 01:47:01 | 50.72871 | 9.69917 | 100° | 68km/h | 2872m | -2.1m/s | 8.5°C | 11.2% | 726.1hPa | 2.7V | 07:16:21 | 03:29:02 | 00:00:00 | |
| DF2AP-13 | 2026-09-04 01:47:01 | 50.72848 | 9.70052 | 108° | 73km/h | 2861m | -2.3m/s | 8.5°C | 11.4% | 727.1hPa | 2.7V | 00:00:00 | 03:29:07 | 00:00:00 | |
| NBG1-10 | 2026-09-04 01:46:59 | 50.72858 | 9.69997 | 107° | 73km/h | 2866m | -2.4m/s | 8.5°C | 11.2% | 726.7hPa | 2.7V | 00:00:00 | 03:29:05 | 00:00:00 | |
| DL1NUX | 2026-09-04 01:46:58 | 50.72877 | 9.69835 | 93° | 73km/h | 2879m | -2.4m/s | 8.4°C | 11.2% | 725.6hPa | 2.7V | 07:16:24 | 03:28:59 | 00:00:00 | |
| DB0UT-7 | 2026-09-04 01:46:57 | 50.72868 | 9.69943 | 103° | 73km/h | 2870m | -2.1m/s | 8.5°C | 11.3% | 726.3hPa | 2.7V | 00:00:00 | 00:00:00 | 00:00:00 | |
| DM0DOS-11 | 2026-09-04 01:46:56 | 50.72879 | 9.69775 | 94° | 78km/h | 2884m | -2.4m/s | 8.4°C | 11.2% | 725.2hPa | 2.7V | 07:16:26 | 03:28:57 | 00:00:00 | |
| DL1ZP-14 | 2026-09-04 01:46:54 | 50.72877 | 9.69835 | 93° | 71km/h | 2879m | -2.4m/s | 8.5°C | 11.2% | 725.6hPa | 2.7V | 00:00:00 | 00:00:00 | 00:00:00 | |
| DL1NUX | 2026-09-04 01:46:53 | 50.72886 | 9.69679 | 99° | 82km/h | 2891m | -2.3m/s | 8.4°C | 11% | 724.6hPa | 2.7V | 07:16:29 | 03:28:54 | 00:00:00 | |
| BIOWL1-15 | 2026-09-04 01:46:52 | 50.72881 | 9.69744 | 95° | 80km/h | 2886m | -2.3m/s | 8.4°C | 10.9% | 725hPa | 2.7V | 07:17:08 | 03:28:56 | 00:00:00 | |
| DM0DOS-11 | 2026-09-04 01:46:51 | 50.72894 | 9.69616 | 103° | 78km/h | 2895m | -2.1m/s | 8.4°C | 10.8% | 724.1hPa | 2.7V | 07:16:31 | 03:28:52 | 00:00:00 | |
| DB0NH | 2026-09-04 01:46:51 | 50.72879 | 9.69775 | 95° | 73km/h | 2884m | -2.3m/s | 8.4°C | 11.2% | 725.2hPa | 2.7V | 00:00:00 | 03:28:57 | 00:00:00 | |
| DL1NUX | 2026-09-04 01:46:48 | 50.72910 | 9.69530 | 105° | 71km/h | 2901m | -2.2m/s | 8.4°C | 10.7% | 723.7hPa | 2.7V | 07:16:34 | 03:28:49 | 00:00:00 | |
| SONCRA | 2026-09-04 01:46:47 | 50.72899 | 9.69586 | 105° | 75km/h | 2897m | -2.1m/s | 8.4°C | 10.8% | 724.0hPa | 2.7V | 00:00:00 | 00:00:00 | 00:00:00 | |
| DM0DOS-11 | 2026-09-04 01:46:46 | 50.72919 | 9.69477 | 104° | 68km/h | 2906m | -2.4m/s | 8.3°C | 10.7% | 723.1hPa | 2.7V | 07:16:36 | 03:28:47 | 00:00:00 | |
| HSKMA3-T | 2026-09-04 01:46:46 | 50.72894 | 9.69616 | 104° | 78km/h | 2895m | -2.1m/s | 8.4°C | 10.5% | 724.1hPa | 2.7V | 07:17:08 | 03:28:52 | 00:00:00 | |
| DL1NUX | 2026-09-04 01:46:43 | 50.72929 | 9.69400 | 99° | 64km/h | 2914m | -2.4m/s | 8.3°C | 10.6% | 722.6hPa | 2.7V | 07:16:39 | 03:28:44 | 00:00:00 | |
| DM0DOS-11 | 2026-09-04 01:46:41 | 50.72934 | 9.69348 | 96° | 68km/h | 2918m | -2.4m/s | 8.3°C | 10.6% | 722.1hPa | 2.7V | 07:16:41 | 03:28:42 | 00:00:00 | |
| BIOWL1-15 | 2026-09-04 01:46:39 | 50.72926 | 9.69425 | 102° | 66km/h | 2911m | -2.5m/s | 8.3°C | 10.3% | 722.8hPa | 2.7V | 07:17:08 | 03:28:45 | 00:00:00 | |
| DB0UT-7 | 2026-09-04 01:46:37 | 50.72932 | 9.69374 | 98° | 73km/h | 2916m | -2.4m/s | 8.2°C | 10.6% | 722.3hPa | 2.7V | 00:00:00 | 03:28:43 | 00:00:00 | |
| DM0DOS-11 | 2026-09-04 01:46:36 | 50.72940 | 9.69203 | 95° | 78km/h | 2930m | -2.3m/s | 8.2°C | 10.5% | 721.1hPa | 2.7V | 07:16:46 | 03:28:37 | 00:00:00 | |
| HSKMA3-T | 2026-09-04 01:46:35 | 50.72935 | 9.69321 | 94° | 69km/h | 2921m | -2.3m/s | 8.3°C | 10% | 721.8hPa | 2.7V | 07:17:08 | 03:28:41 | 00:00:00 | |
| DL1NUX | 2026-09-04 01:46:33 | 50.72949 | 9.69107 | 101° | 80km/h | 2936m | -2.2m/s | 8.2°C | 10.5% | 720.6hPa | 2.7V | 07:16:49 | 03:28:34 | 00:00:00 | |
| BIOWL1-15 | 2026-09-04 01:46:31 | 50.72945 | 9.69139 | 99° | 80km/h | 2934m | -2.3m/s | 8.2°C | 10.1% | 720.8hPa | 2.7V | 07:17:08 | 03:28:35 | 00:00:00 | |
| DB0NH | 2026-09-04 01:46:31 | 50.72940 | 9.69203 | 96° | 71km/h | 2930m | -2.2m/s | 8.2°C | 10.5% | 721.0hPa | 2.7V | 00:00:00 | 03:28:37 | 00:00:00 | |
| DB0ND-19 | 2026-09-04 01:46:30 | 50.72942 | 9.69171 | 97° | 80km/h | 2932m | -2.1m/s | 8.2°C | 10.5% | 721.1hPa | 2.7V | 00:00:00 | 00:00:00 | 00:00:00 | |
| DL1NUX | 2026-09-04 01:46:28 | 50.72973 | 9.68959 | 105° | 71km/h | 2948m | -2.4m/s | 8.2°C | 10.6% | 719.4hPa | 2.7V | 07:16:54 | 03:28:29 | 00:00:00 | |
| DM0DOS-11 | 2026-09-04 01:46:27 | 50.72963 | 9.69016 | 105° | 77km/h | 2943m | -2.3m/s | 8.2°C | 10.5% | 720hPa | 2.7V | 07:16:52 | 03:28:31 | 00:00:00 | |
| HSKMA3-T | 2026-09-04 01:46:24 | 50.72968 | 9.68987 | 106° | 73km/h | 2946m | -2.3m/s | 8.2°C | 10.2% | 719.8hPa | 2.7V | 07:17:08 | 03:28:30 | 00:00:00 | |
| DL1NUX | 2026-09-04 01:46:23 | 50.72993 | 9.68831 | 99° | 64km/h | 2960m | -2.4m/s | 8.2°C | 11.1% | 718.4hPa | 2.7V | 07:16:59 | 03:28:24 | 00:00:00 | |
| BIOWL1-15 | 2026-09-04 01:46:20 | 50.72993 | 9.68831 | 100° | 64km/h | 2960m | -2.4m/s | 8.2°C | 10.9% | 718.5hPa | 2.7V | 07:17:08 | 03:28:24 | 00:00:00 | |
| DL1NUX | 2026-09-04 01:46:18 | 50.73000 | 9.68699 | 92° | 73km/h | 2972m | -2.3m/s | 8.1°C | 11.2% | 717.5hPa | 2.7V | 07:17:04 | 03:28:19 | 00:00:00 | |
| HSKMA3-T | 2026-09-04 01:46:14 | 50.72999 | 9.68728 | 92° | 69km/h | 2970m | -2.3m/s | 8.1°C | 10.9% | 717.7hPa | 2.7V | 07:17:08 | 03:28:20 | 00:00:00 | |
| BIOWL1-15 | 2026-09-04 01:46:07 | 50.73025 | 9.68457 | 106° | 73km/h | 2990m | -2.3m/s | 8.1°C | 10.9% | 716hPa | 2.7V | 07:17:59 | 03:28:11 | 00:00:00 | |
| HSKMA3-T | 2026-09-04 01:46:04 | 50.73030 | 9.68429 | 106° | 69km/h | 2993m | -2.3m/s | 8.1°C | 10.6% | 715.7hPa | 2.7V | 07:17:59 | 03:28:10 | 00:00:00 | |
| DL1NUX | 2026-09-04 01:46:03 | 50.73034 | 9.68403 | 105° | 68km/h | 2995m | -2.2m/s | 8.1°C | 11% | 715.5hPa | 2.7V | 07:17:14 | 03:28:09 | 00:00:00 | |
| DF7PN | 2026-09-04 01:46:02 | 50.73038 | 9.68377 | 103° | 64km/h | 2997m | -2.4m/s | 8.0°C | 10.8% | 715.3hPa | 2.7V | 00:00:00 | 00:00:00 | 00:00:00 | |
| DM0DOS-11 | 2026-09-04 01:46:02 | 50.73048 | 9.68250 | 92° | 69km/h | 3009m | -2.2m/s | 8°C | 10.5% | 714.4hPa | 2.7V | 07:17:20 | 03:28:03 | 00:00:00 | |
| DB0ND-19 | 2026-09-04 01:45:59 | 50.73046 | 9.68303 | 95° | 62km/h | 3004m | -2.2m/s | 8.0°C | 10.8% | 714.8hPa | 2.7V | 00:00:00 | 00:00:00 | 00:00:00 | |
| DL1NUX | 2026-09-04 01:45:58 | 50.73056 | 9.68129 | 99° | 78km/h | 3017m | -2.3m/s | 8.1°C | 10.6% | 713.7hPa | 2.7V | 07:17:24 | 03:27:59 | 00:00:00 | |
| BIOWL1-15 | 2026-09-04 01:45:58 | 50.73049 | 9.68221 | 93° | 73km/h | 3011m | -2.1m/s | 8°C | 9.9% | 714.2hPa | 2.7V | 07:17:59 | 03:28:02 | 00:00:00 | |
| DM0DOS-11 | 2026-09-04 01:45:57 | 50.73059 | 9.68099 | 101° | 78km/h | 3019m | -2.3m/s | 8.1°C | 10.6% | 713.4hPa | 2.7V | 07:17:25 | 03:27:58 | 00:00:00 | |
| HSKMA3-T | 2026-09-04 01:45:53 | 50.73056 | 9.68129 | 100° | 78km/h | 3017m | -2.3m/s | 8.1°C | 10.2% | 713.7hPa | 2.7V | 07:17:59 | 03:27:59 | 00:00:00 | |
| NBG1-10 | 2026-09-04 01:45:53 | 50.73056 | 9.68129 | 100° | 69km/h | 3017m | -2.2m/s | 8.0°C | 10.6% | 713.7hPa | 2.7V | 00:00:00 | 03:27:59 | 00:00:00 | |
| DM0DOS-11 | 2026-09-04 01:45:52 | 50.73083 | 9.67958 | 106° | 68km/h | 3031m | -2.4m/s | 8°C | 10.7% | 712.4hPa | 2.7V | 07:17:30 | 03:27:53 | 00:00:00 | |
| DB0NH | 2026-09-04 01:45:51 | 50.73064 | 9.68069 | 104° | 68km/h | 3022m | -2.2m/s | 8.0°C | 10.6% | 713.1hPa | 2.7V | 07:17:00 | 03:27:57 | 00:00:00 | |
| DL1NUX | 2026-09-04 01:45:48 | 50.73098 | 9.67859 | 98° | 62km/h | 3041m | -2.2m/s | 8°C | 10.9% | 711.5hPa | 2.7V | 07:17:34 | 03:27:49 | 00:00:00 | |
| DM0DOS-11 | 2026-09-04 01:45:47 | 50.73100 | 9.67835 | 96° | 62km/h | 3043m | -2.2m/s | 8°C | 10.9% | 711.4hPa | 2.7V | 07:17:35 | 03:27:48 | 00:00:00 | |
| BIOWL1-15 | 2026-09-04 01:45:47 | 50.73092 | 9.67908 | 104° | 64km/h | 3036m | -2.4m/s | 8°C | 10.4% | 711.9hPa | 2.7V | 07:17:59 | 03:27:51 | 00:00:00 | |
| HSKMA3-T | 2026-09-04 01:45:43 | 50.73098 | 9.67859 | 99° | 62km/h | 3041m | -2.3m/s | 8°C | 10.5% | 711.5hPa | 2.7V | 07:17:59 | 03:27:49 | 00:00:00 | |
| DM0DOS-11 | 2026-09-04 01:45:42 | 50.73108 | 9.67696 | 98° | 77km/h | 3054m | -2.2m/s | 8°C | 10.5% | 710.4hPa | 2.7V | 07:17:40 | 03:27:43 | 00:00:00 | |
| DM0DOS-11 | 2026-09-04 01:45:37 | 50.73129 | 9.67554 | 105° | 68km/h | 3065m | -2.3m/s | 7.9°C | 10.6% | 709.4hPa | 2.7V | 07:17:45 | 03:27:38 | 00:00:00 | |
| BIOWL1-15 | 2026-09-04 01:45:35 | 50.73115 | 9.67636 | 104° | 75km/h | 3058m | -2.3m/s | 8°C | 10.3% | 710hPa | 2.7V | 07:17:59 | 03:27:41 | 00:00:00 | |
| DL1NUX | 2026-09-04 01:45:33 | 50.73125 | 9.67580 | 106° | 69km/h | 3063m | -2.3m/s | 7.9°C | 10.6% | 709.7hPa | 2.7V | 07:17:44 | 03:27:39 | 00:00:00 | |
| HSKMA3-T | 2026-09-04 01:45:33 | 50.73125 | 9.67580 | 106° | 69km/h | 3063m | -2.3m/s | 7.9°C | 10.4% | 709.7hPa | 2.7V | 07:17:59 | 03:27:39 | 00:00:00 | |
| DF7PN | 2026-09-04 01:45:32 | 50.73134 | 9.67529 | 104° | 62km/h | 3068m | -2.3m/s | 7.9°C | 10.3% | 709.1hPa | 2.7V | 00:00:00 | 00:00:00 | 00:00:00 | |
| NBG1-10 | 2026-09-04 01:45:31 | 50.73134 | 9.67529 | 105° | 71km/h | 3068m | -2.2m/s | 7.9°C | 10.3% | 709.1hPa | 2.7V | 00:00:00 | 03:27:37 | 00:00:00 | |
| DB0UT-7 | 2026-09-04 01:45:27 | 50.73145 | 9.67433 | 95° | 71km/h | 3077m | -2.2m/s | 7.9°C | 11.6% | 708.3hPa | 2.7V | 00:00:00 | 00:00:00 | 00:00:00 | |
| DM0DOS-11 | 2026-09-04 01:45:26 | 50.73149 | 9.67300 | 93° | 73km/h | 3088m | -2.3m/s | 7.7°C | 26% | 707.6hPa | 2.7V | 07:17:55 | 03:27:28 | 00:00:00 | |
| BIOWL1-15 | 2026-09-04 01:45:26 | 50.73147 | 9.67357 | 92° | 68km/h | 3084m | -2.2m/s | 7.8°C | 24.9% | 707.9hPa | 2.7V | 07:17:59 | 03:27:30 | 00:00:00 | |
| DL1NUX | 2026-09-04 01:45:23 | 50.73148 | 9.67329 | 92° | 71km/h | 3086m | -2.3m/s | 7.8°C | 23.8% | 707.6hPa | 2.7V | 07:17:54 | 03:27:29 | 00:00:00 | |
| DL1NUX | 2026-09-04 01:45:23 | 50.73159 | 9.67179 | 100° | 77km/h | 3098m | -2.4m/s | 7.5°C | 38.2% | 706.6hPa | 2.7V | 07:17:59 | 03:27:24 | 00:00:00 | |
| HSKMA3-T | 2026-09-04 01:45:23 | 50.73148 | 9.67329 | 93° | 71km/h | 3086m | -2.3m/s | 7.8°C | 27% | 707.6hPa | 2.7V | 07:17:59 | 03:27:29 | 00:00:00 | |
| BIOWL1-15 | 2026-09-04 01:45:19 | 50.73181 | 9.67041 | 105° | 64km/h | 3109m | -2m/s | 7.4°C | 49.4% | 705.6hPa | 2.7V | 07:18:50 | 03:27:19 | 00:00:00 | |
| DD1CC3-15 | 2026-09-04 01:45:18 | 50.73155 | 9.67210 | 100° | 77km/h | 3095m | -2.4m/s | 7.6°C | 36.7% | 706.8hPa | 2.7V | 07:17:00 | 00:00:00 | 00:00:00 | |
| DL1NUX | 2026-09-04 01:45:13 | 50.73182 | 9.67041 | 105° | 64km/h | 3109m | -2m/s | 7.4°C | 45.1% | 705.6hPa | 2.7V | 07:18:04 | 03:27:19 | 00:00:00 | |
| HSKMA3-T | 2026-09-04 01:45:12 | 50.73185 | 9.67016 | 103° | 62km/h | 3111m | -2.2m/s | 7.3°C | 51.7% | 705.5hPa | 2.7V | 07:20:32 | 03:27:18 | 00:00:00 | |
| DM0DOS-11 | 2026-09-04 01:45:11 | 50.73193 | 9.66918 | 92° | 66km/h | 3120m | -2.3m/s | 7.1°C | 59.9% | 704.7hPa | 2.7V | 07:18:09 | 03:27:14 | 00:00:00 | |
| BIOWL1-15 | 2026-09-04 01:45:02 | 50.73202 | 9.66745 | 99° | 77km/h | 3134m | -2.3m/s | 6.9°C | 66.6% | 703.5hPa | 2.7V | 07:18:50 | 03:27:08 | 00:00:00 | |
| DF2AP-13 | 2026-09-04 01:45:02 | 50.73201 | 9.66745 | 100° | 71km/h | 3134m | -2.2m/s | 6.9°C | 61.4% | 703.4hPa | 2.7V | 00:00:00 | 03:27:08 | 00:00:00 | |
| DM0DOS-11 | 2026-09-04 01:45:01 | 50.73219 | 9.66628 | 106° | 71km/h | 3143m | -2.3m/s | 6.8°C | 62.4% | 702.6hPa | 2.7V | 07:18:19 | 03:27:04 | 00:00:00 | |
| HSKMA3-T | 2026-09-04 01:44:55 | 50.73233 | 9.66551 | 103° | 62km/h | 3149m | -1.9m/s | 6.8°C | 66.2% | 702.1hPa | 2.6V | 07:20:32 | 03:27:01 | 00:00:00 | |
| BIOWL9-15 | 2026-09-04 01:44:55 | 50.73236 | 9.66527 | 99° | 60km/h | 3151m | -2.2m/s | 6.8°C | 61.8% | 702.0hPa | 2.7V | 00:00:00 | 00:00:00 | 00:00:00 | |
| DL1NUX | 2026-09-04 01:44:53 | 50.73238 | 9.66502 | 96° | 62km/h | 3154m | -2.1m/s | 6.8°C | 62.3% | 701.9hPa | 2.7V | 07:18:24 | 03:26:59 | 00:00:00 | |
| BIOWL1-15 | 2026-09-04 01:44:52 | 50.73245 | 9.66363 | 96° | 77km/h | 3165m | -2.4m/s | 6.7°C | 67.2% | 700.8hPa | 2.7V | 07:18:50 | 03:26:54 | 00:00:00 | |
| DM0DOS-11 | 2026-09-04 01:44:51 | 50.73244 | 9.66363 | 95° | 77km/h | 3165m | -2.4m/s | 6.7°C | 62.4% | 700.8hPa | 2.7V | 07:18:29 | 03:26:54 | 00:00:00 | |
| DL1ZP-14 | 2026-09-04 01:44:49 | 50.73243 | 9.66393 | 94° | 73km/h | 3163m | -2.4m/s | 6.7°C | 61.7% | 701.0hPa | 2.7V | 00:00:00 | 00:00:00 | 00:00:00 | |
| DL1NUX | 2026-09-04 01:44:48 | 50.73262 | 9.66210 | 104° | 77km/h | 3177m | -2.5m/s | 6.5°C | 63% | 699.8hPa | 2.7V | 07:18:34 | 03:26:49 | 00:00:00 | |
| BIOWL1-15 | 2026-09-04 01:44:39 | 50.73291 | 9.66050 | 103° | 62km/h | 3191m | -2.2m/s | 6.4°C | 67.1% | 698.6hPa | 2.7V | 07:18:50 | 03:26:43 | 00:00:00 | |
| DL1NUX | 2026-09-04 01:44:38 | 50.73287 | 9.66074 | 105° | 64km/h | 3189m | -2.1m/s | 6.4°C | 63.2% | 698.8hPa | 2.7V | 07:18:39 | 03:26:44 | 00:00:00 | |
| DL1NUX | 2026-09-04 01:44:38 | 50.73299 | 9.65946 | 94° | 71km/h | 3200m | -2.3m/s | 6.3°C | 62.9% | 697.9hPa | 2.7V | 07:18:44 | 03:26:39 | 00:00:00 | |
| DD1CC3-15 | 2026-09-04 01:44:36 | 50.73290 | 9.66050 | 104° | 62km/h | 3191m | -2.2m/s | 6.4°C | 62.1% | 698.6hPa | 2.7V | 00:00:00 | 00:00:00 | 00:00:00 | |
| SO1NDE-10 | 2026-09-04 01:44:35 | 50.73296 | 9.66000 | 97° | 69km/h | 3196m | -2.3m/s | 6.3°C | 63.1% | 698.1hPa | 2.7V | 00:00:00 | 03:26:41 | 00:00:00 | |
| DL1NUX | 2026-09-04 01:44:33 | 50.73314 | 9.65796 | 104° | 77km/h | 3211m | -2.5m/s | 6.3°C | 62.6% | 696.9hPa | 2.7V | 07:18:49 | 03:26:34 | 00:00:00 | |
| DF2AP-13 | 2026-09-04 01:44:32 | 50.73300 | 9.65917 | 96° | 71km/h | 3202m | -2.2m/s | 6.3°C | 62.8% | 697.6hPa | 2.7V | 00:00:00 | 03:26:38 | 00:00:00 | |
| DF7PN | 2026-09-04 01:44:29 | 50.73314 | 9.65796 | 104° | 77km/h | 3211m | -2.5m/s | 6.3°C | 61.9% | 696.9hPa | 2.7V | 00:00:00 | 00:00:00 | 00:00:00 | |
| DL1NUX | 2026-09-04 01:44:28 | 50.73341 | 9.65659 | 107° | 66km/h | 3224m | -2.6m/s | 6.2°C | 58.7% | 695.8hPa | 2.7V | 07:18:54 | 03:26:29 | 00:00:00 | |
| BIOWL1-15 | 2026-09-04 01:44:27 | 50.73320 | 9.65767 | 107° | 75km/h | 3214m | -2.5m/s | 6.3°C | 66.3% | 696.7hPa | 2.7V | 07:18:50 | 03:26:33 | 00:00:00 | |
| DB0UT-7 | 2026-09-04 01:44:27 | 50.73319 | 9.65767 | 107° | 69km/h | 3214m | -2.4m/s | 6.2°C | 61.8% | 696.7hPa | 2.7V | 00:00:00 | 00:00:00 | 00:00:00 | |
| DL1NUX | 2026-09-04 01:44:23 | 50.73356 | 9.65534 | 94° | 68km/h | 3236m | -2.4m/s | 6.1°C | 59.8% | 694.8hPa | 2.7V | 07:18:59 | 03:26:24 | 00:00:00 | |
| BIOWL1-15 | 2026-09-04 01:44:16 | 50.73359 | 9.65478 | 94° | 71km/h | 3241m | -2.5m/s | 6.1°C | 64.3% | 694.5hPa | 2.7V | 07:19:41 | 03:26:22 | 00:00:00 | |
| DL1NUX | 2026-09-04 01:44:13 | 50.73365 | 9.65389 | 99° | 78km/h | 3248m | -2.5m/s | 6°C | 60.8% | 693.9hPa | 2.6V | 07:19:04 | 03:26:19 | 00:00:00 | |
| DL1NUX | 2026-09-04 01:44:13 | 50.73389 | 9.65242 | 108° | 71km/h | 3260m | -2.5m/s | 5.9°C | 61.9% | 692.8hPa | 2.7V | 07:19:09 | 03:26:14 | 00:00:00 | |
| DB0DAN | 2026-09-04 01:44:10 | 50.73378 | 9.65298 | 106° | 73km/h | 3255m | -2.3m/s | 5.9°C | 60.3% | 693.14hPa | 2.7V | 00:00:00 | 00:00:00 | 00:00:00 | |
| BIOWL1-15 | 2026-09-04 01:44:07 | 50.73406 | 9.65165 | 108° | 66km/h | 3268m | -2.6m/s | 5.8°C | 66.9% | 692.1hPa | 2.7V | 07:19:41 | 03:26:11 | 00:00:00 | |
| DL1NUX | 2026-09-04 01:44:03 | 50.73415 | 9.65116 | 105° | 62km/h | 3273m | -2.6m/s | 5.8°C | 63.1% | 691.7hPa | 2.6V | 07:19:14 | 03:26:09 | 00:00:00 | |
| DL1NUX | 2026-09-04 01:44:03 | 50.73428 | 9.64993 | 95° | 68km/h | 3286m | -2.5m/s | 5.7°C | 61.6% | 690.6hPa | 2.7V | 07:19:19 | 03:26:04 | 00:00:00 | |
| BIOWL1-15 | 2026-09-04 01:43:55 | 50.73434 | 9.64907 | 98° | 77km/h | 3294m | -2.5m/s | 5.7°C | 64.2% | 690hPa | 2.7V | 07:19:41 | 03:26:01 | 00:00:00 | |
| DL1NUX | 2026-09-04 01:43:53 | 50.73441 | 9.64845 | 101° | 80km/h | 3299m | -2.5m/s | 5.7°C | 58.8% | 689.5hPa | 2.7V | 07:19:24 | 03:25:59 | 00:00:00 | |
| BIOWL9-15 | 2026-09-04 01:43:52 | 50.73445 | 9.64813 | 103° | 78km/h | 3302m | -2.7m/s | 5.7°C | 55.8% | 689.3hPa | 2.7V | 00:00:00 | 00:00:00 | 00:00:00 | |
| DB0NH | 2026-09-04 01:43:51 | 50.73450 | 9.64782 | 105° | 71km/h | 3304m | -2.6m/s | 5.6°C | 56.9% | 688.9hPa | 2.7V | 00:00:00 | 03:25:57 | 00:00:00 | |
| DL1NUX | 2026-09-04 01:43:48 | 50.73490 | 9.64566 | 98° | 66km/h | 3324m | -2.3m/s | 5.6°C | 54.8% | 687.5hPa | 2.7V | 07:19:34 | 03:25:49 | 00:00:00 | |
| DL1ZP-14 | 2026-09-04 01:43:47 | 50.73473 | 9.64667 | 108° | 69km/h | 3315m | -2.4m/s | 5.6°C | 55.6% | 688.3hPa | 2.7V | 00:00:00 | 00:00:00 | 00:00:00 | |
| BIOWL1-15 | 2026-09-04 01:43:44 | 50.73487 | 9.64591 | 102° | 64km/h | 3322m | -2.3m/s | 5.6°C | 60.3% | 687.6hPa | 2.7V | 07:19:41 | 03:25:50 | 00:00:00 | |
| DL1NUX | 2026-09-04 01:43:43 | 50.73503 | 9.64421 | 101° | 78km/h | 3337m | -2.6m/s | 5.5°C | 54.7% | 686.4hPa | 2.7V | 07:19:39 | 03:25:44 | 00:00:00 | |
| DD1CC3-15 | 2026-09-04 01:43:42 | 50.73490 | 9.64566 | 99° | 66km/h | 3324m | -2.3m/s | 5.6°C | 54.2% | 687.5hPa | 2.6V | 07:19:00 | 00:00:00 | 00:00:00 | |
| DM0DOS-11 | 2026-09-04 01:43:39 | 50.73525 | 9.64303 | 110° | 75km/h | 3347m | -2.6m/s | 5.4°C | 55% | 685.5hPa | 2.6V | 07:19:43 | 03:25:40 | 00:00:00 | |
| SO1NDE-10 | 2026-09-04 01:43:35 | 50.73519 | 9.64331 | 109° | 73km/h | 3345m | -2.5m/s | 5.4°C | 54.8% | 685.7hPa | 2.7V | 00:00:00 | 03:25:41 | 00:00:00 | |
| DM0DOS-11 | 2026-09-04 01:43:34 | 50.73553 | 9.64175 | 105° | 64km/h | 3360m | -2.5m/s | 5.3°C | 54.9% | 684.3hPa | 2.7V | 07:19:48 | 03:25:35 | 00:00:00 | |
| DL1NUX | 2026-09-04 01:43:33 | 50.73531 | 9.64275 | 110° | 71km/h | 3349m | -2.6m/s | 5.4°C | 55.1% | 685.3hPa | 2.7V | 07:19:44 | 03:25:39 | 00:00:00 | |
| DL1NUX | 2026-09-04 01:43:33 | 50.73557 | 9.64150 | 102° | 64km/h | 3363m | -2.5m/s | 5.3°C | 54.8% | 684.1hPa | 2.7V | 07:19:49 | 03:25:34 | 00:00:00 | |
| BIOWL1-15 | 2026-09-04 01:43:33 | 50.73531 | 9.64275 | 111° | 71km/h | 3350m | -2.7m/s | 5.4°C | 59.6% | 685.3hPa | 2.7V | 07:20:32 | 03:25:39 | 00:00:00 | |
| DD1CC8 | 2026-09-04 01:43:32 | 50.73543 | 9.64224 | 109° | 66km/h | 3355m | -2.8m/s | 5.3°C | 54.3% | 684.8hPa | 2.7V | 00:00:00 | 00:00:00 | 00:00:00 | |
| DM0DOS-11 | 2026-09-04 01:43:29 | 50.73569 | 9.64014 | 98° | 77km/h | 3376m | -2.6m/s | 5.2°C | 53.3% | 683.1hPa | 2.7V | 07:19:54 | 03:25:29 | 00:00:00 | |
| BIOWL1-15 | 2026-09-04 01:43:26 | 50.73572 | 9.63983 | 99° | 78km/h | 3379m | -2.8m/s | 5.2°C | 58.5% | 682.8hPa | 2.7V | 07:20:32 | 03:25:28 | 00:00:00 | |
| DB0DAN | 2026-09-04 01:43:25 | 50.73565 | 9.64072 | 97° | 68km/h | 3370m | -2.6m/s | 5.2°C | 53.6% | 683.62hPa | 2.6V | 00:00:00 | 00:00:00 | 00:00:00 | |
| HSKMA3-T | 2026-09-04 01:43:24 | 50.73567 | 9.64043 | 97° | 73km/h | 3373m | -2.7m/s | 5.2°C | 58.4% | 683.4hPa | 2.6V | 07:20:32 | 03:25:30 | 00:00:00 | |
| DL1NUX | 2026-09-04 01:43:23 | 50.73569 | 9.64014 | 98° | 77km/h | 3376m | -2.6m/s | 5.2°C | 53.3% | 683.1hPa | 2.7V | 07:19:54 | 03:25:29 | 00:00:00 | |
| DL1NUX | 2026-09-04 01:43:23 | 50.73592 | 9.63861 | 108° | 78km/h | 3389m | -2.7m/s | 5.1°C | 55% | 682.1hPa | 2.6V | 07:19:59 | 03:25:24 | 00:00:00 | |
| DB0NH | 2026-09-04 01:43:21 | 50.73576 | 9.63953 | 102° | 71km/h | 3381m | -2.7m/s | 5.1°C | 54.1% | 682.6hPa | 2.7V | 00:00:00 | 03:25:27 | 00:00:00 | |
| DL1NUX | 2026-09-04 01:43:18 | 50.73624 | 9.63727 | 110° | 66km/h | 3403m | -2.7m/s | 5°C | 56.2% | 680.9hPa | 2.7V | 07:20:04 | 03:25:19 | 00:00:00 | |
| DD1CC3-15 | 2026-09-04 01:43:17 | 50.73592 | 9.63861 | 109° | 78km/h | 3389m | -2.7m/s | 5.1°C | 54.4% | 682.1hPa | 2.7V | 07:20:00 | 00:00:00 | 00:00:00 | |
| DL1ZP-14 | 2026-09-04 01:43:16 | 50.73605 | 9.63804 | 111° | 73km/h | 3395m | -2.9m/s | 5.1°C | 54.5% | 681.5hPa | 2.7V | 00:00:00 | 00:00:00 | 00:00:00 | |
| SO1NDE-10 | 2026-09-04 01:43:15 | 50.73611 | 9.63777 | 113° | 69km/h | 3398m | -2.7m/s | 5.0°C | 55.3% | 681.3hPa | 2.7V | 00:00:00 | 03:25:21 | 00:00:00 | |
| DL1NUX | 2026-09-04 01:43:13 | 50.73644 | 9.63600 | 98° | 71km/h | 3416m | -2.5m/s | 4.9°C | 56.4% | 679.8hPa | 2.7V | 07:20:09 | 03:25:14 | 00:00:00 | |
| BIOWL1-15 | 2026-09-04 01:43:11 | 50.73634 | 9.63678 | 106° | 64km/h | 3409m | -2.6m/s | 5°C | 60.5% | 680.4hPa | 2.7V | 07:20:32 | 03:25:17 | 00:00:00 | |
| HSKMA3-T | 2026-09-04 01:43:10 | 50.73638 | 9.63653 | 102° | 64km/h | 3411m | -2.5m/s | 4.9°C | 60.4% | 680.2hPa | 2.7V | 07:20:32 | 03:25:16 | 00:00:00 | |
| DB0DAN | 2026-09-04 01:43:10 | 50.73638 | 9.63653 | 102° | 62km/h | 3411m | -2.5m/s | 4.9°C | 55.6% | 680.19hPa | 2.7V | 00:00:00 | 00:00:00 | 00:00:00 | |
| SONCRA | 2026-09-04 01:43:10 | 50.73647 | 9.63572 | 99° | 75km/h | 3419m | -2.6m/s | 4.9°C | 55.8% | 679.6hPa | 2.7V | 00:00:00 | 00:00:00 | 00:00:00 | |
| DL1NUX | 2026-09-04 01:43:08 | 50.73666 | 9.63450 | 108° | 78km/h | 3429m | -2.8m/s | 4.8°C | 56.3% | 678.7hPa | 2.7V | 07:20:14 | 03:25:09 | 00:00:00 | |
| BIOWL1-15 | 2026-09-04 01:43:00 | 50.73687 | 9.63364 | 112° | 73km/h | 3438m | -2.8m/s | 4.8°C | 60.9% | 678hPa | 2.7V | 07:20:32 | 03:25:06 | 00:00:00 | |
| HSKMA3-T | 2026-09-04 01:42:57 | 50.73706 | 9.63288 | 111° | 64km/h | 3446m | -2.6m/s | 4.7°C | 59.3% | 677.2hPa | 2.6V | 07:20:32 | 03:25:03 | 00:00:00 | |
| DB0UT-7 | 2026-09-04 01:42:56 | 50.73712 | 9.63264 | 109° | 71km/h | 3449m | -2.5m/s | 4.6°C | 54.8% | 677.0hPa | 2.7V | 00:00:00 | 03:25:02 | 00:00:00 | |
| DL1NUX | 2026-09-04 01:42:53 | 50.73724 | 9.63190 | 101° | 68km/h | 3456m | -2.5m/s | 4.7°C | 54.5% | 676.3hPa | 2.7V | 07:20:24 | 03:24:59 | 00:00:00 | |
| BIOWL1-15 | 2026-09-04 01:42:52 | 50.73736 | 9.63105 | 103° | 77km/h | 3464m | -2.7m/s | 4.6°C | 59.3% | 675.8hPa | 2.7V | 07:20:32 | 03:24:56 | 00:00:00 | |
| BIOWL9-15 | 2026-09-04 01:42:50 | 50.73736 | 9.63105 | 103° | 77km/h | 3464m | -2.7m/s | 4.6°C | 54.1% | 675.8hPa | 2.7V | 00:00:00 | 00:00:00 | 00:00:00 | |
| DL1ZP-14 | 2026-09-04 01:42:45 | 50.73767 | 9.62958 | 113° | 73km/h | 3478m | -2.9m/s | 4.5°C | 55.5% | 674.5hPa | 2.7V | 00:00:00 | 00:00:00 | 00:00:00 | |
| DL1NUX | 2026-09-04 01:42:43 | 50.73782 | 9.62906 | 114° | 68km/h | 3484m | -2.7m/s | 4.4°C | 56.2% | 674.2hPa | 2.7V | 07:20:34 | 03:24:49 | 00:00:00 | |
| HSKMA3-T | 2026-09-04 01:42:43 | 50.73782 | 9.62906 | 114° | 68km/h | 3484m | -2.7m/s | 4.4°C | 60.3% | 674.2hPa | 2.7V | 07:21:23 | 03:24:49 | 00:00:00 | |
| BIOWL1-15 | 2026-09-04 01:42:39 | 50.73803 | 9.62808 | 103° | 66km/h | 3494m | -2.7m/s | 4.4°C | 59.9% | 673.2hPa | 2.7V | 07:21:23 | 03:24:45 | 00:00:00 | |
| DM0DOS-11 | 2026-09-04 01:42:38 | 50.73807 | 9.62782 | 101° | 69km/h | 3497m | -2.7m/s | 4.4°C | 55.3% | 673hPa | 2.6V | 07:20:39 | 03:24:44 | 00:00:00 | |
| DD1CC3-15 | 2026-09-04 01:42:37 | 50.73807 | 9.62782 | 103° | 69km/h | 3497m | -2.7m/s | 4.4°C | 54.6% | 673.0hPa | 2.7V | 07:21:00 | 00:00:00 | 00:00:00 | |
| DL1NUX | 2026-09-04 01:42:33 | 50.73831 | 9.62634 | 108° | 80km/h | 3511m | -2.9m/s | 4.4°C | 46.7% | 672hPa | 2.7V | 07:20:44 | 03:24:39 | 00:00:00 | |
| HSKMA3-T | 2026-09-04 01:42:33 | 50.73831 | 9.62634 | 109° | 80km/h | 3511m | -2.9m/s | 4.4°C | 50.9% | 672hPa | 2.7V | 07:21:23 | 03:24:39 | 00:00:00 | |
| DF2AP-13 | 2026-09-04 01:42:32 | 50.73838 | 9.62603 | 111° | 75km/h | 3514m | -2.9m/s | 4.3°C | 46.7% | 671.6hPa | 2.7V | 00:00:00 | 03:24:38 | 00:00:00 | |
| DL1NUX | 2026-09-04 01:42:28 | 50.73867 | 9.62494 | 112° | 68km/h | 3525m | -2.6m/s | 4.4°C | 43% | 670.7hPa | 2.6V | 07:20:49 | 03:24:34 | 00:00:00 | |
| DL1NUX | 2026-09-04 01:42:28 | 50.73890 | 9.62363 | 101° | 73km/h | 3538m | -2.9m/s | 4.3°C | 42.1% | 669.7hPa | 2.7V | 07:20:54 | 03:24:29 | 00:00:00 | |
| BIOWL1-15 | 2026-09-04 01:42:25 | 50.73883 | 9.62418 | 103° | 68km/h | 3533m | -2.6m/s | 4.3°C | 46.7% | 670.2hPa | 2.7V | 07:21:23 | 03:24:31 | 00:00:00 | |
| DF7PN | 2026-09-04 01:42:25 | 50.73887 | 9.62391 | 101° | 69km/h | 3535m | -2.7m/s | 4.3°C | 41.8% | 669.9hPa | 2.7V | 00:00:00 | 00:00:00 | 00:00:00 | |
| DL1NUX | 2026-09-04 01:42:23 | 50.73914 | 9.62211 | 107° | 82km/h | 3553m | -2.9m/s | 4.2°C | 42.2% | 668.4hPa | 2.7V | 07:20:59 | 03:24:24 | 00:00:00 | |
| HSKMA3-T | 2026-09-04 01:42:22 | 50.73894 | 9.62334 | 102° | 75km/h | 3541m | -3m/s | 4.3°C | 46.4% | 669.4hPa | 2.7V | 07:21:23 | 03:24:28 | 00:00:00 | |
| SO1NDE-10 | 2026-09-04 01:42:22 | 50.73894 | 9.62334 | 102° | 75km/h | 3541m | -2.9m/s | 4.2°C | 42.0% | 669.4hPa | 2.7V | 00:00:00 | 03:24:28 | 00:00:00 | |
| DB0NH | 2026-09-04 01:42:21 | 50.73898 | 9.62304 | 103° | 75km/h | 3544m | -3.0m/s | 4.2°C | 42.2% | 669.2hPa | 2.7V | 00:00:00 | 03:24:27 | 00:00:00 | |
| BIOWL9-15 | 2026-09-04 01:42:19 | 50.73908 | 9.62243 | 105° | 80km/h | 3550m | -3.0m/s | 4.2°C | 41.8% | 668.7hPa | 2.7V | 00:00:00 | 00:00:00 | 00:00:00 | |
| DL1NUX | 2026-09-04 01:42:18 | 50.73952 | 9.62066 | 115° | 71km/h | 3567m | -2.6m/s | 4.1°C | 42.8% | 667.3hPa | 2.7V | 07:21:04 | 03:24:19 | 00:00:00 | |
| BIOWL1-15 | 2026-09-04 01:42:15 | 50.73936 | 9.62121 | 114° | 78km/h | 3562m | -2.7m/s | 4.2°C | 46.4% | 667.8hPa | 2.7V | 07:21:23 | 03:24:21 | 00:00:00 | |
| HSKMA3-T | 2026-09-04 01:42:11 | 50.73966 | 9.62017 | 111° | 66km/h | 3573m | -2.8m/s | 4.1°C | 47.5% | 666.9hPa | 2.6V | 07:21:23 | 03:24:17 | 00:00:00 | |
| BIOWL1-15 | 2026-09-04 01:42:05 | 50.74073 | 9.61516 | 105° | 68km/h | 3623m | -2.8m/s | 3.8°C | 44.8% | 662.8hPa | 2.6V | 07:23:05 | 03:23:59 | 00:00:00 | |
| DL1NUX | 2026-09-04 01:42:03 | 50.74004 | 9.61792 | 107° | 82km/h | 3595m | -2.9m/s | 4°C | 43% | 665hPa | 2.6V | 07:21:14 | 03:24:09 | 00:00:00 | |
| DL1NUX | 2026-09-04 01:42:03 | 50.74042 | 9.61643 | 115° | 75km/h | 3609m | -2.8m/s | 3.9°C | 40.7% | 663.7hPa | 2.7V | 07:21:19 | 03:24:04 | 00:00:00 | |
| HSKMA3-T | 2026-09-04 01:42:01 | 50.74018 | 9.61730 | 112° | 82km/h | 3601m | -2.9m/s | 3.9°C | 47.4% | 664.6hPa | 2.7V | 07:21:23 | 03:24:07 | 00:00:00 | |
| DD1CC8 | 2026-09-04 01:41:58 | 50.74050 | 9.61617 | 114° | 69km/h | 3612m | -2.8m/s | 3.9°C | 39.7% | 663.6hPa | 2.6V | 00:00:00 | 00:00:00 | 00:00:00 | |
| DF7PN | 2026-09-04 01:41:54 | 50.74073 | 9.61516 | 104° | 68km/h | 3623m | -2.8m/s | 3.8°C | 39.5% | 662.8hPa | 2.6V | 00:00:00 | 00:00:00 | 00:00:00 | |
| DL1NUX | 2026-09-04 01:41:53 | 50.74073 | 9.61516 | 104° | 68km/h | 3623m | -2.8m/s | 3.8°C | 40.1% | 662.8hPa | 2.6V | 07:21:24 | 03:23:59 | 00:00:00 | |
| DL1NUX | 2026-09-04 01:41:53 | 50.74096 | 9.61368 | 106° | 84km/h | 3638m | -2.9m/s | 3.7°C | 41.2% | 661.5hPa | 2.7V | 07:21:29 | 03:23:54 | 00:00:00 | |
| HSKMA3-T | 2026-09-04 01:41:50 | 50.74086 | 9.61431 | 103° | 78km/h | 3632m | -2.8m/s | 3.7°C | 45.4% | 662hPa | 2.7V | 07:22:14 | 03:23:56 | 00:00:00 | |
| BIOWL9-15 | 2026-09-04 01:41:48 | 50.74096 | 9.61368 | 106° | 82km/h | 3637m | -2.9m/s | 3.7°C | 40.6% | 661.5hPa | 2.6V | 00:00:00 | 00:00:00 | 00:00:00 | |
| DL1NUX | 2026-09-04 01:41:43 | 50.74134 | 9.61213 | 115° | 78km/h | 3652m | -2.9m/s | 3.5°C | 42.7% | 660.3hPa | 2.6V | 07:21:34 | 03:23:49 | 00:00:00 | |
| BIOWL1-15 | 2026-09-04 01:41:42 | 50.74142 | 9.61185 | 116° | 77km/h | 3655m | -2.9m/s | 3.5°C | 47.5% | 660.1hPa | 2.7V | 07:23:05 | 03:23:48 | 00:00:00 | |
| HSKMA3-T | 2026-09-04 01:41:40 | 50.74158 | 9.61133 | 114° | 69km/h | 3661m | -2.9m/s | 3.5°C | 47.6% | 659.6hPa | 2.7V | 07:22:14 | 03:23:46 | 00:00:00 | |
| DL1NUX | 2026-09-04 01:41:38 | 50.74171 | 9.61083 | 108° | 68km/h | 3667m | -2.9m/s | 3.4°C | 43% | 659.2hPa | 2.7V | 07:21:39 | 03:23:44 | 00:00:00 | |
| DL1NUX | 2026-09-04 01:41:38 | 50.74193 | 9.60944 | 103° | 78km/h | 3681m | -3.1m/s | 3.3°C | 43.2% | 658hPa | 2.6V | 07:21:44 | 03:23:39 | 00:00:00 | |
| DD1CC3-15 | 2026-09-04 01:41:36 | 50.74176 | 9.61057 | 107° | 68km/h | 3670m | -2.9m/s | 3.4°C | 42.4% | 659.0hPa | 2.6V | 07:22:00 | 00:00:00 | 00:00:00 | |
| DL1NUX | 2026-09-04 01:41:33 | 50.74227 | 9.60789 | 114° | 80km/h | 3696m | -2.8m/s | 3.2°C | 45.2% | 656.8hPa | 2.6V | 07:21:49 | 03:23:34 | 00:00:00 | |
| BIOWL1-15 | 2026-09-04 01:41:32 | 50.74198 | 9.60913 | 105° | 82km/h | 3684m | -3m/s | 3.2°C | 48.1% | 657.8hPa | 2.7V | 07:23:05 | 03:23:38 | 00:00:00 | |
| HSKMA3-T | 2026-09-04 01:41:29 | 50.74218 | 9.60819 | 113° | 82km/h | 3693m | -2.9m/s | 3.2°C | 49.4% | 657hPa | 2.7V | 07:22:14 | 03:23:35 | 00:00:00 | |
| DL1NUX | 2026-09-04 01:41:28 | 50.74262 | 9.60658 | 107° | 68km/h | 3710m | -2.8m/s | 3.1°C | 45.5% | 655.6hPa | 2.7V | 07:21:54 | 03:23:29 | 00:00:00 | |
| BIOWL1-15 | 2026-09-04 01:41:24 | 50.74267 | 9.60632 | 105° | 69km/h | 3713m | -3m/s | 3.1°C | 49.4% | 655.4hPa | 2.7V | 07:23:05 | 03:23:28 | 00:00:00 | |
| DL1NUX | 2026-09-04 01:41:23 | 50.74284 | 9.60516 | 103° | 80km/h | 3725m | -3.1m/s | 3°C | 45.3% | 654.3hPa | 2.7V | 07:21:59 | 03:23:24 | 00:00:00 | |
| HSKMA3-T | 2026-09-04 01:41:19 | 50.74280 | 9.60547 | 103° | 78km/h | 3722m | -3m/s | 3°C | 49% | 654.6hPa | 2.6V | 07:22:14 | 03:23:25 | 00:00:00 | |
| DL1NUX | 2026-09-04 01:41:18 | 50.74318 | 9.60359 | 114° | 82km/h | 3740m | -3m/s | 2.9°C | 43.2% | 653.2hPa | 2.7V | 07:22:04 | 03:23:19 | 00:00:00 | |
| NBG1-10 | 2026-09-04 01:41:18 | 50.74284 | 9.60516 | 104° | 78km/h | 3725m | -3.0m/s | 2.9°C | 45.3% | 654.2hPa | 2.7V | 00:00:00 | 03:23:24 | 00:00:00 | |
| BIOWL9-15 | 2026-09-04 01:41:17 | 50.74290 | 9.60485 | 105° | 82km/h | 3728m | -3.0m/s | 3.0°C | 44.4% | 654.2hPa | 2.7V | 00:00:00 | 00:00:00 | 00:00:00 | |
| DL1NUX | 2026-09-04 01:41:13 | 50.74357 | 9.60224 | 110° | 68km/h | 3755m | -3m/s | 2.8°C | 43% | 652hPa | 2.7V | 07:22:09 | 03:23:14 | 00:00:00 | |
| DM0DOS-11 | 2026-09-04 01:41:13 | 50.74362 | 9.60199 | 107° | 68km/h | 3758m | -3m/s | 2.8°C | 42.3% | 651.7hPa | 2.7V | 07:22:10 | 03:23:13 | 00:00:00 | |
| BIOWL1-15 | 2026-09-04 01:41:12 | 50.74327 | 9.60330 | 115° | 78km/h | 3743m | -2.9m/s | 2.9°C | 47.3% | 653hPa | 2.7V | 07:23:05 | 03:23:18 | 00:00:00 | |
| HSKMA3-T | 2026-09-04 01:41:09 | 50.74350 | 9.60250 | 113° | 69km/h | 3752m | -3m/s | 2.8°C | 47.4% | 652.3hPa | 2.7V | 07:22:14 | 03:23:15 | 00:00:00 | |
| DM0DOS-11 | 2026-09-04 01:41:07 | 50.74384 | 9.60058 | 104° | 80km/h | 3772m | -3m/s | 2.7°C | 44% | 650.6hPa | 2.6V | 07:22:15 | 03:23:08 | 00:00:00 | |
| SONCRA | 2026-09-04 01:41:06 | 50.74371 | 9.60146 | 103° | 69km/h | 3763m | -3.0m/s | 2.8°C | 41.9% | 651.4hPa | 2.7V | 00:00:00 | 00:00:00 | 00:00:00 | |
| DL1NUX | 2026-09-04 01:41:03 | 50.74413 | 9.59934 | 114° | 80km/h | 3784m | -3m/s | 2.6°C | 44.1% | 649.7hPa | 2.7V | 07:22:19 | 03:23:04 | 00:00:00 | |
| DM0DOS-11 | 2026-09-04 01:41:02 | 50.74421 | 9.59906 | 115° | 77km/h | 3787m | -3m/s | 2.6°C | 44.3% | 649.4hPa | 2.7V | 07:22:20 | 03:23:03 | 00:00:00 | |
| BIOWL1-15 | 2026-09-04 01:41:02 | 50.74384 | 9.60058 | 105° | 80km/h | 3773m | -3m/s | 2.7°C | 48.2% | 650.6hPa | 2.6V | 07:23:05 | 03:23:08 | 00:00:00 | |
| HSKMA3-T | 2026-09-04 01:40:59 | 50.74404 | 9.59964 | 112° | 82km/h | 3781m | -2.9m/s | 2.6°C | 48.2% | 649.8hPa | 2.7V | 07:23:05 | 03:23:05 | 00:00:00 | |
| DM0DOS-11 | 2026-09-04 01:40:57 | 50.74453 | 9.59774 | 104° | 71km/h | 3801m | -2.9m/s | 2.5°C | 41.7% | 648.3hPa | 2.6V | 07:22:25 | 03:22:58 | 00:00:00 | |
| DD1CC8 | 2026-09-04 01:40:56 | 50.74429 | 9.59879 | 114° | 71km/h | 3790m | -2.9m/s | 2.6°C | 43.6% | 649.2hPa | 2.7V | 00:00:00 | 00:00:00 | 00:00:00 | |
| DD1CC3-15 | 2026-09-04 01:40:55 | 50.74429 | 9.59879 | 116° | 73km/h | 3790m | -2.9m/s | 2.6°C | 43.6% | 649.3hPa | 2.7V | 07:23:00 | 00:00:00 | 00:00:00 | |
| DL1NUX | 2026-09-04 01:40:53 | 50.74473 | 9.59653 | 108° | 84km/h | 3813m | -3m/s | 2.5°C | 41.2% | 647.3hPa | 2.7V | 07:22:29 | 03:22:54 | 00:00:00 | |
| DM0DOS-11 | 2026-09-04 01:40:52 | 50.74480 | 9.59622 | 111° | 84km/h | 3816m | -2.9m/s | 2.4°C | 41.9% | 647.1hPa | 2.7V | 07:22:30 | 03:22:53 | 00:00:00 | |
| BIOWL1-15 | 2026-09-04 01:40:51 | 50.74457 | 9.59745 | 103° | 75km/h | 3804m | -3m/s | 2.5°C | 45.6% | 648.1hPa | 2.7V | 07:23:05 | 03:22:57 | 00:00:00 | |
| HSKMA3-T | 2026-09-04 01:40:48 | 50.74473 | 9.59653 | 109° | 84km/h | 3813m | -3m/s | 2.5°C | 46.1% | 647.3hPa | 2.7V | 07:23:05 | 03:22:54 | 00:00:00 | |
| DL1NUX | 2026-09-04 01:40:48 | 50.74514 | 9.59507 | 115° | 73km/h | 3828m | -3.2m/s | 2.4°C | 44.2% | 646.1hPa | 2.6V | 07:22:34 | 03:22:49 | 00:00:00 | |
| BIOWL9-15 | 2026-09-04 01:40:46 | 50.74488 | 9.59591 | 113° | 82km/h | 3819m | -2.8m/s | 2.4°C | 42.6% | 646.9hPa | 2.7V | 00:00:00 | 00:00:00 | 00:00:00 | |
| NBG1-10 | 2026-09-04 01:40:45 | 50.74497 | 9.59562 | 116° | 77km/h | 3822m | -3.1m/s | 2.3°C | 44.4% | 646.5hPa | 2.7V | 00:00:00 | 03:22:51 | 00:00:00 | |
| DL1NUX | 2026-09-04 01:40:43 | 50.74545 | 9.59378 | 104° | 71km/h | 3844m | -3.2m/s | 2.3°C | 45.2% | 644.9hPa | 2.7V | 07:22:39 | 03:22:44 | 00:00:00 | |
| BIOWL1-15 | 2026-09-04 01:40:43 | 50.74529 | 9.59456 | 113° | 68km/h | 3834m | -3.2m/s | 2.3°C | 48.1% | 645.6hPa | 2.7V | 07:23:05 | 03:22:47 | 00:00:00 | |
| DM0DOS-11 | 2026-09-04 01:40:42 | 50.74549 | 9.59350 | 103° | 73km/h | 3847m | -3.1m/s | 2.3°C | 45.9% | 644.8hPa | 2.7V | 07:22:40 | 03:22:43 | 00:00:00 | |
| DB0DAN | 2026-09-04 01:40:40 | 50.74535 | 9.59430 | 110° | 64km/h | 3837m | -3.1m/s | 2.3°C | 42.2% | 645.34hPa | 2.7V | 00:00:00 | 00:00:00 | 00:00:00 | |
| HSKMA3-T | 2026-09-04 01:40:38 | 50.74545 | 9.59378 | 105° | 71km/h | 3844m | -3.2m/s | 2.3°C | 50.4% | 644.9hPa | 2.7V | 07:23:05 | 03:22:44 | 00:00:00 | |
| DL1NUX | 2026-09-04 01:40:38 | 50.74571 | 9.59227 | 109° | 84km/h | 3859m | -3.1m/s | 2.2°C | 50.6% | 643.7hPa | 2.7V | 07:22:44 | 03:22:39 | 00:00:00 | |
| SONCRA | 2026-09-04 01:40:35 | 50.74565 | 9.59259 | 107° | 82km/h | 3856m | -3.2m/s | 2.2°C | 48.2% | 644.0hPa | 2.7V | 00:00:00 | 00:00:00 | 00:00:00 | |
| DL1NUX | 2026-09-04 01:40:33 | 50.74612 | 9.59083 | 115° | 71km/h | 3874m | -3.1m/s | 2°C | 58.5% | 642.4hPa | 2.7V | 07:22:49 | 03:22:34 | 00:00:00 | |
| BIOWL1-15 | 2026-09-04 01:40:32 | 50.74626 | 9.59032 | 111° | 68km/h | 3880m | -3.1m/s | 1.9°C | 63.7% | 642hPa | 2.6V | 07:23:05 | 03:22:32 | 00:00:00 | |
| DM0DOS-11 | 2026-09-04 01:40:32 | 50.74620 | 9.59058 | 113° | 69km/h | 3877m | -3.1m/s | 1.9°C | 58.5% | 642.2hPa | 2.7V | 07:22:50 | 03:22:33 | 00:00:00 | |
| DF2AP-13 | 2026-09-04 01:40:32 | 50.74579 | 9.59196 | 113° | 77km/h | 3862m | -3.0m/s | 2.1°C | 53.3% | 643.5hPa | 2.7V | 00:00:00 | 03:22:38 | 00:00:00 | |
| DB0UT-7 | 2026-09-04 01:40:31 | 50.74587 | 9.59166 | 115° | 77km/h | 3865m | -2.9m/s | 2.0°C | 55.0% | 643.2hPa | 2.7V | 07:22:00 | 03:22:37 | 00:00:00 | |
| DL1NUX | 2026-09-04 01:40:28 | 50.74641 | 9.58952 | 103° | 75km/h | 3890m | -3m/s | 1.8°C | 59.3% | 641.3hPa | 2.7V | 07:22:54 | 03:22:29 | 00:00:00 | |
| HSKMA3-T | 2026-09-04 01:40:27 | 50.74620 | 9.59058 | 113° | 69km/h | 3877m | -3.1m/s | 2°C | 63.5% | 642.2hPa | 2.7V | 07:23:05 | 03:22:33 | 00:00:00 | |
| DM0DOS-11 | 2026-09-04 01:40:27 | 50.74646 | 9.58922 | 103° | 78km/h | 3893m | -3m/s | 1.8°C | 59.5% | 641hPa | 2.7V | 07:22:55 | 03:22:28 | 00:00:00 | |
| DB0DAN | 2026-09-04 01:40:25 | 50.74632 | 9.59007 | 107° | 66km/h | 3884m | -3.1m/s | 1.9°C | 58% | 641.63hPa | 2.6V | 00:00:00 | 00:00:00 | 00:00:00 | |
| DL1NUX | 2026-09-04 01:40:23 | 50.74670 | 9.58796 | 111° | 84km/h | 3905m | -3.3m/s | 1.7°C | 60.7% | 640hPa | 2.7V | 07:22:59 | 03:22:24 | 00:00:00 | |
| DM0DOS-11 | 2026-09-04 01:40:22 | 50.74678 | 9.58765 | 113° | 84km/h | 3908m | -3.2m/s | 1.6°C | 61.2% | 639.7hPa | 2.7V | 07:23:00 | 03:22:23 | 00:00:00 | |
| SO1NDE-10 | 2026-09-04 01:40:22 | 50.74645 | 9.58922 | 104° | 77km/h | 3893m | -3.0m/s | 1.8°C | 59.5% | 640.9hPa | 2.7V | 07:22:00 | 03:22:28 | 00:00:00 | |
| DB0NH | 2026-09-04 01:40:21 | 50.74651 | 9.58892 | 106° | 77km/h | 3896m | -3.0m/s | 1.7°C | 59.9% | 640.6hPa | 2.7V | 00:00:00 | 03:22:27 | 00:00:00 | |
| DF7PN | 2026-09-04 01:40:20 | 50.74656 | 9.58860 | 106° | 84km/h | 3899m | -3.2m/s | 1.7°C | 59.1% | 640.5hPa | 2.6V | 00:00:00 | 00:00:00 | 00:00:00 | |
| DL1NUX | 2026-09-04 01:40:18 | 50.74712 | 9.58654 | 115° | 69km/h | 3922m | -3.3m/s | 1.5°C | 62.2% | 638.7hPa | 2.6V | 07:23:04 | 03:22:19 | 00:00:00 | |
| HSKMA3-T | 2026-09-04 01:40:17 | 50.74679 | 9.58765 | 114° | 84km/h | 3908m | -3.2m/s | 1.7°C | 66% | 639.7hPa | 2.7V | 07:23:05 | 03:22:23 | 00:00:00 | |
| DM0DOS-11 | 2026-09-04 01:40:17 | 50.74719 | 9.58629 | 112° | 68km/h | 3925m | -3.1m/s | 1.5°C | 62.4% | 638.5hPa | 2.6V | 07:23:05 | 03:22:18 | 00:00:00 | |
| BIOWL1-15 | 2026-09-04 01:40:15 | 50.74696 | 9.58707 | 117° | 77km/h | 3915m | -3.2m/s | 1.6°C | 66.4% | 639.2hPa | 2.7V | 07:23:05 | 03:22:21 | 00:00:00 | |
| BIOWL9-15 | 2026-09-04 01:40:15 | 50.74704 | 9.58680 | 116° | 73km/h | 3918m | -3.4m/s | 1.6°C | 61.1% | 639.0hPa | 2.7V | 00:00:00 | 00:00:00 | 00:00:00 | |
| DL1NUX | 2026-09-04 01:40:13 | 50.74740 | 9.58522 | 103° | 77km/h | 3937m | -3.2m/s | 1.4°C | 62.8% | 637.5hPa | 2.7V | 07:23:09 | 03:22:14 | 00:00:00 | |
| DM0DOS-11 | 2026-09-04 01:40:12 | 50.74745 | 9.58492 | 104° | 78km/h | 3941m | -3.4m/s | 1.3°C | 62.9% | 637.2hPa | 2.7V | 07:23:10 | 03:22:13 | 00:00:00 | |
| DB0DAN | 2026-09-04 01:40:10 | 50.74731 | 9.58578 | 106° | 66km/h | 3931m | -3.2m/s | 1.4°C | 61.5% | 637.94hPa | 2.7V | 00:00:00 | 00:00:00 | 00:00:00 | |
| DL1ZP-14 | 2026-09-04 01:40:10 | 50.74735 | 9.58550 | 104° | 71km/h | 3934m | -3.3m/s | 1.4°C | 61.6% | 637.7hPa | 2.7V | 00:00:00 | 00:00:00 | 00:00:00 | |
| DL1NUX | 2026-09-04 01:40:08 | 50.74770 | 9.58365 | 112° | 84km/h | 3954m | -3.3m/s | 1.2°C | 63.8% | 636.1hPa | 2.6V | 07:23:14 | 03:22:09 | 00:00:00 | |
| DM0DOS-11 | 2026-09-04 01:40:07 | 50.74779 | 9.58335 | 114° | 82km/h | 3957m | -3.1m/s | 1.2°C | 64.3% | 635.9hPa | 2.7V | 07:23:15 | 03:22:08 | 00:00:00 | |
| HSKMA3-T | 2026-09-04 01:40:07 | 50.74750 | 9.58460 | 106° | 82km/h | 3944m | -3.3m/s | 1.3°C | 67.5% | 636.9hPa | 2.7V | 07:23:56 | 03:22:12 | 00:00:00 | |
| BIOWL1-15 | 2026-09-04 01:40:05 | 50.74756 | 9.58429 | 108° | 84km/h | 3947m | -3.3m/s | 1.3°C | 67.5% | 636.6hPa | 2.7V | 07:23:56 | 03:22:11 | 00:00:00 | |
| DL1NUX | 2026-09-04 01:40:03 | 50.74812 | 9.58225 | 113° | 69km/h | 3970m | -3.2m/s | 1.1°C | 68% | 635hPa | 2.6V | 07:23:19 | 03:22:04 | 00:00:00 | |
| DM0DOS-11 | 2026-09-04 01:40:02 | 50.74818 | 9.58199 | 109° | 69km/h | 3973m | -3.2m/s | 1°C | 69.6% | 634.6hPa | 2.7V | 07:23:20 | 03:22:03 | 00:00:00 | |
| DF2AP-13 | 2026-09-04 01:40:02 | 50.74779 | 9.58335 | 115° | 78km/h | 3958m | -3.1m/s | 1.1°C | 64.3% | 635.8hPa | 2.7V | 07:23:00 | 03:22:08 | 00:00:00 | |
| DB0UT-7 | 2026-09-04 01:40:01 | 50.74788 | 9.58305 | 117° | 80km/h | 3961m | -3.1m/s | 1.1°C | 64.9% | 635.6hPa | 2.7V | 00:00:00 | 00:00:00 | 00:00:00 | |
| DL1NUX | 2026-09-04 01:39:58 | 50.74838 | 9.58085 | 104° | 80km/h | 3986m | -3.4m/s | 0.9°C | 71.3% | 633.6hPa | 2.7V | 07:23:24 | 03:21:59 | 00:00:00 | |
| DM0DOS-11 | 2026-09-04 01:39:57 | 50.74844 | 9.58054 | 105° | 84km/h | 3989m | -3.2m/s | 0.9°C | 71.4% | 633.3hPa | 2.7V | 07:23:25 | 03:21:58 | 00:00:00 | |
| HSKMA3-T | 2026-09-04 01:39:56 | 50.74824 | 9.58172 | 107° | 71km/h | 3976m | -3.1m/s | 1°C | 74.3% | 634.4hPa | 2.7V | 07:23:56 | 03:22:02 | 00:00:00 | |
| DB0DAN | 2026-09-04 01:39:55 | 50.74829 | 9.58145 | 105° | 69km/h | 3979m | -3.2m/s | 1°C | 69% | 634.15hPa | 2.7V | 00:00:00 | 00:00:00 | 00:00:00 | |
| BIOWL1-15 | 2026-09-04 01:39:54 | 50.74834 | 9.58116 | 104° | 77km/h | 3983m | -3.3m/s | 0.9°C | 74.9% | 633.9hPa | 2.7V | 07:23:56 | 03:22:00 | 00:00:00 | |
| DD1CC8 | 2026-09-04 01:39:54 | 50.74834 | 9.58116 | 103° | 77km/h | 3983m | -3.3m/s | 0.9°C | 69.2% | 633.9hPa | 2.7V | 00:00:00 | 00:00:00 | 00:00:00 | |
| DL1NUX | 2026-09-04 01:39:53 | 50.74872 | 9.57924 | 112° | 86km/h | 4002m | -3.4m/s | 0.7°C | 73.4% | 632.3hPa | 2.7V | 07:23:29 | 03:21:54 | 00:00:00 | |
| DM0DOS-11 | 2026-09-04 01:39:52 | 50.74880 | 9.57893 | 114° | 84km/h | 4006m | -3.2m/s | 0.7°C | 74.2% | 632hPa | 2.7V | 07:23:30 | 03:21:53 | 00:00:00 | |
| DF7PN | 2026-09-04 01:39:49 | 50.74864 | 9.57956 | 110° | 86km/h | 3999m | -3.5m/s | 0.8°C | 71.9% | 632.5hPa | 2.7V | 00:00:00 | 00:00:00 | 00:00:00 | |
| DL1NUX | 2026-09-04 01:39:48 | 50.74914 | 9.57780 | 113° | 71km/h | 4018m | -3.3m/s | 0.6°C | 75.2% | 631hPa | 2.7V | 07:23:34 | 03:21:49 | 00:00:00 | |
| DM0DOS-11 | 2026-09-04 01:39:47 | 50.74921 | 9.57754 | 110° | 71km/h | 4021m | -3.1m/s | 0.6°C | 75.1% | 630.8hPa | 2.7V | 07:23:35 | 03:21:48 | 00:00:00 | |
| HSKMA3-T | 2026-09-04 01:39:46 | 50.74889 | 9.57863 | 116° | 82km/h | 4009m | -3.2m/s | 0.7°C | 78.3% | 631.8hPa | 2.7V | 07:23:56 | 03:21:52 | 00:00:00 | |
| BIOWL1-15 | 2026-09-04 01:39:43 | 50.74937 | 9.57670 | 104° | 78km/h | 4031m | -3.2m/s | 0.5°C | 78.8% | 630.1hPa | 2.7V | 07:23:56 | 03:21:45 | 00:00:00 | |
| DL1NUX | 2026-09-04 01:39:43 | 50.74942 | 9.57639 | 104° | 82km/h | 4034m | -3.2m/s | 0.5°C | 74.4% | 629.8hPa | 2.6V | 07:23:39 | 03:21:44 | 00:00:00 | |
| DM0DOS-11 | 2026-09-04 01:39:42 | 50.74947 | 9.57607 | 105° | 84km/h | 4037m | -3.3m/s | 0.4°C | 75% | 629.5hPa | 2.6V | 07:23:40 | 03:21:43 | 00:00:00 | |
| DL1ZP-14 | 2026-09-04 01:39:39 | 50.74942 | 9.57639 | 104° | 80km/h | 4034m | -3.2m/s | 0.5°C | 73.2% | 629.8hPa | 2.6V | 00:00:00 | 00:00:00 | 00:00:00 | |
| DL1NUX | 2026-09-04 01:39:38 | 50.74977 | 9.57476 | 113° | 88km/h | 4051m | -3.4m/s | 0.3°C | 74.5% | 628.5hPa | 2.7V | 07:23:44 | 03:21:39 | 00:00:00 | |
| DM0DOS-11 | 2026-09-04 01:39:37 | 50.74986 | 9.57444 | 115° | 86km/h | 4054m | -3.3m/s | 0.3°C | 74.2% | 628.2hPa | 2.6V | 07:23:45 | 03:21:38 | 00:00:00 | |
| HSKMA3-T | 2026-09-04 01:39:35 | 50.74961 | 9.57541 | 110° | 88km/h | 4044m | -3.5m/s | 0.4°C | 79.6% | 628.9hPa | 2.7V | 07:23:56 | 03:21:41 | 00:00:00 | |
| DD1CC3-15 | 2026-09-04 01:39:34 | 50.74961 | 9.57541 | 111° | 88km/h | 4044m | -3.5m/s | 0.4°C | 74.0% | 628.9hPa | 2.7V | 07:23:00 | 00:00:00 | 00:00:00 | |
| DM0DOS-11 | 2026-09-04 01:39:32 | 50.75028 | 9.57304 | 110° | 71km/h | 4071m | -3.1m/s | 0.1°C | 72.3% | 626.9hPa | 2.7V | 07:23:50 | 03:21:33 | 00:00:00 | |
| BIOWL1-15 | 2026-09-04 01:39:30 | 50.75004 | 9.57385 | 117° | 78km/h | 4061m | -3.5m/s | 0.2°C | 78.1% | 627.7hPa | 2.7V | 07:23:56 | 03:21:36 | 00:00:00 | |
| DL1NUX | 2026-09-04 01:39:28 | 50.75049 | 9.57187 | 104° | 82km/h | 4084m | -3.3m/s | 0.1°C | 69.8% | 625.9hPa | 2.7V | 07:23:54 | 03:21:29 | 00:00:00 | |
| DM0DOS-11 | 2026-09-04 01:39:27 | 50.75055 | 9.57155 | 105° | 86km/h | 4088m | -3.4m/s | 0°C | 69.2% | 625.7hPa | 2.7V | 07:23:55 | 03:21:28 | 00:00:00 | |
| HSKMA3-T | 2026-09-04 01:39:24 | 50.75044 | 9.57218 | 104° | 78km/h | 4081m | -3.2m/s | 0.1°C | 74.5% | 626.1hPa | 2.6V | 07:23:56 | 03:21:30 | 00:00:00 | |
| DL1NUX | 2026-09-04 01:39:23 | 50.75085 | 9.57023 | 113° | 86km/h | 4101m | -3.1m/s | -0.1°C | 68.1% | 624.5hPa | 2.7V | 07:23:59 | 03:21:24 | 00:00:00 | |
| BIOWL1-15 | 2026-09-04 01:39:20 | 50.75068 | 9.57088 | 110° | 88km/h | 4094m | -3.4m/s | -0°C | 72.5% | 625.2hPa | 2.7V | 07:24:47 | 03:21:26 | 00:00:00 | |
| DL1NUX | 2026-09-04 01:39:18 | 50.75126 | 9.56880 | 110° | 73km/h | 4117m | -3.2m/s | -0.2°C | 66.4% | 623.4hPa | 2.7V | 07:24:04 | 03:21:19 | 00:00:00 | |
| DM0DOS-11 | 2026-09-04 01:39:17 | 50.75132 | 9.56852 | 107° | 75km/h | 4120m | -3.4m/s | -0.2°C | 62.1% | 623hPa | 2.7V | 07:24:05 | 03:21:18 | 00:00:00 | |
| HSKMA3-T | 2026-09-04 01:39:14 | 50.75126 | 9.56880 | 111° | 73km/h | 4117m | -3.2m/s | -0.2°C | 69.9% | 623.4hPa | 2.7V | 07:24:47 | 03:21:19 | 00:00:00 | |
| DL1NUX | 2026-09-04 01:39:13 | 50.75153 | 9.56729 | 104° | 86km/h | 4134m | -3.5m/s | -0.3°C | 60.7% | 622.1hPa | 2.7V | 07:24:09 | 03:21:14 | 00:00:00 | |
| BIOWL1-15 | 2026-09-04 01:39:09 | 50.75148 | 9.56762 | 104° | 82km/h | 4130m | -3.4m/s | -0.3°C | 65.1% | 622.3hPa | 2.7V | 07:24:47 | 03:21:15 | 00:00:00 | |
| DL1NUX | 2026-09-04 01:39:08 | 50.75188 | 9.56560 | 112° | 89km/h | 4151m | -3.5m/s | -0.4°C | 60.2% | 620.6hPa | 2.6V | 07:24:14 | 03:21:09 | 00:00:00 | |
| DL1ZP-14 | 2026-09-04 01:39:08 | 50.75158 | 9.56696 | 105° | 88km/h | 4137m | -3.6m/s | -0.3°C | 60.3% | 621.8hPa | 2.7V | 00:00:00 | 00:00:00 | 00:00:00 | |
| DM0DOS-11 | 2026-09-04 01:39:07 | 50.75196 | 9.56527 | 114° | 88km/h | 4155m | -3.4m/s | -0.4°C | 57.8% | 620.4hPa | 2.7V | 07:24:15 | 03:21:08 | 00:00:00 | |
| NBG1-10 | 2026-09-04 01:39:05 | 50.75171 | 9.56627 | 109° | 84km/h | 4145m | -3.3m/s | -0.3°C | 61.6% | 621.1hPa | 2.7V | 07:24:00 | 03:21:11 | 00:00:00 | |
| DL1NUX | 2026-09-04 01:39:03 | 50.75230 | 9.56411 | 111° | 75km/h | 4168m | -3.3m/s | -0.4°C | 56% | 619.4hPa | 2.7V | 07:24:19 | 03:21:04 | 00:00:00 | |
| HSKMA3-T | 2026-09-04 01:39:03 | 50.75196 | 9.56527 | 114° | 88km/h | 4155m | -3.4m/s | -0.4°C | 62.1% | 620.5hPa | 2.7V | 07:24:47 | 03:21:08 | 00:00:00 | |
| DM0DOS-11 | 2026-09-04 01:39:02 | 50.75237 | 9.56383 | 108° | 75km/h | 4171m | -3.2m/s | -0.4°C | 54.7% | 619.1hPa | 2.7V | 07:24:20 | 03:21:03 | 00:00:00 | |
| BIOWL1-15 | 2026-09-04 01:38:59 | 50.75223 | 9.56438 | 114° | 77km/h | 4165m | -3.4m/s | -0.4°C | 61.9% | 619.7hPa | 2.7V | 07:24:47 | 03:21:05 | 00:00:00 | |
| DL1NUX | 2026-09-04 01:38:58 | 50.75258 | 9.56261 | 104° | 86km/h | 4185m | -3.2m/s | -0.5°C | 52.9% | 618.1hPa | 2.7V | 07:24:24 | 03:20:59 | 00:00:00 | |
| DM0DOS-11 | 2026-09-04 01:38:57 | 50.75264 | 9.56227 | 106° | 89km/h | 4188m | -3.3m/s | -0.5°C | 52.9% | 617.9hPa | 2.7V | 07:24:25 | 03:20:58 | 00:00:00 | |
| DL1NUX | 2026-09-04 01:38:53 | 50.75296 | 9.56093 | 114° | 88km/h | 4201m | -3.1m/s | -0.6°C | 53.6% | 616.8hPa | 2.6V | 07:24:29 | 03:20:54 | 00:00:00 | |
| HSKMA3-T | 2026-09-04 01:38:52 | 50.75264 | 9.56227 | 107° | 89km/h | 4188m | -3.3m/s | -0.5°C | 57% | 617.9hPa | 2.7V | 07:24:47 | 03:20:58 | 00:00:00 | |
| DM0DOS-11 | 2026-09-04 01:38:52 | 50.75306 | 9.56062 | 115° | 84km/h | 4204m | -3.1m/s | -0.6°C | 53.7% | 616.6hPa | 2.6V | 07:24:30 | 03:20:53 | 00:00:00 | |
| BIOWL1-15 | 2026-09-04 01:38:48 | 50.75315 | 9.56032 | 115° | 80km/h | 4207m | -3.3m/s | -0.6°C | 57.9% | 616.4hPa | 2.7V | 07:24:47 | 03:20:52 | 00:00:00 | |
| DL1NUX | 2026-09-04 01:38:48 | 50.75337 | 9.55947 | 109° | 75km/h | 4217m | -3.3m/s | -0.7°C | 53.4% | 615.5hPa | 2.7V | 07:24:34 | 03:20:49 | 00:00:00 | |
| DM0DOS-11 | 2026-09-04 01:38:47 | 50.75343 | 9.55919 | 106° | 75km/h | 4221m | -3.4m/s | -0.7°C | 53.6% | 615.4hPa | 2.7V | 07:24:35 | 03:20:48 | 00:00:00 | |
| DL1NUX | 2026-09-04 01:38:43 | 50.75363 | 9.55794 | 104° | 86km/h | 4234m | -3.4m/s | -0.8°C | 53% | 614.2hPa | 2.7V | 07:24:39 | 03:20:44 | 00:00:00 | |
| DM0DOS-11 | 2026-09-04 01:38:42 | 50.75369 | 9.55761 | 106° | 89km/h | 4237m | -3.1m/s | -0.8°C | 53.1% | 614hPa | 2.7V | 07:24:40 | 03:20:43 | 00:00:00 | |
| HSKMA3-T | 2026-09-04 01:38:41 | 50.75348 | 9.55889 | 105° | 77km/h | 4224m | -3.3m/s | -0.7°C | 57.6% | 614.9hPa | 2.7V | 07:24:47 | 03:20:47 | 00:00:00 | |
| DL1NUX | 2026-09-04 01:38:38 | 50.75401 | 9.55629 | 114° | 84km/h | 4250m | -3.2m/s | -0.9°C | 53.5% | 613.1hPa | 2.7V | 07:24:44 | 03:20:39 | 00:00:00 | |
| DM0DOS-11 | 2026-09-04 01:38:37 | 50.75410 | 9.55599 | 115° | 80km/h | 4253m | -3.1m/s | -0.9°C | 53.8% | 612.8hPa | 2.6V | 07:24:45 | 03:20:38 | 00:00:00 | |
| BIOWL1-15 | 2026-09-04 01:38:36 | 50.75384 | 9.55693 | 111° | 89km/h | 4243m | -3m/s | -0.8°C | 58.2% | 613.6hPa | 2.7V | 07:24:47 | 03:20:41 | 00:00:00 | |
| DL1ZP-14 | 2026-09-04 01:38:36 | 50.75376 | 9.55726 | 108° | 89km/h | 4240m | -3.0m/s | -0.8°C | 52.3% | 613.7hPa | 2.7V | 00:00:00 | 00:00:00 | 00:00:00 | |
| DL1NUX | 2026-09-04 01:38:33 | 50.75440 | 9.55488 | 110° | 73km/h | 4266m | -3.4m/s | -1°C | 54.9% | 611.8hPa | 2.7V | 07:24:49 | 03:20:34 | 00:00:00 | |
| DM0DOS-11 | 2026-09-04 01:38:32 | 50.75446 | 9.55460 | 108° | 75km/h | 4270m | -3.2m/s | -1°C | 54.7% | 611.5hPa | 2.7V | 07:24:50 | 03:20:33 | 00:00:00 | |
| HSKMA3-T | 2026-09-04 01:38:31 | 50.75418 | 9.55571 | 115° | 78km/h | 4256m | -3.4m/s | -0.9°C | 58.2% | 612.5hPa | 2.6V | 07:24:47 | 03:20:37 | 00:00:00 | |
| DB0UT-7 | 2026-09-04 01:38:31 | 50.75418 | 9.55571 | 116° | 82km/h | 4256m | -3.3m/s | -0.9°C | 53.5% | 612.4hPa | 2.6V | 00:00:00 | 03:20:37 | 00:00:00 | |
| SONCRA | 2026-09-04 01:38:30 | 50.75426 | 9.55543 | 113° | 75km/h | 4259m | -3.5m/s | -0.9°C | 53.3% | 612.3hPa | 2.6V | 00:00:00 | 00:00:00 | 00:00:00 | |
| DL1NUX | 2026-09-04 01:38:28 | 50.75467 | 9.55338 | 104° | 86km/h | 4283m | -3.1m/s | -1.1°C | 55.3% | 610.4hPa | 2.6V | 07:24:54 | 03:20:29 | 00:00:00 | |
| DM0DOS-11 | 2026-09-04 01:38:27 | 50.75473 | 9.55305 | 105° | 88km/h | 4286m | -3.2m/s | -1.1°C | 56% | 610.4hPa | 2.7V | 07:24:55 | 03:20:28 | 00:00:00 | |
| BIOWL1-15 | 2026-09-04 01:38:24 | 50.75462 | 9.55371 | 103° | 82km/h | 4280m | -3.2m/s | -1.1°C | 59.8% | 610.7hPa | 2.6V | 07:25:38 | 03:20:30 | 00:00:00 | |
| DL1NUX | 2026-09-04 01:38:23 | 50.75504 | 9.55171 | 114° | 86km/h | 4299m | -3.2m/s | -1.2°C | 56.5% | 609.3hPa | 2.7V | 07:24:59 | 03:20:24 | 00:00:00 | |
| DM0DOS-11 | 2026-09-04 01:38:22 | 50.75512 | 9.55141 | 114° | 82km/h | 4302m | -3.1m/s | -1.2°C | 57.4% | 609.1hPa | 2.7V | 07:25:00 | 03:20:23 | 00:00:00 | |
| HSKMA3-T | 2026-09-04 01:38:20 | 50.75487 | 9.55236 | 111° | 91km/h | 4292m | -3.1m/s | -1.1°C | 60.2% | 609.8hPa | 2.7V | 07:25:38 | 03:20:26 | 00:00:00 | |
| DL1NUX | 2026-09-04 01:38:18 | 50.75541 | 9.55028 | 107° | 73km/h | 4314m | -3.3m/s | -1.3°C | 61.9% | 608hPa | 2.7V | 07:25:04 | 03:20:19 | 00:00:00 | |
| DM0DOS-11 | 2026-09-04 01:38:17 | 50.75547 | 9.55000 | 105° | 75km/h | 4318m | -3m/s | -1.4°C | 62.5% | 607.8hPa | 2.7V | 07:25:05 | 03:20:18 | 00:00:00 | |
| BIOWL1-15 | 2026-09-04 01:38:14 | 50.75535 | 9.55056 | 110° | 73km/h | 4311m | -3.2m/s | -1.3°C | 66.5% | 608.4hPa | 2.7V | 07:25:38 | 03:20:20 | 00:00:00 | |
| DM0DOS-11 | 2026-09-04 01:38:12 | 50.75571 | 9.54840 | 105° | 89km/h | 4333m | -3.3m/s | -1.5°C | 67.2% | 606.6hPa | 2.6V | 07:25:10 | 03:20:13 | 00:00:00 | |
| HSKMA3-T | 2026-09-04 01:38:09 | 50.75561 | 9.54908 | 103° | 84km/h | 4327m | -3.2m/s | -1.5°C | 68.6% | 607.1hPa | 2.7V | 07:25:38 | 03:20:15 | 00:00:00 | |
| DM0DOS-11 | 2026-09-04 01:38:07 | 50.75611 | 9.54675 | 114° | 84km/h | 4349m | -2.9m/s | -1.7°C | 73.3% | 605.4hPa | 2.7V | 07:25:15 | 03:20:08 | 00:00:00 | |
| BIOWL1-15 | 2026-09-04 01:38:06 | 50.75594 | 9.54738 | 112° | 89km/h | 4343m | -3.2m/s | -1.6°C | 75.4% | 605.9hPa | 2.7V | 07:25:38 | 03:20:10 | 00:00:00 | |
| DL1ZP-14 | 2026-09-04 01:38:05 | 50.75586 | 9.54772 | 110° | 89km/h | 4340m | -3.2m/s | -1.6°C | 69.8% | 606.1hPa | 2.7V | 00:00:00 | 00:00:00 | 00:00:00 | |
| DL1NUX | 2026-09-04 01:38:03 | 50.75643 | 9.54563 | 109° | 73km/h | 4361m | -3.2m/s | -1.8°C | 78.7% | 604.5hPa | 2.7V | 07:25:19 | 03:20:04 | 00:00:00 | |
| HSKMA3-T | 2026-09-04 01:37:59 | 50.75636 | 9.54590 | 112° | 75km/h | 4358m | -3.2m/s | -1.8°C | 80.6% | 604.8hPa | 2.6V | 07:25:38 | 03:20:05 | 00:00:00 | |
| NBG1-10 | 2026-09-04 01:37:59 | 50.75636 | 9.54590 | 113° | 84km/h | 4358m | -3.2m/s | -1.8°C | 78.0% | 604.7hPa | 2.7V | 00:00:00 | 03:20:05 | 00:00:00 | |
| DL1NUX | 2026-09-04 01:37:58 | 50.75671 | 9.54408 | 107° | 89km/h | 4377m | -3.1m/s | -2°C | 79.5% | 603.4hPa | 2.7V | 07:25:24 | 03:19:59 | 00:00:00 | |
| DL1NUX | 2026-09-04 01:37:53 | 50.75713 | 9.54242 | 115° | 86km/h | 4393m | -3m/s | -2.1°C | 80.8% | 602.1hPa | 2.7V | 07:25:29 | 03:19:54 | 00:00:00 | |
| BIOWL1-15 | 2026-09-04 01:37:53 | 50.75671 | 9.54408 | 107° | 89km/h | 4377m | -3.1m/s | -2°C | 82.2% | 603.4hPa | 2.7V | 07:25:38 | 03:19:59 | 00:00:00 | |
| HSKMA3-T | 2026-09-04 01:37:48 | 50.75713 | 9.54242 | 116° | 86km/h | 4393m | -3.1m/s | -2.1°C | 83.1% | 602.1hPa | 2.7V | 07:25:38 | 03:19:54 | 00:00:00 | |
| DL1NUX | 2026-09-04 01:37:48 | 50.75751 | 9.54091 | 105° | 82km/h | 4407m | -2.9m/s | -2.2°C | 82.3% | 601hPa | 2.6V | 07:25:34 | 03:19:49 | 00:00:00 | |
| DM0DOS-11 | 2026-09-04 01:37:47 | 50.75756 | 9.54059 | 105° | 86km/h | 4410m | -3m/s | -2.2°C | 82.5% | 600.8hPa | 2.7V | 07:25:35 | 03:19:48 | 00:00:00 | |
| DF7PN | 2026-09-04 01:37:45 | 50.75738 | 9.54152 | 110° | 78km/h | 4402m | -2.7m/s | -2.2°C | 80.3% | 601.5hPa | 2.7V | 00:00:00 | 00:00:00 | 00:00:00 | |
| DL1NUX | 2026-09-04 01:37:43 | 50.75783 | 9.53922 | 109° | 93km/h | 4423m | -3.1m/s | -2.3°C | 84.5% | 599.8hPa | 2.7V | 07:25:39 | 03:19:44 | 00:00:00 | |
| DM0DOS-11 | 2026-09-04 01:37:42 | 50.75791 | 9.53887 | 111° | 93km/h | 4426m | -3.3m/s | -2.3°C | 85.5% | 599.5hPa | 2.6V | 07:25:40 | 03:19:43 | 00:00:00 | |
| BIOWL1-15 | 2026-09-04 01:37:42 | 50.75757 | 9.54059 | 105° | 86km/h | 4410m | -3m/s | -2.2°C | 84.7% | 600.9hPa | 2.7V | 07:25:38 | 03:19:48 | 00:00:00 | |
| BIOWL9-15 | 2026-09-04 01:37:40 | 50.75775 | 9.53957 | 107° | 91km/h | 4420m | -3.2m/s | -2.3°C | 82.1% | 600.0hPa | 2.7V | 00:00:00 | 00:00:00 | 00:00:00 | |
| DL1NUX | 2026-09-04 01:37:38 | 50.75829 | 9.53756 | 117° | 84km/h | 4438m | -3.2m/s | -2.4°C | 86.8% | 598.6hPa | 2.7V | 07:25:44 | 03:19:39 | 00:00:00 | |
| DM0DOS-11 | 2026-09-04 01:37:37 | 50.75838 | 9.53727 | 116° | 82km/h | 4442m | -2.9m/s | -2.4°C | 86.9% | 598.5hPa | 2.7V | 07:25:45 | 03:19:38 | 00:00:00 | |
| HSKMA3-T | 2026-09-04 01:37:37 | 50.75791 | 9.53887 | 111° | 93km/h | 4426m | -3.3m/s | -2.3°C | 88% | 599.5hPa | 2.6V | 07:26:29 | 03:19:43 | 00:00:00 | |
| BIOWL1-15 | 2026-09-04 01:37:34 | 50.75838 | 9.53727 | 117° | 82km/h | 4442m | -2.9m/s | -2.4°C | 88.6% | 598.5hPa | 2.7V | 07:26:29 | 03:19:38 | 00:00:00 | |
| DL1NUX | 2026-09-04 01:37:33 | 50.75875 | 9.53575 | 106° | 88km/h | 4456m | -3m/s | -2.4°C | 87.5% | 597.3hPa | 2.7V | 07:25:50 | 03:19:33 | 00:00:00 | |
| DM0DOS-11 | 2026-09-04 01:37:32 | 50.75882 | 9.53541 | 107° | 91km/h | 4459m | -3m/s | -2.4°C | 87.5% | 597.2hPa | 2.7V | 07:25:51 | 03:19:32 | 00:00:00 | |
| DF2AP-13 | 2026-09-04 01:37:32 | 50.75838 | 9.53727 | 117° | 89km/h | 4442m | -2.9m/s | -2.4°C | 86.9% | 598.5hPa | 2.7V | 00:00:00 | 03:19:38 | 00:00:00 | |
| DB0UT-7 | 2026-09-04 01:37:31 | 50.75847 | 9.53698 | 116° | 89km/h | 4445m | -2.7m/s | -2.4°C | 87.3% | 598.1hPa | 2.7V | 00:00:00 | 03:19:37 | 00:00:00 | |
| DL1NUX | 2026-09-04 01:37:28 | 50.75916 | 9.53398 | 113° | 97km/h | 4472m | -3.2m/s | -2.5°C | 89% | 596.2hPa | 2.7V | 07:25:55 | 03:19:28 | 00:00:00 | |
| DM0DOS-11 | 2026-09-04 01:37:27 | 50.75926 | 9.53364 | 115° | 95km/h | 4475m | -3.1m/s | -2.5°C | 88.8% | 596hPa | 2.6V | 07:25:56 | 03:19:27 | 00:00:00 | |
| HSKMA3-T | 2026-09-04 01:37:26 | 50.75882 | 9.53541 | 107° | 91km/h | 4459m | -3m/s | -2.4°C | 89.2% | 597.2hPa | 2.7V | 07:26:29 | 03:19:32 | 00:00:00 | |
| NBG1-10 | 2026-09-04 01:37:26 | 50.75882 | 9.53541 | 108° | 93km/h | 4459m | -3.0m/s | -2.4°C | 87.5% | 597.1hPa | 2.7V | 00:00:00 | 03:19:32 | 00:00:00 | |
| DL1NUX | 2026-09-04 01:37:22 | 50.75967 | 9.53236 | 115° | 84km/h | 4486m | -2.9m/s | -2.6°C | 88.7% | 595hPa | 2.7V | 07:26:00 | 03:19:23 | 00:00:00 | |
| SO1NDE-10 | 2026-09-04 01:37:22 | 50.75916 | 9.53398 | 114° | 93km/h | 4472m | -3.2m/s | -2.4°C | 89.0% | 596.1hPa | 2.7V | 00:00:00 | 03:19:28 | 00:00:00 | |
| DM0DOS-11 | 2026-09-04 01:37:21 | 50.75983 | 9.53175 | 109° | 82km/h | 4492m | -2.9m/s | -2.6°C | 88.5% | 594.6hPa | 2.7V | 07:26:02 | 03:19:21 | 00:00:00 | |
| BIOWL1-15 | 2026-09-04 01:37:21 | 50.75926 | 9.53364 | 116° | 95km/h | 4475m | -3.1m/s | -2.5°C | 90.6% | 596hPa | 2.6V | 07:26:29 | 03:19:27 | 00:00:00 | |
| DB0NH | 2026-09-04 01:37:21 | 50.75926 | 9.53364 | 116° | 93km/h | 4475m | -3.1m/s | -2.4°C | 88.8% | 596.0hPa | 2.6V | 00:00:00 | 03:19:27 | 00:00:00 | |
| DD1CC8 | 2026-09-04 01:37:19 | 50.75947 | 9.53297 | 117° | 89km/h | 4481m | -2.9m/s | -2.6°C | 87.3% | 595.5hPa | 2.7V | 00:00:00 | 00:00:00 | 00:00:00 | |
| DL1NUX | 2026-09-04 01:37:17 | 50.76004 | 9.53076 | 108° | 93km/h | 4501m | -2.8m/s | -2.6°C | 87.1% | 594.1hPa | 2.7V | 07:26:05 | 03:19:18 | 00:00:00 | |
| HSKMA3-T | 2026-09-04 01:37:15 | 50.75983 | 9.53175 | 110° | 82km/h | 4492m | -2.9m/s | -2.6°C | 90.2% | 594.6hPa | 2.7V | 07:26:29 | 03:19:21 | 00:00:00 | |
| BIOWL1-15 | 2026-09-04 01:37:13 | 50.76011 | 9.53040 | 109° | 95km/h | 4503m | -2.7m/s | -2.6°C | 87.6% | 593.8hPa | 2.7V | 07:26:29 | 03:19:17 | 00:00:00 | |
| DL1NUX | 2026-09-04 01:37:12 | 50.76050 | 9.52898 | 116° | 95km/h | 4515m | -2.9m/s | -2.7°C | 83.9% | 592.9hPa | 2.7V | 07:26:10 | 03:19:13 | 00:00:00 | |
| DB0ND-19 | 2026-09-04 01:37:12 | 50.76011 | 9.53040 | 109° | 95km/h | 4503m | -2.7m/s | -2.6°C | 84.3% | 593.8hPa | 2.7V | 00:00:00 | 00:00:00 | 00:00:00 | |
| DD1CC3-15 | 2026-09-04 01:37:10 | 50.76011 | 9.53040 | 110° | 97km/h | 4503m | -2.7m/s | -2.6°C | 84.3% | 593.8hPa | 2.7V | 07:26:00 | 00:00:00 | 00:00:00 | |
| BIOWL9-15 | 2026-09-04 01:37:09 | 50.76039 | 9.52932 | 115° | 97km/h | 4512m | -2.9m/s | -2.7°C | 82.7% | 593.1hPa | 2.7V | 00:00:00 | 00:00:00 | 00:00:00 | |
| DL1NUX | 2026-09-04 01:37:07 | 50.76095 | 9.52739 | 108° | 88km/h | 4529m | -2.8m/s | -2.6°C | 80.7% | 591.8hPa | 2.7V | 07:26:15 | 03:19:08 | 00:00:00 | |
| DM0DOS-11 | 2026-09-04 01:37:05 | 50.76109 | 9.52670 | 107° | 93km/h | 4535m | -2.9m/s | -2.6°C | 81.3% | 591.5hPa | 2.7V | 07:26:17 | 03:19:06 | 00:00:00 | |
| HSKMA3-T | 2026-09-04 01:37:05 | 50.76070 | 9.52833 | 116° | 88km/h | 4520m | -2.6m/s | -2.6°C | 84% | 592.5hPa | 2.6V | 07:26:29 | 03:19:11 | 00:00:00 | |
| DL1ZP-14 | 2026-09-04 01:37:03 | 50.76088 | 9.52771 | 110° | 84km/h | 4526m | -2.8m/s | -2.6°C | 78.2% | 592.0hPa | 2.7V | 00:00:00 | 00:00:00 | 00:00:00 | |
| DL1NUX | 2026-09-04 01:37:02 | 50.76133 | 9.52559 | 110° | 100km/h | 4544m | -2.9m/s | -2.7°C | 80.3% | 590.8hPa | 2.7V | 07:26:20 | 03:19:03 | 00:00:00 | |
| BIOWL1-15 | 2026-09-04 01:37:02 | 50.76109 | 9.52670 | 107° | 93km/h | 4535m | -2.9m/s | -2.7°C | 84.2% | 591.5hPa | 2.7V | 07:26:29 | 03:19:06 | 00:00:00 | |
| DF2AP-13 | 2026-09-04 01:37:02 | 50.76095 | 9.52738 | 109° | 95km/h | 4529m | -2.8m/s | -2.6°C | 80.7% | 591.8hPa | 2.7V | 00:00:00 | 03:19:08 | 00:00:00 | |
| DB0UT-7 | 2026-09-04 01:37:01 | 50.76102 | 9.52705 | 108° | 95km/h | 4532m | -2.8m/s | -2.6°C | 81.3% | 591.6hPa | 2.7V | 00:00:00 | 00:00:00 | 00:00:00 | |
| DM0DOS-11 | 2026-09-04 01:37:00 | 50.76152 | 9.52484 | 114° | 100km/h | 4549m | -2.9m/s | -2.7°C | 81.1% | 590.4hPa | 2.7V | 07:26:22 | 03:19:01 | 00:00:00 | |
| BIOWL7-15 | 2026-09-04 01:36:59 | 50.76109 | 9.52670 | 108° | 93km/h | 4535m | -2.9m/s | -2.7°C | 79.8% | 591.5hPa | 2.7V | 00:00:00 | 00:00:00 | 00:00:00 | |
| DL1NUX | 2026-09-04 01:36:57 | 50.76185 | 9.52379 | 117° | 91km/h | 4558m | -2.5m/s | -2.8°C | 81.9% | 589.7hPa | 2.7V | 07:26:25 | 03:18:58 | 00:00:00 | |
| DM0DOS-11 | 2026-09-04 01:36:55 | 50.76204 | 9.52315 | 113° | 86km/h | 4563m | -2.7m/s | -2.8°C | 81.8% | 589.4hPa | 2.6V | 07:26:27 | 03:18:56 | 00:00:00 | |
| HSKMA3-T | 2026-09-04 01:36:55 | 50.76152 | 9.52484 | 114° | 100km/h | 4549m | -2.9m/s | -2.7°C | 83.4% | 590.4hPa | 2.7V | 07:26:29 | 03:19:01 | 00:00:00 | |
| NBG1-10 | 2026-09-04 01:36:53 | 50.76174 | 9.52412 | 118° | 97km/h | 4555m | -2.6m/s | -2.7°C | 81.4% | 589.8hPa | 2.7V | 00:00:00 | 03:18:59 | 00:00:00 | |
| DL1NUX | 2026-09-04 01:36:52 | 50.76226 | 9.52217 | 107° | 89km/h | 4571m | -2.8m/s | -2.9°C | 82.1% | 588.7hPa | 2.7V | 07:26:30 | 03:18:53 | 00:00:00 | |
| SO1NDE-10 | 2026-09-04 01:36:52 | 50.76184 | 9.52379 | 118° | 97km/h | 4558m | -2.5m/s | -2.7°C | 81.9% | 589.7hPa | 2.7V | 00:00:00 | 03:18:58 | 00:00:00 | |
| DB0NH | 2026-09-04 01:36:51 | 50.76195 | 9.52347 | 116° | 97km/h | 4560m | -2.6m/s | -2.7°C | 82.0% | 589.5hPa | 2.7V | 00:00:00 | 03:18:57 | 00:00:00 | |
| DM0DOS-11 | 2026-09-04 01:36:50 | 50.76240 | 9.52146 | 106° | 95km/h | 4577m | -3m/s | -2.9°C | 82.4% | 588.2hPa | 2.7V | 07:26:32 | 03:18:51 | 00:00:00 | |
| BIOWL1-15 | 2026-09-04 01:36:50 | 50.76204 | 9.52315 | 113° | 86km/h | 4563m | -2.7m/s | -2.8°C | 84.1% | 589.4hPa | 2.6V | 07:26:29 | 03:18:56 | 00:00:00 | |
| DD1CC8 | 2026-09-04 01:36:48 | 50.76220 | 9.52251 | 108° | 86km/h | 4568m | -2.8m/s | -2.8°C | 80.4% | 589.0hPa | 2.6V | 00:00:00 | 00:00:00 | 00:00:00 | |
| HSKMA3-T | 2026-09-04 01:36:44 | 50.76247 | 9.52109 | 107° | 99km/h | 4580m | -3m/s | -2.9°C | 84.8% | 587.9hPa | 2.6V | 07:27:20 | 03:18:50 | 00:00:00 | |
| DF7PN | 2026-09-04 01:36:43 | 50.76255 | 9.52071 | 108° | 100km/h | 4583m | -3.0m/s | -3.0°C | 81.1% | 587.8hPa | 2.7V | 00:00:00 | 00:00:00 | 00:00:00 | |
| DM0DOS-11 | 2026-09-04 01:36:42 | 50.76283 | 9.51955 | 113° | 104km/h | 4592m | -2.7m/s | -3°C | 82.9% | 587.2hPa | 2.7V | 07:26:37 | 03:18:46 | 00:00:00 | |
| DL1NUX | 2026-09-04 01:36:42 | 50.76263 | 9.52032 | 109° | 104km/h | 4586m | -2.9m/s | -3°C | 82.7% | 587.5hPa | 2.7V | 07:26:35 | 03:18:48 | 00:00:00 | |
| DL1NUX | 2026-09-04 01:36:42 | 50.76316 | 9.51847 | 117° | 95km/h | 4600m | -2.8m/s | -3.1°C | 83.2% | 586.6hPa | 2.6V | 07:26:40 | 03:18:43 | 00:00:00 | |
| BIOWL1-15 | 2026-09-04 01:36:41 | 50.76294 | 9.51918 | 116° | 102km/h | 4595m | -2.7m/s | -3°C | 85% | 587hPa | 2.7V | 07:27:20 | 03:18:45 | 00:00:00 | |
| DM0DOS-11 | 2026-09-04 01:36:36 | 50.76337 | 9.51782 | 114° | 89km/h | 4606m | -2.7m/s | -3.1°C | 83.1% | 586.1hPa | 2.7V | 07:26:42 | 03:18:41 | 00:00:00 | |
| HSKMA3-T | 2026-09-04 01:36:34 | 50.76346 | 9.51749 | 112° | 88km/h | 4609m | -2.7m/s | -3.1°C | 86.3% | 586.1hPa | 2.7V | 07:27:20 | 03:18:40 | 00:00:00 | |
| DL1NUX | 2026-09-04 01:36:32 | 50.76361 | 9.51682 | 107° | 91km/h | 4614m | -2.7m/s | -3.2°C | 83.4% | 585.6hPa | 2.7V | 07:26:45 | 03:18:38 | 00:00:00 | |
| DL1NUX | 2026-09-04 01:36:32 | 50.76398 | 9.51493 | 109° | 106km/h | 4627m | -2.6m/s | -3.3°C | 84% | 584.6hPa | 2.7V | 07:26:50 | 03:18:33 | 00:00:00 | |
| DM0DOS-11 | 2026-09-04 01:36:30 | 50.76375 | 9.51610 | 106° | 99km/h | 4619m | -2.6m/s | -3.2°C | 83.9% | 585.3hPa | 2.7V | 07:26:47 | 03:18:36 | 00:00:00 | |
| DM0DOS-11 | 2026-09-04 01:36:30 | 50.76418 | 9.51414 | 113° | 106km/h | 4633m | -2.6m/s | -3.3°C | 84.4% | 584.1hPa | 2.7V | 07:26:52 | 03:18:31 | 00:00:00 | |
| BIOWL1-15 | 2026-09-04 01:36:29 | 50.76382 | 9.51572 | 107° | 102km/h | 4622m | -2.7m/s | -3.2°C | 86.5% | 585hPa | 2.6V | 07:27:20 | 03:18:35 | 00:00:00 | |
| SONCRA | 2026-09-04 01:36:26 | 50.76408 | 9.51453 | 111° | 106km/h | 4630m | -2.7m/s | -3.3°C | 82.5% | 584.4hPa | 2.7V | 00:00:00 | 00:00:00 | 00:00:00 | |
| DM0DOS-11 | 2026-09-04 01:36:25 | 50.76473 | 9.51237 | 114° | 91km/h | 4646m | -2.6m/s | -3.4°C | 84.5% | 583.2hPa | 2.7V | 07:26:57 | 03:18:26 | 00:00:00 | |
| HSKMA3-T | 2026-09-04 01:36:24 | 50.76429 | 9.51376 | 116° | 104km/h | 4635m | -2.6m/s | -3.4°C | 86.8% | 584hPa | 2.7V | 07:27:20 | 03:18:30 | 00:00:00 | |
| DL1NUX | 2026-09-04 01:36:22 | 50.76498 | 9.51136 | 107° | 93km/h | 4654m | -2.5m/s | -3.5°C | 84.5% | 582.6hPa | 2.7V | 07:27:00 | 03:18:23 | 00:00:00 | |
| BIOWL1-15 | 2026-09-04 01:36:18 | 50.76490 | 9.51171 | 110° | 91km/h | 4651m | -2.7m/s | -3.5°C | 87.3% | 583hPa | 2.7V | 07:27:20 | 03:18:24 | 00:00:00 | |
| DM0DOS-11 | 2026-09-04 01:36:15 | 50.76512 | 9.51062 | 106° | 100km/h | 4659m | -2.5m/s | -3.5°C | 84.6% | 582.3hPa | 2.6V | 07:27:02 | 03:18:21 | 00:00:00 | |
| DM0DOS-11 | 2026-09-04 01:36:15 | 50.76559 | 9.50869 | 115° | 100km/h | 4671m | -2.4m/s | -3.6°C | 85.5% | 581.4hPa | 2.7V | 07:27:07 | 03:18:16 | 00:00:00 | |
| HSKMA3-T | 2026-09-04 01:36:13 | 50.76528 | 9.50983 | 110° | 106km/h | 4664m | -2.5m/s | -3.6°C | 86.9% | 581.9hPa | 2.7V | 07:27:20 | 03:18:19 | 00:00:00 | |
| DL1NUX | 2026-09-04 01:36:12 | 50.76538 | 9.50944 | 112° | 106km/h | 4666m | -2.6m/s | -3.6°C | 85.1% | 581.8hPa | 2.7V | 07:27:05 | 03:18:18 | 00:00:00 | |
| DM0DOS-11 | 2026-09-04 01:36:10 | 50.76608 | 9.50699 | 109° | 91km/h | 4684m | -2.5m/s | -3.7°C | 85.8% | 580.4hPa | 2.7V | 07:27:12 | 03:18:11 | 00:00:00 | |
| BIOWL1-15 | 2026-09-04 01:36:07 | 50.76591 | 9.50766 | 114° | 91km/h | 4679m | -2.7m/s | -3.7°C | 87.6% | 580.8hPa | 2.6V | 07:27:20 | 03:18:13 | 00:00:00 | |
| BIOWL9-15 | 2026-09-04 01:36:07 | 50.76600 | 9.50733 | 111° | 89km/h | 4681m | -2.6m/s | -3.7°C | 84.0% | 580.6hPa | 2.6V | 00:00:00 | 00:00:00 | 00:00:00 | |
| DM0DOS-11 | 2026-09-04 01:36:05 | 50.76646 | 9.50510 | 110° | 108km/h | 4697m | -2.5m/s | -3.8°C | 86.2% | 579.5hPa | 2.6V | 07:27:17 | 03:18:06 | 00:00:00 | |
| HSKMA3-T | 2026-09-04 01:36:03 | 50.76622 | 9.50627 | 106° | 97km/h | 4689m | -2.6m/s | -3.8°C | 88.1% | 580hPa | 2.7V | 07:27:20 | 03:18:09 | 00:00:00 | |
| DL1NUX | 2026-09-04 01:36:02 | 50.76629 | 9.50589 | 106° | 102km/h | 4692m | -2.7m/s | -3.8°C | 86% | 579.8hPa | 2.7V | 07:27:15 | 03:18:08 | 00:00:00 | |
| DF2AP-13 | 2026-09-04 01:36:02 | 50.76629 | 9.50589 | 107° | 99km/h | 4692m | -2.6m/s | -3.7°C | 86.0% | 579.8hPa | 2.7V | 07:27:00 | 03:18:08 | 00:00:00 | |
| DB0UT-7 | 2026-09-04 01:36:01 | 50.76637 | 9.50550 | 109° | 99km/h | 4695m | -2.6m/s | -3.8°C | 86.2% | 579.6hPa | 2.7V | 00:00:00 | 00:00:00 | 00:00:00 | |
| DM0DOS-11 | 2026-09-04 01:35:56 | 50.76700 | 9.50322 | 116° | 95km/h | 4710m | -2.4m/s | -4°C | 87.3% | 578.6hPa | 2.7V | 07:27:22 | 03:18:01 | 00:00:00 | |
| BIOWL1-15 | 2026-09-04 01:35:56 | 50.76689 | 9.50357 | 117° | 99km/h | 4708m | -2.7m/s | -3.9°C | 88.6% | 578.7hPa | 2.7V | 07:28:11 | 03:18:02 | 00:00:00 | |
| SONCRA | 2026-09-04 01:35:55 | 50.76700 | 9.50322 | 116° | 95km/h | 4710m | -2.4m/s | -4.0°C | 85.5% | 578.6hPa | 2.6V | 00:00:00 | 00:00:00 | 00:00:00 | |
| DL1NUX | 2026-09-04 01:35:52 | 50.76728 | 9.50222 | 110° | 89km/h | 4718m | -2.5m/s | -4°C | 87.7% | 578hPa | 2.6V | 07:27:25 | 03:17:58 | 00:00:00 | |
| DL1NUX | 2026-09-04 01:35:52 | 50.76766 | 9.50037 | 110° | 106km/h | 4730m | -2.4m/s | -4.1°C | 87.8% | 577.1hPa | 2.7V | 07:27:30 | 03:17:53 | 00:00:00 | |
| HSKMA3-T | 2026-09-04 01:35:52 | 50.76728 | 9.50222 | 110° | 89km/h | 4718m | -2.5m/s | -4°C | 89.2% | 578hPa | 2.6V | 07:28:11 | 03:17:58 | 00:00:00 | |
| SO1NDE-10 | 2026-09-04 01:35:52 | 50.76728 | 9.50222 | 111° | 99km/h | 4718m | -2.5m/s | -4.0°C | 87.7% | 578.0hPa | 2.6V | 00:00:00 | 03:17:58 | 00:00:00 | |
| DB0NH | 2026-09-04 01:35:51 | 50.76735 | 9.50188 | 109° | 99km/h | 4720m | -2.5m/s | -4.0°C | 87.7% | 577.8hPa | 2.7V | 00:00:00 | 03:17:57 | 00:00:00 | |
| DM0DOS-11 | 2026-09-04 01:35:50 | 50.76787 | 9.49960 | 114° | 106km/h | 4735m | -2.3m/s | -4.2°C | 88.6% | 576.6hPa | 2.6V | 07:27:32 | 03:17:51 | 00:00:00 | |
| BIOWL1-15 | 2026-09-04 01:35:46 | 50.76776 | 9.49998 | 113° | 106km/h | 4733m | -2.4m/s | -4.2°C | 89.9% | 577hPa | 2.6V | 07:28:11 | 03:17:52 | 00:00:00 | |
| DD1CC8 | 2026-09-04 01:35:46 | 50.76776 | 9.49998 | 112° | 106km/h | 4732m | -2.4m/s | -4.2°C | 86.5% | 577.0hPa | 2.7V | 00:00:00 | 00:00:00 | 00:00:00 | |
| DL1NUX | 2026-09-04 01:35:43 | 50.76822 | 9.49851 | 117° | 97km/h | 4743m | -2.6m/s | -4.3°C | 89% | 576.1hPa | 2.7V | 07:27:35 | 03:17:48 | 00:00:00 | |
| DL1NUX | 2026-09-04 01:35:43 | 50.76867 | 9.49682 | 107° | 95km/h | 4755m | -2.5m/s | -4.4°C | 89.3% | 575.2hPa | 2.7V | 07:27:40 | 03:17:43 | 00:00:00 | |
| HSKMA3-T | 2026-09-04 01:35:42 | 50.76821 | 9.49851 | 117° | 97km/h | 4743m | -2.6m/s | -4.3°C | 90.2% | 576.1hPa | 2.7V | 07:28:11 | 03:17:48 | 00:00:00 | |
| DM0DOS-11 | 2026-09-04 01:35:41 | 50.76842 | 9.49784 | 114° | 91km/h | 4748m | -2.6m/s | -4.3°C | 89% | 575.8hPa | 2.7V | 07:27:37 | 03:17:46 | 00:00:00 | |
| BIOWL1-15 | 2026-09-04 01:35:39 | 50.76881 | 9.49607 | 108° | 102km/h | 4760m | -2.4m/s | -4.4°C | 91.5% | 574.9hPa | 2.7V | 07:28:11 | 03:17:41 | 00:00:00 | |
| BIOWL9-15 | 2026-09-04 01:35:36 | 50.76881 | 9.49607 | 107° | 102km/h | 4760m | -2.4m/s | -4.4°C | 87.6% | 574.9hPa | 2.6V | 00:00:00 | 00:00:00 | 00:00:00 | |
| DL1NUX | 2026-09-04 01:35:32 | 50.76909 | 9.49488 | 113° | 108km/h | 4768m | -2.4m/s | -4.5°C | 89.9% | 574.3hPa | 2.6V | 07:27:45 | 03:17:38 | 00:00:00 | |
| HSKMA3-T | 2026-09-04 01:35:31 | 50.76920 | 9.49449 | 115° | 106km/h | 4770m | -2.5m/s | -4.5°C | 91.9% | 574.1hPa | 2.6V | 07:28:11 | 03:17:37 | 00:00:00 | |
| DM0DOS-11 | 2026-09-04 01:35:30 | 50.76931 | 9.49411 | 116° | 102km/h | 4773m | -2.6m/s | -4.5°C | 90.1% | 574hPa | 2.7V | 07:27:47 | 03:17:36 | 00:00:00 | |
| DJ8HS-15 | 2026-09-04 01:35:30 | 50.76931 | 9.49412 | 117° | 100km/h | 4773m | -2.5m/s | -4.5°C | 90.1% | 573.9hPa | 2.7V | 00:00:00 | 03:17:36 | 00:00:00 | |
| DD1CC3-15 | 2026-09-04 01:35:27 | 50.76954 | 9.49341 | 118° | 95km/h | 4778m | -2.5m/s | -4.6°C | 88.7% | 573.5hPa | 2.6V | 07:28:00 | 00:00:00 | 00:00:00 | |
| DB0DAN | 2026-09-04 01:35:25 | 50.76984 | 9.49242 | 112° | 86km/h | 4785m | -2.5m/s | -4.7°C | 89.1% | 573.01hPa | 2.6V | 00:00:00 | 00:00:00 | 00:00:00 | |
| BIOWL1-15 | 2026-09-04 01:35:25 | 50.77014 | 9.49098 | 108° | 102km/h | 4795m | -2.4m/s | -4.8°C | 93.3% | 572.3hPa | 2.7V | 07:28:11 | 03:17:27 | 00:00:00 | |
| DM0DOS-11 | 2026-09-04 01:35:24 | 50.77023 | 9.49058 | 109° | 106km/h | 4798m | -2.3m/s | -4.8°C | 91.6% | 572.1hPa | 2.7V | 07:27:57 | 03:17:26 | 00:00:00 | |
| DL1NUX | 2026-09-04 01:35:22 | 50.77007 | 9.49136 | 107° | 99km/h | 4793m | -2.4m/s | -4.7°C | 91.2% | 572.5hPa | 2.7V | 07:27:55 | 03:17:28 | 00:00:00 | |
| DL1NUX | 2026-09-04 01:35:22 | 50.77053 | 9.48941 | 115° | 106km/h | 4805m | -2.5m/s | -4.8°C | 92.2% | 571.5hPa | 2.6V | 07:28:00 | 03:17:23 | 00:00:00 | |
| HSKMA3-T | 2026-09-04 01:35:20 | 50.77023 | 9.49058 | 109° | 106km/h | 4798m | -2.3m/s | -4.8°C | 93.5% | 572.1hPa | 2.7V | 07:28:11 | 03:17:26 | 00:00:00 | |
| DM0DOS-11 | 2026-09-04 01:35:16 | 50.77077 | 9.48868 | 117° | 99km/h | 4810m | -2.5m/s | -4.9°C | 92.6% | 571.3hPa | 2.7V | 07:28:02 | 03:17:21 | 00:00:00 | |
| BIOWL1-15 | 2026-09-04 01:35:16 | 50.77088 | 9.48834 | 118° | 95km/h | 4812m | -2.5m/s | -4.9°C | 94.2% | 571hPa | 2.7V | 07:28:11 | 03:17:20 | 00:00:00 | |
| DL1NUX | 2026-09-04 01:35:12 | 50.77109 | 9.48769 | 114° | 89km/h | 4818m | -2.6m/s | -5°C | 93.2% | 570.7hPa | 2.7V | 07:28:05 | 03:17:18 | 00:00:00 | |
| DL1NUX | 2026-09-04 01:35:12 | 50.77148 | 9.48597 | 107° | 99km/h | 4830m | -2.5m/s | -5.1°C | 93.6% | 569.8hPa | 2.7V | 07:28:10 | 03:17:13 | 00:00:00 | |
| DF8AY | 2026-09-04 01:35:12 | 50.77109 | 9.48769 | 115° | 89km/h | 4818m | -2.6m/s | 0°C | 0% | 0hPa | 2.7V | 18:12:15 | 03:17:18 | 00:00:00 | |
| DM0DOS-11 | 2026-09-04 01:35:11 | 50.77126 | 9.48703 | 110° | 89km/h | 4823m | -2.5m/s | -5°C | 93.4% | 570.3hPa | 2.6V | 07:28:07 | 03:17:16 | 00:00:00 | |
| DM0DOS-11 | 2026-09-04 01:35:11 | 50.77164 | 9.48519 | 109° | 106km/h | 4835m | -2.3m/s | -5.1°C | 93.9% | 569.4hPa | 2.7V | 07:28:12 | 03:17:11 | 00:00:00 | |
| HSKMA3-T | 2026-09-04 01:35:10 | 50.77126 | 9.48703 | 110° | 89km/h | 4823m | -2.5m/s | -5°C | 94.1% | 570.3hPa | 2.6V | 07:28:11 | 03:17:16 | 00:00:00 | |
| DF7PN | 2026-09-04 01:35:10 | 50.77133 | 9.48669 | 108° | 91km/h | 4825m | -2.6m/s | -5.0°C | 91.4% | 570.1hPa | 2.7V | 00:00:00 | 00:00:00 | 00:00:00 | |
| DB0DAN | 2026-09-04 01:35:10 | 50.77126 | 9.48703 | 110° | 86km/h | 4823m | -2.5m/s | -5°C | 91.4% | 570.31hPa | 2.6V | 00:00:00 | 00:00:00 | 00:00:00 | |
| DL1NUX | 2026-09-04 01:35:07 | 50.77194 | 9.48401 | 115° | 106km/h | 4842m | -2.4m/s | -5.2°C | 94.6% | 568.9hPa | 2.7V | 07:28:15 | 03:17:08 | 00:00:00 | |
| BIOWL1-15 | 2026-09-04 01:35:03 | 50.77183 | 9.48440 | 113° | 108km/h | 4840m | -2.3m/s | -5.2°C | 94.5% | 569hPa | 2.6V | 07:29:02 | 03:17:09 | 00:00:00 | |
| DM0DOS-11 | 2026-09-04 01:35:02 | 50.77218 | 9.48326 | 117° | 100km/h | 4847m | -2.5m/s | -5.2°C | 94.8% | 568.5hPa | 2.7V | 07:28:17 | 03:17:06 | 00:00:00 | |
| DL1NUX | 2026-09-04 01:35:02 | 50.77251 | 9.48224 | 115° | 91km/h | 4855m | -2.4m/s | -5.3°C | 94% | 568hPa | 2.6V | 07:28:20 | 03:17:03 | 00:00:00 | |
| HSKMA3-T | 2026-09-04 01:34:59 | 50.77230 | 9.48291 | 118° | 97km/h | 4850m | -2.5m/s | -5.3°C | 94.5% | 568.3hPa | 2.7V | 07:29:02 | 03:17:05 | 00:00:00 | |
| DM0DOS-11 | 2026-09-04 01:34:56 | 50.77269 | 9.48158 | 110° | 91km/h | 4860m | -2.4m/s | -5.3°C | 94.1% | 567.6hPa | 2.7V | 07:28:22 | 03:17:01 | 00:00:00 | |
| DB0DAN | 2026-09-04 01:34:55 | 50.77269 | 9.48158 | 110° | 88km/h | 4860m | -2.4m/s | -5.3°C | 92.1% | 567.6hPa | 2.7V | 00:00:00 | 00:00:00 | 00:00:00 | |
| BIOWL1-15 | 2026-09-04 01:34:53 | 50.77284 | 9.48086 | 108° | 99km/h | 4865m | -2.4m/s | -5.4°C | 94.4% | 567.3hPa | 2.7V | 07:29:02 | 03:16:59 | 00:00:00 | |
| DM0DOS-11 | 2026-09-04 01:34:50 | 50.77310 | 9.47970 | 111° | 106km/h | 4872m | -2.4m/s | -5.4°C | 94.2% | 566.8hPa | 2.6V | 07:28:27 | 03:16:56 | 00:00:00 | |
| DM0DOS-11 | 2026-09-04 01:34:50 | 50.77366 | 9.47787 | 116° | 93km/h | 4883m | -2.3m/s | -5.5°C | 94% | 565.9hPa | 2.7V | 07:28:32 | 03:16:51 | 00:00:00 | |
| HSKMA3-T | 2026-09-04 01:34:48 | 50.77332 | 9.47893 | 116° | 104km/h | 4876m | -2.3m/s | -5.4°C | 95% | 566.5hPa | 2.7V | 07:29:02 | 03:16:54 | 00:00:00 | |
| DD1CC3-15 | 2026-09-04 01:34:46 | 50.77343 | 9.47856 | 118° | 102km/h | 4879m | -2.2m/s | -5.5°C | 92.4% | 566.3hPa | 2.7V | 07:29:00 | 00:00:00 | 00:00:00 | |
| DM0DOS-11 | 2026-09-04 01:34:45 | 50.77409 | 9.47610 | 108° | 102km/h | 4895m | -2.3m/s | -5.6°C | 94.9% | 565hPa | 2.7V | 07:28:37 | 03:16:46 | 00:00:00 | |
| BIOWL1-15 | 2026-09-04 01:34:43 | 50.77385 | 9.47720 | 111° | 93km/h | 4888m | -2.3m/s | -5.5°C | 95.3% | 565.6hPa | 2.6V | 07:29:02 | 03:16:49 | 00:00:00 | |
| DL1NUX | 2026-09-04 01:34:42 | 50.77393 | 9.47685 | 109° | 95km/h | 4890m | -2.3m/s | -5.6°C | 94.4% | 565.4hPa | 2.6V | 07:28:35 | 03:16:48 | 00:00:00 | |
| DL1NUX | 2026-09-04 01:34:42 | 50.77438 | 9.47491 | 113° | 108km/h | 4902m | -2.5m/s | -5.7°C | 95.7% | 564.6hPa | 2.7V | 07:28:40 | 03:16:43 | 00:00:00 | |
| HSKMA3-T | 2026-09-04 01:34:37 | 50.77438 | 9.47491 | 114° | 108km/h | 4902m | -2.5m/s | -5.7°C | 96% | 564.6hPa | 2.7V | 07:29:02 | 03:16:43 | 00:00:00 | |
| DM0DOS-11 | 2026-09-04 01:34:36 | 50.77461 | 9.47415 | 117° | 104km/h | 4907m | -2.4m/s | -5.7°C | 95.6% | 564.2hPa | 2.6V | 07:28:42 | 03:16:41 | 00:00:00 | |
| DL1NUX | 2026-09-04 01:34:32 | 50.77496 | 9.47311 | 117° | 93km/h | 4915m | -2.6m/s | -5.8°C | 95.7% | 563.6hPa | 2.7V | 07:28:45 | 03:16:38 | 00:00:00 | |
| BIOWL1-15 | 2026-09-04 01:34:32 | 50.77496 | 9.47311 | 117° | 93km/h | 4915m | -2.6m/s | -5.8°C | 96.6% | 563.6hPa | 2.7V | 07:29:02 | 03:16:38 | 00:00:00 | |
| DF2AP-13 | 2026-09-04 01:34:32 | 50.77496 | 9.47310 | 118° | 99km/h | 4915m | -2.5m/s | -5.7°C | 95.7% | 563.5hPa | 2.7V | 00:00:00 | 03:16:38 | 00:00:00 | |
| DB0UT-7 | 2026-09-04 01:34:31 | 50.77506 | 9.47277 | 115° | 99km/h | 4917m | -2.4m/s | -5.8°C | 95.9% | 563.5hPa | 2.7V | 00:00:00 | 03:16:37 | 00:00:00 | |
| DL1NUX | 2026-09-04 01:34:27 | 50.77541 | 9.47136 | 108° | 102km/h | 4927m | -2.4m/s | -5.9°C | 96% | 562.8hPa | 2.7V | 07:28:50 | 03:16:33 | 00:00:00 | |
| DL1NUX | 2026-09-04 01:34:27 | 50.77592 | 9.46940 | 117° | 104km/h | 4939m | -2.3m/s | -6°C | 95.8% | 561.9hPa | 2.6V | 07:28:55 | 03:16:28 | 00:00:00 | |
| HSKMA3-T | 2026-09-04 01:34:26 | 50.77549 | 9.47097 | 110° | 106km/h | 4929m | -2.4m/s | -5.9°C | 96.3% | 562.6hPa | 2.7V | 07:29:02 | 03:16:32 | 00:00:00 | |
| DM0DOS-11 | 2026-09-04 01:34:25 | 50.77616 | 9.46869 | 117° | 97km/h | 4943m | -2.5m/s | -6°C | 95.6% | 561.6hPa | 2.7V | 07:28:57 | 03:16:26 | 00:00:00 | |
| DJ8HS-15 | 2026-09-04 01:34:24 | 50.77569 | 9.47017 | 114° | 102km/h | 4934m | -2.4m/s | -5.9°C | 95.6% | 562.3hPa | 2.7V | 00:00:00 | 03:16:30 | 00:00:00 | |
| DL1NUX | 2026-09-04 01:34:22 | 50.77646 | 9.46768 | 111° | 91km/h | 4950m | -2.3m/s | -6.1°C | 96.5% | 561hPa | 2.7V | 07:29:00 | 03:16:23 | 00:00:00 | |
| BIOWL1-15 | 2026-09-04 01:34:21 | 50.77604 | 9.46903 | 118° | 100km/h | 4941m | -2.3m/s | -6°C | 95.9% | 561.8hPa | 2.7V | 07:29:02 | 03:16:27 | 00:00:00 | |
| DB0NH | 2026-09-04 01:34:21 | 50.77604 | 9.46903 | 118° | 99km/h | 4941m | -2.3m/s | -6.0°C | 95.7% | 561.7hPa | 2.7V | 00:00:00 | 03:16:27 | 00:00:00 | |
| DL1NUX | 2026-09-04 01:34:17 | 50.77690 | 9.46579 | 112° | 108km/h | 4962m | -2.4m/s | -6.2°C | 96.4% | 560.3hPa | 2.7V | 07:29:05 | 03:16:18 | 00:00:00 | |
| DM0DOS-11 | 2026-09-04 01:34:15 | 50.77712 | 9.46500 | 116° | 108km/h | 4967m | -2.5m/s | -6.2°C | 96.7% | 559.9hPa | 2.7V | 07:29:07 | 03:16:16 | 00:00:00 | |
| HSKMA3-T | 2026-09-04 01:34:15 | 50.77663 | 9.46696 | 109° | 99km/h | 4955m | -2.4m/s | -6.1°C | 95.9% | 560.8hPa | 2.6V | 07:29:02 | 03:16:21 | 00:00:00 | |
| DD1CC8 | 2026-09-04 01:34:13 | 50.77690 | 9.46579 | 112° | 108km/h | 4962m | -2.4m/s | -6.2°C | 94.2% | 560.3hPa | 2.7V | 00:00:00 | 00:00:00 | 00:00:00 | |
| DL1NUX | 2026-09-04 01:34:12 | 50.77749 | 9.46392 | 118° | 97km/h | 4974m | -2.4m/s | -6.3°C | 97.9% | 559.4hPa | 2.7V | 07:29:10 | 03:16:13 | 00:00:00 | |
| BIOWL1-15 | 2026-09-04 01:34:10 | 50.77712 | 9.46500 | 116° | 108km/h | 4967m | -2.5m/s | -6.2°C | 96.2% | 559.9hPa | 2.7V | 07:29:53 | 03:16:16 | 00:00:00 | |
| DF7PN | 2026-09-04 01:34:08 | 50.77749 | 9.46392 | 118° | 97km/h | 4974m | -2.4m/s | -6.3°C | 95.7% | 559.4hPa | 2.6V | 00:00:00 | 00:00:00 | 00:00:00 | |
| DL1NUX | 2026-09-04 01:34:07 | 50.77798 | 9.46224 | 110° | 93km/h | 4986m | -2.4m/s | -6.4°C | 97.5% | 558.5hPa | 2.6V | 07:29:15 | 03:16:08 | 00:00:00 | |
| NBG1-10 | 2026-09-04 01:34:06 | 50.77760 | 9.46358 | 118° | 97km/h | 4976m | -2.6m/s | -6.3°C | 98.3% | 559.3hPa | 2.7V | 00:00:00 | 03:16:12 | 00:00:00 | |
| DM0DOS-11 | 2026-09-04 01:34:05 | 50.77815 | 9.46151 | 109° | 100km/h | 4991m | -2.4m/s | -6.4°C | 97.9% | 558.2hPa | 2.7V | 07:29:17 | 03:16:06 | 00:00:00 | |
| HSKMA3-T | 2026-09-04 01:34:04 | 50.77781 | 9.46292 | 114° | 91km/h | 4981m | -2.4m/s | -6.3°C | 97.3% | 558.8hPa | 2.7V | 07:29:53 | 03:16:10 | 00:00:00 | |
| BIOWL9-15 | 2026-09-04 01:34:03 | 50.77798 | 9.46225 | 110° | 93km/h | 4986m | -2.4m/s | 0°C | -1.0% | -1.0hPa | 2.7V | 00:00:00 | 00:00:00 | 00:00:00 | |
| DL1NUX | 2026-09-04 01:34:02 | 50.77844 | 9.46035 | 114° | 108km/h | 4998m | -2.4m/s | -6.5°C | 97.5% | 557.6hPa | 2.7V | 07:29:20 | 03:16:03 | 00:00:00 | |
| BIOWL1-15 | 2026-09-04 01:34:00 | 50.77815 | 9.46151 | 109° | 100km/h | 4991m | -2.4m/s | -6.4°C | 97.6% | 558.2hPa | 2.7V | 07:29:53 | 03:16:06 | 00:00:00 | |
| DL1ZP-14 | 2026-09-04 01:33:57 | 50.77844 | 9.46035 | 114° | 106km/h | 4998m | -2.4m/s | -6.5°C | 95.3% | 557.6hPa | 2.7V | 00:00:00 | 00:00:00 | 00:00:00 | |
| DB0DAN | 2026-09-04 01:33:55 | 50.77868 | 9.45960 | 118° | 97km/h | 5003m | -2.4m/s | -6.5°C | 95.2% | 557.34hPa | 2.6V | 00:00:00 | 00:00:00 | 00:00:00 | |
| HSKMA3-T | 2026-09-04 01:33:54 | 50.77880 | 9.45925 | 119° | 99km/h | 5005m | -2.4m/s | -6.5°C | 96.9% | 557.2hPa | 2.7V | 07:29:53 | 03:16:00 | 00:00:00 | |
| DL1NUX | 2026-09-04 01:33:52 | 50.77922 | 9.45793 | 112° | 89km/h | 5015m | -2.4m/s | -6.6°C | 96.9% | 556.5hPa | 2.7V | 07:29:27 | 03:15:56 | 00:00:00 | |
| BIOWL1-15 | 2026-09-04 01:33:52 | 50.77922 | 9.45793 | 113° | 89km/h | 5015m | -2.4m/s | -6.6°C | 96.5% | 556.5hPa | 2.7V | 07:29:53 | 03:15:56 | 00:00:00 | |
| SO1NDE-10 | 2026-09-04 01:33:52 | 50.77903 | 9.45858 | 118° | 97km/h | 5010m | -2.4m/s | -6.5°C | 97.4% | 556.8hPa | 2.7V | 00:00:00 | 03:15:58 | 00:00:00 | |
| DB0NH | 2026-09-04 01:33:51 | 50.77913 | 9.45825 | 115° | 97km/h | 5012m | -2.5m/s | -6.5°C | 97.1% | 556.6hPa | 2.7V | 07:29:00 | 03:15:57 | 00:00:00 | |
| DM0DOS-11 | 2026-09-04 01:33:45 | 50.77963 | 9.45614 | 110° | 102km/h | 5027m | -2.4m/s | -6.6°C | 95.2% | 555.6hPa | 2.7V | 07:29:32 | 03:15:51 | 00:00:00 | |
| HSKMA3-T | 2026-09-04 01:33:43 | 50.77983 | 9.45537 | 115° | 106km/h | 5032m | -2.2m/s | -6.7°C | 94.3% | 555.4hPa | 2.6V | 07:29:53 | 03:15:49 | 00:00:00 | |
| DD1CC8 | 2026-09-04 01:33:42 | 50.78007 | 9.45463 | 118° | 100km/h | 5036m | -2.5m/s | -6.7°C | 92.0% | 555.0hPa | 2.6V | 00:00:00 | 00:00:00 | 00:00:00 | |
| DM0DOS-11 | 2026-09-04 01:33:40 | 50.78071 | 9.45263 | 111° | 91km/h | 5051m | -2.3m/s | -6.8°C | 93% | 554hPa | 2.6V | 07:29:42 | 03:15:41 | 00:00:00 | |
| BIOWL1-15 | 2026-09-04 01:33:40 | 50.78019 | 9.45428 | 120° | 99km/h | 5039m | -2.4m/s | -6.7°C | 93.8% | 554.8hPa | 2.7V | 07:29:53 | 03:15:46 | 00:00:00 | |
| DB0DAN | 2026-09-04 01:33:40 | 50.78019 | 9.45428 | 120° | 93km/h | 5039m | -2.4m/s | -6.7°C | 92.2% | 554.82hPa | 2.7V | 00:00:00 | 00:00:00 | 00:00:00 | |
| HSKMA3-T | 2026-09-04 01:33:32 | 50.78097 | 9.45154 | 111° | 102km/h | 5058m | -2.2m/s | -6.8°C | 91.8% | 553.5hPa | 2.7V | 07:29:53 | 03:15:38 | 00:00:00 | |
| BIOWL1-15 | 2026-09-04 01:33:29 | 50.78174 | 9.44902 | 116° | 89km/h | 5074m | -2.4m/s | -6.8°C | 84.7% | 552.3hPa | 2.7V | 07:29:53 | 03:15:31 | 00:00:00 | |
| WPPR-10 | 2026-09-04 01:33:28 | 50.78140 | 9.45003 | 117° | 100km/h | 5067m | -2.3m/s | -6.8°C | 86.2% | 552.7hPa | 2.7V | 00:00:00 | 00:00:00 | 00:00:00 | |
| DM0DOS-11 | 2026-09-04 01:33:26 | 50.78174 | 9.44902 | 116° | 89km/h | 5074m | -2.4m/s | -6.8°C | 85.7% | 552.3hPa | 2.7V | 07:29:52 | 03:15:31 | 00:00:00 | |
| DB0DAN | 2026-09-04 01:33:25 | 50.78174 | 9.44902 | 116° | 86km/h | 5074m | -2.4m/s | -6.8°C | 83.8% | 552.31hPa | 2.7V | 00:00:00 | 00:00:00 | 00:00:00 | |
| DD1CC3-15 | 2026-09-04 01:33:23 | 50.78184 | 9.44869 | 115° | 89km/h | 5076m | -2.3m/s | -6.8°C | 82.1% | 552.1hPa | 2.7V | 07:29:00 | 00:00:00 | 00:00:00 | |
| DL1NUX | 2026-09-04 01:33:22 | 50.78217 | 9.44730 | 109° | 100km/h | 5086m | -2.5m/s | -6.7°C | 78.6% | 551.4hPa | 2.7V | 07:29:57 | 03:15:26 | 00:00:00 | |
| HSKMA3-T | 2026-09-04 01:33:22 | 50.78200 | 9.44802 | 110° | 93km/h | 5081m | -2.3m/s | -6.7°C | 80.9% | 551.8hPa | 2.6V | 07:30:44 | 03:15:28 | 00:00:00 | |
| BIOWL1-15 | 2026-09-04 01:33:15 | 50.78268 | 9.44543 | 117° | 97km/h | 5098m | -2.4m/s | -6.6°C | 73.1% | 550.6hPa | 2.7V | 07:30:44 | 03:15:21 | 00:00:00 | |
| DL1NUX | 2026-09-04 01:33:12 | 50.78315 | 9.44379 | 109° | 89km/h | 5110m | -2.7m/s | -6.6°C | 66.5% | 549.7hPa | 2.6V | 07:30:07 | 03:15:16 | 00:00:00 | |
| HSKMA3-T | 2026-09-04 01:33:11 | 50.78307 | 9.44412 | 112° | 88km/h | 5108m | -2.7m/s | -6.6°C | 71.2% | 550hPa | 2.7V | 07:30:44 | 03:15:17 | 00:00:00 | |
| DB0DAN | 2026-09-04 01:33:10 | 50.78315 | 9.44379 | 110° | 86km/h | 5110m | -2.7m/s | -6.6°C | 64.9% | 549.7hPa | 2.6V | 00:00:00 | 00:00:00 | 00:00:00 | |
| BIOWL1-15 | 2026-09-04 01:33:06 | 50.78365 | 9.44158 | 114° | 102km/h | 5126m | -2.2m/s | -6.7°C | 64.6% | 548.7hPa | 2.6V | 07:30:44 | 03:15:10 | 00:00:00 | |
| DF7PN | 2026-09-04 01:33:06 | 50.78355 | 9.44196 | 111° | 102km/h | 5123m | -2.4m/s | -6.7°C | 60.9% | 548.9hPa | 2.7V | 00:00:00 | 00:00:00 | 00:00:00 | |
| DB0ND-19 | 2026-09-04 01:33:04 | 50.78376 | 9.44121 | 116° | 100km/h | 5128m | -2.3m/s | -6.7°C | 59.8% | 548.5hPa | 2.7V | 00:00:00 | 00:00:00 | 00:00:00 | |
| DL1NUX | 2026-09-04 01:33:02 | 50.78410 | 9.44020 | 117° | 89km/h | 5135m | -2.7m/s | -6.6°C | 58.6% | 547.9hPa | 2.7V | 07:30:17 | 03:15:06 | 00:00:00 | |
| HSKMA3-T | 2026-09-04 01:33:00 | 50.78410 | 9.44020 | 118° | 89km/h | 5135m | -2.7m/s | -6.6°C | 60.8% | 547.9hPa | 2.7V | 07:30:44 | 03:15:06 | 00:00:00 | |
| WPPR-10 | 2026-09-04 01:32:57 | 50.78437 | 9.43925 | 111° | 86km/h | 5143m | -2.6m/s | -6.6°C | 52.9% | 547.4hPa | 2.7V | 00:00:00 | 00:00:00 | 00:00:00 | |
| DM0DOS-11 | 2026-09-04 01:32:56 | 50.78452 | 9.43858 | 107° | 91km/h | 5148m | -2.5m/s | -6.6°C | 51.8% | 547hPa | 2.7V | 07:30:22 | 03:15:01 | 00:00:00 | |
| DB0DAN | 2026-09-04 01:32:55 | 50.78452 | 9.43858 | 107° | 88km/h | 5148m | -2.5m/s | -6.6°C | 50.5% | 547.04hPa | 2.7V | 00:00:00 | 00:00:00 | 00:00:00 | |
| BIOWL1-15 | 2026-09-04 01:32:54 | 50.78459 | 9.43822 | 107° | 97km/h | 5151m | -2.5m/s | -6.6°C | 52.7% | 546.8hPa | 2.7V | 07:30:44 | 03:15:00 | 00:00:00 | |
| DL1NUX | 2026-09-04 01:32:52 | 50.78495 | 9.43671 | 114° | 102km/h | 5161m | -2.5m/s | -6.6°C | 50.1% | 546.2hPa | 2.6V | 07:30:27 | 03:14:56 | 00:00:00 | |
| HSKMA3-T | 2026-09-04 01:32:50 | 50.78495 | 9.43671 | 115° | 102km/h | 5161m | -2.5m/s | -6.7°C | 53.8% | 546.2hPa | 2.6V | 07:30:44 | 03:14:56 | 00:00:00 | |
| DM0DOS-11 | 2026-09-04 01:32:50 | 50.78549 | 9.43500 | 114° | 89km/h | 5174m | -2.5m/s | -6.6°C | 45% | 545.2hPa | 2.6V | 07:30:32 | 03:14:51 | 00:00:00 | |
| SONCRA | 2026-09-04 01:32:49 | 50.78506 | 9.43635 | 116° | 99km/h | 5164m | -2.6m/s | -6.7°C | 48.1% | 546.0hPa | 2.7V | 00:00:00 | 00:00:00 | 00:00:00 | |
| BIOWL1-15 | 2026-09-04 01:32:43 | 50.78566 | 9.43434 | 110° | 91km/h | 5179m | -2.4m/s | -6.5°C | 48.5% | 545hPa | 2.7V | 07:30:44 | 03:14:49 | 00:00:00 | |
| DL1NUX | 2026-09-04 01:32:42 | 50.78591 | 9.43324 | 110° | 102km/h | 5186m | -2.6m/s | -6.5°C | 46.2% | 544.4hPa | 2.7V | 07:30:37 | 03:14:46 | 00:00:00 | |
| DB0DAN | 2026-09-04 01:32:40 | 50.78591 | 9.43324 | 111° | 97km/h | 5186m | -2.6m/s | -6.5°C | 45.1% | 544.43hPa | 2.7V | 00:00:00 | 00:00:00 | 00:00:00 | |
| HSKMA3-T | 2026-09-04 01:32:39 | 50.78601 | 9.43286 | 113° | 102km/h | 5189m | -2.7m/s | -6.5°C | 50% | 544.2hPa | 2.6V | 07:30:44 | 03:14:45 | 00:00:00 | |
| BIOWL1-15 | 2026-09-04 01:32:33 | 50.78679 | 9.43014 | 108° | 91km/h | 5209m | -2.6m/s | -6.7°C | 52.1% | 542.8hPa | 2.6V | 07:31:35 | 03:14:37 | 00:00:00 | |
| DL1NUX | 2026-09-04 01:32:32 | 50.78686 | 9.42979 | 107° | 95km/h | 5212m | -2.5m/s | -6.7°C | 49.5% | 542.6hPa | 2.7V | 07:30:47 | 03:14:36 | 00:00:00 | |
| HSKMA3-T | 2026-09-04 01:32:29 | 50.78694 | 9.42942 | 108° | 99km/h | 5215m | -2.8m/s | -6.7°C | 53.2% | 542.4hPa | 2.7V | 07:31:35 | 03:14:35 | 00:00:00 | |
| DB0DAN | 2026-09-04 01:32:25 | 50.78732 | 9.42790 | 116° | 97km/h | 5225m | -3m/s | -6.8°C | 54.7% | 541.73hPa | 2.6V | 00:00:00 | 00:00:00 | 00:00:00 | |
| DL1ZP-14 | 2026-09-04 01:32:24 | 50.78755 | 9.42720 | 116° | 93km/h | 5231m | -2.7m/s | -6.8°C | 54.6% | 541.3hPa | 2.7V | 00:00:00 | 00:00:00 | 00:00:00 | |
| DJ8HS-15 | 2026-09-04 01:32:23 | 50.78755 | 9.42720 | 117° | 95km/h | 5231m | -2.6m/s | -6.7°C | 56.0% | 541.2hPa | 2.6V | 00:00:00 | 03:14:29 | 00:00:00 | |
| DL1NUX | 2026-09-04 01:32:22 | 50.78782 | 9.42622 | 110° | 88km/h | 5239m | -2.7m/s | -6.8°C | 53.7% | 540.8hPa | 2.6V | 07:30:57 | 03:14:26 | 00:00:00 | |
| BIOWL1-15 | 2026-09-04 01:32:20 | 50.78782 | 9.42622 | 111° | 88km/h | 5239m | -2.7m/s | -6.8°C | 57.2% | 540.8hPa | 2.6V | 07:31:35 | 03:14:26 | 00:00:00 | |
| HSKMA3-T | 2026-09-04 01:32:18 | 50.78797 | 9.42553 | 107° | 93km/h | 5244m | -3m/s | -6.9°C | 57.2% | 540.4hPa | 2.7V | 07:31:35 | 03:14:24 | 00:00:00 | |
| DM0DOS-11 | 2026-09-04 01:32:16 | 50.78821 | 9.42441 | 110° | 102km/h | 5253m | -2.6m/s | -7°C | 54.4% | 539.8hPa | 2.7V | 07:31:02 | 03:14:21 | 00:00:00 | |
| DL1NUX | 2026-09-04 01:32:12 | 50.78872 | 9.42263 | 114° | 89km/h | 5267m | -2.9m/s | -7.1°C | 59.4% | 538.9hPa | 2.7V | 07:31:07 | 03:14:16 | 00:00:00 | |
| BIOWL1-15 | 2026-09-04 01:32:10 | 50.78872 | 9.42263 | 115° | 89km/h | 5267m | -2.9m/s | -7.1°C | 63.3% | 538.9hPa | 2.7V | 07:31:35 | 03:14:16 | 00:00:00 | |
| DB0DAN | 2026-09-04 01:32:10 | 50.78872 | 9.42263 | 115° | 86km/h | 5267m | -2.9m/s | -7.1°C | 57.9% | 538.89hPa | 2.7V | 00:00:00 | 00:00:00 | 00:00:00 | |
| HSKMA3-T | 2026-09-04 01:32:07 | 50.78897 | 9.42164 | 108° | 89km/h | 5275m | -2.8m/s | -7.1°C | 62% | 538.3hPa | 2.6V | 07:31:35 | 03:14:13 | 00:00:00 | |
| DM0DOS-11 | 2026-09-04 01:32:06 | 50.78911 | 9.42094 | 106° | 97km/h | 5281m | -2.9m/s | -7.2°C | 57.9% | 538hPa | 2.7V | 07:31:12 | 03:14:11 | 00:00:00 | |
| DF7PN | 2026-09-04 01:32:03 | 50.78927 | 9.42018 | 109° | 102km/h | 5287m | -3.0m/s | -7.2°C | 55.7% | 537.4hPa | 2.6V | 00:00:00 | 00:00:00 | 00:00:00 | |
| DL1NUX | 2026-09-04 01:32:02 | 50.78957 | 9.41905 | 115° | 99km/h | 5296m | -2.8m/s | -7.3°C | 55.9% | 536.9hPa | 2.6V | 07:31:17 | 03:14:06 | 00:00:00 | |
| BIOWL1-15 | 2026-09-04 01:31:59 | 50.78967 | 9.41870 | 116° | 95km/h | 5298m | -3m/s | -7.3°C | 59.9% | 536.7hPa | 2.7V | 07:31:35 | 03:14:05 | 00:00:00 | |
| HSKMA3-T | 2026-09-04 01:31:57 | 50.78986 | 9.41805 | 114° | 88km/h | 5304m | -2.8m/s | -7.4°C | 59.2% | 536.3hPa | 2.7V | 07:31:35 | 03:14:03 | 00:00:00 | |
| DM0DOS-11 | 2026-09-04 01:31:56 | 50.79002 | 9.41740 | 108° | 88km/h | 5310m | -3.1m/s | -7.4°C | 55.6% | 535.9hPa | 2.6V | 07:31:22 | 03:14:01 | 00:00:00 | |
| DB0DAN | 2026-09-04 01:31:55 | 50.79002 | 9.41740 | 108° | 84km/h | 5310m | -3.1m/s | -7.4°C | 54.1% | 535.89hPa | 2.6V | 00:00:00 | 00:00:00 | 00:00:00 | |
| DL1ZP-14 | 2026-09-04 01:31:53 | 50.79023 | 9.41632 | 107° | 99km/h | 5319m | -3.0m/s | -7.5°C | 53.6% | 535.2hPa | 2.7V | 00:00:00 | 00:00:00 | 00:00:00 | |
| SO1NDE-10 | 2026-09-04 01:31:52 | 50.79023 | 9.41632 | 108° | 97km/h | 5319m | -3.0m/s | -7.5°C | 55.0% | 535.2hPa | 2.7V | 00:00:00 | 03:13:58 | 00:00:00 | |
| DB0NH | 2026-09-04 01:31:51 | 50.79031 | 9.41594 | 109° | 97km/h | 5322m | -3.0m/s | -7.5°C | 55.0% | 535.1hPa | 2.7V | 00:00:00 | 03:13:57 | 00:00:00 | |
| DM0DOS-11 | 2026-09-04 01:31:50 | 50.79091 | 9.41376 | 114° | 89km/h | 5340m | -3.1m/s | -7.7°C | 54.8% | 533.8hPa | 2.7V | 07:31:32 | 03:13:51 | 00:00:00 | |
| BIOWL1-15 | 2026-09-04 01:31:49 | 50.79050 | 9.41517 | 113° | 104km/h | 5328m | -3m/s | -7.6°C | 58.3% | 534.6hPa | 2.6V | 07:31:35 | 03:13:55 | 00:00:00 | |
| HSKMA3-T | 2026-09-04 01:31:46 | 50.79081 | 9.41409 | 116° | 93km/h | 5337m | -3m/s | -7.7°C | 58.5% | 534hPa | 2.7V | 07:31:35 | 03:13:52 | 00:00:00 | |
| DL1NUX | 2026-09-04 01:31:42 | 50.79129 | 9.41206 | 106° | 99km/h | 5355m | -3m/s | -7.8°C | 54.8% | 532.8hPa | 2.7V | 07:31:37 | 03:13:46 | 00:00:00 | |
| BIOWL1-15 | 2026-09-04 01:31:40 | 50.79144 | 9.41129 | 110° | 104km/h | 5361m | -3.1m/s | -7.9°C | 58.6% | 532.3hPa | 2.7V | 07:32:26 | 03:13:44 | 00:00:00 | |
| DD1CC3-15 | 2026-09-04 01:31:38 | 50.79136 | 9.41168 | 109° | 102km/h | 5359m | -3.0m/s | -7.9°C | 53.6% | 532.5hPa | 2.7V | 07:32:00 | 00:00:00 | 00:00:00 | |
| DM0DOS-11 | 2026-09-04 01:31:36 | 50.79174 | 9.41016 | 115° | 99km/h | 5371m | -2.9m/s | -8°C | 55% | 531.6hPa | 2.7V | 07:31:42 | 03:13:41 | 00:00:00 | |
| HSKMA3-T | 2026-09-04 01:31:35 | 50.79175 | 9.41016 | 115° | 100km/h | 5371m | -2.9m/s | -8°C | 58.5% | 531.6hPa | 2.7V | 07:32:26 | 03:13:41 | 00:00:00 | |
| DL8OAI-8 | 2026-09-04 01:31:33 | 50.79185 | 9.40981 | 117° | 95km/h | 5374m | -2.9m/s | -8.0°C | 53.7% | 531.5hPa | 2.6V | 07:32:00 | 00:00:00 | 00:00:00 | |
| DL1NUX | 2026-09-04 01:31:32 | 50.79222 | 9.40850 | 109° | 88km/h | 5386m | -3m/s | -8.1°C | 56.1% | 530.7hPa | 2.6V | 07:31:47 | 03:13:36 | 00:00:00 | |
| DF2AP-13 | 2026-09-04 01:31:32 | 50.79206 | 9.40914 | 115° | 95km/h | 5380m | -3.3m/s | -8.0°C | 55.5% | 531.1hPa | 2.6V | 00:00:00 | 03:13:38 | 00:00:00 | |
| DB0UT-7 | 2026-09-04 01:31:31 | 50.79214 | 9.40882 | 112° | 95km/h | 5383m | -3.2m/s | -8.0°C | 55.6% | 530.8hPa | 2.6V | 00:00:00 | 03:13:37 | 00:00:00 | |
| DM0DOS-11 | 2026-09-04 01:31:30 | 50.79259 | 9.40666 | 110° | 104km/h | 5402m | -3.3m/s | -8.2°C | 57% | 529.6hPa | 2.6V | 07:31:52 | 03:13:31 | 00:00:00 | |
| HSKMA3-T | 2026-09-04 01:31:24 | 50.79269 | 9.40627 | 113° | 102km/h | 5405m | -3.1m/s | -8.3°C | 60.5% | 529.4hPa | 2.6V | 07:32:26 | 03:13:30 | 00:00:00 | |
| BIOWL1-15 | 2026-09-04 01:31:16 | 50.79382 | 9.40204 | 115° | 102km/h | 5443m | -3.4m/s | -8.6°C | 61.3% | 526.8hPa | 2.6V | 07:32:26 | 03:13:18 | 00:00:00 | |
| DM0DOS-11 | 2026-09-04 01:31:16 | 50.79354 | 9.40317 | 109° | 99km/h | 5434m | -3.2m/s | -8.5°C | 57.4% | 527.4hPa | 2.7V | 07:32:02 | 03:13:21 | 00:00:00 | |
| HSKMA3-T | 2026-09-04 01:31:13 | 50.79372 | 9.40241 | 112° | 102km/h | 5440m | -3.2m/s | -8.6°C | 61.1% | 526.9hPa | 2.6V | 07:32:26 | 03:13:19 | 00:00:00 | |
| DL1NUX | 2026-09-04 01:31:12 | 50.79404 | 9.40132 | 117° | 97km/h | 5450m | -3.4m/s | -8.7°C | 58.4% | 526.3hPa | 2.7V | 07:32:07 | 03:13:16 | 00:00:00 | |
| BIOWL1-15 | 2026-09-04 01:31:05 | 50.79450 | 9.39968 | 108° | 91km/h | 5466m | -3.1m/s | -8.8°C | 62.8% | 525.2hPa | 2.7V | 07:32:26 | 03:13:11 | 00:00:00 | |
| HSKMA3-T | 2026-09-04 01:31:03 | 50.79465 | 9.39896 | 108° | 99km/h | 5472m | -3.3m/s | -8.9°C | 62.8% | 524.8hPa | 2.7V | 07:32:26 | 03:13:09 | 00:00:00 | |
| DL1NUX | 2026-09-04 01:31:02 | 50.79492 | 9.39782 | 113° | 102km/h | 5482m | -3.3m/s | -8.9°C | 59.6% | 524.2hPa | 2.6V | 07:32:17 | 03:13:06 | 00:00:00 | |
| DF2AP-13 | 2026-09-04 01:31:02 | 50.79473 | 9.39858 | 110° | 97km/h | 5475m | -3.2m/s | -8.8°C | 59.1% | 524.6hPa | 2.6V | 00:00:00 | 03:13:08 | 00:00:00 | |
| DB0UT-7 | 2026-09-04 01:31:01 | 50.79482 | 9.39820 | 112° | 97km/h | 5479m | -3.0m/s | -8.9°C | 59.3% | 524.3hPa | 2.6V | 00:00:00 | 00:00:00 | 00:00:00 | |
| DM0DOS-11 | 2026-09-04 01:31:00 | 50.79545 | 9.39612 | 114° | 88km/h | 5498m | -3.1m/s | -9.1°C | 60.9% | 523hPa | 2.6V | 07:32:22 | 03:13:01 | 00:00:00 | |
| BIOWL1-15 | 2026-09-04 01:30:54 | 50.79585 | 9.39439 | 110° | 100km/h | 5515m | -3.2m/s | -9.2°C | 64.5% | 521.9hPa | 2.7V | 07:33:17 | 03:12:56 | 00:00:00 | |
| HSKMA3-T | 2026-09-04 01:30:52 | 50.79569 | 9.39512 | 108° | 93km/h | 5508m | -3.3m/s | -9.2°C | 64.6% | 522.3hPa | 2.7V | 07:32:26 | 03:12:58 | 00:00:00 | |
| DL1NUX | 2026-09-04 01:30:52 | 50.79585 | 9.39439 | 109° | 100km/h | 5515m | -3.2m/s | -9.2°C | 61.5% | 521.9hPa | 2.7V | 07:32:27 | 03:12:56 | 00:00:00 | |
| SO1NDE-10 | 2026-09-04 01:30:52 | 50.79569 | 9.39512 | 109° | 97km/h | 5508m | -3.3m/s | -9.1°C | 61.3% | 522.3hPa | 2.7V | 00:00:00 | 03:12:58 | 00:00:00 | |
| DB0NH | 2026-09-04 01:30:51 | 50.79577 | 9.39476 | 109° | 99km/h | 5512m | -3.4m/s | -9.2°C | 61.5% | 522.0hPa | 2.7V | 00:00:00 | 03:12:57 | 00:00:00 | |
| DO3DL | 2026-09-04 01:30:50 | 50.79577 | 9.39476 | 110° | 97km/h | 5512m | -3.5m/s | -9.2°C | 59.8% | 522.1hPa | 2.7V | 07:32:00 | 00:00:00 | 00:00:00 | |
| NBG1-10 | 2026-09-04 01:30:47 | 50.79615 | 9.39325 | 116° | 95km/h | 5525m | -3.4m/s | -9.3°C | 62.2% | 521.2hPa | 2.7V | 00:00:00 | 03:12:53 | 00:00:00 | |
| SONCRA | 2026-09-04 01:30:45 | 50.79649 | 9.39220 | 117° | 91km/h | 5535m | -3.5m/s | -9.4°C | 60.7% | 520.5hPa | 2.7V | 00:00:00 | 00:00:00 | 00:00:00 | |
| BIOWL7-15 | 2026-09-04 01:30:43 | 50.79649 | 9.39220 | 118° | 93km/h | 5535m | -3.5m/s | -9.4°C | 60.7% | 520.4hPa | 2.7V | 00:00:00 | 00:00:00 | 00:00:00 | |
| DL1NUX | 2026-09-04 01:30:42 | 50.79685 | 9.39086 | 109° | 95km/h | 5548m | -3.2m/s | -9.5°C | 62.8% | 519.6hPa | 2.7V | 07:32:37 | 03:12:46 | 00:00:00 | |
| HSKMA3-T | 2026-09-04 01:30:41 | 50.79677 | 9.39121 | 111° | 91km/h | 5545m | -3.4m/s | -9.5°C | 66.4% | 519.8hPa | 2.7V | 07:33:17 | 03:12:47 | 00:00:00 | |
| BIOWL1-15 | 2026-09-04 01:30:39 | 50.79693 | 9.39050 | 109° | 99km/h | 5552m | -3.4m/s | -9.6°C | 66.6% | 519.4hPa | 2.7V | 07:33:17 | 03:12:45 | 00:00:00 | |
| DJ8HS-15 | 2026-09-04 01:30:38 | 50.79702 | 9.39012 | 111° | 99km/h | 5555m | -3.5m/s | -9.5°C | 63.2% | 519.1hPa | 2.6V | 00:00:00 | 03:12:44 | 00:00:00 | |
| DD1CC3-15 | 2026-09-04 01:30:37 | 50.79701 | 9.39012 | 112° | 102km/h | 5555m | -3.5m/s | -9.6°C | 61.5% | 519.2hPa | 2.6V | 00:00:00 | 00:00:00 | 00:00:00 | |
| DD1CC8 | 2026-09-04 01:30:35 | 50.79734 | 9.38899 | 117° | 100km/h | 5565m | -3.3m/s | -9.7°C | 61.9% | 518.6hPa | 2.6V | 00:00:00 | 00:00:00 | 00:00:00 | |
| DL1NUX | 2026-09-04 01:30:32 | 50.79787 | 9.38734 | 112° | 88km/h | 5582m | -3.5m/s | -9.8°C | 64% | 517.4hPa | 2.6V | 07:32:47 | 03:12:36 | 00:00:00 | |
| HSKMA3-T | 2026-09-04 01:30:30 | 50.79787 | 9.38734 | 113° | 88km/h | 5583m | -3.5m/s | -9.8°C | 67.3% | 517.4hPa | 2.6V | 07:33:17 | 03:12:36 | 00:00:00 | |
| BIOWL1-15 | 2026-09-04 01:30:28 | 50.79897 | 9.38334 | 119° | 93km/h | 5621m | -3.2m/s | -10.2°C | 68.7% | 514.7hPa | 2.6V | 07:33:17 | 03:12:25 | 00:00:00 | |
| DM0DOS-11 | 2026-09-04 01:30:26 | 50.79828 | 9.38554 | 110° | 104km/h | 5600m | -3.4m/s | -10°C | 65% | 516.2hPa | 2.6V | 07:32:52 | 03:12:31 | 00:00:00 | |
| BIOWL9-15 | 2026-09-04 01:30:25 | 50.79828 | 9.38554 | 110° | 104km/h | 5600m | -3.4m/s | -10.0°C | 63.2% | 516.2hPa | 2.7V | 00:00:00 | 00:00:00 | 00:00:00 | |
| DL1NUX | 2026-09-04 01:30:22 | 50.79885 | 9.38368 | 119° | 99km/h | 5618m | -3.3m/s | -10.1°C | 65.6% | 514.9hPa | 2.7V | 07:32:57 | 03:12:26 | 00:00:00 | |
| HSKMA3-T | 2026-09-04 01:30:20 | 50.79885 | 9.38368 | 120° | 99km/h | 5618m | -3.3m/s | -10.1°C | 68.5% | 514.9hPa | 2.7V | 07:33:17 | 03:12:26 | 00:00:00 | |
| DL1ZP-14 | 2026-09-04 01:30:19 | 50.79897 | 9.38334 | 119° | 93km/h | 5621m | -3.2m/s | -10.2°C | 63.9% | 514.7hPa | 2.6V | 00:00:00 | 00:00:00 | 00:00:00 | |
| DJ8HS-15 | 2026-09-04 01:30:18 | 50.79908 | 9.38302 | 118° | 97km/h | 5624m | -3.4m/s | -10.2°C | 66.0% | 514.4hPa | 2.7V | 00:00:00 | 03:12:24 | 00:00:00 | |
| DD1CC3-15 | 2026-09-04 01:30:17 | 50.79908 | 9.38302 | 119° | 89km/h | 5624m | -3.4m/s | -10.2°C | 64.1% | 514.4hPa | 2.7V | 00:00:00 | 00:00:00 | 00:00:00 | |
| DM0DOS-11 | 2026-09-04 01:30:16 | 50.79936 | 9.38204 | 110° | 91km/h | 5635m | -3.5m/s | -10.3°C | 66.5% | 513.9hPa | 2.7V | 07:33:02 | 03:12:21 | 00:00:00 | |
| SONCRA | 2026-09-04 01:30:14 | 50.79953 | 9.38131 | 109° | 99km/h | 5642m | -3.4m/s | -10.3°C | 63.5% | 513.3hPa | 2.7V | 00:00:00 | 00:00:00 | 00:00:00 | |
| DL1NUX | 2026-09-04 01:30:12 | 50.79982 | 9.38015 | 114° | 106km/h | 5652m | -3.7m/s | -10.4°C | 66.6% | 512.6hPa | 2.7V | 07:33:07 | 03:12:16 | 00:00:00 | |
| DL8OAI-8 | 2026-09-04 01:30:11 | 50.79962 | 9.38093 | 112° | 104km/h | 5645m | -3.4m/s | -10.4°C | 63.8% | 513.1hPa | 2.7V | 07:33:00 | 00:00:00 | 00:00:00 | |
| DM0DOS-11 | 2026-09-04 01:30:10 | 50.80042 | 9.37838 | 118° | 91km/h | 5669m | -3.7m/s | -10.6°C | 67.8% | 511.4hPa | 2.7V | 07:33:12 | 03:12:11 | 00:00:00 | |
| HSKMA3-T | 2026-09-04 01:30:09 | 50.79994 | 9.37977 | 117° | 106km/h | 5656m | -3.8m/s | -10.5°C | 68.9% | 512.4hPa | 2.6V | 07:33:17 | 03:12:15 | 00:00:00 | |
| BIOWL1-15 | 2026-09-04 01:30:09 | 50.80019 | 9.37905 | 119° | 99km/h | 5663m | -3.3m/s | -10.5°C | 69.1% | 511.9hPa | 2.6V | 07:33:17 | 03:12:13 | 00:00:00 | |
| HSKMA3-T | 2026-09-04 01:29:59 | 50.80097 | 9.37628 | 112° | 104km/h | 5691m | -3.5m/s | -10.8°C | 74.1% | 509.9hPa | 2.7V | 07:34:08 | 03:12:05 | 00:00:00 | |
| BIOWL1-15 | 2026-09-04 01:29:56 | 50.80169 | 9.37408 | 120° | 95km/h | 5712m | -3.5m/s | -11°C | 75.2% | 508.6hPa | 2.7V | 07:34:08 | 03:11:59 | 00:00:00 | |
| DM0DOS-11 | 2026-09-04 01:29:56 | 50.80144 | 9.37476 | 119° | 102km/h | 5705m | -3.6m/s | -10.9°C | 73.1% | 509hPa | 2.6V | 07:33:22 | 03:12:01 | 00:00:00 | |
| BIOWL9-15 | 2026-09-04 01:29:54 | 50.80157 | 9.37441 | 120° | 99km/h | 5709m | -3.6m/s | -10.9°C | 71.1% | 508.9hPa | 2.7V | 00:00:00 | 00:00:00 | 00:00:00 | |
| SO1NDE-10 | 2026-09-04 01:29:52 | 50.80181 | 9.37375 | 119° | 99km/h | 5716m | -3.6m/s | -10.9°C | 73.7% | 508.3hPa | 2.7V | 00:00:00 | 03:11:58 | 00:00:00 | |
| DB0NH | 2026-09-04 01:29:51 | 50.80192 | 9.37342 | 117° | 100km/h | 5720m | -3.5m/s | -11.0°C | 74.3% | 508.1hPa | 2.6V | 07:33:00 | 03:11:57 | 00:00:00 | |
| DM0DOS-11 | 2026-09-04 01:29:50 | 50.80251 | 9.37126 | 116° | 104km/h | 5740m | -3.2m/s | -11.2°C | 80.4% | 506.7hPa | 2.6V | 07:33:32 | 03:11:51 | 00:00:00 | |
| HSKMA3-T | 2026-09-04 01:29:48 | 50.80220 | 9.37238 | 112° | 99km/h | 5730m | -3.5m/s | -11.1°C | 79.8% | 507.4hPa | 2.7V | 07:34:08 | 03:11:54 | 00:00:00 | |
| BIOWL1-15 | 2026-09-04 01:29:47 | 50.80251 | 9.37126 | 116° | 104km/h | 5740m | -3.2m/s | -11.2°C | 81.3% | 506.7hPa | 2.6V | 07:34:08 | 03:11:51 | 00:00:00 | |
| DO3DL | 2026-09-04 01:29:43 | 50.80264 | 9.37089 | 119° | 102km/h | 5744m | -3.3m/s | -11.3°C | 78.0% | 506.4hPa | 2.6V | 07:34:00 | 00:00:00 | 00:00:00 | |
| DL1NUX | 2026-09-04 01:29:42 | 50.80310 | 9.36953 | 115° | 95km/h | 5757m | -4m/s | -11.4°C | 79.5% | 505.5hPa | 2.6V | 07:33:37 | 03:11:46 | 00:00:00 | |
| BIOWL1-15 | 2026-09-04 01:29:39 | 50.80362 | 9.36768 | 117° | 108km/h | 5775m | -3.7m/s | -11.5°C | 78.5% | 504.3hPa | 2.6V | 07:34:08 | 03:11:41 | 00:00:00 | |
| HSKMA3-T | 2026-09-04 01:29:37 | 50.80339 | 9.36845 | 113° | 104km/h | 5768m | -3.7m/s | -11.4°C | 79.8% | 504.8hPa | 2.7V | 07:34:08 | 03:11:43 | 00:00:00 | |
| DM0DOS-11 | 2026-09-04 01:29:36 | 50.80362 | 9.36768 | 116° | 108km/h | 5775m | -3.6m/s | -11.5°C | 76.8% | 504.3hPa | 2.6V | 07:33:42 | 03:11:41 | 00:00:00 | |
| DD1CC3-15 | 2026-09-04 01:29:35 | 50.80350 | 9.36807 | 115° | 108km/h | 5772m | -3.7m/s | -11.5°C | 75.6% | 504.5hPa | 2.6V | 07:34:00 | 00:00:00 | 00:00:00 | |
| DD1CC8 | 2026-09-04 01:29:33 | 50.80387 | 9.36694 | 120° | 102km/h | 5782m | -3.7m/s | -11.5°C | 75.0% | 503.8hPa | 2.6V | 00:00:00 | 00:00:00 | 00:00:00 | |
| DL1NUX | 2026-09-04 01:29:32 | 50.80425 | 9.36593 | 118° | 93km/h | 5792m | -3.5m/s | -11.6°C | 77.5% | 503.1hPa | 2.6V | 07:33:47 | 03:11:36 | 00:00:00 | |
| DF2AP-13 | 2026-09-04 01:29:32 | 50.80400 | 9.36659 | 121° | 99km/h | 5786m | -3.6m/s | -11.5°C | 76.8% | 503.5hPa | 2.7V | 00:00:00 | 03:11:38 | 00:00:00 | |
| DB0UT-7 | 2026-09-04 01:29:31 | 50.80413 | 9.36626 | 121° | 99km/h | 5789m | -3.5m/s | -11.5°C | 77.2% | 503.2hPa | 2.7V | 00:00:00 | 03:11:37 | 00:00:00 | |
| DM0DOS-11 | 2026-09-04 01:29:30 | 50.80475 | 9.36420 | 113° | 102km/h | 5810m | -4m/s | -11.8°C | 77.6% | 501.9hPa | 2.7V | 07:33:52 | 03:11:31 | 00:00:00 | |
| HSKMA3-T | 2026-09-04 01:29:26 | 50.80465 | 9.36457 | 113° | 100km/h | 5806m | -3.9m/s | -11.8°C | 79% | 502.1hPa | 2.7V | 07:34:08 | 03:11:32 | 00:00:00 | |
| BIOWL1-15 | 2026-09-04 01:29:24 | 50.80486 | 9.36381 | 115° | 106km/h | 5814m | -4.1m/s | -11.8°C | 79.4% | 501.6hPa | 2.6V | 07:34:08 | 03:11:30 | 00:00:00 | |
| BIOWL9-15 | 2026-09-04 01:29:24 | 50.80497 | 9.36343 | 116° | 106km/h | 5818m | -3.5m/s | -11.9°C | 76.1% | 501.5hPa | 2.7V | 00:00:00 | 00:00:00 | 00:00:00 | |
| SO1NDE-10 | 2026-09-04 01:29:22 | 50.80510 | 9.36305 | 119° | 100km/h | 5821m | -3.3m/s | -11.9°C | 78.5% | 501.1hPa | 2.7V | 00:00:00 | 03:11:28 | 00:00:00 | |
| DB0NH | 2026-09-04 01:29:21 | 50.80523 | 9.36268 | 122° | 100km/h | 5824m | -3.5m/s | -11.9°C | 78.5% | 500.9hPa | 2.7V | 00:00:00 | 03:11:27 | 00:00:00 | |
| DJ8HS-15 | 2026-09-04 01:29:18 | 50.80562 | 9.36167 | 120° | 99km/h | 5835m | -3.8m/s | -12.0°C | 79.0% | 500.2hPa | 2.7V | 00:00:00 | 03:11:24 | 00:00:00 | |
| DM0DOS-11 | 2026-09-04 01:29:16 | 50.80593 | 9.36067 | 114° | 95km/h | 5846m | -3.8m/s | -12.1°C | 79.3% | 499.6hPa | 2.7V | 07:34:02 | 03:11:21 | 00:00:00 | |
| HSKMA3-T | 2026-09-04 01:29:16 | 50.80583 | 9.36101 | 116° | 93km/h | 5843m | -3.9m/s | -12.1°C | 79.4% | 499.7hPa | 2.6V | 07:34:08 | 03:11:22 | 00:00:00 | |
| BIOWL1-15 | 2026-09-04 01:29:14 | 50.80604 | 9.36031 | 114° | 100km/h | 5850m | -3.8m/s | -12.2°C | 79% | 499.3hPa | 2.7V | 07:34:08 | 03:11:20 | 00:00:00 | |
| SONCRA | 2026-09-04 01:29:11 | 50.80639 | 9.35919 | 118° | 108km/h | 5862m | -3.6m/s | -12.2°C | 77.2% | 498.6hPa | 2.6V | 00:00:00 | 00:00:00 | 00:00:00 | |
| DM0DOS-11 | 2026-09-04 01:29:10 | 50.80716 | 9.35714 | 117° | 89km/h | 5885m | -3.8m/s | -12.4°C | 80.3% | 497.1hPa | 2.6V | 07:34:12 | 03:11:11 | 00:00:00 | |
| DB0DAN | 2026-09-04 01:29:10 | 50.80652 | 9.35882 | 120° | 99km/h | 5866m | -3.7m/s | -12.3°C | 77.4% | 498.29hPa | 2.6V | 00:00:00 | 00:00:00 | 00:00:00 | |
| BIOWL1-15 | 2026-09-04 01:29:05 | 50.80726 | 9.35682 | 115° | 91km/h | 5888m | -3.8m/s | -12.4°C | 78.9% | 496.9hPa | 2.6V | 07:34:59 | 03:11:10 | 00:00:00 | |
| HSKMA3-T | 2026-09-04 01:29:05 | 50.80716 | 9.35714 | 117° | 89km/h | 5885m | -3.8m/s | -12.4°C | 80.1% | 497.1hPa | 2.6V | 07:34:59 | 03:11:11 | 00:00:00 | |
| DL1NUX | 2026-09-04 01:29:02 | 50.80767 | 9.35538 | 115° | 108km/h | 5904m | -3.6m/s | -12.5°C | 80.6% | 495.9hPa | 2.6V | 07:34:17 | 03:11:06 | 00:00:00 | |
| DF7PN | 2026-09-04 01:28:57 | 50.80806 | 9.35424 | 121° | 108km/h | 5916m | -4.3m/s | -12.6°C | 79.6% | 495.2hPa | 2.6V | 00:00:00 | 00:00:00 | 00:00:00 | |
| DM0DOS-11 | 2026-09-04 01:28:56 | 50.80835 | 9.35354 | 123° | 102km/h | 5924m | -3.8m/s | -12.7°C | 82.7% | 494.7hPa | 2.6V | 07:34:22 | 03:11:01 | 00:00:00 | |
| HSKMA3-T | 2026-09-04 01:28:55 | 50.80835 | 9.35354 | 124° | 102km/h | 5924m | -3.8m/s | -12.7°C | 81.6% | 494.7hPa | 2.6V | 07:34:59 | 03:11:01 | 00:00:00 | |
| DB0DAN | 2026-09-04 01:28:55 | 50.80835 | 9.35354 | 124° | 97km/h | 5924m | -3.8m/s | -12.7°C | 80.3% | 494.69hPa | 2.6V | 00:00:00 | 00:00:00 | 00:00:00 | |
| BIOWL1-15 | 2026-09-04 01:28:54 | 50.80849 | 9.35321 | 124° | 97km/h | 5927m | -3.8m/s | -12.7°C | 81.6% | 494.4hPa | 2.6V | 07:34:59 | 03:11:00 | 00:00:00 | |
| BIOWL9-15 | 2026-09-04 01:28:53 | 50.80874 | 9.35256 | 119° | 91km/h | 5935m | -3.8m/s | -12.7°C | 80.5% | 493.9hPa | 2.6V | 00:00:00 | 00:00:00 | 00:00:00 | |
| DL1NUX | 2026-09-04 01:28:52 | 50.80895 | 9.35190 | 114° | 95km/h | 5942m | -3.7m/s | -12.8°C | 82.7% | 493.4hPa | 2.6V | 07:34:27 | 03:10:56 | 00:00:00 | |
| BIOWL7-15 | 2026-09-04 01:28:52 | 50.80874 | 9.35256 | 120° | 91km/h | 5935m | -3.8m/s | -12.7°C | 80.5% | 493.9hPa | 2.6V | 00:00:00 | 00:00:00 | 00:00:00 | |
| DB0NH | 2026-09-04 01:28:51 | 50.80885 | 9.35224 | 117° | 102km/h | 5939m | -3.6m/s | -12.7°C | 83.0% | 493.6hPa | 2.6V | 00:00:00 | 03:10:57 | 00:00:00 | |
| DM0DOS-11 | 2026-09-04 01:28:49 | 50.80951 | 9.35000 | 117° | 111km/h | 5962m | -3.5m/s | -12.9°C | 83% | 492.3hPa | 2.6V | 07:34:32 | 03:10:51 | 00:00:00 | |
| DL1ZP-14 | 2026-09-04 01:28:46 | 50.80938 | 9.35039 | 116° | 110km/h | 5958m | -4.0m/s | -12.9°C | 80.5% | 492.5hPa | 2.6V | 00:00:00 | 00:00:00 | 00:00:00 | |
| HSKMA3-T | 2026-09-04 01:28:44 | 50.80964 | 9.34961 | 120° | 110km/h | 5966m | -4m/s | -12.9°C | 80.8% | 491.9hPa | 2.6V | 07:34:59 | 03:10:50 | 00:00:00 | |
| BIOWL1-15 | 2026-09-04 01:28:43 | 50.80979 | 9.34924 | 122° | 108km/h | 5969m | -4.2m/s | -12.9°C | 80.5% | 491.7hPa | 2.6V | 07:34:59 | 03:10:49 | 00:00:00 | |
| DL1NUX | 2026-09-04 01:28:42 | 50.81020 | 9.34820 | 120° | 97km/h | 5980m | -3.3m/s | -12.9°C | 69.8% | 490.9hPa | 2.6V | 07:34:37 | 03:10:46 | 00:00:00 | |
| DB0DAN | 2026-09-04 01:28:40 | 50.81020 | 9.34820 | 121° | 91km/h | 5980m | -3.3m/s | -12.9°C | 67.7% | 490.96hPa | 2.6V | 00:00:00 | 00:00:00 | 00:00:00 | |
| DJ8HS-15 | 2026-09-04 01:28:38 | 50.81042 | 9.34752 | 116° | 102km/h | 5987m | -3.7m/s | -12.7°C | 61.8% | 490.5hPa | 2.6V | 00:00:00 | 03:10:44 | 00:00:00 | |
| DM0DOS-11 | 2026-09-04 01:28:36 | 50.81075 | 9.34642 | 115° | 106km/h | 5997m | -3.8m/s | -12.8°C | 56.7% | 489.9hPa | 2.6V | 07:34:42 | 03:10:41 | 00:00:00 | |
| HSKMA3-T | 2026-09-04 01:28:34 | 50.81087 | 9.34603 | 116° | 108km/h | 6001m | -3.9m/s | -12.8°C | 56.6% | 489.6hPa | 2.6V | 07:34:59 | 03:10:40 | 00:00:00 | |
| BIOWL1-15 | 2026-09-04 01:28:32 | 50.81163 | 9.34387 | 117° | 99km/h | 6022m | -3.8m/s | -12.6°C | 44% | 488.2hPa | 2.6V | 07:34:59 | 03:10:34 | 00:00:00 | |
| DL1NUX | 2026-09-04 01:28:32 | 50.81139 | 9.34456 | 120° | 100km/h | 6015m | -4m/s | -12.6°C | 44.2% | 488.7hPa | 2.6V | 07:34:47 | 03:10:36 | 00:00:00 | |
| DF2AP-13 | 2026-09-04 01:28:32 | 50.81113 | 9.34527 | 120° | 100km/h | 6008m | -3.3m/s | -12.7°C | 51.1% | 489.0hPa | 2.6V | 00:00:00 | 03:10:38 | 00:00:00 | |
| DB0UT-7 | 2026-09-04 01:28:31 | 50.81126 | 9.34491 | 121° | 100km/h | 6012m | -3.5m/s | -12.6°C | 48.2% | 488.8hPa | 2.6V | 07:34:00 | 03:10:37 | 00:00:00 | |
| DO3DL | 2026-09-04 01:28:29 | 50.81139 | 9.34456 | 121° | 100km/h | 6015m | -4.0m/s | -12.6°C | 42.6% | 488.7hPa | 2.6V | 07:34:00 | 00:00:00 | 00:00:00 | |
| DL8OAI-8 | 2026-09-04 01:28:27 | 50.81163 | 9.34387 | 118° | 99km/h | 6022m | -3.8m/s | -12.6°C | 39.8% | 488.2hPa | 2.6V | 07:34:00 | 00:00:00 | 00:00:00 | |
| DB0DAN | 2026-09-04 01:28:25 | 50.81195 | 9.34277 | 113° | 100km/h | 6033m | -3.6m/s | -12.4°C | 31% | 487.48hPa | 2.6V | 00:00:00 | 00:00:00 | 00:00:00 | |
| HSKMA3-T | 2026-09-04 01:28:23 | 50.81219 | 9.34200 | 117° | 108km/h | 6040m | -3.5m/s | -12.5°C | 34.9% | 487hPa | 2.6V | 07:34:59 | 03:10:29 | 00:00:00 | |
| DO3DL | 2026-09-04 01:28:23 | 50.81206 | 9.34238 | 117° | 108km/h | 6036m | -3.8m/s | -12.4°C | 30.7% | 487.2hPa | 2.6V | 07:34:00 | 00:00:00 | 00:00:00 | |
| BIOWL1-15 | 2026-09-04 01:28:23 | 50.81244 | 9.34126 | 120° | 102km/h | 6047m | -3.6m/s | -12.5°C | 34.1% | 486.5hPa | 2.6V | 07:34:59 | 03:10:27 | 00:00:00 | |
| DL1NUX | 2026-09-04 01:28:22 | 50.81257 | 9.34091 | 120° | 99km/h | 6051m | -3.6m/s | -12.5°C | 30.3% | 486.3hPa | 2.6V | 07:34:57 | 03:10:26 | 00:00:00 | |
| SO1NDE-10 | 2026-09-04 01:28:22 | 50.81231 | 9.34162 | 120° | 100km/h | 6044m | -3.8m/s | -12.4°C | 31.2% | 486.7hPa | 2.6V | 07:34:00 | 03:10:28 | 00:00:00 | |
| DB0NH | 2026-09-04 01:28:21 | 50.81244 | 9.34126 | 120° | 99km/h | 6047m | -3.6m/s | -12.4°C | 30.8% | 486.5hPa | 2.6V | 00:00:00 | 03:10:27 | 00:00:00 | |
| DJ8HS-15 | 2026-09-04 01:28:18 | 50.81280 | 9.34023 | 118° | 99km/h | 6058m | -3.8m/s | -12.5°C | 29.9% | 485.9hPa | 2.6V | 00:00:00 | 03:10:24 | 00:00:00 | |
| DM0DOS-11 | 2026-09-04 01:28:16 | 50.81310 | 9.33919 | 112° | 99km/h | 6069m | -3.5m/s | -12.6°C | 29.2% | 485.1hPa | 2.6V | 07:35:02 | 03:10:21 | 00:00:00 | |
| BIOWL1-15 | 2026-09-04 01:28:14 | 50.81369 | 9.33733 | 121° | 106km/h | 6086m | -3.9m/s | -12.7°C | 31.2% | 484.1hPa | 2.6V | 07:35:50 | 03:10:16 | 00:00:00 | |
| DD1CC3-15 | 2026-09-04 01:28:12 | 50.81330 | 9.33845 | 117° | 106km/h | 6076m | -3.3m/s | -12.7°C | 27.6% | 484.7hPa | 2.6V | 07:35:00 | 00:00:00 | 00:00:00 | |
| HSKMA3-T | 2026-09-04 01:28:12 | 50.81342 | 9.33807 | 118° | 108km/h | 6079m | -3.4m/s | -12.7°C | 31.6% | 484.6hPa | 2.6V | 07:35:50 | 03:10:18 | 00:00:00 | |
| DL1NUX | 2026-09-04 01:28:12 | 50.81369 | 9.33733 | 120° | 106km/h | 6086m | -3.9m/s | -12.7°C | 27.7% | 484.1hPa | 2.6V | 07:35:07 | 03:10:16 | 00:00:00 | |
| AM1SDL-15 | 2026-09-04 01:28:11 | 50.81355 | 9.33769 | 120° | 99km/h | 6083m | -3.2m/s | -12.7°C | 28.0% | 484.2hPa | 2.6V | 00:00:00 | 03:10:17 | 00:00:00 | |
| DM0DOS-11 | 2026-09-04 01:28:10 | 50.81433 | 9.33565 | 118° | 91km/h | 6107m | -3.6m/s | -12.8°C | 27.1% | 482.9hPa | 2.6V | 07:35:12 | 03:10:11 | 00:00:00 | |
| DB0DAN | 2026-09-04 01:28:10 | 50.81369 | 9.33733 | 121° | 100km/h | 6086m | -3.9m/s | -12.7°C | 26.6% | 484.08hPa | 2.6V | 00:00:00 | 00:00:00 | 00:00:00 | |
| HSKMA3-T | 2026-09-04 01:28:02 | 50.81461 | 9.33464 | 112° | 97km/h | 6117m | -3.6m/s | -13°C | 30.7% | 482.2hPa | 2.6V | 07:35:50 | 03:10:08 | 00:00:00 | |
| DL1NUX | 2026-09-04 01:28:02 | 50.81480 | 9.33390 | 112° | 104km/h | 6124m | -3.3m/s | -13°C | 27.8% | 481.8hPa | 2.6V | 07:35:17 | 03:10:06 | 00:00:00 | |
| BIOWL1-15 | 2026-09-04 01:27:59 | 50.81503 | 9.33312 | 117° | 108km/h | 6131m | -3.2m/s | -13.1°C | 31% | 481.5hPa | 2.6V | 07:35:50 | 03:10:04 | 00:00:00 | |
| DJ8HS-15 | 2026-09-04 01:27:58 | 50.81503 | 9.33312 | 117° | 93km/h | 6131m | -3.2m/s | -13.0°C | 27.8% | 481.4hPa | 2.6V | 00:00:00 | 03:10:04 | 00:00:00 | |
| DB0DAN | 2026-09-04 01:27:55 | 50.81539 | 9.33204 | 119° | 91km/h | 6141m | -3.3m/s | -13.2°C | 26.8% | 480.75hPa | 2.6V | 00:00:00 | 00:00:00 | 00:00:00 | |
| DL1NUX | 2026-09-04 01:27:52 | 50.81591 | 9.33038 | 111° | 93km/h | 6158m | -3.1m/s | -13.4°C | 28.6% | 479.6hPa | 2.6V | 07:35:27 | 03:09:56 | 00:00:00 | |
| HSKMA3-T | 2026-09-04 01:27:51 | 50.81582 | 9.33072 | 114° | 91km/h | 6155m | -3.7m/s | -13.3°C | 31.3% | 479.9hPa | 2.6V | 07:35:50 | 03:09:57 | 00:00:00 | |
| BIOWL1-15 | 2026-09-04 01:27:49 | 50.81599 | 9.33004 | 112° | 93km/h | 6162m | -2.9m/s | -13.4°C | 31.6% | 479.5hPa | 2.6V | 07:35:50 | 03:09:55 | 00:00:00 | |
| DL8OAI-8 | 2026-09-04 01:27:47 | 50.81608 | 9.32969 | 115° | 95km/h | 6165m | -3.5m/s | -13.4°C | 27.6% | 479.3hPa | 2.6V | 07:35:00 | 00:00:00 | 00:00:00 | |
| DL1ZP-14 | 2026-09-04 01:27:44 | 50.81650 | 9.32836 | 117° | 88km/h | 6179m | -3.9m/s | -13.5°C | 27.3% | 478.5hPa | 2.6V | 00:00:00 | 00:00:00 | 00:00:00 | |
| DL1NUX | 2026-09-04 01:27:42 | 50.81683 | 9.32705 | 108° | 91km/h | 6194m | -3.2m/s | -13.6°C | 28.6% | 477.6hPa | 2.6V | 07:35:37 | 03:09:46 | 00:00:00 | |
| HSKMA3-T | 2026-09-04 01:27:40 | 50.81683 | 9.32706 | 109° | 91km/h | 6195m | -3.2m/s | -13.6°C | 31.8% | 477.6hPa | 2.6V | 07:35:50 | 03:09:46 | 00:00:00 | |
| BIOWL1-15 | 2026-09-04 01:27:38 | 50.81698 | 9.32634 | 110° | 97km/h | 6201m | -3.7m/s | -13.7°C | 31.7% | 477.2hPa | 2.6V | 07:35:50 | 03:09:44 | 00:00:00 | |
| DJ8HS-15 | 2026-09-04 01:27:38 | 50.81698 | 9.32634 | 110° | 91km/h | 6201m | -3.6m/s | -13.7°C | 28.8% | 477.1hPa | 2.6V | 00:00:00 | 03:09:44 | 00:00:00 | |
| DM0DOS-11 | 2026-09-04 01:27:36 | 50.81727 | 9.32525 | 116° | 99km/h | 6212m | -3.2m/s | -13.8°C | 28.7% | 476.5hPa | 2.6V | 07:35:42 | 03:09:41 | 00:00:00 | |
| DF8AY | 2026-09-04 01:27:33 | 50.81749 | 9.32458 | 118° | 89km/h | 6218m | -3.5m/s | -13.8°C | 31.3% | 476.1hPa | 2.6V | 07:35:50 | 03:09:39 | 00:00:00 | |
| DL1NUX | 2026-09-04 01:27:32 | 50.81777 | 9.32366 | 111° | 84km/h | 6229m | -3.4m/s | -13.8°C | 25.6% | 475.4hPa | 2.6V | 07:35:47 | 03:09:36 | 00:00:00 | |
| HSKMA3-T | 2026-09-04 01:27:30 | 50.81777 | 9.32365 | 112° | 84km/h | 6229m | -3.4m/s | -13.8°C | 28.3% | 475.4hPa | 2.6V | 07:35:50 | 03:09:36 | 00:00:00 | |
| BIOWL1-15 | 2026-09-04 01:27:28 | 50.81792 | 9.32301 | 108° | 89km/h | 6236m | -3.5m/s | -13.8°C | 28% | 475hPa | 2.6V | 07:35:50 | 03:09:34 | 00:00:00 | |
| DM0DOS-11 | 2026-09-04 01:27:26 | 50.81815 | 9.32195 | 112° | 97km/h | 6246m | -3.2m/s | -13.9°C | 25.3% | 474.4hPa | 2.6V | 07:35:52 | 03:09:31 | 00:00:00 | |
| DF8AY | 2026-09-04 01:27:22 | 50.81846 | 9.32093 | 118° | 89km/h | 6255m | -3.5m/s | -14°C | 28.1% | 473.8hPa | 2.6V | 18:12:15 | 03:09:28 | 00:00:00 | |
| DL1NUX | 2026-09-04 01:27:22 | 50.81866 | 9.32031 | 114° | 82km/h | 6262m | -3.6m/s | -14.1°C | 25.6% | 473.3hPa | 2.6V | 07:35:57 | 03:09:26 | 00:00:00 | |
| SO1NDE-10 | 2026-09-04 01:27:22 | 50.81846 | 9.32092 | 118° | 88km/h | 6255m | -3.5m/s | -14.0°C | 25.4% | 473.7hPa | 2.6V | 00:00:00 | 03:09:28 | 00:00:00 | |
| DB0NH | 2026-09-04 01:27:21 | 50.81856 | 9.32062 | 117° | 89km/h | 6259m | -3.5m/s | -14.0°C | 25.4% | 473.5hPa | 2.6V | 00:00:00 | 03:09:27 | 00:00:00 | |
| DM0DOS-11 | 2026-09-04 01:27:20 | 50.81903 | 9.31870 | 108° | 93km/h | 6279m | -3.4m/s | -14.2°C | 24% | 472.3hPa | 2.6V | 07:36:02 | 03:09:21 | 00:00:00 | |
| HSKMA3-T | 2026-09-04 01:27:19 | 50.81874 | 9.32001 | 112° | 82km/h | 6266m | -3.2m/s | -14.1°C | 28.2% | 473.1hPa | 2.6V | 07:36:41 | 03:09:25 | 00:00:00 | |
| BIOWL1-15 | 2026-09-04 01:27:18 | 50.81882 | 9.31971 | 110° | 84km/h | 6269m | -3.4m/s | -14.1°C | 27.8% | 472.9hPa | 2.6V | 07:36:41 | 03:09:24 | 00:00:00 | |
| DF8AY | 2026-09-04 01:27:12 | 50.81940 | 9.31733 | 116° | 89km/h | 6293m | -3.5m/s | -14.2°C | 24.7% | 471.5hPa | 2.6V | 18:12:15 | 03:09:17 | 00:00:00 | |
| DL1NUX | 2026-09-04 01:27:12 | 50.81949 | 9.31702 | 115° | 86km/h | 6296m | -3.5m/s | -14.2°C | 21.8% | 471.3hPa | 2.5V | 07:36:07 | 03:09:16 | 00:00:00 | |
| HSKMA3-T | 2026-09-04 01:27:09 | 50.81958 | 9.31671 | 112° | 84km/h | 6300m | -3.4m/s | -14.1°C | 22.2% | 471.1hPa | 2.5V | 07:36:41 | 03:09:15 | 00:00:00 | |
| BIOWL1-15 | 2026-09-04 01:27:09 | 50.81972 | 9.31608 | 108° | 86km/h | 6306m | -3.5m/s | -14°C | 19.8% | 470.6hPa | 2.6V | 07:36:41 | 03:09:13 | 00:00:00 | |
| DM0DOS-11 | 2026-09-04 01:27:06 | 50.81986 | 9.31540 | 108° | 93km/h | 6313m | -3.4m/s | -14°C | 17.1% | 470.2hPa | 2.6V | 07:36:12 | 03:09:11 | 00:00:00 | |
| DO3DL | 2026-09-04 01:27:03 | 50.81994 | 9.31505 | 112° | 95km/h | 6316m | -3.4m/s | -14.0°C | 15.2% | 470.1hPa | 2.6V | 00:00:00 | 00:00:00 | 00:00:00 | |
| DL1NUX | 2026-09-04 01:27:02 | 50.82034 | 9.31372 | 117° | 86km/h | 6330m | -3.3m/s | -13.9°C | 12.9% | 469.2hPa | 2.6V | 07:36:17 | 03:09:06 | 00:00:00 | |
| DF8AY | 2026-09-04 01:27:01 | 50.82024 | 9.31403 | 118° | 89km/h | 6326m | -3.4m/s | -13.9°C | 14.6% | 469.4hPa | 2.6V | 18:12:15 | 03:09:07 | 00:00:00 | |
| BIOWL1-15 | 2026-09-04 01:27:01 | 50.82060 | 9.31282 | 110° | 82km/h | 6340m | -3.4m/s | -13.9°C | 13.2% | 468.6hPa | 2.6V | 07:36:41 | 03:09:03 | 00:00:00 | |
| HSKMA3-T | 2026-09-04 01:26:58 | 50.82052 | 9.31313 | 113° | 80km/h | 6337m | -3.4m/s | -13.9°C | 14.9% | 468.8hPa | 2.6V | 07:36:41 | 03:09:04 | 00:00:00 | |
| DJ8HS-15 | 2026-09-04 01:26:58 | 50.82052 | 9.31313 | 113° | 91km/h | 6337m | -3.3m/s | -13.9°C | 13.4% | 468.7hPa | 2.6V | 00:00:00 | 03:09:04 | 00:00:00 | |
| DM0DOS-11 | 2026-09-04 01:26:56 | 50.82074 | 9.31217 | 107° | 89km/h | 6347m | -3.4m/s | -13.9°C | 15.6% | 468.2hPa | 2.6V | 07:36:22 | 03:09:01 | 00:00:00 | |
| HSKMA3-T | 2026-09-04 01:26:48 | 50.82139 | 9.30978 | 117° | 86km/h | 6371m | -3.3m/s | -13.8°C | 26.4% | 466.7hPa | 2.6V | 07:36:41 | 03:08:54 | 00:00:00 | |
| DM0DOS-11 | 2026-09-04 01:26:46 | 50.82164 | 9.30885 | 108° | 86km/h | 6380m | -3.2m/s | -13.7°C | 8.3% | 466hPa | 2.6V | 07:36:32 | 03:08:51 | 00:00:00 | |
| BIOWL1-15 | 2026-09-04 01:26:46 | 50.82156 | 9.30917 | 111° | 84km/h | 6377m | -3.2m/s | -13.7°C | 9.5% | 466.3hPa | 2.6V | 07:36:41 | 03:08:52 | 00:00:00 | |
| DO3DL | 2026-09-04 01:26:43 | 50.82170 | 9.30851 | 109° | 89km/h | 6384m | -3.4m/s | -13.8°C | 9.8% | 465.9hPa | 2.6V | 00:00:00 | 00:00:00 | 00:00:00 | |
| DL1NUX | 2026-09-04 01:26:42 | 50.82204 | 9.30707 | 114° | 99km/h | 6398m | -3.5m/s | -14°C | 41.2% | 465.1hPa | 2.6V | 07:36:37 | 03:08:46 | 00:00:00 | |
| DL1XH-west | 2026-09-04 01:26:42 | 50.82186 | 9.30780 | 110° | 97km/h | 6391m | -3.4m/s | 0°C | 0% | 0hPa | 2.6V | 18:12:15 | 03:08:48 | 00:00:00 | |
| DM0DOS-11 | 2026-09-04 01:26:40 | 50.82259 | 9.30542 | 116° | 84km/h | 6415m | -3.6m/s | -13.8°C | 27.2% | 464hPa | 2.6V | 07:36:42 | 03:08:41 | 00:00:00 | |
| HSKMA3-T | 2026-09-04 01:26:37 | 50.82238 | 9.30604 | 119° | 91km/h | 6408m | -3.3m/s | -13.9°C | 43.7% | 464.4hPa | 2.6V | 07:36:41 | 03:08:43 | 00:00:00 | |
| DF8AY | 2026-09-04 01:26:35 | 50.82259 | 9.30542 | 117° | 84km/h | 6415m | -3.6m/s | -13.8°C | 29.9% | 464hPa | 2.6V | 18:12:15 | 03:08:41 | 00:00:00 | |
| DL1NUX | 2026-09-04 01:26:32 | 50.82299 | 9.30377 | 109° | 97km/h | 6431m | -3.6m/s | -13.9°C | 31.1% | 463hPa | 2.6V | 07:36:47 | 03:08:36 | 00:00:00 | |
| HSKMA3-T | 2026-09-04 01:26:27 | 50.82327 | 9.30266 | 115° | 100km/h | 6442m | -3.6m/s | -13.9°C | 32.7% | 462.3hPa | 2.5V | 07:37:32 | 03:08:33 | 00:00:00 | |
| DM0DOS-11 | 2026-09-04 01:26:26 | 50.82349 | 9.30195 | 118° | 97km/h | 6450m | -3.5m/s | -13.9°C | 42.8% | 461.9hPa | 2.6V | 07:36:52 | 03:08:31 | 00:00:00 | |
| DF8AY | 2026-09-04 01:26:24 | 50.82361 | 9.30161 | 119° | 93km/h | 6453m | -3.4m/s | -13.9°C | 43.1% | 461.7hPa | 2.6V | 18:12:15 | 03:08:30 | 00:00:00 | |
| NBG1-10 | 2026-09-04 01:26:23 | 50.82372 | 9.30129 | 119° | 95km/h | 6456m | -3.2m/s | -13.9°C | 36.3% | 461.4hPa | 2.6V | 00:00:00 | 03:08:29 | 00:00:00 | |
| DL1NUX | 2026-09-04 01:26:22 | 50.82400 | 9.30037 | 111° | 86km/h | 6466m | -3.4m/s | -14°C | 36% | 460.9hPa | 2.6V | 07:36:57 | 03:08:26 | 00:00:00 | |
| HSKMA3-T | 2026-09-04 01:26:17 | 50.82424 | 9.29934 | 110° | 97km/h | 6476m | -3.4m/s | -14°C | 28.2% | 460.3hPa | 2.6V | 07:37:32 | 03:08:23 | 00:00:00 | |
| DM0DOS-11 | 2026-09-04 01:26:16 | 50.82442 | 9.29861 | 114° | 100km/h | 6483m | -3.4m/s | -14°C | 16.1% | 459.8hPa | 2.6V | 07:37:02 | 03:08:21 | 00:00:00 | |
| BIOWL1-15 | 2026-09-04 01:26:14 | 50.82453 | 9.29824 | 117° | 100km/h | 6487m | -3.5m/s | -14°C | 13% | 459.7hPa | 2.5V | 07:37:32 | 03:08:20 | 00:00:00 | |
| DF8AY | 2026-09-04 01:26:13 | 50.82465 | 9.29790 | 118° | 97km/h | 6490m | -3.2m/s | -14°C | 12% | 0hPa | 2.6V | 18:12:15 | 03:08:19 | 00:00:00 | |
| DL1ZP-14 | 2026-09-04 01:26:11 | 50.82488 | 9.29724 | 118° | 89km/h | 6497m | -3.4m/s | -14.0°C | 9.7% | 459.1hPa | 2.6V | 00:00:00 | 00:00:00 | 00:00:00 | |
| DO3DL | 2026-09-04 01:26:10 | 50.82487 | 9.29724 | 120° | 89km/h | 6497m | -3.4m/s | -14.0°C | 9.7% | 459.1hPa | 2.6V | 07:37:00 | 00:00:00 | 00:00:00 | |
| DD1CC3-15 | 2026-09-04 01:26:07 | 50.82516 | 9.29629 | 112° | 89km/h | 6507m | -3.2m/s | -14.1°C | 9.3% | 458.4hPa | 2.6V | 07:37:00 | 00:00:00 | 00:00:00 | |
| DM0DOS-11 | 2026-09-04 01:26:06 | 50.82542 | 9.29521 | 111° | 100km/h | 6517m | -3.5m/s | -14.1°C | 13.4% | 457.9hPa | 2.6V | 07:37:12 | 03:08:11 | 00:00:00 | |
| HSKMA3-T | 2026-09-04 01:26:06 | 50.82533 | 9.29558 | 110° | 99km/h | 6513m | -3.4m/s | -14.1°C | 13.1% | 458.1hPa | 2.6V | 07:37:32 | 03:08:12 | 00:00:00 | |
| BIOWL1-15 | 2026-09-04 01:26:06 | 50.82552 | 9.29484 | 113° | 102km/h | 6520m | -3.5m/s | -14.2°C | 15.9% | 457.6hPa | 2.5V | 07:37:32 | 03:08:10 | 00:00:00 | |
| DF8AY | 2026-09-04 01:26:02 | 50.82574 | 9.29409 | 117° | 102km/h | 6527m | -3.3m/s | -14.2°C | 18.3% | 0hPa | 2.6V | 18:12:15 | 03:08:08 | 00:00:00 | |
| DF2AP-13 | 2026-09-04 01:26:02 | 50.82574 | 9.29409 | 118° | 95km/h | 6527m | -3.2m/s | -14.2°C | 16.5% | 457.2hPa | 2.6V | 00:00:00 | 03:08:08 | 00:00:00 | |
| DM0DOS-11 | 2026-09-04 01:25:59 | 50.82654 | 9.29143 | 110° | 97km/h | 6553m | -3.4m/s | -14.2°C | 10.9% | 455.6hPa | 2.5V | 07:37:23 | 03:08:00 | 00:00:00 | |
| HSKMA3-T | 2026-09-04 01:25:55 | 50.82646 | 9.29178 | 110° | 93km/h | 6550m | -3.4m/s | -14.2°C | 13% | 455.8hPa | 2.6V | 07:37:32 | 03:08:01 | 00:00:00 | |
| BIOWL1-15 | 2026-09-04 01:25:54 | 50.82654 | 9.29143 | 110° | 97km/h | 6554m | -3.4m/s | -14.2°C | 11.8% | 455.6hPa | 2.5V | 07:37:32 | 03:08:00 | 00:00:00 | |
| DF8AY | 2026-09-04 01:25:52 | 50.82673 | 9.29068 | 113° | 102km/h | 6561m | -3.4m/s | -14.2°C | 0% | 0hPa | 2.6V | 18:12:15 | 03:07:58 | 00:00:00 | |
| DL1NUX | 2026-09-04 01:25:52 | 50.82695 | 9.28994 | 117° | 102km/h | 6567m | -3.2m/s | -14.2°C | 9.2% | 454.8hPa | 2.6V | 07:37:27 | 03:07:56 | 00:00:00 | |
| DF7PN | 2026-09-04 01:25:51 | 50.82695 | 9.28994 | 117° | 102km/h | 6567m | -3.2m/s | -14.2°C | 8.6% | 454.8hPa | 2.5V | 00:00:00 | 00:00:00 | 00:00:00 | |
| DO3DL | 2026-09-04 01:25:50 | 50.82684 | 9.29031 | 116° | 104km/h | 6564m | -3.4m/s | -14.2°C | 9.0% | 455.0hPa | 2.5V | 07:37:00 | 00:00:00 | 00:00:00 | |
| BIOWL7-15 | 2026-09-04 01:25:49 | 50.82707 | 9.28958 | 120° | 99km/h | 6571m | -3.4m/s | -14.2°C | 11.3% | 454.6hPa | 2.5V | 07:37:00 | 00:00:00 | 00:00:00 | |
| DJ3KS | 2026-09-04 01:25:48 | 50.82707 | 9.28958 | 120° | 99km/h | 6571m | -3.4m/s | -14.2°C | 11.3% | 454.6hPa | 2.5V | 00:00:00 | 00:00:00 | 00:00:00 | |
| DM0DOS-11 | 2026-09-04 01:25:46 | 50.82758 | 9.28795 | 110° | 89km/h | 6587m | -3.3m/s | -14.4°C | 40.6% | 453.6hPa | 2.5V | 07:37:33 | 03:07:50 | 00:00:00 | |
| HSKMA3-T | 2026-09-04 01:25:45 | 50.82750 | 9.28828 | 113° | 88km/h | 6583m | -3.4m/s | -14.3°C | 38.2% | 453.8hPa | 2.6V | 07:37:32 | 03:07:51 | 00:00:00 | |
| BIOWL1-15 | 2026-09-04 01:25:43 | 50.82766 | 9.28761 | 110° | 93km/h | 6590m | -3.4m/s | -14.4°C | 42.5% | 453.5hPa | 2.5V | 07:38:23 | 03:07:49 | 00:00:00 | |
| DL1NUX | 2026-09-04 01:25:42 | 50.82793 | 9.28650 | 113° | 102km/h | 6600m | -3.3m/s | -14.5°C | 57.3% | 452.9hPa | 2.6V | 07:37:37 | 03:07:46 | 00:00:00 | |
| DF8AY | 2026-09-04 01:25:41 | 50.82783 | 9.28688 | 111° | 100km/h | 6597m | -3.2m/s | 0°C | 0% | 0hPa | 2.6V | 18:12:15 | 03:07:47 | 00:00:00 | |
| DL1ZP-14 | 2026-09-04 01:25:40 | 50.82793 | 9.28651 | 113° | 102km/h | 6600m | -3.3m/s | -14.5°C | 55.2% | 452.9hPa | 2.6V | 00:00:00 | 00:00:00 | 00:00:00 | |
| DM0DOS-11 | 2026-09-04 01:25:39 | 50.82861 | 9.28450 | 116° | 86km/h | 6619m | -3.5m/s | -14.6°C | 57.2% | 451.7hPa | 2.5V | 07:37:43 | 03:07:40 | 00:00:00 | |
| HSKMA3-T | 2026-09-04 01:25:34 | 50.82861 | 9.28450 | 116° | 86km/h | 6619m | -3.5m/s | -14.6°C | 58.7% | 451.7hPa | 2.5V | 07:38:23 | 03:07:40 | 00:00:00 | |
| DL1NUX | 2026-09-04 01:25:32 | 50.82894 | 9.28319 | 109° | 95km/h | 6632m | -3.2m/s | -14.6°C | 54.4% | 450.8hPa | 2.6V | 07:37:47 | 03:07:36 | 00:00:00 | |
| BIOWL1-15 | 2026-09-04 01:25:31 | 50.82886 | 9.28354 | 110° | 91km/h | 6629m | -3.1m/s | -14.6°C | 52.8% | 451.1hPa | 2.6V | 07:38:23 | 03:07:37 | 00:00:00 | |
| DF8AY | 2026-09-04 01:25:30 | 50.82894 | 9.28319 | 109° | 95km/h | 6633m | -3.2m/s | 0°C | 0% | 0hPa | 2.6V | 18:12:15 | 03:07:36 | 00:00:00 | |
| DB0UT-7 | 2026-09-04 01:25:29 | 50.82902 | 9.28282 | 110° | 93km/h | 6636m | -3.0m/s | -14.5°C | 54.4% | 450.7hPa | 2.5V | 00:00:00 | 03:07:35 | 00:00:00 | |
| DM0DOS-11 | 2026-09-04 01:25:25 | 50.82955 | 9.28101 | 118° | 93km/h | 6652m | -3.2m/s | -14.6°C | 60% | 449.8hPa | 2.5V | 07:37:53 | 03:07:30 | 00:00:00 | |
| BIOWL1-15 | 2026-09-04 01:25:25 | 50.82985 | 9.28007 | 113° | 84km/h | 6661m | -3.4m/s | -14.5°C | 64% | 449.1hPa | 2.6V | 07:38:23 | 03:07:27 | 00:00:00 | |
| HSKMA3-T | 2026-09-04 01:25:24 | 50.82955 | 9.28101 | 119° | 93km/h | 6652m | -3.2m/s | -14.6°C | 60.8% | 449.8hPa | 2.5V | 07:38:23 | 03:07:30 | 00:00:00 | |
| DO3DL | 2026-09-04 01:25:24 | 50.82955 | 9.28101 | 120° | 93km/h | 6652m | -3.2m/s | -14.6°C | 57.9% | 449.8hPa | 2.6V | 07:38:00 | 00:00:00 | 00:00:00 | |
| DL8OAI-8 | 2026-09-04 01:25:23 | 50.82955 | 9.28101 | 120° | 93km/h | 6652m | -3.2m/s | -14.6°C | 57.9% | 449.8hPa | 2.6V | 07:38:00 | 00:00:00 | 00:00:00 | |
| DL1NUX | 2026-09-04 01:25:22 | 50.82993 | 9.27975 | 110° | 86km/h | 6664m | -3.3m/s | -14.5°C | 56.5% | 449hPa | 2.6V | 07:37:57 | 03:07:26 | 00:00:00 | |
| DB0NH | 2026-09-04 01:25:21 | 50.82984 | 9.28007 | 113° | 93km/h | 6661m | -3.3m/s | -14.5°C | 63.9% | 449.1hPa | 2.6V | 00:00:00 | 03:07:27 | 00:00:00 | |
| DF7PN | 2026-09-04 01:25:19 | 50.83000 | 9.27943 | 108° | 88km/h | 6668m | -3.4m/s | -14.5°C | 50.4% | 448.8hPa | 2.5V | 00:00:00 | 00:00:00 | 00:00:00 | |
| DJ8HS-15 | 2026-09-04 01:25:18 | 50.83006 | 9.27908 | 108° | 93km/h | 6671m | -3.2m/s | -14.4°C | 48.5% | 448.6hPa | 2.5V | 00:00:00 | 03:07:24 | 00:00:00 | |
| DO3DL | 2026-09-04 01:25:16 | 50.83014 | 9.27873 | 108° | 95km/h | 6675m | -3.3m/s | -14.5°C | 44.0% | 448.4hPa | 2.5V | 07:38:00 | 00:00:00 | 00:00:00 | |
| DM0DOS-11 | 2026-09-04 01:25:15 | 50.83040 | 9.27762 | 113° | 99km/h | 6684m | -3m/s | -14.5°C | 34% | 447.8hPa | 2.5V | 07:38:03 | 03:07:20 | 00:00:00 | |
| HSKMA3-T | 2026-09-04 01:25:13 | 50.83050 | 9.27726 | 116° | 97km/h | 6687m | -2.9m/s | -14.5°C | 32.4% | 447.7hPa | 2.5V | 07:38:23 | 03:07:19 | 00:00:00 | |
| NBG1-10 | 2026-09-04 01:25:13 | 50.83050 | 9.27726 | 116° | 93km/h | 6687m | -2.8m/s | -14.4°C | 29.9% | 447.7hPa | 2.5V | 00:00:00 | 03:07:19 | 00:00:00 | |
| DL1NUX | 2026-09-04 01:25:12 | 50.83081 | 9.27629 | 114° | 86km/h | 6696m | -3.2m/s | -14.5°C | 20.6% | 447.1hPa | 2.6V | 07:38:07 | 03:07:16 | 00:00:00 | |
| BIOWL1-15 | 2026-09-04 01:25:11 | 50.83071 | 9.27660 | 117° | 89km/h | 6693m | -3.3m/s | -14.4°C | 23.6% | 447.4hPa | 2.6V | 07:38:23 | 03:07:17 | 00:00:00 | |
| DL1LOL-11 | 2026-09-04 01:25:10 | 50.83081 | 9.27629 | 116° | 86km/h | 6696m | -3.3m/s | -14.5°C | 19.6% | 447.1hPa | 2.5V | 00:00:00 | 00:00:00 | 00:00:00 | |
| DL1ZP-14 | 2026-09-04 01:25:09 | 50.83089 | 9.27597 | 112° | 84km/h | 6700m | -3.4m/s | -14.5°C | 19.3% | 446.9hPa | 2.5V | 00:00:00 | 00:00:00 | 00:00:00 | |
| DM0DOS-11 | 2026-09-04 01:25:05 | 50.83128 | 9.27423 | 111° | 100km/h | 6716m | -3m/s | -14.5°C | 18.7% | 446hPa | 2.5V | 07:38:13 | 03:07:10 | 00:00:00 | |
| HSKMA3-T | 2026-09-04 01:25:02 | 50.83149 | 9.27352 | 116° | 97km/h | 6722m | -3.1m/s | -14.5°C | 19.5% | 445.6hPa | 2.6V | 07:38:23 | 03:07:08 | 00:00:00 | |
| BIOWL1-15 | 2026-09-04 01:25:00 | 50.83170 | 9.27285 | 116° | 89km/h | 6728m | -3m/s | -14.6°C | 16.5% | 445.3hPa | 2.6V | 07:38:23 | 03:07:06 | 00:00:00 | |
| DB0UT-7 | 2026-09-04 01:24:59 | 50.83179 | 9.27254 | 115° | 93km/h | 6732m | -3.2m/s | -14.5°C | 12.2% | 445.1hPa | 2.5V | 00:00:00 | 00:00:00 | 00:00:00 | |
| DM0DOS-11 | 2026-09-04 01:24:58 | 50.83225 | 9.27045 | 111° | 100km/h | 6750m | -3.2m/s | -14.7°C | 18.2% | 444hPa | 2.5V | 07:38:24 | 03:06:59 | 00:00:00 | |
| DD1CC8 | 2026-09-04 01:24:54 | 50.83216 | 9.27083 | 108° | 99km/h | 6747m | -3.3m/s | -14.7°C | 17.0% | 444.2hPa | 2.6V | 00:00:00 | 00:00:00 | 00:00:00 | |
| DL1NUX | 2026-09-04 01:24:52 | 50.83257 | 9.26937 | 117° | 95km/h | 6760m | -3.4m/s | -14.8°C | 21.9% | 443.4hPa | 2.6V | 07:38:27 | 03:06:56 | 00:00:00 | |
| HSKMA3-T | 2026-09-04 01:24:51 | 50.83246 | 9.26972 | 116° | 99km/h | 6757m | -3.3m/s | -14.8°C | 23% | 443.6hPa | 2.6V | 07:39:14 | 03:06:57 | 00:00:00 | |
| BIOWL1-15 | 2026-09-04 01:24:49 | 50.83301 | 9.26777 | 108° | 88km/h | 6776m | -3.2m/s | -14.9°C | 31.5% | 442.5hPa | 2.6V | 07:39:14 | 03:06:51 | 00:00:00 | |
| DF7PN | 2026-09-04 01:24:48 | 50.83277 | 9.26872 | 115° | 86km/h | 6766m | -3.1m/s | -14.8°C | 23.3% | 443.0hPa | 2.5V | 00:00:00 | 00:00:00 | 00:00:00 | |
| DB0ND-19 | 2026-09-04 01:24:47 | 50.83286 | 9.26841 | 112° | 84km/h | 6769m | -3.1m/s | -14.9°C | 23.5% | 442.9hPa | 2.5V | 00:00:00 | 00:00:00 | 00:00:00 | |
| BIOWL7-15 | 2026-09-04 01:24:46 | 50.83286 | 9.26841 | 114° | 84km/h | 6769m | -3.1m/s | -14.9°C | 23.5% | 442.9hPa | 2.5V | 07:39:00 | 00:00:00 | 00:00:00 | |
| DM0DOS-11 | 2026-09-04 01:24:45 | 50.83315 | 9.26707 | 107° | 97km/h | 6782m | -3.1m/s | -15°C | 29.4% | 442.1hPa | 2.5V | 07:38:34 | 03:06:49 | 00:00:00 | |
| DD1CC3-15 | 2026-09-04 01:24:43 | 50.83308 | 9.26742 | 108° | 91km/h | 6779m | -3.2m/s | -15.0°C | 27.5% | 442.3hPa | 2.6V | 07:39:00 | 00:00:00 | 00:00:00 | |
| DL1NUX | 2026-09-04 01:24:42 | 50.83341 | 9.26595 | 113° | 100km/h | 6792m | -3m/s | -15.1°C | 29.5% | 441.5hPa | 2.6V | 07:38:37 | 03:06:46 | 00:00:00 | |
| HSKMA3-T | 2026-09-04 01:24:40 | 50.83341 | 9.26595 | 113° | 100km/h | 6792m | -3m/s | -15.1°C | 32.6% | 441.5hPa | 2.6V | 07:39:14 | 03:06:46 | 00:00:00 | |
| DB0DAN | 2026-09-04 01:24:40 | 50.83341 | 9.26595 | 113° | 95km/h | 6792m | -3m/s | -15.1°C | 28.2% | 441.54hPa | 2.6V | 00:00:00 | 00:00:00 | 00:00:00 | |
| BIOWL1-15 | 2026-09-04 01:24:37 | 50.83383 | 9.26458 | 115° | 89km/h | 6804m | -3.3m/s | -15.2°C | 31% | 440.9hPa | 2.5V | 07:39:14 | 03:06:42 | 00:00:00 | |
| DO3DL | 2026-09-04 01:24:36 | 50.83373 | 9.26490 | 117° | 91km/h | 6801m | -3.2m/s | -15.2°C | 27.5% | 441.1hPa | 2.6V | 07:39:00 | 00:00:00 | 00:00:00 | |
| DM0DOS-11 | 2026-09-04 01:24:35 | 50.83408 | 9.26356 | 109° | 95km/h | 6813m | -3.1m/s | -15.2°C | 27.1% | 440.3hPa | 2.6V | 07:38:44 | 03:06:39 | 00:00:00 | |
| HSKMA3-T | 2026-09-04 01:24:30 | 50.83434 | 9.26246 | 113° | 99km/h | 6823m | -3.2m/s | -15.3°C | 32.6% | 439.8hPa | 2.6V | 07:39:14 | 03:06:36 | 00:00:00 | |
| DL1LOL-11 | 2026-09-04 01:24:29 | 50.83444 | 9.26210 | 115° | 97km/h | 6826m | -3.3m/s | -15.3°C | 27.8% | 439.6hPa | 2.6V | 00:00:00 | 00:00:00 | 00:00:00 | |
| DM0DOS-11 | 2026-09-04 01:24:28 | 50.83493 | 9.26004 | 106° | 97km/h | 6846m | -3.4m/s | -15.4°C | 27% | 438.4hPa | 2.6V | 07:38:54 | 03:06:29 | 00:00:00 | |
| BIOWL1-15 | 2026-09-04 01:24:26 | 50.83486 | 9.26040 | 107° | 93km/h | 6842m | -3.2m/s | -15.4°C | 30.7% | 438.7hPa | 2.5V | 07:39:14 | 03:06:30 | 00:00:00 | |
| DO9LL-15 | 2026-09-04 01:24:25 | 50.83479 | 9.26075 | 108° | 97km/h | 6839m | -3.2m/s | -15.3°C | 29.1% | 438.7hPa | 2.5V | 00:00:00 | 03:06:31 | 00:00:00 | |
| DO3DL | 2026-09-04 01:24:23 | 50.83486 | 9.26040 | 108° | 93km/h | 6842m | -3.2m/s | -15.4°C | 26.7% | 438.7hPa | 2.5V | 07:39:00 | 00:00:00 | 00:00:00 | |
| DL1NUX | 2026-09-04 01:24:22 | 50.83518 | 9.25889 | 112° | 104km/h | 6856m | -3m/s | -15.5°C | 26.2% | 437.9hPa | 2.5V | 07:38:57 | 03:06:26 | 00:00:00 | |
| HSKMA3-T | 2026-09-04 01:24:20 | 50.83518 | 9.25889 | 112° | 104km/h | 6856m | -3m/s | -15.5°C | 29% | 437.9hPa | 2.5V | 07:39:14 | 03:06:26 | 00:00:00 | |
| BIOWL1-15 | 2026-09-04 01:24:15 | 50.83571 | 9.25713 | 114° | 88km/h | 6871m | -3.3m/s | -15.6°C | 28.1% | 437hPa | 2.6V | 07:39:14 | 03:06:21 | 00:00:00 | |
| DD8BA-10 | 2026-09-04 01:24:15 | 50.83571 | 9.25713 | 115° | 99km/h | 6872m | -3.2m/s | -15.5°C | 25.2% | 437.0hPa | 2.6V | 00:00:00 | 00:00:00 | 00:00:00 | |
| DL1NUX | 2026-09-04 01:24:12 | 50.83609 | 9.25537 | 108° | 102km/h | 6887m | -3.2m/s | -15.7°C | 24.5% | 436.1hPa | 2.6V | 07:39:07 | 03:06:16 | 00:00:00 | |
| HSKMA3-T | 2026-09-04 01:24:09 | 50.83618 | 9.25498 | 111° | 104km/h | 6890m | -3.1m/s | -15.7°C | 29.6% | 435.9hPa | 2.6V | 07:39:14 | 03:06:15 | 00:00:00 | |
| DM0DOS-11 | 2026-09-04 01:24:08 | 50.83680 | 9.25286 | 113° | 88km/h | 6910m | -3.2m/s | -15.9°C | 34% | 434.8hPa | 2.6V | 07:39:14 | 03:06:09 | 00:00:00 | |
| BIOWL1-15 | 2026-09-04 01:24:06 | 50.83671 | 9.25319 | 116° | 89km/h | 6906m | -3.7m/s | -15.9°C | 37.1% | 434.9hPa | 2.6V | 07:39:14 | 03:06:10 | 00:00:00 | |
| DD8BA-10 | 2026-09-04 01:24:04 | 50.83671 | 9.25319 | 117° | 93km/h | 6906m | -3.6m/s | -15.8°C | 34.5% | 434.9hPa | 2.6V | 00:00:00 | 00:00:00 | 00:00:00 | |
| DL1NUX | 2026-09-04 01:24:02 | 50.83703 | 9.25186 | 106° | 93km/h | 6919m | -3.2m/s | -16°C | 31.3% | 434.3hPa | 2.5V | 07:39:17 | 03:06:06 | 00:00:00 | |
| HSKMA3-T | 2026-09-04 01:23:58 | 50.83718 | 9.25111 | 108° | 102km/h | 6925m | -3.2m/s | -16°C | 33% | 433.9hPa | 2.6V | 07:40:05 | 03:06:04 | 00:00:00 | |
| BIOWL1-15 | 2026-09-04 01:23:53 | 50.83767 | 9.24924 | 116° | 95km/h | 6942m | -3.3m/s | -16.1°C | 32% | 432.9hPa | 2.5V | 07:40:05 | 03:05:59 | 00:00:00 | |
| DL1NUX | 2026-09-04 01:23:52 | 50.83794 | 9.24826 | 109° | 88km/h | 6951m | -3.1m/s | -16.2°C | 26.5% | 432.3hPa | 2.6V | 07:39:27 | 03:05:56 | 00:00:00 | |
| HSKMA3-T | 2026-09-04 01:23:47 | 50.83815 | 9.24720 | 106° | 97km/h | 6961m | -3.5m/s | -16.3°C | 30.2% | 431.8hPa | 2.5V | 07:40:05 | 03:05:53 | 00:00:00 | |
| DF7PN | 2026-09-04 01:23:46 | 50.83822 | 9.24682 | 107° | 100km/h | 6964m | -3.2m/s | -16.3°C | 26.0% | 431.6hPa | 2.6V | 00:00:00 | 00:00:00 | 00:00:00 | |
| DM0DOS-11 | 2026-09-04 01:23:45 | 50.83849 | 9.24565 | 114° | 102km/h | 6974m | -3m/s | -16.4°C | 27.7% | 431.1hPa | 2.6V | 07:39:34 | 03:05:49 | 00:00:00 | |
| BIOWL1-15 | 2026-09-04 01:23:42 | 50.83898 | 9.24395 | 109° | 89km/h | 6990m | -3.3m/s | -16.5°C | 30.3% | 430.3hPa | 2.6V | 07:40:05 | 03:05:44 | 00:00:00 | |
| DB0DAN | 2026-09-04 01:23:40 | 50.83881 | 9.24461 | 115° | 86km/h | 6983m | -3.1m/s | -16.5°C | 26.4% | 430.53hPa | 2.5V | 00:00:00 | 00:00:00 | 00:00:00 | |
| DM0DOS-11 | 2026-09-04 01:23:38 | 50.83936 | 9.24210 | 111° | 104km/h | 7006m | -3.1m/s | -16.6°C | 23.9% | 429.2hPa | 2.5V | 07:39:44 | 03:05:39 | 00:00:00 | |
| HSKMA3-T | 2026-09-04 01:23:36 | 50.83912 | 9.24325 | 107° | 97km/h | 6996m | -3.3m/s | -16.6°C | 32% | 429.8hPa | 2.6V | 07:40:05 | 03:05:42 | 00:00:00 | |
| DL1ZP-14 | 2026-09-04 01:23:36 | 50.83919 | 9.24287 | 107° | 99km/h | 6999m | -3.1m/s | -16.6°C | 25.6% | 429.7hPa | 2.6V | 00:00:00 | 00:00:00 | 00:00:00 | |
| NBG1-10 | 2026-09-04 01:23:34 | 50.83927 | 9.24249 | 109° | 99km/h | 7003m | -3.2m/s | -16.5°C | 24.7% | 429.3hPa | 2.5V | 00:00:00 | 03:05:40 | 00:00:00 | |
| DL1NUX | 2026-09-04 01:23:32 | 50.83966 | 9.24098 | 114° | 97km/h | 7015m | -3m/s | -16.6°C | 24.3% | 428.7hPa | 2.6V | 07:39:47 | 03:05:36 | 00:00:00 | |
| BIOWL1-15 | 2026-09-04 01:23:29 | 50.84015 | 9.23882 | 109° | 104km/h | 7034m | -3m/s | -16.8°C | 31.5% | 427.6hPa | 2.6V | 07:40:05 | 03:05:30 | 00:00:00 | |
| DB0UT-7 | 2026-09-04 01:23:29 | 50.83976 | 9.24063 | 114° | 99km/h | 7018m | -2.9m/s | -16.6°C | 25.2% | 428.6hPa | 2.6V | 00:00:00 | 03:05:35 | 00:00:00 | |
| DJ2DS-15 | 2026-09-04 01:23:27 | 50.84000 | 9.23958 | 107° | 97km/h | 7028m | -3.4m/s | -16.7°C | 25.5% | 428.0hPa | 2.6V | 00:00:00 | 00:00:00 | 00:00:00 | |
| DM0DOS-11 | 2026-09-04 01:23:25 | 50.84024 | 9.23843 | 111° | 104km/h | 7037m | -3.1m/s | -16.8°C | 29.4% | 427.5hPa | 2.6V | 07:39:54 | 03:05:29 | 00:00:00 | |
| HSKMA3-T | 2026-09-04 01:23:25 | 50.84007 | 9.23920 | 108° | 100km/h | 7031m | -3m/s | -16.8°C | 28.9% | 427.8hPa | 2.5V | 07:40:05 | 03:05:31 | 00:00:00 | |
| DO3DL | 2026-09-04 01:23:25 | 50.84007 | 9.23920 | 109° | 100km/h | 7031m | -3.0m/s | -16.8°C | 24.8% | 427.8hPa | 2.5V | 07:40:00 | 00:00:00 | 00:00:00 | |
| DF2AP-13 | 2026-09-04 01:23:24 | 50.84015 | 9.23882 | 110° | 100km/h | 7034m | -3.0m/s | -16.7°C | 28.6% | 427.6hPa | 2.5V | 07:39:00 | 03:05:30 | 00:00:00 | |
| DL1NUX | 2026-09-04 01:23:22 | 50.84055 | 9.23732 | 114° | 97km/h | 7046m | -3.2m/s | -16.8°C | 30.6% | 426.9hPa | 2.5V | 07:39:57 | 03:05:26 | 00:00:00 | |
| SO1NDE-10 | 2026-09-04 01:23:22 | 50.84034 | 9.23804 | 114° | 99km/h | 7040m | -3.0m/s | -16.7°C | 29.5% | 427.2hPa | 2.5V | 00:00:00 | 03:05:28 | 00:00:00 | |
| DB0NH | 2026-09-04 01:23:21 | 50.84045 | 9.23767 | 115° | 99km/h | 7043m | -3.3m/s | -16.8°C | 30.3% | 427.0hPa | 2.5V | 00:00:00 | 03:05:27 | 00:00:00 | |
| DL8OAI-8 | 2026-09-04 01:23:20 | 50.84045 | 9.23767 | 116° | 100km/h | 7043m | -3.4m/s | -16.8°C | 28.9% | 427.1hPa | 2.5V | 07:40:00 | 00:00:00 | 00:00:00 | |
| DM0DOS-11 | 2026-09-04 01:23:18 | 50.84113 | 9.23477 | 109° | 104km/h | 7069m | -3.1m/s | -16.9°C | 45.7% | 425.7hPa | 2.5V | 07:40:04 | 03:05:19 | 00:00:00 | |
| BIOWL1-15 | 2026-09-04 01:23:17 | 50.84082 | 9.23629 | 109° | 93km/h | 7056m | -3.2m/s | -16.8°C | 38.4% | 426.4hPa | 2.6V | 07:40:05 | 03:05:23 | 00:00:00 | |
| HSKMA3-T | 2026-09-04 01:23:14 | 50.84104 | 9.23517 | 108° | 102km/h | 7066m | -3.2m/s | -16.9°C | 47.3% | 425.8hPa | 2.6V | 07:40:05 | 03:05:20 | 00:00:00 | |
| BIOWL1-15 | 2026-09-04 01:23:06 | 50.84175 | 9.23223 | 107° | 99km/h | 7091m | -3.1m/s | -17.4°C | 56.3% | 424.4hPa | 2.5V | 07:40:56 | 03:05:12 | 00:00:00 | |
| DM0DOS-11 | 2026-09-04 01:23:05 | 50.84200 | 9.23106 | 111° | 106km/h | 7101m | -3.5m/s | -17.5°C | 57.8% | 423.9hPa | 2.6V | 07:40:14 | 03:05:09 | 00:00:00 | |
| HSKMA3-T | 2026-09-04 01:23:04 | 50.84191 | 9.23146 | 109° | 104km/h | 7098m | -3.3m/s | -17.5°C | 60.1% | 424hPa | 2.5V | 07:40:56 | 03:05:10 | 00:00:00 | |
| DL1NUX | 2026-09-04 01:23:02 | 50.84231 | 9.22995 | 114° | 95km/h | 7112m | -3.5m/s | -17.7°C | 57.5% | 423.3hPa | 2.6V | 07:40:17 | 03:05:06 | 00:00:00 | |
| DJ2KF-10 | 2026-09-04 01:23:01 | 50.84221 | 9.23031 | 115° | 91km/h | 7108m | -3.5m/s | -17.6°C | 57.3% | 423.5hPa | 2.5V | 07:40:00 | 03:05:07 | 00:00:00 | |
| DB0UT-7 | 2026-09-04 01:22:59 | 50.84240 | 9.22961 | 113° | 100km/h | 7115m | -3.1m/s | -17.7°C | 57.8% | 423.1hPa | 2.5V | 00:00:00 | 00:00:00 | 00:00:00 | |
| DM0DOS-11 | 2026-09-04 01:22:58 | 50.84286 | 9.22736 | 109° | 108km/h | 7135m | -3.5m/s | -17.9°C | 58.9% | 422.1hPa | 2.5V | 07:40:24 | 03:04:59 | 00:00:00 | |
| BIOWL1-15 | 2026-09-04 01:22:57 | 50.84270 | 9.22816 | 106° | 102km/h | 7128m | -3.2m/s | -17.9°C | 59.4% | 422.4hPa | 2.6V | 07:40:56 | 03:05:01 | 00:00:00 | |
| HSKMA3-T | 2026-09-04 01:22:54 | 50.84277 | 9.22777 | 107° | 106km/h | 7131m | -3.2m/s | -17.9°C | 59.6% | 422.2hPa | 2.6V | 07:40:56 | 03:05:00 | 00:00:00 | |
| DL1NUX | 2026-09-04 01:22:52 | 50.84316 | 9.22620 | 114° | 100km/h | 7145m | -3.2m/s | -18.1°C | 60.2% | 421.5hPa | 2.6V | 07:40:27 | 03:04:56 | 00:00:00 | |
| DD1CC8 | 2026-09-04 01:22:50 | 50.84326 | 9.22583 | 113° | 97km/h | 7148m | -3.0m/s | -18.1°C | 58.0% | 421.3hPa | 2.6V | 00:00:00 | 00:00:00 | 00:00:00 | |
| DO3DL | 2026-09-04 01:22:49 | 50.84316 | 9.22619 | 115° | 100km/h | 7145m | -3.2m/s | -18.1°C | 57.8% | 421.5hPa | 2.6V | 07:40:00 | 00:00:00 | 00:00:00 | |
| DM0DOS-11 | 2026-09-04 01:22:45 | 50.84374 | 9.22359 | 108° | 108km/h | 7169m | -3.4m/s | -18.2°C | 65.3% | 420.2hPa | 2.6V | 07:40:34 | 03:04:49 | 00:00:00 | |
| HSKMA3-T | 2026-09-04 01:22:43 | 50.84374 | 9.22359 | 109° | 108km/h | 7169m | -3.4m/s | -18.2°C | 65.4% | 420.2hPa | 2.6V | 07:40:56 | 03:04:49 | 00:00:00 | |
| DB0ND-19 | 2026-09-04 01:22:43 | 50.84383 | 9.22319 | 111° | 108km/h | 7172m | -3.1m/s | -18.3°C | 63.3% | 420.0hPa | 2.5V | 00:00:00 | 00:00:00 | 00:00:00 | |
| DL4XJ-10 | 2026-09-04 01:22:40 | 50.84404 | 9.22240 | 115° | 111km/h | 7179m | -3.6m/s | -17.9°C | 0% | 0hPa | 2.5V | 00:00:00 | 00:00:00 | 00:00:00 | |
| DL8OAI-8 | 2026-09-04 01:22:39 | 50.84404 | 9.22240 | 115° | 102km/h | 7180m | -3.6m/s | -18.3°C | 62.8% | 419.6hPa | 2.5V | 07:40:00 | 00:00:00 | 00:00:00 | |
| DJ8HS-15 | 2026-09-04 01:22:38 | 50.84424 | 9.22168 | 113° | 100km/h | 7186m | -3.1m/s | -18.4°C | 65.5% | 419.2hPa | 2.5V | 00:00:00 | 03:04:44 | 00:00:00 | |
| DO3DL | 2026-09-04 01:22:37 | 50.84424 | 9.22168 | 114° | 97km/h | 7186m | -3.2m/s | -18.4°C | 62.9% | 419.2hPa | 2.5V | 07:40:00 | 00:00:00 | 00:00:00 | |
| DM0DOS-11 | 2026-09-04 01:22:35 | 50.84463 | 9.21982 | 108° | 106km/h | 7202m | -3.2m/s | -18.6°C | 66.4% | 418.3hPa | 2.5V | 07:40:44 | 03:04:39 | 00:00:00 | |
| HSKMA3-T | 2026-09-04 01:22:32 | 50.84472 | 9.21942 | 111° | 108km/h | 7205m | -3.8m/s | -18.6°C | 65.1% | 418.1hPa | 2.5V | 07:40:56 | 03:04:38 | 00:00:00 | |
| DL1NUX | 2026-09-04 01:22:32 | 50.84494 | 9.21863 | 114° | 106km/h | 7212m | -3.4m/s | -18.7°C | 66.4% | 417.7hPa | 2.6V | 07:40:47 | 03:04:36 | 00:00:00 | |
| DO3DL | 2026-09-04 01:22:30 | 50.84482 | 9.21902 | 114° | 108km/h | 7209m | -3.2m/s | -18.6°C | 64.2% | 417.9hPa | 2.5V | 07:40:00 | 00:00:00 | 00:00:00 | |
| DB0UT-7 | 2026-09-04 01:22:29 | 50.84505 | 9.21825 | 116° | 99km/h | 7216m | -3.0m/s | -18.6°C | 67.6% | 417.5hPa | 2.5V | 00:00:00 | 03:04:35 | 00:00:00 | |
| NBG1-10 | 2026-09-04 01:22:28 | 50.84515 | 9.21789 | 115° | 100km/h | 7219m | -3.5m/s | -18.6°C | 68.9% | 417.3hPa | 2.5V | 00:00:00 | 03:04:34 | 00:00:00 | |
| DM0DOS-11 | 2026-09-04 01:22:25 | 50.84556 | 9.21611 | 105° | 100km/h | 7237m | -3.1m/s | -18.7°C | 73.8% | 416.4hPa | 2.5V | 07:40:54 | 03:04:29 | 00:00:00 | |
| DF8AY | 2026-09-04 01:22:25 | 50.84542 | 9.21685 | 108° | 93km/h | 7230m | -3.6m/s | 0°C | 0% | 416.8hPa | 2.6V | 07:40:56 | 03:04:31 | 00:00:00 | |
| DO9LL-15 | 2026-09-04 01:22:25 | 50.84542 | 9.21685 | 109° | 100km/h | 7230m | -3.5m/s | -18.6°C | 71.7% | 416.8hPa | 2.6V | 00:00:00 | 03:04:31 | 00:00:00 | |
| DO3DL | 2026-09-04 01:22:23 | 50.84549 | 9.21649 | 107° | 99km/h | 7234m | -3.4m/s | -18.7°C | 69.5% | 416.6hPa | 2.6V | 07:40:00 | 00:00:00 | 00:00:00 | |
| DL1NUX | 2026-09-04 01:22:22 | 50.84580 | 9.21489 | 110° | 110km/h | 7246m | -3.1m/s | -18.7°C | 77.2% | 415.8hPa | 2.6V | 07:40:57 | 03:04:26 | 00:00:00 | |
| BIOWL1-15 | 2026-09-04 01:22:21 | 50.84580 | 9.21489 | 111° | 110km/h | 7246m | -3.1m/s | -18.7°C | 74.7% | 415.8hPa | 2.6V | 07:41:47 | 03:04:26 | 00:00:00 | |
| HSKMA3-T | 2026-09-04 01:22:21 | 50.84571 | 9.21530 | 108° | 108km/h | 7243m | -3m/s | -18.7°C | 73.8% | 416hPa | 2.5V | 07:40:56 | 03:04:27 | 00:00:00 | |
| DB0NH | 2026-09-04 01:22:21 | 50.84571 | 9.21530 | 109° | 100km/h | 7243m | -3.0m/s | -18.6°C | 76.4% | 416.0hPa | 2.5V | 00:00:00 | 03:04:27 | 00:00:00 | |
| DD1CC8 | 2026-09-04 01:22:19 | 50.84602 | 9.21411 | 115° | 102km/h | 7253m | -3.5m/s | -18.7°C | 75.4% | 415.5hPa | 2.6V | 00:00:00 | 00:00:00 | 00:00:00 | |
| DM0DOS-11 | 2026-09-04 01:22:18 | 50.84647 | 9.21238 | 107° | 91km/h | 7271m | -3.2m/s | -18.8°C | 80.7% | 414.5hPa | 2.6V | 07:41:04 | 03:04:19 | 00:00:00 | |
| DF8AY | 2026-09-04 01:22:14 | 50.84640 | 9.21272 | 110° | 91km/h | 7268m | -3.2m/s | 0°C | 0% | 414.7hPa | 2.5V | 07:41:47 | 03:04:20 | 00:00:00 | |
| DL1NUX | 2026-09-04 01:22:12 | 50.84669 | 9.21124 | 108° | 104km/h | 7281m | -2.9m/s | -18.8°C | 81.8% | 414hPa | 2.5V | 07:41:07 | 03:04:16 | 00:00:00 | |
| HSKMA3-T | 2026-09-04 01:22:10 | 50.84669 | 9.21124 | 108° | 104km/h | 7281m | -2.9m/s | -18.8°C | 79.1% | 414hPa | 2.5V | 07:41:47 | 03:04:16 | 00:00:00 | |
| DF8AY | 2026-09-04 01:22:05 | 50.84741 | 9.20861 | 112° | 93km/h | 7304m | -3.4m/s | 0°C | 0% | 0hPa | 2.5V | 07:41:47 | 03:04:09 | 00:00:00 | |
| DO3DL | 2026-09-04 01:22:05 | 50.84721 | 9.20931 | 116° | 99km/h | 7297m | -3.0m/s | -18.8°C | 83.0% | 413.0hPa | 2.6V | 07:41:00 | 00:00:00 | 00:00:00 | |
| DL1NUX | 2026-09-04 01:22:02 | 50.84765 | 9.20752 | 107° | 102km/h | 7314m | -3.6m/s | -18.9°C | 87.8% | 412hPa | 2.6V | 07:41:17 | 03:04:06 | 00:00:00 | |
| BIOWL1-15 | 2026-09-04 01:22:00 | 50.84765 | 9.20752 | 108° | 102km/h | 7314m | -3.6m/s | -18.9°C | 84.8% | 412hPa | 2.6V | 07:41:47 | 03:04:06 | 00:00:00 | |
| HSKMA3-T | 2026-09-04 01:21:59 | 50.84773 | 9.20713 | 109° | 104km/h | 7317m | -3.2m/s | -19°C | 85% | 411.8hPa | 2.5V | 07:41:47 | 03:04:05 | 00:00:00 | |
| DF8AY | 2026-09-04 01:21:52 | 50.84837 | 9.20455 | 107° | 91km/h | 7344m | -3.5m/s | 0°C | 0% | 0hPa | 2.5V | 07:41:47 | 03:03:58 | 00:00:00 | |
| DL1NUX | 2026-09-04 01:21:52 | 50.84850 | 9.20382 | 104° | 99km/h | 7351m | -3.5m/s | -19.3°C | 87.2% | 410.1hPa | 2.6V | 07:41:27 | 03:03:56 | 00:00:00 | |
| BIOWL1-15 | 2026-09-04 01:21:49 | 50.84865 | 9.20302 | 108° | 106km/h | 7358m | -2.9m/s | -19.3°C | 84.4% | 409.7hPa | 2.5V | 07:41:47 | 03:03:54 | 00:00:00 | |
| HSKMA3-T | 2026-09-04 01:21:49 | 50.84857 | 9.20343 | 107° | 104km/h | 7355m | -3.7m/s | -19.3°C | 84.2% | 409.9hPa | 2.6V | 07:41:47 | 03:03:55 | 00:00:00 | |
| DD1CC8 | 2026-09-04 01:21:48 | 50.84874 | 9.20262 | 110° | 108km/h | 7361m | -3.3m/s | -19.3°C | 84.5% | 409.5hPa | 2.5V | 00:00:00 | 00:00:00 | 00:00:00 | |
| DJ3KS | 2026-09-04 01:21:47 | 50.84865 | 9.20302 | 109° | 106km/h | 7358m | -2.9m/s | -19.3°C | 84.5% | 409.7hPa | 2.5V | 00:00:00 | 00:00:00 | 00:00:00 | |
| DD8BA-10 | 2026-09-04 01:21:46 | 50.84884 | 9.20222 | 115° | 99km/h | 7365m | -3.4m/s | -19.3°C | 87.8% | 409.2hPa | 2.5V | 00:00:00 | 00:00:00 | 00:00:00 | |
| DM0DOS-11 | 2026-09-04 01:21:45 | 50.84917 | 9.20112 | 114° | 93km/h | 7374m | -3.1m/s | -19.4°C | 88.6% | 408.7hPa | 2.5V | 07:41:34 | 03:03:49 | 00:00:00 | |
| DL1LOL-11 | 2026-09-04 01:21:45 | 50.84895 | 9.20184 | 116° | 104km/h | 7368m | -3.3m/s | -19.4°C | 84.6% | 409.1hPa | 2.6V | 00:00:00 | 00:00:00 | 00:00:00 | |
| DO3DL | 2026-09-04 01:21:43 | 50.84907 | 9.20147 | 118° | 100km/h | 7371m | -3.2m/s | -19.4°C | 85.0% | 408.9hPa | 2.6V | 07:41:00 | 00:00:00 | 00:00:00 | |
| DL1NUX | 2026-09-04 01:21:42 | 50.84942 | 9.20010 | 106° | 91km/h | 7385m | -2.9m/s | -19.5°C | 89.5% | 408.1hPa | 2.6V | 07:41:37 | 03:03:46 | 00:00:00 | |
| DB0ND-19 | 2026-09-04 01:21:41 | 50.84942 | 9.20010 | 106° | 91km/h | 7385m | -2.9m/s | -19.5°C | 86.0% | 408.1hPa | 2.6V | 00:00:00 | 00:00:00 | 00:00:00 | |
| DM0DOS-11 | 2026-09-04 01:21:38 | 50.85001 | 9.19736 | 115° | 104km/h | 7408m | -3.7m/s | -19.6°C | 90% | 406.9hPa | 2.6V | 07:41:44 | 03:03:39 | 00:00:00 | |
| HSKMA3-T | 2026-09-04 01:21:38 | 50.84955 | 9.19936 | 105° | 102km/h | 7392m | -3.5m/s | -19.5°C | 85% | 407.8hPa | 2.6V | 07:41:47 | 03:03:44 | 00:00:00 | |
| BIOWL1-15 | 2026-09-04 01:21:37 | 50.84962 | 9.19896 | 106° | 104km/h | 7395m | -2.9m/s | -19.6°C | 85.1% | 407.6hPa | 2.5V | 07:41:47 | 03:03:43 | 00:00:00 | |
| DL1XH-west | 2026-09-04 01:21:36 | 50.84970 | 9.19855 | 108° | 110km/h | 7398m | -3.7m/s | -19.5°C | 85.4% | 407.4hPa | 2.5V | 07:41:47 | 03:03:42 | 00:00:00 | |
| DF8AY | 2026-09-04 01:21:30 | 50.85033 | 9.19633 | 114° | 89km/h | 7419m | -3.1m/s | 0°C | 0% | 0hPa | 2.5V | 07:41:47 | 03:03:36 | 00:00:00 | |
| HSKMA3-T | 2026-09-04 01:21:27 | 50.85056 | 9.19533 | 107° | 93km/h | 7430m | -4m/s | -19.8°C | 86.9% | 405.7hPa | 2.6V | 07:42:38 | 03:03:33 | 00:00:00 | |
| BIOWL1-15 | 2026-09-04 01:21:26 | 50.85107 | 9.19296 | 115° | 106km/h | 7451m | -3.2m/s | -19.9°C | 87.2% | 404.5hPa | 2.5V | 07:42:38 | 03:03:27 | 00:00:00 | |
| DL1XH-west | 2026-09-04 01:21:26 | 50.85063 | 9.19496 | 106° | 99km/h | 7433m | -4m/s | -19.8°C | 87% | 405.5hPa | 2.5V | 07:42:38 | 03:03:32 | 00:00:00 | |
| DD8BA-10 | 2026-09-04 01:21:26 | 50.85062 | 9.19496 | 107° | 102km/h | 7433m | -4.0m/s | -19.7°C | 89.9% | 405.5hPa | 2.6V | 00:00:00 | 00:00:00 | 00:00:00 | |
| DM0DOS-11 | 2026-09-04 01:21:25 | 50.85097 | 9.19335 | 112° | 108km/h | 7447m | -3.4m/s | -19.9°C | 90.3% | 404.7hPa | 2.6V | 07:41:55 | 03:03:28 | 00:00:00 | |
| DO9LL-15 | 2026-09-04 01:21:25 | 50.85070 | 9.19457 | 106° | 99km/h | 7437m | -3.4m/s | -19.8°C | 90.1% | 405.2hPa | 2.5V | 00:00:00 | 03:03:31 | 00:00:00 | |
| AM1SDL-15 | 2026-09-04 01:21:24 | 50.85077 | 9.19416 | 108° | 102km/h | 7441m | -3.3m/s | -19.8°C | 90.2% | 405.0hPa | 2.5V | 00:00:00 | 03:03:30 | 00:00:00 | |
| DL1NUX | 2026-09-04 01:21:22 | 50.85118 | 9.19259 | 115° | 100km/h | 7454m | -3.5m/s | -20°C | 90.8% | 404.3hPa | 2.5V | 07:41:57 | 03:03:26 | 00:00:00 | |
| BIOWL1-15 | 2026-09-04 01:21:16 | 50.85163 | 9.19086 | 107° | 95km/h | 7470m | -3.2m/s | -20.1°C | 87.3% | 403.4hPa | 2.5V | 07:42:38 | 03:03:21 | 00:00:00 | |
| DL1XH-west | 2026-09-04 01:21:16 | 50.85156 | 9.19121 | 108° | 91km/h | 7468m | -2.7m/s | -20.1°C | 87.3% | 403.5hPa | 2.6V | 07:42:38 | 03:03:22 | 00:00:00 | |
| DD8BA-10 | 2026-09-04 01:21:16 | 50.85156 | 9.19121 | 108° | 99km/h | 7468m | -2.6m/s | -20.0°C | 91.5% | 403.5hPa | 2.6V | 00:00:00 | 00:00:00 | 00:00:00 | |
| DM0DOS-11 | 2026-09-04 01:21:15 | 50.85184 | 9.18970 | 107° | 104km/h | 7480m | -2.9m/s | -20.2°C | 92% | 403hPa | 2.6V | 07:42:05 | 03:03:18 | 00:00:00 | |
| DL1XH-west | 2026-09-04 01:21:06 | 50.85240 | 9.18753 | 110° | 91km/h | 7498m | -3.1m/s | -20.3°C | 88.3% | 401.9hPa | 2.6V | 07:42:38 | 03:03:12 | 00:00:00 | |
| DD8BA-10 | 2026-09-04 01:21:06 | 50.85240 | 9.18753 | 110° | 99km/h | 7498m | -3.1m/s | -20.3°C | 93.3% | 401.9hPa | 2.6V | 07:42:00 | 00:00:00 | 00:00:00 | |
| DM0DOS-11 | 2026-09-04 01:21:05 | 50.85271 | 9.18604 | 109° | 106km/h | 7510m | -3.4m/s | -20.4°C | 94.3% | 401.2hPa | 2.5V | 07:42:15 | 03:03:08 | 00:00:00 | |
| DF2AP-13 | 2026-09-04 01:21:05 | 50.85248 | 9.18718 | 108° | 100km/h | 7501m | -3.0m/s | -20.3°C | 93.6% | 401.7hPa | 2.6V | 00:00:00 | 03:03:11 | 00:00:00 | |
| DL1NUX | 2026-09-04 01:21:02 | 50.85291 | 9.18527 | 113° | 104km/h | 7517m | -3.2m/s | -20.5°C | 94.6% | 400.8hPa | 2.6V | 07:42:17 | 03:03:06 | 00:00:00 | |
| AM1SDL-15 | 2026-09-04 01:21:00 | 50.85291 | 9.18527 | 114° | 99km/h | 7517m | -3.1m/s | -20.4°C | 94.6% | 400.8hPa | 2.6V | 00:00:00 | 03:03:06 | 00:00:00 | |
| DB0UT-7 | 2026-09-04 01:20:59 | 50.85301 | 9.18489 | 115° | 100km/h | 7520m | -3.5m/s | -20.5°C | 94.7% | 400.7hPa | 2.6V | 00:00:00 | 00:00:00 | 00:00:00 | |
| DJ8HS-15 | 2026-09-04 01:20:58 | 50.85311 | 9.18453 | 114° | 100km/h | 7524m | -3.0m/s | -20.5°C | 94.8% | 400.4hPa | 2.6V | 07:42:00 | 03:03:04 | 00:00:00 | |
| DM0DOS-11 | 2026-09-04 01:20:57 | 50.85355 | 9.18233 | 105° | 104km/h | 7543m | -3.4m/s | -20.7°C | 95.7% | 399.5hPa | 2.6V | 07:42:25 | 03:02:58 | 00:00:00 | |
| BIOWL1-15 | 2026-09-04 01:20:56 | 50.85329 | 9.18384 | 109° | 91km/h | 7530m | -3.4m/s | -20.6°C | 90.9% | 400.2hPa | 2.5V | 07:42:38 | 03:03:02 | 00:00:00 | |
| DL1XH-west | 2026-09-04 01:20:55 | 50.85336 | 9.18349 | 106° | 93km/h | 7533m | -3.2m/s | -20.6°C | 91% | 399.9hPa | 2.5V | 07:42:38 | 03:03:01 | 00:00:00 | |
| DL3AQ-11 | 2026-09-04 01:20:54 | 50.85348 | 9.18273 | 104° | 100km/h | 7540m | -3.7m/s | -20.7°C | 91.4% | 399.7hPa | 2.5V | 00:00:00 | 00:00:00 | 00:00:00 | |
| DL1LOL-11 | 2026-09-04 01:20:53 | 50.85342 | 9.18312 | 105° | 97km/h | 7536m | -3.4m/s | -20.7°C | 91.1% | 399.8hPa | 2.5V | 00:00:00 | 00:00:00 | 00:00:00 | |
| DL1NUX | 2026-09-04 01:20:52 | 50.85372 | 9.18152 | 110° | 110km/h | 7551m | -3.5m/s | -20.8°C | 96.6% | 399hPa | 2.5V | 07:42:27 | 03:02:56 | 00:00:00 | |
| BIOWL1-15 | 2026-09-04 01:20:48 | 50.85413 | 9.18002 | 114° | 93km/h | 7564m | -3.3m/s | -20.9°C | 92.6% | 398.3hPa | 2.6V | 07:42:38 | 03:02:52 | 00:00:00 | |
| DJ2DS-15 | 2026-09-04 01:20:48 | 50.85392 | 9.18073 | 115° | 100km/h | 7557m | -3.3m/s | -20.8°C | 97.2% | 398.6hPa | 2.6V | 00:00:00 | 03:02:54 | 00:00:00 | |
| DD8BA-10 | 2026-09-04 01:20:46 | 50.85413 | 9.18002 | 115° | 100km/h | 7564m | -3.2m/s | -20.8°C | 97.1% | 398.2hPa | 2.6V | 00:00:00 | 00:00:00 | 00:00:00 | |
| DM0DOS-11 | 2026-09-04 01:20:45 | 50.85446 | 9.17862 | 106° | 100km/h | 7577m | -3.5m/s | -21°C | 97.4% | 397.6hPa | 2.6V | 07:42:35 | 03:02:48 | 00:00:00 | |
| HSKMA3-T | 2026-09-04 01:20:44 | 50.85431 | 9.17935 | 110° | 91km/h | 7570m | -3.6m/s | -20.9°C | 92.7% | 397.9hPa | 2.5V | 07:42:38 | 03:02:50 | 00:00:00 | |
| DL1NUX | 2026-09-04 01:20:42 | 50.85461 | 9.17782 | 108° | 108km/h | 7584m | -3.3m/s | -21.1°C | 97.4% | 397.2hPa | 2.5V | 07:42:37 | 03:02:46 | 00:00:00 | |
| DL1XH-west | 2026-09-04 01:20:42 | 50.85446 | 9.17862 | 107° | 100km/h | 7578m | -3.5m/s | -21°C | 93.2% | 397.6hPa | 2.6V | 07:42:38 | 03:02:48 | 00:00:00 | |
| BIOWL1-15 | 2026-09-04 01:20:36 | 50.85500 | 9.17622 | 113° | 102km/h | 7599m | -3.2m/s | -21.2°C | 91.2% | 396.5hPa | 2.6V | 07:43:29 | 03:02:42 | 00:00:00 | |
| DD8BA-10 | 2026-09-04 01:20:36 | 50.85499 | 9.17622 | 113° | 102km/h | 7599m | -3.1m/s | -21.2°C | 96.0% | 396.4hPa | 2.6V | 00:00:00 | 00:00:00 | 00:00:00 | |
| DM0DOS-11 | 2026-09-04 01:20:35 | 50.85534 | 9.17474 | 107° | 100km/h | 7611m | -3.6m/s | -21.4°C | 95.1% | 395.8hPa | 2.5V | 07:42:45 | 03:02:38 | 00:00:00 | |
| HSKMA3-T | 2026-09-04 01:20:34 | 50.85526 | 9.17511 | 108° | 97km/h | 7608m | -3.5m/s | -21.3°C | 90.8% | 396hPa | 2.5V | 07:43:29 | 03:02:39 | 00:00:00 | |
| DL1NUX | 2026-09-04 01:20:32 | 50.85550 | 9.17395 | 109° | 106km/h | 7618m | -3.6m/s | -21.4°C | 95.8% | 395.4hPa | 2.6V | 07:42:47 | 03:02:36 | 00:00:00 | |
| DL1XH-west | 2026-09-04 01:20:31 | 50.85541 | 9.17435 | 108° | 104km/h | 7615m | -3.6m/s | -21.4°C | 90.7% | 395.6hPa | 2.6V | 07:45:11 | 03:02:37 | 00:00:00 | |
| BIOWL1-15 | 2026-09-04 01:20:25 | 50.85618 | 9.17093 | 105° | 104km/h | 7646m | -3.6m/s | -21.6°C | 89.2% | 393.9hPa | 2.6V | 07:43:29 | 03:02:28 | 00:00:00 | |
| DM0DOS-11 | 2026-09-04 01:20:25 | 50.85618 | 9.17093 | 104° | 104km/h | 7646m | -3.6m/s | -21.6°C | 94.2% | 393.9hPa | 2.6V | 07:42:55 | 03:02:28 | 00:00:00 | |
| HSKMA3-T | 2026-09-04 01:20:23 | 50.85611 | 9.17133 | 105° | 99km/h | 7643m | -3.4m/s | -21.6°C | 91.3% | 394.2hPa | 2.5V | 07:43:29 | 03:02:29 | 00:00:00 | |
| DL1NUX | 2026-09-04 01:20:22 | 50.85633 | 9.17011 | 108° | 111km/h | 7653m | -3.2m/s | -21.6°C | 93.4% | 393.5hPa | 2.6V | 07:42:57 | 03:02:26 | 00:00:00 | |
| DL1XH-west | 2026-09-04 01:20:21 | 50.85625 | 9.17053 | 106° | 108km/h | 7650m | -3.5m/s | -21.6°C | 89% | 393.7hPa | 2.6V | 07:45:11 | 03:02:27 | 00:00:00 | |
| DL4BBY-15 | 2026-09-04 01:20:19 | 50.85642 | 9.16969 | 111° | 113km/h | 7656m | -2.8m/s | -21.0°C | 0% | 0hPa | 2.5V | 00:00:00 | 00:00:00 | 00:00:00 | |
| DJ8HS-15 | 2026-09-04 01:20:18 | 50.85653 | 9.16927 | 113° | 106km/h | 7659m | -2.9m/s | -21.4°C | 89.8% | 393.2hPa | 2.5V | 00:00:00 | 03:02:24 | 00:00:00 | |
| DM0DOS-11 | 2026-09-04 01:20:17 | 50.85710 | 9.16698 | 105° | 102km/h | 7679m | -3.5m/s | -21.7°C | 91.3% | 392.2hPa | 2.5V | 07:43:05 | 03:02:18 | 00:00:00 | |
| DD8BA-10 | 2026-09-04 01:20:16 | 50.85675 | 9.16848 | 115° | 106km/h | 7665m | -3.1m/s | -21.4°C | 89.1% | 392.9hPa | 2.6V | 00:00:00 | 00:00:00 | 00:00:00 | |
| DO3DL | 2026-09-04 01:20:14 | 50.85685 | 9.16811 | 114° | 100km/h | 7668m | -3.2m/s | -21.5°C | 85.4% | 392.8hPa | 2.6V | 07:43:00 | 00:00:00 | 00:00:00 | |
| DL8OAI-8 | 2026-09-04 01:20:13 | 50.85695 | 9.16774 | 111° | 99km/h | 7672m | -3.5m/s | -21.5°C | 86.1% | 392.6hPa | 2.6V | 07:43:00 | 00:00:00 | 00:00:00 | |
| DL1NUX | 2026-09-04 01:20:12 | 50.85725 | 9.16616 | 106° | 110km/h | 7686m | -3.9m/s | -21.7°C | 90.3% | 391.8hPa | 2.6V | 07:43:07 | 03:02:16 | 00:00:00 | |
| HSKMA3-T | 2026-09-04 01:20:12 | 50.85710 | 9.16697 | 106° | 102km/h | 7679m | -3.5m/s | -21.7°C | 87.9% | 392.2hPa | 2.5V | 07:43:29 | 03:02:18 | 00:00:00 | |
| DL1XH-west | 2026-09-04 01:20:11 | 50.85717 | 9.16657 | 106° | 106km/h | 7682m | -3.8m/s | -21.7°C | 87.8% | 392hPa | 2.5V | 07:45:11 | 03:02:17 | 00:00:00 | |
| BIOWL1-15 | 2026-09-04 01:20:06 | 50.85816 | 9.16219 | 109° | 110km/h | 7724m | -3.9m/s | -22°C | 85.9% | 389.9hPa | 2.6V | 07:43:29 | 03:02:06 | 00:00:00 | |
| DD8BA-10 | 2026-09-04 01:20:06 | 50.85763 | 9.16451 | 114° | 106km/h | 7701m | -3.4m/s | -21.7°C | 90.1% | 391.0hPa | 2.5V | 00:00:00 | 00:00:00 | 00:00:00 | |
| DM0DOS-11 | 2026-09-04 01:20:05 | 50.85799 | 9.16300 | 107° | 102km/h | 7716m | -3.8m/s | -21.9°C | 89% | 390.3hPa | 2.5V | 07:43:15 | 03:02:08 | 00:00:00 | |
| AM1SDL-15 | 2026-09-04 01:20:04 | 50.85782 | 9.16376 | 111° | 106km/h | 7708m | -3.5m/s | -21.8°C | 87.7% | 390.6hPa | 2.6V | 07:43:00 | 03:02:10 | 00:00:00 | |
| DL1NUX | 2026-09-04 01:20:02 | 50.85815 | 9.16219 | 109° | 110km/h | 7724m | -3.9m/s | -22°C | 87.8% | 389.9hPa | 2.6V | 07:43:17 | 03:02:06 | 00:00:00 | |
| HSKMA3-T | 2026-09-04 01:20:01 | 50.85807 | 9.16260 | 108° | 106km/h | 7720m | -3.8m/s | -21.9°C | 85.8% | 390hPa | 2.6V | 07:43:29 | 03:02:07 | 00:00:00 | |
| DB0UT-7 | 2026-09-04 01:19:59 | 50.85825 | 9.16178 | 111° | 106km/h | 7728m | -3.6m/s | -22.0°C | 88.1% | 389.6hPa | 2.6V | 00:00:00 | 00:00:00 | 00:00:00 | |
| DJ8HS-15 | 2026-09-04 01:19:58 | 50.85835 | 9.16137 | 113° | 106km/h | 7731m | -3.8m/s | -22.0°C | 88.5% | 389.4hPa | 2.5V | 00:00:00 | 03:02:04 | 00:00:00 | |
| DD8BA-10 | 2026-09-04 01:19:56 | 50.85857 | 9.16059 | 115° | 104km/h | 7740m | -3.7m/s | -22.0°C | 89.1% | 388.9hPa | 2.5V | 00:00:00 | 00:00:00 | 00:00:00 | |
| DM0DOS-11 | 2026-09-04 01:19:55 | 50.85894 | 9.15904 | 109° | 106km/h | 7755m | -3.8m/s | -22.2°C | 90.2% | 388.2hPa | 2.5V | 07:43:25 | 03:01:58 | 00:00:00 | |
| SONCRA | 2026-09-04 01:19:53 | 50.85894 | 9.15904 | 109° | 106km/h | 7755m | -3.8m/s | -22.2°C | 86.4% | 388.2hPa | 2.5V | 00:00:00 | 00:00:00 | 00:00:00 | |
| DL1NUX | 2026-09-04 01:19:52 | 50.85913 | 9.15823 | 111° | 110km/h | 7762m | -3.7m/s | -22.3°C | 90.5% | 387.8hPa | 2.5V | 07:43:27 | 03:01:56 | 00:00:00 | |
| BIOWL1-15 | 2026-09-04 01:19:50 | 50.85914 | 9.15823 | 112° | 110km/h | 7763m | -3.7m/s | -22.3°C | 87.9% | 387.8hPa | 2.5V | 07:43:29 | 03:01:56 | 00:00:00 | |
| AU51GT2 | 2026-09-04 01:19:47 | 50.85946 | 9.15707 | 115° | 99km/h | 7773m | -3.6m/s | -22.4°C | 87.3% | 387.2hPa | 2.6V | 00:00:00 | 00:00:00 | 00:00:00 | |
| DM0DOS-11 | 2026-09-04 01:19:45 | 50.85990 | 9.15521 | 109° | 108km/h | 7793m | -4m/s | -22.5°C | 92.5% | 386.2hPa | 2.6V | 07:43:35 | 03:01:48 | 00:00:00 | |
| DL1CLM-18 | 2026-09-04 01:19:44 | 50.85973 | 9.15599 | 110° | 99km/h | 7786m | -3.9m/s | -22.5°C | 87.8% | 386.5hPa | 2.5V | 00:00:00 | 00:00:00 | 00:00:00 | |
| DL1NUX | 2026-09-04 01:19:42 | 50.86010 | 9.15439 | 113° | 111km/h | 7801m | -3.8m/s | -22.6°C | 93% | 385.8hPa | 2.5V | 07:43:37 | 03:01:46 | 00:00:00 | |
| HSKMA3-T | 2026-09-04 01:19:39 | 50.86021 | 9.15398 | 115° | 111km/h | 7805m | -4.1m/s | -22.6°C | 89.7% | 385.6hPa | 2.5V | 07:44:20 | 03:01:45 | 00:00:00 | |
| BIOWL1-15 | 2026-09-04 01:19:39 | 50.86033 | 9.15359 | 116° | 108km/h | 7809m | -4.2m/s | -22.7°C | 89.8% | 385.4hPa | 2.6V | 07:44:20 | 03:01:44 | 00:00:00 | |
| BIOWL1-15 | 2026-09-04 01:19:33 | 50.86121 | 9.15007 | 112° | 113km/h | 7843m | -3.5m/s | -23°C | 91.6% | 383.7hPa | 2.6V | 07:44:20 | 03:01:35 | 00:00:00 | |
| DL1NUX | 2026-09-04 01:19:32 | 50.86110 | 9.15050 | 110° | 115km/h | 7839m | -3.8m/s | -22.9°C | 94.8% | 383.9hPa | 2.6V | 07:43:47 | 03:01:36 | 00:00:00 | |
| HSKMA3-T | 2026-09-04 01:19:28 | 50.86132 | 9.14966 | 114° | 111km/h | 7846m | -3.6m/s | -23°C | 91.7% | 383.5hPa | 2.5V | 07:44:20 | 03:01:34 | 00:00:00 | |
| DJ2DS-15 | 2026-09-04 01:19:28 | 50.86132 | 9.14966 | 114° | 108km/h | 7846m | -3.5m/s | -23.0°C | 95.3% | 383.4hPa | 2.5V | 00:00:00 | 03:01:34 | 00:00:00 | |
| DL1ZP-14 | 2026-09-04 01:19:27 | 50.86143 | 9.14926 | 115° | 106km/h | 7850m | -3.4m/s | -23.1°C | 91.4% | 383.4hPa | 2.5V | 00:00:00 | 00:00:00 | 00:00:00 | |
| DO9LL-15 | 2026-09-04 01:19:25 | 50.86165 | 9.14850 | 113° | 108km/h | 7857m | -3.4m/s | -23.1°C | 96.4% | 383.0hPa | 2.6V | 00:00:00 | 03:01:31 | 00:00:00 | |
| DL1NUX | 2026-09-04 01:19:22 | 50.86210 | 9.14652 | 111° | 111km/h | 7875m | -3.6m/s | -23.3°C | 97.8% | 382hPa | 2.6V | 07:43:57 | 03:01:26 | 00:00:00 | |
| BIOWL1-15 | 2026-09-04 01:19:20 | 50.86245 | 9.14531 | 117° | 110km/h | 7885m | -3.5m/s | -23.4°C | 94.8% | 381.4hPa | 2.5V | 07:44:20 | 03:01:23 | 00:00:00 | |
| HSKMA3-T | 2026-09-04 01:19:18 | 50.86233 | 9.14570 | 116° | 111km/h | 7882m | -3.3m/s | -23.4°C | 94.7% | 381.6hPa | 2.6V | 07:44:20 | 03:01:24 | 00:00:00 | |
| DL1XH-west | 2026-09-04 01:19:10 | 50.86318 | 9.14258 | 112° | 113km/h | 7910m | -3.2m/s | -23.7°C | 93.9% | 380.1hPa | 2.5V | 07:45:11 | 03:01:16 | 00:00:00 | |
| HSKMA3-T | 2026-09-04 01:19:08 | 50.86341 | 9.14175 | 115° | 111km/h | 7917m | -4.1m/s | -23.7°C | 87.9% | 379.7hPa | 2.6V | 07:44:20 | 03:01:14 | 00:00:00 | |
| BIOWL1-15 | 2026-09-04 01:19:07 | 50.86353 | 9.14135 | 116° | 110km/h | 7921m | -3.1m/s | -23.7°C | 87.6% | 379.6hPa | 2.6V | 07:44:20 | 03:01:13 | 00:00:00 | |
| DJ2DS-15 | 2026-09-04 01:19:07 | 50.86353 | 9.14134 | 116° | 111km/h | 7921m | -3.1m/s | -23.7°C | 91.1% | 379.6hPa | 2.5V | 00:00:00 | 03:01:13 | 00:00:00 | |
| DB0ND-19 | 2026-09-04 01:19:06 | 50.86454 | 9.13771 | 115° | 110km/h | 7953m | -3.4m/s | -23.9°C | 77.1% | 377.9hPa | 2.5V | 00:00:00 | 00:00:00 | 00:00:00 | |
| DM0DOS-11 | 2026-09-04 01:19:03 | 50.86454 | 9.13771 | 115° | 110km/h | 7953m | -3.4m/s | -23.9°C | 80.8% | 377.9hPa | 2.5V | 07:44:19 | 03:01:04 | 00:00:00 | |
| HSKMA3-T | 2026-09-04 01:18:57 | 50.86466 | 9.13732 | 115° | 106km/h | 7956m | -3.7m/s | -23.9°C | 79.5% | 377.7hPa | 2.5V | 07:44:20 | 03:01:03 | 00:00:00 | |
| BIOWL1-15 | 2026-09-04 01:18:56 | 50.86487 | 9.13655 | 111° | 106km/h | 7964m | -3.6m/s | -24°C | 74.8% | 377.4hPa | 2.6V | 07:45:11 | 03:01:01 | 00:00:00 | |
| DL1ZP-14 | 2026-09-04 01:18:56 | 50.86477 | 9.13694 | 113° | 104km/h | 7960m | -3.6m/s | -24.0°C | 77.9% | 377.5hPa | 2.6V | 00:00:00 | 00:00:00 | 00:00:00 | |
| DL3AQ-11 | 2026-09-04 01:18:53 | 50.86506 | 9.13573 | 109° | 111km/h | 7971m | -3.3m/s | -23.9°C | 68.2% | 377.0hPa | 2.6V | 00:00:00 | 00:00:00 | 00:00:00 | |
| DL1NUX | 2026-09-04 01:18:52 | 50.86540 | 9.13443 | 115° | 119km/h | 7980m | -4m/s | -24°C | 70.5% | 376.4hPa | 2.6V | 07:44:27 | 03:00:56 | 00:00:00 | |
| SONCRA | 2026-09-04 01:18:51 | 50.86540 | 9.13443 | 115° | 119km/h | 7980m | -4.0m/s | -24.0°C | 67.2% | 376.4hPa | 2.6V | 00:00:00 | 00:00:00 | 00:00:00 | |
| DM0DOS-11 | 2026-09-04 01:18:50 | 50.86567 | 9.13362 | 118° | 110km/h | 7988m | -3.3m/s | -24°C | 71.1% | 376.1hPa | 2.6V | 07:44:29 | 03:00:54 | 00:00:00 | |
| HSKMA3-T | 2026-09-04 01:18:47 | 50.86579 | 9.13323 | 117° | 108km/h | 7992m | -4.1m/s | -24.1°C | 71% | 375.9hPa | 2.5V | 07:45:11 | 03:00:53 | 00:00:00 | |
| BIOWL1-15 | 2026-09-04 01:18:45 | 50.86602 | 9.13247 | 113° | 102km/h | 7999m | -3.2m/s | -24.1°C | 71.6% | 375.6hPa | 2.5V | 07:45:11 | 03:00:51 | 00:00:00 | |
| BUE01 | 2026-09-04 01:18:44 | 50.86612 | 9.13209 | 110° | 106km/h | 8002m | -3.6m/s | -24.2°C | 68.7% | 375.4hPa | 2.5V | 00:00:00 | 00:00:00 | 00:00:00 | |
| DO3DL | 2026-09-04 01:18:43 | 50.86612 | 9.13208 | 111° | 108km/h | 8003m | -3.6m/s | -24.2°C | 68.7% | 375.4hPa | 2.5V | 07:45:00 | 00:00:00 | 00:00:00 | |
| DL1NUX | 2026-09-04 01:18:42 | 50.86653 | 9.13037 | 112° | 122km/h | 8017m | -3.8m/s | -24.3°C | 73% | 374.7hPa | 2.5V | 07:44:37 | 03:00:46 | 00:00:00 | |
| DD1CC8 | 2026-09-04 01:18:41 | 50.86641 | 9.13081 | 111° | 117km/h | 8013m | -3.6m/s | -24.2°C | 69.2% | 374.8hPa | 2.6V | 00:00:00 | 00:00:00 | 00:00:00 | |
| DM0DOS-11 | 2026-09-04 01:18:40 | 50.86678 | 9.12951 | 116° | 117km/h | 8024m | -3.4m/s | -24.3°C | 73.6% | 374.2hPa | 2.6V | 07:44:39 | 03:00:44 | 00:00:00 | |
| HSKMA3-T | 2026-09-04 01:18:36 | 50.86705 | 9.12872 | 117° | 106km/h | 8031m | -3.6m/s | -24.4°C | 73.6% | 373.9hPa | 2.6V | 07:45:11 | 03:00:42 | 00:00:00 | |
| BIOWL1-15 | 2026-09-04 01:18:34 | 50.86728 | 9.12797 | 114° | 102km/h | 8038m | -3.3m/s | -24.4°C | 74.4% | 373.6hPa | 2.5V | 07:45:11 | 03:00:40 | 00:00:00 | |
| BIOWL9-15 | 2026-09-04 01:18:31 | 50.86756 | 9.12676 | 109° | 115km/h | 8048m | -3.7m/s | -24.5°C | 73.4% | 373.0hPa | 2.5V | 00:00:00 | 00:00:00 | 00:00:00 | |
| DM0DOS-11 | 2026-09-04 01:18:30 | 50.86789 | 9.12544 | 115° | 120km/h | 8059m | -3.6m/s | -24.6°C | 77.3% | 372.5hPa | 2.5V | 07:44:49 | 03:00:34 | 00:00:00 | |
| HSKMA3-T | 2026-09-04 01:18:26 | 50.86816 | 9.12460 | 118° | 115km/h | 8066m | -3.7m/s | -24.6°C | 76.2% | 372.1hPa | 2.6V | 07:45:11 | 03:00:32 | 00:00:00 | |
| BIOWL1-15 | 2026-09-04 01:18:24 | 50.86842 | 9.12382 | 118° | 104km/h | 8074m | -3.6m/s | -24.6°C | 76% | 371.8hPa | 2.6V | 07:45:11 | 03:00:30 | 00:00:00 | |
| DO3DL | 2026-09-04 01:18:24 | 50.86842 | 9.12382 | 119° | 104km/h | 8074m | -3.6m/s | -24.6°C | 73.4% | 371.8hPa | 2.6V | 07:45:00 | 00:00:00 | 00:00:00 | |
| DL1NUX | 2026-09-04 01:18:22 | 50.86883 | 9.12227 | 110° | 111km/h | 8087m | -3.5m/s | -24.7°C | 77.4% | 371hPa | 2.6V | 07:44:57 | 03:00:26 | 00:00:00 | |
| DF8AY | 2026-09-04 01:18:17 | 50.86916 | 9.12097 | 114° | 120km/h | 8097m | -3.6m/s | -24.8°C | 77.1% | 370.5hPa | 2.5V | 07:45:11 | 03:00:23 | 00:00:00 | |
| HSKMA3-T | 2026-09-04 01:18:15 | 50.86942 | 9.12013 | 118° | 113km/h | 8104m | -3.8m/s | -24.9°C | 77.2% | 370.2hPa | 2.5V | 07:45:11 | 03:00:21 | 00:00:00 | |
| BIOWL1-15 | 2026-09-04 01:18:14 | 50.86955 | 9.11974 | 117° | 108km/h | 8107m | -3.1m/s | -24.9°C | 77.4% | 370hPa | 2.6V | 07:45:11 | 03:00:20 | 00:00:00 | |
| DL3AQ-11 | 2026-09-04 01:18:14 | 50.86967 | 9.11936 | 114° | 104km/h | 8110m | -3.4m/s | -25.0°C | 74.7% | 369.8hPa | 2.6V | 00:00:00 | 00:00:00 | 00:00:00 | |
| BUE01 | 2026-09-04 01:18:13 | 50.86978 | 9.11898 | 114° | 102km/h | 8114m | -3.4m/s | -25.0°C | 75.0% | 369.6hPa | 2.6V | 00:00:00 | 00:00:00 | 00:00:00 | |
| DL1XH1-15 | 2026-09-04 01:18:12 | 50.87027 | 9.11687 | 113° | 120km/h | 8131m | -3.9m/s | -25.1°C | 79.3% | 368.8hPa | 2.6V | 07:45:10 | 03:00:13 | 00:00:00 | |
| DF8AY | 2026-09-04 01:18:12 | 50.87027 | 9.11687 | 113° | 120km/h | 8131m | -3.9m/s | -25.2°C | 78.3% | 368.8hPa | 2.6V | 07:45:11 | 03:00:13 | 00:00:00 | |
| DL1NUX | 2026-09-04 01:18:12 | 50.86997 | 9.11819 | 109° | 108km/h | 8120m | -3.3m/s | -25.1°C | 78.9% | 369.2hPa | 2.5V | 07:45:07 | 03:00:16 | 00:00:00 | |
| DL1XH-west | 2026-09-04 01:18:08 | 50.87016 | 9.11732 | 110° | 119km/h | 8127m | -3.8m/s | -25.1°C | 78.1% | 369hPa | 2.6V | 07:45:11 | 03:00:14 | 00:00:00 | |
| HSKMA3-T | 2026-09-04 01:18:04 | 50.87066 | 9.11559 | 117° | 113km/h | 8142m | -3.7m/s | -25.3°C | 78.3% | 368.2hPa | 2.6V | 07:46:02 | 03:00:10 | 00:00:00 | |
| BIOWL1-15 | 2026-09-04 01:18:03 | 50.87079 | 9.11521 | 118° | 110km/h | 8145m | -3.7m/s | -25.3°C | 78.7% | 368hPa | 2.6V | 07:46:02 | 03:00:09 | 00:00:00 | |
| DL1XH1-15 | 2026-09-04 01:18:02 | 50.87141 | 9.11283 | 110° | 117km/h | 8166m | -3.7m/s | -25.4°C | 78.4% | 367hPa | 2.5V | 07:45:20 | 03:00:03 | 00:00:00 | |
| DL1NUX | 2026-09-04 01:18:02 | 50.87112 | 9.11407 | 110° | 106km/h | 8156m | -3.9m/s | -25.4°C | 79.6% | 367.5hPa | 2.6V | 07:45:17 | 03:00:06 | 00:00:00 | |
| DL1XH-west | 2026-09-04 01:17:57 | 50.87141 | 9.11283 | 111° | 117km/h | 8166m | -3.7m/s | -25.5°C | 77.5% | 367hPa | 2.5V | 07:46:02 | 03:00:03 | 00:00:00 | |
| DF8AY | 2026-09-04 01:17:56 | 50.87152 | 9.11239 | 112° | 122km/h | 8169m | -3.7m/s | -25.5°C | 77.3% | 366.8hPa | 2.6V | 07:46:02 | 03:00:02 | 00:00:00 | |
| HSKMA3-T | 2026-09-04 01:17:54 | 50.87176 | 9.11152 | 116° | 117km/h | 8176m | -3.2m/s | -25.5°C | 74.5% | 366.4hPa | 2.5V | 07:46:02 | 03:00:00 | 00:00:00 | |
| BIOWL1-15 | 2026-09-04 01:17:53 | 50.87190 | 9.11111 | 118° | 115km/h | 8180m | -3.9m/s | -25.5°C | 72.9% | 366.3hPa | 2.5V | 07:46:02 | 02:59:59 | 00:00:00 | |
| DL1XH1-15 | 2026-09-04 01:17:52 | 50.87254 | 9.10872 | 108° | 115km/h | 8203m | -4m/s | -25.7°C | 73.1% | 365.3hPa | 2.6V | 07:45:30 | 02:59:53 | 00:00:00 | |
| DL1XH-west | 2026-09-04 01:17:47 | 50.87254 | 9.10872 | 108° | 115km/h | 8203m | -4m/s | -25.7°C | 73.1% | 365.3hPa | 2.6V | 07:46:02 | 02:59:53 | 00:00:00 | |
| DF8AY | 2026-09-04 01:17:46 | 50.87263 | 9.10827 | 109° | 119km/h | 8207m | -3.9m/s | -25.7°C | 73.2% | 365.1hPa | 2.6V | 07:46:02 | 02:59:52 | 00:00:00 | |
| HSKMA3-T | 2026-09-04 01:17:43 | 50.87298 | 9.10693 | 117° | 119km/h | 8218m | -3.4m/s | -25.8°C | 71.5% | 364.5hPa | 2.5V | 07:46:02 | 02:59:49 | 00:00:00 | |
| BIOWL1-15 | 2026-09-04 01:17:42 | 50.87362 | 9.10495 | 113° | 102km/h | 8237m | -3.3m/s | -26°C | 69.2% | 363.6hPa | 2.5V | 07:46:02 | 02:59:44 | 00:00:00 | |
| DL1XH1-15 | 2026-09-04 01:17:42 | 50.87372 | 9.10456 | 110° | 108km/h | 8241m | -3.8m/s | -26°C | 68.1% | 363.4hPa | 2.5V | 07:45:40 | 02:59:43 | 00:00:00 | |
| DL1NUX | 2026-09-04 01:17:42 | 50.87339 | 9.10571 | 118° | 108km/h | 8229m | -4m/s | -25.9°C | 69.2% | 364hPa | 2.6V | 07:45:37 | 02:59:46 | 00:00:00 | |
| DL1XH-west | 2026-09-04 01:17:37 | 50.87372 | 9.10456 | 110° | 108km/h | 8241m | -3.8m/s | -26°C | 68.6% | 363.4hPa | 2.5V | 07:46:02 | 02:59:43 | 00:00:00 | |
| DF8AY | 2026-09-04 01:17:35 | 50.87390 | 9.10372 | 108° | 117km/h | 8248m | -3.7m/s | -26.1°C | 69.3% | 363.1hPa | 2.6V | 07:46:02 | 02:59:41 | 00:00:00 | |
| HSKMA3-T | 2026-09-04 01:17:33 | 50.87410 | 9.10282 | 112° | 122km/h | 8256m | -3.8m/s | -26.1°C | 71.7% | 362.7hPa | 2.6V | 07:46:02 | 02:59:39 | 00:00:00 | |
| BIOWL1-15 | 2026-09-04 01:17:31 | 50.87435 | 9.10191 | 116° | 124km/h | 8263m | -3.4m/s | -26.2°C | 73.8% | 362.3hPa | 2.5V | 07:46:02 | 02:59:37 | 00:00:00 | |
| DM0DOS-11 | 2026-09-04 01:17:30 | 50.87475 | 9.10066 | 116° | 110km/h | 8273m | -3.3m/s | -26.3°C | 73.8% | 361.8hPa | 2.6V | 07:45:49 | 02:59:34 | 00:00:00 | |
| DF8AY | 2026-09-04 01:17:29 | 50.87517 | 9.09905 | 109° | 113km/h | 8286m | -3.2m/s | -26.4°C | 69.5% | 361.1hPa | 2.6V | 07:46:02 | 02:59:30 | 00:00:00 | |
| DL1XH-west | 2026-09-04 01:17:26 | 50.87498 | 9.09988 | 112° | 106km/h | 8280m | -3m/s | -26.4°C | 72.5% | 361.4hPa | 2.5V | 07:46:02 | 02:59:32 | 00:00:00 | |
| HSKMA3-T | 2026-09-04 01:17:23 | 50.87526 | 9.09861 | 109° | 117km/h | 8289m | -3.4m/s | -26.4°C | 67.1% | 360.9hPa | 2.5V | 07:46:02 | 02:59:29 | 00:00:00 | |
| BIOWL1-15 | 2026-09-04 01:17:20 | 50.87586 | 9.09644 | 117° | 113km/h | 8305m | -2.7m/s | -26.6°C | 65.2% | 360hPa | 2.5V | 07:46:02 | 02:59:24 | 00:00:00 | |
| DM0DOS-11 | 2026-09-04 01:17:20 | 50.87586 | 9.09644 | 117° | 113km/h | 8305m | -2.7m/s | -26.6°C | 65% | 360hPa | 2.5V | 07:45:59 | 02:59:24 | 00:00:00 | |
| DL1XH-west | 2026-09-04 01:17:15 | 50.87621 | 9.09524 | 112° | 110km/h | 8316m | -3.8m/s | -26.7°C | 62.2% | 359.5hPa | 2.6V | 07:46:02 | 02:59:21 | 00:00:00 | |
| DF8AY | 2026-09-04 01:17:14 | 50.87631 | 9.09483 | 111° | 113km/h | 8319m | -3.7m/s | -26.7°C | 60.5% | 359.3hPa | 2.6V | 07:46:53 | 02:59:20 | 00:00:00 | |
| HSKMA3-T | 2026-09-04 01:17:13 | 50.87652 | 9.09396 | 112° | 120km/h | 8327m | -3.2m/s | -26.8°C | 58.7% | 359hPa | 2.5V | 07:46:53 | 02:59:18 | 00:00:00 | |
| DL1XH1-15 | 2026-09-04 01:17:13 | 50.87712 | 9.09185 | 113° | 108km/h | 8343m | -2.8m/s | -26.9°C | 58.5% | 358.2hPa | 2.5V | 07:46:10 | 02:59:13 | 00:00:00 | |
| DL1NUX | 2026-09-04 01:17:12 | 50.87676 | 9.09308 | 114° | 119km/h | 8332m | -3.6m/s | -26.8°C | 57.7% | 358.6hPa | 2.6V | 07:46:07 | 02:59:16 | 00:00:00 | |
| AU51GT2 | 2026-09-04 01:17:12 | 50.87652 | 9.09396 | 111° | 119km/h | 8326m | -3.2m/s | -26.8°C | 54.5% | 359.0hPa | 2.6V | 00:00:00 | 00:00:00 | 00:00:00 | |
| DM0DOS-11 | 2026-09-04 01:17:10 | 50.87701 | 9.09225 | 115° | 113km/h | 8339m | -3.3m/s | -26.9°C | 58.5% | 358.3hPa | 2.6V | 07:46:09 | 02:59:14 | 00:00:00 | |
| BIOWL1-15 | 2026-09-04 01:17:10 | 50.87676 | 9.09308 | 114° | 119km/h | 8332m | -3.6m/s | -26.8°C | 58.6% | 358.6hPa | 2.6V | 07:46:53 | 02:59:16 | 00:00:00 | |
| DF8AY | 2026-09-04 01:17:09 | 50.87741 | 9.09061 | 109° | 115km/h | 8352m | -3.9m/s | -27°C | 60.1% | 357.6hPa | 2.6V | 07:46:53 | 02:59:10 | 00:00:00 | |
| DL1XH-west | 2026-09-04 01:17:05 | 50.87732 | 9.09104 | 109° | 110km/h | 8349m | -3.3m/s | -27°C | 60.1% | 357.8hPa | 2.5V | 07:46:53 | 02:59:11 | 00:00:00 | |
| DF7PN | 2026-09-04 01:17:03 | 50.87760 | 9.08971 | 109° | 124km/h | 8359m | -3.5m/s | -27.1°C | 57.0% | 357.2hPa | 2.5V | 00:00:00 | 00:00:00 | 00:00:00 | |
| DL1XH1-15 | 2026-09-04 01:17:02 | 50.87824 | 9.08751 | 116° | 113km/h | 8378m | -3.8m/s | -27.2°C | 76.5% | 356.3hPa | 2.5V | 07:46:20 | 02:59:03 | 00:00:00 | |
| DL1NUX | 2026-09-04 01:17:02 | 50.87784 | 9.08879 | 114° | 124km/h | 8366m | -3.6m/s | -27.1°C | 64.2% | 356.8hPa | 2.6V | 07:46:17 | 02:59:06 | 00:00:00 | |
| HSKMA3-T | 2026-09-04 01:17:02 | 50.87760 | 9.08971 | 109° | 124km/h | 8359m | -3.5m/s | -27.1°C | 61.7% | 357.2hPa | 2.5V | 07:46:53 | 02:59:08 | 00:00:00 | |
| BIOWL1-15 | 2026-09-04 01:17:01 | 50.87798 | 9.08835 | 117° | 122km/h | 8370m | -3.9m/s | -27.1°C | 68.1% | 356.7hPa | 2.6V | 07:46:53 | 02:59:05 | 00:00:00 | |
| DL1XH-west | 2026-09-04 01:16:54 | 50.87858 | 9.08629 | 110° | 111km/h | 8388m | -3.1m/s | -27.3°C | 78.1% | 355.8hPa | 2.6V | 07:46:53 | 02:59:00 | 00:00:00 | |
| DL3AQ-11 | 2026-09-04 01:16:54 | 50.87867 | 9.08587 | 109° | 115km/h | 8391m | -3.5m/s | -27.3°C | 74.9% | 355.6hPa | 2.6V | 00:00:00 | 00:00:00 | 00:00:00 | |
| EDDB2-11 | 2026-09-04 01:16:53 | 50.87911 | 9.08407 | 114° | 120km/h | 8406m | -4.4m/s | -27.4°C | 75.1% | 354.9hPa | 2.6V | 00:00:00 | 00:00:00 | 00:00:00 | |
| DL1XH1-15 | 2026-09-04 01:16:52 | 50.87936 | 9.08321 | 114° | 117km/h | 8414m | -3.4m/s | -27.4°C | 76.6% | 354.6hPa | 2.6V | 07:46:30 | 02:58:53 | 00:00:00 | |
| HSKMA3-T | 2026-09-04 01:16:51 | 50.87888 | 9.08497 | 111° | 122km/h | 8398m | -3.9m/s | -27.3°C | 79% | 355.2hPa | 2.5V | 07:46:53 | 02:58:57 | 00:00:00 | |
| BIOWL1-15 | 2026-09-04 01:16:48 | 50.87924 | 9.08364 | 115° | 119km/h | 8410m | -3.9m/s | -27.4°C | 77.1% | 354.8hPa | 2.6V | 07:46:53 | 02:58:54 | 00:00:00 | |
| SONCRA | 2026-09-04 01:16:47 | 50.87949 | 9.08279 | 114° | 113km/h | 8418m | -3.4m/s | -27.5°C | 73.0% | 354.5hPa | 2.6V | 00:00:00 | 00:00:00 | 00:00:00 | |
| DL1XH-west | 2026-09-04 01:16:43 | 50.87983 | 9.08150 | 113° | 120km/h | 8428m | -3.9m/s | -27.5°C | 80.1% | 353.9hPa | 2.6V | 07:46:53 | 02:58:49 | 00:00:00 | |
| DL1XH1-15 | 2026-09-04 01:16:42 | 50.88053 | 9.07888 | 109° | 120km/h | 8450m | -3.7m/s | -27.6°C | 82.8% | 352.9hPa | 2.5V | 07:46:40 | 02:58:43 | 00:00:00 | |
| DL1NUX | 2026-09-04 01:16:42 | 50.88020 | 9.08019 | 113° | 117km/h | 8439m | -3.7m/s | -27.5°C | 83.3% | 353.3hPa | 2.5V | 07:46:37 | 02:58:46 | 00:00:00 | |
| HSKMA3-T | 2026-09-04 01:16:40 | 50.88020 | 9.08019 | 114° | 119km/h | 8439m | -3.7m/s | -27.5°C | 82% | 353.3hPa | 2.5V | 07:46:53 | 02:58:46 | 00:00:00 | |
| BIOWL1-15 | 2026-09-04 01:16:37 | 50.88075 | 9.07795 | 112° | 128km/h | 8458m | -4.2m/s | -27.7°C | 81.6% | 352.5hPa | 2.5V | 07:46:53 | 02:58:41 | 00:00:00 | |
| DL1XH-west | 2026-09-04 01:16:33 | 50.88101 | 9.07703 | 116° | 126km/h | 8466m | -3.9m/s | -27.7°C | 81.1% | 352hPa | 2.6V | 07:46:53 | 02:58:39 | 00:00:00 | |
| DL4BBY-15 | 2026-09-04 01:16:33 | 50.88101 | 9.07703 | 117° | 124km/h | 8467m | -3.9m/s | -27.2°C | 0% | 0hPa | 2.5V | 00:00:00 | 00:00:00 | 00:00:00 | |
| DL1NUX | 2026-09-04 01:16:32 | 50.88140 | 9.07572 | 113° | 119km/h | 8478m | -3.7m/s | -27.8°C | 82.6% | 351.6hPa | 2.5V | 07:46:47 | 02:58:36 | 00:00:00 | |
| DF7PN | 2026-09-04 01:16:31 | 50.88128 | 9.07615 | 114° | 119km/h | 8474m | -3.9m/s | -27.7°C | 78.3% | 351.9hPa | 2.6V | 00:00:00 | 00:00:00 | 00:00:00 | |
| DM0DOS-11 | 2026-09-04 01:16:30 | 50.88163 | 9.07485 | 111° | 120km/h | 8486m | -3.6m/s | -27.8°C | 82.5% | 351.3hPa | 2.6V | 07:46:49 | 02:58:34 | 00:00:00 | |
| HSKMA3-T | 2026-09-04 01:16:29 | 50.88152 | 9.07529 | 112° | 117km/h | 8482m | -3.6m/s | -27.8°C | 81.1% | 351.4hPa | 2.5V | 07:46:53 | 02:58:35 | 00:00:00 | |
| BIOWL1-15 | 2026-09-04 01:16:26 | 50.88186 | 9.07393 | 113° | 124km/h | 8493m | -3.9m/s | -27.8°C | 80.9% | 350.9hPa | 2.5V | 07:46:53 | 02:58:32 | 00:00:00 | |
| SONDE2-11 | 2026-09-04 01:16:25 | 50.88211 | 9.07303 | 115° | 120km/h | 8501m | -3.8m/s | -27.9°C | 78.3% | 350.6hPa | 2.6V | 00:00:00 | 00:00:00 | 00:00:00 | |
| DL8DAS-15 | 2026-09-04 01:16:24 | 50.88211 | 9.07303 | 116° | 122km/h | 8501m | -3.8m/s | -27.9°C | 78.3% | 350.6hPa | 2.6V | 07:46:00 | 00:00:00 | 00:00:00 | |
| DM0DOS-11 | 2026-09-04 01:16:23 | 50.88277 | 9.07036 | 109° | 128km/h | 8523m | -3.4m/s | -28°C | 82.9% | 349.5hPa | 2.6V | 07:46:59 | 02:58:24 | 00:00:00 | |
| DF8AY | 2026-09-04 01:16:23 | 50.88224 | 9.07260 | 113° | 119km/h | 8505m | -3.5m/s | -27.9°C | 81% | 350.5hPa | 2.6V | 07:49:26 | 02:58:29 | 00:00:00 | |
| DO3DL | 2026-09-04 01:16:23 | 50.88223 | 9.07260 | 114° | 119km/h | 8505m | -3.5m/s | -27.9°C | 78.4% | 350.5hPa | 2.5V | 07:47:00 | 00:00:00 | 00:00:00 | |
| DL1NUX | 2026-09-04 01:16:22 | 50.88256 | 9.07129 | 109° | 117km/h | 8516m | -3.5m/s | -28°C | 82.8% | 349.9hPa | 2.5V | 07:46:57 | 02:58:26 | 00:00:00 | |
| HSKMA3-T | 2026-09-04 01:16:19 | 50.88266 | 9.07084 | 109° | 126km/h | 8519m | -3.9m/s | -28°C | 81.4% | 349.7hPa | 2.6V | 07:47:44 | 02:58:25 | 00:00:00 | |
| BIOWL1-15 | 2026-09-04 01:16:16 | 50.88332 | 9.06848 | 118° | 128km/h | 8537m | -3.6m/s | -28.2°C | 82.2% | 348.8hPa | 2.5V | 07:47:44 | 02:58:20 | 00:00:00 | |
| DD1CC3-15 | 2026-09-04 01:16:13 | 50.88347 | 9.06804 | 119° | 122km/h | 8541m | -3.6m/s | -28.2°C | 79.0% | 348.6hPa | 2.5V | 07:47:00 | 00:00:00 | 00:00:00 | |
| DL1NUX | 2026-09-04 01:16:12 | 50.88386 | 9.06681 | 115° | 108km/h | 8552m | -3.1m/s | -28.3°C | 84% | 348.1hPa | 2.5V | 07:47:07 | 02:58:16 | 00:00:00 | |
| DL1XH-west | 2026-09-04 01:16:12 | 50.88361 | 9.06762 | 118° | 117km/h | 8545m | -3.4m/s | -28.2°C | 82.5% | 348.4hPa | 2.6V | 07:47:44 | 02:58:18 | 00:00:00 | |
| DO2KSM | 2026-09-04 01:16:11 | 50.88361 | 9.06762 | 119° | 117km/h | 8545m | -3.4m/s | -28.2°C | 79.3% | 348.4hPa | 2.6V | 07:47:00 | 00:00:00 | 00:00:00 | |
| DM0DOS-11 | 2026-09-04 01:16:10 | 50.88408 | 9.06602 | 111° | 111km/h | 8560m | -4.2m/s | -28.4°C | 84.4% | 347.7hPa | 2.6V | 07:47:09 | 02:58:14 | 00:00:00 | |
| HSKMA3-T | 2026-09-04 01:16:08 | 50.88408 | 9.06602 | 112° | 111km/h | 8560m | -4.2m/s | -28.4°C | 83.1% | 347.7hPa | 2.6V | 07:47:44 | 02:58:14 | 00:00:00 | |
| BIOWL1-15 | 2026-09-04 01:16:03 | 50.88509 | 9.06176 | 116° | 131km/h | 8593m | -3.4m/s | -28.7°C | 84.3% | 346.1hPa | 2.5V | 07:47:44 | 02:58:05 | 00:00:00 | |
| DL1XH1-15 | 2026-09-04 01:16:03 | 50.88538 | 9.06081 | 117° | 126km/h | 8599m | -4m/s | -28.8°C | 86.1% | 345.7hPa | 2.6V | 07:47:20 | 02:58:03 | 00:00:00 | |
| DL1NUX | 2026-09-04 01:16:03 | 50.88495 | 9.06224 | 114° | 133km/h | 8589m | -3.8m/s | -28.6°C | 85.3% | 346.3hPa | 2.5V | 07:47:17 | 02:58:06 | 00:00:00 | |
| DL1XH-west | 2026-09-04 01:16:02 | 50.88468 | 9.06323 | 112° | 133km/h | 8583m | -3.3m/s | -28.6°C | 84% | 346.6hPa | 2.6V | 07:47:44 | 02:58:08 | 00:00:00 | |
| HSKMA3-T | 2026-09-04 01:15:58 | 50.88523 | 9.06128 | 116° | 131km/h | 8596m | -3.6m/s | -28.7°C | 84.4% | 345.8hPa | 2.6V | 07:47:44 | 02:58:04 | 00:00:00 | |
| DF8AY | 2026-09-04 01:15:57 | 50.88606 | 9.05874 | 112° | 113km/h | 8619m | -3.8m/s | -28.9°C | 85% | 344.8hPa | 2.6V | 07:49:26 | 02:57:58 | 00:00:00 | |
| DJ2DS-15 | 2026-09-04 01:15:57 | 50.88538 | 9.06082 | 118° | 122km/h | 8599m | -3.9m/s | -28.7°C | 86.1% | 345.6hPa | 2.5V | 00:00:00 | 02:58:03 | 00:00:00 | |
| DF2AP-13 | 2026-09-04 01:15:55 | 50.88567 | 9.05996 | 120° | 122km/h | 8607m | -3.5m/s | -28.8°C | 86.3% | 345.2hPa | 2.5V | 00:00:00 | 02:58:01 | 00:00:00 | |
| DL1XH1-15 | 2026-09-04 01:15:52 | 50.88655 | 9.05645 | 110° | 133km/h | 8637m | -3.8m/s | -29.1°C | 87% | 343.9hPa | 2.6V | 07:47:30 | 02:57:53 | 00:00:00 | |
| DL1NUX | 2026-09-04 01:15:52 | 50.88625 | 9.05788 | 109° | 115km/h | 8626m | -3.7m/s | -29°C | 87.1% | 344.4hPa | 2.5V | 07:47:27 | 02:57:56 | 00:00:00 | |
| DL1XH-west | 2026-09-04 01:15:51 | 50.88616 | 9.05831 | 110° | 113km/h | 8623m | -3.3m/s | -29°C | 85.1% | 344.6hPa | 2.6V | 07:47:44 | 02:57:57 | 00:00:00 | |
| BIOWL1-15 | 2026-09-04 01:15:48 | 50.88645 | 9.05695 | 109° | 130km/h | 8634m | -3.8m/s | -29.1°C | 85.1% | 344hPa | 2.5V | 07:47:44 | 02:57:54 | 00:00:00 | |
| HSKMA3-T | 2026-09-04 01:15:47 | 50.88656 | 9.05645 | 110° | 133km/h | 8637m | -3.8m/s | -29.1°C | 84.8% | 343.9hPa | 2.6V | 07:47:44 | 02:57:53 | 00:00:00 | |
| DL8OAI-8 | 2026-09-04 01:15:46 | 50.88655 | 9.05645 | 111° | 133km/h | 8637m | -3.8m/s | -29.1°C | 82.4% | 343.9hPa | 2.5V | 07:47:00 | 00:00:00 | 00:00:00 | |
| DL3OBA | 2026-09-04 01:15:45 | 50.88668 | 9.05594 | 113° | 135km/h | 8641m | -3.7m/s | -29.1°C | 81.9% | 343.7hPa | 2.5V | 07:47:00 | 00:00:00 | 00:00:00 | |
| DL8DAS-15 | 2026-09-04 01:15:44 | 50.88681 | 9.05544 | 116° | 135km/h | 8644m | -3.7m/s | -29.2°C | 81.9% | 343.5hPa | 2.5V | 00:00:00 | 00:00:00 | 00:00:00 | |
| DL8DAS-14 | 2026-09-04 01:15:43 | 50.88727 | 9.05403 | 119° | 124km/h | 8656m | -3.3m/s | -29.3°C | 82.6% | 342.9hPa | 2.5V | 00:00:00 | 00:00:00 | 00:00:00 | |
| DL1XH1-15 | 2026-09-04 01:15:42 | 50.88796 | 9.05199 | 115° | 111km/h | 8674m | -3.9m/s | -29.4°C | 89.5% | 342hPa | 2.5V | 07:47:40 | 02:57:43 | 00:00:00 | |
| DL1NUX | 2026-09-04 01:15:42 | 50.88757 | 9.05319 | 119° | 117km/h | 8662m | -3.1m/s | -29.3°C | 87.8% | 342.6hPa | 2.6V | 07:47:37 | 02:57:46 | 00:00:00 | |
| DO9LL-15 | 2026-09-04 01:15:42 | 50.88727 | 9.05403 | 120° | 122km/h | 8656m | -3.2m/s | -29.2°C | 87.3% | 342.9hPa | 2.6V | 00:00:00 | 02:57:48 | 00:00:00 | |
| DM0DOS-11 | 2026-09-04 01:15:40 | 50.88817 | 9.05116 | 109° | 115km/h | 8682m | -3.9m/s | -29.5°C | 90.5% | 341.7hPa | 2.6V | 07:47:42 | 02:57:41 | 00:00:00 | |
| DL1XH-west | 2026-09-04 01:15:40 | 50.88757 | 9.05319 | 119° | 117km/h | 8662m | -3.1m/s | -29.3°C | 85.5% | 342.6hPa | 2.6V | 07:47:44 | 02:57:46 | 00:00:00 | |
| HSKMA3-T | 2026-09-04 01:15:37 | 50.88796 | 9.05199 | 115° | 111km/h | 8674m | -3.9m/s | -29.4°C | 86.9% | 342hPa | 2.5V | 07:47:44 | 02:57:43 | 00:00:00 | |
| DJ2DS-15 | 2026-09-04 01:15:37 | 50.88796 | 9.05199 | 116° | 122km/h | 8674m | -3.8m/s | -29.4°C | 89.5% | 342.0hPa | 2.5V | 00:00:00 | 02:57:43 | 00:00:00 | |
| DD1CC8 | 2026-09-04 01:15:35 | 50.88817 | 9.05116 | 109° | 115km/h | 8682m | -3.9m/s | -29.5°C | 85.7% | 341.7hPa | 2.5V | 00:00:00 | 00:00:00 | 00:00:00 | |
| DL3AQ-11 | 2026-09-04 01:15:34 | 50.88836 | 9.05025 | 107° | 124km/h | 8690m | -3.8m/s | -29.5°C | 86.3% | 341.4hPa | 2.5V | 00:00:00 | 00:00:00 | 00:00:00 | |
| DL1XH1-15 | 2026-09-04 01:15:32 | 50.88908 | 9.04725 | 116° | 133km/h | 8711m | -3.7m/s | -29.7°C | 89% | 340.2hPa | 2.5V | 07:47:50 | 02:57:33 | 00:00:00 | |
| DL1NUX | 2026-09-04 01:15:32 | 50.88868 | 9.04875 | 109° | 135km/h | 8702m | -3.7m/s | -29.6°C | 90.7% | 340.8hPa | 2.6V | 07:47:47 | 02:57:36 | 00:00:00 | |
| DJTTGO | 2026-09-04 01:15:32 | 50.88846 | 9.04977 | 109° | 130km/h | 8694m | -4.0m/s | -29.6°C | 86.2% | 341.2hPa | 2.6V | 07:48:00 | 00:00:00 | 00:00:00 | |
| DD8BA-10 | 2026-09-04 01:15:31 | 50.88856 | 9.04926 | 109° | 133km/h | 8698m | -3.9m/s | -29.6°C | 90.9% | 340.9hPa | 2.6V | 00:00:00 | 00:00:00 | 00:00:00 | |
| DM0DOS-11 | 2026-09-04 01:15:30 | 50.88935 | 9.04635 | 115° | 124km/h | 8718m | -3.3m/s | -29.7°C | 87.2% | 339.9hPa | 2.6V | 07:47:52 | 02:57:31 | 00:00:00 | |
| DF8AY | 2026-09-04 01:15:30 | 50.88868 | 9.04875 | 110° | 135km/h | 8702m | -3.7m/s | -29.6°C | 87.3% | 340.8hPa | 2.6V | 07:49:26 | 02:57:36 | 00:00:00 | |
| DL1XH-west | 2026-09-04 01:15:29 | 50.88880 | 9.04825 | 113° | 133km/h | 8705m | -3.2m/s | -29.7°C | 86.6% | 340.6hPa | 2.6V | 07:48:35 | 02:57:35 | 00:00:00 | |
| BIOWL1-15 | 2026-09-04 01:15:28 | 50.88893 | 9.04775 | 113° | 137km/h | 8708m | -3.4m/s | -29.7°C | 85.7% | 340.4hPa | 2.5V | 07:48:35 | 02:57:34 | 00:00:00 | |
| HSKMA3-T | 2026-09-04 01:15:27 | 50.88908 | 9.04725 | 116° | 133km/h | 8711m | -3.7m/s | -29.7°C | 84.9% | 340.2hPa | 2.5V | 07:48:35 | 02:57:33 | 00:00:00 | |
| DL8OAI-8 | 2026-09-04 01:15:26 | 50.88908 | 9.04725 | 117° | 133km/h | 8711m | -3.7m/s | -29.7°C | 84.2% | 340.2hPa | 2.5V | 07:48:00 | 00:00:00 | 00:00:00 | |
| BIOWL9-15 | 2026-09-04 01:15:25 | 50.88936 | 9.04635 | 115° | 122km/h | 8718m | -3.3m/s | -29.7°C | 82.5% | 339.9hPa | 2.5V | 00:00:00 | 00:00:00 | 00:00:00 | |
| DL3OBA | 2026-09-04 01:15:24 | 50.88935 | 9.04634 | 116° | 124km/h | 8718m | -3.3m/s | -29.7°C | 82.5% | 339.9hPa | 2.5V | 07:48:00 | 00:00:00 | 00:00:00 | |
| DL1XH1-15 | 2026-09-04 01:15:22 | 50.89019 | 9.04278 | 106° | 124km/h | 8751m | -3.8m/s | -29.8°C | 76.1% | 338.4hPa | 2.5V | 07:48:00 | 02:57:23 | 00:00:00 | |
| SO1NDE-10 | 2026-09-04 01:15:22 | 50.88971 | 9.04504 | 111° | 128km/h | 8731m | -3.2m/s | -29.7°C | 82.2% | 339.3hPa | 2.5V | 00:00:00 | 02:57:28 | 00:00:00 | |
| DL3AQ-11 | 2026-09-04 01:15:21 | 50.88991 | 9.04416 | 109° | 117km/h | 8739m | -3.8m/s | -29.8°C | 74.8% | 339.0hPa | 2.5V | 00:00:00 | 00:00:00 | 00:00:00 | |
| DM0DOS-11 | 2026-09-04 01:15:20 | 50.89038 | 9.04180 | 107° | 133km/h | 8758m | -4.2m/s | -29.8°C | 72.7% | 338.1hPa | 2.5V | 07:48:02 | 02:57:21 | 00:00:00 | |
| DF8AY | 2026-09-04 01:15:19 | 50.89000 | 9.04371 | 109° | 120km/h | 8743m | -3.8m/s | -29.8°C | 77.2% | 338.9hPa | 2.6V | 07:49:26 | 02:57:25 | 00:00:00 | |
| DL1XH-west | 2026-09-04 01:15:18 | 50.89010 | 9.04325 | 108° | 120km/h | 8747m | -3.7m/s | -29.8°C | 76.2% | 338.6hPa | 2.6V | 07:48:35 | 02:57:24 | 00:00:00 | |
| HSKMA3-T | 2026-09-04 01:15:16 | 50.89029 | 9.04230 | 106° | 130km/h | 8754m | -4.2m/s | -29.8°C | 74.5% | 338.3hPa | 2.5V | 07:48:35 | 02:57:22 | 00:00:00 | |
| DO3DL | 2026-09-04 01:15:16 | 50.89029 | 9.04230 | 107° | 130km/h | 8754m | -4.2m/s | -29.8°C | 70.6% | 338.3hPa | 2.6V | 07:48:00 | 00:00:00 | 00:00:00 | |
| DL1XH1-15 | 2026-09-04 01:15:13 | 50.89143 | 9.03778 | 116° | 126km/h | 8787m | -3.4m/s | -29.9°C | 67.6% | 336.6hPa | 2.6V | 07:48:10 | 02:57:13 | 00:00:00 | |
| BIOWL1-15 | 2026-09-04 01:15:11 | 50.89171 | 9.03692 | 115° | 117km/h | 8795m | -3.3m/s | -30°C | 66% | 336.2hPa | 2.5V | 07:48:35 | 02:57:11 | 00:00:00 | |
| DM0DOS-11 | 2026-09-04 01:15:10 | 50.89170 | 9.03692 | 115° | 117km/h | 8795m | -3.3m/s | -30°C | 65.2% | 336.2hPa | 2.5V | 07:48:12 | 02:57:11 | 00:00:00 | |
| DF8AY | 2026-09-04 01:15:08 | 50.89128 | 9.03824 | 116° | 133km/h | 8784m | -3.7m/s | -29.9°C | 68.6% | 336.8hPa | 2.6V | 07:49:26 | 02:57:14 | 00:00:00 | |
| DL1XH-west | 2026-09-04 01:15:07 | 50.89143 | 9.03778 | 117° | 126km/h | 8787m | -3.4m/s | -29.9°C | 68% | 336.6hPa | 2.6V | 07:48:35 | 02:57:13 | 00:00:00 | |
| HSKMA3-T | 2026-09-04 01:15:06 | 50.89157 | 9.03734 | 117° | 120km/h | 8791m | -3.3m/s | -30°C | 67% | 336.5hPa | 2.5V | 07:48:35 | 02:57:12 | 00:00:00 | |
| DO3MHA-12 | 2026-09-04 01:15:05 | 50.89171 | 9.03692 | 116° | 122km/h | 8795m | -3.3m/s | -29.9°C | 65.2% | 336.2hPa | 2.5V | 00:00:00 | 02:57:11 | 00:00:00 | |
| DD1CC8 | 2026-09-04 01:15:04 | 50.89183 | 9.03650 | 113° | 115km/h | 8798m | -3.6m/s | -30.0°C | 60.4% | 336.1hPa | 2.5V | 00:00:00 | 00:00:00 | 00:00:00 | |
| DL1XH1-15 | 2026-09-04 01:15:02 | 50.89250 | 9.03327 | 107° | 133km/h | 8827m | -3.6m/s | -30.1°C | 57.1% | 334.8hPa | 2.5V | 07:48:20 | 02:57:03 | 00:00:00 | |
| DJ2DS-15 | 2026-09-04 01:15:02 | 50.89213 | 9.03519 | 107° | 119km/h | 8811m | -4.2m/s | -30.0°C | 59.0% | 335.6hPa | 2.6V | 00:00:00 | 00:00:00 | 00:00:00 | |
| DM0DOS-11 | 2026-09-04 01:15:00 | 50.89273 | 9.03222 | 109° | 141km/h | 8834m | -4.1m/s | -30.1°C | 56.5% | 334.4hPa | 2.6V | 07:48:22 | 02:57:01 | 00:00:00 | |
| DL1XH-west | 2026-09-04 01:14:57 | 50.89250 | 9.03327 | 107° | 133km/h | 8827m | -3.7m/s | -30.1°C | 58.4% | 334.8hPa | 2.5V | 07:48:35 | 02:57:03 | 00:00:00 | |
| HSKMA3-T | 2026-09-04 01:14:55 | 50.89273 | 9.03222 | 110° | 141km/h | 8835m | -4.1m/s | -30.1°C | 57.9% | 334.4hPa | 2.6V | 07:48:35 | 02:57:01 | 00:00:00 | |
| DL3AQ-11 | 2026-09-04 01:14:54 | 50.89299 | 9.03119 | 113° | 133km/h | 8843m | -3.2m/s | -30.2°C | 52.7% | 334.1hPa | 2.5V | 00:00:00 | 00:00:00 | 00:00:00 | |
| DL1XH1-15 | 2026-09-04 01:14:52 | 50.89384 | 9.02851 | 114° | 119km/h | 8863m | -4.4m/s | -30.4°C | 56.2% | 332.9hPa | 2.5V | 07:48:30 | 02:56:53 | 00:00:00 | |
| SO1NDE-10 | 2026-09-04 01:14:52 | 50.89312 | 9.03070 | 117° | 124km/h | 8846m | -3.4m/s | -30.2°C | 56.1% | 333.9hPa | 2.5V | 00:00:00 | 02:56:58 | 00:00:00 | |
| DB0NH | 2026-09-04 01:14:51 | 50.89327 | 9.03024 | 118° | 124km/h | 8850m | -2.8m/s | -30.2°C | 55.8% | 333.7hPa | 2.6V | 00:00:00 | 02:56:57 | 00:00:00 | |
| DM0DOS-11 | 2026-09-04 01:14:50 | 50.89408 | 9.02766 | 114° | 113km/h | 8872m | -4m/s | -30.4°C | 57.1% | 332.6hPa | 2.5V | 07:48:32 | 02:56:51 | 00:00:00 | |
| BIOWL1-15 | 2026-09-04 01:14:47 | 50.89384 | 9.02851 | 115° | 119km/h | 8863m | -4.4m/s | -30.4°C | 58.1% | 333hPa | 2.5V | 07:48:35 | 02:56:53 | 00:00:00 | |
| HSKMA3-T | 2026-09-04 01:14:45 | 50.89408 | 9.02766 | 115° | 113km/h | 8872m | -4m/s | -30.4°C | 59% | 332.6hPa | 2.5V | 07:48:35 | 02:56:51 | 00:00:00 | |
| DO3MHA-12 | 2026-09-04 01:14:45 | 50.89408 | 9.02766 | 115° | 124km/h | 8872m | -4.0m/s | -30.4°C | 57.1% | 332.6hPa | 2.6V | 00:00:00 | 02:56:51 | 00:00:00 | |
| DL1XH1-15 | 2026-09-04 01:14:42 | 50.89486 | 9.02396 | 110° | 135km/h | 8901m | -3.1m/s | -30.7°C | 59.6% | 331.2hPa | 2.6V | 07:48:40 | 02:56:43 | 00:00:00 | |
| BIOWL1-15 | 2026-09-04 01:14:39 | 50.89486 | 9.02396 | 110° | 135km/h | 8901m | -3.2m/s | -30.7°C | 60.9% | 331.2hPa | 2.6V | 07:49:26 | 02:56:43 | 00:00:00 | |
| DL1XH-west | 2026-09-04 01:14:36 | 50.89499 | 9.02346 | 113° | 137km/h | 8904m | -3.1m/s | -30.7°C | 61.3% | 331.1hPa | 2.5V | 07:49:26 | 02:56:42 | 00:00:00 | |
| DM0DOS-11 | 2026-09-04 01:14:35 | 50.89513 | 9.02296 | 114° | 135km/h | 8907m | -3.8m/s | -30.8°C | 60% | 330.9hPa | 2.5V | 07:48:42 | 02:56:41 | 00:00:00 | |
| DF8AY | 2026-09-04 01:14:35 | 50.89513 | 9.02296 | 114° | 135km/h | 8907m | -3.8m/s | -30.8°C | 61.7% | 330.9hPa | 2.5V | 07:49:26 | 02:56:41 | 00:00:00 | |
| HSKMA3-T | 2026-09-04 01:14:34 | 50.89527 | 9.02247 | 115° | 135km/h | 8911m | -3.9m/s | -30.8°C | 62% | 330.7hPa | 2.5V | 07:49:26 | 02:56:40 | 00:00:00 | |
| DD1CC8 | 2026-09-04 01:14:33 | 50.89541 | 9.02199 | 115° | 135km/h | 8914m | -4.0m/s | -30.8°C | 56.6% | 330.5hPa | 2.5V | 00:00:00 | 00:00:00 | 00:00:00 | |
| DL1XH1-15 | 2026-09-04 01:14:32 | 50.89624 | 9.01932 | 110° | 117km/h | 8938m | -4m/s | -31.1°C | 62.3% | 329.5hPa | 2.5V | 07:48:50 | 02:56:33 | 00:00:00 | |
| BIOWL1-15 | 2026-09-04 01:14:27 | 50.89624 | 9.01932 | 110° | 117km/h | 8938m | -4m/s | -31.1°C | 63.8% | 329.5hPa | 2.5V | 07:49:26 | 02:56:33 | 00:00:00 | |
| DM0DOS-11 | 2026-09-04 01:14:25 | 50.89642 | 9.01841 | 106° | 124km/h | 8946m | -3.9m/s | -31.1°C | 62.1% | 329.1hPa | 2.5V | 07:48:52 | 02:56:31 | 00:00:00 | |
| DL1XH-west | 2026-09-04 01:14:25 | 50.89642 | 9.01841 | 106° | 124km/h | 8946m | -3.9m/s | -31.1°C | 63.6% | 329.1hPa | 2.5V | 07:49:26 | 02:56:31 | 00:00:00 | |
| HSKMA3-T | 2026-09-04 01:14:23 | 50.89661 | 9.01743 | 108° | 128km/h | 8954m | -3.8m/s | -31.2°C | 63.7% | 328.8hPa | 2.6V | 07:49:26 | 02:56:29 | 00:00:00 | |
| DL1NUX | 2026-09-04 01:14:22 | 50.89697 | 9.01592 | 114° | 135km/h | 8965m | -3.8m/s | -31.3°C | 63.7% | 328.3hPa | 2.5V | 07:48:57 | 02:56:26 | 00:00:00 | |
| DF8AY | 2026-09-04 01:14:21 | 50.89684 | 9.01642 | 111° | 133km/h | 8961m | -4m/s | -31.2°C | 64.5% | 328.5hPa | 2.5V | 07:49:26 | 02:56:27 | 00:00:00 | |
| BIOWL1-15 | 2026-09-04 01:14:17 | 50.89739 | 9.01452 | 117° | 120km/h | 8976m | -3.5m/s | -31.4°C | 65.5% | 327.8hPa | 2.5V | 07:49:26 | 02:56:23 | 00:00:00 | |
| DL1XH-west | 2026-09-04 01:14:15 | 50.89765 | 9.01366 | 113° | 117km/h | 8984m | -3.9m/s | -31.5°C | 66.3% | 327.4hPa | 2.5V | 07:49:26 | 02:56:21 | 00:00:00 | |
| HSKMA3-T | 2026-09-04 01:14:13 | 50.89786 | 9.01279 | 110° | 119km/h | 8992m | -3.3m/s | -31.5°C | 67.6% | 327.1hPa | 2.5V | 07:49:26 | 02:56:19 | 00:00:00 | |
| DL1XH1-15 | 2026-09-04 01:14:12 | 50.89859 | 9.00998 | 115° | 126km/h | 9011m | -4.2m/s | -31.7°C | 68.4% | 326hPa | 2.5V | 07:49:10 | 02:56:13 | 00:00:00 | |
| DL1NUX | 2026-09-04 01:14:12 | 50.89819 | 9.01138 | 112° | 128km/h | 9000m | -3.6m/s | -31.6°C | 67.5% | 326.6hPa | 2.6V | 07:49:07 | 02:56:16 | 00:00:00 | |
| DF8AY | 2026-09-04 01:14:11 | 50.89807 | 9.01186 | 111° | 126km/h | 8998m | -3.4m/s | -31.6°C | 68% | 326.7hPa | 2.6V | 07:49:26 | 02:56:17 | 00:00:00 | |
| DM0DOS-11 | 2026-09-04 01:14:10 | 50.89885 | 9.00912 | 115° | 115km/h | 9019m | -4.3m/s | -31.8°C | 69.5% | 325.7hPa | 2.6V | 07:49:12 | 02:56:11 | 00:00:00 | |
| BIOWL1-15 | 2026-09-04 01:14:06 | 50.89872 | 9.00954 | 117° | 120km/h | 9015m | -4.2m/s | -31.8°C | 69.5% | 325.9hPa | 2.5V | 07:49:26 | 02:56:12 | 00:00:00 | |
| DL1XH-west | 2026-09-04 01:14:04 | 50.89897 | 9.00869 | 113° | 115km/h | 9024m | -4.2m/s | -31.9°C | 70.1% | 325.5hPa | 2.6V | 07:49:26 | 02:56:10 | 00:00:00 | |
| DF2AP-13 | 2026-09-04 01:14:03 | 50.89908 | 9.00825 | 111° | 120km/h | 9028m | -4.0m/s | -31.8°C | 70.3% | 325.3hPa | 2.6V | 00:00:00 | 02:56:09 | 00:00:00 | |
| DL1NUX | 2026-09-04 01:14:02 | 50.89941 | 9.00683 | 111° | 131km/h | 9039m | -4m/s | -32°C | 71% | 324.9hPa | 2.5V | 07:49:17 | 02:56:06 | 00:00:00 | |
| HSKMA3-T | 2026-09-04 01:14:02 | 50.89919 | 9.00780 | 109° | 126km/h | 9032m | -3.9m/s | -31.9°C | 70.5% | 325.2hPa | 2.5V | 07:49:26 | 02:56:08 | 00:00:00 | |
| DF8AY | 2026-09-04 01:14:00 | 50.89941 | 9.00683 | 111° | 131km/h | 9039m | -4m/s | -32°C | 71% | 324.9hPa | 2.5V | 07:49:26 | 02:56:06 | 00:00:00 | |
| DM0DOS-11 | 2026-09-04 01:14:00 | 50.90006 | 9.00456 | 114° | 117km/h | 9057m | -4m/s | -32.1°C | 72.4% | 324hPa | 2.5V | 07:49:22 | 02:56:01 | 00:00:00 | |
| BIOWL1-15 | 2026-09-04 01:13:55 | 50.90018 | 9.00413 | 112° | 119km/h | 9062m | -3.9m/s | -32.2°C | 72.3% | 323.8hPa | 2.5V | 07:49:26 | 02:56:00 | 00:00:00 | |
| DL1XH-west | 2026-09-04 01:13:53 | 50.90029 | 9.00368 | 110° | 120km/h | 9066m | -4m/s | -32.2°C | 72.5% | 323.6hPa | 2.5V | 07:49:26 | 02:55:59 | 00:00:00 | |
| DL1NUX | 2026-09-04 01:13:52 | 50.90063 | 9.00230 | 113° | 124km/h | 9076m | -3.4m/s | -32.3°C | 73.8% | 323.1hPa | 2.6V | 07:49:27 | 02:55:56 | 00:00:00 | |
| HSKMA3-T | 2026-09-04 01:13:51 | 50.90051 | 9.00276 | 112° | 124km/h | 9073m | -3.4m/s | -32.3°C | 73% | 323.3hPa | 2.6V | 07:49:26 | 02:55:57 | 00:00:00 | |
| DF8AY | 2026-09-04 01:13:49 | 50.90076 | 9.00185 | 115° | 122km/h | 9079m | -3.5m/s | -32.4°C | 73.6% | 323hPa | 2.6V | 07:50:17 | 02:55:55 | 00:00:00 | |
| BIOWL1-15 | 2026-09-04 01:13:44 | 50.90135 | 8.99969 | 109° | 119km/h | 9098m | -3.4m/s | -32.6°C | 74% | 322.1hPa | 2.6V | 07:50:17 | 02:55:50 | 00:00:00 | |
| DL8OAI-8 | 2026-09-04 01:13:44 | 50.90135 | 8.99969 | 110° | 119km/h | 9098m | -3.4m/s | -32.6°C | 70.0% | 322.1hPa | 2.6V | 07:50:00 | 00:00:00 | 00:00:00 | |
| DL1XH1-15 | 2026-09-04 01:13:42 | 50.90217 | 8.99650 | 112° | 120km/h | 9124m | -4m/s | -32.8°C | 74.9% | 320.9hPa | 2.6V | 07:49:40 | 02:55:43 | 00:00:00 | |
| DL1NUX | 2026-09-04 01:13:42 | 50.90179 | 8.99783 | 112° | 126km/h | 9112m | -3.9m/s | -32.7°C | 75.2% | 321.4hPa | 2.5V | 07:49:37 | 02:55:46 | 00:00:00 | |
| DL1XH-west | 2026-09-04 01:13:42 | 50.90155 | 8.99878 | 111° | 126km/h | 9105m | -3.8m/s | -32.6°C | 74.1% | 321.8hPa | 2.5V | 07:50:17 | 02:55:48 | 00:00:00 | |
| HSKMA3-T | 2026-09-04 01:13:41 | 50.90167 | 8.99830 | 111° | 130km/h | 9108m | -3.8m/s | -32.7°C | 74.2% | 321.6hPa | 2.5V | 07:50:17 | 02:55:47 | 00:00:00 | |
| DF8AY | 2026-09-04 01:13:38 | 50.90205 | 8.99694 | 115° | 122km/h | 9120m | -3.9m/s | -32.7°C | 74.1% | 321.1hPa | 2.6V | 07:50:17 | 02:55:44 | 00:00:00 | |
| BIOWL1-15 | 2026-09-04 01:13:33 | 50.90261 | 8.99465 | 111° | 130km/h | 9140m | -3.7m/s | -32.8°C | 72.2% | 320.2hPa | 2.6V | 07:50:17 | 02:55:39 | 00:00:00 | |
| DJTTGO | 2026-09-04 01:13:33 | 50.90261 | 8.99464 | 112° | 130km/h | 9140m | -3.7m/s | -32.8°C | 68.0% | 320.2hPa | 2.5V | 00:00:00 | 00:00:00 | 00:00:00 | |
| DL1NUX | 2026-09-04 01:13:32 | 50.90298 | 8.99324 | 113° | 126km/h | 9151m | -4.3m/s | -32.8°C | 69.5% | 319.7hPa | 2.5V | 07:49:47 | 02:55:36 | 00:00:00 | |
| DL1XH-west | 2026-09-04 01:13:32 | 50.90273 | 8.99417 | 113° | 130km/h | 9144m | -3.9m/s | -32.8°C | 71.3% | 320.1hPa | 2.5V | 07:50:17 | 02:55:38 | 00:00:00 | |
| HSKMA3-T | 2026-09-04 01:13:30 | 50.90299 | 8.99324 | 113° | 126km/h | 9151m | -4.3m/s | -32.8°C | 69.4% | 319.7hPa | 2.5V | 07:50:17 | 02:55:36 | 00:00:00 | |
| DF8AY | 2026-09-04 01:13:28 | 50.90322 | 8.99232 | 110° | 124km/h | 9160m | -4.2m/s | -32.9°C | 68.8% | 319.3hPa | 2.6V | 07:50:17 | 02:55:34 | 00:00:00 | |
| BIOWL1-15 | 2026-09-04 01:13:23 | 50.90377 | 8.98994 | 111° | 126km/h | 9179m | -3.4m/s | -33°C | 68.1% | 318.5hPa | 2.5V | 07:50:17 | 02:55:29 | 00:00:00 | |
| DL1NUX | 2026-09-04 01:13:22 | 50.90410 | 8.98856 | 108° | 124km/h | 9190m | -4.4m/s | -33.1°C | 68% | 318hPa | 2.5V | 07:49:57 | 02:55:26 | 00:00:00 | |
| SO1NDE-10 | 2026-09-04 01:13:22 | 50.90389 | 8.98948 | 112° | 128km/h | 9183m | -3.4m/s | -33.0°C | 68.3% | 318.3hPa | 2.5V | 00:00:00 | 02:55:28 | 00:00:00 | |
| DL1XH1-15 | 2026-09-04 01:13:21 | 50.90452 | 8.98655 | 111° | 139km/h | 9206m | -3.6m/s | -33.2°C | 67.4% | 317.2hPa | 2.5V | 07:50:01 | 02:55:22 | 00:00:00 | |
| DL1XH-west | 2026-09-04 01:13:21 | 50.90400 | 8.98902 | 111° | 120km/h | 9186m | -3.5m/s | -33.1°C | 68.2% | 318.1hPa | 2.5V | 07:50:17 | 02:55:27 | 00:00:00 | |
| HSKMA3-T | 2026-09-04 01:13:20 | 50.90410 | 8.98856 | 109° | 124km/h | 9190m | -4.4m/s | -33.1°C | 68.2% | 318hPa | 2.5V | 07:50:17 | 02:55:26 | 00:00:00 | |
| DF8AY | 2026-09-04 01:13:17 | 50.90440 | 8.98707 | 109° | 137km/h | 9202m | -4.1m/s | -33.2°C | 67.7% | 317.4hPa | 2.6V | 07:50:17 | 02:55:23 | 00:00:00 | |
| DJ2DS-15 | 2026-09-04 01:13:17 | 50.90440 | 8.98707 | 109° | 130km/h | 9202m | -4.1m/s | -33.1°C | 67.3% | 317.4hPa | 2.5V | 00:00:00 | 02:55:23 | 00:00:00 | |
| EDDB2-11 | 2026-09-04 01:13:15 | 50.90465 | 8.98604 | 114° | 137km/h | 9211m | -3.2m/s | -33.2°C | 63.3% | 317.0hPa | 2.5V | 00:00:00 | 00:00:00 | 00:00:00 | |
| DL1ZP-14 | 2026-09-04 01:13:14 | 50.90480 | 8.98556 | 116° | 133km/h | 9214m | -3.7m/s | -33.3°C | 63.5% | 316.9hPa | 2.5V | 00:00:00 | 00:00:00 | 00:00:00 | |
| DO3DL | 2026-09-04 01:13:13 | 50.90480 | 8.98555 | 118° | 133km/h | 9214m | -3.7m/s | -33.3°C | 63.5% | 316.9hPa | 2.5V | 07:50:00 | 00:00:00 | 00:00:00 | |
| DL1NUX | 2026-09-04 01:13:12 | 50.90534 | 8.98380 | 112° | 115km/h | 9229m | -3.2m/s | -33.4°C | 68.9% | 316.2hPa | 2.5V | 07:50:07 | 02:55:16 | 00:00:00 | |
| BIOWL1-15 | 2026-09-04 01:13:12 | 50.90509 | 8.98465 | 117° | 122km/h | 9221m | -3.4m/s | -33.3°C | 68.7% | 316.5hPa | 2.5V | 07:50:17 | 02:55:18 | 00:00:00 | |
| DL1XH1-15 | 2026-09-04 01:13:11 | 50.90569 | 8.98199 | 104° | 122km/h | 9244m | -4.1m/s | -33.5°C | 69.1% | 315.4hPa | 2.5V | 07:50:11 | 02:55:12 | 00:00:00 | |
| DL1XH-west | 2026-09-04 01:13:10 | 50.90534 | 8.98380 | 112° | 115km/h | 9229m | -3.2m/s | -33.4°C | 69.3% | 316.2hPa | 2.5V | 07:50:17 | 02:55:16 | 00:00:00 | |
| DF8AY | 2026-09-04 01:13:06 | 50.90569 | 8.98199 | 104° | 122km/h | 9244m | -4.1m/s | -33.6°C | 70% | 315.4hPa | 2.5V | 07:50:17 | 02:55:12 | 00:00:00 | |
| BIOWL1-15 | 2026-09-04 01:13:05 | 50.90601 | 8.97996 | 105° | 139km/h | 9261m | -4.5m/s | -33.7°C | 70.5% | 314.7hPa | 2.5V | 07:50:17 | 02:55:08 | 00:00:00 | |
| DL1XH-west | 2026-09-04 01:13:00 | 50.90623 | 8.97891 | 111° | 137km/h | 9269m | -4.1m/s | -33.8°C | 70.9% | 314.4hPa | 2.6V | 07:50:17 | 02:55:06 | 00:00:00 | |
| DF8AY | 2026-09-04 01:12:56 | 50.90677 | 8.97698 | 117° | 124km/h | 9284m | -3.8m/s | -33.9°C | 71.8% | 313.6hPa | 2.5V | 07:51:08 | 02:55:02 | 00:00:00 | |
| BIOWL1-15 | 2026-09-04 01:12:52 | 50.90722 | 8.97525 | 108° | 115km/h | 9299m | -4.3m/s | -34.1°C | 72.4% | 312.9hPa | 2.5V | 07:51:08 | 02:54:58 | 00:00:00 | |
| DL1XH1-15 | 2026-09-04 01:12:51 | 50.90771 | 8.97230 | 107° | 137km/h | 9322m | -3.8m/s | -34.3°C | 74.1% | 311.8hPa | 2.5V | 07:50:31 | 02:54:52 | 00:00:00 | |
| DL1XH-west | 2026-09-04 01:12:50 | 50.90738 | 8.97434 | 104° | 124km/h | 9307m | -4.1m/s | -34.2°C | 72.7% | 312.6hPa | 2.5V | 07:51:08 | 02:54:56 | 00:00:00 | |
| HSKMA3-T | 2026-09-04 01:12:49 | 50.90746 | 8.97386 | 104° | 126km/h | 9311m | -4.1m/s | -34.2°C | 72.8% | 312.4hPa | 2.5V | 07:51:08 | 02:54:55 | 00:00:00 | |
| DF8AY | 2026-09-04 01:12:45 | 50.90782 | 8.97178 | 108° | 139km/h | 9326m | -3.7m/s | -34.4°C | 73.5% | 311.6hPa | 2.5V | 07:51:08 | 02:54:51 | 00:00:00 | |
| DO2KSM | 2026-09-04 01:12:45 | 50.90782 | 8.97178 | 109° | 139km/h | 9326m | -3.7m/s | -34.4°C | 69.4% | 311.6hPa | 2.5V | 07:51:00 | 00:00:00 | 00:00:00 | |
| EDDB2-11 | 2026-09-04 01:12:44 | 50.90794 | 8.97124 | 109° | 142km/h | 9329m | -3.8m/s | -34.4°C | 69.6% | 311.5hPa | 2.5V | 00:00:00 | 00:00:00 | 00:00:00 | |
| DL1ZP-14 | 2026-09-04 01:12:43 | 50.90807 | 8.97072 | 112° | 139km/h | 9332m | -3.9m/s | -34.4°C | 69.9% | 311.3hPa | 2.5V | 00:00:00 | 00:00:00 | 00:00:00 | |
| DL1NUX | 2026-09-04 01:12:42 | 50.90848 | 8.96924 | 113° | 128km/h | 9343m | -4.3m/s | -34.5°C | 75.9% | 310.7hPa | 2.5V | 07:50:37 | 02:54:46 | 00:00:00 | |
| DL4XJ-10 | 2026-09-04 01:12:42 | 50.90821 | 8.97021 | 114° | 128km/h | 9337m | -3.9m/s | -34.0°C | 0% | 0hPa | 2.5V | 00:00:00 | 00:00:00 | 00:00:00 | |
| DL1XH1-15 | 2026-09-04 01:12:41 | 50.90891 | 8.96749 | 107° | 111km/h | 9358m | -3.8m/s | -34.7°C | 76.8% | 310hPa | 2.5V | 07:50:41 | 02:54:42 | 00:00:00 | |
| BIOWL1-15 | 2026-09-04 01:12:41 | 50.90835 | 8.96971 | 114° | 133km/h | 9339m | -4.1m/s | -34.5°C | 74.6% | 310.9hPa | 2.5V | 07:51:08 | 02:54:47 | 00:00:00 | |
| DL3AQ-11 | 2026-09-04 01:12:41 | 50.90848 | 8.96924 | 113° | 126km/h | 9343m | -4.3m/s | -34.6°C | 70.9% | 310.7hPa | 2.5V | 00:00:00 | 00:00:00 | 00:00:00 | |
| DM0DOS-11 | 2026-09-04 01:12:40 | 50.90899 | 8.96706 | 104° | 115km/h | 9361m | -4.1m/s | -34.7°C | 76.7% | 309.8hPa | 2.5V | 07:50:42 | 02:54:41 | 00:00:00 | |
| DL1XH-west | 2026-09-04 01:12:40 | 50.90848 | 8.96924 | 113° | 128km/h | 9343m | -4.3m/s | -34.6°C | 75.1% | 310.7hPa | 2.5V | 07:51:08 | 02:54:46 | 00:00:00 | |
| HSKMA3-T | 2026-09-04 01:12:39 | 50.90860 | 8.96878 | 112° | 119km/h | 9347m | -3.6m/s | -34.6°C | 75.5% | 310.6hPa | 2.5V | 07:51:08 | 02:54:45 | 00:00:00 | |
| DF8AY | 2026-09-04 01:12:35 | 50.90899 | 8.96706 | 105° | 115km/h | 9361m | -4.1m/s | -34.7°C | 77.1% | 309.8hPa | 2.5V | 07:51:08 | 02:54:41 | 00:00:00 | |
| BIOWL1-15 | 2026-09-04 01:12:34 | 50.90933 | 8.96462 | 103° | 135km/h | 9381m | -4.3m/s | -34.9°C | 77.2% | 308.9hPa | 2.5V | 07:51:08 | 02:54:36 | 00:00:00 | |
| DO3DL | 2026-09-04 01:12:33 | 50.90906 | 8.96661 | 105° | 117km/h | 9365m | -4.2m/s | -34.8°C | 71.6% | 309.6hPa | 2.5V | 07:51:00 | 00:00:00 | 00:00:00 | |
| DL1NUX | 2026-09-04 01:12:32 | 50.90933 | 8.96462 | 102° | 135km/h | 9381m | -4.3m/s | -34.9°C | 77% | 308.9hPa | 2.5V | 07:50:47 | 02:54:36 | 00:00:00 | |
| DL1XH1-15 | 2026-09-04 01:12:31 | 50.90972 | 8.96251 | 109° | 135km/h | 9398m | -4.2m/s | -35.1°C | 78.9% | 308.1hPa | 2.5V | 07:50:51 | 02:54:32 | 00:00:00 | |
| DM0DOS-11 | 2026-09-04 01:12:30 | 50.90984 | 8.96200 | 110° | 133km/h | 9402m | -3.9m/s | -35.1°C | 79.2% | 308hPa | 2.5V | 07:50:52 | 02:54:31 | 00:00:00 | |
| DL1XH-west | 2026-09-04 01:12:29 | 50.90941 | 8.96409 | 104° | 139km/h | 9385m | -4.5m/s | -35°C | 77.1% | 308.7hPa | 2.5V | 07:51:08 | 02:54:35 | 00:00:00 | |
| HSKMA3-T | 2026-09-04 01:12:28 | 50.90950 | 8.96356 | 106° | 139km/h | 9390m | -4.1m/s | -35°C | 77% | 308.5hPa | 2.5V | 07:51:08 | 02:54:34 | 00:00:00 | |
| DF8AY | 2026-09-04 01:12:25 | 50.90996 | 8.96151 | 112° | 131km/h | 9405m | -4m/s | -35.1°C | 77.8% | 307.8hPa | 2.5V | 07:51:08 | 02:54:30 | 00:00:00 | |
| NBG1-10 | 2026-09-04 01:12:25 | 50.90984 | 8.96200 | 111° | 124km/h | 9402m | -3.8m/s | -35.1°C | 79.2% | 307.9hPa | 2.5V | 00:00:00 | 02:54:31 | 00:00:00 | |
| DO9LL-15 | 2026-09-04 01:12:24 | 50.90996 | 8.96151 | 113° | 122km/h | 9405m | -4.0m/s | -35.1°C | 79.6% | 307.7hPa | 2.5V | 00:00:00 | 02:54:30 | 00:00:00 | |
| DO2KSM | 2026-09-04 01:12:23 | 50.90996 | 8.96151 | 113° | 131km/h | 9405m | -4.0m/s | -35.1°C | 74.3% | 307.8hPa | 2.5V | 07:51:00 | 00:00:00 | 00:00:00 | |
| DL1NUX | 2026-09-04 01:12:22 | 50.91045 | 8.95968 | 112° | 120km/h | 9422m | -4.7m/s | -35.3°C | 80.3% | 307.1hPa | 2.5V | 07:50:57 | 02:54:26 | 00:00:00 | |
| BIOWL1-15 | 2026-09-04 01:12:19 | 50.91056 | 8.95925 | 113° | 117km/h | 9427m | -4.7m/s | -35.3°C | 78.8% | 306.9hPa | 2.5V | 07:51:08 | 02:54:25 | 00:00:00 | |
| DL1XH-west | 2026-09-04 01:12:18 | 50.91067 | 8.95883 | 111° | 111km/h | 9431m | -4.3m/s | -35.4°C | 78.9% | 306.7hPa | 2.5V | 07:51:08 | 02:54:24 | 00:00:00 | |
| DF8AY | 2026-09-04 01:12:13 | 50.91106 | 8.95665 | 101° | 119km/h | 9451m | -4m/s | -35.5°C | 80.4% | 305.8hPa | 2.5V | 07:51:08 | 02:54:19 | 00:00:00 | |
| DL1NUX | 2026-09-04 01:12:12 | 50.91125 | 8.95518 | 103° | 130km/h | 9463m | -3.9m/s | -35.6°C | 84.3% | 305.2hPa | 2.5V | 07:51:07 | 02:54:16 | 00:00:00 | |
| BIOWL1-15 | 2026-09-04 01:12:09 | 50.91133 | 8.95466 | 104° | 137km/h | 9467m | -4m/s | -35.6°C | 81.3% | 305.1hPa | 2.5V | 07:51:08 | 02:54:15 | 00:00:00 | |
| DL1XH-west | 2026-09-04 01:12:07 | 50.91152 | 8.95362 | 108° | 137km/h | 9475m | -4.6m/s | -35.6°C | 80.7% | 304.7hPa | 2.5V | 07:51:59 | 02:54:13 | 00:00:00 | |
| DL4BBY-15 | 2026-09-04 01:12:06 | 50.91163 | 8.95310 | 110° | 120km/h | 9479m | -4.0m/s | -35.2°C | 0% | 0hPa | 2.5V | 00:00:00 | 00:00:00 | 00:00:00 | |
| DD1CC3-15 | 2026-09-04 01:12:05 | 50.91163 | 8.95310 | 110° | 139km/h | 9479m | -4.1m/s | -35.6°C | 76.2% | 304.5hPa | 2.5V | 07:51:00 | 00:00:00 | 00:00:00 | |
| DL3OBA | 2026-09-04 01:12:03 | 50.91187 | 8.95209 | 113° | 133km/h | 9488m | -4.5m/s | -35.6°C | 73.0% | 304.2hPa | 2.5V | 00:00:00 | 00:00:00 | 00:00:00 | |
| DL1NUX | 2026-09-04 01:12:02 | 50.91237 | 8.95021 | 113° | 120km/h | 9504m | -4.9m/s | -35.7°C | 72.5% | 303.4hPa | 2.5V | 07:51:17 | 02:54:06 | 00:00:00 | |
| DF8AY | 2026-09-04 01:12:01 | 50.91225 | 8.95066 | 113° | 124km/h | 9500m | -4.6m/s | -35.7°C | 74.1% | 303.6hPa | 2.4V | 07:51:59 | 02:54:07 | 00:00:00 | |
| DL1XH1-15 | 2026-09-04 01:12:01 | 50.91279 | 8.94855 | 108° | 108km/h | 9521m | -4.5m/s | -35.7°C | 63.1% | 302.6hPa | 2.4V | 07:51:21 | 02:54:02 | 00:00:00 | |
| BIOWL1-15 | 2026-09-04 01:11:58 | 50.91260 | 8.94936 | 112° | 113km/h | 9513m | -4.1m/s | -35.7°C | 67% | 303hPa | 2.5V | 07:51:59 | 02:54:04 | 00:00:00 | |
| HSKMA3-T | 2026-09-04 01:11:57 | 50.91270 | 8.94895 | 110° | 108km/h | 9517m | -4.7m/s | -35.7°C | 64.6% | 302.9hPa | 2.5V | 07:51:59 | 02:54:03 | 00:00:00 | |
| DL1XH-west | 2026-09-04 01:11:56 | 50.91279 | 8.94855 | 109° | 108km/h | 9521m | -4.5m/s | -35.7°C | 63.7% | 302.7hPa | 2.4V | 07:51:59 | 02:54:02 | 00:00:00 | |
| DO9LL-15 | 2026-09-04 01:11:54 | 50.91295 | 8.94772 | 106° | 124km/h | 9530m | -4.3m/s | -35.7°C | 62.6% | 302.2hPa | 2.5V | 00:00:00 | 02:54:00 | 00:00:00 | |
| DO3DL | 2026-09-04 01:11:53 | 50.91295 | 8.94772 | 106° | 110km/h | 9530m | -4.4m/s | -35.8°C | 58.0% | 302.3hPa | 2.5V | 07:51:00 | 00:00:00 | 00:00:00 | |
| SO1NDE-10 | 2026-09-04 01:11:52 | 50.91309 | 8.94683 | 103° | 124km/h | 9538m | -4.0m/s | -35.8°C | 62.3% | 301.9hPa | 2.5V | 00:00:00 | 02:53:58 | 00:00:00 | |
| DL1XH1-15 | 2026-09-04 01:11:51 | 50.91362 | 8.94381 | 109° | 137km/h | 9561m | -4.3m/s | -36.1°C | 61.6% | 300.8hPa | 2.5V | 07:51:31 | 02:53:52 | 00:00:00 | |
| DF8AY | 2026-09-04 01:11:51 | 50.91316 | 8.94636 | 103° | 124km/h | 9541m | -3.8m/s | -35.9°C | 62.7% | 301.7hPa | 2.5V | 07:51:59 | 02:53:57 | 00:00:00 | |
| BIOWL1-15 | 2026-09-04 01:11:50 | 50.91340 | 8.94484 | 107° | 135km/h | 9553m | -4.2m/s | -36°C | 62.6% | 301.2hPa | 2.5V | 07:51:59 | 02:53:54 | 00:00:00 | |
| DL1XH-west | 2026-09-04 01:11:46 | 50.91362 | 8.94381 | 110° | 137km/h | 9561m | -4.3m/s | -36.1°C | 62.6% | 300.8hPa | 2.5V | 07:51:59 | 02:53:52 | 00:00:00 | |
| SONDE2-11 | 2026-09-04 01:11:45 | 50.91374 | 8.94329 | 110° | 135km/h | 9565m | -4.7m/s | -36.1°C | 56.8% | 300.6hPa | 2.5V | 00:00:00 | 00:00:00 | 00:00:00 | |
| DD1CC3-15 | 2026-09-04 01:11:44 | 50.91374 | 8.94329 | 111° | 137km/h | 9565m | -4.7m/s | -36.1°C | 56.8% | 300.6hPa | 2.5V | 07:51:00 | 00:00:00 | 00:00:00 | |
| DJ2KF-10 | 2026-09-04 01:11:42 | 50.91414 | 8.94183 | 115° | 120km/h | 9578m | -4.4m/s | -36.2°C | 61.8% | 300.0hPa | 2.5V | 00:00:00 | 02:53:48 | 00:00:00 | |
| DL1XH1-15 | 2026-09-04 01:11:41 | 50.91489 | 8.93928 | 111° | 108km/h | 9605m | -4.6m/s | -36.5°C | 62.2% | 299hPa | 2.5V | 07:51:41 | 02:53:42 | 00:00:00 | |
| DF8AY | 2026-09-04 01:11:40 | 50.91441 | 8.94093 | 117° | 119km/h | 9586m | -4.7m/s | -36.3°C | 62.6% | 299.7hPa | 2.5V | 07:51:59 | 02:53:46 | 00:00:00 | |
| BIOWL1-15 | 2026-09-04 01:11:37 | 50.91507 | 8.93847 | 108° | 110km/h | 9614m | -4.3m/s | -36.6°C | 63.5% | 298.6hPa | 2.5V | 07:51:59 | 02:53:40 | 00:00:00 | |
| DL1XH-west | 2026-09-04 01:11:36 | 50.91489 | 8.93928 | 112° | 108km/h | 9605m | -4.6m/s | -36.5°C | 63.4% | 299hPa | 2.5V | 07:51:59 | 02:53:42 | 00:00:00 | |
| HSKMA3-T | 2026-09-04 01:11:35 | 50.91498 | 8.93888 | 110° | 108km/h | 9610m | -4.6m/s | -36.5°C | 63.4% | 298.7hPa | 2.5V | 07:51:59 | 02:53:41 | 00:00:00 | |
| DL8DAS-14 | 2026-09-04 01:11:35 | 50.91507 | 8.93847 | 107° | 108km/h | 9614m | -4.3m/s | -36.6°C | 57.8% | 298.6hPa | 2.5V | 00:00:00 | 00:00:00 | 00:00:00 | |
| DK9SH | 2026-09-04 01:11:34 | 50.91507 | 8.93847 | 109° | 110km/h | 9614m | -4.3m/s | -36.6°C | 57.8% | 298.6hPa | 2.5V | 00:00:00 | 00:00:00 | 00:00:00 | |
| DL1NUX | 2026-09-04 01:11:32 | 50.91538 | 8.93671 | 103° | 122km/h | 9631m | -4.6m/s | -36.7°C | 63.2% | 297.8hPa | 2.5V | 07:51:47 | 02:53:36 | 00:00:00 | |
| DL1XH1-15 | 2026-09-04 01:11:30 | 50.91584 | 8.93418 | 110° | 133km/h | 9651m | -4.2m/s | -36.9°C | 63.8% | 296.9hPa | 2.5V | 07:51:52 | 02:53:31 | 00:00:00 | |
| DF8AY | 2026-09-04 01:11:29 | 50.91545 | 8.93622 | 104° | 126km/h | 9636m | -4.5m/s | -36.8°C | 64.4% | 297.7hPa | 2.5V | 07:51:59 | 02:53:35 | 00:00:00 | |
| BIOWL1-15 | 2026-09-04 01:11:26 | 50.91573 | 8.93470 | 108° | 137km/h | 9648m | -3.9m/s | -36.9°C | 64.9% | 297.1hPa | 2.5V | 07:51:59 | 02:53:32 | 00:00:00 | |
| DL1XH-west | 2026-09-04 01:11:25 | 50.91584 | 8.93418 | 111° | 133km/h | 9651m | -4.2m/s | -36.9°C | 65% | 297hPa | 2.5V | 07:51:59 | 02:53:31 | 00:00:00 | |
| HSKMA3-T | 2026-09-04 01:11:24 | 50.91597 | 8.93368 | 112° | 135km/h | 9655m | -4.5m/s | -37°C | 65% | 296.8hPa | 2.5V | 07:51:59 | 02:53:30 | 00:00:00 | |
| DD1CC3-15 | 2026-09-04 01:11:24 | 50.91597 | 8.93368 | 113° | 135km/h | 9655m | -4.5m/s | -37.0°C | 58.9% | 296.8hPa | 2.5V | 07:51:00 | 00:00:00 | 00:00:00 | |
| SO1NDE-10 | 2026-09-04 01:11:22 | 50.91624 | 8.93272 | 117° | 119km/h | 9664m | -4.0m/s | -37.0°C | 64.0% | 296.4hPa | 2.5V | 00:00:00 | 02:53:28 | 00:00:00 | |
| DL4XJ-10 | 2026-09-04 01:11:21 | 50.91638 | 8.93226 | 117° | 122km/h | 9668m | -4.5m/s | -36.6°C | 0% | 0hPa | 2.5V | 00:00:00 | 00:00:00 | 00:00:00 | |
| DL1XH1-15 | 2026-09-04 01:11:20 | 50.91708 | 8.92975 | 107° | 111km/h | 9693m | -4m/s | -37.3°C | 66% | 295.3hPa | 2.5V | 07:52:02 | 02:53:21 | 00:00:00 | |
| DO2JMG | 2026-09-04 01:11:20 | 50.91652 | 8.93182 | 117° | 119km/h | 9672m | -4.3m/s | 0°C | 0% | 0hPa | 2.5V | 18:12:15 | 02:53:26 | 00:00:00 | |
| DF8AY | 2026-09-04 01:11:19 | 50.91666 | 8.93140 | 117° | 117km/h | 9676m | -4.7m/s | -37.2°C | 65% | 295.9hPa | 2.4V | 07:51:59 | 02:53:25 | 00:00:00 | |
| BIOWL1-15 | 2026-09-04 01:11:16 | 50.91699 | 8.93017 | 109° | 108km/h | 9689m | -3.8m/s | -37.3°C | 65.2% | 295.4hPa | 2.5V | 07:52:50 | 02:53:22 | 00:00:00 | |
| DL1XH-west | 2026-09-04 01:11:14 | 50.91715 | 8.92932 | 104° | 115km/h | 9697m | -3.8m/s | -37.3°C | 65.7% | 295.2hPa | 2.5V | 07:52:50 | 02:53:20 | 00:00:00 | |
| HSKMA3-T | 2026-09-04 01:11:13 | 50.91723 | 8.92886 | 104° | 119km/h | 9701m | -4m/s | -37.4°C | 65.9% | 294.9hPa | 2.4V | 07:52:50 | 02:53:19 | 00:00:00 | |
| DJ2KF-10 | 2026-09-04 01:11:12 | 50.91730 | 8.92838 | 105° | 124km/h | 9705m | -4.1m/s | -37.4°C | 66.9% | 294.7hPa | 2.5V | 00:00:00 | 02:53:18 | 00:00:00 | |
| BIOWL7-15 | 2026-09-04 01:11:11 | 50.91739 | 8.92790 | 108° | 128km/h | 9709m | -3.7m/s | -37.5°C | 61.9% | 294.6hPa | 2.5V | 07:52:00 | 00:00:00 | 00:00:00 | |
| DL1XH1-15 | 2026-09-04 01:11:10 | 50.91813 | 8.92493 | 116° | 128km/h | 9731m | -4.3m/s | -37.7°C | 67.5% | 293.6hPa | 2.5V | 07:52:12 | 02:53:11 | 00:00:00 | |
| DF8AY | 2026-09-04 01:11:09 | 50.91760 | 8.92690 | 110° | 135km/h | 9716m | -3.8m/s | -37.5°C | 67.2% | 294.3hPa | 2.5V | 07:52:50 | 02:53:15 | 00:00:00 | |
| BIOWL1-15 | 2026-09-04 01:11:05 | 50.91813 | 8.92493 | 116° | 128km/h | 9731m | -4.4m/s | -37.7°C | 67.7% | 293.6hPa | 2.5V | 07:52:50 | 02:53:11 | 00:00:00 | |
| DL1XH-west | 2026-09-04 01:11:04 | 50.91827 | 8.92447 | 116° | 128km/h | 9735m | -4.7m/s | -37.7°C | 67.9% | 293.4hPa | 2.5V | 07:52:50 | 02:53:10 | 00:00:00 | |
| HSKMA3-T | 2026-09-04 01:11:03 | 50.91842 | 8.92403 | 118° | 122km/h | 9740m | -4.8m/s | -37.8°C | 68.2% | 293.2hPa | 2.4V | 07:52:50 | 02:53:09 | 00:00:00 | |
| DO3DL | 2026-09-04 01:11:03 | 50.91842 | 8.92403 | 119° | 122km/h | 9740m | -4.8m/s | -37.8°C | 62.8% | 293.3hPa | 2.5V | 07:52:00 | 00:00:00 | 00:00:00 | |
| DL1NUX | 2026-09-04 01:11:02 | 50.91881 | 8.92277 | 114° | 113km/h | 9753m | -5m/s | -37.9°C | 68.2% | 292.7hPa | 2.5V | 07:52:17 | 02:53:06 | 00:00:00 | |
| DL4XJ-10 | 2026-09-04 01:11:01 | 50.91869 | 8.92318 | 118° | 120km/h | 9749m | -5.0m/s | -37.4°C | 0% | 0hPa | 2.5V | 00:00:00 | 00:00:00 | 00:00:00 | |
| DL1XH1-15 | 2026-09-04 01:11:00 | 50.91930 | 8.92076 | 106° | 110km/h | 9775m | -4.9m/s | -38.1°C | 68.8% | 291.7hPa | 2.5V | 07:52:22 | 02:53:01 | 00:00:00 | |
| DF8AY | 2026-09-04 01:10:58 | 50.91903 | 8.92198 | 113° | 106km/h | 9762m | -4.3m/s | -38°C | 68.8% | 292.2hPa | 2.4V | 07:52:50 | 02:53:04 | 00:00:00 | |
| BIOWL1-15 | 2026-09-04 01:10:55 | 50.91930 | 8.92076 | 107° | 110km/h | 9775m | -4.9m/s | -38.1°C | 68.9% | 291.7hPa | 2.5V | 07:52:50 | 02:53:01 | 00:00:00 | |
| DL1XH-west | 2026-09-04 01:10:53 | 50.91944 | 8.91989 | 104° | 117km/h | 9783m | -4.4m/s | -38.2°C | 68.8% | 291.3hPa | 2.4V | 07:52:50 | 02:52:59 | 00:00:00 | |
| DL1NUX | 2026-09-04 01:10:52 | 50.91968 | 8.91845 | 105° | 130km/h | 9796m | -4.3m/s | -38.3°C | 68.5% | 290.8hPa | 2.5V | 07:52:27 | 02:52:56 | 00:00:00 | |
| SO1NDE-10 | 2026-09-04 01:10:52 | 50.91951 | 8.91942 | 105° | 124km/h | 9788m | -4.6m/s | -38.2°C | 68.8% | 291.1hPa | 2.5V | 00:00:00 | 02:52:58 | 00:00:00 | |
| DB0NH | 2026-09-04 01:10:51 | 50.91959 | 8.91894 | 106° | 124km/h | 9792m | -4.0m/s | -38.2°C | 68.7% | 291.0hPa | 2.5V | 00:00:00 | 02:52:57 | 00:00:00 | |
| DL1XH1-15 | 2026-09-04 01:10:50 | 50.92027 | 8.91592 | 114° | 133km/h | 9818m | -4.8m/s | -38.5°C | 68.1% | 289.9hPa | 2.5V | 07:52:32 | 02:52:51 | 00:00:00 | |
| DF8AY | 2026-09-04 01:10:48 | 50.91988 | 8.91742 | 110° | 135km/h | 9804m | -4.7m/s | -38.4°C | 68% | 290.4hPa | 2.5V | 07:52:50 | 02:52:54 | 00:00:00 | |
| BIOWL9-15 | 2026-09-04 01:10:46 | 50.92026 | 8.91592 | 114° | 131km/h | 9818m | -4.8m/s | -38.5°C | 62.8% | 289.9hPa | 2.5V | 00:00:00 | 00:00:00 | 00:00:00 | |
| BIOWL1-15 | 2026-09-04 01:10:44 | 50.92040 | 8.91545 | 116° | 128km/h | 9822m | -4.5m/s | -38.5°C | 66.9% | 289.7hPa | 2.5V | 07:52:50 | 02:52:50 | 00:00:00 | |
| DL1XH-west | 2026-09-04 01:10:43 | 50.92054 | 8.91499 | 117° | 124km/h | 9827m | -4.4m/s | -38.6°C | 66.8% | 289.5hPa | 2.5V | 07:52:50 | 02:52:49 | 00:00:00 | |
| DF2AP-13 | 2026-09-04 01:10:43 | 50.92054 | 8.91499 | 117° | 124km/h | 9827m | -4.3m/s | -38.5°C | 68.3% | 289.5hPa | 2.5V | 00:00:00 | 02:52:49 | 00:00:00 | |
| DL1NUX | 2026-09-04 01:10:42 | 50.92093 | 8.91376 | 113° | 106km/h | 9840m | -4.2m/s | -38.7°C | 67.5% | 289hPa | 2.5V | 07:52:37 | 02:52:46 | 00:00:00 | |
| HSKMA3-T | 2026-09-04 01:10:42 | 50.92068 | 8.91456 | 117° | 117km/h | 9831m | -4.1m/s | -38.6°C | 66.6% | 289.4hPa | 2.4V | 07:52:50 | 02:52:48 | 00:00:00 | |
| DJ2KF-10 | 2026-09-04 01:10:42 | 50.92068 | 8.91456 | 117° | 119km/h | 9831m | -4.1m/s | -38.6°C | 68.3% | 289.3hPa | 2.4V | 00:00:00 | 02:52:48 | 00:00:00 | |
| DL3AQ-11 | 2026-09-04 01:10:41 | 50.92093 | 8.91376 | 113° | 104km/h | 9840m | -4.2m/s | -38.7°C | 62.2% | 289.0hPa | 2.4V | 00:00:00 | 00:00:00 | 00:00:00 | |
| DL1XH1-15 | 2026-09-04 01:10:40 | 50.92138 | 8.91166 | 106° | 120km/h | 9861m | -3.9m/s | -38.8°C | 64.1% | 288.2hPa | 2.4V | 07:52:42 | 02:52:41 | 00:00:00 | |
| DF8AY | 2026-09-04 01:10:37 | 50.92121 | 8.91255 | 107° | 110km/h | 9853m | -3.9m/s | -38.8°C | 64.2% | 288.5hPa | 2.4V | 07:52:50 | 02:52:43 | 00:00:00 | |
| BIOWL1-15 | 2026-09-04 01:10:34 | 50.92147 | 8.91119 | 107° | 128km/h | 9865m | -4m/s | -38.9°C | 62.2% | 287.9hPa | 2.5V | 07:52:50 | 02:52:40 | 00:00:00 | |
| DL1XH-west | 2026-09-04 01:10:32 | 50.92168 | 8.91020 | 112° | 131km/h | 9873m | -4.2m/s | -38.9°C | 59.5% | 287.6hPa | 2.4V | 07:52:50 | 02:52:38 | 00:00:00 | |
| DL1XH1-15 | 2026-09-04 01:10:30 | 50.92269 | 8.90696 | 120° | 117km/h | 9904m | -4.5m/s | -38.9°C | 48.7% | 286.3hPa | 2.4V | 07:52:52 | 02:52:31 | 00:00:00 | |
| DF8AY | 2026-09-04 01:10:26 | 50.92254 | 8.90738 | 119° | 124km/h | 9900m | -4.6m/s | 0°C | 0% | 286.5hPa | 2.4V | 18:12:15 | 02:52:32 | 00:00:00 | |
| BIOWL1-15 | 2026-09-04 01:10:23 | 50.92351 | 8.90414 | 108° | 113km/h | 9933m | -4.6m/s | -39.2°C | 49.8% | 285.1hPa | 2.5V | 07:53:41 | 02:52:24 | 00:00:00 | |
| HSKMA3-T | 2026-09-04 01:10:22 | 50.92311 | 8.90576 | 117° | 110km/h | 9918m | -4.7m/s | -39°C | 49.5% | 285.8hPa | 2.5V | 07:53:41 | 02:52:28 | 00:00:00 | |
| DL1XH-west | 2026-09-04 01:10:21 | 50.92323 | 8.90537 | 115° | 106km/h | 9922m | -4.4m/s | -39.1°C | 49.5% | 285.6hPa | 2.4V | 07:53:41 | 02:52:27 | 00:00:00 | |
| DF8AY | 2026-09-04 01:10:15 | 50.92377 | 8.90278 | 108° | 124km/h | 9946m | -4.6m/s | 0°C | 0% | 0hPa | 2.4V | 18:12:15 | 02:52:21 | 00:00:00 | |
| BIOWL1-15 | 2026-09-04 01:10:14 | 50.92410 | 8.90132 | 112° | 133km/h | 9958m | -5.2m/s | -39.4°C | 49.8% | 284hPa | 2.5V | 07:53:41 | 02:52:18 | 00:00:00 | |
| DL3AQ-11 | 2026-09-04 01:10:14 | 50.92398 | 8.90181 | 110° | 131km/h | 9954m | -4.2m/s | -39.4°C | 44.4% | 284.2hPa | 2.4V | 00:00:00 | 00:00:00 | 00:00:00 | |
| DL1NUX | 2026-09-04 01:10:12 | 50.92438 | 8.90034 | 116° | 131km/h | 9967m | -4.5m/s | -39.5°C | 48.2% | 283.6hPa | 2.4V | 07:53:07 | 02:52:16 | 00:00:00 | |
| DL1XH-west | 2026-09-04 01:10:11 | 50.92423 | 8.90082 | 114° | 135km/h | 9963m | -4.9m/s | -39.4°C | 49.7% | 283.8hPa | 2.5V | 07:53:41 | 02:52:17 | 00:00:00 | |
| DF8AY | 2026-09-04 01:10:05 | 50.92516 | 8.89811 | 120° | 120km/h | 9988m | -4.5m/s | 0°C | 0% | 0hPa | 2.4V | 18:12:15 | 02:52:11 | 00:00:00 | |
| SONCRA | 2026-09-04 01:10:03 | 50.92546 | 8.89732 | 120° | 113km/h | 9997m | -5.5m/s | -39.7°C | 43.0% | 282.4hPa | 2.4V | 00:00:00 | 00:00:00 | 00:00:00 | |
| DL1NUX | 2026-09-04 01:10:02 | 50.92585 | 8.89617 | 114° | 104km/h | 10011m | -4.5m/s | -39.8°C | 47.6% | 281.9hPa | 2.4V | 07:53:17 | 02:52:06 | 00:00:00 | |
| BIOWL1-15 | 2026-09-04 01:10:02 | 50.92560 | 8.89693 | 120° | 110km/h | 10002m | -5m/s | -39.8°C | 48.6% | 282.2hPa | 2.5V | 07:53:41 | 02:52:08 | 00:00:00 | |
| DL1XH-west | 2026-09-04 01:10:00 | 50.92585 | 8.89617 | 115° | 104km/h | 10011m | -4.5m/s | -39.8°C | 48.6% | 281.9hPa | 2.4V | 07:53:41 | 02:52:06 | 00:00:00 | |
| BIOWL1-15 | 2026-09-04 01:09:55 | 50.92681 | 8.89206 | 113° | 137km/h | 10048m | -4.6m/s | -40.2°C | 48.3% | 280.3hPa | 2.5V | 07:53:41 | 02:51:57 | 00:00:00 | |
| DF8AY | 2026-09-04 01:09:54 | 50.92645 | 8.89355 | 109° | 128km/h | 10036m | -4.5m/s | 0°C | 0% | 0hPa | 2.4V | 18:12:15 | 02:52:00 | 00:00:00 | |
| DD1CC8 | 2026-09-04 01:09:53 | 50.92656 | 8.89306 | 111° | 131km/h | 10040m | -4.2m/s | -40.1°C | 42.4% | 280.7hPa | 2.5V | 00:00:00 | 00:00:00 | 00:00:00 | |
| DL1NUX | 2026-09-04 01:09:52 | 50.92695 | 8.89156 | 114° | 135km/h | 10052m | -4.6m/s | -40.2°C | 46.8% | 280.1hPa | 2.5V | 07:53:27 | 02:51:56 | 00:00:00 | |
| HSKMA3-T | 2026-09-04 01:09:50 | 50.92695 | 8.89156 | 115° | 135km/h | 10052m | -4.6m/s | -40.2°C | 48.3% | 280.1hPa | 2.5V | 07:53:41 | 02:51:56 | 00:00:00 | |
| DL1XH-west | 2026-09-04 01:09:49 | 50.92710 | 8.89107 | 116° | 135km/h | 10056m | -5m/s | -40.2°C | 48.4% | 279.9hPa | 2.4V | 07:53:41 | 02:51:55 | 00:00:00 | |
| DF7PN | 2026-09-04 01:09:48 | 50.92741 | 8.89011 | 118° | 131km/h | 10064m | -5.0m/s | -40.3°C | 42.8% | 279.6hPa | 2.5V | 00:00:00 | 00:00:00 | 00:00:00 | |
| DB0ND-19 | 2026-09-04 01:09:47 | 50.92741 | 8.89011 | 118° | 131km/h | 10064m | -5.0m/s | -40.3°C | 42.8% | 279.6hPa | 2.5V | 00:00:00 | 00:00:00 | 00:00:00 | |
| DF8AY | 2026-09-04 01:09:44 | 50.92790 | 8.88877 | 122° | 120km/h | 10078m | -5m/s | 0°C | 0% | 0hPa | 2.5V | 18:12:15 | 02:51:50 | 00:00:00 | |
| BIOWL9-15 | 2026-09-04 01:09:43 | 50.92806 | 8.88837 | 122° | 119km/h | 10082m | -5.3m/s | -40.5°C | 43.6% | 278.8hPa | 2.5V | 00:00:00 | 00:00:00 | 00:00:00 | |
| DL1NUX | 2026-09-04 01:09:42 | 50.92849 | 8.88720 | 119° | 110km/h | 10096m | -5m/s | -40.6°C | 48.8% | 278.3hPa | 2.5V | 07:53:37 | 02:51:46 | 00:00:00 | |
| BIOWL1-15 | 2026-09-04 01:09:41 | 50.92835 | 8.88758 | 120° | 110km/h | 10092m | -4.6m/s | -40.6°C | 49.9% | 278.5hPa | 2.5V | 07:53:41 | 02:51:47 | 00:00:00 | |
| DL1XH1-15 | 2026-09-04 01:09:40 | 50.92903 | 8.88518 | 109° | 115km/h | 10118m | -4.9m/s | -40.8°C | 50.3% | 277.4hPa | 2.5V | 07:53:42 | 02:51:41 | 00:00:00 | |
| HSKMA3-T | 2026-09-04 01:09:40 | 50.92849 | 8.88720 | 119° | 110km/h | 10096m | -5m/s | -40.6°C | 50.2% | 278.3hPa | 2.5V | 07:53:41 | 02:51:46 | 00:00:00 | |
| DL1XH-west | 2026-09-04 01:09:38 | 50.92873 | 8.88642 | 114° | 106km/h | 10105m | -4.5m/s | -40.7°C | 50.7% | 277.9hPa | 2.4V | 07:53:41 | 02:51:44 | 00:00:00 | |
| DF8AY | 2026-09-04 01:09:34 | 50.92913 | 8.88474 | 108° | 120km/h | 10123m | -4.5m/s | 0°C | 0% | 0hPa | 2.5V | 18:12:15 | 02:51:40 | 00:00:00 | |
| DL3AQ-11 | 2026-09-04 01:09:33 | 50.92922 | 8.88427 | 108° | 120km/h | 10127m | -4.5m/s | -40.9°C | 46.3% | 277.0hPa | 2.4V | 00:00:00 | 00:00:00 | 00:00:00 | |
| DL1NUX | 2026-09-04 01:09:32 | 50.92956 | 8.88282 | 111° | 137km/h | 10139m | -3.9m/s | -41°C | 52% | 276.5hPa | 2.4V | 07:53:47 | 02:51:36 | 00:00:00 | |
| BIOWL1-15 | 2026-09-04 01:09:32 | 50.92956 | 8.88282 | 112° | 137km/h | 10139m | -3.9m/s | -41°C | 53% | 276.5hPa | 2.4V | 07:54:32 | 02:51:36 | 00:00:00 | |
| DD8BA-10 | 2026-09-04 01:09:32 | 50.92932 | 8.88380 | 109° | 130km/h | 10132m | -4.1m/s | -40.9°C | 51.4% | 276.8hPa | 2.4V | 00:00:00 | 00:00:00 | 00:00:00 | |
| DL1XH1-15 | 2026-09-04 01:09:30 | 50.93031 | 8.88043 | 121° | 130km/h | 10161m | -4.8m/s | -41.2°C | 53.2% | 275.6hPa | 2.4V | 07:53:52 | 02:51:31 | 00:00:00 | |
| HSKMA3-T | 2026-09-04 01:09:29 | 50.92969 | 8.88232 | 114° | 137km/h | 10143m | -4.4m/s | -41.1°C | 53.3% | 276.3hPa | 2.5V | 07:54:32 | 02:51:35 | 00:00:00 | |
| DL1XH-west | 2026-09-04 01:09:27 | 50.92999 | 8.88134 | 118° | 133km/h | 10152m | -4.7m/s | -41.1°C | 53.8% | 276hPa | 2.4V | 07:54:32 | 02:51:33 | 00:00:00 | |
| BUE01 | 2026-09-04 01:09:25 | 50.93048 | 8.88000 | 120° | 122km/h | 10165m | -4.4m/s | -41.3°C | 48.5% | 275.5hPa | 2.4V | 00:00:00 | 00:00:00 | 00:00:00 | |
| DO9LL-15 | 2026-09-04 01:09:24 | 50.93048 | 8.88000 | 121° | 119km/h | 10165m | -4.4m/s | -41.2°C | 53.4% | 275.4hPa | 2.4V | 00:00:00 | 02:51:30 | 00:00:00 | |
| DD1CC8 | 2026-09-04 01:09:23 | 50.93079 | 8.87919 | 120° | 115km/h | 10174m | -4.8m/s | -41.4°C | 48.9% | 275.1hPa | 2.4V | 00:00:00 | 00:00:00 | 00:00:00 | |
| DD8BA-10 | 2026-09-04 01:09:22 | 50.93079 | 8.87919 | 121° | 113km/h | 10174m | -4.7m/s | -41.3°C | 53.9% | 275.1hPa | 2.4V | 00:00:00 | 00:00:00 | 00:00:00 | |
| DL3AQ-11 | 2026-09-04 01:09:21 | 50.93107 | 8.87842 | 117° | 108km/h | 10184m | -4.5m/s | -41.4°C | 49.5% | 274.8hPa | 2.4V | 00:00:00 | 00:00:00 | 00:00:00 | |
| DL1XH1-15 | 2026-09-04 01:09:20 | 50.93162 | 8.87640 | 107° | 115km/h | 10207m | -4.2m/s | -41.6°C | 54.9% | 273.8hPa | 2.4V | 07:54:02 | 02:51:21 | 00:00:00 | |
| HSKMA3-T | 2026-09-04 01:09:19 | 50.93120 | 8.87803 | 118° | 110km/h | 10188m | -5.3m/s | -41.5°C | 55.8% | 274.5hPa | 2.4V | 07:54:32 | 02:51:25 | 00:00:00 | |
| DL1XH-west | 2026-09-04 01:09:16 | 50.93153 | 8.87683 | 110° | 110km/h | 10203m | -4.2m/s | -41.6°C | 56.1% | 274hPa | 2.4V | 07:54:32 | 02:51:22 | 00:00:00 | |
| HSKMA3-T | 2026-09-04 01:09:09 | 50.93227 | 8.87352 | 113° | 139km/h | 10233m | -4.3m/s | -41.9°C | 56.4% | 272.7hPa | 2.4V | 07:54:32 | 02:51:15 | 00:00:00 | |
| BIOWL1-15 | 2026-09-04 01:09:08 | 50.93350 | 8.86992 | 121° | 108km/h | 10268m | -4.8m/s | -42.3°C | 57.6% | 271.3hPa | 2.5V | 07:54:32 | 02:51:07 | 00:00:00 | |
| DL1XH-west | 2026-09-04 01:09:05 | 50.93288 | 8.87158 | 119° | 131km/h | 10250m | -4.6m/s | -42.1°C | 57% | 272hPa | 2.4V | 07:54:32 | 02:51:11 | 00:00:00 | |
| DF2AP-13 | 2026-09-04 01:09:04 | 50.93304 | 8.87114 | 122° | 119km/h | 10254m | -4.8m/s | -42.1°C | 55.9% | 271.8hPa | 2.4V | 00:00:00 | 02:51:10 | 00:00:00 | |
| DL1NUX | 2026-09-04 01:09:01 | 50.93364 | 8.86954 | 117° | 108km/h | 10272m | -4.8m/s | -42.3°C | 56.2% | 271.1hPa | 2.5V | 07:54:17 | 02:51:06 | 00:00:00 | |
| DL1XH1-15 | 2026-09-04 01:09:00 | 50.93418 | 8.86757 | 107° | 111km/h | 10297m | -4.3m/s | -42.5°C | 58.2% | 270.2hPa | 2.5V | 07:54:22 | 02:51:01 | 00:00:00 | |
| HSKMA3-T | 2026-09-04 01:08:59 | 50.93376 | 8.86916 | 117° | 108km/h | 10277m | -5.2m/s | -42.3°C | 57.9% | 271hPa | 2.4V | 07:54:32 | 02:51:05 | 00:00:00 | |
| DL1XH-west | 2026-09-04 01:08:55 | 50.93418 | 8.86757 | 108° | 111km/h | 10297m | -4.3m/s | -42.5°C | 59.1% | 270.2hPa | 2.5V | 07:54:32 | 02:51:01 | 00:00:00 | |
| DL3AQ-11 | 2026-09-04 01:08:55 | 50.93437 | 8.86669 | 108° | 122km/h | 10306m | -4.7m/s | -42.6°C | 53.3% | 269.8hPa | 2.4V | 00:00:00 | 00:00:00 | 00:00:00 | |
| DD1CC8 | 2026-09-04 01:08:53 | 50.93458 | 8.86572 | 110° | 130km/h | 10314m | -4.7m/s | -42.7°C | 53.8% | 269.5hPa | 2.4V | 00:00:00 | 00:00:00 | 00:00:00 | |
| DB0NH | 2026-09-04 01:08:52 | 50.93458 | 8.86572 | 111° | 122km/h | 10314m | -4.7m/s | -42.6°C | 59.3% | 269.4hPa | 2.4V | 00:00:00 | 02:50:57 | 00:00:00 | |
| DL1XH1-15 | 2026-09-04 01:08:50 | 50.93546 | 8.86287 | 120° | 122km/h | 10339m | -4.8m/s | -42.9°C | 60.2% | 268.5hPa | 2.5V | 07:54:32 | 02:50:51 | 00:00:00 | |
| BIOWL1-15 | 2026-09-04 01:08:50 | 50.93470 | 8.86523 | 113° | 133km/h | 10319m | -4.4m/s | -42.7°C | 60.4% | 269.4hPa | 2.5V | 07:54:32 | 02:50:56 | 00:00:00 | |
| HSKMA3-T | 2026-09-04 01:08:48 | 50.93498 | 8.86424 | 116° | 135km/h | 10327m | -4.8m/s | -42.8°C | 60.6% | 269hPa | 2.4V | 07:54:32 | 02:50:54 | 00:00:00 | |
| DF7PN | 2026-09-04 01:08:45 | 50.93546 | 8.86287 | 120° | 122km/h | 10339m | -4.8m/s | -42.9°C | 54.6% | 268.5hPa | 2.5V | 00:00:00 | 00:00:00 | 00:00:00 | |
| DL1XH-west | 2026-09-04 01:08:44 | 50.93562 | 8.86245 | 122° | 122km/h | 10344m | -5m/s | -43°C | 61.4% | 268.3hPa | 2.5V | 07:55:23 | 02:50:50 | 00:00:00 | |
| DL1NUX | 2026-09-04 01:08:42 | 50.93633 | 8.86049 | 114° | 108km/h | 10368m | -4.8m/s | -43.2°C | 61.4% | 267.4hPa | 2.5V | 07:54:38 | 02:50:45 | 00:00:00 | |
| BIOWL1-15 | 2026-09-04 01:08:41 | 50.93673 | 8.85887 | 107° | 113km/h | 10387m | -4.8m/s | -43.4°C | 63.4% | 266.6hPa | 2.4V | 07:55:23 | 02:50:41 | 00:00:00 | |
| DL3AQ-11 | 2026-09-04 01:08:41 | 50.93620 | 8.86087 | 118° | 106km/h | 10364m | -4.8m/s | -43.2°C | 55.6% | 267.6hPa | 2.4V | 00:00:00 | 00:00:00 | 00:00:00 | |
| DL1XH1-15 | 2026-09-04 01:08:40 | 50.93673 | 8.85887 | 107° | 113km/h | 10387m | -4.8m/s | -43.4°C | 62.5% | 266.6hPa | 2.4V | 07:54:42 | 02:50:41 | 00:00:00 | |
| HSKMA3-T | 2026-09-04 01:08:38 | 50.93644 | 8.86010 | 114° | 104km/h | 10373m | -4.5m/s | -43.2°C | 62.7% | 267.2hPa | 2.5V | 07:55:23 | 02:50:44 | 00:00:00 | |
| DL1XH-west | 2026-09-04 01:08:33 | 50.93691 | 8.85798 | 106° | 122km/h | 10396m | -4.5m/s | -43.5°C | 63.9% | 266.2hPa | 2.5V | 07:55:23 | 02:50:39 | 00:00:00 | |
| DL1NUX | 2026-09-04 01:08:32 | 50.93735 | 8.85602 | 112° | 137km/h | 10413m | -4.4m/s | -43.6°C | 64% | 265.6hPa | 2.4V | 07:54:48 | 02:50:35 | 00:00:00 | |
| DL1XH1-15 | 2026-09-04 01:08:30 | 50.93795 | 8.85411 | 118° | 130km/h | 10430m | -4.7m/s | -43.8°C | 65% | 264.9hPa | 2.4V | 07:54:52 | 02:50:31 | 00:00:00 | |
| HSKMA3-T | 2026-09-04 01:08:29 | 50.93749 | 8.85553 | 115° | 133km/h | 10417m | -4.5m/s | -43.7°C | 65% | 265.4hPa | 2.4V | 07:55:23 | 02:50:34 | 00:00:00 | |
| DB0DAN | 2026-09-04 01:08:25 | 50.93795 | 8.85411 | 119° | 124km/h | 10430m | -4.7m/s | -43.8°C | 59% | 264.9hPa | 2.4V | 00:00:00 | 00:00:00 | 00:00:00 | |
| BIOWL1-15 | 2026-09-04 01:08:24 | 50.93843 | 8.85284 | 122° | 117km/h | 10444m | -5.4m/s | -43.9°C | 66.5% | 264.3hPa | 2.5V | 07:55:23 | 02:50:28 | 00:00:00 | |
| DL1XH-west | 2026-09-04 01:08:23 | 50.93827 | 8.85325 | 120° | 120km/h | 10439m | -4.9m/s | -43.9°C | 66.3% | 264.5hPa | 2.4V | 07:55:23 | 02:50:29 | 00:00:00 | |
| NBG1-10 | 2026-09-04 01:08:23 | 50.93827 | 8.85325 | 121° | 124km/h | 10439m | -4.8m/s | -43.8°C | 65.4% | 264.5hPa | 2.4V | 00:00:00 | 02:50:29 | 00:00:00 | |
| DL1NUX | 2026-09-04 01:08:22 | 50.93884 | 8.85168 | 116° | 106km/h | 10459m | -4.7m/s | -44.1°C | 66.5% | 263.8hPa | 2.4V | 07:54:58 | 02:50:25 | 00:00:00 | |
| SO1NDE-10 | 2026-09-04 01:08:22 | 50.93843 | 8.85284 | 122° | 119km/h | 10444m | -5.3m/s | -43.9°C | 65.7% | 264.2hPa | 2.5V | 07:54:00 | 02:50:28 | 00:00:00 | |
| DL1XH1-15 | 2026-09-04 01:08:20 | 50.93927 | 8.85009 | 108° | 110km/h | 10477m | -4.6m/s | -44.2°C | 67.6% | 263.1hPa | 2.5V | 07:55:02 | 02:50:21 | 00:00:00 | |
| HSKMA3-T | 2026-09-04 01:08:17 | 50.93907 | 8.85090 | 114° | 104km/h | 10468m | -4.7m/s | -44.1°C | 67.8% | 263.4hPa | 2.4V | 07:55:23 | 02:50:23 | 00:00:00 | |
| DD1CC3-15 | 2026-09-04 01:08:16 | 50.93907 | 8.85090 | 115° | 104km/h | 10468m | -4.7m/s | -44.1°C | 60.9% | 263.4hPa | 2.5V | 07:55:00 | 00:00:00 | 00:00:00 | |
| DL1XH-15 | 2026-09-04 01:08:15 | 50.93975 | 8.84774 | 109° | 135km/h | 10500m | -4.5m/s | -44.5°C | 68.8% | 262.1hPa | 2.5V | 07:55:07 | 02:50:16 | 00:00:00 | |
| BIOWL1-15 | 2026-09-04 01:08:14 | 50.93964 | 8.84824 | 109° | 130km/h | 10495m | -4.3m/s | -44.4°C | 69.3% | 262.4hPa | 2.5V | 07:55:23 | 02:50:17 | 00:00:00 | |
| DL1XH-west | 2026-09-04 01:08:13 | 50.93945 | 8.84920 | 107° | 120km/h | 10486m | -4.5m/s | -44.3°C | 68.9% | 262.7hPa | 2.4V | 07:55:23 | 02:50:19 | 00:00:00 | |
| DJ2KF-10 | 2026-09-04 01:08:12 | 50.93954 | 8.84873 | 108° | 124km/h | 10491m | -4.7m/s | -44.3°C | 68.2% | 262.5hPa | 2.5V | 07:55:00 | 02:50:18 | 00:00:00 | |
| DL1NUX | 2026-09-04 01:08:11 | 50.93987 | 8.84724 | 111° | 133km/h | 10504m | -4.4m/s | -44.5°C | 69% | 262hPa | 2.5V | 07:55:08 | 02:50:15 | 00:00:00 | |
| DB0DAN | 2026-09-04 01:08:10 | 50.93975 | 8.84774 | 109° | 128km/h | 10500m | -4.5m/s | -44.5°C | 62.5% | 262.15hPa | 2.5V | 00:00:00 | 00:00:00 | 00:00:00 | |
| DL1XH1-15 | 2026-09-04 01:08:10 | 50.94044 | 8.84527 | 118° | 135km/h | 10520m | -4.8m/s | -44.7°C | 70.5% | 261.3hPa | 2.5V | 07:55:12 | 02:50:11 | 00:00:00 | |
| HSKMA3-T | 2026-09-04 01:08:06 | 50.94028 | 8.84575 | 117° | 135km/h | 10517m | -4.3m/s | -44.6°C | 70.7% | 261.4hPa | 2.4V | 07:55:23 | 02:50:12 | 00:00:00 | |
| DL4XJ-10 | 2026-09-04 01:08:06 | 50.94028 | 8.84575 | 118° | 124km/h | 10517m | -4.3m/s | -44.2°C | 0% | 0hPa | 2.4V | 00:00:00 | 00:00:00 | 00:00:00 | |
| DL1XH-15 | 2026-09-04 01:08:05 | 50.94120 | 8.84316 | 119° | 113km/h | 10544m | -5.5m/s | -44.9°C | 72% | 260.4hPa | 2.4V | 07:55:17 | 02:50:06 | 00:00:00 | |
| BIOWL1-15 | 2026-09-04 01:08:02 | 50.94091 | 8.84395 | 121° | 117km/h | 10534m | -5m/s | -44.8°C | 71.9% | 260.7hPa | 2.4V | 07:55:23 | 02:50:08 | 00:00:00 | |
| DL1NUX | 2026-09-04 01:08:01 | 50.94133 | 8.84277 | 116° | 108km/h | 10549m | -5.6m/s | -44.9°C | 72.3% | 260.2hPa | 2.5V | 07:55:18 | 02:50:05 | 00:00:00 | |
| HSKMA3-T | 2026-09-04 01:07:56 | 50.94166 | 8.84160 | 112° | 108km/h | 10564m | -5m/s | -45°C | 73.8% | 259.7hPa | 2.4V | 07:55:23 | 02:50:02 | 00:00:00 | |
| AU51GT2 | 2026-09-04 01:07:53 | 50.94193 | 8.84031 | 107° | 115km/h | 10579m | -4.7m/s | -45.2°C | 67.4% | 259.2hPa | 2.4V | 00:00:00 | 00:00:00 | 00:00:00 | |
| BUE01 | 2026-09-04 01:07:52 | 50.94211 | 8.83939 | 107° | 126km/h | 10588m | -5.2m/s | -45.3°C | 68.0% | 258.8hPa | 2.4V | 00:00:00 | 00:00:00 | 00:00:00 | |
| DM0DOS-11 | 2026-09-04 01:07:51 | 50.94232 | 8.83840 | 109° | 133km/h | 10598m | -4.3m/s | -45.4°C | 75.7% | 258.4hPa | 2.4V | 07:55:28 | 02:49:55 | 00:00:00 | |
| BIOWL1-15 | 2026-09-04 01:07:51 | 50.94211 | 8.83939 | 108° | 126km/h | 10588m | -5.2m/s | -45.3°C | 75% | 258.8hPa | 2.4V | 07:56:14 | 02:49:57 | 00:00:00 | |
| DJ2DS-15 | 2026-09-04 01:07:49 | 50.94232 | 8.83840 | 109° | 133km/h | 10598m | -4.3m/s | -45.4°C | 68.8% | 258.4hPa | 2.5V | 00:00:00 | 00:00:00 | 00:00:00 | |
| DL1XH-15 | 2026-09-04 01:07:48 | 50.94257 | 8.83739 | 113° | 137km/h | 10606m | -3.9m/s | -45.4°C | 76% | 258hPa | 2.5V | 07:55:30 | 02:49:53 | 00:00:00 | |
| HSKMA3-T | 2026-09-04 01:07:46 | 50.94271 | 8.83689 | 115° | 137km/h | 10610m | -4.3m/s | -45.5°C | 76.1% | 257.9hPa | 2.5V | 07:56:14 | 02:49:52 | 00:00:00 | |
| DB0ND-19 | 2026-09-04 01:07:43 | 50.94318 | 8.83549 | 120° | 130km/h | 10623m | -5.0m/s | -45.6°C | 68.7% | 257.4hPa | 2.4V | 00:00:00 | 00:00:00 | 00:00:00 | |
| DL1XH-15 | 2026-09-04 01:07:42 | 50.94407 | 8.83303 | 118° | 104km/h | 10651m | -5m/s | -45.9°C | 76.3% | 256.3hPa | 2.4V | 07:55:40 | 02:49:43 | 00:00:00 | |
| DJ2KF-10 | 2026-09-04 01:07:42 | 50.94334 | 8.83504 | 120° | 117km/h | 10628m | -4.5m/s | -45.6°C | 75.3% | 257.2hPa | 2.5V | 00:00:00 | 02:49:48 | 00:00:00 | |
| DM0DOS-11 | 2026-09-04 01:07:41 | 50.94381 | 8.83380 | 119° | 115km/h | 10641m | -4.9m/s | -45.8°C | 75.5% | 256.6hPa | 2.4V | 07:55:38 | 02:49:45 | 00:00:00 | |
| BIOWL1-15 | 2026-09-04 01:07:41 | 50.94394 | 8.83340 | 119° | 108km/h | 10646m | -5.1m/s | -45.8°C | 76.4% | 256.4hPa | 2.4V | 07:56:14 | 02:49:44 | 00:00:00 | |
| DL1XH-west | 2026-09-04 01:07:40 | 50.94366 | 8.83420 | 122° | 119km/h | 10637m | -4.9m/s | -45.8°C | 76% | 256.8hPa | 2.5V | 07:56:14 | 02:49:46 | 00:00:00 | |
| HSKMA3-T | 2026-09-04 01:07:35 | 50.94430 | 8.83228 | 113° | 104km/h | 10661m | -4.8m/s | -46°C | 77% | 255.9hPa | 2.5V | 07:56:14 | 02:49:41 | 00:00:00 | |
| BIOWL1-15 | 2026-09-04 01:07:31 | 50.94488 | 8.82965 | 110° | 130km/h | 10688m | -5m/s | -46.2°C | 78.3% | 254.9hPa | 2.5V | 07:56:14 | 02:49:35 | 00:00:00 | |
| DL1XH-15 | 2026-09-04 01:07:30 | 50.94513 | 8.82867 | 112° | 133km/h | 10698m | -4.4m/s | -46.3°C | 78.7% | 254.5hPa | 2.4V | 07:55:50 | 02:49:33 | 00:00:00 | |
| DL1XH-west | 2026-09-04 01:07:30 | 50.94478 | 8.83014 | 108° | 128km/h | 10684m | -4.3m/s | -46.2°C | 78.1% | 255hPa | 2.5V | 07:56:14 | 02:49:36 | 00:00:00 | |
| HSKMA3-T | 2026-09-04 01:07:25 | 50.94540 | 8.82768 | 115° | 135km/h | 10706m | -5m/s | -46.4°C | 79.3% | 254.1hPa | 2.4V | 07:56:14 | 02:49:31 | 00:00:00 | |
| DL1XH-west | 2026-09-04 01:07:20 | 50.94619 | 8.82545 | 122° | 115km/h | 10728m | -5.1m/s | -46.6°C | 80.9% | 253.3hPa | 2.4V | 07:56:14 | 02:49:26 | 00:00:00 | |
| DL1XH-15 | 2026-09-04 01:07:18 | 50.94663 | 8.82431 | 120° | 110km/h | 10744m | -5.5m/s | -46.8°C | 81.5% | 252.7hPa | 2.5V | 07:56:00 | 02:49:23 | 00:00:00 | |
| BIOWL1-15 | 2026-09-04 01:07:18 | 50.94649 | 8.82468 | 121° | 108km/h | 10738m | -5m/s | -46.7°C | 81.4% | 252.9hPa | 2.5V | 07:56:14 | 02:49:24 | 00:00:00 | |
| DJ8HS-15 | 2026-09-04 01:07:18 | 50.94649 | 8.82468 | 122° | 119km/h | 10739m | -5.0m/s | -46.7°C | 81.3% | 252.8hPa | 2.4V | 00:00:00 | 02:49:24 | 00:00:00 | |
| BIOWL7-15 | 2026-09-04 01:07:17 | 50.94649 | 8.82468 | 122° | 108km/h | 10739m | -5.0m/s | -46.7°C | 73.9% | 252.9hPa | 2.4V | 00:00:00 | 00:00:00 | 00:00:00 | |
| DL1XH1-15 | 2026-09-04 01:07:16 | 50.94689 | 8.82357 | 116° | 106km/h | 10754m | -5m/s | -46.9°C | 82.2% | 252.3hPa | 2.4V | 07:56:02 | 02:49:21 | 00:00:00 | |
| DD1CC3-15 | 2026-09-04 01:07:15 | 50.94689 | 8.82356 | 117° | 106km/h | 10754m | -5.1m/s | -46.9°C | 74.7% | 252.3hPa | 2.4V | 07:56:00 | 00:00:00 | 00:00:00 | |
| HSKMA3-T | 2026-09-04 01:07:15 | 50.94700 | 8.82319 | 114° | 102km/h | 10759m | -5m/s | -46.9°C | 82.4% | 252.2hPa | 2.4V | 07:56:14 | 02:49:20 | 00:00:00 | |
| DJ2DS-15 | 2026-09-04 01:07:13 | 50.94711 | 8.82280 | 112° | 106km/h | 10764m | -5.1m/s | -47.0°C | 75.3% | 252.0hPa | 2.4V | 00:00:00 | 00:00:00 | 00:00:00 | |
| DJ2KF-10 | 2026-09-04 01:07:12 | 50.94721 | 8.82240 | 110° | 122km/h | 10769m | -4.2m/s | -46.9°C | 83.4% | 251.7hPa | 2.4V | 00:00:00 | 02:49:18 | 00:00:00 | |
| DM0DOS-11 | 2026-09-04 01:07:11 | 50.94749 | 8.82107 | 109° | 124km/h | 10783m | -5.1m/s | -47.1°C | 83.9% | 251.3hPa | 2.4V | 07:56:08 | 02:49:15 | 00:00:00 | |
| DL1XH1-15 | 2026-09-04 01:07:10 | 50.94798 | 8.81912 | 115° | 131km/h | 10802m | -4.5m/s | -47.3°C | 85.1% | 250.6hPa | 2.5V | 07:56:12 | 02:49:11 | 00:00:00 | |
| DL1XH-west | 2026-09-04 01:07:10 | 50.94740 | 8.82153 | 108° | 117km/h | 10779m | -4.7m/s | -47.1°C | 83.4% | 251.5hPa | 2.4V | 07:56:14 | 02:49:16 | 00:00:00 | |
| BIOWL1-15 | 2026-09-04 01:07:10 | 50.94772 | 8.82009 | 111° | 131km/h | 10793m | -4.9m/s | -47.2°C | 84% | 250.9hPa | 2.4V | 07:56:14 | 02:49:13 | 00:00:00 | |
| HSKMA3-T | 2026-09-04 01:07:04 | 50.94813 | 8.81865 | 118° | 135km/h | 10806m | -4.1m/s | -47.3°C | 84.7% | 250.4hPa | 2.4V | 07:56:14 | 02:49:10 | 00:00:00 | |
| WPPR-10 | 2026-09-04 01:07:04 | 50.94829 | 8.81817 | 118° | 133km/h | 10810m | -4.3m/s | -47.4°C | 77.7% | 250.2hPa | 2.5V | 00:00:00 | 00:00:00 | 00:00:00 | |
| DF2AP-13 | 2026-09-04 01:07:03 | 50.94829 | 8.81817 | 119° | 120km/h | 10810m | -4.2m/s | -47.3°C | 85.5% | 250.2hPa | 2.5V | 00:00:00 | 02:49:09 | 00:00:00 | |
| DM0DOS-11 | 2026-09-04 01:07:01 | 50.94894 | 8.81645 | 121° | 115km/h | 10828m | -4.6m/s | -47.6°C | 86.5% | 249.5hPa | 2.5V | 07:56:18 | 02:49:05 | 00:00:00 | |
| DL1XH-west | 2026-09-04 01:06:59 | 50.94894 | 8.81645 | 122° | 115km/h | 10828m | -4.6m/s | -47.6°C | 85.6% | 249.5hPa | 2.5V | 07:57:05 | 02:49:05 | 00:00:00 | |
| DB0UT-7 | 2026-09-04 01:06:59 | 50.94894 | 8.81645 | 122° | 117km/h | 10828m | -4.6m/s | -47.5°C | 86.5% | 249.5hPa | 2.4V | 00:00:00 | 00:00:00 | 00:00:00 | |
| DL1XH1-15 | 2026-09-04 01:06:58 | 50.94947 | 8.81491 | 115° | 104km/h | 10845m | -4.5m/s | -47.7°C | 87.2% | 248.9hPa | 2.4V | 07:56:22 | 02:49:01 | 00:00:00 | |
| BIOWL1-15 | 2026-09-04 01:06:57 | 50.94923 | 8.81567 | 119° | 110km/h | 10836m | -4.4m/s | -47.7°C | 85.9% | 249.2hPa | 2.4V | 07:57:05 | 02:49:03 | 00:00:00 | |
| HSKMA3-T | 2026-09-04 01:06:53 | 50.94968 | 8.81413 | 110° | 108km/h | 10854m | -4.4m/s | -47.8°C | 86.3% | 248.5hPa | 2.5V | 07:57:05 | 02:48:59 | 00:00:00 | |
| SO1NDE-10 | 2026-09-04 01:06:52 | 50.94977 | 8.81371 | 109° | 120km/h | 10859m | -4.3m/s | -47.8°C | 87.5% | 248.4hPa | 2.4V | 00:00:00 | 02:48:58 | 00:00:00 | |
| DM0DOS-11 | 2026-09-04 01:06:51 | 50.95007 | 8.81235 | 110° | 124km/h | 10872m | -4.5m/s | -48°C | 87.2% | 247.9hPa | 2.4V | 07:56:28 | 02:48:55 | 00:00:00 | |
| DL1XH-west | 2026-09-04 01:06:49 | 50.95007 | 8.81235 | 110° | 124km/h | 10872m | -4.5m/s | -48°C | 86.2% | 247.9hPa | 2.4V | 07:57:05 | 02:48:55 | 00:00:00 | |
| DD1CC8 | 2026-09-04 01:06:47 | 50.95031 | 8.81140 | 113° | 130km/h | 10880m | -4.3m/s | -48.1°C | 78.6% | 247.6hPa | 2.4V | 00:00:00 | 00:00:00 | 00:00:00 | |
| DL1XH1-15 | 2026-09-04 01:06:46 | 50.95060 | 8.81043 | 116° | 135km/h | 10887m | -4.2m/s | -48.1°C | 86.1% | 247.2hPa | 2.4V | 07:56:32 | 02:48:51 | 00:00:00 | |
| BIOWL1-15 | 2026-09-04 01:06:46 | 50.95045 | 8.81092 | 116° | 135km/h | 10884m | -3.9m/s | -48.1°C | 85.8% | 247.4hPa | 2.4V | 07:57:05 | 02:48:52 | 00:00:00 | |
| HSKMA3-T | 2026-09-04 01:06:42 | 50.95109 | 8.80906 | 122° | 130km/h | 10900m | -4.7m/s | -48.3°C | 84% | 246.8hPa | 2.5V | 07:57:05 | 02:48:48 | 00:00:00 | |
| DJ2KF-10 | 2026-09-04 01:06:42 | 50.95109 | 8.80906 | 122° | 119km/h | 10900m | -4.6m/s | -48.2°C | 84.5% | 246.7hPa | 2.4V | 00:00:00 | 02:48:48 | 00:00:00 | |
| DM0DOS-11 | 2026-09-04 01:06:41 | 50.95158 | 8.80782 | 121° | 117km/h | 10912m | -4.8m/s | -48.4°C | 82.7% | 246.2hPa | 2.4V | 07:56:38 | 02:48:45 | 00:00:00 | |
| DB0DAN | 2026-09-04 01:06:40 | 50.95142 | 8.80822 | 123° | 113km/h | 10908m | -5m/s | -48.4°C | 75.3% | 246.4hPa | 2.4V | 00:00:00 | 00:00:00 | 00:00:00 | |
| DL1XH-west | 2026-09-04 01:06:39 | 50.95158 | 8.80782 | 121° | 117km/h | 10912m | -4.8m/s | -48.4°C | 82.1% | 246.2hPa | 2.4V | 07:57:05 | 02:48:45 | 00:00:00 | |
| BIOWL1-15 | 2026-09-04 01:06:36 | 50.95201 | 8.80669 | 118° | 106km/h | 10927m | -4.6m/s | -48.5°C | 79% | 245.8hPa | 2.5V | 07:57:05 | 02:48:42 | 00:00:00 | |
| HSKMA3-T | 2026-09-04 01:06:31 | 50.95256 | 8.80479 | 110° | 111km/h | 10949m | -4.9m/s | -48.6°C | 74% | 244.9hPa | 2.5V | 07:57:05 | 02:48:37 | 00:00:00 | |
| DM0DOS-11 | 2026-09-04 01:06:31 | 50.95275 | 8.80390 | 107° | 120km/h | 10959m | -4.5m/s | -48.7°C | 72.8% | 244.6hPa | 2.5V | 07:56:48 | 02:48:35 | 00:00:00 | |
| DL1XH-west | 2026-09-04 01:06:28 | 50.95284 | 8.80344 | 108° | 124km/h | 10963m | -4.4m/s | -48.7°C | 71.5% | 244.4hPa | 2.4V | 07:57:05 | 02:48:34 | 00:00:00 | |
| BIOWL1-15 | 2026-09-04 01:06:26 | 50.95405 | 8.79920 | 122° | 126km/h | 11001m | -4.9m/s | -49°C | 65% | 242.9hPa | 2.4V | 07:57:05 | 02:48:25 | 00:00:00 | |
| DB0DAN | 2026-09-04 01:06:25 | 50.95316 | 8.80199 | 111° | 126km/h | 10975m | -4.7m/s | -48.8°C | 62.1% | 243.9hPa | 2.4V | 00:00:00 | 00:00:00 | 00:00:00 | |
| DD8BA-10 | 2026-09-04 01:06:25 | 50.95316 | 8.80199 | 112° | 131km/h | 10976m | -4.7m/s | -48.8°C | 69.3% | 243.9hPa | 2.4V | 00:00:00 | 00:00:00 | 00:00:00 | |
| HTAHTA | 2026-09-04 01:06:24 | 50.95357 | 8.80054 | 117° | 130km/h | 10988m | -5.1m/s | -48.9°C | 59.3% | 243.5hPa | 2.4V | 00:00:00 | 00:00:00 | 00:00:00 | |
| SO1NDE-10 | 2026-09-04 01:06:22 | 50.95357 | 8.80054 | 118° | 120km/h | 10989m | -5.1m/s | -48.8°C | 66.4% | 243.4hPa | 2.4V | 00:00:00 | 02:48:28 | 00:00:00 | |
| DM0DOS-11 | 2026-09-04 01:06:21 | 50.95405 | 8.79920 | 122° | 126km/h | 11001m | -4.9m/s | -49°C | 64.9% | 242.9hPa | 2.4V | 07:56:58 | 02:48:25 | 00:00:00 | |
| HSKMA3-T | 2026-09-04 01:06:20 | 50.95388 | 8.79963 | 121° | 128km/h | 10997m | -4.5m/s | -49°C | 65.5% | 243.1hPa | 2.4V | 07:57:05 | 02:48:26 | 00:00:00 | |
| DL1XH-west | 2026-09-04 01:06:18 | 50.95422 | 8.79878 | 123° | 122km/h | 11007m | -4.7m/s | -49°C | 64.5% | 242.8hPa | 2.5V | 07:57:05 | 02:48:24 | 00:00:00 | |
| BIOWL1-15 | 2026-09-04 01:06:12 | 50.95507 | 8.79648 | 115° | 102km/h | 11035m | -4.7m/s | -49.2°C | 60.1% | 241.8hPa | 2.5V | 07:57:05 | 02:48:18 | 00:00:00 | |
| DB0DAN | 2026-09-04 01:06:10 | 50.95527 | 8.79569 | 109° | 102km/h | 11044m | -4.4m/s | -49.2°C | 0% | 241.49hPa | 2.4V | 00:00:00 | 00:00:00 | 00:00:00 | |
| DM0DOS-11 | 2026-09-04 01:06:10 | 50.95536 | 8.79528 | 108° | 111km/h | 11048m | -4.6m/s | -49.3°C | 57.4% | 241.3hPa | 2.4V | 07:57:08 | 02:48:15 | 00:00:00 | |
| DL1XH1-15 | 2026-09-04 01:06:10 | 50.95574 | 8.79346 | 108° | 128km/h | 11066m | -4.7m/s | -49.4°C | 56.4% | 240.7hPa | 2.5V | 07:57:12 | 02:48:11 | 00:00:00 | |
| HSKMA3-T | 2026-09-04 01:06:10 | 50.95527 | 8.79569 | 109° | 108km/h | 11044m | -4.4m/s | -49.2°C | 59% | 241.5hPa | 2.4V | 07:57:56 | 02:48:16 | 00:00:00 | |
| DL1XH-west | 2026-09-04 01:06:07 | 50.95554 | 8.79440 | 108° | 117km/h | 11057m | -4.7m/s | -49.3°C | 58% | 241hPa | 2.4V | 07:57:56 | 02:48:13 | 00:00:00 | |
| DL4BBY-15 | 2026-09-04 01:06:06 | 50.95564 | 8.79394 | 109° | 124km/h | 11061m | -4.6m/s | -49.0°C | 0% | 0hPa | 2.5V | 00:00:00 | 00:00:00 | 00:00:00 | |
| DD8BA-10 | 2026-09-04 01:06:05 | 50.95574 | 8.79346 | 109° | 130km/h | 11066m | -4.7m/s | -49.4°C | 56.4% | 240.6hPa | 2.5V | 00:00:00 | 00:00:00 | 00:00:00 | |
| SONDE2-11 | 2026-09-04 01:06:04 | 50.95595 | 8.79249 | 111° | 130km/h | 11075m | -5.0m/s | -49.5°C | 49.0% | 240.4hPa | 2.5V | 00:00:00 | 00:00:00 | 00:00:00 | |
| DL1NUX | 2026-09-04 01:06:02 | 50.95652 | 8.79057 | 117° | 131km/h | 11091m | -4.5m/s | -49.6°C | 53.1% | 239.7hPa | 2.5V | 07:57:18 | 02:48:05 | 00:00:00 | |
| BIOWL1-15 | 2026-09-04 01:06:02 | 50.95608 | 8.79201 | 113° | 131km/h | 11080m | -4.5m/s | -49.6°C | 56.5% | 240.2hPa | 2.4V | 07:57:56 | 02:48:08 | 00:00:00 | |
| HSKMA3-T | 2026-09-04 01:06:00 | 50.95636 | 8.79104 | 117° | 135km/h | 11088m | -4.1m/s | -49.6°C | 55.4% | 239.8hPa | 2.5V | 07:57:56 | 02:48:06 | 00:00:00 | |
| DB0UT-7 | 2026-09-04 01:05:59 | 50.95652 | 8.79057 | 118° | 120km/h | 11092m | -4.4m/s | -49.6°C | 53.1% | 239.7hPa | 2.4V | 00:00:00 | 00:00:00 | 00:00:00 | |
| DL1XH1-15 | 2026-09-04 01:05:58 | 50.95716 | 8.78885 | 121° | 119km/h | 11109m | -4.4m/s | -49.8°C | 51.8% | 239.1hPa | 2.4V | 07:57:22 | 02:48:01 | 00:00:00 | |
| DL1XH-west | 2026-09-04 01:05:57 | 50.95684 | 8.78967 | 121° | 124km/h | 11100m | -5m/s | -49.7°C | 53.9% | 239.4hPa | 2.4V | 07:57:56 | 02:48:03 | 00:00:00 | |
| SONCRA | 2026-09-04 01:05:55 | 50.95732 | 8.78845 | 122° | 113km/h | 11113m | -4.9m/s | -49.8°C | 45.3% | 238.9hPa | 2.4V | 00:00:00 | 00:00:00 | 00:00:00 | |
| HTAHTA | 2026-09-04 01:05:53 | 50.95772 | 8.78732 | 116° | 104km/h | 11127m | -4.5m/s | -49.9°C | 45.2% | 238.4hPa | 2.4V | 00:00:00 | 00:00:00 | 00:00:00 | |
| DL1NUX | 2026-09-04 01:05:52 | 50.95793 | 8.78656 | 110° | 106km/h | 11136m | -4.6m/s | -49.9°C | 52.4% | 238.1hPa | 2.4V | 07:57:28 | 02:47:55 | 00:00:00 | |
| BIOWL1-15 | 2026-09-04 01:05:52 | 50.95760 | 8.78770 | 118° | 108km/h | 11123m | -4.2m/s | -49.8°C | 52.5% | 238.5hPa | 2.4V | 07:57:56 | 02:47:58 | 00:00:00 | |
| HSKMA3-T | 2026-09-04 01:05:49 | 50.95793 | 8.78656 | 111° | 106km/h | 11136m | -4.6m/s | -50°C | 53.1% | 238.1hPa | 2.4V | 07:57:56 | 02:47:55 | 00:00:00 | |
| AU51GT2 | 2026-09-04 01:05:49 | 50.95793 | 8.78656 | 110° | 106km/h | 11136m | -4.6m/s | -50.0°C | 46.0% | 238.1hPa | 2.4V | 00:00:00 | 00:00:00 | 00:00:00 | |
| DL1XH-15 | 2026-09-04 01:05:48 | 50.95842 | 8.78439 | 110° | 128km/h | 11159m | -4.5m/s | -50.1°C | 52.8% | 237.3hPa | 2.4V | 07:57:33 | 02:47:50 | 00:00:00 | |
| DL1XH1-15 | 2026-09-04 01:05:48 | 50.95832 | 8.78486 | 109° | 120km/h | 11154m | -4.3m/s | -50.1°C | 52.9% | 237.5hPa | 2.4V | 07:57:32 | 02:47:51 | 00:00:00 | |
| DL1XH-west | 2026-09-04 01:05:46 | 50.95822 | 8.78531 | 109° | 117km/h | 11150m | -4.5m/s | -50.1°C | 53.7% | 237.6hPa | 2.4V | 07:57:56 | 02:47:52 | 00:00:00 | |
| DD1CC8 | 2026-09-04 01:05:45 | 50.95832 | 8.78486 | 109° | 120km/h | 11155m | -4.3m/s | -50.1°C | 46.4% | 237.5hPa | 2.5V | 00:00:00 | 00:00:00 | 00:00:00 | |
| BIOWL1-15 | 2026-09-04 01:05:41 | 50.95879 | 8.78293 | 113° | 135km/h | 11172m | -4.5m/s | -50.3°C | 53.6% | 236.8hPa | 2.5V | 07:57:56 | 02:47:47 | 00:00:00 | |
| HSKMA3-T | 2026-09-04 01:05:39 | 50.95907 | 8.78194 | 116° | 139km/h | 11180m | -4.4m/s | -50.4°C | 53.3% | 236.5hPa | 2.4V | 07:57:56 | 02:47:45 | 00:00:00 | |
| DB0ND-19 | 2026-09-04 01:05:39 | 50.95922 | 8.78145 | 116° | 135km/h | 11184m | -5.0m/s | -50.4°C | 44.5% | 236.3hPa | 2.5V | 00:00:00 | 00:00:00 | 00:00:00 | |
| DL1XH1-15 | 2026-09-04 01:05:38 | 50.95972 | 8.78004 | 122° | 130km/h | 11197m | -4.6m/s | -50.5°C | 50.6% | 235.8hPa | 2.5V | 07:57:42 | 02:47:41 | 00:00:00 | |
| DL1XH-west | 2026-09-04 01:05:35 | 50.95972 | 8.78004 | 122° | 130km/h | 11197m | -4.6m/s | -50.5°C | 52.4% | 235.8hPa | 2.5V | 07:57:56 | 02:47:41 | 00:00:00 | |
| DD8BA-10 | 2026-09-04 01:05:35 | 50.95972 | 8.78004 | 123° | 115km/h | 11198m | -4.6m/s | -50.5°C | 50.6% | 235.8hPa | 2.5V | 00:00:00 | 00:00:00 | 00:00:00 | |
| DL4XJ-10 | 2026-09-04 01:05:34 | 50.95989 | 8.77961 | 123° | 124km/h | 11202m | -4.3m/s | -50.2°C | 0% | 0hPa | 2.5V | 00:00:00 | 00:00:00 | 00:00:00 | |
| DL3AQ-11 | 2026-09-04 01:05:33 | 50.96006 | 8.77920 | 123° | 117km/h | 11206m | -4.6m/s | -50.6°C | 43.9% | 235.5hPa | 2.5V | 00:00:00 | 00:00:00 | 00:00:00 | |
| DL1NUX | 2026-09-04 01:05:32 | 50.96063 | 8.77766 | 115° | 108km/h | 11224m | -4.4m/s | -50.7°C | 50.1% | 234.9hPa | 2.5V | 07:57:48 | 02:47:35 | 00:00:00 | |
| BIOWL1-15 | 2026-09-04 01:05:31 | 50.96037 | 8.77843 | 121° | 111km/h | 11215m | -4.9m/s | -50.7°C | 51.2% | 235.2hPa | 2.4V | 07:57:56 | 02:47:37 | 00:00:00 | |
| EDDB2-11 | 2026-09-04 01:05:30 | 50.96063 | 8.77766 | 115° | 106km/h | 11224m | -4.4m/s | -50.7°C | 43.7% | 234.9hPa | 2.4V | 00:00:00 | 00:00:00 | 00:00:00 | |
| DB0UT-7 | 2026-09-04 01:05:29 | 50.96063 | 8.77766 | 116° | 124km/h | 11225m | -4.3m/s | -50.7°C | 50.1% | 234.8hPa | 2.4V | 00:00:00 | 02:47:35 | 00:00:00 | |
| DL1XH1-15 | 2026-09-04 01:05:28 | 50.96106 | 8.77600 | 111° | 120km/h | 11242m | -4.5m/s | -50.9°C | 49.4% | 234.3hPa | 2.4V | 07:57:52 | 02:47:31 | 00:00:00 | |
| HSKMA3-T | 2026-09-04 01:05:28 | 50.96074 | 8.77727 | 114° | 108km/h | 11229m | -4.8m/s | -50.8°C | 50.6% | 234.7hPa | 2.4V | 07:57:56 | 02:47:34 | 00:00:00 | |
| DL1XH-west | 2026-09-04 01:05:24 | 50.96118 | 8.77555 | 111° | 124km/h | 11247m | -4.3m/s | -50.9°C | 49.5% | 234.1hPa | 2.5V | 07:57:56 | 02:47:30 | 00:00:00 | |
| DJ2DS-15 | 2026-09-04 01:05:24 | 50.96118 | 8.77555 | 112° | 128km/h | 11247m | -4.2m/s | -50.8°C | 48.8% | 234.1hPa | 2.5V | 00:00:00 | 02:47:30 | 00:00:00 | |
| DO3DL | 2026-09-04 01:05:23 | 50.96118 | 8.77555 | 112° | 124km/h | 11247m | -4.3m/s | -50.9°C | 42.5% | 234.1hPa | 2.4V | 07:57:00 | 00:00:00 | 00:00:00 | |
| DL1NUX | 2026-09-04 01:05:22 | 50.96184 | 8.77311 | 115° | 141km/h | 11270m | -4.3m/s | -51.1°C | 46.8% | 233.3hPa | 2.4V | 07:57:58 | 02:47:25 | 00:00:00 | |
| HSKMA3-T | 2026-09-04 01:05:17 | 50.96216 | 8.77211 | 118° | 141km/h | 11277m | -4.1m/s | -51.1°C | 47.5% | 233hPa | 2.5V | 07:58:47 | 02:47:23 | 00:00:00 | |
| DO2JMG | 2026-09-04 01:05:16 | 50.96234 | 8.77162 | 119° | 141km/h | 11280m | -4.6m/s | -51.2°C | 47.1% | 232.8hPa | 2.4V | 08:00:29 | 02:47:22 | 00:00:00 | |
| DL1XH1-15 | 2026-09-04 01:05:16 | 50.96251 | 8.77114 | 120° | 139km/h | 11284m | -4.6m/s | -51.2°C | 45% | 232.6hPa | 2.4V | 07:58:02 | 02:47:21 | 00:00:00 | |
| DL1XH-west | 2026-09-04 01:05:13 | 50.96287 | 8.77021 | 122° | 131km/h | 11293m | -4.8m/s | -51.3°C | 46% | 232.3hPa | 2.4V | 07:58:47 | 02:47:19 | 00:00:00 | |
| DL1NUX | 2026-09-04 01:05:12 | 50.96358 | 8.76855 | 124° | 117km/h | 11310m | -5.3m/s | -51.3°C | 43.2% | 231.7hPa | 2.4V | 07:58:08 | 02:47:15 | 00:00:00 | |
| BIOWL1-15 | 2026-09-04 01:05:11 | 50.96485 | 8.76448 | 111° | 126km/h | 11358m | -4.8m/s | -51.7°C | 43.4% | 230.1hPa | 2.5V | 07:58:47 | 02:47:05 | 00:00:00 | |
| DL1XH1-15 | 2026-09-04 01:05:10 | 50.96416 | 8.76702 | 118° | 110km/h | 11329m | -5.3m/s | -51.4°C | 42.1% | 231hPa | 2.5V | 07:58:12 | 02:47:11 | 00:00:00 | |
| HSKMA3-T | 2026-09-04 01:05:07 | 50.96389 | 8.76780 | 121° | 110km/h | 11319m | -4.8m/s | -51.4°C | 44.2% | 231.4hPa | 2.4V | 07:58:47 | 02:47:13 | 00:00:00 | |
| DL1XH-15 | 2026-09-04 01:05:06 | 50.96452 | 8.76583 | 110° | 115km/h | 11343m | -4.8m/s | -51.6°C | 41.7% | 230.6hPa | 2.4V | 07:58:15 | 02:47:08 | 00:00:00 | |
| DO2JMG | 2026-09-04 01:05:05 | 50.96416 | 8.76703 | 118° | 110km/h | 11329m | -5.3m/s | -51.4°C | 44% | 231hPa | 2.5V | 08:00:29 | 02:47:11 | 00:00:00 | |
| DL1XH-west | 2026-09-04 01:05:03 | 50.96441 | 8.76624 | 114° | 110km/h | 11339m | -4.8m/s | -51.5°C | 43.9% | 230.7hPa | 2.4V | 07:58:47 | 02:47:09 | 00:00:00 | |
| SONDE2-11 | 2026-09-04 01:05:01 | 50.96474 | 8.76494 | 110° | 120km/h | 11353m | -5.1m/s | -51.7°C | 35.6% | 230.2hPa | 2.5V | 00:00:00 | 00:00:00 | 00:00:00 | |
| DB0UT-7 | 2026-09-04 01:04:59 | 50.96485 | 8.76448 | 112° | 126km/h | 11358m | -4.7m/s | -51.6°C | 41.4% | 230.1hPa | 2.5V | 00:00:00 | 00:00:00 | 00:00:00 | |
| DL1XH1-15 | 2026-09-04 01:04:58 | 50.96539 | 8.76249 | 117° | 137km/h | 11374m | -4.3m/s | -51.9°C | 41.2% | 229.5hPa | 2.4V | 07:58:22 | 02:47:01 | 00:00:00 | |
| HSKMA3-T | 2026-09-04 01:04:57 | 50.96510 | 8.76349 | 113° | 137km/h | 11366m | -4.3m/s | -51.8°C | 43.1% | 229.8hPa | 2.4V | 07:58:47 | 02:47:03 | 00:00:00 | |
| DO2JMG | 2026-09-04 01:04:55 | 50.96539 | 8.76249 | 117° | 139km/h | 11374m | -4.3m/s | -51.9°C | 42.8% | 229.5hPa | 2.4V | 08:00:29 | 02:47:01 | 00:00:00 | |
| DD8BA-10 | 2026-09-04 01:04:55 | 50.96539 | 8.76249 | 118° | 124km/h | 11374m | -4.2m/s | -51.8°C | 41.2% | 229.4hPa | 2.4V | 00:00:00 | 00:00:00 | 00:00:00 | |
| DL1XH-15 | 2026-09-04 01:04:54 | 50.96609 | 8.76062 | 123° | 128km/h | 11390m | -4.8m/s | -51.9°C | 40% | 228.8hPa | 2.4V | 07:58:26 | 02:46:57 | 00:00:00 | |
| DL3AQ-11 | 2026-09-04 01:04:54 | 50.96573 | 8.76152 | 120° | 137km/h | 11382m | -4.8m/s | -51.9°C | 34.7% | 229.2hPa | 2.4V | 00:00:00 | 00:00:00 | 00:00:00 | |
| DF2AP-13 | 2026-09-04 01:04:53 | 50.96573 | 8.76152 | 121° | 126km/h | 11382m | -4.8m/s | -51.8°C | 40.6% | 229.1hPa | 2.4V | 00:00:00 | 02:46:59 | 00:00:00 | |
| DL1NUX | 2026-09-04 01:04:52 | 50.96645 | 8.75980 | 124° | 122km/h | 11399m | -5.3m/s | -52°C | 39.9% | 228.5hPa | 2.4V | 07:58:28 | 02:46:55 | 00:00:00 | |
| DL1XH-west | 2026-09-04 01:04:52 | 50.96591 | 8.76106 | 122° | 133km/h | 11386m | -4.6m/s | -51.9°C | 42.1% | 229hPa | 2.5V | 07:58:47 | 02:46:58 | 00:00:00 | |
| HSKMA3-T | 2026-09-04 01:04:46 | 50.96691 | 8.75865 | 120° | 108km/h | 11413m | -5.5m/s | -52.1°C | 42.3% | 228hPa | 2.5V | 07:58:47 | 02:46:52 | 00:00:00 | |
| BUE01 | 2026-09-04 01:04:45 | 50.96704 | 8.75828 | 117° | 102km/h | 11418m | -5.6m/s | -52.1°C | 34.3% | 227.9hPa | 2.4V | 00:00:00 | 00:00:00 | 00:00:00 | |
| BIOWL1-15 | 2026-09-04 01:04:44 | 50.96715 | 8.75790 | 114° | 104km/h | 11424m | -4.9m/s | -52.2°C | 42.6% | 227.7hPa | 2.4V | 07:58:47 | 02:46:50 | 00:00:00 | |
| DL1XH-west | 2026-09-04 01:04:41 | 50.96746 | 8.75667 | 110° | 115km/h | 11438m | -5.2m/s | -52.3°C | 42.8% | 227.3hPa | 2.4V | 07:58:47 | 02:46:47 | 00:00:00 | |
| HSKMA3-T | 2026-09-04 01:04:35 | 50.96815 | 8.75385 | 114° | 137km/h | 11465m | -4m/s | -52.6°C | 43.8% | 226.3hPa | 2.4V | 07:58:47 | 02:46:41 | 00:00:00 | |
| BIOWL1-15 | 2026-09-04 01:04:33 | 50.96845 | 8.75287 | 119° | 135km/h | 11474m | -4.5m/s | -52.6°C | 44.3% | 226hPa | 2.5V | 07:58:47 | 02:46:39 | 00:00:00 | |
| DL1XH-west | 2026-09-04 01:04:30 | 50.96896 | 8.75150 | 123° | 131km/h | 11487m | -4.7m/s | -52.8°C | 45% | 225.5hPa | 2.4V | 07:58:47 | 02:46:36 | 00:00:00 | |
| DB0UT-7 | 2026-09-04 01:04:29 | 50.96914 | 8.75108 | 124° | 119km/h | 11491m | -5.2m/s | -52.8°C | 43.4% | 225.4hPa | 2.4V | 07:58:00 | 02:46:35 | 00:00:00 | |
| DL1XH1-15 | 2026-09-04 01:04:28 | 50.96979 | 8.74951 | 122° | 110km/h | 11511m | -5.2m/s | -53°C | 44.8% | 224.7hPa | 2.4V | 07:58:52 | 02:46:31 | 00:00:00 | |
| HSKMA3-T | 2026-09-04 01:04:25 | 50.96992 | 8.74914 | 118° | 106km/h | 11516m | -4.3m/s | -53°C | 46.8% | 224.6hPa | 2.4V | 07:59:38 | 02:46:30 | 00:00:00 | |
| BIOWL1-15 | 2026-09-04 01:04:23 | 50.97112 | 8.74429 | 115° | 135km/h | 11565m | -4.2m/s | -53.5°C | 50.1% | 222.8hPa | 2.4V | 07:59:38 | 02:46:19 | 00:00:00 | |
| SO1NDE-10 | 2026-09-04 01:04:22 | 50.97016 | 8.74838 | 114° | 119km/h | 11525m | -4.5m/s | -53.1°C | 45.7% | 224.2hPa | 2.4V | 07:58:00 | 02:46:28 | 00:00:00 | |
| DM0DOS-11 | 2026-09-04 01:04:20 | 50.97046 | 8.74712 | 107° | 119km/h | 11538m | -4.7m/s | -53.2°C | 46.5% | 223.8hPa | 2.4V | 07:58:58 | 02:46:25 | 00:00:00 | |
| DL1XH-west | 2026-09-04 01:04:20 | 50.97036 | 8.74756 | 110° | 110km/h | 11534m | -4.8m/s | -53.2°C | 47.8% | 223.9hPa | 2.5V | 07:59:38 | 02:46:26 | 00:00:00 | |
| DB0NH | 2026-09-04 01:04:20 | 50.97036 | 8.74756 | 111° | 117km/h | 11534m | -4.8m/s | -53.2°C | 46.1% | 223.8hPa | 2.5V | 00:00:00 | 02:46:26 | 00:00:00 | |
| DF2AP-13 | 2026-09-04 01:04:19 | 50.97046 | 8.74712 | 108° | 126km/h | 11538m | -4.6m/s | -53.2°C | 46.5% | 223.7hPa | 2.5V | 00:00:00 | 02:46:25 | 00:00:00 | |
| DK9SH | 2026-09-04 01:04:18 | 50.97055 | 8.74668 | 110° | 117km/h | 11543m | -4.9m/s | -53.3°C | 40.2% | 223.6hPa | 2.5V | 00:00:00 | 00:00:00 | 00:00:00 | |
| DO3DL | 2026-09-04 01:04:17 | 50.97055 | 8.74668 | 110° | 117km/h | 11543m | -4.9m/s | -53.3°C | 40.2% | 223.6hPa | 2.5V | 07:59:00 | 00:00:00 | 00:00:00 | |
| DL1XH1-15 | 2026-09-04 01:04:16 | 50.97086 | 8.74526 | 110° | 130km/h | 11557m | -5.1m/s | -53.4°C | 48.2% | 223.1hPa | 2.5V | 07:59:02 | 02:46:21 | 00:00:00 | |
| HSKMA3-T | 2026-09-04 01:04:14 | 50.97099 | 8.74478 | 113° | 131km/h | 11561m | -4.6m/s | -53.5°C | 49.8% | 223hPa | 2.5V | 07:59:38 | 02:46:20 | 00:00:00 | |
| DD8BA-10 | 2026-09-04 01:04:14 | 50.97099 | 8.74477 | 113° | 128km/h | 11561m | -4.5m/s | -53.4°C | 48.5% | 223.0hPa | 2.5V | 00:00:00 | 00:00:00 | 00:00:00 | |
| DJ2DS-15 | 2026-09-04 01:04:13 | 50.97127 | 8.74380 | 116° | 137km/h | 11569m | -4.1m/s | -53.6°C | 42.5% | 222.7hPa | 2.5V | 00:00:00 | 00:00:00 | 00:00:00 | |
| DL1NUX | 2026-09-04 01:04:12 | 50.97175 | 8.74239 | 121° | 128km/h | 11582m | -5.2m/s | -53.7°C | 50.4% | 222.2hPa | 2.5V | 07:59:08 | 02:46:15 | 00:00:00 | |
| AA1-15 | 2026-09-04 01:04:11 | 50.97142 | 8.74331 | 117° | 137km/h | 11573m | -4.5m/s | -53.6°C | 50.8% | 222.5hPa | 2.4V | 08:02:11 | 02:46:17 | 00:00:00 | |
| DL1XH1-15 | 2026-09-04 01:04:10 | 50.97242 | 8.74076 | 121° | 115km/h | 11602m | -5.5m/s | -53.9°C | 51.4% | 221.6hPa | 2.4V | 07:59:12 | 02:46:11 | 00:00:00 | |
| DL1XH-west | 2026-09-04 01:04:09 | 50.97175 | 8.74239 | 122° | 128km/h | 11582m | -5.2m/s | -53.7°C | 51.4% | 222.2hPa | 2.5V | 07:59:38 | 02:46:15 | 00:00:00 | |
| DL8OAI-8 | 2026-09-04 01:04:08 | 50.97192 | 8.74196 | 124° | 124km/h | 11587m | -5.0m/s | -53.7°C | 43.6% | 222.0hPa | 2.4V | 07:59:00 | 00:00:00 | 00:00:00 | |
| DB0ND-19 | 2026-09-04 01:04:06 | 50.97242 | 8.74076 | 121° | 113km/h | 11602m | -5.5m/s | -53.9°C | 44.3% | 221.6hPa | 2.4V | 00:00:00 | 00:00:00 | 00:00:00 | |
| DJ2DS-15 | 2026-09-04 01:04:04 | 50.97256 | 8.74037 | 120° | 120km/h | 11607m | -4.6m/s | -53.9°C | 51.8% | 221.4hPa | 2.4V | 00:00:00 | 02:46:10 | 00:00:00 | |
| DO3DL | 2026-09-04 01:04:03 | 50.97256 | 8.74037 | 121° | 111km/h | 11607m | -4.7m/s | -53.9°C | 44.6% | 221.4hPa | 2.4V | 07:59:00 | 00:00:00 | 00:00:00 | |
| HSKMA3-T | 2026-09-04 01:04:03 | 50.97269 | 8.74000 | 118° | 106km/h | 11611m | -4.9m/s | -53.9°C | 52.9% | 221.3hPa | 2.5V | 07:59:38 | 02:46:09 | 00:00:00 | |
| DL1NUX | 2026-09-04 01:04:02 | 50.97315 | 8.73847 | 112° | 104km/h | 11630m | -4.8m/s | -54.1°C | 52.8% | 220.6hPa | 2.4V | 07:59:18 | 02:46:05 | 00:00:00 | |
| DL1XH-west | 2026-09-04 01:03:58 | 50.97325 | 8.73807 | 111° | 111km/h | 11635m | -5.3m/s | -54.2°C | 54% | 220.4hPa | 2.4V | 07:59:38 | 02:46:04 | 00:00:00 | |
| EDDB2-11 | 2026-09-04 01:03:57 | 50.97345 | 8.73722 | 109° | 119km/h | 11645m | -5.4m/s | -54.3°C | 46.1% | 220.1hPa | 2.5V | 00:00:00 | 00:00:00 | 00:00:00 | |
| DL1XH1-15 | 2026-09-04 01:03:55 | 50.97355 | 8.73678 | 108° | 119km/h | 11650m | -4.9m/s | -54.3°C | 53.7% | 219.9hPa | 2.5V | 07:59:22 | 02:46:01 | 00:00:00 | |
| HSKMA3-T | 2026-09-04 01:03:53 | 50.97376 | 8.73583 | 110° | 130km/h | 11660m | -5m/s | -54.4°C | 54.9% | 219.6hPa | 2.4V | 07:59:38 | 02:45:59 | 00:00:00 | |
| DL1NUX | 2026-09-04 01:03:52 | 50.97426 | 8.73387 | 114° | 137km/h | 11678m | -4.4m/s | -54.6°C | 54.7% | 219hPa | 2.5V | 07:59:28 | 02:45:55 | 00:00:00 | |
| SO1NDE-10 | 2026-09-04 01:03:52 | 50.97387 | 8.73535 | 111° | 124km/h | 11664m | -4.6m/s | -54.4°C | 54.2% | 219.4hPa | 2.4V | 00:00:00 | 02:45:58 | 00:00:00 | |
| DL1XH1-15 | 2026-09-04 01:03:50 | 50.97490 | 8.73200 | 120° | 130km/h | 11695m | -4.9m/s | -54.7°C | 55.5% | 218.3hPa | 2.4V | 07:59:32 | 02:45:51 | 00:00:00 | |
| DL3AQ-11 | 2026-09-04 01:03:50 | 50.97426 | 8.73387 | 114° | 137km/h | 11678m | -4.4m/s | -54.6°C | 47.2% | 219.0hPa | 2.4V | 00:00:00 | 00:00:00 | 00:00:00 | |
| DL8DAS-14 | 2026-09-04 01:03:49 | 50.97426 | 8.73387 | 114° | 137km/h | 11678m | -4.4m/s | -54.6°C | 47.2% | 219.0hPa | 2.4V | 00:00:00 | 00:00:00 | 00:00:00 | |
| BIOWL1-15 | 2026-09-04 01:03:48 | 50.97585 | 8.72963 | 119° | 102km/h | 11724m | -5.2m/s | -55°C | 57.2% | 217.4hPa | 2.4V | 07:59:38 | 02:45:45 | 00:00:00 | |
| DL1XH-west | 2026-09-04 01:03:47 | 50.97457 | 8.73291 | 119° | 131km/h | 11687m | -4.8m/s | -54.7°C | 56% | 218.7hPa | 2.4V | 07:59:38 | 02:45:53 | 00:00:00 | |
| AU51GT2 | 2026-09-04 01:03:45 | 50.97490 | 8.73200 | 120° | 130km/h | 11695m | -4.9m/s | -54.7°C | 47.9% | 218.3hPa | 2.4V | 00:00:00 | 00:00:00 | 00:00:00 | |
| DJ2DS-15 | 2026-09-04 01:03:44 | 50.97507 | 8.73156 | 124° | 120km/h | 11700m | -5.0m/s | -54.7°C | 55.8% | 218.1hPa | 2.4V | 00:00:00 | 02:45:50 | 00:00:00 | |
| BUE01 | 2026-09-04 01:03:43 | 50.97524 | 8.73115 | 124° | 119km/h | 11704m | -5.1m/s | -54.8°C | 48.3% | 218.0hPa | 2.4V | 00:00:00 | 00:00:00 | 00:00:00 | |
| DL1NUX | 2026-09-04 01:03:42 | 50.97585 | 8.72963 | 119° | 102km/h | 11724m | -5.2m/s | -55°C | 56.8% | 217.4hPa | 2.4V | 07:59:38 | 02:45:45 | 00:00:00 | |
| HSKMA3-T | 2026-09-04 01:03:42 | 50.97541 | 8.73076 | 124° | 113km/h | 11709m | -5.2m/s | -54.9°C | 56.8% | 217.8hPa | 2.5V | 07:59:38 | 02:45:48 | 00:00:00 | |
| DD1CC8 | 2026-09-04 01:03:41 | 50.97571 | 8.73000 | 121° | 110km/h | 11719m | -5.4m/s | -55.0°C | 48.6% | 217.6hPa | 2.5V | 00:00:00 | 00:00:00 | 00:00:00 | |
| DL1XH1-15 | 2026-09-04 01:03:40 | 50.97629 | 8.72808 | 109° | 113km/h | 11744m | -4.6m/s | -55.2°C | 57.5% | 216.8hPa | 2.5V | 07:59:42 | 02:45:41 | 00:00:00 | |
| DL1XH-west | 2026-09-04 01:03:36 | 50.97619 | 8.72848 | 112° | 106km/h | 11739m | -4.8m/s | -55.1°C | 57.7% | 216.9hPa | 2.5V | 08:00:29 | 02:45:42 | 00:00:00 | |
| HSKMA3-T | 2026-09-04 01:03:31 | 50.97669 | 8.72627 | 110° | 126km/h | 11763m | -4.6m/s | -55.4°C | 58.4% | 216.2hPa | 2.5V | 08:00:29 | 02:45:37 | 00:00:00 | |
| BIOWL1-15 | 2026-09-04 01:03:29 | 50.97693 | 8.72529 | 112° | 135km/h | 11771m | -4.4m/s | -55.4°C | 58.6% | 215.8hPa | 2.5V | 08:00:29 | 02:45:35 | 00:00:00 | |
| DL1XH-west | 2026-09-04 01:03:25 | 50.97754 | 8.72335 | 120° | 131km/h | 11788m | -5.6m/s | -55.6°C | 58.8% | 215.2hPa | 2.5V | 08:00:29 | 02:45:31 | 00:00:00 | |
| HSKMA3-T | 2026-09-04 01:03:21 | 50.97823 | 8.72165 | 123° | 120km/h | 11808m | -4.9m/s | -55.8°C | 59% | 214.5hPa | 2.4V | 08:00:29 | 02:45:27 | 00:00:00 | |
| BIOWL1-15 | 2026-09-04 01:03:18 | 50.97871 | 8.72050 | 120° | 108km/h | 11823m | -4.8m/s | -55.9°C | 59.2% | 214hPa | 2.5V | 08:00:29 | 02:45:24 | 00:00:00 | |
| DO2JMG | 2026-09-04 01:03:15 | 50.97908 | 8.71935 | 114° | 108km/h | 11837m | -5.1m/s | -56.1°C | 59.5% | 0hPa | 2.4V | 08:00:29 | 02:45:21 | 00:00:00 | |
| DL1XH-west | 2026-09-04 01:03:14 | 50.97919 | 8.71895 | 112° | 111km/h | 11842m | -4.7m/s | -56.1°C | 59.5% | 213.5hPa | 2.4V | 08:00:29 | 02:45:20 | 00:00:00 | |
| HSKMA3-T | 2026-09-04 01:03:10 | 50.97966 | 8.71713 | 113° | 130km/h | 11861m | -5.1m/s | -56.3°C | 59.5% | 212.8hPa | 2.5V | 08:00:29 | 02:45:16 | 00:00:00 | |
| BIOWL1-15 | 2026-09-04 01:03:08 | 50.97992 | 8.71616 | 115° | 137km/h | 11870m | -4.8m/s | -56.3°C | 59.6% | 212.5hPa | 2.4V | 08:00:29 | 02:45:14 | 00:00:00 | |
| DO2JMG | 2026-09-04 01:03:04 | 50.98058 | 8.71424 | 122° | 141km/h | 11889m | -4.4m/s | -56.5°C | 59.6% | 0hPa | 2.5V | 08:00:29 | 02:45:10 | 00:00:00 | |
| DL1XH-west | 2026-09-04 01:03:03 | 50.98077 | 8.71377 | 123° | 137km/h | 11893m | -4.6m/s | -56.5°C | 59.6% | 211.7hPa | 2.5V | 08:00:29 | 02:45:09 | 00:00:00 | |
| DF8AY | 2026-09-04 01:03:03 | 50.98096 | 8.71332 | 124° | 133km/h | 11897m | -4.6m/s | -56.5°C | 59.9% | 0hPa | 2.4V | 08:00:29 | 02:45:08 | 00:00:00 | |
| DL1NUX | 2026-09-04 01:03:02 | 50.98153 | 8.71210 | 126° | 119km/h | 11909m | -5.2m/s | -56.6°C | 60.3% | 211.1hPa | 2.4V | 08:00:18 | 02:45:05 | 00:00:00 | |
| HSKMA3-T | 2026-09-04 01:03:00 | 50.98134 | 8.71249 | 126° | 124km/h | 11905m | -4.7m/s | -56.6°C | 60.3% | 211.2hPa | 2.4V | 08:00:29 | 02:45:06 | 00:00:00 | |
| BIOWL1-15 | 2026-09-04 01:02:59 | 50.98186 | 8.71136 | 125° | 108km/h | 11919m | -5.5m/s | -56.7°C | 61% | 210.8hPa | 2.5V | 08:00:29 | 02:45:03 | 00:00:00 | |
| DO2JMG | 2026-09-04 01:02:54 | 50.98229 | 8.71024 | 116° | 110km/h | 11934m | -4.3m/s | 0°C | 0% | 0hPa | 2.4V | 08:00:29 | 02:45:00 | 00:00:00 | |
| DL1XH-west | 2026-09-04 01:02:52 | 50.98253 | 8.70945 | 115° | 113km/h | 11943m | -4.9m/s | -56.9°C | 62.2% | 210.1hPa | 2.5V | 08:00:29 | 02:44:58 | 00:00:00 | |
| DL1NUX | 2026-09-04 01:02:52 | 50.98289 | 8.70812 | 113° | 128km/h | 11957m | -5.2m/s | -57.1°C | 62.8% | 209.6hPa | 2.4V | 08:00:28 | 02:44:55 | 00:00:00 | |
| DF8AY | 2026-09-04 01:02:51 | 50.98265 | 8.70902 | 112° | 120km/h | 11948m | -4.5m/s | 0°C | 0% | 0hPa | 2.5V | 08:00:29 | 02:44:57 | 00:00:00 | |
| HSKMA3-T | 2026-09-04 01:02:50 | 50.98277 | 8.70858 | 113° | 120km/h | 11953m | -4.7m/s | -57°C | 62.7% | 209.8hPa | 2.5V | 08:00:29 | 02:44:56 | 00:00:00 | |
| BIOWL1-15 | 2026-09-04 01:02:47 | 50.98316 | 8.70717 | 115° | 137km/h | 11967m | -4.8m/s | -57.1°C | 63.2% | 209.3hPa | 2.5V | 08:01:20 | 02:44:53 | 00:00:00 | |
| HTAHTA | 2026-09-04 01:02:46 | 50.98331 | 8.70667 | 117° | 137km/h | 11971m | -4.8m/s | -57.2°C | 54.4% | 209.1hPa | 2.5V | 00:00:00 | 00:00:00 | 00:00:00 | |
| DO2JMG | 2026-09-04 01:02:43 | 50.98382 | 8.70523 | 121° | 139km/h | 11985m | -5m/s | 0°C | 0% | 0hPa | 2.5V | 18:12:15 | 02:44:49 | 00:00:00 | |
| DF8AY | 2026-09-04 01:02:41 | 50.98439 | 8.70385 | 125° | 133km/h | 11998m | -4.9m/s | 0°C | 0% | 0hPa | 2.5V | 18:12:15 | 02:44:46 | 00:00:00 | |
| DL1XH-west | 2026-09-04 01:02:41 | 50.98419 | 8.70430 | 124° | 137km/h | 11994m | -5m/s | -57.4°C | 64.5% | 208.3hPa | 2.4V | 08:01:20 | 02:44:47 | 00:00:00 | |
| HSKMA3-T | 2026-09-04 01:02:39 | 50.98459 | 8.70342 | 127° | 131km/h | 12002m | -5.4m/s | -57.5°C | 65% | 208hPa | 2.5V | 08:01:20 | 02:44:45 | 00:00:00 | |
| DF2AP-13 | 2026-09-04 01:02:39 | 50.98458 | 8.70342 | 127° | 126km/h | 12002m | -5.3m/s | -57.5°C | 65.4% | 208.0hPa | 2.4V | 00:00:00 | 02:44:45 | 00:00:00 | |
| DJ8HS-15 | 2026-09-04 01:02:38 | 50.98478 | 8.70301 | 129° | 124km/h | 12008m | -5.5m/s | -57.5°C | 65.8% | 207.8hPa | 2.4V | 00:00:00 | 02:44:44 | 00:00:00 | |
| DL1XH-15 | 2026-09-04 01:02:37 | 50.98533 | 8.70187 | 125° | 115km/h | 12023m | -4.8m/s | -57.7°C | 66.7% | 207.4hPa | 2.4V | 08:00:42 | 02:44:41 | 00:00:00 | |
| BIOWL1-15 | 2026-09-04 01:02:36 | 50.98516 | 8.70225 | 127° | 115km/h | 12018m | -4.7m/s | -57.6°C | 65.6% | 207.6hPa | 2.4V | 08:01:20 | 02:44:42 | 00:00:00 | |
| DL4BBY-15 | 2026-09-04 01:02:36 | 50.98516 | 8.70225 | 127° | 120km/h | 12018m | -4.7m/s | -57.3°C | 0% | 0hPa | 2.4V | 00:00:00 | 00:00:00 | 00:00:00 | |
| DD8BA-10 | 2026-09-04 01:02:34 | 50.98549 | 8.70150 | 125° | 117km/h | 12028m | -5.5m/s | -57.7°C | 66.8% | 207.2hPa | 2.4V | 00:00:00 | 00:00:00 | 00:00:00 | |
| DF7PN | 2026-09-04 01:02:33 | 50.98579 | 8.70076 | 119° | 108km/h | 12039m | -5.3m/s | -57.8°C | 58.0% | 206.9hPa | 2.4V | 00:00:00 | 00:00:00 | 00:00:00 | |
| DL1NUX | 2026-09-04 01:02:32 | 50.98618 | 8.69956 | 115° | 117km/h | 12054m | -5.1m/s | -58°C | 67.8% | 206.4hPa | 2.4V | 08:00:48 | 02:44:35 | 00:00:00 | |
| DL1XH-west | 2026-09-04 01:02:30 | 50.98606 | 8.69998 | 115° | 113km/h | 12049m | -4.8m/s | -57.9°C | 66.8% | 206.6hPa | 2.5V | 08:01:20 | 02:44:36 | 00:00:00 | |
| HSKMA3-T | 2026-09-04 01:02:28 | 50.98631 | 8.69913 | 113° | 120km/h | 12059m | -4.9m/s | -58°C | 67.1% | 206.3hPa | 2.5V | 08:01:20 | 02:44:34 | 00:00:00 | |
| BIOWL1-15 | 2026-09-04 01:02:26 | 50.98684 | 8.69724 | 116° | 137km/h | 12077m | -5.1m/s | -58.2°C | 67.8% | 205.7hPa | 2.5V | 08:01:20 | 02:44:30 | 00:00:00 | |
| DL1XH1-15 | 2026-09-04 01:02:26 | 50.98670 | 8.69772 | 114° | 131km/h | 12073m | -4.8m/s | -58.1°C | 68.4% | 205.8hPa | 2.5V | 08:00:52 | 02:44:31 | 00:00:00 | |
| DB0NH | 2026-09-04 01:02:26 | 50.98656 | 8.69820 | 114° | 126km/h | 12068m | -4.4m/s | -58.0°C | 68.1% | 206.0hPa | 2.5V | 00:00:00 | 02:44:32 | 00:00:00 | |
| DJ2DS-15 | 2026-09-04 01:02:24 | 50.98684 | 8.69724 | 116° | 120km/h | 12078m | -5.0m/s | -58.1°C | 68.4% | 205.6hPa | 2.5V | 00:00:00 | 02:44:30 | 00:00:00 | |
| EDDB2-11 | 2026-09-04 01:02:23 | 50.98699 | 8.69674 | 116° | 139km/h | 12082m | -4.4m/s | -58.2°C | 59.2% | 205.6hPa | 2.5V | 00:00:00 | 00:00:00 | 00:00:00 | |
| DL1NUX | 2026-09-04 01:02:22 | 50.98771 | 8.69480 | 124° | 135km/h | 12099m | -5.1m/s | -58.4°C | 69.3% | 204.8hPa | 2.5V | 08:00:58 | 02:44:25 | 00:00:00 | |
| DL1XH-west | 2026-09-04 01:02:19 | 50.98771 | 8.69480 | 125° | 135km/h | 12099m | -5.1m/s | -58.4°C | 68.5% | 204.9hPa | 2.5V | 08:01:20 | 02:44:25 | 00:00:00 | |
| DO2JMG | 2026-09-04 01:02:18 | 50.98791 | 8.69436 | 126° | 131km/h | 12104m | -5.2m/s | 0°C | 0% | 0hPa | 2.5V | 18:12:15 | 02:44:24 | 00:00:00 | |
| BIOWL1-15 | 2026-09-04 01:02:15 | 50.98888 | 8.69240 | 128° | 113km/h | 12128m | -5.7m/s | -58.7°C | 69.1% | 203.9hPa | 2.5V | 08:01:20 | 02:44:19 | 00:00:00 | |
| DL1XH1-15 | 2026-09-04 01:02:15 | 50.98850 | 8.69314 | 129° | 120km/h | 12117m | -5.7m/s | -58.6°C | 69.8% | 204.2hPa | 2.5V | 08:01:02 | 02:44:21 | 00:00:00 | |
| DD8BA-10 | 2026-09-04 01:02:14 | 50.98869 | 8.69276 | 130° | 111km/h | 12123m | -5.6m/s | -58.6°C | 70.1% | 204.0hPa | 2.5V | 00:00:00 | 00:00:00 | 00:00:00 | |
| DL3AQ-11 | 2026-09-04 01:02:13 | 50.98888 | 8.69240 | 128° | 111km/h | 12128m | -5.7m/s | -58.7°C | 60.6% | 203.9hPa | 2.4V | 00:00:00 | 00:00:00 | 00:00:00 | |
| DL1NUX | 2026-09-04 01:02:12 | 50.98950 | 8.69096 | 120° | 106km/h | 12150m | -5m/s | -58.9°C | 71.3% | 203.3hPa | 2.4V | 08:01:08 | 02:44:15 | 00:00:00 | |
| DO3DL | 2026-09-04 01:02:11 | 50.98905 | 8.69204 | 128° | 110km/h | 12133m | -5.8m/s | -58.7°C | 60.8% | 203.8hPa | 2.5V | 08:01:00 | 00:00:00 | 00:00:00 | |
| DL1XH1-15 | 2026-09-04 01:02:10 | 50.99000 | 8.68935 | 113° | 122km/h | 12169m | -5.2m/s | -59°C | 71.9% | 202.7hPa | 2.5V | 08:01:12 | 02:44:11 | 00:00:00 | |
| DL1XH-west | 2026-09-04 01:02:09 | 50.98950 | 8.69096 | 121° | 106km/h | 12150m | -5m/s | -58.9°C | 69.7% | 203.3hPa | 2.4V | 08:01:20 | 02:44:15 | 00:00:00 | |
| HSKMA3-T | 2026-09-04 01:02:08 | 50.98964 | 8.69059 | 118° | 108km/h | 12155m | -4.8m/s | -58.9°C | 69.9% | 203.1hPa | 2.5V | 08:01:20 | 02:44:14 | 00:00:00 | |
| DD1CC3-15 | 2026-09-04 01:02:07 | 50.98964 | 8.69059 | 119° | 108km/h | 12155m | -4.8m/s | -58.9°C | 61.7% | 203.1hPa | 2.5V | 08:01:00 | 00:00:00 | 00:00:00 | |
| NBG1-10 | 2026-09-04 01:02:06 | 50.98988 | 8.68979 | 114° | 128km/h | 12164m | -4.7m/s | -59.0°C | 71.7% | 202.8hPa | 2.5V | 00:00:00 | 02:44:12 | 00:00:00 | |
| DD8BA-10 | 2026-09-04 01:02:04 | 50.99012 | 8.68890 | 115° | 135km/h | 12174m | -5.5m/s | -59.1°C | 72.0% | 202.5hPa | 2.5V | 00:00:00 | 00:00:00 | 00:00:00 | |
| DM0DOS-11 | 2026-09-04 01:02:03 | 50.99106 | 8.68605 | 124° | 139km/h | 12200m | -4.8m/s | -59.4°C | 72% | 201.7hPa | 2.5V | 08:01:19 | 02:44:04 | 00:00:00 | |
| BIOWL1-15 | 2026-09-04 01:02:03 | 50.99026 | 8.68845 | 114° | 126km/h | 12180m | -4.9m/s | -59.2°C | 70.3% | 202.3hPa | 2.4V | 08:01:20 | 02:44:09 | 00:00:00 | |
| DL1NUX | 2026-09-04 01:02:02 | 50.99087 | 8.68652 | 121° | 141km/h | 12196m | -4m/s | -59.3°C | 72.2% | 201.8hPa | 2.5V | 08:01:18 | 02:44:05 | 00:00:00 | |
| DF7PN | 2026-09-04 01:02:02 | 50.99054 | 8.68749 | 116° | 137km/h | 12188m | -4.4m/s | -59.2°C | 62.2% | 202.1hPa | 2.5V | 00:00:00 | 00:00:00 | 00:00:00 | |
| DL3AQ-11 | 2026-09-04 01:02:01 | 50.99070 | 8.68700 | 119° | 139km/h | 12193m | -4.2m/s | -59.3°C | 62.1% | 201.9hPa | 2.5V | 00:00:00 | 00:00:00 | 00:00:00 | |
| DL1XH1-15 | 2026-09-04 01:02:00 | 50.99167 | 8.68473 | 129° | 131km/h | 12212m | -5.1m/s | -59.5°C | 72.1% | 201.2hPa | 2.5V | 08:01:22 | 02:44:01 | 00:00:00 | |
| DL1XH-west | 2026-09-04 01:01:58 | 50.99106 | 8.68605 | 124° | 139km/h | 12200m | -4.8m/s | -59.4°C | 70.6% | 201.7hPa | 2.5V | 08:01:20 | 02:44:04 | 00:00:00 | |
| HSKMA3-T | 2026-09-04 01:01:57 | 50.99126 | 8.68559 | 126° | 137km/h | 12204m | -4.6m/s | -59.4°C | 70.6% | 201.4hPa | 2.4V | 08:01:20 | 02:44:03 | 00:00:00 | |
| DF8AY | 2026-09-04 01:01:55 | 50.99167 | 8.68473 | 129° | 131km/h | 12212m | -5.1m/s | 0°C | 0% | 0hPa | 2.5V | 18:12:15 | 02:44:01 | 00:00:00 | |
| BIOWL1-15 | 2026-09-04 01:01:53 | 50.99208 | 8.68394 | 130° | 122km/h | 12222m | -6m/s | -59.6°C | 70.8% | 200.8hPa | 2.5V | 08:02:11 | 02:43:59 | 00:00:00 | |
| DL1XH-15 | 2026-09-04 01:01:52 | 50.99262 | 8.68284 | 126° | 110km/h | 12237m | -5.7m/s | -59.7°C | 73% | 200.4hPa | 2.5V | 08:01:27 | 02:43:56 | 00:00:00 | |
| DL1NUX | 2026-09-04 01:01:52 | 50.99278 | 8.68248 | 124° | 106km/h | 12243m | -5.5m/s | -59.8°C | 73% | 200.2hPa | 2.5V | 08:01:28 | 02:43:55 | 00:00:00 | |
| DL1ZP-14 | 2026-09-04 01:01:51 | 50.99262 | 8.68284 | 126° | 110km/h | 12238m | -5.7m/s | -59.7°C | 62.7% | 200.4hPa | 2.5V | 00:00:00 | 00:00:00 | 00:00:00 | |
| DL1XH1-15 | 2026-09-04 01:01:50 | 50.99333 | 8.68096 | 116° | 113km/h | 12263m | -5m/s | -59.9°C | 73.6% | 199.7hPa | 2.5V | 08:01:32 | 02:43:51 | 00:00:00 | |
| DL3AQ-11 | 2026-09-04 01:01:50 | 50.99278 | 8.68248 | 124° | 106km/h | 12243m | -5.5m/s | -59.8°C | 62.8% | 200.2hPa | 2.5V | 00:00:00 | 00:00:00 | 00:00:00 | |
| DM0DOS-11 | 2026-09-04 01:01:48 | 50.99293 | 8.68213 | 121° | 104km/h | 12248m | -5.4m/s | -59.8°C | 73.3% | 200.1hPa | 2.5V | 08:01:29 | 02:43:54 | 00:00:00 | |
| DL1XH-west | 2026-09-04 01:01:48 | 50.99293 | 8.68213 | 122° | 104km/h | 12248m | -5.4m/s | -59.8°C | 70.9% | 200.1hPa | 2.5V | 08:02:11 | 02:43:54 | 00:00:00 | |
| HSKMA3-T | 2026-09-04 01:01:47 | 50.99306 | 8.68176 | 119° | 108km/h | 12253m | -4.9m/s | -59.9°C | 71% | 199.9hPa | 2.5V | 08:02:11 | 02:43:53 | 00:00:00 | |
| DF8AY | 2026-09-04 01:01:45 | 50.99333 | 8.68096 | 117° | 113km/h | 12263m | -5m/s | 0°C | 0% | 0hPa | 2.5V | 18:12:15 | 02:43:51 | 00:00:00 | |
| DL8DAS-14 | 2026-09-04 01:01:45 | 50.99346 | 8.68054 | 116° | 120km/h | 12268m | -5.0m/s | -60.0°C | 63.4% | 199.5hPa | 2.5V | 00:00:00 | 00:00:00 | 00:00:00 | |
| DJ2DS-15 | 2026-09-04 01:01:44 | 50.99346 | 8.68054 | 117° | 126km/h | 12268m | -5.0m/s | -59.9°C | 73.8% | 199.5hPa | 2.5V | 00:00:00 | 02:43:50 | 00:00:00 | |
| DM0DOS-11 | 2026-09-04 01:01:43 | 50.99441 | 8.67773 | 121° | 139km/h | 12294m | -5.6m/s | -60.2°C | 72.8% | 198.6hPa | 2.5V | 08:01:39 | 02:43:44 | 00:00:00 | |
| BIOWL1-15 | 2026-09-04 01:01:42 | 50.99389 | 8.67916 | 118° | 133km/h | 12280m | -4.6m/s | -60.1°C | 71.2% | 199.1hPa | 2.5V | 08:02:11 | 02:43:47 | 00:00:00 | |
| DO2JMG | 2026-09-04 01:01:42 | 50.99374 | 8.67963 | 116° | 133km/h | 12276m | -4.8m/s | 0°C | 0% | 0hPa | 2.5V | 18:12:15 | 02:43:48 | 00:00:00 | |
| DL1XH-west | 2026-09-04 01:01:37 | 50.99459 | 8.67726 | 123° | 139km/h | 12300m | -5.8m/s | -60.3°C | 71.3% | 198.4hPa | 2.4V | 08:02:11 | 02:43:43 | 00:00:00 | |
| HSKMA3-T | 2026-09-04 01:01:36 | 50.99479 | 8.67680 | 125° | 137km/h | 12305m | -5.6m/s | -60.3°C | 71.3% | 198.3hPa | 2.5V | 08:02:11 | 02:43:42 | 00:00:00 | |
| DF8AY | 2026-09-04 01:01:33 | 50.99623 | 8.67398 | 130° | 117km/h | 12337m | -5.7m/s | 0°C | 0% | 0hPa | 2.5V | 18:12:15 | 02:43:35 | 00:00:00 | |
| DM0DOS-11 | 2026-09-04 01:01:33 | 50.99641 | 8.67363 | 129° | 111km/h | 12343m | -5.5m/s | -60.6°C | 74% | 197.1hPa | 2.5V | 08:01:49 | 02:43:34 | 00:00:00 | |
| NBG1-10 | 2026-09-04 01:01:33 | 50.99541 | 8.67551 | 130° | 124km/h | 12318m | -5.0m/s | -60.4°C | 73.4% | 197.8hPa | 2.5V | 00:00:00 | 02:43:39 | 00:00:00 | |
| DL1NUX | 2026-09-04 01:01:32 | 50.99623 | 8.67398 | 129° | 117km/h | 12337m | -5.7m/s | -60.6°C | 73.9% | 197.2hPa | 2.5V | 08:01:48 | 02:43:35 | 00:00:00 | |
| DO2JMG | 2026-09-04 01:01:32 | 50.99562 | 8.67511 | 131° | 130km/h | 12322m | -5.3m/s | 0°C | 0% | 0hPa | 2.5V | 18:12:15 | 02:43:38 | 00:00:00 | |
| DL1XH-west | 2026-09-04 01:01:27 | 50.99659 | 8.67328 | 127° | 108km/h | 12348m | -5.3m/s | -60.7°C | 71.5% | 196.9hPa | 2.5V | 08:02:11 | 02:43:33 | 00:00:00 | |
| AA1-15 | 2026-09-04 01:01:25 | 50.99704 | 8.67217 | 120° | 111km/h | 12364m | -5.3m/s | -60.8°C | 71.4% | 196.5hPa | 2.5V | 08:02:11 | 02:43:30 | 00:00:00 | |
| DD8BA-10 | 2026-09-04 01:01:24 | 50.99704 | 8.67217 | 120° | 126km/h | 12364m | -5.2m/s | -60.7°C | 73.8% | 196.4hPa | 2.5V | 00:00:00 | 00:00:00 | 00:00:00 | |
| DM0DOS-11 | 2026-09-04 01:01:23 | 50.99791 | 8.66951 | 117° | 137km/h | 12391m | -5.1m/s | -61°C | 73% | 195.6hPa | 2.5V | 08:01:59 | 02:43:24 | 00:00:00 | |
| DB0NH | 2026-09-04 01:01:23 | 50.99719 | 8.67178 | 118° | 124km/h | 12369m | -4.5m/s | -60.8°C | 73.5% | 196.3hPa | 2.5V | 00:00:00 | 02:43:29 | 00:00:00 | |
| DL1NUX | 2026-09-04 01:01:22 | 50.99775 | 8.66999 | 116° | 135km/h | 12387m | -4.5m/s | -61°C | 73.1% | 195.7hPa | 2.5V | 08:01:58 | 02:43:25 | 00:00:00 | |
| BIOWL1-15 | 2026-09-04 01:01:22 | 50.99760 | 8.67046 | 116° | 130km/h | 12383m | -4.7m/s | -60.9°C | 71% | 195.9hPa | 2.5V | 08:02:11 | 02:43:26 | 00:00:00 | |
| DF8AY | 2026-09-04 01:01:21 | 50.99746 | 8.67092 | 116° | 126km/h | 12378m | -4.9m/s | 0°C | 0% | 0hPa | 2.5V | 18:12:15 | 02:43:27 | 00:00:00 | |
| DL3AQ-11 | 2026-09-04 01:01:21 | 50.99760 | 8.67046 | 115° | 130km/h | 12383m | -4.7m/s | -60.9°C | 62.4% | 195.9hPa | 2.5V | 00:00:00 | 00:00:00 | 00:00:00 | |
| DL1ZP-14 | 2026-09-04 01:01:20 | 50.99775 | 8.66999 | 116° | 133km/h | 12387m | -4.5m/s | -61.0°C | 62.4% | 195.7hPa | 2.5V | 00:00:00 | 00:00:00 | 00:00:00 | |
| DJ8HS-15 | 2026-09-04 01:01:18 | 50.99791 | 8.66951 | 118° | 124km/h | 12391m | -5.1m/s | -61.0°C | 73.0% | 195.5hPa | 2.5V | 00:00:00 | 02:43:24 | 00:00:00 | |
| DL1XH-15 | 2026-09-04 01:01:17 | 50.99845 | 8.66806 | 123° | 141km/h | 12404m | -5.6m/s | -61.1°C | 73.3% | 195.1hPa | 2.5V | 08:02:02 | 02:43:21 | 00:00:00 | |
| DL1XH-west | 2026-09-04 01:01:16 | 50.99826 | 8.66853 | 121° | 141km/h | 12399m | -5.4m/s | -61.1°C | 71% | 195.3hPa | 2.5V | 08:02:11 | 02:43:22 | 00:00:00 | |
| HSKMA3-T | 2026-09-04 01:01:15 | 50.99845 | 8.66806 | 123° | 141km/h | 12404m | -5.6m/s | -61.1°C | 71.2% | 195.1hPa | 2.5V | 08:02:11 | 02:43:21 | 00:00:00 | |
| AA1-15 | 2026-09-04 01:01:13 | 50.99907 | 8.66670 | 128° | 135km/h | 12418m | -5.3m/s | -61.2°C | 71.3% | 194.7hPa | 2.5V | 08:02:11 | 02:43:18 | 00:00:00 | |
| BIOWL1-15 | 2026-09-04 01:01:12 | 50.99949 | 8.66588 | 130° | 128km/h | 12428m | -4.9m/s | -61.3°C | 71.3% | 194.4hPa | 2.5V | 08:02:11 | 02:43:16 | 00:00:00 | |
| DO3DL | 2026-09-04 01:01:10 | 50.99927 | 8.66628 | 130° | 131km/h | 12423m | -5.1m/s | -61.3°C | 62.6% | 194.6hPa | 2.5V | 08:02:00 | 00:00:00 | 00:00:00 | |
| DM0DOS-11 | 2026-09-04 01:01:08 | 50.99989 | 8.66514 | 130° | 117km/h | 12437m | -5m/s | -61.4°C | 73.1% | 194.1hPa | 2.5V | 08:02:09 | 02:43:14 | 00:00:00 | |
| DL1XH-15 | 2026-09-04 01:01:07 | 51.00042 | 8.66410 | 125° | 110km/h | 12452m | -5.4m/s | -61.5°C | 73.1% | 193.6hPa | 2.5V | 08:02:12 | 02:43:11 | 00:00:00 | |
| DL1XH-west | 2026-09-04 01:01:06 | 51.00025 | 8.66445 | 128° | 110km/h | 12447m | -5.5m/s | -61.5°C | 71.2% | 193.8hPa | 2.5V | 08:02:11 | 02:43:12 | 00:00:00 | |
| HSKMA3-T | 2026-09-04 01:01:05 | 51.00042 | 8.66410 | 125° | 110km/h | 12452m | -5.4m/s | -61.5°C | 71.3% | 193.7hPa | 2.5V | 08:03:02 | 02:43:11 | 00:00:00 | |
| DJ2DS-15 | 2026-09-04 01:01:04 | 51.00057 | 8.66373 | 122° | 122km/h | 12457m | -4.6m/s | -61.5°C | 73.0% | 193.5hPa | 2.5V | 00:00:00 | 02:43:10 | 00:00:00 | |
| DM0DOS-11 | 2026-09-04 01:01:03 | 51.00137 | 8.66129 | 115° | 130km/h | 12486m | -5.1m/s | -61.8°C | 74.6% | 192.6hPa | 2.5V | 08:02:19 | 02:43:04 | 00:00:00 | |
| AA1-15 | 2026-09-04 01:01:01 | 51.00097 | 8.66259 | 116° | 115km/h | 12472m | -5.2m/s | -61.7°C | 71.3% | 193.1hPa | 2.5V | 08:07:17 | 02:43:07 | 00:00:00 | |
| DO9LL-15 | 2026-09-04 01:01:01 | 51.00097 | 8.66258 | 116° | 122km/h | 12472m | -5.2m/s | -61.6°C | 73.6% | 193.1hPa | 2.5V | 00:00:00 | 02:43:07 | 00:00:00 | |
| DL1XH1-15 | 2026-09-04 01:01:00 | 51.00185 | 8.65985 | 120° | 137km/h | 12500m | -4.5m/s | -61.9°C | 75.9% | 192.2hPa | 2.5V | 08:02:22 | 02:43:01 | 00:00:00 | |
| DL1XH-west | 2026-09-04 01:00:55 | 51.00185 | 8.65985 | 121° | 137km/h | 12500m | -4.5m/s | -61.9°C | 71.8% | 192.2hPa | 2.5V | 08:03:02 | 02:43:01 | 00:00:00 | |
| HSKMA3-T | 2026-09-04 01:00:54 | 51.00203 | 8.65938 | 123° | 137km/h | 12504m | -5m/s | -62°C | 72% | 192hPa | 2.5V | 08:03:02 | 02:43:00 | 00:00:00 | |
| DD8BA-10 | 2026-09-04 01:00:54 | 51.00203 | 8.65938 | 123° | 122km/h | 12504m | -4.9m/s | -61.9°C | 76.5% | 192.0hPa | 2.5V | 00:00:00 | 00:00:00 | 00:00:00 | |
| DB0NH | 2026-09-04 01:00:53 | 51.00223 | 8.65892 | 125° | 122km/h | 12509m | -4.7m/s | -62.0°C | 76.8% | 191.8hPa | 2.5V | 08:02:00 | 02:42:59 | 00:00:00 | |
| DL1NUX | 2026-09-04 01:00:52 | 51.00303 | 8.65727 | 128° | 119km/h | 12526m | -5.1m/s | -62.1°C | 77.1% | 191.4hPa | 2.5V | 08:02:28 | 02:42:55 | 00:00:00 | |
| WPPR-10 | 2026-09-04 01:00:51 | 51.00302 | 8.65727 | 128° | 117km/h | 12526m | -5.1m/s | -62.1°C | 65.7% | 191.4hPa | 2.5V | 00:00:00 | 00:00:00 | 00:00:00 | |
| DL1XH1-15 | 2026-09-04 01:00:50 | 51.00370 | 8.65583 | 122° | 108km/h | 12546m | -5.3m/s | -62.2°C | 76.4% | 190.8hPa | 2.5V | 08:02:32 | 02:42:51 | 00:00:00 | |
| DL1XH-west | 2026-09-04 01:00:45 | 51.00370 | 8.65583 | 123° | 108km/h | 12546m | -5.3m/s | -62.2°C | 72.8% | 190.8hPa | 2.5V | 08:03:02 | 02:42:51 | 00:00:00 | |
| BIOWL1-15 | 2026-09-04 01:00:44 | 51.00409 | 8.65468 | 115° | 110km/h | 12560m | -4.9m/s | -62.3°C | 72.9% | 190.3hPa | 2.5V | 08:03:02 | 02:42:48 | 00:00:00 | |
| HSKMA3-T | 2026-09-04 01:00:44 | 51.00384 | 8.65546 | 120° | 108km/h | 12551m | -4.9m/s | -62.3°C | 72.8% | 190.7hPa | 2.5V | 08:03:02 | 02:42:50 | 00:00:00 | |
| DJ2DS-15 | 2026-09-04 01:00:44 | 51.00384 | 8.65546 | 120° | 124km/h | 12551m | -4.9m/s | -62.2°C | 76.2% | 190.6hPa | 2.5V | 00:00:00 | 02:42:50 | 00:00:00 | |
| DL8DAS-14 | 2026-09-04 01:00:43 | 51.00409 | 8.65468 | 115° | 108km/h | 12560m | -4.9m/s | -62.3°C | 64.9% | 190.3hPa | 2.5V | 00:00:00 | 00:00:00 | 00:00:00 | |
| DO2KSM | 2026-09-04 01:00:41 | 51.00409 | 8.65469 | 116° | 110km/h | 12560m | -4.9m/s | -62.3°C | 64.9% | 190.3hPa | 2.5V | 08:03:00 | 00:00:00 | 00:00:00 | |
| DL1XH1-15 | 2026-09-04 01:00:40 | 51.00495 | 8.65159 | 115° | 133km/h | 12592m | -5.3m/s | -62.6°C | 76% | 189.3hPa | 2.5V | 08:02:42 | 02:42:41 | 00:00:00 | |
| DL1XH-west | 2026-09-04 01:00:35 | 51.00495 | 8.65159 | 115° | 133km/h | 12592m | -5.3m/s | -62.6°C | 73.2% | 189.3hPa | 2.5V | 08:03:02 | 02:42:41 | 00:00:00 | |
| HSKMA3-T | 2026-09-04 01:00:33 | 51.00527 | 8.65062 | 119° | 141km/h | 12601m | -4.4m/s | -62.6°C | 73.5% | 189hPa | 2.5V | 08:03:02 | 02:42:39 | 00:00:00 | |
| BIOWL1-15 | 2026-09-04 01:00:33 | 51.00544 | 8.65013 | 120° | 139km/h | 12605m | -5.1m/s | -62.7°C | 73.6% | 188.9hPa | 2.5V | 08:03:02 | 02:42:38 | 00:00:00 | |
| DO3DL | 2026-09-04 01:00:31 | 51.00544 | 8.65013 | 121° | 139km/h | 12605m | -5.1m/s | -62.7°C | 65.3% | 188.9hPa | 2.5V | 08:03:00 | 00:00:00 | 00:00:00 | |
| DL1XH1-15 | 2026-09-04 01:00:30 | 51.00674 | 8.64714 | 126° | 111km/h | 12636m | -5.4m/s | -62.9°C | 78.3% | 187.9hPa | 2.5V | 08:02:52 | 02:42:31 | 00:00:00 | |
| DL1XH-west | 2026-09-04 01:00:24 | 51.00690 | 8.64678 | 123° | 106km/h | 12641m | -5.4m/s | -62.9°C | 74.8% | 187.7hPa | 2.5V | 08:03:02 | 02:42:30 | 00:00:00 | |
| HSKMA3-T | 2026-09-04 01:00:23 | 51.00704 | 8.64642 | 120° | 104km/h | 12646m | -5.2m/s | -63°C | 75% | 187.6hPa | 2.5V | 08:03:02 | 02:42:29 | 00:00:00 | |
| BIOWL1-15 | 2026-09-04 01:00:22 | 51.00716 | 8.64605 | 117° | 104km/h | 12651m | -5.4m/s | -63°C | 75.1% | 187.5hPa | 2.5V | 08:03:02 | 02:42:28 | 00:00:00 | |
| DL1NUX | 2026-09-04 01:00:22 | 51.00750 | 8.64485 | 111° | 115km/h | 12667m | -5.4m/s | -63.1°C | 78.2% | 187.1hPa | 2.5V | 08:02:58 | 02:42:25 | 00:00:00 | |
| DM0DOS-11 | 2026-09-04 01:00:22 | 51.00782 | 8.64349 | 111° | 124km/h | 12680m | -5.4m/s | -63.2°C | 79.1% | 186.6hPa | 2.5V | 08:03:01 | 02:42:22 | 00:00:00 | |
| SONDE2-11 | 2026-09-04 01:00:22 | 51.00716 | 8.64605 | 116° | 102km/h | 12651m | -5.4m/s | -63.0°C | 66.6% | 187.5hPa | 2.5V | 00:00:00 | 00:00:00 | 00:00:00 | |
| DL1XH1-15 | 2026-09-04 01:00:20 | 51.00794 | 8.64302 | 112° | 130km/h | 12685m | -5.1m/s | -63.3°C | 79.4% | 186.5hPa | 2.5V | 08:03:02 | 02:42:21 | 00:00:00 | |
| DL1XH-west | 2026-09-04 01:00:14 | 51.00807 | 8.64253 | 114° | 135km/h | 12689m | -5.2m/s | -63.3°C | 76.5% | 186.3hPa | 2.5V | 08:03:53 | 02:42:20 | 00:00:00 | |
| NBG1-10 | 2026-09-04 01:00:13 | 51.00821 | 8.64203 | 115° | 126km/h | 12694m | -4.7m/s | -63.3°C | 80.1% | 186.1hPa | 2.5V | 00:00:00 | 02:42:19 | 00:00:00 | |
| DL1NUX | 2026-09-04 01:00:12 | 51.00887 | 8.64008 | 122° | 133km/h | 12712m | -5m/s | -63.5°C | 80.9% | 185.7hPa | 2.5V | 08:03:08 | 02:42:15 | 00:00:00 | |
| BIOWL1-15 | 2026-09-04 01:00:12 | 51.00836 | 8.64152 | 116° | 139km/h | 12699m | -5.2m/s | -63.4°C | 76.9% | 186hPa | 2.5V | 08:03:53 | 02:42:18 | 00:00:00 | |
| DL1XH-west | 2026-09-04 01:00:03 | 51.00994 | 8.63764 | 124° | 115km/h | 12741m | -5.4m/s | -63.8°C | 78.3% | 184.8hPa | 2.5V | 08:03:53 | 02:42:09 | 00:00:00 | |
| DL1NUX | 2026-09-04 01:00:02 | 51.01049 | 8.63611 | 113° | 108km/h | 12763m | -4.5m/s | -64°C | 82.8% | 184.3hPa | 2.5V | 08:03:18 | 02:42:05 | 00:00:00 | |
| BIOWL1-15 | 2026-09-04 01:00:01 | 51.01060 | 8.63570 | 113° | 110km/h | 12767m | -4.6m/s | -64°C | 79% | 184.1hPa | 2.5V | 08:03:53 | 02:42:04 | 00:00:00 | |
| HSKMA3-T | 2026-09-04 01:00:01 | 51.01024 | 8.63688 | 120° | 110km/h | 12752m | -5.2m/s | -63.9°C | 78.7% | 184.6hPa | 2.5V | 08:03:53 | 02:42:07 | 00:00:00 | |
| DM0DOS-11 | 2026-09-04 01:00:01 | 51.01081 | 8.63486 | 110° | 115km/h | 12776m | -4.6m/s | -64.1°C | 83.3% | 183.8hPa | 2.5V | 08:03:21 | 02:42:02 | 00:00:00 | |
| DL3AQ-11 | 2026-09-04 01:00:01 | 51.01037 | 8.63650 | 116° | 106km/h | 12757m | -5.0m/s | -63.9°C | 70.3% | 184.4hPa | 2.5V | 00:00:00 | 00:00:00 | 00:00:00 | |
| DJ2DS-15 | 2026-09-04 01:00:00 | 51.01037 | 8.63650 | 116° | 106km/h | 12757m | -5.0m/s | -63.9°C | 70.3% | 184.4hPa | 2.5V | 00:00:00 | 00:00:00 | 00:00:00 | |
| DB0ND-19 | 2026-09-04 00:59:57 | 51.01071 | 8.63529 | 111° | 110km/h | 12771m | -4.6m/s | -64.1°C | 70.7% | 184.0hPa | 2.5V | 00:00:00 | 00:00:00 | 00:00:00 | |
| DJ2KF-10 | 2026-09-04 00:59:56 | 51.01081 | 8.63486 | 111° | 126km/h | 12776m | -4.6m/s | -64.0°C | 83.3% | 183.8hPa | 2.5V | 00:00:00 | 02:42:02 | 00:00:00 | |
| DL8DAS-15 | 2026-09-04 00:59:55 | 51.01081 | 8.63486 | 112° | 115km/h | 12776m | -4.6m/s | -64.1°C | 70.9% | 183.8hPa | 2.6V | 00:00:00 | 00:00:00 | 00:00:00 | |
| DD8BA-10 | 2026-09-04 00:59:53 | 51.01115 | 8.63350 | 112° | 135km/h | 12789m | -5.0m/s | -64.2°C | 83.8% | 183.4hPa | 2.6V | 00:00:00 | 00:00:00 | 00:00:00 | |
| DL1NUX | 2026-09-04 00:59:52 | 51.01171 | 8.63155 | 118° | 139km/h | 12806m | -4.3m/s | -64.4°C | 83.6% | 182.9hPa | 2.6V | 08:03:28 | 02:41:55 | 00:00:00 | |
| DL1XH-west | 2026-09-04 00:59:52 | 51.01127 | 8.63302 | 113° | 131km/h | 12793m | -5.1m/s | -64.3°C | 79.7% | 183.3hPa | 2.5V | 08:03:53 | 02:41:58 | 00:00:00 | |
| BIOWL1-15 | 2026-09-04 00:59:51 | 51.01141 | 8.63253 | 115° | 135km/h | 12798m | -5m/s | -64.3°C | 79.9% | 183.2hPa | 2.5V | 08:03:53 | 02:41:57 | 00:00:00 | |
| HSKMA3-T | 2026-09-04 00:59:50 | 51.01155 | 8.63204 | 116° | 137km/h | 12803m | -4.6m/s | -64.4°C | 79.9% | 183.1hPa | 2.5V | 08:03:53 | 02:41:56 | 00:00:00 | |
| DL3AQ-11 | 2026-09-04 00:59:50 | 51.01171 | 8.63155 | 118° | 137km/h | 12806m | -4.3m/s | -64.4°C | 71.1% | 182.9hPa | 2.5V | 00:00:00 | 00:00:00 | 00:00:00 | |
| WPPR-10 | 2026-09-04 00:59:49 | 51.01188 | 8.63107 | 119° | 141km/h | 12811m | -4.7m/s | -64.4°C | 71.0% | 182.7hPa | 2.5V | 00:00:00 | 00:00:00 | 00:00:00 | |
| EDDB2-11 | 2026-09-04 00:59:48 | 51.01188 | 8.63107 | 119° | 141km/h | 12811m | -4.7m/s | -64.4°C | 71.0% | 182.7hPa | 2.5V | 00:00:00 | 00:00:00 | 00:00:00 | |
| BIOWL1-15 | 2026-09-04 00:59:46 | 51.01332 | 8.62761 | 123° | 113km/h | 12849m | -5.2m/s | -64.8°C | 80.5% | 181.6hPa | 2.5V | 08:03:53 | 02:41:46 | 00:00:00 | |
| DL1XH1-15 | 2026-09-04 00:59:45 | 51.01242 | 8.62966 | 123° | 133km/h | 12825m | -5.3m/s | -64.6°C | 83.9% | 182.3hPa | 2.5V | 08:03:32 | 02:41:51 | 00:00:00 | |
| DF2AP-13 | 2026-09-04 00:59:45 | 51.01242 | 8.62966 | 124° | 122km/h | 12825m | -5.3m/s | -64.5°C | 83.9% | 182.3hPa | 2.5V | 08:03:00 | 02:41:51 | 00:00:00 | |
| DJ2DS-15 | 2026-09-04 00:59:44 | 51.01261 | 8.62922 | 126° | 124km/h | 12830m | -5.3m/s | -64.6°C | 84.1% | 182.1hPa | 2.6V | 00:00:00 | 02:41:50 | 00:00:00 | |
| DD8BA-10 | 2026-09-04 00:59:43 | 51.01280 | 8.62880 | 126° | 113km/h | 12835m | -5.3m/s | -64.6°C | 84.6% | 182.0hPa | 2.6V | 08:03:00 | 00:00:00 | 00:00:00 | |
| DL1NUX | 2026-09-04 00:59:42 | 51.01347 | 8.62723 | 119° | 108km/h | 12853m | -5m/s | -64.9°C | 84.3% | 181.5hPa | 2.5V | 08:03:38 | 02:41:45 | 00:00:00 | |
| DL1XH-west | 2026-09-04 00:59:42 | 51.01298 | 8.62839 | 125° | 124km/h | 12839m | -5.4m/s | -64.7°C | 80.4% | 181.8hPa | 2.5V | 08:03:53 | 02:41:48 | 00:00:00 | |
| DL8DAS-14 | 2026-09-04 00:59:41 | 51.01332 | 8.62761 | 122° | 111km/h | 12849m | -5.2m/s | -64.8°C | 71.7% | 181.6hPa | 2.5V | 00:00:00 | 00:00:00 | 00:00:00 | |
| DL1XH1-15 | 2026-09-04 00:59:40 | 51.01395 | 8.62572 | 112° | 110km/h | 12875m | -5.9m/s | -65°C | 84.7% | 180.9hPa | 2.5V | 08:03:42 | 02:41:41 | 00:00:00 | |
| HSKMA3-T | 2026-09-04 00:59:39 | 51.01347 | 8.62723 | 120° | 108km/h | 12853m | -5m/s | -64.9°C | 80.4% | 181.5hPa | 2.5V | 08:03:53 | 02:41:45 | 00:00:00 | |
| DJ8HS-15 | 2026-09-04 00:59:38 | 51.01360 | 8.62685 | 118° | 122km/h | 12859m | -5.1m/s | -64.8°C | 84.2% | 181.3hPa | 2.6V | 00:00:00 | 02:41:44 | 00:00:00 | |
| SONCRA | 2026-09-04 00:59:37 | 51.01371 | 8.62648 | 116° | 102km/h | 12864m | -5.6m/s | -64.9°C | 71.5% | 181.2hPa | 2.6V | 00:00:00 | 00:00:00 | 00:00:00 | |
| DL4BBY-15 | 2026-09-04 00:59:36 | 51.01383 | 8.62611 | 116° | 124km/h | 12870m | -5.6m/s | -64.7°C | 0% | 0hPa | 2.6V | 00:00:00 | 00:00:00 | 00:00:00 | |
| BUE01 | 2026-09-04 00:59:35 | 51.01405 | 8.62530 | 111° | 115km/h | 12881m | -5.4m/s | -65.1°C | 72.0% | 180.7hPa | 2.6V | 00:00:00 | 00:00:00 | 00:00:00 | |
| DL3AQ-11 | 2026-09-04 00:59:34 | 51.01416 | 8.62486 | 110° | 119km/h | 12886m | -5.1m/s | -65.1°C | 72.3% | 180.6hPa | 2.6V | 00:00:00 | 00:00:00 | 00:00:00 | |
| DD8BA-10 | 2026-09-04 00:59:33 | 51.01416 | 8.62486 | 111° | 135km/h | 12886m | -5.1m/s | -65.1°C | 85.3% | 180.6hPa | 2.6V | 00:00:00 | 00:00:00 | 00:00:00 | |
| DL1NUX | 2026-09-04 00:59:32 | 51.01467 | 8.62292 | 115° | 139km/h | 12904m | -5.5m/s | -65.3°C | 84% | 180hPa | 2.6V | 08:03:48 | 02:41:35 | 00:00:00 | |
| DL1XH-west | 2026-09-04 00:59:31 | 51.01439 | 8.62392 | 112° | 131km/h | 12895m | -4.7m/s | -65.2°C | 80.4% | 180.3hPa | 2.5V | 08:03:53 | 02:41:37 | 00:00:00 | |
| DL1XH1-15 | 2026-09-04 00:59:30 | 51.01554 | 8.62050 | 123° | 131km/h | 12927m | -5.3m/s | -65.5°C | 84% | 179.3hPa | 2.6V | 08:03:53 | 02:41:30 | 00:00:00 | |
| HSKMA3-T | 2026-09-04 00:59:29 | 51.01467 | 8.62292 | 116° | 139km/h | 12904m | -5.5m/s | -65.3°C | 80.2% | 180.1hPa | 2.6V | 08:03:53 | 02:41:35 | 00:00:00 | |
| DB0UT-7 | 2026-09-04 00:59:29 | 51.01467 | 8.62292 | 116° | 128km/h | 12904m | -5.4m/s | -65.3°C | 84.0% | 180.0hPa | 2.6V | 00:00:00 | 02:41:35 | 00:00:00 | |
| DK9SH | 2026-09-04 00:59:27 | 51.01482 | 8.62242 | 119° | 139km/h | 12909m | -5.1m/s | -65.4°C | 71.0% | 179.9hPa | 2.6V | 08:03:00 | 00:00:00 | 00:00:00 | |
| DJ2KF-10 | 2026-09-04 00:59:26 | 51.01517 | 8.62144 | 121° | 128km/h | 12918m | -4.8m/s | -65.4°C | 84.0% | 179.6hPa | 2.6V | 00:00:00 | 02:41:32 | 00:00:00 | |
| DJ2DS-15 | 2026-09-04 00:59:25 | 51.01554 | 8.62050 | 123° | 131km/h | 12927m | -5.3m/s | -65.5°C | 71.0% | 179.3hPa | 2.6V | 00:00:00 | 00:00:00 | 00:00:00 | |
| DJ2DS-15 | 2026-09-04 00:59:24 | 51.01554 | 8.62050 | 124° | 124km/h | 12927m | -5.3m/s | -65.5°C | 84.0% | 179.3hPa | 2.6V | 00:00:00 | 02:41:30 | 00:00:00 | |
| DD8BA-10 | 2026-09-04 00:59:23 | 51.01572 | 8.62006 | 125° | 111km/h | 12932m | -5.1m/s | -65.5°C | 84.2% | 179.2hPa | 2.5V | 00:00:00 | 00:00:00 | 00:00:00 | |
| DL1NUX | 2026-09-04 00:59:22 | 51.01639 | 8.61850 | 122° | 108km/h | 12951m | -5.3m/s | -65.8°C | 84.4% | 178.6hPa | 2.5V | 08:03:58 | 02:41:25 | 00:00:00 | |
| SO1NDE-10 | 2026-09-04 00:59:22 | 51.01590 | 8.61965 | 126° | 126km/h | 12937m | -5.0m/s | -65.6°C | 84.2% | 179.0hPa | 2.5V | 00:00:00 | 02:41:28 | 00:00:00 | |
| DL3AQ-11 | 2026-09-04 00:59:21 | 51.01624 | 8.61887 | 124° | 111km/h | 12946m | -5.0m/s | -65.7°C | 71.2% | 178.8hPa | 2.5V | 00:00:00 | 00:00:00 | 00:00:00 | |
| DL1XH-west | 2026-09-04 00:59:21 | 51.01607 | 8.61925 | 125° | 115km/h | 12942m | -4.7m/s | -65.7°C | 79.4% | 178.9hPa | 2.5V | 08:04:44 | 02:41:27 | 00:00:00 | |
| DM0DOS-11 | 2026-09-04 00:59:20 | 51.01679 | 8.61737 | 116° | 106km/h | 12966m | -5.5m/s | -65.9°C | 85.4% | 178.2hPa | 2.5V | 08:04:01 | 02:41:22 | 00:00:00 | |
| BIOWL1-15 | 2026-09-04 00:59:19 | 51.01679 | 8.61737 | 116° | 106km/h | 12966m | -5.5m/s | -65.9°C | 78.9% | 178.2hPa | 2.5V | 08:04:44 | 02:41:22 | 00:00:00 | |
| HSKMA3-T | 2026-09-04 00:59:19 | 51.01653 | 8.61812 | 121° | 106km/h | 12956m | -5.2m/s | -65.8°C | 79.1% | 178.5hPa | 2.6V | 08:04:44 | 02:41:24 | 00:00:00 | |
| EDDB2-11 | 2026-09-04 00:59:18 | 51.01666 | 8.61775 | 118° | 104km/h | 12961m | -5.4m/s | -65.9°C | 71.7% | 178.3hPa | 2.5V | 00:00:00 | 00:00:00 | 00:00:00 | |
| DL8OAI-8 | 2026-09-04 00:59:16 | 51.01666 | 8.61775 | 120° | 106km/h | 12961m | -5.4m/s | -65.9°C | 71.8% | 178.3hPa | 2.5V | 08:04:00 | 00:00:00 | 00:00:00 | |
| DL1XH1-15 | 2026-09-04 00:59:14 | 51.01702 | 8.61657 | 112° | 113km/h | 12976m | -5.2m/s | -66°C | 86.1% | 177.9hPa | 2.5V | 08:04:03 | 02:41:20 | 00:00:00 | |
| DO3DL | 2026-09-04 00:59:14 | 51.01702 | 8.61656 | 114° | 113km/h | 12977m | -5.2m/s | -66.0°C | 72.6% | 177.9hPa | 2.5V | 08:04:00 | 00:00:00 | 00:00:00 | |
| DL1NUX | 2026-09-04 00:59:13 | 51.01760 | 8.61426 | 112° | 137km/h | 13001m | -5.3m/s | -66.2°C | 84.5% | 177.2hPa | 2.5V | 08:04:08 | 02:41:15 | 00:00:00 | |
| DL1XH-west | 2026-09-04 00:59:11 | 51.01735 | 8.61524 | 111° | 126km/h | 12991m | -4.9m/s | -66.1°C | 78.2% | 177.5hPa | 2.6V | 08:04:44 | 02:41:17 | 00:00:00 | |
| DB0DAN | 2026-09-04 00:59:10 | 51.01747 | 8.61476 | 112° | 124km/h | 12996m | -5.1m/s | -66.2°C | 0% | 177.36hPa | 2.5V | 00:00:00 | 00:00:00 | 00:00:00 | |
| DM0DOS-11 | 2026-09-04 00:59:10 | 51.01802 | 8.61274 | 116° | 141km/h | 13015m | -5.2m/s | -66.4°C | 82.8% | 176.8hPa | 2.5V | 08:04:11 | 02:41:12 | 00:00:00 | |
| DL8DAS-14 | 2026-09-04 00:59:10 | 51.01760 | 8.61426 | 112° | 135km/h | 13001m | -5.3m/s | -66.2°C | 71.1% | 177.2hPa | 2.5V | 00:00:00 | 00:00:00 | 00:00:00 | |
| DL1XH1-15 | 2026-09-04 00:59:09 | 51.01834 | 8.61171 | 118° | 142km/h | 13025m | -5.6m/s | -66.4°C | 81.4% | 176.4hPa | 2.5V | 08:04:13 | 02:41:10 | 00:00:00 | |
| HSKMA3-T | 2026-09-04 00:59:08 | 51.01787 | 8.61325 | 115° | 139km/h | 13010m | -5.7m/s | -66.3°C | 77.3% | 176.9hPa | 2.5V | 08:04:44 | 02:41:13 | 00:00:00 | |
| BIOWL1-15 | 2026-09-04 00:59:05 | 51.01818 | 8.61223 | 117° | 146km/h | 13020m | -5.1m/s | -66.4°C | 76.8% | 176.6hPa | 2.6V | 08:04:44 | 02:41:11 | 00:00:00 | |
| BUE01 | 2026-09-04 00:59:04 | 51.01852 | 8.61121 | 119° | 142km/h | 13030m | -5.2m/s | -66.5°C | 67.6% | 176.3hPa | 2.6V | 00:00:00 | 00:00:00 | 00:00:00 | |
| DD8BA-10 | 2026-09-04 00:59:03 | 51.01852 | 8.61121 | 120° | 131km/h | 13030m | -5.2m/s | -66.4°C | 80.8% | 176.3hPa | 2.6V | 00:00:00 | 00:00:00 | 00:00:00 | |
| DL1NUX | 2026-09-04 00:59:02 | 51.01927 | 8.60931 | 125° | 133km/h | 13049m | -5.6m/s | -66.7°C | 80.6% | 175.7hPa | 2.6V | 08:04:18 | 02:41:05 | 00:00:00 | |
| DD1CC8 | 2026-09-04 00:59:01 | 51.01889 | 8.61023 | 122° | 139km/h | 13039m | -5.1m/s | -66.6°C | 67.3% | 176.0hPa | 2.5V | 00:00:00 | 00:00:00 | 00:00:00 | |
| DM0DOS-11 | 2026-09-04 00:59:00 | 51.01984 | 8.60805 | 124° | 124km/h | 13064m | -5.3m/s | -66.8°C | 80.9% | 175.3hPa | 2.5V | 08:04:21 | 02:41:02 | 00:00:00 | |
| DL1XH-west | 2026-09-04 00:59:00 | 51.01908 | 8.60976 | 124° | 141km/h | 13044m | -5.2m/s | -66.6°C | 75.3% | 175.8hPa | 2.5V | 08:04:44 | 02:41:06 | 00:00:00 | |
| HSKMA3-T | 2026-09-04 00:58:56 | 51.01984 | 8.60805 | 125° | 124km/h | 13064m | -5.3m/s | -66.8°C | 74.5% | 175.3hPa | 2.5V | 08:04:44 | 02:41:02 | 00:00:00 | |
| DB0ND-19 | 2026-09-04 00:58:55 | 51.02002 | 8.60765 | 124° | 119km/h | 13069m | -5.2m/s | -66.8°C | 67.4% | 175.2hPa | 2.5V | 00:00:00 | 00:00:00 | 00:00:00 | |
| DD8BA-10 | 2026-09-04 00:58:53 | 51.02033 | 8.60687 | 119° | 130km/h | 13079m | -5.5m/s | -66.8°C | 80.8% | 174.8hPa | 2.5V | 00:00:00 | 00:00:00 | 00:00:00 | |
| DL1NUX | 2026-09-04 00:58:52 | 51.02085 | 8.60515 | 112° | 128km/h | 13100m | -5m/s | -67°C | 82.3% | 174.4hPa | 2.5V | 08:04:28 | 02:40:55 | 00:00:00 | |
| DL1XH-west | 2026-09-04 00:58:50 | 51.02072 | 8.60561 | 115° | 120km/h | 13095m | -5.3m/s | -67°C | 73.5% | 174.5hPa | 2.5V | 08:04:44 | 02:40:56 | 00:00:00 | |
| DL1XH1-15 | 2026-09-04 00:58:49 | 51.02156 | 8.60261 | 115° | 148km/h | 13127m | -5.2m/s | -67.2°C | 83.1% | 173.6hPa | 2.5V | 08:04:33 | 02:40:50 | 00:00:00 | |
| HSKMA3-T | 2026-09-04 00:58:46 | 51.02125 | 8.60366 | 115° | 142km/h | 13115m | -5.9m/s | -67.1°C | 73.1% | 173.9hPa | 2.6V | 08:04:44 | 02:40:52 | 00:00:00 | |
| DO1YAY-16 | 2026-09-04 00:58:46 | 51.02125 | 8.60366 | 114° | 141km/h | 13115m | -5.9m/s | -67.1°C | 69.2% | 173.9hPa | 2.5V | 00:00:00 | 00:00:00 | 00:00:00 | |
| BIOWL1-15 | 2026-09-04 00:58:42 | 51.02189 | 8.60156 | 118° | 148km/h | 13136m | -5.2m/s | -67.3°C | 72.3% | 173.3hPa | 2.5V | 08:04:44 | 02:40:48 | 00:00:00 | |
| DL1NUX | 2026-09-04 00:58:42 | 51.02245 | 8.59996 | 119° | 153km/h | 13150m | -5.5m/s | -67.4°C | 80.3% | 172.9hPa | 2.5V | 08:04:38 | 02:40:45 | 00:00:00 | |
| DL3AQ-11 | 2026-09-04 00:58:41 | 51.02226 | 8.60049 | 119° | 150km/h | 13145m | -6.0m/s | -67.3°C | 67.5% | 173.0hPa | 2.5V | 00:00:00 | 00:00:00 | 00:00:00 | |
| DM0DOS-11 | 2026-09-04 00:58:40 | 51.02305 | 8.59838 | 122° | 153km/h | 13165m | -5.7m/s | -67.5°C | 78.3% | 172.4hPa | 2.5V | 08:04:41 | 02:40:42 | 00:00:00 | |
| DL1XH-west | 2026-09-04 00:58:39 | 51.02245 | 8.59996 | 120° | 153km/h | 13150m | -5.5m/s | -67.4°C | 71.5% | 172.9hPa | 2.5V | 08:04:44 | 02:40:45 | 00:00:00 | |
| HSKMA3-T | 2026-09-04 00:58:36 | 51.02305 | 8.59838 | 123° | 153km/h | 13165m | -5.7m/s | -67.5°C | 70.6% | 172.4hPa | 2.5V | 08:04:44 | 02:40:42 | 00:00:00 | |
| BIOWL1-15 | 2026-09-04 00:58:32 | 51.02439 | 8.59550 | 128° | 139km/h | 13195m | -5.5m/s | -67.4°C | 68.7% | 171.5hPa | 2.5V | 08:05:35 | 02:40:36 | 00:00:00 | |
| AA1-15 | 2026-09-04 00:58:31 | 51.02417 | 8.59595 | 128° | 146km/h | 13190m | -5.8m/s | -67.4°C | 68.9% | 171.6hPa | 2.5V | 08:07:17 | 02:40:37 | 00:00:00 | |
| DM0DOS-11 | 2026-09-04 00:58:30 | 51.02516 | 8.59374 | 117° | 133km/h | 13215m | -5.1m/s | -67.3°C | 77.1% | 171hPa | 2.5V | 08:04:51 | 02:40:32 | 00:00:00 | |
| DL3AQ-11 | 2026-09-04 00:58:30 | 51.02461 | 8.59507 | 126° | 135km/h | 13200m | -5.1m/s | -67.3°C | 64.5% | 171.3hPa | 2.5V | 00:00:00 | 00:00:00 | 00:00:00 | |
| DL1XH1-15 | 2026-09-04 00:58:29 | 51.02547 | 8.59276 | 116° | 141km/h | 13225m | -5.8m/s | -67.3°C | 76.1% | 170.7hPa | 2.5V | 08:04:53 | 02:40:30 | 00:00:00 | |
| DF8AY | 2026-09-04 00:58:28 | 51.02481 | 8.59463 | 125° | 133km/h | 13205m | -5.3m/s | 0°C | 0% | 0hPa | 2.6V | 18:12:15 | 02:40:34 | 00:00:00 | |
| HSKMA3-T | 2026-09-04 00:58:25 | 51.02531 | 8.59326 | 117° | 137km/h | 13220m | -5.6m/s | -67.3°C | 67.7% | 170.9hPa | 2.5V | 08:05:35 | 02:40:31 | 00:00:00 | |
| DL1XH-15 | 2026-09-04 00:58:24 | 51.02564 | 8.59225 | 115° | 146km/h | 13230m | -5.7m/s | -67.3°C | 76.2% | 170.6hPa | 2.5V | 08:04:54 | 02:40:29 | 00:00:00 | |
| BIOWL1-15 | 2026-09-04 00:58:19 | 51.02633 | 8.59007 | 118° | 157km/h | 13252m | -5.7m/s | -67.4°C | 67.4% | 170hPa | 2.5V | 08:05:35 | 02:40:25 | 00:00:00 | |
| DL1XH-15 | 2026-09-04 00:58:18 | 51.02766 | 8.58679 | 127° | 161km/h | 13282m | -5.5m/s | -67.3°C | 73.9% | 169.1hPa | 2.5V | 08:05:04 | 02:40:19 | 00:00:00 | |
| DL1XH-west | 2026-09-04 00:58:17 | 51.02673 | 8.58895 | 121° | 164km/h | 13262m | -5.3m/s | -67.3°C | 67% | 169.7hPa | 2.5V | 08:05:35 | 02:40:23 | 00:00:00 | |
| HSKMA3-T | 2026-09-04 00:58:14 | 51.02742 | 8.58731 | 127° | 162km/h | 13277m | -5.2m/s | -67.3°C | 66.4% | 169.3hPa | 2.5V | 08:05:35 | 02:40:20 | 00:00:00 | |
| AA1-15 | 2026-09-04 00:58:13 | 51.02766 | 8.58679 | 127° | 161km/h | 13282m | -5.5m/s | -67.3°C | 66.1% | 169.1hPa | 2.5V | 08:07:17 | 02:40:19 | 00:00:00 | |
| DD8BA-10 | 2026-09-04 00:58:13 | 51.02766 | 8.58679 | 128° | 144km/h | 13282m | -5.5m/s | -67.2°C | 73.9% | 169.1hPa | 2.5V | 08:05:00 | 00:00:00 | 00:00:00 | |
| DL1NUX | 2026-09-04 00:58:12 | 51.02865 | 8.58489 | 130° | 144km/h | 13303m | -6.4m/s | -67.2°C | 72.1% | 168.5hPa | 2.6V | 08:05:08 | 02:40:15 | 00:00:00 | |
| DO9LL-15 | 2026-09-04 00:58:11 | 51.02816 | 8.58581 | 131° | 144km/h | 13292m | -5.7m/s | -67.2°C | 73.3% | 168.8hPa | 2.6V | 00:00:00 | 02:40:17 | 00:00:00 | |
| DL1XH-15 | 2026-09-04 00:58:08 | 51.02991 | 8.58231 | 120° | 133km/h | 13338m | -5.1m/s | -67.4°C | 73% | 167.7hPa | 2.6V | 08:05:14 | 02:40:09 | 00:00:00 | |
| DL1XH-west | 2026-09-04 00:58:07 | 51.02911 | 8.58402 | 130° | 135km/h | 13315m | -5.7m/s | -67.3°C | 64.9% | 168.2hPa | 2.5V | 08:05:35 | 02:40:13 | 00:00:00 | |
| HSKMA3-T | 2026-09-04 00:58:04 | 51.02972 | 8.58275 | 125° | 131km/h | 13333m | -5.1m/s | -67.4°C | 64.5% | 167.7hPa | 2.6V | 08:05:35 | 02:40:10 | 00:00:00 | |
| DJ2DS-15 | 2026-09-04 00:58:04 | 51.02972 | 8.58275 | 126° | 146km/h | 13333m | -5.1m/s | -67.3°C | 73.0% | 167.7hPa | 2.5V | 00:00:00 | 02:40:10 | 00:00:00 | |
| DD8BA-10 | 2026-09-04 00:58:03 | 51.02991 | 8.58231 | 121° | 150km/h | 13338m | -5.1m/s | -67.4°C | 73.0% | 167.6hPa | 2.5V | 00:00:00 | 00:00:00 | 00:00:00 | |
| DL1NUX | 2026-09-04 00:58:02 | 51.03059 | 8.58033 | 118° | 148km/h | 13358m | -5.8m/s | -67.6°C | 73.6% | 167.1hPa | 2.5V | 08:05:18 | 02:40:05 | 00:00:00 | |
| AA1-15 | 2026-09-04 00:57:59 | 51.03060 | 8.58033 | 119° | 148km/h | 13358m | -5.8m/s | -67.6°C | 63.8% | 167.1hPa | 2.5V | 08:07:17 | 02:40:05 | 00:00:00 | |
| DB0UT-7 | 2026-09-04 00:57:59 | 51.03060 | 8.58033 | 119° | 148km/h | 13358m | -5.7m/s | -67.5°C | 73.6% | 167.0hPa | 2.5V | 00:00:00 | 00:00:00 | 00:00:00 | |
| DL1XH-15 | 2026-09-04 00:57:58 | 51.03190 | 8.57715 | 128° | 159km/h | 13388m | -5.4m/s | -67.2°C | 69.7% | 166.2hPa | 2.5V | 08:05:24 | 02:39:59 | 00:00:00 | |
| DL1XH-west | 2026-09-04 00:57:56 | 51.03119 | 8.57872 | 123° | 161km/h | 13373m | -6.3m/s | -67.6°C | 63.5% | 166.6hPa | 2.5V | 08:05:35 | 02:40:02 | 00:00:00 | |
| DM0DOS-11 | 2026-09-04 00:57:55 | 51.03165 | 8.57766 | 127° | 161km/h | 13383m | -5.5m/s | -67.3°C | 71.5% | 166.4hPa | 2.5V | 08:05:23 | 02:40:00 | 00:00:00 | |
| HSKMA3-T | 2026-09-04 00:57:53 | 51.03190 | 8.57715 | 129° | 159km/h | 13388m | -5.4m/s | -67.2°C | 62.6% | 166.2hPa | 2.5V | 08:05:35 | 02:39:59 | 00:00:00 | |
| DD8BA-10 | 2026-09-04 00:57:53 | 51.03190 | 8.57715 | 129° | 146km/h | 13389m | -5.4m/s | -67.1°C | 69.7% | 166.2hPa | 2.5V | 00:00:00 | 00:00:00 | 00:00:00 | |
| DL1NUX | 2026-09-04 00:57:52 | 51.03292 | 8.57528 | 132° | 144km/h | 13410m | -6.2m/s | -67.2°C | 67.4% | 165.7hPa | 2.5V | 08:05:28 | 02:39:55 | 00:00:00 | |
| AA1-15 | 2026-09-04 00:57:49 | 51.03293 | 8.57528 | 132° | 144km/h | 13410m | -6.2m/s | -67.2°C | 61.8% | 165.7hPa | 2.5V | 08:07:17 | 02:39:55 | 00:00:00 | |
| NBG1-10 | 2026-09-04 00:57:49 | 51.03292 | 8.57528 | 133° | 141km/h | 13410m | -6.2m/s | -67.2°C | 67.4% | 165.6hPa | 2.5V | 00:00:00 | 02:39:55 | 00:00:00 | |
| DL1XH-15 | 2026-09-04 00:57:48 | 51.03427 | 8.57282 | 127° | 126km/h | 13446m | -5.8m/s | -67.2°C | 64.2% | 164.8hPa | 2.5V | 08:05:34 | 02:39:49 | 00:00:00 | |
| DL1XH-west | 2026-09-04 00:57:46 | 51.03364 | 8.57403 | 132° | 133km/h | 13428m | -6m/s | -67.3°C | 60.6% | 165.2hPa | 2.6V | 08:05:35 | 02:39:52 | 00:00:00 | |
| DM0DOS-11 | 2026-09-04 00:57:45 | 51.03407 | 8.57322 | 128° | 126km/h | 13440m | -5.7m/s | -67.2°C | 64.5% | 164.9hPa | 2.5V | 08:05:33 | 02:39:50 | 00:00:00 | |
| BIOWL1-15 | 2026-09-04 00:57:43 | 51.03538 | 8.57005 | 121° | 148km/h | 13480m | -5.3m/s | -67.4°C | 56.7% | 164hPa | 2.5V | 08:06:26 | 02:39:43 | 00:00:00 | |
| HSKMA3-T | 2026-09-04 00:57:42 | 51.03446 | 8.57241 | 125° | 128km/h | 13452m | -5.8m/s | -67.3°C | 58.9% | 164.6hPa | 2.5V | 08:05:35 | 02:39:48 | 00:00:00 | |
| DL1NUX | 2026-09-04 00:57:42 | 51.03500 | 8.57105 | 120° | 141km/h | 13469m | -5.1m/s | -67.3°C | 62.4% | 164.2hPa | 2.6V | 08:05:38 | 02:39:45 | 00:00:00 | |
| AM1SDL-15 | 2026-09-04 00:57:42 | 51.03446 | 8.57240 | 126° | 148km/h | 13452m | -5.7m/s | -67.2°C | 63.7% | 164.6hPa | 2.6V | 00:00:00 | 02:39:48 | 00:00:00 | |
| DO9LL-15 | 2026-09-04 00:57:41 | 51.03464 | 8.57197 | 123° | 141km/h | 13458m | -5.6m/s | -67.2°C | 63.4% | 164.5hPa | 2.6V | 00:00:00 | 02:39:47 | 00:00:00 | |
| DD1CC3-15 | 2026-09-04 00:57:40 | 51.03464 | 8.57197 | 124° | 131km/h | 13458m | -5.6m/s | -67.3°C | 51.3% | 164.5hPa | 2.6V | 08:06:00 | 00:00:00 | 00:00:00 | |
| DL1XH-15 | 2026-09-04 00:57:38 | 51.03622 | 8.56799 | 125° | 159km/h | 13502m | -5.9m/s | -67.5°C | 60.4% | 163.4hPa | 2.6V | 08:05:44 | 02:39:39 | 00:00:00 | |
| DM0DOS-11 | 2026-09-04 00:57:38 | 51.03600 | 8.56850 | 124° | 155km/h | 13497m | -5.7m/s | -67.5°C | 60.4% | 163.5hPa | 2.6V | 08:05:43 | 02:39:40 | 00:00:00 | |
| DL1XH-west | 2026-09-04 00:57:36 | 51.03557 | 8.56953 | 122° | 151km/h | 13486m | -5.2m/s | -67.4°C | 56.2% | 163.8hPa | 2.5V | 08:06:26 | 02:39:42 | 00:00:00 | |
| HSKMA3-T | 2026-09-04 00:57:32 | 51.03646 | 8.56748 | 128° | 159km/h | 13508m | -5.2m/s | -67.5°C | 54.4% | 163.2hPa | 2.5V | 08:06:26 | 02:39:38 | 00:00:00 | |
| AM1SDL-15 | 2026-09-04 00:57:30 | 51.03697 | 8.56652 | 132° | 124km/h | 13519m | -4.7m/s | -67.5°C | 59.5% | 162.9hPa | 2.5V | 00:00:00 | 02:39:36 | 00:00:00 | |
| DB0UT-7 | 2026-09-04 00:57:29 | 51.03722 | 8.56605 | 132° | 137km/h | 13524m | -5.1m/s | -67.6°C | 58.9% | 162.8hPa | 2.5V | 00:00:00 | 02:39:35 | 00:00:00 | |
| DM0DOS-11 | 2026-09-04 00:57:28 | 51.03848 | 8.56397 | 134° | 135km/h | 13552m | -5.3m/s | -67.8°C | 55.5% | 162.1hPa | 2.5V | 08:05:53 | 02:39:30 | 00:00:00 | |
| DL1XH-15 | 2026-09-04 00:57:26 | 51.03872 | 8.56359 | 134° | 131km/h | 13558m | -5.3m/s | -67.8°C | 54.9% | 162hPa | 2.5V | 08:05:54 | 02:39:29 | 00:00:00 | |
| DL1XH-west | 2026-09-04 00:57:26 | 51.03799 | 8.56477 | 134° | 142km/h | 13541m | -5.5m/s | -67.7°C | 51.2% | 162.4hPa | 2.5V | 08:06:26 | 02:39:32 | 00:00:00 | |
| HSKMA3-T | 2026-09-04 00:57:21 | 51.03917 | 8.56284 | 133° | 126km/h | 13569m | -5.4m/s | -67.9°C | 48.6% | 161.7hPa | 2.6V | 08:06:26 | 02:39:27 | 00:00:00 | |
| BIOWL1-15 | 2026-09-04 00:57:18 | 51.04048 | 8.56003 | 121° | 131km/h | 13606m | -4.9m/s | -68°C | 44.6% | 160.8hPa | 2.5V | 08:06:26 | 02:39:20 | 00:00:00 | |
| DL1XH-west | 2026-09-04 00:57:15 | 51.04031 | 8.56047 | 123° | 128km/h | 13600m | -5.4m/s | -68°C | 45.1% | 160.9hPa | 2.6V | 08:06:26 | 02:39:21 | 00:00:00 | |
| DL1XH-15 | 2026-09-04 00:57:14 | 51.04066 | 8.55957 | 120° | 135km/h | 13611m | -5.3m/s | -68°C | 48.9% | 160.6hPa | 2.5V | 08:06:04 | 02:39:19 | 00:00:00 | |
| DL1XH1-15 | 2026-09-04 00:57:14 | 51.04048 | 8.56003 | 121° | 131km/h | 13606m | -4.9m/s | -68°C | 49.3% | 160.7hPa | 2.5V | 08:06:03 | 02:39:20 | 00:00:00 | |
| DD8BA-10 | 2026-09-04 00:57:13 | 51.04066 | 8.55957 | 121° | 146km/h | 13611m | -5.3m/s | -68.0°C | 48.9% | 160.6hPa | 2.5V | 00:00:00 | 00:00:00 | 00:00:00 | |
| DL1NUX | 2026-09-04 00:57:12 | 51.04142 | 8.55761 | 123° | 150km/h | 13633m | -5.2m/s | -68°C | 47.7% | 160.1hPa | 2.6V | 08:06:08 | 02:39:15 | 00:00:00 | |
| HSKMA3-T | 2026-09-04 00:57:11 | 51.04102 | 8.55861 | 122° | 144km/h | 13622m | -5.7m/s | -68.1°C | 43% | 160.3hPa | 2.5V | 08:06:26 | 02:39:17 | 00:00:00 | |
| DO9LL-15 | 2026-09-04 00:57:11 | 51.04102 | 8.55861 | 122° | 133km/h | 13622m | -5.7m/s | -68.0°C | 48.1% | 160.2hPa | 2.5V | 00:00:00 | 02:39:17 | 00:00:00 | |
| DL3AQ-11 | 2026-09-04 00:57:10 | 51.04142 | 8.55761 | 123° | 150km/h | 13633m | -5.2m/s | -68.0°C | 36.7% | 160.1hPa | 2.5V | 00:00:00 | 00:00:00 | 00:00:00 | |
| DL1XH-15 | 2026-09-04 00:57:08 | 51.04309 | 8.55449 | 133° | 135km/h | 13668m | -5.1m/s | -68.2°C | 45.9% | 159.1hPa | 2.5V | 08:06:15 | 02:39:08 | 00:00:00 | |
| BIOWL1-15 | 2026-09-04 00:57:06 | 51.04210 | 8.55617 | 131° | 150km/h | 13648m | -4.5m/s | -68.1°C | 40.6% | 159.6hPa | 2.5V | 08:06:26 | 02:39:12 | 00:00:00 | |
| DL1XH-west | 2026-09-04 00:57:04 | 51.04260 | 8.55529 | 134° | 142km/h | 13657m | -4.7m/s | -68.2°C | 39.6% | 159.4hPa | 2.6V | 08:06:26 | 02:39:10 | 00:00:00 | |
| DJ2DS-15 | 2026-09-04 00:57:04 | 51.04260 | 8.55529 | 134° | 126km/h | 13657m | -4.7m/s | -68.1°C | 46.7% | 159.4hPa | 2.5V | 00:00:00 | 02:39:10 | 00:00:00 | |
| DD8BA-10 | 2026-09-04 00:57:03 | 51.04285 | 8.55488 | 134° | 122km/h | 13662m | -5.1m/s | -68.1°C | 46.3% | 159.3hPa | 2.5V | 00:00:00 | 00:00:00 | 00:00:00 | |
| DL1NUX | 2026-09-04 00:57:02 | 51.04375 | 8.55337 | 132° | 120km/h | 13683m | -5m/s | -68.2°C | 43.4% | 158.8hPa | 2.5V | 08:06:18 | 02:39:05 | 00:00:00 | |
| HSKMA3-T | 2026-09-04 00:57:00 | 51.04354 | 8.55374 | 133° | 124km/h | 13678m | -5m/s | -68.3°C | 37.3% | 158.9hPa | 2.5V | 08:06:26 | 02:39:06 | 00:00:00 | |
| BIOWL1-15 | 2026-09-04 00:56:56 | 51.04433 | 8.55226 | 130° | 117km/h | 13699m | -5.4m/s | -68.1°C | 34.2% | 158.3hPa | 2.5V | 08:06:26 | 02:39:02 | 00:00:00 | |
| DM0DOS-11 | 2026-09-04 00:56:55 | 51.04468 | 8.55153 | 124° | 113km/h | 13710m | -5.3m/s | -68°C | 38% | 158hPa | 2.5V | 08:06:23 | 02:39:00 | 00:00:00 | |
| DL1XH-west | 2026-09-04 00:56:53 | 51.04484 | 8.55116 | 124° | 113km/h | 13716m | -5.1m/s | -67.9°C | 31.9% | 157.8hPa | 2.5V | 08:06:26 | 02:38:59 | 00:00:00 | |
| DD8BA-10 | 2026-09-04 00:56:53 | 51.04484 | 8.55116 | 124° | 130km/h | 13716m | -5.1m/s | -67.9°C | 37.1% | 157.8hPa | 2.5V | 00:00:00 | 00:00:00 | 00:00:00 | |
| DL1NUX | 2026-09-04 00:56:52 | 51.04546 | 8.54948 | 118° | 131km/h | 13736m | -4.6m/s | -68°C | 36% | 157.4hPa | 2.5V | 08:06:28 | 02:38:55 | 00:00:00 | |
| HSKMA3-T | 2026-09-04 00:56:49 | 51.04546 | 8.54948 | 119° | 131km/h | 13736m | -4.6m/s | -68°C | 29.2% | 157.4hPa | 2.5V | 08:07:17 | 02:38:55 | 00:00:00 | |
| BIOWL9-15 | 2026-09-04 00:56:47 | 51.04580 | 8.54855 | 121° | 135km/h | 13747m | -5.2m/s | -67.7°C | 25.2% | 157.1hPa | 2.5V | 00:00:00 | 00:00:00 | 00:00:00 | |
| BIOWL1-15 | 2026-09-04 00:56:45 | 51.04708 | 8.54595 | 133° | 131km/h | 13776m | -4.9m/s | -67.2°C | 24% | 156.3hPa | 2.5V | 08:07:17 | 02:38:47 | 00:00:00 | |
| DL1XH-15 | 2026-09-04 00:56:45 | 51.04663 | 8.54675 | 130° | 137km/h | 13767m | -4.5m/s | -67.2°C | 30.9% | 156.6hPa | 2.5V | 08:06:34 | 02:38:49 | 00:00:00 | |
| DL1XH-west | 2026-09-04 00:56:43 | 51.04663 | 8.54675 | 131° | 137km/h | 13767m | -4.5m/s | -67.2°C | 25.1% | 156.6hPa | 2.5V | 08:07:17 | 02:38:49 | 00:00:00 | |
| DL1NUX | 2026-09-04 00:56:42 | 51.04752 | 8.54521 | 132° | 120km/h | 13786m | -5.1m/s | -67.2°C | 29% | 156.1hPa | 2.6V | 08:06:38 | 02:38:45 | 00:00:00 | |
| DB0DAN | 2026-09-04 00:56:40 | 51.04730 | 8.54557 | 132° | 120km/h | 13782m | -4.9m/s | -67.2°C | 0% | 156.2hPa | 2.6V | 00:00:00 | 00:00:00 | 00:00:00 | |
| HSKMA3-T | 2026-09-04 00:56:38 | 51.04772 | 8.54487 | 134° | 115km/h | 13791m | -4.8m/s | -67.1°C | 22.4% | 155.9hPa | 2.5V | 08:07:17 | 02:38:44 | 00:00:00 | |
| DO3DL | 2026-09-04 00:56:37 | 51.04772 | 8.54487 | 134° | 115km/h | 13791m | -4.8m/s | -67.1°C | 19.9% | 155.9hPa | 2.5V | 08:07:00 | 00:00:00 | 00:00:00 | |
| DL1XH-15 | 2026-09-04 00:56:35 | 51.04863 | 8.54326 | 128° | 104km/h | 13817m | -4.7m/s | -66.5°C | 24.5% | 155.3hPa | 2.5V | 08:06:44 | 02:38:39 | 00:00:00 | |
| DM0DOS-11 | 2026-09-04 00:56:35 | 51.04846 | 8.54358 | 129° | 104km/h | 13812m | -4.9m/s | -66.5°C | 24.9% | 155.4hPa | 2.6V | 08:06:43 | 02:38:40 | 00:00:00 | |
| BIOWL1-15 | 2026-09-04 00:56:33 | 51.04923 | 8.54199 | 124° | 97km/h | 13837m | -5m/s | -65.9°C | 17.6% | 154.7hPa | 2.6V | 08:07:17 | 02:38:35 | 00:00:00 | |
| DL1XH-west | 2026-09-04 00:56:32 | 51.04879 | 8.54294 | 127° | 104km/h | 13822m | -5m/s | -66.5°C | 19.2% | 155.1hPa | 2.5V | 08:07:17 | 02:38:38 | 00:00:00 | |
| DL1NUX | 2026-09-04 00:56:32 | 51.04923 | 8.54199 | 123° | 97km/h | 13837m | -5m/s | -65.9°C | 21.6% | 154.7hPa | 2.6V | 08:06:48 | 02:38:35 | 00:00:00 | |
| HSKMA3-T | 2026-09-04 00:56:27 | 51.04950 | 8.54132 | 122° | 99km/h | 13848m | -5.3m/s | -65.6°C | 16.8% | 154.4hPa | 2.5V | 08:07:17 | 02:38:33 | 00:00:00 | |
| DL8DAS-15 | 2026-09-04 00:56:26 | 51.04949 | 8.54132 | 123° | 99km/h | 13848m | -5.3m/s | -65.6°C | 13.5% | 154.4hPa | 2.5V | 00:00:00 | 00:00:00 | 00:00:00 | |
| DM0DOS-11 | 2026-09-04 00:56:25 | 51.04987 | 8.54031 | 117° | 99km/h | 13864m | -5.4m/s | -65.4°C | 19.1% | 154hPa | 2.5V | 08:06:53 | 02:38:30 | 00:00:00 | |
| DL1XH-15 | 2026-09-04 00:56:24 | 51.04998 | 8.53995 | 115° | 104km/h | 13870m | -4.9m/s | -65.4°C | 18.9% | 153.9hPa | 2.6V | 08:06:54 | 02:38:29 | 00:00:00 | |
| DJ2DS-15 | 2026-09-04 00:56:24 | 51.04987 | 8.54031 | 118° | 111km/h | 13865m | -5.3m/s | -65.3°C | 19.1% | 154.0hPa | 2.5V | 00:00:00 | 02:38:30 | 00:00:00 | |
| DD8BA-10 | 2026-09-04 00:56:23 | 51.04998 | 8.53995 | 116° | 117km/h | 13870m | -4.9m/s | -65.3°C | 18.9% | 153.8hPa | 2.5V | 00:00:00 | 00:00:00 | 00:00:00 | |
| DL1NUX | 2026-09-04 00:56:22 | 51.05046 | 8.53833 | 115° | 117km/h | 13892m | -5.1m/s | -65°C | 17.9% | 153.3hPa | 2.5V | 08:06:58 | 02:38:25 | 00:00:00 | |
| DL1XH-west | 2026-09-04 00:56:22 | 51.05010 | 8.53956 | 115° | 110km/h | 13875m | -5.3m/s | -65.4°C | 15.2% | 153.8hPa | 2.6V | 08:07:17 | 02:38:28 | 00:00:00 | |
| SO1NDE-10 | 2026-09-04 00:56:22 | 51.05010 | 8.53956 | 115° | 110km/h | 13875m | -5.2m/s | -65.3°C | 18.7% | 153.7hPa | 2.5V | 00:00:00 | 02:38:28 | 00:00:00 | |
| BIOWL7-15 | 2026-09-04 00:56:21 | 51.05010 | 8.53956 | 116° | 110km/h | 13875m | -5.3m/s | -65.4°C | 12.2% | 153.8hPa | 2.5V | 00:00:00 | 00:00:00 | 00:00:00 | |
| DB0NH | 2026-09-04 00:56:20 | 51.05034 | 8.53875 | 116° | 111km/h | 13887m | -4.8m/s | -65.2°C | 18.4% | 153.4hPa | 2.5V | 08:06:00 | 02:38:26 | 00:00:00 | |
| DJTTGO | 2026-09-04 00:56:19 | 51.05046 | 8.53833 | 116° | 117km/h | 13892m | -5.1m/s | -65.0°C | 11.5% | 153.3hPa | 2.5V | 00:00:00 | 00:00:00 | 00:00:00 | |
| DL1XH-15 | 2026-09-04 00:56:18 | 51.05138 | 8.53579 | 126° | 122km/h | 13924m | -4.9m/s | -64.9°C | 16.7% | 152.6hPa | 2.5V | 08:07:04 | 02:38:19 | 00:00:00 | |
| HSKMA3-T | 2026-09-04 00:56:17 | 51.05073 | 8.53747 | 118° | 122km/h | 13903m | -4.7m/s | -64.9°C | 13.8% | 153.1hPa | 2.6V | 08:07:17 | 02:38:23 | 00:00:00 | |
| BIOWL1-15 | 2026-09-04 00:56:16 | 51.05157 | 8.53540 | 129° | 120km/h | 13930m | -5.3m/s | -64.9°C | 12.7% | 152.5hPa | 2.5V | 08:07:17 | 02:38:18 | 00:00:00 | |
| DM0DOS-11 | 2026-09-04 00:56:15 | 51.05120 | 8.53620 | 124° | 126km/h | 13919m | -5m/s | -64.9°C | 16.9% | 152.7hPa | 2.5V | 08:07:03 | 02:38:20 | 00:00:00 | |
| DD8BA-10 | 2026-09-04 00:56:13 | 51.05138 | 8.53579 | 127° | 104km/h | 13924m | -4.9m/s | -64.8°C | 16.7% | 152.5hPa | 2.5V | 00:00:00 | 00:00:00 | 00:00:00 | |
| DL1NUX | 2026-09-04 00:56:12 | 51.05212 | 8.53437 | 129° | 102km/h | 13946m | -5.2m/s | -64.7°C | 16% | 152hPa | 2.5V | 08:07:08 | 02:38:15 | 00:00:00 | |
| DL1XH-west | 2026-09-04 00:56:11 | 51.05176 | 8.53504 | 130° | 115km/h | 13935m | -5.5m/s | -64.9°C | 12.3% | 152.3hPa | 2.6V | 08:07:17 | 02:38:17 | 00:00:00 | |
| DO1YAY-16 | 2026-09-04 00:56:11 | 51.05194 | 8.53470 | 130° | 110km/h | 13941m | -5.4m/s | -64.8°C | 10.1% | 152.2hPa | 2.5V | 00:00:00 | 00:00:00 | 00:00:00 | |
| NBG1-10 | 2026-09-04 00:56:10 | 51.05194 | 8.53470 | 131° | 104km/h | 13941m | -5.4m/s | -64.8°C | 16.3% | 152.2hPa | 2.5V | 00:00:00 | 02:38:16 | 00:00:00 | |
| DL1ZP-14 | 2026-09-04 00:56:09 | 51.05228 | 8.53405 | 127° | 99km/h | 13952m | -5.1m/s | -64.7°C | 9.7% | 151.9hPa | 2.5V | 00:00:00 | 00:00:00 | 00:00:00 | |
| DL1XH-15 | 2026-09-04 00:56:08 | 51.05289 | 8.53245 | 114° | 95km/h | 13977m | -4.6m/s | -63.9°C | 13.9% | 151.2hPa | 2.5V | 08:07:14 | 02:38:09 | 00:00:00 | |
| HSKMA3-T | 2026-09-04 00:56:06 | 51.05256 | 8.53343 | 123° | 91km/h | 13962m | -4.6m/s | -64.7°C | 11.3% | 151.7hPa | 2.6V | 08:07:17 | 02:38:12 | 00:00:00 | |
| DM0DOS-11 | 2026-09-04 00:56:05 | 51.05279 | 8.53279 | 116° | 91km/h | 13971m | -4.8m/s | -64.4°C | 14.9% | 151.4hPa | 2.5V | 08:07:13 | 02:38:10 | 00:00:00 | |
| DL8DAS-14 | 2026-09-04 00:56:04 | 51.05289 | 8.53245 | 114° | 95km/h | 13977m | -4.6m/s | -63.9°C | 8.4% | 151.2hPa | 2.6V | 00:00:00 | 00:00:00 | 00:00:00 | |
| HTAHTA | 2026-09-04 00:56:03 | 51.05307 | 8.53175 | 110° | 99km/h | 13987m | -5.8m/s | 0°C | -1.0% | 151.0hPa | 2.6V | 00:00:00 | 00:00:00 | 00:00:00 | |
| DL1NUX | 2026-09-04 00:56:02 | 51.05325 | 8.53099 | 109° | 102km/h | 13999m | -5.4m/s | -63.4°C | 12.5% | 150.7hPa | 2.6V | 08:07:18 | 02:38:05 | 00:00:00 | |
| AA1-15 | 2026-09-04 00:56:01 | 51.05307 | 8.53175 | 110° | 99km/h | 13987m | -5.8m/s | -63.6°C | 9.9% | 151hPa | 2.5V | 08:07:17 | 02:38:07 | 00:00:00 | |
| DL1XH-west | 2026-09-04 00:56:00 | 51.05316 | 8.53137 | 111° | 100km/h | 13993m | -6m/s | -63.5°C | 9.8% | 150.8hPa | 2.6V | 08:07:17 | 02:38:06 | 00:00:00 | |
| HSKMA3-T | 2026-09-04 00:55:56 | 51.05352 | 8.52974 | 110° | 115km/h | 14017m | -5.6m/s | -63.4°C | 9.2% | 150.3hPa | 2.5V | 08:08:08 | 02:38:02 | 00:00:00 | |
| DD1CC8 | 2026-09-04 00:55:55 | 51.05363 | 8.52929 | 111° | 120km/h | 14022m | -5.4m/s | -63.4°C | 7.1% | 150.1hPa | 2.6V | 00:00:00 | 00:00:00 | 00:00:00 | |
| DO3MHA-11 | 2026-09-04 00:55:54 | 51.05375 | 8.52884 | 115° | 113km/h | 14028m | -5.6m/s | -63.3°C | 12.1% | 150.0hPa | 2.6V | 08:07:00 | 02:38:00 | 00:00:00 | |
| DD8BA-10 | 2026-09-04 00:55:53 | 51.05388 | 8.52840 | 117° | 104km/h | 14034m | -5.1m/s | -63.2°C | 12.1% | 149.8hPa | 2.5V | 00:00:00 | 00:00:00 | 00:00:00 | |
| DL1NUX | 2026-09-04 00:55:52 | 51.05451 | 8.52682 | 125° | 106km/h | 14054m | -4.8m/s | -63.1°C | 11.9% | 149.4hPa | 2.5V | 08:07:28 | 02:37:55 | 00:00:00 | |
| DL1XH-west | 2026-09-04 00:55:50 | 51.05435 | 8.52718 | 125° | 113km/h | 14049m | -4.9m/s | -63.2°C | 8.6% | 149.5hPa | 2.5V | 08:08:08 | 02:37:56 | 00:00:00 | |
| HSKMA3-T | 2026-09-04 00:55:46 | 51.05493 | 8.52584 | 122° | 91km/h | 14070m | -4.5m/s | -62.9°C | 8.2% | 149hPa | 2.5V | 08:08:08 | 02:37:52 | 00:00:00 | |
| BIOWL1-15 | 2026-09-04 00:55:45 | 51.05531 | 8.52453 | 108° | 99km/h | 14090m | -5.1m/s | -63°C | 7.8% | 148.5hPa | 2.6V | 08:08:08 | 02:37:48 | 00:00:00 | |
| BIOWL9-15 | 2026-09-04 00:55:45 | 51.05515 | 8.52522 | 114° | 88km/h | 14079m | -5.3m/s | -63.0°C | 6.5% | 148.7hPa | 2.6V | 00:00:00 | 00:00:00 | 00:00:00 | |
| DJ2DS-15 | 2026-09-04 00:55:44 | 51.05514 | 8.52522 | 115° | 113km/h | 14079m | -5.3m/s | -62.9°C | 11.4% | 0hPa | 2.6V | 00:00:00 | 02:37:50 | 00:00:00 | |
| DD8BA-10 | 2026-09-04 00:55:43 | 51.05523 | 8.52489 | 111° | 108km/h | 14085m | -5.2m/s | -63.0°C | 11.3% | 148.6hPa | 2.6V | 00:00:00 | 00:00:00 | 00:00:00 | |
| DL1NUX | 2026-09-04 00:55:42 | 51.05552 | 8.52336 | 105° | 106km/h | 14107m | -5.7m/s | -63°C | 11% | 148.1hPa | 2.5V | 08:07:38 | 02:37:45 | 00:00:00 | |
| AA1-15 | 2026-09-04 00:55:40 | 51.05545 | 8.52377 | 104° | 106km/h | 14101m | -5.5m/s | -63°C | 7.6% | 148.2hPa | 2.5V | 08:10:41 | 02:37:46 | 00:00:00 | |
| DL1XH-west | 2026-09-04 00:55:39 | 51.05552 | 8.52336 | 105° | 106km/h | 14107m | -5.7m/s | -63°C | 7.5% | 148.1hPa | 2.5V | 08:08:08 | 02:37:45 | 00:00:00 | |
| HSKMA3-T | 2026-09-04 00:55:35 | 51.05581 | 8.52159 | 107° | 122km/h | 14129m | -5.3m/s | -62.8°C | 7.2% | 147.5hPa | 2.5V | 08:08:08 | 02:37:41 | 00:00:00 | |
| BIOWL1-15 | 2026-09-04 00:55:33 | 51.05601 | 8.52064 | 111° | 124km/h | 14141m | -5.5m/s | -62.5°C | 6.9% | 147.2hPa | 2.5V | 08:08:08 | 02:37:39 | 00:00:00 | |
| DL1XH-15 | 2026-09-04 00:55:33 | 51.05640 | 8.51925 | 116° | 128km/h | 14158m | -5.2m/s | -62.2°C | 9.7% | 146.8hPa | 2.6V | 08:07:47 | 02:37:36 | 00:00:00 | |
| AA1-15 | 2026-09-04 00:55:29 | 51.05655 | 8.51881 | 120° | 124km/h | 14163m | -5.7m/s | -62.2°C | 6.4% | 146.7hPa | 2.5V | 08:10:41 | 02:37:35 | 00:00:00 | |
| DL1XH-west | 2026-09-04 00:55:28 | 51.05703 | 8.51757 | 124° | 115km/h | 14182m | -5.9m/s | -62.2°C | 6.1% | 146.3hPa | 2.6V | 08:08:08 | 02:37:32 | 00:00:00 | |
| DM0DOS-11 | 2026-09-04 00:55:26 | 51.05733 | 8.51685 | 123° | 102km/h | 14193m | -5.2m/s | -62.2°C | 9.3% | 146.1hPa | 2.5V | 08:07:53 | 02:37:30 | 00:00:00 | |
| HSKMA3-T | 2026-09-04 00:55:25 | 51.05719 | 8.51720 | 125° | 110km/h | 14188m | -5.5m/s | -62.2°C | 6.1% | 146.2hPa | 2.6V | 08:08:08 | 02:37:31 | 00:00:00 | |
| DJ2DS-15 | 2026-09-04 00:55:24 | 51.05734 | 8.51685 | 124° | 108km/h | 14193m | -5.1m/s | -62.2°C | 9.3% | 146.0hPa | 2.5V | 08:07:00 | 02:37:30 | 00:00:00 | |
| DL1XH-15 | 2026-09-04 00:55:23 | 51.05782 | 8.51551 | 113° | 95km/h | 14215m | -5.4m/s | -62.2°C | 9.3% | 145.5hPa | 2.6V | 08:07:57 | 02:37:26 | 00:00:00 | |
| BIOWL1-15 | 2026-09-04 00:55:22 | 51.05791 | 8.51515 | 112° | 99km/h | 14220m | -5.4m/s | -62.2°C | 5.7% | 145.4hPa | 2.6V | 08:08:08 | 02:37:25 | 00:00:00 | |
| DL1NUX | 2026-09-04 00:55:22 | 51.05791 | 8.51515 | 111° | 99km/h | 14220m | -5.4m/s | -62.2°C | 9.3% | 145.4hPa | 2.6V | 08:07:58 | 02:37:25 | 00:00:00 | |
| DL1XH-west | 2026-09-04 00:55:17 | 51.05810 | 8.51436 | 110° | 113km/h | 14231m | -4.9m/s | -62.2°C | 5.7% | 145.2hPa | 2.5V | 08:08:08 | 02:37:23 | 00:00:00 | |
| DJTTGO | 2026-09-04 00:55:16 | 51.05810 | 8.51436 | 111° | 113km/h | 14232m | -4.9m/s | -62.2°C | 4.8% | 145.2hPa | 2.6V | 08:08:00 | 00:00:00 | 00:00:00 | |
| DM0DOS-11 | 2026-09-04 00:55:15 | 51.05846 | 8.51302 | 116° | 122km/h | 14247m | -5.6m/s | -62.1°C | 9.1% | 144.8hPa | 2.6V | 08:08:03 | 02:37:20 | 00:00:00 | |
| HSKMA3-T | 2026-09-04 00:55:14 | 51.05846 | 8.51302 | 116° | 122km/h | 14247m | -5.6m/s | -62.1°C | 5.4% | 144.8hPa | 2.6V | 08:08:08 | 02:37:20 | 00:00:00 | |
| BIOWL9-15 | 2026-09-04 00:55:14 | 51.05860 | 8.51259 | 118° | 120km/h | 14252m | -5.5m/s | -62.1°C | 4.6% | 144.7hPa | 2.5V | 00:00:00 | 00:00:00 | 00:00:00 | |
| DL1XH-15 | 2026-09-04 00:55:13 | 51.05909 | 8.51136 | 124° | 117km/h | 14269m | -5.2m/s | -62.1°C | 9% | 144.2hPa | 2.5V | 08:08:07 | 02:37:16 | 00:00:00 | |
| DD8BA-10 | 2026-09-04 00:55:13 | 51.05860 | 8.51258 | 119° | 110km/h | 14252m | -5.5m/s | -62.1°C | 9.1% | 144.6hPa | 2.6V | 08:08:00 | 00:00:00 | 00:00:00 | |
| DL1NUX | 2026-09-04 00:55:12 | 51.05925 | 8.51098 | 124° | 110km/h | 14273m | -5.5m/s | -62.1°C | 9% | 144.2hPa | 2.6V | 08:08:08 | 02:37:15 | 00:00:00 | |
| BIOWL1-15 | 2026-09-04 00:55:08 | 51.05974 | 8.50996 | 129° | 102km/h | 14290m | -5.4m/s | -62.2°C | 5% | 143.8hPa | 2.5V | 08:08:59 | 02:37:12 | 00:00:00 | |
| DL1XH1-15 | 2026-09-04 00:55:07 | 51.06005 | 8.50933 | 128° | 97km/h | 14302m | -5.5m/s | -62°C | 8.7% | 143.5hPa | 2.5V | 08:08:13 | 02:37:10 | 00:00:00 | |
| DL1XH-west | 2026-09-04 00:55:07 | 51.05957 | 8.51028 | 128° | 106km/h | 14284m | -5.4m/s | -62.2°C | 5.1% | 143.9hPa | 2.5V | 08:08:59 | 02:37:13 | 00:00:00 | |
| HSKMA3-T | 2026-09-04 00:55:03 | 51.06021 | 8.50903 | 129° | 97km/h | 14308m | -5.4m/s | -61.8°C | 4.8% | 143.4hPa | 2.6V | 08:08:59 | 02:37:09 | 00:00:00 | |
| DL1XH-15 | 2026-09-04 00:55:03 | 51.06067 | 8.50815 | 129° | 89km/h | 14326m | -5.5m/s | -61.4°C | 8.1% | 142.9hPa | 2.5V | 08:08:17 | 02:37:06 | 00:00:00 | |
| DL1XH-west | 2026-09-04 00:54:57 | 51.06105 | 8.50733 | 121° | 78km/h | 14342m | -5.1m/s | -61.4°C | 4.6% | 142.6hPa | 2.6V | 08:08:59 | 02:37:03 | 00:00:00 | |
| DM0DOS-11 | 2026-09-04 00:54:56 | 51.06130 | 8.50643 | 109° | 86km/h | 14358m | -5.1m/s | -61.3°C | 8.1% | 142.2hPa | 2.5V | 08:08:23 | 02:37:00 | 00:00:00 | |
| BUE01 | 2026-09-04 00:54:55 | 51.06123 | 8.50675 | 112° | 82km/h | 14353m | -5.1m/s | -61.3°C | 3.9% | 142.3hPa | 2.5V | 00:00:00 | 00:00:00 | 00:00:00 | |
| DL3AQ-11 | 2026-09-04 00:54:54 | 51.06137 | 8.50610 | 107° | 88km/h | 14364m | -5.3m/s | -61.2°C | 3.9% | 142.1hPa | 2.5V | 00:00:00 | 00:00:00 | 00:00:00 | |
| DL1XH-15 | 2026-09-04 00:54:53 | 51.06158 | 8.50501 | 108° | 99km/h | 14381m | -5.9m/s | -61.1°C | 7.8% | 141.7hPa | 2.5V | 08:08:27 | 02:36:56 | 00:00:00 | |
| HSKMA3-T | 2026-09-04 00:54:53 | 51.06137 | 8.50610 | 108° | 89km/h | 14364m | -5.3m/s | -61.2°C | 4.4% | 142.1hPa | 2.5V | 08:08:59 | 02:36:59 | 00:00:00 | |
| DL1XH-west | 2026-09-04 00:54:47 | 51.06186 | 8.50383 | 114° | 110km/h | 14400m | -5.6m/s | -61°C | 4.2% | 141.2hPa | 2.5V | 08:08:59 | 02:36:53 | 00:00:00 | |
| DF7PN | 2026-09-04 00:54:47 | 51.06198 | 8.50342 | 117° | 111km/h | 14406m | -5.4m/s | -61.0°C | 3.7% | 141.1hPa | 2.5V | 00:00:00 | 00:00:00 | 00:00:00 | |
| BIOWL1-15 | 2026-09-04 00:54:46 | 51.06227 | 8.50263 | 122° | 113km/h | 14417m | -5.8m/s | -60.9°C | 4.2% | 140.9hPa | 2.5V | 08:08:59 | 02:36:50 | 00:00:00 | |
| DM0DOS-11 | 2026-09-04 00:54:44 | 51.06227 | 8.50263 | 121° | 113km/h | 14417m | -5.8m/s | -60.9°C | 7.7% | 140.9hPa | 2.5V | 08:08:33 | 02:36:50 | 00:00:00 | |
| HSKMA3-T | 2026-09-04 00:54:42 | 51.06259 | 8.50192 | 127° | 106km/h | 14428m | -5.5m/s | -60.9°C | 4.1% | 140.6hPa | 2.5V | 08:08:59 | 02:36:48 | 00:00:00 | |
| DF8AY | 2026-09-04 00:54:40 | 51.06289 | 8.50131 | 128° | 91km/h | 14440m | -5.8m/s | -60.9°C | 4.2% | 140.3hPa | 2.6V | 08:08:59 | 02:36:46 | 00:00:00 | |
| DO1YAY-16 | 2026-09-04 00:54:38 | 51.06323 | 8.50049 | 116° | 78km/h | 14456m | -5.2m/s | -60.8°C | 3.6% | 140.0hPa | 2.6V | 00:00:00 | 00:00:00 | 00:00:00 | |
| DL1XH1-15 | 2026-09-04 00:54:37 | 51.06342 | 8.49958 | 104° | 82km/h | 14473m | -6m/s | -60.7°C | 7.5% | 139.6hPa | 2.6V | 08:08:43 | 02:36:40 | 00:00:00 | |
| DL1XH-west | 2026-09-04 00:54:36 | 51.06331 | 8.50020 | 110° | 78km/h | 14461m | -5.1m/s | -60.7°C | 4% | 139.9hPa | 2.5V | 08:08:59 | 02:36:42 | 00:00:00 | |
| BIOWL1-15 | 2026-09-04 00:54:34 | 51.06342 | 8.49958 | 104° | 82km/h | 14473m | -6m/s | -60.7°C | 4% | 139.6hPa | 2.6V | 08:08:59 | 02:36:40 | 00:00:00 | |
| HSKMA3-T | 2026-09-04 00:54:31 | 51.06359 | 8.49851 | 104° | 102km/h | 14492m | -5.9m/s | -60.7°C | 4% | 139.2hPa | 2.5V | 08:08:59 | 02:36:37 | 00:00:00 | |
| BIOWL1-15 | 2026-09-04 00:54:26 | 51.06442 | 8.49574 | 127° | 104km/h | 14531m | -5.9m/s | -60.3°C | 3.7% | 138.3hPa | 2.6V | 08:08:59 | 02:36:30 | 00:00:00 | |
| DL1XH-west | 2026-09-04 00:54:25 | 51.06426 | 8.49609 | 124° | 106km/h | 14524m | -6.3m/s | -60.3°C | 3.7% | 138.5hPa | 2.5V | 08:08:59 | 02:36:31 | 00:00:00 | |
| AM1SDL-15 | 2026-09-04 00:54:25 | 51.06426 | 8.49608 | 125° | 88km/h | 14524m | -6.3m/s | -60.2°C | 7.2% | 138.4hPa | 2.5V | 00:00:00 | 02:36:31 | 00:00:00 | |
| DJ2DS-15 | 2026-09-04 00:54:24 | 51.06442 | 8.49574 | 127° | 91km/h | 14531m | -5.9m/s | -60.2°C | 7.2% | 138.2hPa | 2.6V | 00:00:00 | 02:36:30 | 00:00:00 | |
| DD8BA-10 | 2026-09-04 00:54:23 | 51.06457 | 8.49541 | 127° | 84km/h | 14537m | -5.8m/s | -60.2°C | 7.2% | 138.1hPa | 2.5V | 00:00:00 | 00:00:00 | 00:00:00 | |
| DL1NUX | 2026-09-04 00:54:22 | 51.06509 | 8.49428 | 121° | 77km/h | 14560m | -5.7m/s | -60.4°C | 7.2% | 137.7hPa | 2.5V | 08:08:58 | 02:36:25 | 00:00:00 | |
| HSKMA3-T | 2026-09-04 00:54:20 | 51.06498 | 8.49455 | 127° | 82km/h | 14554m | -5.9m/s | -60.4°C | 3.6% | 137.8hPa | 2.5V | 08:08:59 | 02:36:26 | 00:00:00 | |
| DL1XH-west | 2026-09-04 00:54:15 | 51.06542 | 8.49317 | 108° | 80km/h | 14583m | -5.3m/s | -60.6°C | 3.6% | 137.2hPa | 2.5V | 08:09:50 | 02:36:21 | 00:00:00 | |
| BIOWL1-15 | 2026-09-04 00:54:14 | 51.06547 | 8.49284 | 106° | 89km/h | 14589m | -5.4m/s | -60.6°C | 3.6% | 137hPa | 2.5V | 08:09:50 | 02:36:20 | 00:00:00 | |
| DL3AQ-11 | 2026-09-04 00:54:14 | 51.06554 | 8.49249 | 106° | 93km/h | 14594m | -5.7m/s | -60.5°C | 3.3% | 136.9hPa | 2.6V | 00:00:00 | 00:00:00 | 00:00:00 | |
| DD8BA-10 | 2026-09-04 00:54:13 | 51.06554 | 8.49249 | 107° | 99km/h | 14594m | -5.7m/s | -60.5°C | 7.3% | 136.8hPa | 2.6V | 00:00:00 | 00:00:00 | 00:00:00 | |
| DL1XH-15 | 2026-09-04 00:54:12 | 51.06577 | 8.49133 | 110° | 106km/h | 14612m | -5.9m/s | -60.4°C | 7.3% | 136.5hPa | 2.5V | 08:09:07 | 02:36:16 | 00:00:00 | |
| HSKMA3-T | 2026-09-04 00:54:09 | 51.06587 | 8.49094 | 114° | 108km/h | 14619m | -5.6m/s | -60.4°C | 3.5% | 136.4hPa | 2.5V | 08:09:50 | 02:36:15 | 00:00:00 | |
| DL8OAI-8 | 2026-09-04 00:54:08 | 51.06587 | 8.49094 | 115° | 108km/h | 14619m | -5.6m/s | -60.4°C | 3.4% | 136.4hPa | 2.5V | 00:00:00 | 00:00:00 | 00:00:00 | |
| DO3MHA-11 | 2026-09-04 00:54:07 | 51.06612 | 8.49019 | 122° | 89km/h | 14630m | -5.0m/s | -60.3°C | 7.3% | 136.1hPa | 2.5V | 00:00:00 | 02:36:13 | 00:00:00 | |
| DM0DOS-11 | 2026-09-04 00:54:06 | 51.06652 | 8.48928 | 126° | 84km/h | 14645m | -5.5m/s | -60.1°C | 7.1% | 135.8hPa | 2.5V | 08:09:13 | 02:36:10 | 00:00:00 | |
| DL1XH-west | 2026-09-04 00:54:05 | 51.06639 | 8.48956 | 127° | 88km/h | 14640m | -5m/s | -60.2°C | 3.3% | 135.9hPa | 2.5V | 08:09:50 | 02:36:11 | 00:00:00 | |
| DF8AY | 2026-09-04 00:54:03 | 51.06664 | 8.48902 | 125° | 80km/h | 14651m | -5.5m/s | -60°C | 3.2% | 135.6hPa | 2.5V | 08:11:32 | 02:36:09 | 00:00:00 | |
| DD8BA-10 | 2026-09-04 00:54:03 | 51.06664 | 8.48902 | 125° | 73km/h | 14651m | -5.5m/s | -60.0°C | 7.1% | 135.6hPa | 2.6V | 00:00:00 | 00:00:00 | 00:00:00 | |
| DL1XH-15 | 2026-09-04 00:54:02 | 51.06694 | 8.48828 | 117° | 68km/h | 14667m | -5.8m/s | -59.4°C | 6.7% | 135.3hPa | 2.6V | 08:09:17 | 02:36:06 | 00:00:00 | |
| DL1NUX | 2026-09-04 00:54:02 | 51.06701 | 8.48804 | 113° | 66km/h | 14673m | -6m/s | -59.3°C | 6.5% | 135.2hPa | 2.5V | 08:09:18 | 02:36:05 | 00:00:00 | |
| DL8DAS-14 | 2026-09-04 00:54:00 | 51.06701 | 8.48804 | 113° | 64km/h | 14673m | -6.0m/s | -59.3°C | 2.9% | 135.2hPa | 2.5V | 00:00:00 | 00:00:00 | 00:00:00 | |
| DL1XH1-15 | 2026-09-04 00:53:59 | 51.06722 | 8.48659 | 100° | 84km/h | 14702m | -5.8m/s | -59°C | 6.3% | 134.6hPa | 2.5V | 08:09:23 | 02:36:00 | 00:00:00 | |
| HSKMA3-T | 2026-09-04 00:53:59 | 51.06701 | 8.48804 | 113° | 66km/h | 14673m | -6m/s | -59.3°C | 2.9% | 135.2hPa | 2.5V | 08:09:50 | 02:36:05 | 00:00:00 | |
| DL1XH-west | 2026-09-04 00:53:54 | 51.06722 | 8.48659 | 100° | 84km/h | 14702m | -5.8m/s | -59°C | 2.7% | 134.6hPa | 2.5V | 08:09:50 | 02:36:00 | 00:00:00 | |
| BIOWL1-15 | 2026-09-04 00:53:52 | 51.06740 | 8.48510 | 105° | 104km/h | 14727m | -6.1m/s | -58.9°C | 2.5% | 134hPa | 2.6V | 08:09:50 | 02:35:56 | 00:00:00 | |
| DL1XH-15 | 2026-09-04 00:53:52 | 51.06740 | 8.48510 | 104° | 104km/h | 14727m | -6.1m/s | -58.9°C | 6% | 134hPa | 2.6V | 08:09:27 | 02:35:56 | 00:00:00 | |
| DL1NUX | 2026-09-04 00:53:52 | 51.06747 | 8.48470 | 105° | 106km/h | 14734m | -6.1m/s | -58.9°C | 5.9% | 133.9hPa | 2.6V | 08:09:28 | 02:35:55 | 00:00:00 | |
| DD1CC8 | 2026-09-04 00:53:51 | 51.06740 | 8.48510 | 104° | 102km/h | 14727m | -6.1m/s | -58.9°C | 2.5% | 134.0hPa | 2.6V | 00:00:00 | 00:00:00 | 00:00:00 | |
| DO9LL-15 | 2026-09-04 00:53:50 | 51.06740 | 8.48510 | 105° | 100km/h | 14727m | -6.1m/s | -58.8°C | 6.0% | 134.0hPa | 2.6V | 00:00:00 | 02:35:56 | 00:00:00 | |
| DL1XH1-15 | 2026-09-04 00:53:49 | 51.06799 | 8.48273 | 120° | 99km/h | 14765m | -5.8m/s | -58.9°C | 6.1% | 133.2hPa | 2.6V | 08:09:33 | 02:35:50 | 00:00:00 | |
| HSKMA3-T | 2026-09-04 00:53:48 | 51.06755 | 8.48429 | 108° | 108km/h | 14740m | -6.1m/s | -58.9°C | 2.4% | 133.7hPa | 2.5V | 08:09:50 | 02:35:54 | 00:00:00 | |
| DB0ND-19 | 2026-09-04 00:53:47 | 51.06786 | 8.48308 | 117° | 102km/h | 14760m | -5.9m/s | -58.9°C | 2.5% | 133.4hPa | 2.5V | 00:00:00 | 00:00:00 | 00:00:00 | |
| DL1XH-west | 2026-09-04 00:53:43 | 51.06822 | 8.48209 | 122° | 86km/h | 14777m | -5.5m/s | -58.8°C | 2.4% | 133hPa | 2.5V | 08:09:50 | 02:35:48 | 00:00:00 | |
| DL1XH-15 | 2026-09-04 00:53:43 | 51.06841 | 8.48154 | 112° | 75km/h | 14787m | -5.9m/s | -58.8°C | 6.1% | 132.8hPa | 2.5V | 08:09:37 | 02:35:46 | 00:00:00 | |
| DL1NUX | 2026-09-04 00:53:42 | 51.06847 | 8.48127 | 108° | 69km/h | 14793m | -5.7m/s | -58.8°C | 6.1% | 132.7hPa | 2.6V | 08:09:38 | 02:35:45 | 00:00:00 | |
| BIOWL1-15 | 2026-09-04 00:53:41 | 51.06841 | 8.48154 | 113° | 75km/h | 14787m | -5.9m/s | -58.8°C | 2.4% | 132.8hPa | 2.5V | 08:09:50 | 02:35:46 | 00:00:00 | |
| HSKMA3-T | 2026-09-04 00:53:38 | 51.06852 | 8.48098 | 104° | 77km/h | 14799m | -5.6m/s | -58.8°C | 2.4% | 132.5hPa | 2.6V | 08:09:50 | 02:35:44 | 00:00:00 | |
| DJ8HS-15 | 2026-09-04 00:53:38 | 51.06852 | 8.48098 | 104° | 97km/h | 14799m | -5.5m/s | -58.7°C | 6.1% | 132.5hPa | 2.6V | 00:00:00 | 02:35:44 | 00:00:00 | |
| GOEST3-10 | 2026-09-04 00:53:37 | 51.06855 | 8.48067 | 99° | 99km/h | 14804m | -5.5m/s | -58.7°C | 6.0% | 132.4hPa | 2.6V | 00:00:00 | 00:00:00 | 00:00:00 | |
| DM0DOS-11 | 2026-09-04 00:53:36 | 51.06863 | 8.47963 | 97° | 97km/h | 14821m | -5.7m/s | -58.8°C | 6% | 132hPa | 2.6V | 08:09:43 | 02:35:40 | 00:00:00 | |
| DL1XH-west | 2026-09-04 00:53:32 | 51.06871 | 8.47881 | 100° | 110km/h | 14833m | -5.6m/s | -58.8°C | 2.3% | 131.8hPa | 2.5V | 08:09:50 | 02:35:38 | 00:00:00 | |
| DL1XH-15 | 2026-09-04 00:53:32 | 51.06883 | 8.47791 | 105° | 119km/h | 14846m | -5.9m/s | -58.6°C | 5.8% | 131.5hPa | 2.5V | 08:09:47 | 02:35:36 | 00:00:00 | |
| DL1NUX | 2026-09-04 00:53:32 | 51.06892 | 8.47745 | 108° | 119km/h | 14852m | -5.9m/s | -58.6°C | 5.8% | 131.4hPa | 2.5V | 08:09:48 | 02:35:35 | 00:00:00 | |
| HSKMA3-T | 2026-09-04 00:53:27 | 51.06913 | 8.47658 | 114° | 113km/h | 14865m | -6.3m/s | -58.4°C | 2.1% | 131.2hPa | 2.6V | 08:09:50 | 02:35:33 | 00:00:00 | |
| DM0DOS-11 | 2026-09-04 00:53:26 | 51.06951 | 8.47544 | 120° | 99km/h | 14883m | -6m/s | -58.3°C | 5.7% | 130.7hPa | 2.5V | 08:09:53 | 02:35:30 | 00:00:00 | |
| DF8AY | 2026-09-04 00:53:23 | 51.06963 | 8.47512 | 119° | 93km/h | 14889m | -5.6m/s | -58.2°C | 2.1% | 130.6hPa | 2.6V | 08:11:32 | 02:35:29 | 00:00:00 | |
| DD8BA-10 | 2026-09-04 00:53:23 | 51.06963 | 8.47512 | 120° | 89km/h | 14889m | -5.6m/s | -58.2°C | 5.6% | 130.6hPa | 2.5V | 00:00:00 | 00:00:00 | 00:00:00 | |
| DL1XH-15 | 2026-09-04 00:53:22 | 51.06989 | 8.47423 | 109° | 77km/h | 14905m | -5.5m/s | -58.1°C | 5.5% | 130.3hPa | 2.5V | 08:09:57 | 02:35:26 | 00:00:00 | |
| DL1XH-west | 2026-09-04 00:53:22 | 51.06973 | 8.47481 | 116° | 84km/h | 14895m | -4.8m/s | -58.2°C | 2.1% | 130.6hPa | 2.6V | 08:10:41 | 02:35:28 | 00:00:00 | |
| DL1NUX | 2026-09-04 00:53:22 | 51.06994 | 8.47393 | 103° | 80km/h | 14911m | -6m/s | -58.1°C | 5.5% | 130.2hPa | 2.5V | 08:09:58 | 02:35:25 | 00:00:00 | |
| SO1NDE-10 | 2026-09-04 00:53:22 | 51.06973 | 8.47481 | 117° | 93km/h | 14895m | -4.7m/s | -58.1°C | 5.6% | 130.5hPa | 2.5V | 00:00:00 | 02:35:28 | 00:00:00 | |
| DL3AQ-11 | 2026-09-04 00:53:21 | 51.06988 | 8.47423 | 109° | 77km/h | 14906m | -5.6m/s | -58.1°C | 2.2% | 130.3hPa | 2.5V | 00:00:00 | 00:00:00 | 00:00:00 | |
| DD1CC8 | 2026-09-04 00:53:20 | 51.06994 | 8.47393 | 103° | 78km/h | 14911m | -6.0m/s | -58.1°C | 2.2% | 130.2hPa | 2.5V | 00:00:00 | 00:00:00 | 00:00:00 | |
| DL1XH1-15 | 2026-09-04 00:53:19 | 51.07010 | 8.47209 | 98° | 106km/h | 14943m | -6.1m/s | -58.3°C | 5.6% | 129.5hPa | 2.5V | 08:10:03 | 02:35:20 | 00:00:00 | |
| HSKMA3-T | 2026-09-04 00:53:17 | 51.07000 | 8.47325 | 97° | 91km/h | 14923m | -6.3m/s | -58.2°C | 2% | 129.9hPa | 2.6V | 08:10:41 | 02:35:23 | 00:00:00 | |
| BIOWL1-15 | 2026-09-04 00:53:15 | 51.07014 | 8.47166 | 100° | 108km/h | 14949m | -5.8m/s | -58.3°C | 2% | 129.4hPa | 2.5V | 08:10:41 | 02:35:19 | 00:00:00 | |
| DF7PN | 2026-09-04 00:53:15 | 51.07014 | 8.47166 | 100° | 108km/h | 14949m | -5.8m/s | -58.3°C | 2.2% | 129.4hPa | 2.5V | 00:00:00 | 00:00:00 | 00:00:00 | |
| DD8BA-10 | 2026-09-04 00:53:13 | 51.07014 | 8.47166 | 101° | 108km/h | 14949m | -5.7m/s | -58.3°C | 5.6% | 129.4hPa | 2.5V | 00:00:00 | 00:00:00 | 00:00:00 | |
| DL1XH-15 | 2026-09-04 00:53:12 | 51.07036 | 8.47032 | 109° | 115km/h | 14965m | -5.9m/s | -58.4°C | 5.7% | 129hPa | 2.5V | 08:10:07 | 02:35:16 | 00:00:00 | |
| DL1NUX | 2026-09-04 00:53:12 | 51.07047 | 8.46989 | 112° | 111km/h | 14971m | -6m/s | -58.4°C | 5.7% | 129hPa | 2.5V | 08:10:08 | 02:35:15 | 00:00:00 | |
| DL1XH-west | 2026-09-04 00:53:11 | 51.07027 | 8.47077 | 106° | 117km/h | 14959m | -5.4m/s | -58.4°C | 2.1% | 129.2hPa | 2.6V | 08:10:41 | 02:35:17 | 00:00:00 | |
| HSKMA3-T | 2026-09-04 00:53:06 | 51.07083 | 8.46874 | 119° | 102km/h | 14989m | -5.8m/s | -58.4°C | 2% | 128.6hPa | 2.6V | 08:10:41 | 02:35:12 | 00:00:00 | |
| BIOWL1-15 | 2026-09-04 00:53:03 | 51.07133 | 8.46744 | 123° | 84km/h | 15016m | -6.3m/s | -58.2°C | 1.9% | 128.1hPa | 2.5V | 08:10:41 | 02:35:08 | 00:00:00 | |
| DD8BA-10 | 2026-09-04 00:53:03 | 51.07121 | 8.46773 | 124° | 82km/h | 15010m | -5.9m/s | -58.2°C | 5.6% | 128.1hPa | 2.5V | 00:00:00 | 00:00:00 | 00:00:00 | |
| DL1NUX | 2026-09-04 00:53:02 | 51.07164 | 8.46663 | 116° | 71km/h | 15035m | -5.8m/s | -58.2°C | 5.6% | 127.7hPa | 2.5V | 08:10:18 | 02:35:05 | 00:00:00 | |
| DL1XH-west | 2026-09-04 00:53:01 | 51.07145 | 8.46716 | 123° | 84km/h | 15022m | -6.4m/s | -58.2°C | 1.9% | 127.9hPa | 2.6V | 08:10:41 | 02:35:07 | 00:00:00 | |
| HSKMA3-T | 2026-09-04 00:52:56 | 51.07181 | 8.46577 | 100° | 80km/h | 15051m | -5.5m/s | -58.3°C | 1.9% | 127.3hPa | 2.5V | 08:10:41 | 02:35:02 | 00:00:00 | |
| DF8AY | 2026-09-04 00:52:53 | 51.07252 | 8.46231 | 122° | 102km/h | 15105m | -5.7m/s | -58°C | 1.9% | 126.2hPa | 2.5V | 08:11:32 | 02:34:53 | 00:00:00 | |
| BIOWL1-15 | 2026-09-04 00:52:51 | 51.07226 | 8.46305 | 115° | 110km/h | 15093m | -5.9m/s | -58.1°C | 1.9% | 126.4hPa | 2.6V | 08:10:41 | 02:34:55 | 00:00:00 | |
| DL1XH-west | 2026-09-04 00:52:51 | 51.07206 | 8.46387 | 108° | 110km/h | 15082m | -6.1m/s | -58.1°C | 1.9% | 126.7hPa | 2.5V | 08:10:41 | 02:34:57 | 00:00:00 | |
| DO2JMG | 2026-09-04 00:52:46 | 51.07266 | 8.46198 | 125° | 95km/h | 15111m | -6m/s | 0°C | 0% | 0hPa | 2.5V | 18:12:15 | 02:34:52 | 00:00:00 | |
| AA1-15 | 2026-09-04 00:52:45 | 51.07280 | 8.46169 | 127° | 88km/h | 15117m | -6m/s | -57.8°C | 1.8% | 126hPa | 2.5V | 08:10:41 | 02:34:51 | 00:00:00 | |
| DL1XH-15 | 2026-09-04 00:52:44 | 51.07331 | 8.46046 | 114° | 62km/h | 15148m | -6.7m/s | -57.6°C | 5.4% | 125.3hPa | 2.5V | 08:10:37 | 02:34:46 | 00:00:00 | |
| DJ2DS-15 | 2026-09-04 00:52:44 | 51.07293 | 8.46142 | 127° | 84km/h | 15124m | -6.0m/s | -57.7°C | 5.5% | 125.8hPa | 2.6V | 00:00:00 | 02:34:50 | 00:00:00 | |
| DB0ND-19 | 2026-09-04 00:52:43 | 51.07304 | 8.46117 | 124° | 73km/h | 15129m | -5.9m/s | -57.7°C | 2.1% | 125.7hPa | 2.6V | 00:00:00 | 00:00:00 | 00:00:00 | |
| DL1NUX | 2026-09-04 00:52:42 | 51.07337 | 8.46022 | 108° | 66km/h | 15154m | -6.7m/s | -57.6°C | 5.4% | 125.2hPa | 2.6V | 08:10:38 | 02:34:45 | 00:00:00 | |
| BIOWL1-15 | 2026-09-04 00:52:40 | 51.07353 | 8.45909 | 99° | 84km/h | 15181m | -5.9m/s | -57.3°C | 1.8% | 124.7hPa | 2.5V | 08:11:32 | 02:34:41 | 00:00:00 | |
| DL1XH-west | 2026-09-04 00:52:40 | 51.07331 | 8.46046 | 115° | 62km/h | 15148m | -6.7m/s | -57.6°C | 1.8% | 125.3hPa | 2.5V | 08:10:41 | 02:34:46 | 00:00:00 | |
| DF8AY | 2026-09-04 00:52:39 | 51.07337 | 8.46022 | 108° | 66km/h | 15155m | -6.7m/s | -57.6°C | 1.8% | 125.2hPa | 2.6V | 08:11:32 | 02:34:45 | 00:00:00 | |
| HSKMA3-T | 2026-09-04 00:52:34 | 51.07357 | 8.45874 | 102° | 93km/h | 15187m | -5.8m/s | -57.3°C | 1.8% | 124.6hPa | 2.5V | 08:11:32 | 02:34:40 | 00:00:00 | |
| AA1-15 | 2026-09-04 00:52:33 | 51.07362 | 8.45837 | 105° | 100km/h | 15193m | -5.8m/s | -57.3°C | 1.7% | 124.5hPa | 2.6V | 08:11:32 | 02:34:39 | 00:00:00 | |
| DK9SH | 2026-09-04 00:52:33 | 51.07362 | 8.45837 | 106° | 100km/h | 15193m | -5.8m/s | -57.3°C | 2.1% | 124.5hPa | 2.5V | 08:11:00 | 00:00:00 | 00:00:00 | |
| DL1XH-15 | 2026-09-04 00:52:32 | 51.07392 | 8.45723 | 118° | 104km/h | 15211m | -5.5m/s | -57°C | 5.1% | 124.1hPa | 2.5V | 08:10:47 | 02:34:36 | 00:00:00 | |
| DL1NUX | 2026-09-04 00:52:32 | 51.07405 | 8.45688 | 122° | 99km/h | 15217m | -6m/s | -57°C | 5.1% | 124hPa | 2.5V | 08:10:48 | 02:34:35 | 00:00:00 | |
| DO2JMG | 2026-09-04 00:52:30 | 51.07392 | 8.45723 | 119° | 104km/h | 15211m | -5.5m/s | 0°C | 0% | 0hPa | 2.5V | 18:12:15 | 02:34:36 | 00:00:00 | |
| DL1XH-west | 2026-09-04 00:52:30 | 51.07405 | 8.45688 | 123° | 100km/h | 15217m | -6m/s | -57°C | 1.6% | 124hPa | 2.5V | 08:11:32 | 02:34:35 | 00:00:00 | |
| AA1-15 | 2026-09-04 00:52:23 | 51.07481 | 8.45524 | 123° | 66km/h | 15255m | -5.8m/s | -57°C | 1.6% | 123.2hPa | 2.5V | 08:11:32 | 02:34:29 | 00:00:00 | |
| DF8AY | 2026-09-04 00:52:23 | 51.07495 | 8.45481 | 113° | 58km/h | 15267m | -6.4m/s | -57°C | 1.6% | 123hPa | 2.6V | 08:11:32 | 02:34:27 | 00:00:00 | |
| DL1XH-15 | 2026-09-04 00:52:22 | 51.07500 | 8.45458 | 105° | 62km/h | 15273m | -6.6m/s | -57°C | 5.2% | 122.8hPa | 2.5V | 08:10:57 | 02:34:26 | 00:00:00 | |
| DL1NUX | 2026-09-04 00:52:22 | 51.07504 | 8.45433 | 101° | 68km/h | 15279m | -6.3m/s | -56.9°C | 5.1% | 122.7hPa | 2.5V | 08:10:58 | 02:34:25 | 00:00:00 | |
| DL1XH-west | 2026-09-04 00:52:19 | 51.07503 | 8.45433 | 101° | 68km/h | 15279m | -6.3m/s | -56.9°C | 1.6% | 122.7hPa | 2.5V | 08:11:32 | 02:34:25 | 00:00:00 | |
| DB0NH | 2026-09-04 00:52:19 | 51.07503 | 8.45432 | 102° | 80km/h | 15279m | -6.2m/s | -56.9°C | 5.1% | 122.7hPa | 2.5V | 00:00:00 | 02:34:25 | 00:00:00 | |
| DD1CC8 | 2026-09-04 00:52:18 | 51.07510 | 8.45376 | 101° | 75km/h | 15291m | -6.5m/s | -56.8°C | 1.9% | 122.5hPa | 2.5V | 00:00:00 | 00:00:00 | 00:00:00 | |
| DL1XH1-15 | 2026-09-04 00:52:16 | 51.07523 | 8.45274 | 104° | 95km/h | 15311m | -6.6m/s | -56.9°C | 5% | 122.1hPa | 2.5V | 08:11:03 | 02:34:20 | 00:00:00 | |
| HSKMA3-T | 2026-09-04 00:52:13 | 51.07530 | 8.45237 | 107° | 97km/h | 15318m | -6.8m/s | -56.9°C | 1.6% | 122hPa | 2.5V | 08:11:32 | 02:34:19 | 00:00:00 | |
| DL1XH-15 | 2026-09-04 00:52:13 | 51.07558 | 8.45125 | 117° | 99km/h | 15337m | -6.1m/s | -56.9°C | 5% | 121.6hPa | 2.6V | 08:11:07 | 02:34:16 | 00:00:00 | |
| DF8AY | 2026-09-04 00:52:13 | 51.07538 | 8.45199 | 109° | 100km/h | 15325m | -6.4m/s | -56.9°C | 1.5% | 121.8hPa | 2.5V | 08:11:32 | 02:34:18 | 00:00:00 | |
| DL1NUX | 2026-09-04 00:52:12 | 51.07570 | 8.45091 | 121° | 95km/h | 15344m | -6.6m/s | -57°C | 5.1% | 121.5hPa | 2.5V | 08:11:08 | 02:34:15 | 00:00:00 | |
| BIOWL1-15 | 2026-09-04 00:52:09 | 51.07570 | 8.45091 | 121° | 95km/h | 15344m | -6.6m/s | -57°C | 1.6% | 121.5hPa | 2.5V | 08:11:32 | 02:34:15 | 00:00:00 | |
| DL1XH-west | 2026-09-04 00:52:09 | 51.07583 | 8.45059 | 124° | 95km/h | 15350m | -6.2m/s | -57°C | 1.5% | 121.3hPa | 2.5V | 08:11:32 | 02:34:14 | 00:00:00 | |
| BIOWL9-15 | 2026-09-04 00:52:08 | 51.07597 | 8.45030 | 129° | 86km/h | 15356m | -5.8m/s | -57.0°C | 1.9% | 121.2hPa | 2.5V | 00:00:00 | 00:00:00 | 00:00:00 | |
| DM0DOS-11 | 2026-09-04 00:52:06 | 51.07635 | 8.44958 | 131° | 71km/h | 15374m | -6.4m/s | -57°C | 5% | 120.8hPa | 2.5V | 08:11:13 | 02:34:10 | 00:00:00 | |
| AA1-15 | 2026-09-04 00:52:02 | 51.07656 | 8.44918 | 125° | 62km/h | 15386m | -6.6m/s | -57.1°C | 1.5% | 120.6hPa | 2.5V | 08:11:32 | 02:34:08 | 00:00:00 | |
| DL1NUX | 2026-09-04 00:52:02 | 51.07677 | 8.44858 | 108° | 57km/h | 15405m | -6.5m/s | -57.2°C | 5% | 120.2hPa | 2.6V | 08:11:18 | 02:34:05 | 00:00:00 | |
| DF8AY | 2026-09-04 00:52:01 | 51.07665 | 8.44898 | 123° | 58km/h | 15393m | -6.6m/s | -57.1°C | 1.5% | 120.5hPa | 2.5V | 08:11:32 | 02:34:07 | 00:00:00 | |
| DL3AQ-11 | 2026-09-04 00:52:01 | 51.07672 | 8.44878 | 117° | 53km/h | 15399m | -6.5m/s | -57.1°C | 1.9% | 120.4hPa | 2.6V | 00:00:00 | 00:00:00 | 00:00:00 | |
| DL1ZP-14 | 2026-09-04 00:52:00 | 51.07672 | 8.44878 | 117° | 53km/h | 15399m | -6.5m/s | -57.1°C | 1.9% | 120.4hPa | 2.6V | 00:00:00 | 00:00:00 | 00:00:00 | |
| DM0DOS-11 | 2026-09-04 00:51:59 | 51.07696 | 8.44720 | 102° | 86km/h | 15437m | -6.4m/s | -57.2°C | 5% | 119.5hPa | 2.6V | 08:11:23 | 02:34:00 | 00:00:00 | |
| DL1XH-west | 2026-09-04 00:51:58 | 51.07681 | 8.44835 | 104° | 62km/h | 15412m | -6.3m/s | -57.2°C | 1.4% | 120.1hPa | 2.5V | 08:11:32 | 02:34:04 | 00:00:00 | |
| DL8DAS-14 | 2026-09-04 00:51:55 | 51.07692 | 8.44752 | 100° | 77km/h | 15431m | -6.3m/s | -57.3°C | 1.8% | 119.7hPa | 2.5V | 00:00:00 | 00:00:00 | 00:00:00 | |
| DD8BA-10 | 2026-09-04 00:51:53 | 51.07701 | 8.44686 | 105° | 84km/h | 15444m | -6.4m/s | -57.2°C | 5.0% | 119.5hPa | 2.5V | 00:00:00 | 00:00:00 | 00:00:00 | |
| DL1XH-15 | 2026-09-04 00:51:52 | 51.07727 | 8.44580 | 116° | 95km/h | 15462m | -6.2m/s | -57.3°C | 5% | 119.2hPa | 2.5V | 08:11:27 | 02:33:56 | 00:00:00 | |
| AA1-15 | 2026-09-04 00:51:52 | 51.07708 | 8.44650 | 109° | 95km/h | 15450m | -5.7m/s | -57.3°C | 1.4% | 119.4hPa | 2.5V | 08:11:32 | 02:33:58 | 00:00:00 | |
| DL1XH-west | 2026-09-04 00:51:47 | 51.07762 | 8.44489 | 124° | 84km/h | 15480m | -6.4m/s | -57.4°C | 1.5% | 118.8hPa | 2.5V | 08:11:32 | 02:33:53 | 00:00:00 | |
| BIOWL1-15 | 2026-09-04 00:51:47 | 51.07784 | 8.44437 | 122° | 71km/h | 15493m | -6m/s | -57.5°C | 1.6% | 118.5hPa | 2.5V | 08:11:32 | 02:33:51 | 00:00:00 | |
| DD1CC8 | 2026-09-04 00:51:47 | 51.07774 | 8.44462 | 124° | 77km/h | 15487m | -6.5m/s | -57.5°C | 1.9% | 118.7hPa | 2.6V | 00:00:00 | 00:00:00 | 00:00:00 | |
| DM0DOS-11 | 2026-09-04 00:51:46 | 51.07793 | 8.44412 | 118° | 69km/h | 15498m | -5.8m/s | -57.6°C | 5.3% | 118.4hPa | 2.6V | 08:11:33 | 02:33:50 | 00:00:00 | |
| DL3OBA | 2026-09-04 00:51:45 | 51.07784 | 8.44437 | 123° | 71km/h | 15493m | -6.0m/s | -57.5°C | 1.9% | 118.6hPa | 2.5V | 08:11:00 | 00:00:00 | 00:00:00 | |
| DJ2DS-15 | 2026-09-04 00:51:44 | 51.07793 | 8.44412 | 119° | 69km/h | 15499m | -5.8m/s | -57.5°C | 5.3% | 118.4hPa | 2.5V | 00:00:00 | 02:33:50 | 00:00:00 | |
| DO3DL | 2026-09-04 00:51:43 | 51.07793 | 8.44412 | 120° | 69km/h | 15499m | -5.8m/s | -57.6°C | 2.0% | 118.4hPa | 2.5V | 08:12:00 | 00:00:00 | 00:00:00 | |
| DL1NUX | 2026-09-04 00:51:42 | 51.07827 | 8.44284 | 112° | 73km/h | 15532m | -7.4m/s | -57.7°C | 5.5% | 117.8hPa | 2.5V | 08:11:38 | 02:33:45 | 00:00:00 | |
| AA1-15 | 2026-09-04 00:51:42 | 51.07808 | 8.44363 | 112° | 68km/h | 15511m | -6.5m/s | -57.6°C | 1.6% | 118.2hPa | 2.5V | 08:12:23 | 02:33:48 | 00:00:00 | |
| DF8AY | 2026-09-04 00:51:39 | 51.07863 | 8.44146 | 112° | 71km/h | 15570m | -8m/s | -57.3°C | 1.6% | 117.2hPa | 2.5V | 08:12:23 | 02:33:40 | 00:00:00 | |
| DL1XH-west | 2026-09-04 00:51:36 | 51.07849 | 8.44201 | 112° | 75km/h | 15554m | -7.7m/s | -57.4°C | 1.6% | 117.5hPa | 2.5V | 08:12:23 | 02:33:42 | 00:00:00 | |
| DL4BBY-15 | 2026-09-04 00:51:36 | 51.07849 | 8.44201 | 113° | 69km/h | 15554m | -7.7m/s | -57.1°C | 0% | 0hPa | 2.6V | 00:00:00 | 00:00:00 | 00:00:00 | |
| DJTTGO | 2026-09-04 00:51:35 | 51.07849 | 8.44201 | 113° | 75km/h | 15554m | -7.7m/s | -57.4°C | 2.0% | 117.5hPa | 2.6V | 00:00:00 | 00:00:00 | 00:00:00 | |
| DL3AQ-11 | 2026-09-04 00:51:34 | 51.07870 | 8.44119 | 110° | 71km/h | 15578m | -8.0m/s | -57.3°C | 1.9% | 117.0hPa | 2.6V | 00:00:00 | 00:00:00 | 00:00:00 | |
| DO9LL-15 | 2026-09-04 00:51:33 | 51.07869 | 8.44119 | 111° | 69km/h | 15578m | -8.0m/s | -57.2°C | 5.2% | 117.0hPa | 2.6V | 00:00:00 | 02:33:39 | 00:00:00 | |
| DL1XH-15 | 2026-09-04 00:51:32 | 51.07888 | 8.44041 | 110° | 68km/h | 15603m | -8.4m/s | -57°C | 5.1% | 116.6hPa | 2.5V | 08:11:47 | 02:33:36 | 00:00:00 | |
| AA1-15 | 2026-09-04 00:51:32 | 51.07888 | 8.44041 | 110° | 68km/h | 15603m | -8.4m/s | -57°C | 1.4% | 116.6hPa | 2.5V | 08:12:23 | 02:33:36 | 00:00:00 | |
| HSKMA3-T | 2026-09-04 00:51:31 | 51.07882 | 8.44067 | 109° | 69km/h | 15594m | -8.4m/s | -57.1°C | 1.5% | 116.7hPa | 2.5V | 08:12:23 | 02:33:37 | 00:00:00 | |
| DO3DL | 2026-09-04 00:51:30 | 51.07888 | 8.44041 | 111° | 68km/h | 15603m | -8.4m/s | -57.0°C | 1.8% | 116.6hPa | 2.5V | 08:12:00 | 00:00:00 | 00:00:00 | |
| DL1XH1-15 | 2026-09-04 00:51:29 | 51.07919 | 8.43889 | 107° | 66km/h | 15653m | -8.2m/s | -57°C | 5.1% | 115.7hPa | 2.5V | 08:11:53 | 02:33:30 | 00:00:00 | |
| DF8AY | 2026-09-04 00:51:27 | 51.07904 | 8.43965 | 108° | 68km/h | 15628m | -8.4m/s | -57°C | 1.4% | 116.1hPa | 2.6V | 08:12:23 | 02:33:33 | 00:00:00 | |
| DL1XH-west | 2026-09-04 00:51:25 | 51.07914 | 8.43914 | 107° | 66km/h | 15645m | -8.6m/s | -57.1°C | 1.5% | 115.8hPa | 2.5V | 08:12:23 | 02:33:31 | 00:00:00 | |
| DL3OBA | 2026-09-04 00:51:25 | 51.07914 | 8.43914 | 108° | 66km/h | 15645m | -8.6m/s | -57.1°C | 1.9% | 115.8hPa | 2.5V | 08:12:00 | 00:00:00 | 00:00:00 | |
| DO3DL | 2026-09-04 00:51:24 | 51.07919 | 8.43889 | 108° | 66km/h | 15654m | -8.2m/s | -57.0°C | 1.8% | 115.7hPa | 2.5V | 08:12:00 | 00:00:00 | 00:00:00 | |
| DD8BA-10 | 2026-09-04 00:51:23 | 51.07924 | 8.43864 | 106° | 66km/h | 15662m | -8.3m/s | -56.6°C | 4.9% | 115.4hPa | 2.5V | 00:00:00 | 00:00:00 | 00:00:00 | |
| DL1XH-15 | 2026-09-04 00:51:22 | 51.07937 | 8.43789 | 104° | 66km/h | 15687m | -8.3m/s | -56.2°C | 4.7% | 115.1hPa | 2.5V | 08:11:57 | 02:33:26 | 00:00:00 | |
| AA1-15 | 2026-09-04 00:51:21 | 51.07942 | 8.43763 | 106° | 66km/h | 15695m | -8.3m/s | -56.2°C | 1.1% | 114.9hPa | 2.5V | 08:12:23 | 02:33:25 | 00:00:00 | |
| HSKMA3-T | 2026-09-04 00:51:21 | 51.07933 | 8.43814 | 105° | 64km/h | 15678m | -8.3m/s | -56.2°C | 1.2% | 115.2hPa | 2.6V | 08:12:23 | 02:33:27 | 00:00:00 | |
| DF8AY | 2026-09-04 00:51:16 | 51.07955 | 8.43686 | 105° | 68km/h | 15720m | -8.4m/s | -56.2°C | 1.2% | 114.5hPa | 2.6V | 08:12:23 | 02:33:22 | 00:00:00 | |
| DL1XH-west | 2026-09-04 00:51:14 | 51.07964 | 8.43633 | 104° | 69km/h | 15737m | -8.2m/s | -56.3°C | 1.2% | 114.1hPa | 2.5V | 08:12:23 | 02:33:20 | 00:00:00 | |
| DL4XJ-10 | 2026-09-04 00:51:14 | 51.07964 | 8.43633 | 105° | 58km/h | 15737m | -8.1m/s | -55.9°C | 0% | 0hPa | 2.5V | 00:00:00 | 00:00:00 | 00:00:00 | |
| DD8BA-10 | 2026-09-04 00:51:13 | 51.07968 | 8.43606 | 106° | 73km/h | 15745m | -8.3m/s | -56.3°C | 4.7% | 114.0hPa | 2.5V | 00:00:00 | 00:00:00 | 00:00:00 | |
| DL1XH-15 | 2026-09-04 00:51:12 | 51.07984 | 8.43523 | 108° | 73km/h | 15770m | -8.1m/s | -56.4°C | 4.8% | 113.5hPa | 2.6V | 08:12:07 | 02:33:16 | 00:00:00 | |
| DL1NUX | 2026-09-04 00:51:12 | 51.07990 | 8.43495 | 108° | 75km/h | 15778m | -8.2m/s | -56.3°C | 4.7% | 113.4hPa | 2.5V | 08:12:08 | 02:33:15 | 00:00:00 | |
| HSKMA3-T | 2026-09-04 00:51:11 | 51.07984 | 8.43523 | 108° | 73km/h | 15770m | -8.1m/s | -56.4°C | 1.2% | 113.5hPa | 2.6V | 08:12:23 | 02:33:16 | 00:00:00 | |
| AA1-15 | 2026-09-04 00:51:09 | 51.07996 | 8.43467 | 111° | 73km/h | 15786m | -8.4m/s | -56.3°C | 1.2% | 113.3hPa | 2.5V | 08:12:23 | 02:33:14 | 00:00:00 | |
| DL1XH-west | 2026-09-04 00:51:04 | 51.08022 | 8.43356 | 112° | 73km/h | 15821m | -8.6m/s | -56.4°C | 1.2% | 112.6hPa | 2.6V | 08:12:23 | 02:33:10 | 00:00:00 | |
| DL3OBA | 2026-09-04 00:51:04 | 51.08022 | 8.43356 | 112° | 75km/h | 15821m | -8.6m/s | -56.4°C | 1.7% | 112.6hPa | 2.6V | 08:12:00 | 00:00:00 | 00:00:00 | |
| DO3DL | 2026-09-04 00:51:03 | 51.08029 | 8.43328 | 111° | 75km/h | 15829m | -8.5m/s | -56.4°C | 1.6% | 112.5hPa | 2.6V | 08:12:00 | 00:00:00 | 00:00:00 | |
| DL1XH-15 | 2026-09-04 00:51:02 | 51.08049 | 8.43242 | 111° | 78km/h | 15854m | -8m/s | -56.5°C | 4.8% | 112hPa | 2.6V | 08:12:17 | 02:33:06 | 00:00:00 | |
| DL1NUX | 2026-09-04 00:51:02 | 51.08056 | 8.43213 | 111° | 77km/h | 15862m | -8.5m/s | -56.5°C | 4.8% | 111.9hPa | 2.6V | 08:12:18 | 02:33:05 | 00:00:00 | |
| BIOWL1-15 | 2026-09-04 00:51:00 | 51.08063 | 8.43184 | 112° | 77km/h | 15871m | -9.1m/s | -56.6°C | 1.3% | 111.7hPa | 2.5V | 08:12:23 | 02:33:04 | 00:00:00 | |
| HSKMA3-T | 2026-09-04 00:50:59 | 51.08056 | 8.43213 | 111° | 77km/h | 15862m | -8.5m/s | -56.5°C | 1.2% | 111.9hPa | 2.6V | 08:12:23 | 02:33:05 | 00:00:00 | |
| AA1-15 | 2026-09-04 00:50:58 | 51.08070 | 8.43156 | 111° | 77km/h | 15880m | -8.6m/s | -56.6°C | 1.3% | 111.6hPa | 2.5V | 08:12:23 | 02:33:03 | 00:00:00 | |
| DF8AY | 2026-09-04 00:50:53 | 51.08098 | 8.43044 | 112° | 73km/h | 15914m | -8.4m/s | -56.5°C | 1.2% | 111hPa | 2.5V | 08:14:05 | 02:32:59 | 00:00:00 | |
| DD8BA-10 | 2026-09-04 00:50:53 | 51.08098 | 8.43044 | 113° | 71km/h | 15914m | -8.4m/s | -56.4°C | 4.8% | 110.9hPa | 2.6V | 00:00:00 | 00:00:00 | 00:00:00 | |
| DL1NUX | 2026-09-04 00:50:52 | 51.08126 | 8.42935 | 111° | 73km/h | 15947m | -8.1m/s | -56.4°C | 4.7% | 110.4hPa | 2.6V | 08:12:28 | 02:32:55 | 00:00:00 | |
| BIOWL1-15 | 2026-09-04 00:50:50 | 51.08119 | 8.42962 | 111° | 71km/h | 15939m | -8.3m/s | -56.4°C | 1.1% | 110.5hPa | 2.5V | 08:13:14 | 02:32:56 | 00:00:00 | |
| HSKMA3-T | 2026-09-04 00:50:50 | 51.08126 | 8.42935 | 112° | 73km/h | 15947m | -8.1m/s | -56.4°C | 1.2% | 110.4hPa | 2.6V | 08:13:14 | 02:32:55 | 00:00:00 | |
| AA1-15 | 2026-09-04 00:50:46 | 51.08145 | 8.42856 | 110° | 69km/h | 15973m | -8.6m/s | -56.3°C | 1.1% | 110hPa | 2.5V | 08:13:14 | 02:32:52 | 00:00:00 | |
| DL1XH-west | 2026-09-04 00:50:42 | 51.08166 | 8.42752 | 107° | 68km/h | 16007m | -8.6m/s | -56.1°C | 1.1% | 109.3hPa | 2.5V | 08:13:14 | 02:32:48 | 00:00:00 | |
| DL1XH-15 | 2026-09-04 00:50:42 | 51.08176 | 8.42700 | 106° | 66km/h | 16024m | -8.2m/s | -56°C | 4.5% | 109.1hPa | 2.5V | 08:12:37 | 02:32:46 | 00:00:00 | |
| DF8AY | 2026-09-04 00:50:42 | 51.08188 | 8.42623 | 104° | 66km/h | 16049m | -8.3m/s | -56.1°C | 1.1% | 108.7hPa | 2.6V | 08:14:05 | 02:32:43 | 00:00:00 | |
| HSKMA3-T | 2026-09-04 00:50:39 | 51.08180 | 8.42674 | 104° | 66km/h | 16032m | -8.3m/s | -56°C | 1% | 108.9hPa | 2.5V | 08:13:14 | 02:32:45 | 00:00:00 | |
| AA1-15 | 2026-09-04 00:50:35 | 51.08197 | 8.42570 | 106° | 68km/h | 16066m | -8.3m/s | -56.2°C | 1.1% | 108.3hPa | 2.5V | 08:13:14 | 02:32:41 | 00:00:00 | |
| DL1XH-west | 2026-09-04 00:50:32 | 51.08213 | 8.42492 | 110° | 71km/h | 16093m | -8.7m/s | -56.4°C | 1.2% | 107.9hPa | 2.6V | 08:13:14 | 02:32:38 | 00:00:00 | |
| DL1XH-15 | 2026-09-04 00:50:32 | 51.08226 | 8.42439 | 111° | 71km/h | 16109m | -8.4m/s | -56.5°C | 4.8% | 107.6hPa | 2.5V | 08:12:47 | 02:32:36 | 00:00:00 | |
| DF8AY | 2026-09-04 00:50:31 | 51.08220 | 8.42465 | 112° | 69km/h | 16101m | -8.4m/s | -56.4°C | 1.2% | 107.7hPa | 2.5V | 08:14:05 | 02:32:37 | 00:00:00 | |
| HSKMA3-T | 2026-09-04 00:50:29 | 51.08233 | 8.42413 | 113° | 71km/h | 16118m | -8.6m/s | -56.5°C | 1.2% | 107.5hPa | 2.5V | 08:13:14 | 02:32:35 | 00:00:00 | |
| DB0UT-7 | 2026-09-04 00:50:29 | 51.08233 | 8.42412 | 113° | 66km/h | 16118m | -8.6m/s | -56.4°C | 4.8% | 107.4hPa | 2.6V | 00:00:00 | 02:32:35 | 00:00:00 | |
| DL1ZP-14 | 2026-09-04 00:50:27 | 51.08246 | 8.42361 | 112° | 69km/h | 16136m | -8.8m/s | -56.4°C | 1.7% | 107.2hPa | 2.6V | 00:00:00 | 00:00:00 | 00:00:00 | |
| DM0DOS-11 | 2026-09-04 00:50:26 | 51.08265 | 8.42283 | 108° | 68km/h | 16161m | -8.1m/s | -56.6°C | 4.8% | 106.8hPa | 2.5V | 08:12:53 | 02:32:30 | 00:00:00 | |
| AA1-15 | 2026-09-04 00:50:24 | 51.08265 | 8.42283 | 108° | 68km/h | 16161m | -8.1m/s | -56.6°C | 1.2% | 106.8hPa | 2.5V | 08:13:14 | 02:32:30 | 00:00:00 | |
| DJ2DS-15 | 2026-09-04 00:50:24 | 51.08265 | 8.42283 | 109° | 66km/h | 16161m | -8.1m/s | -56.6°C | 4.8% | 106.7hPa | 2.5V | 00:00:00 | 02:32:30 | 00:00:00 | |
| DL1XH-15 | 2026-09-04 00:50:23 | 51.08284 | 8.42178 | 105° | 69km/h | 16194m | -8.4m/s | -56.7°C | 4.8% | 106.2hPa | 2.5V | 08:12:57 | 02:32:26 | 00:00:00 | |
| DL1XH-west | 2026-09-04 00:50:22 | 51.08275 | 8.42231 | 107° | 68km/h | 16177m | -8.3m/s | -56.7°C | 1.3% | 106.4hPa | 2.6V | 08:13:14 | 02:32:28 | 00:00:00 | |
| DF8AY | 2026-09-04 00:50:21 | 51.08280 | 8.42205 | 105° | 69km/h | 16185m | -8.2m/s | -56.7°C | 1.3% | 106.3hPa | 2.6V | 08:14:05 | 02:32:27 | 00:00:00 | |
| BIOWL1-15 | 2026-09-04 00:50:19 | 51.08289 | 8.42152 | 105° | 68km/h | 16203m | -8.8m/s | -56.7°C | 1.2% | 106.1hPa | 2.5V | 08:13:14 | 02:32:25 | 00:00:00 | |
| HSKMA3-T | 2026-09-04 00:50:18 | 51.08293 | 8.42126 | 106° | 69km/h | 16211m | -8.7m/s | -56.6°C | 1.2% | 105.9hPa | 2.5V | 08:13:14 | 02:32:24 | 00:00:00 | |
| AA1-15 | 2026-09-04 00:50:14 | 51.08312 | 8.42023 | 107° | 66km/h | 16245m | -8.6m/s | -56.6°C | 1.2% | 105.3hPa | 2.5V | 08:13:14 | 02:32:20 | 00:00:00 | |
| DL1XH-west | 2026-09-04 00:50:12 | 51.08322 | 8.41973 | 107° | 66km/h | 16262m | -8.8m/s | -56.6°C | 1.2% | 105hPa | 2.5V | 08:13:14 | 02:32:18 | 00:00:00 | |
| DF8AY | 2026-09-04 00:50:10 | 51.08332 | 8.41923 | 107° | 64km/h | 16280m | -9m/s | -56.7°C | 1.3% | 104.7hPa | 2.6V | 08:14:05 | 02:32:16 | 00:00:00 | |
| BIOWL1-15 | 2026-09-04 00:50:08 | 51.08359 | 8.41780 | 106° | 58km/h | 16332m | -8.4m/s | -56.2°C | 1.2% | 103.9hPa | 2.5V | 08:13:14 | 02:32:10 | 00:00:00 | |
| HSKMA3-T | 2026-09-04 00:50:08 | 51.08341 | 8.41874 | 106° | 62km/h | 16298m | -8.6m/s | -56.5°C | 1.2% | 104.5hPa | 2.5V | 08:13:14 | 02:32:14 | 00:00:00 | |
| DF7PN | 2026-09-04 00:50:07 | 51.08346 | 8.41850 | 107° | 62km/h | 16306m | -8.4m/s | -56.3°C | 1.6% | 104.3hPa | 2.5V | 00:00:00 | 00:00:00 | 00:00:00 | |
| DM0DOS-11 | 2026-09-04 00:50:06 | 51.08359 | 8.41780 | 106° | 58km/h | 16332m | -8.4m/s | -56.2°C | 4.7% | 103.9hPa | 2.5V | 08:13:13 | 02:32:10 | 00:00:00 | |
| AA1-15 | 2026-09-04 00:50:04 | 51.08363 | 8.41757 | 106° | 60km/h | 16341m | -8.6m/s | -56.3°C | 1.2% | 103.8hPa | 2.5V | 08:13:14 | 02:32:09 | 00:00:00 | |
| DO3DL | 2026-09-04 00:50:04 | 51.08359 | 8.41780 | 107° | 58km/h | 16332m | -8.4m/s | -56.2°C | 1.6% | 103.9hPa | 2.5V | 08:13:00 | 00:00:00 | 00:00:00 | |
| DD8BA-10 | 2026-09-04 00:50:03 | 51.08363 | 8.41757 | 106° | 60km/h | 16341m | -8.5m/s | -56.2°C | 4.7% | 103.7hPa | 2.5V | 00:00:00 | 00:00:00 | 00:00:00 | |
| DL1NUX | 2026-09-04 00:50:02 | 51.08379 | 8.41666 | 104° | 58km/h | 16375m | -8.5m/s | -56.2°C | 4.6% | 103.2hPa | 2.5V | 08:13:18 | 02:32:05 | 00:00:00 | |
| DL1XH-west | 2026-09-04 00:50:01 | 51.08371 | 8.41712 | 106° | 60km/h | 16358m | -8.9m/s | -56.2°C | 1.1% | 103.5hPa | 2.6V | 08:14:05 | 02:32:07 | 00:00:00 | |
| DF8AY | 2026-09-04 00:49:59 | 51.08379 | 8.41666 | 104° | 58km/h | 16375m | -8.5m/s | -56.3°C | 1.1% | 103.2hPa | 2.5V | 08:14:05 | 02:32:05 | 00:00:00 | |
| HSKMA3-T | 2026-09-04 00:49:57 | 51.08387 | 8.41620 | 104° | 58km/h | 16393m | -8.7m/s | -56.3°C | 1.1% | 102.9hPa | 2.5V | 08:14:05 | 02:32:03 | 00:00:00 | |
| DL1XH1-15 | 2026-09-04 00:49:56 | 51.08400 | 8.41551 | 108° | 60km/h | 16419m | -9m/s | -56.5°C | 4.7% | 102.5hPa | 2.6V | 08:13:23 | 02:32:00 | 00:00:00 | |
| BIOWL1-15 | 2026-09-04 00:49:55 | 51.08395 | 8.41574 | 107° | 60km/h | 16410m | -9m/s | -56.4°C | 1.1% | 102.7hPa | 2.6V | 08:14:05 | 02:32:01 | 00:00:00 | |
| AA1-15 | 2026-09-04 00:49:54 | 51.08400 | 8.41551 | 109° | 60km/h | 16420m | -9m/s | -56.5°C | 1.1% | 102.5hPa | 2.6V | 08:14:05 | 02:32:00 | 00:00:00 | |
| DD8BA-10 | 2026-09-04 00:49:53 | 51.08405 | 8.41528 | 109° | 58km/h | 16428m | -8.5m/s | -56.5°C | 4.7% | 102.3hPa | 2.6V | 00:00:00 | 00:00:00 | 00:00:00 | |
| DL1XH-15 | 2026-09-04 00:49:52 | 51.08420 | 8.41461 | 109° | 58km/h | 16454m | -8.4m/s | -56.8°C | 4.7% | 101.9hPa | 2.6V | 08:13:27 | 02:31:56 | 00:00:00 | |
| DL1XH-west | 2026-09-04 00:49:50 | 51.08420 | 8.41461 | 110° | 58km/h | 16454m | -8.4m/s | -56.8°C | 1.1% | 101.9hPa | 2.6V | 08:14:05 | 02:31:56 | 00:00:00 | |
| HSKMA3-T | 2026-09-04 00:49:46 | 51.08440 | 8.41375 | 110° | 57km/h | 16489m | -9.1m/s | -56.9°C | 1.2% | 101.3hPa | 2.5V | 08:14:05 | 02:31:52 | 00:00:00 | |
| BIOWL1-15 | 2026-09-04 00:49:45 | 51.08445 | 8.41354 | 111° | 57km/h | 16498m | -8.6m/s | -56.9°C | 1.2% | 101.2hPa | 2.6V | 08:14:05 | 02:31:51 | 00:00:00 | |
| AA1-15 | 2026-09-04 00:49:44 | 51.08455 | 8.41311 | 109° | 57km/h | 16515m | -8.8m/s | -56.9°C | 1.2% | 101hPa | 2.5V | 08:14:05 | 02:31:49 | 00:00:00 | |
| DD8BA-10 | 2026-09-04 00:49:43 | 51.08455 | 8.41311 | 110° | 60km/h | 16515m | -8.7m/s | -56.9°C | 4.8% | 100.9hPa | 2.5V | 00:00:00 | 00:00:00 | 00:00:00 | |
| DL1XH-15 | 2026-09-04 00:49:42 | 51.08467 | 8.41246 | 104° | 58km/h | 16541m | -8.8m/s | -56.8°C | 4.7% | 100.5hPa | 2.5V | 08:13:37 | 02:31:46 | 00:00:00 | |
| DL1NUX | 2026-09-04 00:49:42 | 51.08471 | 8.41223 | 104° | 60km/h | 16550m | -8.7m/s | -56.8°C | 4.7% | 100.4hPa | 2.6V | 08:13:38 | 02:31:45 | 00:00:00 | |
| DL1XH-west | 2026-09-04 00:49:40 | 51.08467 | 8.41246 | 104° | 58km/h | 16541m | -8.8m/s | -56.8°C | 1.1% | 100.5hPa | 2.5V | 08:14:05 | 02:31:46 | 00:00:00 | |
| HSKMA3-T | 2026-09-04 00:49:36 | 51.08482 | 8.41151 | 105° | 62km/h | 16576m | -8.7m/s | -57°C | 1.1% | 100hPa | 2.5V | 08:14:05 | 02:31:42 | 00:00:00 | |
| DL1XH1-15 | 2026-09-04 00:49:36 | 51.08490 | 8.41102 | 106° | 64km/h | 16593m | -8.9m/s | -57.1°C | 4.8% | 99.7hPa | 2.6V | 08:13:43 | 02:31:40 | 00:00:00 | |
| BIOWL1-15 | 2026-09-04 00:49:36 | 51.08490 | 8.41102 | 106° | 64km/h | 16593m | -8.9m/s | -57.1°C | 1.2% | 99.7hPa | 2.6V | 08:14:05 | 02:31:40 | 00:00:00 | |
| AA1-15 | 2026-09-04 00:49:33 | 51.08499 | 8.41053 | 108° | 62km/h | 16611m | -8.8m/s | -57.2°C | 1.2% | 99.4hPa | 2.5V | 08:14:05 | 02:31:38 | 00:00:00 | |
| DD8BA-10 | 2026-09-04 00:49:33 | 51.08495 | 8.41077 | 106° | 60km/h | 16602m | -8.8m/s | -57.1°C | 4.9% | 99.5hPa | 2.5V | 00:00:00 | 00:00:00 | 00:00:00 | |
| DL1XH-15 | 2026-09-04 00:49:32 | 51.08509 | 8.41007 | 108° | 60km/h | 16628m | -8.3m/s | -57.3°C | 5% | 99.1hPa | 2.5V | 08:13:47 | 02:31:36 | 00:00:00 | |
| DL1NUX | 2026-09-04 00:49:32 | 51.08513 | 8.40985 | 106° | 58km/h | 16636m | -8.3m/s | -57.4°C | 5% | 99hPa | 2.6V | 08:13:48 | 02:31:35 | 00:00:00 | |
| DL1XH-west | 2026-09-04 00:49:30 | 51.08509 | 8.41007 | 108° | 60km/h | 16628m | -8.3m/s | -57.3°C | 1.2% | 99.1hPa | 2.5V | 08:14:05 | 02:31:36 | 00:00:00 | |
| DF8AY | 2026-09-04 00:49:29 | 51.08513 | 8.40985 | 107° | 58km/h | 16636m | -8.3m/s | -57.4°C | 1.2% | 99hPa | 2.6V | 08:14:05 | 02:31:35 | 00:00:00 | |
| DB0UT-7 | 2026-09-04 00:49:29 | 51.08513 | 8.40984 | 107° | 58km/h | 16637m | -8.2m/s | -57.3°C | 5.0% | 99.0hPa | 2.5V | 00:00:00 | 02:31:35 | 00:00:00 | |
| WPPR-10 | 2026-09-04 00:49:28 | 51.08521 | 8.40940 | 104° | 57km/h | 16653m | -8.5m/s | -57.4°C | 1.7% | 98.8hPa | 2.5V | 00:00:00 | 00:00:00 | 00:00:00 | |
| DO1YAY-16 | 2026-09-04 00:49:27 | 51.08521 | 8.40940 | 104° | 57km/h | 16653m | -8.5m/s | -57.4°C | 1.7% | 98.8hPa | 2.5V | 00:00:00 | 00:00:00 | 00:00:00 | |
| DM0DOS-11 | 2026-09-04 00:49:26 | 51.08530 | 8.40871 | 99° | 58km/h | 16678m | -8.5m/s | -57.4°C | 5% | 98.4hPa | 2.5V | 08:13:53 | 02:31:30 | 00:00:00 | |
| HSKMA3-T | 2026-09-04 00:49:26 | 51.08525 | 8.40917 | 103° | 58km/h | 16662m | -8.3m/s | -57.4°C | 1.2% | 98.6hPa | 2.5V | 08:14:05 | 02:31:32 | 00:00:00 | |
| DJ2KF-10 | 2026-09-04 00:49:26 | 51.08525 | 8.40917 | 103° | 58km/h | 16662m | -8.3m/s | -57.4°C | 5.0% | 98.5hPa | 2.5V | 08:13:00 | 02:31:32 | 00:00:00 | |
| DO3DL | 2026-09-04 00:49:24 | 51.08528 | 8.40894 | 103° | 58km/h | 16670m | -8.5m/s | -57.4°C | 1.7% | 98.5hPa | 2.6V | 08:14:00 | 00:00:00 | 00:00:00 | |
| DJ2DS-15 | 2026-09-04 00:49:23 | 51.08533 | 8.40848 | 100° | 58km/h | 16687m | -9.0m/s | -57.2°C | 4.9% | 98.2hPa | 2.6V | 08:13:00 | 02:31:29 | 00:00:00 | |
| DL1NUX | 2026-09-04 00:49:22 | 51.08541 | 8.40754 | 99° | 60km/h | 16722m | -8.4m/s | -56.9°C | 4.7% | 97.7hPa | 2.5V | 08:13:58 | 02:31:25 | 00:00:00 | |
| AA1-15 | 2026-09-04 00:49:21 | 51.08537 | 8.40802 | 98° | 58km/h | 16705m | -8.7m/s | -57.1°C | 1.1% | 98hPa | 2.5V | 08:14:05 | 02:31:27 | 00:00:00 | |
| DL1XH-west | 2026-09-04 00:49:20 | 51.08539 | 8.40778 | 97° | 58km/h | 16714m | -8.7m/s | -57°C | 1.1% | 97.8hPa | 2.5V | 08:14:05 | 02:31:26 | 00:00:00 | |
| DF8AY | 2026-09-04 00:49:18 | 51.08543 | 8.40731 | 99° | 58km/h | 16731m | -8.3m/s | -56.9°C | 1.1% | 97.5hPa | 2.5V | 08:14:05 | 02:31:24 | 00:00:00 | |
| HSKMA3-T | 2026-09-04 00:49:16 | 51.08549 | 8.40684 | 102° | 58km/h | 16748m | -8.6m/s | -56.9°C | 1% | 97.3hPa | 2.6V | 08:14:05 | 02:31:22 | 00:00:00 | |
| BIOWL1-15 | 2026-09-04 00:49:13 | 51.08558 | 8.40616 | 102° | 58km/h | 16774m | -8.9m/s | -56.9°C | 1% | 96.9hPa | 2.5V | 08:14:05 | 02:31:19 | 00:00:00 | |
| DD8BA-10 | 2026-09-04 00:49:13 | 51.08558 | 8.40616 | 103° | 57km/h | 16775m | -8.8m/s | -56.9°C | 4.7% | 96.8hPa | 2.5V | 08:14:00 | 00:00:00 | 00:00:00 | |
| DL1NUX | 2026-09-04 00:49:12 | 51.08572 | 8.40528 | 106° | 55km/h | 16809m | -8.5m/s | -56.7°C | 4.7% | 96.3hPa | 2.6V | 08:14:08 | 02:31:15 | 00:00:00 | |
| AA1-15 | 2026-09-04 00:49:11 | 51.08565 | 8.40571 | 104° | 57km/h | 16791m | -8.3m/s | -56.9°C | 1% | 96.6hPa | 2.5V | 08:14:56 | 02:31:17 | 00:00:00 | |
| DL1XH-west | 2026-09-04 00:49:10 | 51.08568 | 8.40550 | 107° | 57km/h | 16800m | -8.7m/s | -56.8°C | 1.1% | 96.5hPa | 2.5V | 08:14:56 | 02:31:16 | 00:00:00 | |
| DF8AY | 2026-09-04 00:49:07 | 51.08585 | 8.40465 | 109° | 57km/h | 16834m | -8.6m/s | -56.7°C | 1% | 96hPa | 2.5V | 08:14:56 | 02:31:12 | 00:00:00 | |
| HSKMA3-T | 2026-09-04 00:49:05 | 51.08590 | 8.40443 | 111° | 57km/h | 16843m | -9.1m/s | -56.8°C | 1% | 95.9hPa | 2.5V | 08:14:56 | 02:31:11 | 00:00:00 | |
| BIOWL1-15 | 2026-09-04 00:49:03 | 51.08602 | 8.40400 | 115° | 58km/h | 16861m | -9m/s | -56.8°C | 1% | 95.6hPa | 2.5V | 08:14:56 | 02:31:09 | 00:00:00 | |
| AA1-15 | 2026-09-04 00:49:00 | 51.08623 | 8.40335 | 121° | 60km/h | 16888m | -8.9m/s | -57°C | 1% | 95.2hPa | 2.5V | 08:14:56 | 02:31:06 | 00:00:00 | |
| DL1XH-west | 2026-09-04 00:48:59 | 51.08631 | 8.40314 | 123° | 62km/h | 16896m | -8.4m/s | -56.9°C | 1% | 95hPa | 2.5V | 08:14:56 | 02:31:05 | 00:00:00 | |
| HSKMA3-T | 2026-09-04 00:48:55 | 51.08665 | 8.40237 | 124° | 57km/h | 16932m | -8.8m/s | -57.1°C | 1.1% | 94.5hPa | 2.6V | 08:14:56 | 02:31:01 | 00:00:00 | |
| BIOWL1-15 | 2026-09-04 00:48:55 | 51.08681 | 8.40201 | 123° | 53km/h | 16950m | -8.6m/s | -57.2°C | 1.1% | 94.2hPa | 2.5V | 08:14:56 | 02:30:59 | 00:00:00 | |
| DL3AQ-11 | 2026-09-04 00:48:54 | 51.08681 | 8.40201 | 122° | 53km/h | 16950m | -8.6m/s | -57.2°C | 1.6% | 94.2hPa | 2.5V | 00:00:00 | 00:00:00 | 00:00:00 | |
| DD8BA-10 | 2026-09-04 00:48:53 | 51.08681 | 8.40201 | 123° | 49km/h | 16950m | -8.5m/s | -57.1°C | 5.0% | 94.2hPa | 2.5V | 00:00:00 | 00:00:00 | 00:00:00 | |
| DL1XH-15 | 2026-09-04 00:48:52 | 51.08702 | 8.40148 | 121° | 51km/h | 16976m | -8.6m/s | -56.9°C | 4.9% | 93.8hPa | 2.5V | 08:14:27 | 02:30:56 | 00:00:00 | |
| DL1XH-west | 2026-09-04 00:48:49 | 51.08709 | 8.40130 | 119° | 49km/h | 16985m | -8.4m/s | -56.7°C | 1% | 93.7hPa | 2.5V | 08:14:56 | 02:30:55 | 00:00:00 | |
| DF8AY | 2026-09-04 00:48:45 | 51.08730 | 8.40061 | 113° | 46km/h | 17019m | -8.6m/s | -56.2°C | 0.9% | 93.2hPa | 2.5V | 08:14:56 | 02:30:51 | 00:00:00 | |
| HSKMA3-T | 2026-09-04 00:48:44 | 51.08735 | 8.40044 | 111° | 46km/h | 17028m | -8.6m/s | -56.2°C | 0.9% | 93.1hPa | 2.5V | 08:14:56 | 02:30:50 | 00:00:00 | |
| BIOWL1-15 | 2026-09-04 00:48:42 | 51.08749 | 8.39978 | 107° | 44km/h | 17062m | -8.5m/s | -55.9°C | 0.8% | 92.6hPa | 2.6V | 08:14:56 | 02:30:46 | 00:00:00 | |
| DL1XH-15 | 2026-09-04 00:48:42 | 51.08749 | 8.39978 | 106° | 44km/h | 17062m | -8.5m/s | -55.9°C | 4.5% | 92.6hPa | 2.6V | 08:14:37 | 02:30:46 | 00:00:00 | |
| DL1NUX | 2026-09-04 00:48:42 | 51.08752 | 8.39961 | 107° | 44km/h | 17071m | -8.6m/s | -55.9°C | 4.5% | 92.5hPa | 2.5V | 08:14:38 | 02:30:45 | 00:00:00 | |
| AA1-15 | 2026-09-04 00:48:39 | 51.08752 | 8.39961 | 107° | 44km/h | 17071m | -8.6m/s | -55.9°C | 0.8% | 92.5hPa | 2.5V | 08:14:56 | 02:30:45 | 00:00:00 | |
| DL1XH-west | 2026-09-04 00:48:38 | 51.08755 | 8.39945 | 105° | 42km/h | 17079m | -8.5m/s | -55.8°C | 0.9% | 92.3hPa | 2.5V | 08:14:56 | 02:30:44 | 00:00:00 | |
| DJ8HS-15 | 2026-09-04 00:48:38 | 51.08755 | 8.39945 | 105° | 49km/h | 17079m | -8.5m/s | -55.8°C | 4.5% | 92.3hPa | 2.6V | 00:00:00 | 02:30:44 | 00:00:00 | |
| DL8DAS-15 | 2026-09-04 00:48:37 | 51.08755 | 8.39945 | 106° | 42km/h | 17079m | -8.5m/s | -55.8°C | 1.5% | 92.3hPa | 2.6V | 00:00:00 | 00:00:00 | 00:00:00 | |
| DL1XH1-15 | 2026-09-04 00:48:35 | 51.08765 | 8.39876 | 100° | 44km/h | 17114m | -8.6m/s | -55.7°C | 4.4% | 91.8hPa | 2.6V | 08:14:43 | 02:30:40 | 00:00:00 | |
| DF8AY | 2026-09-04 00:48:34 | 51.08773 | 8.39784 | 96° | 47km/h | 17157m | -8.9m/s | -55.9°C | 0.8% | 91.2hPa | 2.5V | 08:14:56 | 02:30:35 | 00:00:00 | |
| HSKMA3-T | 2026-09-04 00:48:34 | 51.08765 | 8.39876 | 101° | 44km/h | 17114m | -8.6m/s | -55.7°C | 0.8% | 91.8hPa | 2.6V | 08:14:56 | 02:30:40 | 00:00:00 | |
| DD8BA-10 | 2026-09-04 00:48:33 | 51.08767 | 8.39858 | 99° | 47km/h | 17123m | -8.4m/s | -55.7°C | 4.4% | 91.6hPa | 2.5V | 00:00:00 | 00:00:00 | 00:00:00 | |
| DL1XH-15 | 2026-09-04 00:48:32 | 51.08772 | 8.39803 | 97° | 47km/h | 17148m | -8.6m/s | -55.8°C | 4.5% | 91.3hPa | 2.5V | 08:14:47 | 02:30:36 | 00:00:00 | |
| BIOWL1-15 | 2026-09-04 00:48:31 | 51.08771 | 8.39822 | 97° | 46km/h | 17140m | -8.5m/s | -55.8°C | 0.9% | 91.4hPa | 2.5V | 08:14:56 | 02:30:37 | 00:00:00 | |
| AA1-15 | 2026-09-04 00:48:28 | 51.08774 | 8.39765 | 95° | 49km/h | 17166m | -9.1m/s | -55.9°C | 0.8% | 91.1hPa | 2.5V | 08:14:56 | 02:30:34 | 00:00:00 | |
| DL1XH-west | 2026-09-04 00:48:27 | 51.08775 | 8.39746 | 94° | 47km/h | 17175m | -9.2m/s | -55.9°C | 0.8% | 91hPa | 2.6V | 08:14:56 | 02:30:33 | 00:00:00 | |
| DL4XJ-10 | 2026-09-04 00:48:27 | 51.08775 | 8.39746 | 95° | 44km/h | 17175m | -9.1m/s | -55.6°C | 0% | 0hPa | 2.5V | 00:00:00 | 00:00:00 | 00:00:00 | |
| DM0DOS-11 | 2026-09-04 00:48:26 | 51.08778 | 8.39685 | 92° | 53km/h | 17203m | -9m/s | -56°C | 4.6% | 90.6hPa | 2.5V | 08:14:53 | 02:30:30 | 00:00:00 | |
| HSKMA3-T | 2026-09-04 00:48:23 | 51.08778 | 8.39664 | 93° | 53km/h | 17212m | -9.5m/s | -55.9°C | 0.9% | 90.4hPa | 2.5V | 08:14:56 | 02:30:29 | 00:00:00 | |
| DJ2DS-15 | 2026-09-04 00:48:23 | 51.08778 | 8.39664 | 94° | 51km/h | 17212m | -9.4m/s | -55.8°C | 4.6% | 90.4hPa | 2.5V | 00:00:00 | 02:30:29 | 00:00:00 | |
| DL1XH-15 | 2026-09-04 00:48:22 | 51.08781 | 8.39598 | 93° | 57km/h | 17240m | -9.1m/s | -55.8°C | 4.6% | 90.1hPa | 2.6V | 08:14:57 | 02:30:26 | 00:00:00 | |
| DL1NUX | 2026-09-04 00:48:22 | 51.08782 | 8.39576 | 95° | 57km/h | 17249m | -9.1m/s | -55.7°C | 4.5% | 89.9hPa | 2.6V | 08:14:58 | 02:30:25 | 00:00:00 | |
| BIOWL1-15 | 2026-09-04 00:48:21 | 51.08781 | 8.39598 | 94° | 57km/h | 17240m | -9.1m/s | -55.8°C | 0.9% | 90.1hPa | 2.6V | 08:15:47 | 02:30:26 | 00:00:00 | |
| DL1XH-west | 2026-09-04 00:48:17 | 51.08785 | 8.39530 | 99° | 57km/h | 17268m | -8.8m/s | -55.6°C | 0.9% | 89.7hPa | 2.5V | 08:15:47 | 02:30:23 | 00:00:00 | |
| DL1XH1-15 | 2026-09-04 00:48:15 | 51.08792 | 8.39465 | 101° | 53km/h | 17295m | -9.1m/s | -55.4°C | 4.5% | 89.3hPa | 2.6V | 08:15:03 | 02:30:20 | 00:00:00 | |
| AA1-15 | 2026-09-04 00:48:14 | 51.08792 | 8.39465 | 101° | 53km/h | 17295m | -9.1m/s | -55.4°C | 0.9% | 89.3hPa | 2.6V | 08:15:47 | 02:30:20 | 00:00:00 | |
| DL1NUX | 2026-09-04 00:48:14 | 51.08805 | 8.39364 | 101° | 51km/h | 17341m | -9.2m/s | -55.3°C | 4.5% | 88.6hPa | 2.5V | 08:15:08 | 02:30:15 | 00:00:00 | |
| HSKMA3-T | 2026-09-04 00:48:13 | 51.08797 | 8.39424 | 102° | 51km/h | 17313m | -9.2m/s | -55.3°C | 0.8% | 89hPa | 2.6V | 08:15:47 | 02:30:18 | 00:00:00 | |
| DL1XH-15 | 2026-09-04 00:48:13 | 51.08803 | 8.39384 | 102° | 49km/h | 17332m | -9.4m/s | -55.3°C | 4.4% | 88.8hPa | 2.5V | 08:15:07 | 02:30:16 | 00:00:00 | |
| BIOWL1-15 | 2026-09-04 00:48:10 | 51.08803 | 8.39384 | 103° | 49km/h | 17332m | -9.4m/s | -55.3°C | 0.8% | 88.8hPa | 2.5V | 08:15:47 | 02:30:16 | 00:00:00 | |
| DF8AY | 2026-09-04 00:48:10 | 51.08822 | 8.39243 | 102° | 38km/h | 17406m | -9.4m/s | -54.7°C | 0.6% | 87.7hPa | 2.5V | 08:17:29 | 02:30:08 | 00:00:00 | |
| DL1XH-west | 2026-09-04 00:48:06 | 51.08813 | 8.39308 | 104° | 46km/h | 17369m | -9.2m/s | -54.9°C | 0.7% | 88.2hPa | 2.6V | 08:15:47 | 02:30:12 | 00:00:00 | |
| AA1-15 | 2026-09-04 00:48:03 | 51.08820 | 8.39258 | 102° | 38km/h | 17397m | -9.1m/s | -54.6°C | 0.6% | 87.8hPa | 2.5V | 08:15:47 | 02:30:09 | 00:00:00 | |
| DJ2DS-15 | 2026-09-04 00:48:03 | 51.08820 | 8.39258 | 102° | 33km/h | 17397m | -9.1m/s | -54.6°C | 4.1% | 87.8hPa | 2.6V | 00:00:00 | 02:30:09 | 00:00:00 | |
| DL1NUX | 2026-09-04 00:48:02 | 51.08828 | 8.39201 | 102° | 35km/h | 17434m | -9.2m/s | -54.7°C | 4.1% | 87.4hPa | 2.6V | 08:15:18 | 02:30:05 | 00:00:00 | |
| HSKMA3-T | 2026-09-04 00:48:01 | 51.08824 | 8.39229 | 102° | 35km/h | 17415m | -9.1m/s | -54.7°C | 0.6% | 87.6hPa | 2.6V | 08:15:47 | 02:30:07 | 00:00:00 | |
| DF8AY | 2026-09-04 00:48:00 | 51.08826 | 8.39215 | 102° | 37km/h | 17425m | -9.5m/s | -54.7°C | 0.6% | 87.5hPa | 2.6V | 08:17:29 | 02:30:06 | 00:00:00 | |
| BIOWL1-15 | 2026-09-04 00:48:00 | 51.08832 | 8.39174 | 105° | 35km/h | 17453m | -9.3m/s | -54.9°C | 0.7% | 87.1hPa | 2.5V | 08:15:47 | 02:30:03 | 00:00:00 | |
| DL1XH-west | 2026-09-04 00:47:56 | 51.08834 | 8.39161 | 103° | 35km/h | 17462m | -9.4m/s | -55°C | 0.7% | 87hPa | 2.5V | 08:15:47 | 02:30:02 | 00:00:00 | |
| AA1-15 | 2026-09-04 00:47:52 | 51.08843 | 8.39110 | 106° | 31km/h | 17499m | -9.3m/s | -55°C | 0.7% | 86.5hPa | 2.5V | 08:15:47 | 02:29:58 | 00:00:00 | |
| DL1NUX | 2026-09-04 00:47:52 | 51.08850 | 8.39073 | 109° | 33km/h | 17527m | -9.5m/s | -54.8°C | 4.1% | 86.1hPa | 2.5V | 08:15:28 | 02:29:55 | 00:00:00 | |
| HSKMA3-T | 2026-09-04 00:47:50 | 51.08848 | 8.39085 | 109° | 31km/h | 17517m | -9.3m/s | -54.8°C | 0.7% | 86.2hPa | 2.5V | 08:15:47 | 02:29:56 | 00:00:00 | |
| DF8AY | 2026-09-04 00:47:50 | 51.08850 | 8.39073 | 109° | 33km/h | 17527m | -9.5m/s | -54.8°C | 0.6% | 86.1hPa | 2.5V | 08:17:29 | 02:29:55 | 00:00:00 | |
| BIOWL1-15 | 2026-09-04 00:47:46 | 51.08859 | 8.39038 | 113° | 31km/h | 17555m | -9.2m/s | -55°C | 0.7% | 85.7hPa | 2.6V | 08:15:47 | 02:29:52 | 00:00:00 | |
| DL1XH-west | 2026-09-04 00:47:45 | 51.08862 | 8.39027 | 112° | 31km/h | 17564m | -9.2m/s | -55°C | 0.7% | 85.6hPa | 2.5V | 08:15:47 | 02:29:51 | 00:00:00 | |
| DL1NUX | 2026-09-04 00:47:44 | 51.08880 | 8.38959 | 114° | 29km/h | 17620m | -9.2m/s | -55.3°C | 4.2% | 84.8hPa | 2.5V | 08:15:38 | 02:29:45 | 00:00:00 | |
| AA1-15 | 2026-09-04 00:47:42 | 51.08874 | 8.38981 | 113° | 29km/h | 17601m | -9.2m/s | -55.2°C | 0.7% | 85.1hPa | 2.6V | 08:15:47 | 02:29:47 | 00:00:00 | |
| HSKMA3-T | 2026-09-04 00:47:40 | 51.08877 | 8.38970 | 112° | 31km/h | 17610m | -9.4m/s | -55.3°C | 0.7% | 85hPa | 2.6V | 08:15:47 | 02:29:46 | 00:00:00 | |
| DF8AY | 2026-09-04 00:47:39 | 51.08880 | 8.38959 | 114° | 29km/h | 17620m | -9.2m/s | -55.3°C | 0.7% | 84.8hPa | 2.5V | 08:17:29 | 02:29:45 | 00:00:00 | |
| BIOWL1-15 | 2026-09-04 00:47:36 | 51.08889 | 8.38926 | 115° | 29km/h | 17648m | -9.6m/s | -55.5°C | 0.7% | 84.5hPa | 2.5V | 08:15:47 | 02:29:42 | 00:00:00 | |
| DL1XH-west | 2026-09-04 00:47:35 | 51.08893 | 8.38916 | 119° | 29km/h | 17657m | -9.6m/s | -55.5°C | 0.7% | 84.3hPa | 2.6V | 08:15:47 | 02:29:41 | 00:00:00 | |
| DL3AQ-11 | 2026-09-04 00:47:34 | 51.08899 | 8.38896 | 120° | 27km/h | 17677m | -9.8m/s | -55.7°C | 1.3% | 84.1hPa | 2.5V | 00:00:00 | 00:00:00 | 00:00:00 | |
| DD8BA-10 | 2026-09-04 00:47:33 | 51.08899 | 8.38896 | 121° | 26km/h | 17677m | -9.7m/s | -55.6°C | 4.3% | 84.1hPa | 2.5V | 00:00:00 | 00:00:00 | 00:00:00 | |
| DL1NUX | 2026-09-04 00:47:32 | 51.08912 | 8.38860 | 117° | 26km/h | 17715m | -9.7m/s | -55.9°C | 4.3% | 83.6hPa | 2.5V | 08:15:48 | 02:29:35 | 00:00:00 | |
| AA1-15 | 2026-09-04 00:47:32 | 51.08903 | 8.38887 | 118° | 26km/h | 17687m | -9.5m/s | -55.7°C | 0.8% | 84hPa | 2.5V | 08:15:47 | 02:29:38 | 00:00:00 | |
| HSKMA3-T | 2026-09-04 00:47:29 | 51.08912 | 8.38860 | 117° | 26km/h | 17715m | -9.7m/s | -55.9°C | 0.7% | 83.6hPa | 2.5V | 08:16:38 | 02:29:35 | 00:00:00 | |
| DF8AY | 2026-09-04 00:47:28 | 51.08915 | 8.38851 | 119° | 24km/h | 17725m | -9.5m/s | -56°C | 0.8% | 83.5hPa | 2.6V | 08:17:29 | 02:29:34 | 00:00:00 | |
| BIOWL1-15 | 2026-09-04 00:47:25 | 51.08928 | 8.38805 | 111° | 27km/h | 17772m | -9.3m/s | -56.3°C | 0.8% | 82.8hPa | 2.6V | 08:16:38 | 02:29:29 | 00:00:00 | |
| DL1XH-west | 2026-09-04 00:47:25 | 51.08923 | 8.38824 | 112° | 26km/h | 17753m | -9.4m/s | -56.2°C | 0.8% | 83.1hPa | 2.5V | 08:16:38 | 02:29:31 | 00:00:00 | |
| DO3MHA-11 | 2026-09-04 00:47:24 | 51.08926 | 8.38815 | 115° | 31km/h | 17763m | -9.6m/s | -56.2°C | 4.4% | 82.9hPa | 2.6V | 00:00:00 | 02:29:30 | 00:00:00 | |
| DJ2DS-15 | 2026-09-04 00:47:23 | 51.08928 | 8.38805 | 111° | 38km/h | 17773m | -9.2m/s | -56.3°C | 4.5% | 82.8hPa | 2.6V | 00:00:00 | 02:29:29 | 00:00:00 | |
| DL1XH-15 | 2026-09-04 00:47:22 | 51.08936 | 8.38773 | 113° | 31km/h | 17801m | -9.3m/s | -56.5°C | 4.6% | 82.5hPa | 2.5V | 08:15:57 | 02:29:26 | 00:00:00 | |
| AA1-15 | 2026-09-04 00:47:22 | 51.08931 | 8.38795 | 114° | 27km/h | 17782m | -9.5m/s | -56.4°C | 0.9% | 82.7hPa | 2.6V | 08:16:38 | 02:29:28 | 00:00:00 | |
| HSKMA3-T | 2026-09-04 00:47:19 | 51.08940 | 8.38762 | 112° | 31km/h | 17810m | -9.8m/s | -56.6°C | 0.9% | 82.4hPa | 2.5V | 08:16:38 | 02:29:25 | 00:00:00 | |
| DF8AY | 2026-09-04 00:47:18 | 51.08950 | 8.38725 | 114° | 37km/h | 17839m | -9.3m/s | -56.8°C | 0.9% | 82hPa | 2.6V | 08:17:29 | 02:29:22 | 00:00:00 | |
| DL1XH-west | 2026-09-04 00:47:15 | 51.08953 | 8.38712 | 114° | 37km/h | 17848m | -9.3m/s | -56.8°C | 0.9% | 81.8hPa | 2.6V | 08:16:38 | 02:29:21 | 00:00:00 | |
| DO3MHA-11 | 2026-09-04 00:47:14 | 51.08957 | 8.38698 | 113° | 42km/h | 17858m | -9.3m/s | -56.8°C | 4.8% | 81.7hPa | 2.5V | 00:00:00 | 02:29:20 | 00:00:00 | |
| DD8BA-10 | 2026-09-04 00:47:13 | 51.08961 | 8.38684 | 115° | 42km/h | 17867m | -9.4m/s | -56.9°C | 4.8% | 81.6hPa | 2.5V | 00:00:00 | 00:00:00 | 00:00:00 | |
| DL1XH-15 | 2026-09-04 00:47:12 | 51.08974 | 8.38640 | 113° | 42km/h | 17895m | -9.7m/s | -56.8°C | 4.8% | 81.2hPa | 2.6V | 08:16:07 | 02:29:16 | 00:00:00 | |
| DL1NUX | 2026-09-04 00:47:12 | 51.08979 | 8.38624 | 116° | 42km/h | 17905m | -9.8m/s | -56.8°C | 4.9% | 81.1hPa | 2.6V | 08:16:08 | 02:29:15 | 00:00:00 | |
| AA1-15 | 2026-09-04 00:47:12 | 51.08965 | 8.38669 | 114° | 40km/h | 17877m | -9.6m/s | -56.9°C | 1% | 81.5hPa | 2.5V | 08:16:38 | 02:29:18 | 00:00:00 | |
| HSKMA3-T | 2026-09-04 00:47:09 | 51.08979 | 8.38624 | 116° | 42km/h | 17905m | -9.8m/s | -56.8°C | 1.1% | 81.1hPa | 2.6V | 08:16:38 | 02:29:15 | 00:00:00 | |
| DF8AY | 2026-09-04 00:47:07 | 51.08988 | 8.38593 | 116° | 44km/h | 17924m | -9.3m/s | -56.8°C | 1% | 80.9hPa | 2.5V | 08:17:29 | 02:29:13 | 00:00:00 | |
| DD1CC8 | 2026-09-04 00:47:07 | 51.08988 | 8.38593 | 115° | 44km/h | 17924m | -9.3m/s | -56.8°C | 1.5% | 80.9hPa | 2.6V | 00:00:00 | 00:00:00 | 00:00:00 | |
| DO3MHA-12 | 2026-09-04 00:47:06 | 51.08992 | 8.38577 | 115° | 42km/h | 17934m | -9.7m/s | -56.7°C | 4.8% | 80.7hPa | 2.6V | 00:00:00 | 02:29:12 | 00:00:00 | |
| DL1NUX | 2026-09-04 00:47:04 | 51.09029 | 8.38466 | 118° | 42km/h | 18000m | -9.7m/s | -55.3°C | 4.3% | 79.9hPa | 2.6V | 08:16:18 | 02:29:05 | 00:00:00 | |
| DL1XH-west | 2026-09-04 00:47:04 | 51.09002 | 8.38545 | 117° | 46km/h | 17953m | -9.6m/s | -56.6°C | 1% | 80.5hPa | 2.6V | 08:16:38 | 02:29:10 | 00:00:00 | |
| BIOWL1-15 | 2026-09-04 00:47:01 | 51.09029 | 8.38466 | 118° | 42km/h | 18000m | -9.7m/s | -55.3°C | 0.8% | 79.9hPa | 2.6V | 08:16:38 | 02:29:05 | 00:00:00 | |
| AA1-15 | 2026-09-04 00:47:01 | 51.09018 | 8.38497 | 117° | 46km/h | 17981m | -9.5m/s | -56.1°C | 0.9% | 80.2hPa | 2.5V | 08:16:38 | 02:29:07 | 00:00:00 | |
| HSKMA3-T | 2026-09-04 00:46:58 | 51.09034 | 8.38451 | 123° | 42km/h | 18010m | -9.4m/s | -55.3°C | 0.8% | 79.8hPa | 2.6V | 08:16:38 | 02:29:04 | 00:00:00 | |
| DF8AY | 2026-09-04 00:46:57 | 51.09046 | 8.38423 | 123° | 42km/h | 18029m | -9.5m/s | -55.4°C | 0.7% | 79.6hPa | 2.5V | 08:17:29 | 02:29:02 | 00:00:00 | |
| DL1XH-west | 2026-09-04 00:46:53 | 51.09063 | 8.38383 | 125° | 40km/h | 18058m | -10m/s | -55.4°C | 0.7% | 79.2hPa | 2.5V | 08:16:38 | 02:28:59 | 00:00:00 | |
| DD8BA-10 | 2026-09-04 00:46:53 | 51.09063 | 8.38383 | 125° | 38km/h | 18058m | -9.9m/s | -55.3°C | 4.3% | 79.1hPa | 2.5V | 00:00:00 | 00:00:00 | 00:00:00 | |
| DL1XH-15 | 2026-09-04 00:46:52 | 51.09081 | 8.38344 | 127° | 40km/h | 18087m | -9.6m/s | -55.4°C | 4.3% | 78.8hPa | 2.5V | 08:16:27 | 02:28:56 | 00:00:00 | |
| AA1-15 | 2026-09-04 00:46:50 | 51.09081 | 8.38344 | 128° | 40km/h | 18088m | -9.6m/s | -55.4°C | 0.8% | 78.8hPa | 2.5V | 08:16:38 | 02:28:56 | 00:00:00 | |
| BIOWL1-15 | 2026-09-04 00:46:50 | 51.09087 | 8.38332 | 131° | 38km/h | 18097m | -9.8m/s | -55.4°C | 0.8% | 78.7hPa | 2.5V | 08:16:38 | 02:28:55 | 00:00:00 | |
| DM0DOS-11 | 2026-09-04 00:46:48 | 51.09119 | 8.38276 | 130° | 37km/h | 18147m | -10m/s | -55.1°C | 4.1% | 78.1hPa | 2.5V | 08:16:33 | 02:28:50 | 00:00:00 | |
| HSKMA3-T | 2026-09-04 00:46:47 | 51.09100 | 8.38308 | 134° | 38km/h | 18117m | -9.4m/s | -55.2°C | 0.7% | 78.5hPa | 2.6V | 08:16:38 | 02:28:53 | 00:00:00 | |
| DF8AY | 2026-09-04 00:46:45 | 51.09113 | 8.38286 | 134° | 37km/h | 18137m | -10m/s | -55.1°C | 0.7% | 78.2hPa | 2.5V | 08:17:29 | 02:28:51 | 00:00:00 | |
| DL8DAS-14 | 2026-09-04 00:46:45 | 51.09113 | 8.38286 | 133° | 37km/h | 18137m | -10.0m/s | -55.1°C | 1.3% | 78.2hPa | 2.6V | 00:00:00 | 00:00:00 | 00:00:00 | |
| DD1CC3-15 | 2026-09-04 00:46:44 | 51.09119 | 8.38275 | 132° | 37km/h | 18147m | -10.0m/s | -55.1°C | 1.3% | 78.1hPa | 2.6V | 08:16:00 | 00:00:00 | 00:00:00 | |
| DC6BW-12 | 2026-09-04 00:46:43 | 51.09125 | 8.38265 | 134° | 37km/h | 18157m | -9.7m/s | -55.1°C | 1.3% | 78.0hPa | 2.6V | 08:16:00 | 00:00:00 | 00:00:00 | |
| DL1XH-15 | 2026-09-04 00:46:42 | 51.09143 | 8.38232 | 132° | 37km/h | 18186m | -9.8m/s | -55.2°C | 4.1% | 77.6hPa | 2.6V | 08:16:37 | 02:28:46 | 00:00:00 | |
| DL1XH-west | 2026-09-04 00:46:42 | 51.09131 | 8.38254 | 131° | 35km/h | 18166m | -9.7m/s | -55.1°C | 0.7% | 77.8hPa | 2.5V | 08:16:38 | 02:28:48 | 00:00:00 | |
| AA1-15 | 2026-09-04 00:46:40 | 51.09150 | 8.38221 | 132° | 38km/h | 18196m | -9.8m/s | -55.3°C | 0.7% | 77.5hPa | 2.6V | 08:16:38 | 02:28:45 | 00:00:00 | |
| BIOWL1-15 | 2026-09-04 00:46:40 | 51.09163 | 8.38199 | 133° | 40km/h | 18215m | -9.7m/s | -55.3°C | 0.7% | 77.3hPa | 2.5V | 08:17:29 | 02:28:43 | 00:00:00 | |
| HSKMA3-T | 2026-09-04 00:46:36 | 51.09170 | 8.38187 | 135° | 38km/h | 18225m | -9.8m/s | -55.4°C | 0.7% | 77.2hPa | 2.5V | 08:17:29 | 02:28:42 | 00:00:00 | |
| DL1XH1-15 | 2026-09-04 00:46:35 | 51.09184 | 8.38165 | 135° | 38km/h | 18245m | -10.1m/s | -55.5°C | 4.2% | 76.9hPa | 2.6V | 08:16:43 | 02:28:40 | 00:00:00 | |
| DO2KSM | 2026-09-04 00:46:35 | 51.09177 | 8.38176 | 133° | 38km/h | 18235m | -9.9m/s | -55.4°C | 1.3% | 77.0hPa | 2.6V | 08:17:00 | 00:00:00 | 00:00:00 | |
| DF8AY | 2026-09-04 00:46:35 | 51.09184 | 8.38165 | 136° | 38km/h | 18245m | -10.1m/s | -55.5°C | 0.7% | 76.9hPa | 2.6V | 08:17:29 | 02:28:40 | 00:00:00 | |
| DO3MHA-11 | 2026-09-04 00:46:34 | 51.09184 | 8.38164 | 136° | 38km/h | 18245m | -10.1m/s | -55.4°C | 4.2% | 76.9hPa | 2.6V | 08:16:00 | 02:28:40 | 00:00:00 | |
| DD8BA-10 | 2026-09-04 00:46:33 | 51.09190 | 8.38153 | 133° | 40km/h | 18255m | -9.8m/s | -55.5°C | 4.2% | 76.7hPa | 2.5V | 00:00:00 | 00:00:00 | 00:00:00 | |
| DL1XH-15 | 2026-09-04 00:46:32 | 51.09210 | 8.38120 | 133° | 38km/h | 18284m | -9.9m/s | -55.8°C | 4.3% | 76.4hPa | 2.5V | 08:16:47 | 02:28:36 | 00:00:00 | |
| DL1NUX | 2026-09-04 00:46:32 | 51.09217 | 8.38109 | 131° | 38km/h | 18294m | -9.9m/s | -55.9°C | 4.3% | 76.3hPa | 2.6V | 08:16:48 | 02:28:35 | 00:00:00 | |
| DL1XH-west | 2026-09-04 00:46:32 | 51.09197 | 8.38142 | 135° | 38km/h | 18265m | -9.9m/s | -55.6°C | 0.7% | 76.7hPa | 2.5V | 08:17:29 | 02:28:38 | 00:00:00 | |
| AA1-15 | 2026-09-04 00:46:29 | 51.09223 | 8.38097 | 131° | 40km/h | 18304m | -10m/s | -56°C | 0.8% | 76.2hPa | 2.6V | 08:17:29 | 02:28:34 | 00:00:00 | |
| HSKMA3-T | 2026-09-04 00:46:26 | 51.09236 | 8.38073 | 129° | 42km/h | 18324m | -9.8m/s | -56.1°C | 0.8% | 75.9hPa | 2.5V | 08:17:29 | 02:28:32 | 00:00:00 | |
| DF8AY | 2026-09-04 00:46:24 | 51.09250 | 8.38047 | 128° | 44km/h | 18344m | -10.1m/s | -56.3°C | 0.8% | 0hPa | 2.6V | 08:17:29 | 02:28:30 | 00:00:00 | |
| DL1NUX | 2026-09-04 00:46:24 | 51.09284 | 8.37978 | 130° | 46km/h | 18394m | -10.2m/s | -56.6°C | 4.5% | 75.1hPa | 2.5V | 08:16:58 | 02:28:25 | 00:00:00 | |
| DO3MHA-11 | 2026-09-04 00:46:24 | 51.09249 | 8.38047 | 128° | 44km/h | 18344m | -10.0m/s | -56.2°C | 4.4% | 75.7hPa | 2.6V | 00:00:00 | 02:28:30 | 00:00:00 | |
| DJ2DS-15 | 2026-09-04 00:46:23 | 51.09256 | 8.38033 | 130° | 38km/h | 18354m | -9.9m/s | -56.3°C | 4.4% | 75.5hPa | 2.6V | 08:16:00 | 02:28:29 | 00:00:00 | |
| DL1XH-15 | 2026-09-04 00:46:22 | 51.09277 | 8.37992 | 127° | 44km/h | 18384m | -9.9m/s | -56.5°C | 4.5% | 75.2hPa | 2.5V | 08:16:57 | 02:28:26 | 00:00:00 | |
| DL1XH-west | 2026-09-04 00:46:21 | 51.09270 | 8.38006 | 130° | 44km/h | 18374m | -10.3m/s | -56.5°C | 0.8% | 75.4hPa | 2.5V | 08:17:29 | 02:28:27 | 00:00:00 | |
| AA1-15 | 2026-09-04 00:46:18 | 51.09292 | 8.37964 | 129° | 44km/h | 18404m | -10m/s | -56.6°C | 0.9% | 75hPa | 2.6V | 08:17:29 | 02:28:24 | 00:00:00 | |
| BIOWL1-15 | 2026-09-04 00:46:16 | 51.09354 | 8.37858 | 133° | 35km/h | 18495m | -10.1m/s | -56.8°C | 0.9% | 74hPa | 2.5V | 08:17:29 | 02:28:15 | 00:00:00 | |
| HSKMA3-T | 2026-09-04 00:46:16 | 51.09306 | 8.37937 | 131° | 42km/h | 18424m | -10m/s | -56.7°C | 0.9% | 74.8hPa | 2.6V | 08:17:29 | 02:28:22 | 00:00:00 | |
| DL1XH1-15 | 2026-09-04 00:46:15 | 51.09321 | 8.37912 | 133° | 40km/h | 18444m | -10m/s | -56.9°C | 4.6% | 74.5hPa | 2.5V | 08:17:03 | 02:28:20 | 00:00:00 | |
| DO2KSM | 2026-09-04 00:46:14 | 51.09321 | 8.37912 | 134° | 40km/h | 18445m | -10.0m/s | -56.9°C | 1.4% | 74.5hPa | 2.5V | 08:17:00 | 00:00:00 | 00:00:00 | |
| DF8AY | 2026-09-04 00:46:14 | 51.09328 | 8.37901 | 134° | 40km/h | 18454m | -10m/s | -56.9°C | 0.9% | 0hPa | 2.5V | 08:17:29 | 02:28:19 | 00:00:00 | |
| DL1NUX | 2026-09-04 00:46:13 | 51.09354 | 8.37858 | 132° | 35km/h | 18495m | -10.1m/s | -56.8°C | 4.6% | 74hPa | 2.5V | 08:17:08 | 02:28:15 | 00:00:00 | |
| DL1XH-west | 2026-09-04 00:46:11 | 51.09341 | 8.37879 | 133° | 37km/h | 18475m | -10.1m/s | -56.9°C | 0.9% | 74.2hPa | 2.6V | 08:17:29 | 02:28:17 | 00:00:00 | |
| AA1-15 | 2026-09-04 00:46:08 | 51.09365 | 8.37838 | 131° | 33km/h | 18516m | -10.3m/s | -56.9°C | 0.9% | 73.7hPa | 2.5V | 08:17:29 | 02:28:13 | 00:00:00 | |
| DM0DOS-11 | 2026-09-04 00:46:06 | 51.09381 | 8.37809 | 130° | 31km/h | 18546m | -10.1m/s | -56.9°C | 4.5% | 73.3hPa | 2.5V | 08:17:13 | 02:28:10 | 00:00:00 | |
| HSKMA3-T | 2026-09-04 00:46:06 | 51.09371 | 8.37828 | 132° | 33km/h | 18526m | -10m/s | -56.9°C | 0.9% | 73.6hPa | 2.6V | 08:17:29 | 02:28:12 | 00:00:00 | |
| DL4BBY-15 | 2026-09-04 00:46:06 | 51.09371 | 8.37828 | 133° | 26km/h | 18525m | -10.0m/s | -56.6°C | 0% | 0hPa | 2.5V | 00:00:00 | 00:00:00 | 00:00:00 | |
| DD1CC8 | 2026-09-04 00:46:05 | 51.09376 | 8.37818 | 128° | 31km/h | 18536m | -10.0m/s | -56.9°C | 1.4% | 73.4hPa | 2.5V | 00:00:00 | 00:00:00 | 00:00:00 | |
| DL1NUX | 2026-09-04 00:46:04 | 51.09404 | 8.37763 | 126° | 26km/h | 18597m | -10.2m/s | -57.1°C | 4.6% | 72.7hPa | 2.5V | 08:17:18 | 02:28:05 | 00:00:00 | |
| DF8AY | 2026-09-04 00:46:02 | 51.09391 | 8.37790 | 130° | 29km/h | 18567m | -10.3m/s | -56.9°C | 0.9% | 0hPa | 2.5V | 08:17:29 | 02:28:08 | 00:00:00 | |
| DL1XH-west | 2026-09-04 00:46:01 | 51.09395 | 8.37781 | 127° | 29km/h | 18577m | -10.1m/s | -57°C | 0.9% | 73hPa | 2.6V | 08:17:29 | 02:28:07 | 00:00:00 | |
| BIOWL1-15 | 2026-09-04 00:45:56 | 51.09416 | 8.37738 | 126° | 26km/h | 18628m | -10.3m/s | -57.2°C | 0.9% | 72.4hPa | 2.6V | 08:17:29 | 02:28:02 | 00:00:00 | |
| HSKMA3-T | 2026-09-04 00:45:55 | 51.09419 | 8.37731 | 121° | 22km/h | 18638m | -10.1m/s | -57.2°C | 0.9% | 72.3hPa | 2.6V | 08:17:29 | 02:28:01 | 00:00:00 | |
| DO3MHA-11 | 2026-09-04 00:45:54 | 51.09422 | 8.37723 | 118° | 18km/h | 18648m | -10.2m/s | -57.2°C | 4.7% | 72.1hPa | 2.6V | 00:00:00 | 02:28:00 | 00:00:00 | |
| DD8BA-10 | 2026-09-04 00:45:53 | 51.09424 | 8.37715 | 115° | 22km/h | 18659m | -10.4m/s | -57.3°C | 4.6% | 72.0hPa | 2.6V | 00:00:00 | 00:00:00 | 00:00:00 | |
| DL1XH-15 | 2026-09-04 00:45:52 | 51.09429 | 8.37691 | 101° | 22km/h | 18690m | -10.6m/s | -57.3°C | 4.6% | 71.7hPa | 2.6V | 08:17:27 | 02:27:56 | 00:00:00 | |
| DF8AY | 2026-09-04 00:45:50 | 51.09429 | 8.37691 | 101° | 22km/h | 18690m | -10.6m/s | -57.3°C | 0.9% | 0hPa | 2.6V | 08:17:29 | 02:27:56 | 00:00:00 | |
| AA1-15 | 2026-09-04 00:45:47 | 51.09432 | 8.37663 | 96° | 24km/h | 18721m | -10.6m/s | -57.4°C | 0.9% | 71.3hPa | 2.5V | 08:18:20 | 02:27:53 | 00:00:00 | |
| NBG1-10 | 2026-09-04 00:45:47 | 51.09432 | 8.37663 | 97° | 33km/h | 18722m | -10.5m/s | -57.4°C | 4.6% | 71.3hPa | 2.6V | 00:00:00 | 02:27:53 | 00:00:00 | |
| DM0DOS-11 | 2026-09-04 00:45:46 | 51.09433 | 8.37634 | 88° | 26km/h | 18752m | -10.1m/s | -57.4°C | 4.6% | 71hPa | 2.6V | 08:17:33 | 02:27:50 | 00:00:00 | |
| HSKMA3-T | 2026-09-04 00:45:45 | 51.09433 | 8.37644 | 95° | 26km/h | 18742m | -9.7m/s | -57.4°C | 0.9% | 71.1hPa | 2.6V | 08:18:20 | 02:27:51 | 00:00:00 | |
| DD8BA-10 | 2026-09-04 00:45:43 | 51.09432 | 8.37623 | 89° | 29km/h | 18763m | -10.4m/s | -57.4°C | 4.7% | 70.8hPa | 2.6V | 00:00:00 | 00:00:00 | 00:00:00 | |
| DL1XH-15 | 2026-09-04 00:45:42 | 51.09430 | 8.37592 | 77° | 26km/h | 18793m | -9.5m/s | -57.5°C | 4.7% | 70.5hPa | 2.5V | 08:17:37 | 02:27:46 | 00:00:00 | |
| DF8AY | 2026-09-04 00:45:40 | 51.09430 | 8.37592 | 78° | 26km/h | 18793m | -9.5m/s | -57.5°C | 0.9% | 0hPa | 2.5V | 08:18:20 | 02:27:46 | 00:00:00 | |
| DL1XH-west | 2026-09-04 00:45:39 | 51.09428 | 8.37581 | 77° | 29km/h | 18803m | -10.3m/s | -57.5°C | 0.9% | 70.4hPa | 2.5V | 08:18:20 | 02:27:45 | 00:00:00 | |
| AA1-15 | 2026-09-04 00:45:37 | 51.09425 | 8.37558 | 75° | 33km/h | 18823m | -10m/s | -57.7°C | 0.9% | 70.2hPa | 2.6V | 08:18:20 | 02:27:43 | 00:00:00 | |
| HSKMA3-T | 2026-09-04 00:45:34 | 51.09418 | 8.37520 | 75° | 33km/h | 18855m | -10.4m/s | -57.9°C | 0.9% | 69.8hPa | 2.5V | 08:18:20 | 02:27:40 | 00:00:00 | |
| BIOWL1-15 | 2026-09-04 00:45:33 | 51.09416 | 8.37507 | 73° | 33km/h | 18865m | -10.9m/s | -58°C | 1% | 69.7hPa | 2.6V | 08:18:20 | 02:27:39 | 00:00:00 | |
| DL1NUX | 2026-09-04 00:45:33 | 51.09407 | 8.37456 | 75° | 33km/h | 18909m | -10.8m/s | -58.3°C | 5% | 69.2hPa | 2.5V | 08:17:48 | 02:27:35 | 00:00:00 | |
| DF8AY | 2026-09-04 00:45:30 | 51.09400 | 8.37385 | 85° | 38km/h | 18961m | -10.6m/s | -58.2°C | 1% | 0hPa | 2.5V | 08:18:20 | 02:27:30 | 00:00:00 | |
| DM0DOS-11 | 2026-09-04 00:45:29 | 51.09401 | 8.37385 | 84° | 38km/h | 18961m | -10.6m/s | -58.2°C | 5% | 68.7hPa | 2.5V | 08:17:53 | 02:27:30 | 00:00:00 | |
| DL1XH-west | 2026-09-04 00:45:28 | 51.09405 | 8.37443 | 79° | 35km/h | 18920m | -10.4m/s | -58.2°C | 1.1% | 69.1hPa | 2.6V | 08:18:20 | 02:27:34 | 00:00:00 | |
| AA1-15 | 2026-09-04 00:45:26 | 51.09402 | 8.37415 | 82° | 37km/h | 18940m | -10.2m/s | -58.1°C | 1% | 68.9hPa | 2.5V | 08:18:20 | 02:27:32 | 00:00:00 | |
| HSKMA3-T | 2026-09-04 00:45:23 | 51.09400 | 8.37370 | 88° | 38km/h | 18972m | -10.7m/s | -58.3°C | 1.1% | 68.6hPa | 2.6V | 08:18:20 | 02:27:29 | 00:00:00 | |
| BIOWL1-15 | 2026-09-04 00:45:22 | 51.09399 | 8.37354 | 87° | 38km/h | 18982m | -10.4m/s | -58.3°C | 1.1% | 68.4hPa | 2.6V | 08:18:20 | 02:27:28 | 00:00:00 | |
| DF8AY | 2026-09-04 00:45:20 | 51.09399 | 8.37308 | 92° | 38km/h | 19014m | -10.7m/s | -58.4°C | 1.1% | 0hPa | 2.5V | 08:18:20 | 02:27:25 | 00:00:00 | |
| DO1YAY-16 | 2026-09-04 00:45:19 | 51.09399 | 8.37293 | 91° | 35km/h | 19025m | -10.4m/s | -58.3°C | 1.5% | 68.0hPa | 2.5V | 00:00:00 | 00:00:00 | 00:00:00 | |
| DK9SH | 2026-09-04 00:45:18 | 51.09399 | 8.37293 | 93° | 37km/h | 19025m | -10.4m/s | -58.3°C | 1.5% | 68.0hPa | 2.5V | 08:18:00 | 00:00:00 | 00:00:00 | |
| DL1XH-west | 2026-09-04 00:45:18 | 51.09400 | 8.37264 | 95° | 37km/h | 19046m | -10.7m/s | -58.2°C | 1.1% | 67.7hPa | 2.5V | 08:18:20 | 02:27:22 | 00:00:00 | |
| DM0DOS-11 | 2026-09-04 00:45:17 | 51.09402 | 8.37234 | 98° | 37km/h | 19068m | -10.7m/s | -58°C | 5% | 67.5hPa | 2.5V | 08:18:03 | 02:27:20 | 00:00:00 | |
| AA1-15 | 2026-09-04 00:45:15 | 51.09401 | 8.37249 | 96° | 38km/h | 19057m | -10.8m/s | -58.1°C | 1.1% | 67.7hPa | 2.5V | 08:18:20 | 02:27:21 | 00:00:00 | |
| HSKMA3-T | 2026-09-04 00:45:13 | 51.09404 | 8.37219 | 100° | 38km/h | 19079m | -10.9m/s | -57.8°C | 1% | 67.4hPa | 2.6V | 08:18:20 | 02:27:19 | 00:00:00 | |
| BIOWL1-15 | 2026-09-04 00:45:11 | 51.09408 | 8.37189 | 103° | 38km/h | 19101m | -11.1m/s | -57.7°C | 1% | 67.1hPa | 2.5V | 08:18:20 | 02:27:17 | 00:00:00 | |
| DO2KSM | 2026-09-04 00:45:11 | 51.09408 | 8.37189 | 104° | 38km/h | 19101m | -11.1m/s | -57.7°C | 1.4% | 67.1hPa | 2.5V | 08:18:00 | 00:00:00 | 00:00:00 | |
| DM0DOS-11 | 2026-09-04 00:45:10 | 51.09427 | 8.37079 | 107° | 44km/h | 19176m | -10.9m/s | -57°C | 4.8% | 66.4hPa | 2.5V | 08:18:13 | 02:27:10 | 00:00:00 | |
| DF8AY | 2026-09-04 00:45:08 | 51.09418 | 8.37128 | 105° | 40km/h | 19144m | -10.6m/s | -57.6°C | 1% | 0hPa | 2.6V | 08:18:20 | 02:27:13 | 00:00:00 | |
| DL1XH-west | 2026-09-04 00:45:05 | 51.09424 | 8.37095 | 106° | 42km/h | 19166m | -10.8m/s | -57.1°C | 1% | 66.5hPa | 2.5V | 08:18:20 | 02:27:11 | 00:00:00 | |
| AA1-15 | 2026-09-04 00:45:04 | 51.09427 | 8.37079 | 108° | 44km/h | 19176m | -10.9m/s | -57°C | 1% | 66.4hPa | 2.5V | 08:18:20 | 02:27:10 | 00:00:00 | |
| HSKMA3-T | 2026-09-04 00:45:03 | 51.09434 | 8.37045 | 109° | 46km/h | 19198m | -10.8m/s | -57°C | 0.9% | 66.2hPa | 2.6V | 08:18:20 | 02:27:08 | 00:00:00 | |
| DL1XH-15 | 2026-09-04 00:45:02 | 51.09442 | 8.37010 | 110° | 47km/h | 19220m | -11.2m/s | -57°C | 4.9% | 65.9hPa | 2.5V | 08:18:17 | 02:27:06 | 00:00:00 | |
| BIOWL1-15 | 2026-09-04 00:45:00 | 51.09472 | 8.36911 | 121° | 42km/h | 19286m | -10.8m/s | -56.8°C | 1% | 65.2hPa | 2.5V | 08:19:11 | 02:27:00 | 00:00:00 | |
| DF8AY | 2026-09-04 00:44:58 | 51.09451 | 8.36975 | 114° | 47km/h | 19242m | -11.1m/s | 0°C | 0% | 0hPa | 2.6V | 08:18:20 | 02:27:04 | 00:00:00 | |
| DK9SH | 2026-09-04 00:44:58 | 51.09451 | 8.36975 | 114° | 47km/h | 19242m | -11.1m/s | -57.0°C | 1.4% | 65.7hPa | 2.5V | 08:18:00 | 00:00:00 | 00:00:00 | |
| DO3DL | 2026-09-04 00:44:57 | 51.09456 | 8.36958 | 118° | 47km/h | 19253m | -10.9m/s | -56.9°C | 1.4% | 65.6hPa | 2.5V | 08:18:00 | 00:00:00 | 00:00:00 | |
| DM0DOS-11 | 2026-09-04 00:44:56 | 51.09472 | 8.36911 | 121° | 42km/h | 19286m | -10.8m/s | -56.8°C | 4.9% | 65.2hPa | 2.5V | 08:18:23 | 02:27:00 | 00:00:00 | |
| DL1XH-west | 2026-09-04 00:44:55 | 51.09467 | 8.36926 | 121° | 44km/h | 19275m | -10.7m/s | -56.8°C | 1% | 65.3hPa | 2.5V | 08:19:11 | 02:27:01 | 00:00:00 | |
| AA1-15 | 2026-09-04 00:44:53 | 51.09478 | 8.36897 | 124° | 40km/h | 19297m | -11m/s | -56.8°C | 1.1% | 65.1hPa | 2.6V | 08:19:11 | 02:26:59 | 00:00:00 | |
| DL1CLM-18 | 2026-09-04 00:44:53 | 51.09477 | 8.36897 | 125° | 40km/h | 19297m | -11.0m/s | -56.8°C | 1.4% | 65.1hPa | 2.5V | 08:19:00 | 00:00:00 | 00:00:00 | |
| DL1XH-15 | 2026-09-04 00:44:52 | 51.09495 | 8.36861 | 130° | 35km/h | 19330m | -10.9m/s | -56.5°C | 4.9% | 64.8hPa | 2.5V | 08:18:27 | 02:26:56 | 00:00:00 | |
| HSKMA3-T | 2026-09-04 00:44:52 | 51.09484 | 8.36884 | 126° | 38km/h | 19308m | -10.8m/s | -56.8°C | 1% | 65hPa | 2.6V | 08:19:11 | 02:26:58 | 00:00:00 | |
| BIOWL1-15 | 2026-09-04 00:44:50 | 51.09495 | 8.36861 | 130° | 35km/h | 19330m | -10.9m/s | -56.5°C | 1% | 64.8hPa | 2.5V | 08:19:11 | 02:26:56 | 00:00:00 | |
| DM0DOS-11 | 2026-09-04 00:44:49 | 51.09521 | 8.36800 | 114° | 29km/h | 19396m | -11.1m/s | -55.2°C | 4.4% | 64.1hPa | 2.5V | 08:18:33 | 02:26:50 | 00:00:00 | |
| DF8AY | 2026-09-04 00:44:48 | 51.09510 | 8.36831 | 124° | 29km/h | 19362m | -10.7m/s | 0°C | 0% | 0hPa | 2.6V | 18:12:15 | 02:26:53 | 00:00:00 | |
| DL1ZP-14 | 2026-09-04 00:44:46 | 51.09518 | 8.36811 | 115° | 27km/h | 19385m | -11.1m/s | -55.4°C | 1.3% | 64.2hPa | 2.5V | 00:00:00 | 00:00:00 | 00:00:00 | |
| DL1XH-west | 2026-09-04 00:44:44 | 51.09521 | 8.36800 | 115° | 29km/h | 19396m | -11.1m/s | -55.2°C | 0.8% | 64.1hPa | 2.5V | 08:19:11 | 02:26:50 | 00:00:00 | |
| DL1NUX | 2026-09-04 00:44:44 | 51.09534 | 8.36738 | 106° | 35km/h | 19450m | -10.9m/s | -55°C | 4.3% | 63.6hPa | 2.5V | 08:18:38 | 02:26:45 | 00:00:00 | |
| AA1-15 | 2026-09-04 00:44:43 | 51.09524 | 8.36789 | 109° | 29km/h | 19407m | -11.1m/s | -55.1°C | 0.8% | 64hPa | 2.6V | 08:19:11 | 02:26:49 | 00:00:00 | |
| DJ2DS-15 | 2026-09-04 00:44:43 | 51.09524 | 8.36789 | 110° | 38km/h | 19407m | -11.0m/s | -55.1°C | 4.4% | 64.0hPa | 2.5V | 00:00:00 | 02:26:49 | 00:00:00 | |
| DL1XH-15 | 2026-09-04 00:44:42 | 51.09532 | 8.36752 | 106° | 35km/h | 19439m | -10.6m/s | -55.1°C | 4.4% | 63.7hPa | 2.5V | 08:18:37 | 02:26:46 | 00:00:00 | |
| HSKMA3-T | 2026-09-04 00:44:41 | 51.09529 | 8.36765 | 107° | 33km/h | 19429m | -10.8m/s | -55.1°C | 0.7% | 63.8hPa | 2.5V | 08:19:11 | 02:26:47 | 00:00:00 | |
| BIOWL1-15 | 2026-09-04 00:44:39 | 51.09537 | 8.36725 | 106° | 37km/h | 19461m | -11m/s | -54.8°C | 0.6% | 63.5hPa | 2.6V | 08:19:11 | 02:26:44 | 00:00:00 | |
| DK9SH | 2026-09-04 00:44:38 | 51.09537 | 8.36725 | 107° | 37km/h | 19461m | -11.0m/s | -54.8°C | 1.2% | 63.4hPa | 2.5V | 08:19:00 | 00:00:00 | 00:00:00 | |
| DM0DOS-11 | 2026-09-04 00:44:36 | 51.09547 | 8.36669 | 104° | 37km/h | 19506m | -11.1m/s | -54.6°C | 4.3% | 63hPa | 2.5V | 08:18:43 | 02:26:40 | 00:00:00 | |
| DL1XH-west | 2026-09-04 00:44:34 | 51.09547 | 8.36669 | 104° | 37km/h | 19506m | -11.1m/s | -54.6°C | 0.7% | 63hPa | 2.5V | 08:19:11 | 02:26:40 | 00:00:00 | |
| AA1-15 | 2026-09-04 00:44:33 | 51.09549 | 8.36655 | 106° | 37km/h | 19517m | -11.1m/s | -54.4°C | 0.7% | 62.9hPa | 2.6V | 08:19:11 | 02:26:39 | 00:00:00 | |
| DL1XH-15 | 2026-09-04 00:44:32 | 51.09557 | 8.36611 | 103° | 38km/h | 19551m | -11.2m/s | -54°C | 4.1% | 62.6hPa | 2.5V | 08:18:47 | 02:26:36 | 00:00:00 | |
| HSKMA3-T | 2026-09-04 00:44:31 | 51.09554 | 8.36626 | 106° | 38km/h | 19540m | -11.1m/s | -53.9°C | 0.5% | 62.7hPa | 2.5V | 08:19:11 | 02:26:37 | 00:00:00 | |
| BIOWL1-15 | 2026-09-04 00:44:28 | 51.09565 | 8.36563 | 108° | 44km/h | 19584m | -11.2m/s | -54°C | 0.6% | 62.3hPa | 2.6V | 08:19:11 | 02:26:33 | 00:00:00 | |
| DM0DOS-11 | 2026-09-04 00:44:26 | 51.09578 | 8.36515 | 117° | 42km/h | 19618m | -11.1m/s | -54.1°C | 4.2% | 61.9hPa | 2.5V | 08:18:53 | 02:26:30 | 00:00:00 | |
| DL1XH-west | 2026-09-04 00:44:24 | 51.09583 | 8.36500 | 120° | 44km/h | 19629m | -11.3m/s | -54.2°C | 0.6% | 61.8hPa | 2.6V | 08:19:11 | 02:26:29 | 00:00:00 | |
| AA1-15 | 2026-09-04 00:44:22 | 51.09588 | 8.36485 | 124° | 42km/h | 19641m | -11m/s | -54.2°C | 0.7% | 61.7hPa | 2.6V | 08:19:11 | 02:26:28 | 00:00:00 | |
| DL1XH-15 | 2026-09-04 00:44:22 | 51.09600 | 8.36458 | 128° | 40km/h | 19663m | -11.2m/s | -54.3°C | 4.3% | 61.5hPa | 2.5V | 08:18:57 | 02:26:26 | 00:00:00 | |
| DL1NUX | 2026-09-04 00:44:22 | 51.09606 | 8.36446 | 127° | 38km/h | 19674m | -11.2m/s | -54.3°C | 4.4% | 61.4hPa | 2.5V | 08:18:58 | 02:26:25 | 00:00:00 | |
| HSKMA3-T | 2026-09-04 00:44:21 | 51.09600 | 8.36458 | 129° | 40km/h | 19663m | -11.2m/s | -54.3°C | 0.7% | 61.5hPa | 2.5V | 08:19:11 | 02:26:26 | 00:00:00 | |
| DM0DOS-11 | 2026-09-04 00:44:19 | 51.09636 | 8.36396 | 134° | 31km/h | 19730m | -11.4m/s | -53.1°C | 3.9% | 60.9hPa | 2.5V | 08:19:03 | 02:26:20 | 00:00:00 | |
| BIOWL1-15 | 2026-09-04 00:44:16 | 51.09636 | 8.36396 | 135° | 31km/h | 19730m | -11.4m/s | -53.1°C | 0.5% | 60.9hPa | 2.5V | 08:19:11 | 02:26:20 | 00:00:00 | |
| DL1NUX | 2026-09-04 00:44:14 | 51.09657 | 8.36359 | 130° | 20km/h | 19787m | -11.4m/s | -52.7°C | 3.8% | 60.3hPa | 2.5V | 08:19:08 | 02:26:15 | 00:00:00 | |
| DL1XH-west | 2026-09-04 00:44:13 | 51.09641 | 8.36388 | 134° | 27km/h | 19742m | -11.3m/s | -53°C | 0.5% | 60.8hPa | 2.6V | 08:19:11 | 02:26:19 | 00:00:00 | |
| DL1XH-15 | 2026-09-04 00:44:12 | 51.09653 | 8.36366 | 127° | 24km/h | 19776m | -11.4m/s | -52.7°C | 3.8% | 60.4hPa | 2.5V | 08:19:07 | 02:26:16 | 00:00:00 | |
| AA1-15 | 2026-09-04 00:44:12 | 51.09645 | 8.36380 | 132° | 26km/h | 19753m | -11.2m/s | -52.9°C | 0.4% | 60.6hPa | 2.6V | 08:19:11 | 02:26:18 | 00:00:00 | |
| DF8AY | 2026-09-04 00:44:11 | 51.09649 | 8.36373 | 133° | 24km/h | 19764m | -11.4m/s | 0°C | 0% | 0hPa | 2.5V | 18:12:15 | 02:26:17 | 00:00:00 | |
| HSKMA3-T | 2026-09-04 00:44:10 | 51.09653 | 8.36366 | 127° | 24km/h | 19776m | -11.4m/s | -52.7°C | 0.4% | 60.4hPa | 2.5V | 08:19:11 | 02:26:16 | 00:00:00 | |
| DL1XH-west | 2026-09-04 00:44:03 | 51.09674 | 8.36330 | 137° | 11km/h | 19857m | -11.7m/s | -52.8°C | 0.4% | 59.7hPa | 2.6V | 08:20:02 | 02:26:09 | 00:00:00 | |
| DO3DL | 2026-09-04 00:44:03 | 51.09674 | 8.36330 | 138° | 11km/h | 19857m | -11.7m/s | -52.8°C | 1.0% | 59.7hPa | 2.5V | 08:20:00 | 00:00:00 | 00:00:00 | |
| DL1NUX | 2026-09-04 00:44:02 | 51.09678 | 8.36319 | 99° | 9km/h | 19903m | -11.6m/s | -52.4°C | 3.6% | 59.2hPa | 2.5V | 08:19:18 | 02:26:05 | 00:00:00 | |
| AA1-15 | 2026-09-04 00:44:02 | 51.09676 | 8.36327 | 123° | 7km/h | 19868m | -11.6m/s | -52.8°C | 0.4% | 59.6hPa | 2.6V | 08:20:02 | 02:26:08 | 00:00:00 | |
| HSKMA3-T | 2026-09-04 00:44:00 | 51.09678 | 8.36322 | 96° | 7km/h | 19891m | -11.2m/s | -52.5°C | 0.4% | 59.3hPa | 2.5V | 08:20:02 | 02:26:06 | 00:00:00 | |
| DB0ND-19 | 2026-09-04 00:43:55 | 51.09677 | 8.36305 | 74° | 11km/h | 19948m | -11.1m/s | -52.5°C | 1.0% | 58.8hPa | 2.5V | 00:00:00 | 00:00:00 | 00:00:00 | |
| DL1NUX | 2026-09-04 00:43:54 | 51.09668 | 8.36279 | 51° | 16km/h | 20018m | -12.1m/s | -52.7°C | 3.7% | 58.2hPa | 2.5V | 08:19:28 | 02:25:55 | 00:00:00 | |
| DL1XH-west | 2026-09-04 00:43:52 | 51.09673 | 8.36293 | 60° | 11km/h | 19982m | -11.5m/s | -52.4°C | 0.3% | 58.5hPa | 2.6V | 08:20:02 | 02:25:58 | 00:00:00 | |
| BIOWL1-15 | 2026-09-04 00:43:52 | 51.09665 | 8.36274 | 48° | 16km/h | 20030m | -11.7m/s | -52.9°C | 0.4% | 58.1hPa | 2.6V | 08:20:02 | 02:25:54 | 00:00:00 | |
| AA1-15 | 2026-09-04 00:43:51 | 51.09672 | 8.36288 | 57° | 15km/h | 19994m | -11.8m/s | -52.5°C | 0.4% | 58.4hPa | 2.5V | 08:20:02 | 02:25:57 | 00:00:00 | |
| HSKMA3-T | 2026-09-04 00:43:49 | 51.09668 | 8.36279 | 51° | 16km/h | 20018m | -12.1m/s | -52.7°C | 0.4% | 58.2hPa | 2.5V | 08:20:02 | 02:25:55 | 00:00:00 | |
| EDDB2-11 | 2026-09-04 00:43:46 | 51.09655 | 8.36257 | 47° | 22km/h | 20065m | -11.7m/s | -53.0°C | 1.0% | 57.8hPa | 2.6V | 00:00:00 | 00:00:00 | 00:00:00 | |
| DO1YAY-16 | 2026-09-04 00:43:45 | 51.09655 | 8.36257 | 47° | 22km/h | 20065m | -11.7m/s | -53.0°C | 1.0% | 57.8hPa | 2.6V | 00:00:00 | 00:00:00 | 00:00:00 | |
| DL1XH-west | 2026-09-04 00:43:42 | 51.09644 | 8.36237 | 52° | 24km/h | 20100m | -11.9m/s | -53.4°C | 0.5% | 57.5hPa | 2.6V | 08:20:02 | 02:25:48 | 00:00:00 | |
| DL1NUX | 2026-09-04 00:43:42 | 51.09634 | 8.36216 | 53° | 20km/h | 20136m | -12m/s | -53.7°C | 3.9% | 57.1hPa | 2.5V | 08:19:38 | 02:25:45 | 00:00:00 | |
| BIOWL1-15 | 2026-09-04 00:43:40 | 51.09624 | 8.36189 | 67° | 18km/h | 20184m | -12.1m/s | -53.9°C | 0.5% | 56.7hPa | 2.5V | 08:20:02 | 02:25:41 | 00:00:00 | |
| AA1-15 | 2026-09-04 00:43:40 | 51.09637 | 8.36223 | 55° | 22km/h | 20124m | -11.6m/s | -53.6°C | 0.5% | 57.3hPa | 2.5V | 08:20:02 | 02:25:46 | 00:00:00 | |
| HSKMA3-T | 2026-09-04 00:43:39 | 51.09634 | 8.36216 | 53° | 20km/h | 20136m | -12m/s | -53.7°C | 0.5% | 57.1hPa | 2.5V | 08:20:02 | 02:25:45 | 00:00:00 | |
| DM0DOS-11 | 2026-09-04 00:43:39 | 51.09622 | 8.36182 | 69° | 18km/h | 20196m | -12.1m/s | -53.8°C | 3.9% | 56.6hPa | 2.5V | 08:19:43 | 02:25:40 | 00:00:00 | |
| DL8DAS-14 | 2026-09-04 00:43:39 | 51.09631 | 8.36209 | 56° | 20km/h | 20148m | -12.3m/s | -53.8°C | 1.1% | 57.0hPa | 2.5V | 00:00:00 | 00:00:00 | 00:00:00 | |
| DJ8HS-15 | 2026-09-04 00:43:38 | 51.09631 | 8.36209 | 57° | 18km/h | 20148m | -12.2m/s | -53.7°C | 3.9% | 57.0hPa | 2.5V | 00:00:00 | 02:25:44 | 00:00:00 | |
| HTAHTA | 2026-09-04 00:43:37 | 51.09626 | 8.36195 | 61° | 20km/h | 20172m | -11.7m/s | -53.9°C | 1.1% | 56.8hPa | 2.5V | 00:00:00 | 00:00:00 | 00:00:00 | |
| DL8DAS-15 | 2026-09-04 00:43:36 | 51.09625 | 8.36195 | 62° | 20km/h | 20172m | -11.7m/s | -53.8°C | 1.2% | 56.8hPa | 2.5V | 00:00:00 | 00:00:00 | 00:00:00 | |
| NBG1-10 | 2026-09-04 00:43:35 | 51.09623 | 8.36188 | 67° | 18km/h | 20184m | -12.1m/s | -53.8°C | 3.9% | 56.7hPa | 2.5V | 00:00:00 | 02:25:41 | 00:00:00 | |
| DL1NUX | 2026-09-04 00:43:34 | 51.09618 | 8.36152 | 91° | 15km/h | 20256m | -12.3m/s | -54.1°C | 4% | 56.1hPa | 2.5V | 08:19:48 | 02:25:35 | 00:00:00 | |
| DL1XH-west | 2026-09-04 00:43:32 | 51.09620 | 8.36169 | 76° | 16km/h | 20219m | -12.1m/s | -53.9°C | 0.5% | 56.4hPa | 2.6V | 08:20:02 | 02:25:38 | 00:00:00 | |
| BIOWL1-15 | 2026-09-04 00:43:30 | 51.09619 | 8.36158 | 82° | 15km/h | 20244m | -12.1m/s | -54°C | 0.5% | 56.2hPa | 2.5V | 08:20:02 | 02:25:36 | 00:00:00 | |
| HSKMA3-T | 2026-09-04 00:43:29 | 51.09619 | 8.36152 | 91° | 15km/h | 20256m | -12.3m/s | -54.1°C | 0.5% | 56.1hPa | 2.5V | 08:20:02 | 02:25:35 | 00:00:00 | |
| DO2KSM | 2026-09-04 00:43:29 | 51.09618 | 8.36152 | 92° | 15km/h | 20256m | -12.3m/s | -54.1°C | 1.1% | 56.1hPa | 2.5V | 08:20:00 | 00:00:00 | 00:00:00 | |
| DM0DOS-11 | 2026-09-04 00:43:26 | 51.09618 | 8.36120 | 84° | 18km/h | 20317m | -12m/s | -54.4°C | 4.1% | 55.6hPa | 2.5V | 08:19:53 | 02:25:30 | 00:00:00 | |
| DJ2KF-10 | 2026-09-04 00:43:26 | 51.09618 | 8.36134 | 87° | 20km/h | 20293m | -12.1m/s | -54.2°C | 4.1% | 55.7hPa | 2.5V | 00:00:00 | 02:25:32 | 00:00:00 | |
| DL8DAS-15 | 2026-09-04 00:43:25 | 51.09618 | 8.36134 | 87° | 16km/h | 20293m | -12.1m/s | -54.3°C | 1.2% | 55.8hPa | 2.6V | 00:00:00 | 00:00:00 | 00:00:00 | |
| DB0ND-19 | 2026-09-04 00:43:24 | 51.09618 | 8.36120 | 84° | 18km/h | 20317m | -12.0m/s | -54.4°C | 1.2% | 55.6hPa | 2.6V | 00:00:00 | 00:00:00 | 00:00:00 | |
| DJ2DS-15 | 2026-09-04 00:43:23 | 51.09618 | 8.36112 | 90° | 22km/h | 20330m | -12.2m/s | -54.4°C | 4.1% | 55.4hPa | 2.6V | 08:19:00 | 02:25:29 | 00:00:00 | |
| DL1XH-15 | 2026-09-04 00:43:22 | 51.09620 | 8.36056 | 103° | 26km/h | 20402m | -12.1m/s | -54.6°C | 4.3% | 54.8hPa | 2.6V | 08:20:00 | 02:25:23 | 00:00:00 | |
| DL1NUX | 2026-09-04 00:43:22 | 51.09618 | 8.36075 | 96° | 26km/h | 20378m | -12.2m/s | -54.6°C | 4.2% | 55hPa | 2.5V | 08:19:58 | 02:25:25 | 00:00:00 | |
| DL1XH-west | 2026-09-04 00:43:22 | 51.09618 | 8.36103 | 86° | 22km/h | 20341m | -12.2m/s | -54.5°C | 0.6% | 55.3hPa | 2.6V | 08:20:02 | 02:25:28 | 00:00:00 | |
| BIOWL1-15 | 2026-09-04 00:43:20 | 51.09617 | 8.36085 | 92° | 24km/h | 20366m | -12m/s | -54.5°C | 0.7% | 55.1hPa | 2.5V | 08:20:02 | 02:25:26 | 00:00:00 | |
| AA1-15 | 2026-09-04 00:43:18 | 51.09619 | 8.36065 | 100° | 24km/h | 20390m | -12.3m/s | -54.6°C | 0.6% | 54.9hPa | 2.6V | 08:20:02 | 02:25:24 | 00:00:00 | |
| DM0DOS-11 | 2026-09-04 00:43:18 | 51.09626 | 8.36027 | 116° | 24km/h | 20439m | -12.2m/s | -54.6°C | 4.2% | 54.5hPa | 2.5V | 08:20:03 | 02:25:20 | 00:00:00 | |
| DJ8HS-15 | 2026-09-04 00:43:18 | 51.09619 | 8.36065 | 101° | 20km/h | 20391m | -12.2m/s | -54.6°C | 4.1% | 54.9hPa | 2.5V | 00:00:00 | 02:25:24 | 00:00:00 | |
| DO3DL | 2026-09-04 00:43:17 | 51.09620 | 8.36056 | 104° | 26km/h | 20403m | -12.1m/s | -54.7°C | 1.2% | 54.8hPa | 2.5V | 08:20:00 | 00:00:00 | 00:00:00 | |
| EDDB2-11 | 2026-09-04 00:43:15 | 51.09626 | 8.36027 | 116° | 24km/h | 20439m | -12.3m/s | -54.6°C | 1.2% | 54.5hPa | 2.5V | 00:00:00 | 00:00:00 | 00:00:00 | |
| DO1YAY-16 | 2026-09-04 00:43:14 | 51.09626 | 8.36027 | 116° | 24km/h | 20439m | -12.3m/s | -54.6°C | 1.2% | 54.5hPa | 2.5V | 00:00:00 | 00:00:00 | 00:00:00 | |
| DL1NUX | 2026-09-04 00:43:12 | 51.09643 | 8.35988 | 131° | 20km/h | 20500m | -12.1m/s | -54.4°C | 4.1% | 54hPa | 2.5V | 08:20:08 | 02:25:15 | 00:00:00 | |
| DL1XH-west | 2026-09-04 00:43:12 | 51.09632 | 8.36010 | 124° | 24km/h | 20463m | -12.1m/s | -54.5°C | 0.7% | 54.3hPa | 2.6V | 08:20:53 | 02:25:18 | 00:00:00 | |
| HSKMA3-T | 2026-09-04 00:43:07 | 51.09650 | 8.35977 | 140° | 16km/h | 20524m | -12.2m/s | -54.3°C | 0.6% | 53.8hPa | 2.6V | 08:20:53 | 02:25:13 | 00:00:00 | |
| DM0DOS-11 | 2026-09-04 00:43:06 | 51.09659 | 8.35965 | 135° | 15km/h | 20561m | -12.2m/s | -54°C | 4% | 53.5hPa | 2.5V | 08:20:13 | 02:25:10 | 00:00:00 | |
| DL4BBY-15 | 2026-09-04 00:43:06 | 51.09653 | 8.35973 | 141° | 11km/h | 20537m | -12.3m/s | -53.8°C | 0% | 0hPa | 2.5V | 00:00:00 | 00:00:00 | 00:00:00 | |
| DL1NUX | 2026-09-04 00:43:04 | 51.09668 | 8.35943 | 113° | 15km/h | 20623m | -12.6m/s | -54.3°C | 4% | 52.9hPa | 2.5V | 08:20:18 | 02:25:05 | 00:00:00 | |
| DL1XH-west | 2026-09-04 00:43:01 | 51.09665 | 8.35953 | 122° | 13km/h | 20599m | -12.7m/s | -54.1°C | 0.6% | 53.1hPa | 2.5V | 08:20:53 | 02:25:07 | 00:00:00 | |
| DL1XH-15 | 2026-09-04 00:43:01 | 51.09673 | 8.35925 | 109° | 16km/h | 20662m | -12.7m/s | -54.4°C | 4.1% | 52.6hPa | 2.5V | 08:20:21 | 02:25:02 | 00:00:00 | |
| BIOWL1-15 | 2026-09-04 00:42:59 | 51.09671 | 8.35931 | 113° | 16km/h | 20649m | -12.8m/s | -54.4°C | 0.6% | 52.7hPa | 2.6V | 08:20:53 | 02:25:03 | 00:00:00 | |
| DM0DOS-11 | 2026-09-04 00:42:58 | 51.09676 | 8.35913 | 111° | 16km/h | 20687m | -12.6m/s | -54.6°C | 4.1% | 52.4hPa | 2.5V | 08:20:23 | 02:25:00 | 00:00:00 | |
| HSKMA3-T | 2026-09-04 00:42:56 | 51.09672 | 8.35925 | 109° | 16km/h | 20662m | -12.7m/s | -54.4°C | 0.6% | 52.6hPa | 2.5V | 08:20:53 | 02:25:02 | 00:00:00 | |
| DL3AQ-11 | 2026-09-04 00:42:54 | 51.09677 | 8.35907 | 120° | 13km/h | 20700m | -12.7m/s | -54.7°C | 1.2% | 52.3hPa | 2.5V | 00:00:00 | 00:00:00 | 00:00:00 | |
| DB0ND-19 | 2026-09-04 00:42:53 | 51.09679 | 8.35903 | 112° | 11km/h | 20713m | -12.6m/s | -54.7°C | 1.2% | 52.2hPa | 2.5V | 00:00:00 | 00:00:00 | 00:00:00 | |
| DL1NUX | 2026-09-04 00:42:52 | 51.09681 | 8.35893 | 112° | 7km/h | 20750m | -12.7m/s | -54.8°C | 4.2% | 51.9hPa | 2.5V | 08:20:28 | 02:24:55 | 00:00:00 | |
| DL1XH-west | 2026-09-04 00:42:51 | 51.09680 | 8.35899 | 119° | 9km/h | 20725m | -12.5m/s | -54.7°C | 0.7% | 52.1hPa | 2.5V | 08:20:53 | 02:24:57 | 00:00:00 | |
| BIOWL9-15 | 2026-09-04 00:42:49 | 51.09682 | 8.35890 | 92° | 5km/h | 20763m | -12.7m/s | -54.9°C | 1.2% | 51.8hPa | 2.5V | 00:00:00 | 00:00:00 | 00:00:00 | |
| DM0DOS-11 | 2026-09-04 00:42:47 | 51.09682 | 8.35882 | 86° | 5km/h | 20813m | -12.5m/s | -54.7°C | 4.2% | 51.4hPa | 2.5V | 08:20:33 | 02:24:50 | 00:00:00 | |
| AA1-15 | 2026-09-04 00:42:47 | 51.09682 | 8.35886 | 81° | 5km/h | 20788m | -12.7m/s | -54.9°C | 0.8% | 51.6hPa | 2.5V | 08:20:53 | 02:24:52 | 00:00:00 | |
| HSKMA3-T | 2026-09-04 00:42:45 | 51.09682 | 8.35884 | 103° | 4km/h | 20801m | -12.4m/s | -54.8°C | 0.7% | 51.5hPa | 2.5V | 08:20:53 | 02:24:51 | 00:00:00 | |
| DL1XH-west | 2026-09-04 00:42:40 | 51.09683 | 8.35873 | 97° | 7km/h | 20863m | -12.6m/s | -54.2°C | 0.6% | 51hPa | 2.5V | 08:20:53 | 02:24:46 | 00:00:00 | |
| DM0DOS-11 | 2026-09-04 00:42:38 | 51.09683 | 8.35844 | 89° | 16km/h | 20938m | -12.5m/s | -54.8°C | 4.3% | 50.4hPa | 2.5V | 08:20:43 | 02:24:40 | 00:00:00 | |
| BIOWL1-15 | 2026-09-04 00:42:35 | 51.09683 | 8.35820 | 87° | 22km/h | 20976m | -12.7m/s | -55°C | 0.8% | 50.1hPa | 2.5V | 08:20:53 | 02:24:37 | 00:00:00 | |
| HSKMA3-T | 2026-09-04 00:42:35 | 51.09684 | 8.35850 | 86° | 16km/h | 20925m | -12.7m/s | -54.7°C | 0.7% | 50.5hPa | 2.5V | 08:20:53 | 02:24:41 | 00:00:00 | |
| DJ2DS-15 | 2026-09-04 00:42:34 | 51.09683 | 8.35836 | 84° | 18km/h | 20951m | -12.6m/s | -54.9°C | 1.2% | 50.3hPa | 2.5V | 00:00:00 | 00:00:00 | 00:00:00 | |
| AU51GT2 | 2026-09-04 00:42:32 | 51.09683 | 8.35828 | 91° | 20km/h | 20964m | -12.5m/s | -54.9°C | 1.2% | 50.2hPa | 2.5V | 00:00:00 | 00:00:00 | 00:00:00 | |
| DL1XH-15 | 2026-09-04 00:42:31 | 51.09685 | 8.35772 | 98° | 26km/h | 21041m | -12.9m/s | -55°C | 4.4% | 49.6hPa | 2.5V | 08:20:51 | 02:24:32 | 00:00:00 | |
| DL1XH-west | 2026-09-04 00:42:30 | 51.09683 | 8.35811 | 93° | 24km/h | 20989m | -12.8m/s | -55°C | 0.8% | 50hPa | 2.5V | 08:20:53 | 02:24:36 | 00:00:00 | |
| HSKMA3-T | 2026-09-04 00:42:25 | 51.09686 | 8.35762 | 95° | 24km/h | 21053m | -12.8m/s | -55.1°C | 0.8% | 49.5hPa | 2.5V | 08:20:53 | 02:24:31 | 00:00:00 | |
| AA1-15 | 2026-09-04 00:42:24 | 51.09687 | 8.35753 | 99° | 24km/h | 21067m | -12.9m/s | -55°C | 0.8% | 49.4hPa | 2.5V | 08:20:53 | 02:24:30 | 00:00:00 | |
| BIOWL1-15 | 2026-09-04 00:42:23 | 51.09689 | 8.35726 | 97° | 22km/h | 21106m | -13.1m/s | -54.7°C | 0.8% | 49.1hPa | 2.5V | 08:21:44 | 02:24:27 | 00:00:00 | |
| DJ2DS-15 | 2026-09-04 00:42:23 | 51.09687 | 8.35743 | 96° | 22km/h | 21080m | -13.0m/s | -54.9°C | 4.4% | 49.2hPa | 2.6V | 00:00:00 | 02:24:29 | 00:00:00 | |
| SO1NDE-10 | 2026-09-04 00:42:22 | 51.09688 | 8.35734 | 100° | 20km/h | 21093m | -13.1m/s | -54.8°C | 4.4% | 49.1hPa | 2.5V | 00:00:00 | 02:24:28 | 00:00:00 | |
| DL1XH-15 | 2026-09-04 00:42:21 | 51.09695 | 8.35686 | 112° | 22km/h | 21172m | -13m/s | -54.4°C | 4.3% | 48.6hPa | 2.5V | 08:21:01 | 02:24:22 | 00:00:00 | |
| DL1XH-west | 2026-09-04 00:42:20 | 51.09690 | 8.35717 | 102° | 22km/h | 21119m | -13.3m/s | -54.6°C | 0.8% | 49hPa | 2.5V | 08:21:44 | 02:24:26 | 00:00:00 | |
| HSKMA3-T | 2026-09-04 00:42:14 | 51.09700 | 8.35670 | 114° | 24km/h | 21198m | -12.8m/s | -54.3°C | 0.7% | 48.4hPa | 2.5V | 08:21:44 | 02:24:20 | 00:00:00 | |
| AA1-15 | 2026-09-04 00:42:13 | 51.09702 | 8.35662 | 117° | 22km/h | 21211m | -12.9m/s | -54.3°C | 0.8% | 48.3hPa | 2.6V | 08:21:44 | 02:24:19 | 00:00:00 | |
| EDDB2-11 | 2026-09-04 00:42:13 | 51.09705 | 8.35654 | 116° | 24km/h | 21224m | -13.0m/s | -54.2°C | 1.2% | 48.2hPa | 2.5V | 00:00:00 | 00:00:00 | 00:00:00 | |
| DL1NUX | 2026-09-04 00:42:12 | 51.09714 | 8.35629 | 125° | 24km/h | 21263m | -12.9m/s | -54.1°C | 4.2% | 47.9hPa | 2.5V | 08:21:08 | 02:24:15 | 00:00:00 | |
| DL1XH-15 | 2026-09-04 00:42:11 | 51.09725 | 8.35608 | 133° | 22km/h | 21303m | -13.5m/s | -53.9°C | 4.1% | 47.6hPa | 2.5V | 08:21:11 | 02:24:12 | 00:00:00 | |
| BIOWL1-15 | 2026-09-04 00:42:10 | 51.09711 | 8.35637 | 121° | 24km/h | 21250m | -13.1m/s | -54.1°C | 0.7% | 48hPa | 2.5V | 08:21:44 | 02:24:16 | 00:00:00 | |
| DL1XH-west | 2026-09-04 00:42:09 | 51.09714 | 8.35629 | 126° | 24km/h | 21263m | -12.9m/s | -54.1°C | 0.7% | 47.9hPa | 2.5V | 08:21:44 | 02:24:15 | 00:00:00 | |
| DO3DL | 2026-09-04 00:42:09 | 51.09714 | 8.35629 | 127° | 24km/h | 21263m | -12.9m/s | -54.1°C | 1.1% | 47.9hPa | 2.5V | 08:21:00 | 00:00:00 | 00:00:00 | |
| DO2KSM | 2026-09-04 00:42:07 | 51.09721 | 8.35614 | 135° | 22km/h | 21290m | -13.1m/s | -54.0°C | 1.1% | 47.7hPa | 2.5V | 08:21:00 | 00:00:00 | 00:00:00 | |
| DM0DOS-11 | 2026-09-04 00:42:06 | 51.09733 | 8.35597 | 140° | 20km/h | 21329m | -13.3m/s | -53.9°C | 4.1% | 47.4hPa | 2.5V | 08:21:13 | 02:24:10 | 00:00:00 | |
| HSKMA3-T | 2026-09-04 00:42:04 | 51.09733 | 8.35597 | 141° | 20km/h | 21329m | -13.3m/s | -53.9°C | 0.6% | 47.4hPa | 2.5V | 08:21:44 | 02:24:10 | 00:00:00 | |
| AA1-15 | 2026-09-04 00:42:03 | 51.09737 | 8.35592 | 148° | 22km/h | 21343m | -13.6m/s | -53.8°C | 0.6% | 47.3hPa | 2.5V | 08:21:44 | 02:24:09 | 00:00:00 | |
| DO3DL | 2026-09-04 00:42:03 | 51.09737 | 8.35592 | 149° | 22km/h | 21343m | -13.6m/s | -53.8°C | 1.1% | 47.3hPa | 2.6V | 08:21:00 | 00:00:00 | 00:00:00 | |
| SONCRA | 2026-09-04 00:42:02 | 51.09746 | 8.35584 | 155° | 20km/h | 21371m | -14.2m/s | -53.3°C | 1.1% | 47.1hPa | 2.6V | 00:00:00 | 00:00:00 | 00:00:00 | |
| DL1XH-15 | 2026-09-04 00:42:01 | 51.09768 | 8.35568 | 153° | 16km/h | 21439m | -13.3m/s | -53°C | 3.9% | 46.6hPa | 2.6V | 08:21:21 | 02:24:02 | 00:00:00 | |
| BIOWL1-15 | 2026-09-04 00:42:00 | 51.09755 | 8.35577 | 158° | 18km/h | 21399m | -13.5m/s | -53.1°C | 0.5% | 46.9hPa | 2.5V | 08:21:44 | 02:24:05 | 00:00:00 | |
| DL1XH-west | 2026-09-04 00:41:58 | 51.09760 | 8.35574 | 154° | 18km/h | 21412m | -13.3m/s | -53.1°C | 0.5% | 46.8hPa | 2.5V | 08:21:44 | 02:24:04 | 00:00:00 | |
| DM0DOS-11 | 2026-09-04 00:41:58 | 51.09775 | 8.35563 | 155° | 15km/h | 21466m | -13.5m/s | -53.1°C | 3.9% | 46.4hPa | 2.5V | 08:21:23 | 02:24:00 | 00:00:00 | |
| DJ2DS-15 | 2026-09-04 00:41:58 | 51.09764 | 8.35571 | 156° | 16km/h | 21426m | -13.4m/s | -53.0°C | 1.0% | 46.7hPa | 2.6V | 00:00:00 | 00:00:00 | 00:00:00 | |
| DD1CC8 | 2026-09-04 00:41:57 | 51.09768 | 8.35568 | 153° | 15km/h | 21439m | -13.3m/s | -53.0°C | 1.0% | 46.6hPa | 2.6V | 00:00:00 | 00:00:00 | 00:00:00 | |
| DJ2KF-10 | 2026-09-04 00:41:56 | 51.09768 | 8.35568 | 154° | 9km/h | 21439m | -13.2m/s | -53.0°C | 3.9% | 46.6hPa | 2.6V | 00:00:00 | 02:24:02 | 00:00:00 | |
| DC6BW-12 | 2026-09-04 00:41:55 | 51.09768 | 8.35568 | 154° | 16km/h | 21439m | -13.3m/s | -53.0°C | 1.1% | 46.6hPa | 2.5V | 08:21:00 | 00:00:00 | 00:00:00 | |
| DL1NUX | 2026-09-04 00:41:54 | 51.09790 | 8.35559 | 192° | 11km/h | 21534m | -14.3m/s | -53.2°C | 4% | 45.9hPa | 2.5V | 08:21:28 | 02:23:55 | 00:00:00 | |
| HSKMA3-T | 2026-09-04 00:41:53 | 51.09779 | 8.35561 | 162° | 15km/h | 21479m | -13.7m/s | -53.1°C | 0.6% | 46.4hPa | 2.5V | 08:21:44 | 02:23:59 | 00:00:00 | |
| AA1-15 | 2026-09-04 00:41:52 | 51.09782 | 8.35559 | 168° | 13km/h | 21493m | -13.4m/s | -53.1°C | 0.5% | 46.2hPa | 2.5V | 08:21:44 | 02:23:58 | 00:00:00 | |
| DB0ND-19 | 2026-09-04 00:41:51 | 51.09785 | 8.35558 | 173° | 13km/h | 21507m | -13.7m/s | -53.1°C | 1.0% | 46.1hPa | 2.5V | 00:00:00 | 00:00:00 | 00:00:00 | |
| BIOWL1-15 | 2026-09-04 00:41:50 | 51.09797 | 8.35566 | 295° | 2km/h | 21604m | -13.8m/s | -52.9°C | 0.5% | 45.4hPa | 2.5V | 08:21:44 | 02:23:50 | 00:00:00 | |
| DL1XH-west | 2026-09-04 00:41:48 | 51.09793 | 8.35560 | 207° | 7km/h | 21548m | -14m/s | -53.3°C | 0.6% | 45.8hPa | 2.5V | 08:21:44 | 02:23:54 | 00:00:00 | |
| BIOWL9-15 | 2026-09-04 00:41:47 | 51.09796 | 8.35564 | 225° | 5km/h | 21577m | -13.7m/s | -53.1°C | 1.1% | 45.6hPa | 2.5V | 00:00:00 | 00:00:00 | 00:00:00 | |
| DM0DOS-11 | 2026-09-04 00:41:46 | 51.09798 | 8.35566 | 294° | 2km/h | 21604m | -13.8m/s | -52.9°C | 3.9% | 45.4hPa | 2.5V | 08:21:33 | 02:23:50 | 00:00:00 | |
| HSKMA3-T | 2026-09-04 00:41:43 | 51.09797 | 8.35566 | 71° | 2km/h | 21618m | -13.8m/s | -52.9°C | 0.5% | 45.3hPa | 2.5V | 08:21:44 | 02:23:49 | 00:00:00 | |
| AA1-15 | 2026-09-04 00:41:42 | 51.09797 | 8.35565 | 49° | 5km/h | 21632m | -13.8m/s | -53°C | 0.5% | 45.2hPa | 2.5V | 08:21:44 | 02:23:48 | 00:00:00 | |
| DL1NUX | 2026-09-04 00:41:42 | 51.09793 | 8.35554 | 72° | 13km/h | 21672m | -13.6m/s | -53°C | 4% | 45hPa | 2.5V | 08:21:38 | 02:23:45 | 00:00:00 | |
| WPPR-10 | 2026-09-04 00:41:42 | 51.09796 | 8.35562 | 66° | 9km/h | 21645m | -13.5m/s | -53.0°C | 1.1% | 45.1hPa | 2.5V | 00:00:00 | 00:00:00 | 00:00:00 | |
| DL1XH-15 | 2026-09-04 00:41:41 | 51.09791 | 8.35539 | 73° | 11km/h | 21715m | -13.6m/s | -53.2°C | 4.1% | 44.6hPa | 2.5V | 08:21:41 | 02:23:42 | 00:00:00 | |
| DD8BA-10 | 2026-09-04 00:41:41 | 51.09796 | 8.35562 | 67° | 9km/h | 21646m | -13.4m/s | -52.9°C | 3.9% | 45.1hPa | 2.6V | 08:21:00 | 00:00:00 | 00:00:00 | |
| DJTTGO | 2026-09-04 00:41:40 | 51.09795 | 8.35559 | 63° | 11km/h | 21659m | -13.7m/s | -53.0°C | 1.1% | 45.0hPa | 2.5V | 00:00:00 | 00:00:00 | 00:00:00 | |
| BIOWL1-15 | 2026-09-04 00:41:40 | 51.09791 | 8.35544 | 77° | 13km/h | 21701m | -14.2m/s | -53.2°C | 0.6% | 44.7hPa | 2.5V | 08:21:44 | 02:23:43 | 00:00:00 | |
| DL1ZP-14 | 2026-09-04 00:41:39 | 51.09794 | 8.35554 | 72° | 13km/h | 21673m | -13.6m/s | -53.0°C | 1.0% | 45.0hPa | 2.5V | 00:00:00 | 00:00:00 | 00:00:00 | |
| DM0DOS-11 | 2026-09-04 00:41:38 | 51.09790 | 8.35532 | 78° | 7km/h | 21742m | -13.6m/s | -53.2°C | 4.1% | 44.4hPa | 2.6V | 08:21:43 | 02:23:40 | 00:00:00 | |
| DL1XH-west | 2026-09-04 00:41:38 | 51.09792 | 8.35549 | 70° | 13km/h | 21687m | -14.1m/s | -53.1°C | 0.6% | 44.9hPa | 2.5V | 08:21:44 | 02:23:44 | 00:00:00 | |
| HSKMA3-T | 2026-09-04 00:41:33 | 51.09789 | 8.35529 | 88° | 7km/h | 21756m | -14.3m/s | -53.1°C | 0.6% | 44.4hPa | 2.6V | 08:21:44 | 02:23:39 | 00:00:00 | |
| AA1-15 | 2026-09-04 00:41:32 | 51.09790 | 8.35525 | 115° | 5km/h | 21784m | -13.9m/s | -52.7°C | 0.5% | 44.2hPa | 2.5V | 08:22:35 | 02:23:37 | 00:00:00 | |
| DL1NUX | 2026-09-04 00:41:32 | 51.09792 | 8.35523 | 144° | 5km/h | 21812m | -14.4m/s | -52.4°C | 3.9% | 44hPa | 2.6V | 08:21:48 | 02:23:35 | 00:00:00 | |
| DL1XH-west | 2026-09-04 00:41:27 | 51.09795 | 8.35521 | 155° | 5km/h | 21840m | -13.9m/s | -52.1°C | 0.4% | 43.8hPa | 2.5V | 08:22:35 | 02:23:33 | 00:00:00 | |
| BIOWL1-15 | 2026-09-04 00:41:26 | 51.09796 | 8.35520 | 165° | 7km/h | 21855m | -14.1m/s | -52°C | 0.4% | 43.7hPa | 2.5V | 08:22:35 | 02:23:32 | 00:00:00 | |
| DM0DOS-11 | 2026-09-04 00:41:26 | 51.09799 | 8.35518 | 163° | 7km/h | 21883m | -14.1m/s | -51.9°C | 3.6% | 43.5hPa | 2.6V | 08:21:53 | 02:23:30 | 00:00:00 | |
| DJ2KF-10 | 2026-09-04 00:41:26 | 51.09796 | 8.35520 | 165° | 11km/h | 21855m | -14.1m/s | -51.9°C | 3.7% | 43.7hPa | 2.6V | 00:00:00 | 02:23:32 | 00:00:00 | |
| DO2KSM | 2026-09-04 00:41:25 | 51.09796 | 8.35520 | 166° | 7km/h | 21855m | -14.1m/s | -52.0°C | 1.0% | 43.7hPa | 2.6V | 08:22:00 | 00:00:00 | 00:00:00 | |
| DL1NUX | 2026-09-04 00:41:24 | 51.09801 | 8.35515 | 13° | 4km/h | 21954m | -14.5m/s | -51.9°C | 3.6% | 43hPa | 2.6V | 08:21:58 | 02:23:25 | 00:00:00 | |
| AA1-15 | 2026-09-04 00:41:22 | 51.09801 | 8.35517 | 154° | 4km/h | 21911m | -14.3m/s | -52°C | 0.4% | 43.3hPa | 2.5V | 08:22:35 | 02:23:28 | 00:00:00 | |
| DO3DL | 2026-09-04 00:41:22 | 51.09801 | 8.35517 | 155° | 4km/h | 21911m | -14.3m/s | -52.0°C | 1.0% | 43.3hPa | 2.5V | 08:22:00 | 00:00:00 | 00:00:00 | |
| DD8BA-10 | 2026-09-04 00:41:21 | 51.09802 | 8.35517 | 107° | 7km/h | 21925m | -14.1m/s | -51.9°C | 3.6% | 43.2hPa | 2.5V | 00:00:00 | 00:00:00 | 00:00:00 | |
| DL3AQ-11 | 2026-09-04 00:41:20 | 51.09802 | 8.35516 | 94° | 2km/h | 21940m | -14.4m/s | -51.9°C | 1.0% | 43.1hPa | 2.5V | 00:00:00 | 00:00:00 | 00:00:00 | |
| DL4XJ-10 | 2026-09-04 00:41:19 | 51.09801 | 8.35515 | 14° | 13km/h | 21955m | -14.4m/s | -51.6°C | 0% | 0hPa | 2.5V | 00:00:00 | 00:00:00 | 00:00:00 | |
| DM0DOS-11 | 2026-09-04 00:41:18 | 51.09793 | 8.35511 | 25° | 9km/h | 22027m | -14.6m/s | -52.1°C | 3.7% | 42.6hPa | 2.5V | 08:22:03 | 02:23:20 | 00:00:00 | |
| DL1XH-west | 2026-09-04 00:41:17 | 51.09799 | 8.35514 | 11° | 7km/h | 21983m | -14.5m/s | -52.1°C | 0.4% | 42.9hPa | 2.5V | 08:22:35 | 02:23:23 | 00:00:00 | |
| BIOWL1-15 | 2026-09-04 00:41:16 | 51.09789 | 8.35508 | 34° | 11km/h | 22056m | -14.6m/s | -52.1°C | 0.4% | 42.4hPa | 2.6V | 08:22:35 | 02:23:18 | 00:00:00 | |
| DC6BW-12 | 2026-09-04 00:41:15 | 51.09796 | 8.35512 | 17° | 9km/h | 22012m | -14.3m/s | -52.2°C | 1.0% | 42.7hPa | 2.5V | 08:22:00 | 00:00:00 | 00:00:00 | |
| DD1CC3-15 | 2026-09-04 00:41:14 | 51.09793 | 8.35511 | 26° | 9km/h | 22027m | -14.6m/s | -52.1°C | 1.0% | 42.6hPa | 2.5V | 08:22:00 | 00:00:00 | 00:00:00 | |
| DL1NUX | 2026-09-04 00:41:12 | 51.09782 | 8.35498 | 50° | 13km/h | 22101m | -15.2m/s | -52.2°C | 3.7% | 42hPa | 2.5V | 08:22:08 | 02:23:15 | 00:00:00 | |
| AA1-15 | 2026-09-04 00:41:11 | 51.09784 | 8.35502 | 50° | 11km/h | 22086m | -15m/s | -52.2°C | 0.4% | 42.2hPa | 2.5V | 08:22:35 | 02:23:16 | 00:00:00 | |
| HSKMA3-T | 2026-09-04 00:41:11 | 51.09786 | 8.35505 | 32° | 13km/h | 22071m | -14.9m/s | -52.1°C | 0.3% | 42.2hPa | 2.6V | 08:22:35 | 02:23:17 | 00:00:00 | |
| EDDB2-11 | 2026-09-04 00:41:11 | 51.09784 | 8.35502 | 50° | 11km/h | 22086m | -15.0m/s | -52.2°C | 1.0% | 42.2hPa | 2.5V | 00:00:00 | 00:00:00 | 00:00:00 | |
| DO1YAY-16 | 2026-09-04 00:41:10 | 51.09784 | 8.35502 | 50° | 11km/h | 22086m | -15.0m/s | -52.2°C | 1.0% | 42.2hPa | 2.5V | 00:00:00 | 00:00:00 | 00:00:00 | |
| GOEST3-10 | 2026-09-04 00:41:09 | 51.09782 | 8.35498 | 51° | 15km/h | 22101m | -15.1m/s | -52.2°C | 3.7% | 42.0hPa | 2.5V | 00:00:00 | 00:00:00 | 00:00:00 | |
| DL1ZP-14 | 2026-09-04 00:41:08 | 51.09780 | 8.35494 | 64° | 11km/h | 22116m | -15.1m/s | -52.3°C | 1.0% | 42.0hPa | 2.5V | 00:00:00 | 00:00:00 | 00:00:00 | |
| DM0DOS-11 | 2026-09-04 00:41:06 | 51.09777 | 8.35471 | 89° | 15km/h | 22176m | -14.9m/s | -52.7°C | 3.8% | 41.6hPa | 2.5V | 08:22:13 | 02:23:10 | 00:00:00 | |
| DL1XH-west | 2026-09-04 00:41:06 | 51.09778 | 8.35483 | 80° | 15km/h | 22146m | -14.7m/s | -52.5°C | 0.4% | 41.8hPa | 2.6V | 08:22:35 | 02:23:12 | 00:00:00 | |
| DL4BBY-15 | 2026-09-04 00:41:06 | 51.09778 | 8.35484 | 81° | 18km/h | 22146m | -14.7m/s | -52.2°C | 0% | 0hPa | 2.6V | 00:00:00 | 00:00:00 | 00:00:00 | |
| DL1NUX | 2026-09-04 00:41:04 | 51.09777 | 8.35438 | 86° | 20km/h | 22249m | -14.5m/s | -52.8°C | 3.9% | 41.1hPa | 2.6V | 08:22:18 | 02:23:05 | 00:00:00 | |
| BIOWL1-15 | 2026-09-04 00:41:03 | 51.09777 | 8.35465 | 92° | 16km/h | 22191m | -14.5m/s | -52.7°C | 0.5% | 41.5hPa | 2.5V | 08:22:35 | 02:23:09 | 00:00:00 | |
| AA1-15 | 2026-09-04 00:41:01 | 51.09777 | 8.35452 | 90° | 16km/h | 22220m | -14.7m/s | -52.9°C | 0.5% | 41.3hPa | 2.6V | 08:22:35 | 02:23:07 | 00:00:00 | |
| HSKMA3-T | 2026-09-04 00:41:00 | 51.09777 | 8.35445 | 91° | 16km/h | 22234m | -14.5m/s | -52.9°C | 0.5% | 41.2hPa | 2.6V | 08:22:35 | 02:23:06 | 00:00:00 | |
| DL1XH1-15 | 2026-09-04 00:41:00 | 51.09775 | 8.35395 | 87° | 24km/h | 22321m | -14.6m/s | -52.4°C | 3.7% | 40.6hPa | 2.6V | 08:22:23 | 02:23:00 | 00:00:00 | |
| DL1XH-west | 2026-09-04 00:40:56 | 51.09776 | 8.35413 | 86° | 22km/h | 22292m | -14.5m/s | -52.5°C | 0.4% | 40.8hPa | 2.5V | 08:22:35 | 02:23:02 | 00:00:00 | |
| DD1CC8 | 2026-09-04 00:40:55 | 51.09775 | 8.35395 | 87° | 24km/h | 22321m | -14.6m/s | -52.4°C | 1.0% | 40.6hPa | 2.6V | 00:00:00 | 00:00:00 | 00:00:00 | |
| DL3AQ-11 | 2026-09-04 00:40:54 | 51.09775 | 8.35385 | 83° | 24km/h | 22336m | -14.5m/s | -52.4°C | 1.0% | 40.6hPa | 2.6V | 00:00:00 | 00:00:00 | 00:00:00 | |
| DD1CC3-15 | 2026-09-04 00:40:53 | 51.09775 | 8.35395 | 88° | 24km/h | 22322m | -14.6m/s | -52.4°C | 1.0% | 40.6hPa | 2.6V | 08:22:00 | 00:00:00 | 00:00:00 | |
| DM0DOS-11 | 2026-09-04 00:40:52 | 51.09776 | 8.35328 | 100° | 22km/h | 22424m | -14.8m/s | -52.7°C | 3.8% | 40hPa | 2.6V | 08:22:30 | 02:22:53 | 00:00:00 | |
| BIOWL1-15 | 2026-09-04 00:40:52 | 51.09774 | 8.35375 | 89° | 24km/h | 22350m | -14.4m/s | -52.4°C | 0.4% | 40.5hPa | 2.5V | 08:22:35 | 02:22:58 | 00:00:00 | |
| AA1-15 | 2026-09-04 00:40:51 | 51.09774 | 8.35365 | 86° | 24km/h | 22365m | -14.6m/s | -52.5°C | 0.4% | 40.4hPa | 2.5V | 08:22:35 | 02:22:57 | 00:00:00 | |
| HSKMA3-T | 2026-09-04 00:40:50 | 51.09774 | 8.35355 | 94° | 24km/h | 22380m | -14.8m/s | -52.6°C | 0.4% | 40.3hPa | 2.5V | 08:22:35 | 02:22:56 | 00:00:00 | |
| DL1XH-15 | 2026-09-04 00:40:50 | 51.09779 | 8.35312 | 111° | 20km/h | 22454m | -15m/s | -52.7°C | 3.8% | 39.8hPa | 2.5V | 08:22:32 | 02:22:51 | 00:00:00 | |
| DL1XH-west | 2026-09-04 00:40:45 | 51.09779 | 8.35312 | 111° | 20km/h | 22454m | -15m/s | -52.7°C | 0.5% | 39.8hPa | 2.5V | 08:22:35 | 02:22:51 | 00:00:00 | |
| BIOWL1-15 | 2026-09-04 00:40:44 | 51.09785 | 8.35293 | 123° | 16km/h | 22498m | -14.5m/s | -52.5°C | 0.5% | 39.5hPa | 2.6V | 08:22:35 | 02:22:48 | 00:00:00 | |
| DB0NH | 2026-09-04 00:40:44 | 51.09781 | 8.35305 | 119° | 11km/h | 22469m | -14.7m/s | -52.6°C | 3.8% | 39.7hPa | 2.6V | 00:00:00 | 02:22:50 | 00:00:00 | |
| DJ2DS-15 | 2026-09-04 00:40:43 | 51.09783 | 8.35299 | 115° | 7km/h | 22484m | -14.6m/s | -52.5°C | 3.8% | 39.6hPa | 2.6V | 00:00:00 | 02:22:49 | 00:00:00 | |
| DO3DL | 2026-09-04 00:40:42 | 51.09783 | 8.35299 | 115° | 16km/h | 22484m | -14.7m/s | -52.6°C | 1.0% | 39.7hPa | 2.6V | 08:22:00 | 00:00:00 | 00:00:00 | |
| DM0DOS-11 | 2026-09-04 00:40:41 | 51.09793 | 8.35271 | 119° | 7km/h | 22572m | -14.8m/s | -52.3°C | 3.7% | 39.1hPa | 2.6V | 08:22:40 | 02:22:43 | 00:00:00 | |
| DL3AQ-11 | 2026-09-04 00:40:41 | 51.09789 | 8.35282 | 121° | 13km/h | 22527m | -14.9m/s | -52.5°C | 1.0% | 39.4hPa | 2.6V | 00:00:00 | 00:00:00 | 00:00:00 | |
| DL1XH-15 | 2026-09-04 00:40:40 | 51.09795 | 8.35268 | 147° | 0km/h | 22602m | -14.7m/s | -52.3°C | 3.6% | 38.9hPa | 2.6V | 08:22:42 | 02:22:41 | 00:00:00 | |
| HSKMA3-T | 2026-09-04 00:40:40 | 51.09789 | 8.35282 | 122° | 15km/h | 22527m | -14.9m/s | -52.5°C | 0.5% | 39.4hPa | 2.5V | 08:23:26 | 02:22:46 | 00:00:00 | |
| DL1XH-west | 2026-09-04 00:40:34 | 51.09795 | 8.35268 | 246° | 0km/h | 22617m | -15.1m/s | -52.3°C | 0.4% | 38.9hPa | 2.5V | 08:23:26 | 02:22:40 | 00:00:00 | |
| BIOWL1-15 | 2026-09-04 00:40:32 | 51.09782 | 8.35251 | 64° | 13km/h | 22815m | -15.2m/s | -52.7°C | 0.5% | 37.7hPa | 2.5V | 08:23:26 | 02:22:27 | 00:00:00 | |
| DC6BW-12 | 2026-09-04 00:40:32 | 51.09793 | 8.35269 | 343° | 4km/h | 22647m | -15.1m/s | -52.4°C | 1.0% | 38.7hPa | 2.6V | 08:23:00 | 00:00:00 | 00:00:00 | |
| DD8BA-10 | 2026-09-04 00:40:31 | 51.09792 | 8.35270 | 350° | 7km/h | 22662m | -14.9m/s | -52.5°C | 3.7% | 38.5hPa | 2.6V | 00:00:00 | 00:00:00 | 00:00:00 | |
| DL1XH-15 | 2026-09-04 00:40:30 | 51.09785 | 8.35264 | 61° | 7km/h | 22754m | -15.4m/s | -52.9°C | 3.8% | 38hPa | 2.6V | 08:22:52 | 02:22:31 | 00:00:00 | |
| DM0DOS-11 | 2026-09-04 00:40:30 | 51.09787 | 8.35268 | 36° | 7km/h | 22723m | -15.6m/s | -52.9°C | 3.9% | 38.2hPa | 2.5V | 08:22:50 | 02:22:33 | 00:00:00 | |
| DL3AQ-11 | 2026-09-04 00:40:30 | 51.09790 | 8.35270 | 4° | 5km/h | 22692m | -15.3m/s | -52.7°C | 1.0% | 38.4hPa | 2.6V | 00:00:00 | 00:00:00 | 00:00:00 | |
| DL1XH1-15 | 2026-09-04 00:40:29 | 51.09784 | 8.35261 | 71° | 7km/h | 22769m | -15.3m/s | -52.8°C | 3.8% | 37.9hPa | 2.6V | 08:22:53 | 02:22:30 | 00:00:00 | |
| HSKMA3-T | 2026-09-04 00:40:29 | 51.09790 | 8.35270 | 5° | 5km/h | 22692m | -15.3m/s | -52.7°C | 0.4% | 38.4hPa | 2.5V | 08:23:26 | 02:22:35 | 00:00:00 | |
| DL1XH-west | 2026-09-04 00:40:24 | 51.09784 | 8.35261 | 72° | 7km/h | 22769m | -15.3m/s | -52.8°C | 0.5% | 37.9hPa | 2.6V | 08:23:26 | 02:22:30 | 00:00:00 | |
| DD1CC8 | 2026-09-04 00:40:24 | 51.09784 | 8.35258 | 70° | 9km/h | 22785m | -15.0m/s | -52.8°C | 1.0% | 37.8hPa | 2.5V | 00:00:00 | 00:00:00 | 00:00:00 | |
| DL1CLM-18 | 2026-09-04 00:40:23 | 51.09784 | 8.35258 | 72° | 9km/h | 22785m | -15.0m/s | -52.8°C | 1.0% | 37.8hPa | 2.5V | 00:00:00 | 00:00:00 | 00:00:00 | |
| DO3DL | 2026-09-04 00:40:22 | 51.09784 | 8.35258 | 72° | 9km/h | 22785m | -15.0m/s | -52.8°C | 1.0% | 37.8hPa | 2.5V | 08:23:00 | 00:00:00 | 00:00:00 | |
| GOEST3-10 | 2026-09-04 00:40:21 | 51.09782 | 8.35251 | 64° | 13km/h | 22815m | -15.1m/s | -52.6°C | 3.8% | 37.6hPa | 2.5V | 08:22:00 | 00:00:00 | 00:00:00 | |
| DL1XH-15 | 2026-09-04 00:40:20 | 51.09772 | 8.35215 | 71° | 22km/h | 22905m | -15.3m/s | -52.8°C | 3.7% | 37.1hPa | 2.5V | 08:23:02 | 02:22:21 | 00:00:00 | |
| DM0DOS-11 | 2026-09-04 00:40:19 | 51.09776 | 8.35230 | 65° | 20km/h | 22875m | -15m/s | -52.6°C | 3.7% | 37.3hPa | 2.5V | 08:23:00 | 02:22:23 | 00:00:00 | |
| DL1XH1-15 | 2026-09-04 00:40:19 | 51.09771 | 8.35207 | 77° | 20km/h | 22921m | -15.1m/s | -52.9°C | 3.8% | 37hPa | 2.5V | 08:23:03 | 02:22:20 | 00:00:00 | |
| BIOWL1-15 | 2026-09-04 00:40:19 | 51.09779 | 8.35242 | 63° | 15km/h | 22845m | -14.6m/s | -52.7°C | 0.4% | 37.5hPa | 2.6V | 08:23:26 | 02:22:25 | 00:00:00 | |
| HSKMA3-T | 2026-09-04 00:40:18 | 51.09778 | 8.35236 | 68° | 16km/h | 22860m | -15.1m/s | -52.6°C | 0.5% | 37.4hPa | 2.6V | 08:23:26 | 02:22:24 | 00:00:00 | |
| DL1XH-west | 2026-09-04 00:40:14 | 51.09771 | 8.35207 | 78° | 20km/h | 22921m | -15.1m/s | -52.9°C | 0.5% | 37hPa | 2.5V | 08:23:26 | 02:22:20 | 00:00:00 | |
| DL3AQ-11 | 2026-09-04 00:40:14 | 51.09770 | 8.35198 | 74° | 20km/h | 22936m | -15.3m/s | -53.0°C | 1.0% | 37.0hPa | 2.5V | 00:00:00 | 00:00:00 | 00:00:00 | |
| BIOWL9-15 | 2026-09-04 00:40:13 | 51.09770 | 8.35198 | 74° | 20km/h | 22936m | -15.3m/s | -53.0°C | 1.0% | 37.0hPa | 2.5V | 00:00:00 | 00:00:00 | 00:00:00 | |
| DM0DOS-11 | 2026-09-04 00:40:12 | 51.09762 | 8.35148 | 78° | 18km/h | 23028m | -15.6m/s | -53.2°C | 3.9% | 36.4hPa | 2.5V | 08:23:10 | 02:22:13 | 00:00:00 | |
| DL1NUX | 2026-09-04 00:40:11 | 51.09764 | 8.35164 | 74° | 22km/h | 22997m | -15.2m/s | -53.2°C | 3.9% | 36.6hPa | 2.5V | 08:23:08 | 02:22:15 | 00:00:00 | |
| DK9SH | 2026-09-04 00:40:11 | 51.09767 | 8.35181 | 75° | 24km/h | 22967m | -15.2m/s | -53.2°C | 1.0% | 36.8hPa | 2.6V | 08:23:00 | 00:00:00 | 00:00:00 | |
| DL1XH-15 | 2026-09-04 00:40:10 | 51.09761 | 8.35133 | 82° | 16km/h | 23058m | -15.5m/s | -53.1°C | 3.9% | 36.2hPa | 2.6V | 08:23:12 | 02:22:11 | 00:00:00 | |
| DJ2DS-15 | 2026-09-04 00:40:10 | 51.09764 | 8.35164 | 74° | 20km/h | 22997m | -15.2m/s | -53.2°C | 1.0% | 36.6hPa | 2.6V | 00:00:00 | 00:00:00 | 00:00:00 | |
| DL1XH1-15 | 2026-09-04 00:40:09 | 51.09761 | 8.35126 | 89° | 18km/h | 23074m | -15.2m/s | -53°C | 3.9% | 36.1hPa | 2.6V | 08:23:13 | 02:22:10 | 00:00:00 | |
| HSKMA3-T | 2026-09-04 00:40:08 | 51.09763 | 8.35156 | 81° | 20km/h | 23012m | -15.1m/s | -53.2°C | 0.5% | 36.5hPa | 2.5V | 08:23:26 | 02:22:14 | 00:00:00 | |
| DL1CLM-18 | 2026-09-04 00:40:08 | 51.09763 | 8.35155 | 82° | 20km/h | 23013m | -15.1m/s | -53.2°C | 1.0% | 36.5hPa | 2.6V | 00:00:00 | 00:00:00 | 00:00:00 | |
| DC6BW-12 | 2026-09-04 00:40:07 | 51.09763 | 8.35155 | 82° | 20km/h | 23013m | -15.1m/s | -53.2°C | 1.1% | 36.5hPa | 2.6V | 08:23:00 | 00:00:00 | 00:00:00 | |
| DL4BBY-15 | 2026-09-04 00:40:06 | 51.09762 | 8.35140 | 86° | 11km/h | 23044m | -15.3m/s | -52.8°C | 0% | 0hPa | 2.6V | 00:00:00 | 00:00:00 | 00:00:00 | |
| DL1NUX | 2026-09-04 00:40:04 | 51.09762 | 8.35088 | 95° | 18km/h | 23152m | -15.8m/s | -53.1°C | 3.9% | 35.7hPa | 2.6V | 08:23:18 | 02:22:05 | 00:00:00 | |
| DL1XH-west | 2026-09-04 00:40:04 | 51.09761 | 8.35126 | 90° | 18km/h | 23074m | -15.2m/s | -53°C | 0.6% | 36.2hPa | 2.6V | 08:23:26 | 02:22:10 | 00:00:00 | |
| DJ2DS-15 | 2026-09-04 00:40:03 | 51.09761 | 8.35119 | 89° | 9km/h | 23090m | -15.8m/s | -53.0°C | 3.9% | 36.0hPa | 2.5V | 00:00:00 | 02:22:09 | 00:00:00 | |
| DO2KSM | 2026-09-04 00:40:02 | 51.09760 | 8.35119 | 89° | 18km/h | 23090m | -15.9m/s | -53.0°C | 1.0% | 36.1hPa | 2.5V | 08:23:00 | 00:00:00 | 00:00:00 | |
| DL3AQ-11 | 2026-09-04 00:40:01 | 51.09761 | 8.35096 | 96° | 20km/h | 23136m | -15.5m/s | -53.1°C | 1.0% | 35.8hPa | 2.5V | 00:00:00 | 00:00:00 | 00:00:00 | |
| DL1XH-15 | 2026-09-04 00:40:00 | 51.09765 | 8.35065 | 105° | 9km/h | 23215m | -15.4m/s | -53.1°C | 3.9% | 35.4hPa | 2.5V | 08:23:22 | 02:22:01 | 00:00:00 | |
| BIOWL1-15 | 2026-09-04 00:39:58 | 51.09762 | 8.35081 | 103° | 18km/h | 23168m | -15.7m/s | -53.1°C | 0.6% | 35.7hPa | 2.5V | 08:23:26 | 02:22:04 | 00:00:00 | |
| AA1-15 | 2026-09-04 00:39:57 | 51.09763 | 8.35075 | 103° | 15km/h | 23184m | -15.9m/s | -53.1°C | 0.5% | 35.5hPa | 2.5V | 08:23:26 | 02:22:03 | 00:00:00 | |
| DL1XH-west | 2026-09-04 00:39:53 | 51.09766 | 8.35060 | 110° | 4km/h | 23246m | -15.3m/s | -53°C | 0.6% | 35.2hPa | 2.6V | 08:23:26 | 02:21:59 | 00:00:00 | |
| DD1CC8 | 2026-09-04 00:39:53 | 51.09767 | 8.35059 | 137° | 2km/h | 23262m | -15.5m/s | -53.0°C | 1.0% | 35.2hPa | 2.6V | 00:00:00 | 00:00:00 | 00:00:00 | |
| SO1NDE-10 | 2026-09-04 00:39:52 | 51.09767 | 8.35059 | 138° | 11km/h | 23262m | -15.4m/s | -52.9°C | 3.9% | 35.1hPa | 2.6V | 00:00:00 | 02:21:58 | 00:00:00 | |
| DM0DOS-11 | 2026-09-04 00:39:51 | 51.09768 | 8.35060 | 36° | 2km/h | 23341m | -15.9m/s | -53.4°C | 4% | 34.7hPa | 2.6V | 08:23:30 | 02:21:53 | 00:00:00 | |
| DL1NUX | 2026-09-04 00:39:51 | 51.09768 | 8.35060 | 288° | 2km/h | 23309m | -15.8m/s | -53.2°C | 3.9% | 34.9hPa | 2.5V | 08:23:28 | 02:21:55 | 00:00:00 | |
| DL3AQ-11 | 2026-09-04 00:39:50 | 51.09767 | 8.35060 | 288° | 0km/h | 23309m | -15.8m/s | -53.2°C | 1.0% | 34.9hPa | 2.5V | 00:00:00 | 00:00:00 | 00:00:00 | |
| BIOWL1-15 | 2026-09-04 00:39:48 | 51.09764 | 8.35039 | 74° | 11km/h | 23474m | -16.9m/s | -53.2°C | 0.5% | 34hPa | 2.5V | 08:24:17 | 02:21:45 | 00:00:00 | |
| DL1XH1-15 | 2026-09-04 00:39:47 | 51.09767 | 8.35055 | 81° | 5km/h | 23389m | -16.4m/s | -53.5°C | 4% | 34.4hPa | 2.5V | 08:23:33 | 02:21:50 | 00:00:00 | |
| AA1-15 | 2026-09-04 00:39:46 | 51.09767 | 8.35059 | 96° | 4km/h | 23357m | -16m/s | -53.5°C | 0.6% | 34.6hPa | 2.6V | 08:24:17 | 02:21:52 | 00:00:00 | |
| DF7PN | 2026-09-04 00:39:46 | 51.09767 | 8.35057 | 62° | 4km/h | 23373m | -16.2m/s | -53.5°C | 1.0% | 34.5hPa | 2.5V | 00:00:00 | 00:00:00 | 00:00:00 | |
| DL1XH-west | 2026-09-04 00:39:42 | 51.09766 | 8.35050 | 78° | 7km/h | 23423m | -17.2m/s | -53.4°C | 0.6% | 34.3hPa | 2.5V | 08:24:17 | 02:21:48 | 00:00:00 | |
| GOEST3-10 | 2026-09-04 00:39:42 | 51.09766 | 8.35050 | 79° | 9km/h | 23423m | -17.1m/s | -53.4°C | 4.0% | 34.2hPa | 2.5V | 00:00:00 | 00:00:00 | 00:00:00 | |
| DM0DOS-11 | 2026-09-04 00:39:41 | 51.09762 | 8.35030 | 82° | 11km/h | 23507m | -16.8m/s | -53.3°C | 3.9% | 33.8hPa | 2.5V | 08:23:40 | 02:21:43 | 00:00:00 | |
| DD8BA-10 | 2026-09-04 00:39:41 | 51.09765 | 8.35046 | 74° | 13km/h | 23440m | -16.8m/s | -53.3°C | 3.9% | 34.1hPa | 2.6V | 00:00:00 | 00:00:00 | 00:00:00 | |
| DL4XJ-10 | 2026-09-04 00:39:39 | 51.09764 | 8.35039 | 75° | 18km/h | 23474m | -16.8m/s | -52.8°C | 0% | 0hPa | 2.5V | 00:00:00 | 00:00:00 | 00:00:00 | |
| DJ8HS-15 | 2026-09-04 00:39:38 | 51.09763 | 8.35034 | 72° | 18km/h | 23491m | -17.0m/s | -53.2°C | 3.9% | 33.9hPa | 2.5V | 00:00:00 | 02:21:44 | 00:00:00 | |
| DL1XH-15 | 2026-09-04 00:39:37 | 51.09760 | 8.35004 | 77° | 15km/h | 23589m | -16.2m/s | -53°C | 3.9% | 33.4hPa | 2.5V | 08:23:45 | 02:21:38 | 00:00:00 | |
| AA1-15 | 2026-09-04 00:39:36 | 51.09762 | 8.35025 | 79° | 13km/h | 23524m | -16.7m/s | -53.3°C | 0.6% | 33.7hPa | 2.5V | 08:24:17 | 02:21:42 | 00:00:00 | |
| HSKMA3-T | 2026-09-04 00:39:35 | 51.09761 | 8.35020 | 86° | 13km/h | 23541m | -16.4m/s | -53.3°C | 0.6% | 33.6hPa | 2.6V | 08:24:17 | 02:21:41 | 00:00:00 | |
| BIOWL1-15 | 2026-09-04 00:39:31 | 51.09758 | 8.34993 | 67° | 16km/h | 23622m | -16.1m/s | -53.1°C | 0.5% | 33.2hPa | 2.5V | 08:24:17 | 02:21:36 | 00:00:00 | |
| DO3DL | 2026-09-04 00:39:30 | 51.09758 | 8.34993 | 68° | 16km/h | 23622m | -16.1m/s | -53.1°C | 1.0% | 33.2hPa | 2.6V | 08:24:00 | 00:00:00 | 00:00:00 | |
| DM0DOS-11 | 2026-09-04 00:39:29 | 51.09753 | 8.34974 | 65° | 20km/h | 23670m | -16.6m/s | -53.4°C | 4% | 32.9hPa | 2.6V | 08:23:50 | 02:21:33 | 00:00:00 | |
| DB0UT-7 | 2026-09-04 00:39:29 | 51.09757 | 8.34987 | 67° | 24km/h | 23638m | -16.3m/s | -53.2°C | 3.9% | 33.1hPa | 2.5V | 00:00:00 | 02:21:35 | 00:00:00 | |
| DL1XH1-15 | 2026-09-04 00:39:28 | 51.09747 | 8.34949 | 72° | 26km/h | 23720m | -16.4m/s | -53.5°C | 4% | 32.7hPa | 2.5V | 08:23:53 | 02:21:30 | 00:00:00 | |
| DO3MHA-12 | 2026-09-04 00:39:28 | 51.09755 | 8.34980 | 63° | 24km/h | 23655m | -16.1m/s | -53.3°C | 3.9% | 33.0hPa | 2.6V | 08:23:00 | 02:21:34 | 00:00:00 | |
| DL1XH-15 | 2026-09-04 00:39:27 | 51.09744 | 8.34929 | 79° | 27km/h | 23753m | -16.5m/s | -53.6°C | 4.1% | 32.6hPa | 2.5V | 08:23:55 | 02:21:28 | 00:00:00 | |
| AA1-15 | 2026-09-04 00:39:26 | 51.09748 | 8.34958 | 71° | 22km/h | 23703m | -16.5m/s | -53.5°C | 0.6% | 32.8hPa | 2.5V | 08:24:17 | 02:21:31 | 00:00:00 | |
| HSKMA3-T | 2026-09-04 00:39:24 | 51.09747 | 8.34949 | 73° | 26km/h | 23720m | -16.5m/s | -53.5°C | 0.6% | 32.7hPa | 2.5V | 08:24:17 | 02:21:30 | 00:00:00 | |
| BUE01 | 2026-09-04 00:39:24 | 51.09745 | 8.34939 | 78° | 24km/h | 23737m | -16.6m/s | -53.6°C | 1.0% | 32.6hPa | 2.5V | 00:00:00 | 00:00:00 | 00:00:00 | |
| DO3DL | 2026-09-04 00:39:23 | 51.09745 | 8.34939 | 80° | 24km/h | 23737m | -16.6m/s | -53.6°C | 1.0% | 32.6hPa | 2.5V | 08:24:00 | 00:00:00 | 00:00:00 | |
| DM0DOS-11 | 2026-09-04 00:39:22 | 51.09745 | 8.34873 | 100° | 31km/h | 23836m | -16.6m/s | -53.2°C | 4% | 32.1hPa | 2.5V | 08:24:00 | 02:21:23 | 00:00:00 | |
| DL1XH-west | 2026-09-04 00:39:20 | 51.09743 | 8.34897 | 94° | 29km/h | 23802m | -16.3m/s | -53.4°C | 0.6% | 32.3hPa | 2.6V | 08:24:17 | 02:21:25 | 00:00:00 | |
| BIOWL1-15 | 2026-09-04 00:39:19 | 51.09743 | 8.34885 | 95° | 31km/h | 23819m | -16.7m/s | -53.3°C | 0.6% | 32.2hPa | 2.5V | 08:24:17 | 02:21:24 | 00:00:00 | |
| DL1XH1-15 | 2026-09-04 00:39:19 | 51.09750 | 8.34836 | 105° | 31km/h | 23885m | -16.7m/s | -53°C | 3.8% | 31.9hPa | 2.6V | 08:24:03 | 02:21:20 | 00:00:00 | |
| AA1-15 | 2026-09-04 00:39:15 | 51.09748 | 8.34848 | 105° | 31km/h | 23869m | -16.2m/s | -53°C | 0.5% | 31.9hPa | 2.5V | 08:24:17 | 02:21:21 | 00:00:00 | |
| HSKMA3-T | 2026-09-04 00:39:14 | 51.09750 | 8.34836 | 106° | 31km/h | 23885m | -16.7m/s | -53°C | 0.5% | 31.9hPa | 2.6V | 08:24:17 | 02:21:20 | 00:00:00 | |
| DB0NH | 2026-09-04 00:39:14 | 51.09750 | 8.34836 | 106° | 18km/h | 23885m | -16.7m/s | -52.9°C | 3.8% | 31.8hPa | 2.6V | 00:00:00 | 02:21:20 | 00:00:00 | |
| GOEST3-10 | 2026-09-04 00:39:12 | 51.09755 | 8.34813 | 113° | 29km/h | 23919m | -16.5m/s | -52.9°C | 3.8% | 31.7hPa | 2.6V | 00:00:00 | 00:00:00 | 00:00:00 | |
| DL1NUX | 2026-09-04 00:39:11 | 51.09766 | 8.34782 | 127° | 29km/h | 23969m | -16.7m/s | -53.1°C | 3.9% | 31.5hPa | 2.5V | 08:24:08 | 02:21:15 | 00:00:00 | |
| BIOWL1-15 | 2026-09-04 00:39:08 | 51.09771 | 8.34773 | 129° | 27km/h | 23985m | -16.9m/s | -53.1°C | 0.5% | 31.4hPa | 2.5V | 08:24:17 | 02:21:14 | 00:00:00 | |
| AA1-15 | 2026-09-04 00:39:04 | 51.09788 | 8.34748 | 146° | 18km/h | 24052m | -16.5m/s | -53.3°C | 0.6% | 31.1hPa | 2.5V | 08:24:17 | 02:21:10 | 00:00:00 | |
| DL1NUX | 2026-09-04 00:39:04 | 51.09803 | 8.34739 | 169° | 9km/h | 24136m | -16.9m/s | -53.4°C | 4% | 30.6hPa | 2.6V | 08:24:18 | 02:21:05 | 00:00:00 | |
| HSKMA3-T | 2026-09-04 00:39:03 | 51.09792 | 8.34744 | 155° | 16km/h | 24069m | -16.9m/s | -53.2°C | 0.6% | 31hPa | 2.5V | 08:24:17 | 02:21:09 | 00:00:00 | |
| DO3DL | 2026-09-04 00:39:03 | 51.09792 | 8.34744 | 156° | 16km/h | 24069m | -16.9m/s | -53.2°C | 1.0% | 31.0hPa | 2.5V | 08:24:00 | 00:00:00 | 00:00:00 | |
| DM0DOS-11 | 2026-09-04 00:39:02 | 51.09806 | 8.34738 | 160° | 7km/h | 24170m | -16.9m/s | -53.4°C | 4% | 30.5hPa | 2.5V | 08:24:20 | 02:21:03 | 00:00:00 | |
| DL1XH-west | 2026-09-04 00:38:59 | 51.09806 | 8.34738 | 160° | 7km/h | 24170m | -16.9m/s | -53.4°C | 0.6% | 30.5hPa | 2.5V | 08:25:08 | 02:21:03 | 00:00:00 | |
| BIOWL1-15 | 2026-09-04 00:38:58 | 51.09813 | 8.34726 | 109° | 11km/h | 24255m | -17.2m/s | -53.1°C | 0.6% | 30.1hPa | 2.6V | 08:25:08 | 02:20:58 | 00:00:00 | |
| AA1-15 | 2026-09-04 00:38:53 | 51.09812 | 8.34730 | 119° | 11km/h | 24238m | -16.8m/s | -53.2°C | 0.6% | 30.2hPa | 2.6V | 08:25:08 | 02:20:59 | 00:00:00 | |
| DF3TZ-5 | 2026-09-04 00:38:53 | 51.09823 | 8.34685 | 120° | 15km/h | 24375m | -17.2m/s | 0°C | -1.0% | -1.0hPa | 2.6V | 00:00:00 | 00:00:00 | 00:00:00 | |
| SO1NDE-10 | 2026-09-04 00:38:52 | 51.09813 | 8.34726 | 109° | 15km/h | 24255m | -17.1m/s | -53.1°C | 4.0% | 30.0hPa | 2.6V | 00:00:00 | 02:20:58 | 00:00:00 | |
| DL1NUX | 2026-09-04 00:38:51 | 51.09817 | 8.34708 | 110° | 18km/h | 24307m | -17.1m/s | -53.1°C | 4% | 29.8hPa | 2.5V | 08:24:28 | 02:20:55 | 00:00:00 | |
| DO2JMG | 2026-09-04 00:38:49 | 51.09817 | 8.34708 | 110° | 18km/h | 24307m | -17.1m/s | -53.2°C | 0.6% | 29.8hPa | 2.5V | 08:25:08 | 02:20:55 | 00:00:00 | |
| DK9SH | 2026-09-04 00:38:48 | 51.09817 | 8.34708 | 111° | 18km/h | 24307m | -17.1m/s | -53.2°C | 1.0% | 29.8hPa | 2.6V | 08:25:00 | 00:00:00 | 00:00:00 | |
| DL1XH1-15 | 2026-09-04 00:38:47 | 51.09825 | 8.34680 | 127° | 13km/h | 24392m | -17.1m/s | -53.2°C | 4.1% | 29.5hPa | 2.6V | 08:24:33 | 02:20:50 | 00:00:00 | |
| DL1XH-west | 2026-09-04 00:38:47 | 51.09820 | 8.34696 | 114° | 16km/h | 24341m | -17.1m/s | -53.1°C | 0.6% | 29.7hPa | 2.5V | 08:25:08 | 02:20:53 | 00:00:00 | |
| AA1-15 | 2026-09-04 00:38:43 | 51.09828 | 8.34676 | 132° | 15km/h | 24410m | -17.8m/s | -53.2°C | 0.6% | 29.4hPa | 2.5V | 08:25:08 | 02:20:49 | 00:00:00 | |
| BIOWL1-15 | 2026-09-04 00:38:41 | 51.09833 | 8.34668 | 144° | 15km/h | 24446m | -17.9m/s | -53.1°C | 0.6% | 29.2hPa | 2.5V | 08:25:08 | 02:20:47 | 00:00:00 | |
| DL3AQ-11 | 2026-09-04 00:38:41 | 51.09836 | 8.34664 | 138° | 13km/h | 24464m | -18.2m/s | -53.1°C | 1.1% | 29.1hPa | 2.5V | 00:00:00 | 00:00:00 | 00:00:00 | |
| NBG1-10 | 2026-09-04 00:38:40 | 51.09836 | 8.34664 | 139° | 15km/h | 24464m | -18.2m/s | -53.1°C | 4.0% | 29.1hPa | 2.5V | 08:24:00 | 02:20:46 | 00:00:00 | |
| DL1XH1-15 | 2026-09-04 00:38:39 | 51.09848 | 8.34646 | 141° | 11km/h | 24574m | -18.5m/s | -52.9°C | 4% | 28.6hPa | 2.5V | 08:24:43 | 02:20:40 | 00:00:00 | |
| DO2JMG | 2026-09-04 00:38:39 | 51.09838 | 8.34661 | 145° | 13km/h | 24482m | -18.3m/s | -53.2°C | 0.6% | 29hPa | 2.6V | 08:25:08 | 02:20:45 | 00:00:00 | |
| DL1XH-west | 2026-09-04 00:38:36 | 51.09845 | 8.34652 | 131° | 11km/h | 24538m | -18.2m/s | -53.1°C | 0.6% | 28.8hPa | 2.5V | 08:25:08 | 02:20:42 | 00:00:00 | |
| AA1-15 | 2026-09-04 00:38:33 | 51.09851 | 8.34644 | 144° | 11km/h | 24592m | -18.4m/s | -52.9°C | 0.6% | 28.6hPa | 2.5V | 08:25:08 | 02:20:39 | 00:00:00 | |
| HSKMA3-T | 2026-09-04 00:38:32 | 51.09853 | 8.34641 | 153° | 13km/h | 24611m | -17.8m/s | -52.8°C | 0.6% | 28.5hPa | 2.6V | 08:25:08 | 02:20:38 | 00:00:00 | |
| GOEST3-10 | 2026-09-04 00:38:32 | 51.09853 | 8.34641 | 154° | 16km/h | 24611m | -17.7m/s | -52.8°C | 4.0% | 28.4hPa | 2.6V | 00:00:00 | 00:00:00 | 00:00:00 | |
| DD8BA-10 | 2026-09-04 00:38:31 | 51.09856 | 8.34639 | 155° | 16km/h | 24629m | -17.7m/s | -52.8°C | 4.1% | 28.3hPa | 2.6V | 00:00:00 | 00:00:00 | 00:00:00 | |
| DL3AQ-11 | 2026-09-04 00:38:30 | 51.09864 | 8.34635 | 162° | 16km/h | 24664m | -17.8m/s | -52.7°C | 1.0% | 28.2hPa | 2.6V | 00:00:00 | 00:00:00 | 00:00:00 | |
| DL1XH1-15 | 2026-09-04 00:38:29 | 51.09887 | 8.34629 | 178° | 18km/h | 24753m | -17.9m/s | -52.3°C | 3.9% | 27.8hPa | 2.6V | 08:24:53 | 02:20:30 | 00:00:00 | |
| DM0DOS-11 | 2026-09-04 00:38:29 | 51.09873 | 8.34632 | 168° | 18km/h | 24700m | -17.8m/s | -52.5°C | 4% | 28.1hPa | 2.5V | 08:24:50 | 02:20:33 | 00:00:00 | |
| DO2JMG | 2026-09-04 00:38:28 | 51.09868 | 8.34633 | 171° | 18km/h | 24682m | -17.8m/s | -52.6°C | 0.6% | 28.1hPa | 2.5V | 08:25:08 | 02:20:34 | 00:00:00 | |
| DL1XH-west | 2026-09-04 00:38:25 | 51.09887 | 8.34629 | 179° | 18km/h | 24753m | -17.9m/s | -52.3°C | 0.6% | 27.8hPa | 2.6V | 08:25:08 | 02:20:30 | 00:00:00 | |
| DO3MHA-12 | 2026-09-04 00:38:25 | 51.09883 | 8.34630 | 175° | 20km/h | 24736m | -17.8m/s | -52.3°C | 3.9% | 27.9hPa | 2.6V | 00:00:00 | 02:20:31 | 00:00:00 | |
| DJ2DS-15 | 2026-09-04 00:38:24 | 51.09892 | 8.34629 | 182° | 15km/h | 24772m | -17.7m/s | -52.1°C | 3.9% | 27.7hPa | 2.6V | 00:00:00 | 02:20:29 | 00:00:00 | |
| DM0DOS-11 | 2026-09-04 00:38:23 | 51.09908 | 8.34631 | 154° | 7km/h | 24880m | -18.3m/s | -52°C | 3.9% | 27.3hPa | 2.6V | 08:25:00 | 02:20:23 | 00:00:00 | |
| AA1-15 | 2026-09-04 00:38:22 | 51.09896 | 8.34630 | 185° | 15km/h | 24789m | -18.1m/s | -52.1°C | 0.6% | 27.7hPa | 2.5V | 08:25:08 | 02:20:28 | 00:00:00 | |
| SO1NDE-10 | 2026-09-04 00:38:22 | 51.09896 | 8.34630 | 185° | 16km/h | 24790m | -18.1m/s | -52.1°C | 3.9% | 27.6hPa | 2.5V | 00:00:00 | 02:20:28 | 00:00:00 | |
| DL1XH-15 | 2026-09-04 00:38:21 | 51.09904 | 8.34632 | 186° | 7km/h | 24843m | -18.1m/s | -52°C | 3.9% | 27.4hPa | 2.5V | 08:24:58 | 02:20:25 | 00:00:00 | |
| HSKMA3-T | 2026-09-04 00:38:21 | 51.09899 | 8.34630 | 190° | 11km/h | 24807m | -17.8m/s | -52.1°C | 0.5% | 27.6hPa | 2.5V | 08:25:08 | 02:20:27 | 00:00:00 | |
| DD8BA-10 | 2026-09-04 00:38:21 | 51.09899 | 8.34630 | 191° | 11km/h | 24808m | -17.8m/s | -52.0°C | 3.9% | 27.5hPa | 2.5V | 00:00:00 | 00:00:00 | 00:00:00 | |
| DD1CC8 | 2026-09-04 00:38:20 | 51.09904 | 8.34632 | 186° | 5km/h | 24844m | -18.1m/s | -52.0°C | 1.0% | 27.4hPa | 2.5V | 00:00:00 | 00:00:00 | 00:00:00 | |
| DL1XH1-15 | 2026-09-04 00:38:19 | 51.09915 | 8.34624 | 149° | 15km/h | 24935m | -18.3m/s | -51.8°C | 3.9% | 27.1hPa | 2.5V | 08:25:03 | 02:20:20 | 00:00:00 | |
| BIOWL1-15 | 2026-09-04 00:38:18 | 51.09906 | 8.34632 | 177° | 7km/h | 24862m | -18.3m/s | -52°C | 0.6% | 27.4hPa | 2.6V | 08:25:08 | 02:20:24 | 00:00:00 | |
| DO2JMG | 2026-09-04 00:38:17 | 51.09908 | 8.34631 | 155° | 7km/h | 24880m | -18.3m/s | -52°C | 0.5% | 27.3hPa | 2.6V | 08:25:08 | 02:20:23 | 00:00:00 | |
| DL1XH-west | 2026-09-04 00:38:14 | 51.09915 | 8.34624 | 150° | 15km/h | 24935m | -18.3m/s | -51.8°C | 0.5% | 27.1hPa | 2.5V | 08:25:08 | 02:20:20 | 00:00:00 | |
| AA1-15 | 2026-09-04 00:38:11 | 51.09926 | 8.34614 | 155° | 16km/h | 24990m | -18.4m/s | -51.4°C | 0.5% | 26.8hPa | 2.6V | 08:25:08 | 02:20:17 | 00:00:00 | |
| DL1NUX | 2026-09-04 00:38:11 | 51.09935 | 8.34610 | 162° | 16km/h | 25027m | -18.5m/s | -51.2°C | 3.7% | 26.7hPa | 2.6V | 08:25:08 | 02:20:15 | 00:00:00 | |
| SMARD9-10 | 2026-09-04 00:38:11 | 51.09926 | 8.34614 | 156° | 16km/h | 24990m | -18.4m/s | -51.4°C | 1.0% | 26.8hPa | 2.5V | 00:00:00 | 00:00:00 | 00:00:00 | |
| DM0DOS-11 | 2026-09-04 00:38:10 | 51.09943 | 8.34607 | 168° | 15km/h | 25063m | -18.7m/s | -51°C | 3.7% | 26.6hPa | 2.5V | 08:25:10 | 02:20:13 | 00:00:00 | |
| HSKMA3-T | 2026-09-04 00:38:10 | 51.09930 | 8.34612 | 163° | 18km/h | 25008m | -18.5m/s | -51.3°C | 0.4% | 26.8hPa | 2.6V | 08:25:08 | 02:20:16 | 00:00:00 | |
| BIOWL1-15 | 2026-09-04 00:38:07 | 51.09943 | 8.34607 | 169° | 15km/h | 25063m | -18.7m/s | -51°C | 0.4% | 26.6hPa | 2.5V | 08:25:59 | 02:20:13 | 00:00:00 | |
| DO2JMG | 2026-09-04 00:38:06 | 51.09946 | 8.34606 | 178° | 15km/h | 25082m | -18.7m/s | -51°C | 0.4% | 26.4hPa | 2.5V | 08:25:59 | 02:20:12 | 00:00:00 | |
| DL4BBY-15 | 2026-09-04 00:38:06 | 51.09947 | 8.34606 | 179° | 22km/h | 25083m | -18.6m/s | -50.6°C | 0% | 0hPa | 2.5V | 00:00:00 | 00:00:00 | 00:00:00 | |
| DC6BW-12 | 2026-09-04 00:38:05 | 51.09946 | 8.34606 | 179° | 15km/h | 25083m | -18.7m/s | -51.0°C | 1.0% | 26.4hPa | 2.5V | 08:25:00 | 00:00:00 | 00:00:00 | |
| DL1NUX | 2026-09-04 00:38:04 | 51.09973 | 8.34609 | 191° | 18km/h | 25212m | -18.5m/s | -50.5°C | 3.6% | 25.9hPa | 2.5V | 08:25:18 | 02:20:05 | 00:00:00 | |
| DL1XH-west | 2026-09-04 00:38:03 | 51.09957 | 8.34606 | 179° | 13km/h | 25138m | -18.3m/s | -50.8°C | 0.4% | 26.2hPa | 2.6V | 08:25:59 | 02:20:09 | 00:00:00 | |
| AA1-15 | 2026-09-04 00:38:01 | 51.09964 | 8.34607 | 185° | 15km/h | 25175m | -18.6m/s | -50.6°C | 0.3% | 26.1hPa | 2.5V | 08:25:59 | 02:20:07 | 00:00:00 | |
| HSKMA3-T | 2026-09-04 00:38:00 | 51.09968 | 8.34608 | 193° | 16km/h | 25194m | -18.8m/s | -50.6°C | 0.3% | 26hPa | 2.5V | 08:25:59 | 02:20:06 | 00:00:00 | |
| BIOWL1-15 | 2026-09-04 00:37:59 | 51.09983 | 8.34615 | 200° | 22km/h | 25250m | -18.4m/s | -50.4°C | 0.3% | 25.8hPa | 2.6V | 08:25:59 | 02:20:03 | 00:00:00 | |
| DO2JMG | 2026-09-04 00:37:56 | 51.09988 | 8.34618 | 207° | 26km/h | 25268m | -18.6m/s | -50.3°C | 0.3% | 25.7hPa | 2.6V | 08:25:59 | 02:20:02 | 00:00:00 | |
| DL1XH-west | 2026-09-04 00:37:53 | 51.10005 | 8.34635 | 215° | 27km/h | 25324m | -18.9m/s | -50°C | 0.2% | 25.5hPa | 2.5V | 08:25:59 | 02:19:59 | 00:00:00 | |
| AA1-15 | 2026-09-04 00:37:51 | 51.10016 | 8.34649 | 221° | 27km/h | 25362m | -19.1m/s | -50°C | 0.2% | 25.4hPa | 2.5V | 08:25:59 | 02:19:57 | 00:00:00 | |
| DL1NUX | 2026-09-04 00:37:51 | 51.10026 | 8.34664 | 224° | 26km/h | 25400m | -18.7m/s | -50.2°C | 3.4% | 25.2hPa | 2.6V | 08:25:28 | 02:19:55 | 00:00:00 | |
| BUE01 | 2026-09-04 00:37:50 | 51.10021 | 8.34656 | 225° | 26km/h | 25381m | -18.9m/s | -50.1°C | 0.9% | 25.3hPa | 2.5V | 00:00:00 | 00:00:00 | 00:00:00 | |
| DL1XH1-15 | 2026-09-04 00:37:49 | 51.10045 | 8.34700 | 238° | 24km/h | 25495m | -19.2m/s | -50.3°C | 3.5% | 24.8hPa | 2.5V | 08:25:33 | 02:19:50 | 00:00:00 | |
| HSKMA3-T | 2026-09-04 00:37:49 | 51.10026 | 8.34664 | 224° | 26km/h | 25400m | -18.7m/s | -50.2°C | 0.2% | 25.2hPa | 2.6V | 08:25:59 | 02:19:55 | 00:00:00 | |
| DM0DOS-11 | 2026-09-04 00:37:48 | 51.10034 | 8.34678 | 226° | 24km/h | 25438m | -18.8m/s | -50.3°C | 3.4% | 25hPa | 2.5V | 08:25:30 | 02:19:53 | 00:00:00 | |
| BIOWL1-15 | 2026-09-04 00:37:46 | 51.10053 | 8.34725 | 246° | 24km/h | 25552m | -19m/s | -50.2°C | 0.2% | 24.6hPa | 2.6V | 08:25:59 | 02:19:47 | 00:00:00 | |
| DO2JMG | 2026-09-04 00:37:45 | 51.10042 | 8.34692 | 232° | 24km/h | 25476m | -18.9m/s | -50.3°C | 0.3% | 24.9hPa | 2.5V | 08:25:59 | 02:19:51 | 00:00:00 | |
| DL1NUX | 2026-09-04 00:37:44 | 51.10057 | 8.34743 | 253° | 22km/h | 25591m | -19.5m/s | -50.1°C | 3.4% | 24.4hPa | 2.5V | 08:25:38 | 02:19:45 | 00:00:00 | |
| DO3MHA-11 | 2026-09-04 00:37:44 | 51.10045 | 8.34700 | 239° | 22km/h | 25496m | -19.2m/s | -50.3°C | 3.5% | 24.8hPa | 2.5V | 00:00:00 | 02:19:50 | 00:00:00 | |
| DJ2DS-15 | 2026-09-04 00:37:43 | 51.10048 | 8.34708 | 239° | 22km/h | 25515m | -18.9m/s | -50.3°C | 3.5% | 24.7hPa | 2.5V | 00:00:00 | 02:19:49 | 00:00:00 | |
| DM0DOS-11 | 2026-09-04 00:37:42 | 51.10059 | 8.34759 | 254° | 20km/h | 25630m | -19.1m/s | -50.2°C | 3.5% | 24.3hPa | 2.5V | 08:25:40 | 02:19:43 | 00:00:00 | |
| DL1XH-west | 2026-09-04 00:37:42 | 51.10051 | 8.34717 | 247° | 24km/h | 25533m | -19m/s | -50.3°C | 0.3% | 24.6hPa | 2.6V | 08:25:59 | 02:19:48 | 00:00:00 | |
| AA1-15 | 2026-09-04 00:37:40 | 51.10055 | 8.34734 | 255° | 24km/h | 25572m | -19.4m/s | -50.1°C | 0.2% | 24.5hPa | 2.5V | 08:25:59 | 02:19:46 | 00:00:00 | |
| HSKMA3-T | 2026-09-04 00:37:39 | 51.10057 | 8.34743 | 253° | 22km/h | 25591m | -19.5m/s | -50.1°C | 0.2% | 24.5hPa | 2.5V | 08:25:59 | 02:19:45 | 00:00:00 | |
| DO2JMG | 2026-09-04 00:37:35 | 51.10061 | 8.34775 | 252° | 18km/h | 25668m | -19.2m/s | -50.4°C | 0.3% | 24.2hPa | 2.6V | 08:25:59 | 02:19:41 | 00:00:00 | |
| DL1XH-west | 2026-09-04 00:37:31 | 51.10068 | 8.34804 | 250° | 20km/h | 25746m | -19.5m/s | -50.3°C | 0.3% | 23.9hPa | 2.5V | 08:25:59 | 02:19:37 | 00:00:00 | |
| AA1-15 | 2026-09-04 00:37:30 | 51.10069 | 8.34812 | 259° | 22km/h | 25765m | -19.5m/s | -50.3°C | 0.3% | 23.8hPa | 2.5V | 08:25:59 | 02:19:36 | 00:00:00 | |
| DM0DOS-11 | 2026-09-04 00:37:30 | 51.10070 | 8.34838 | 272° | 22km/h | 25824m | -19.6m/s | -50.3°C | 3.5% | 23.6hPa | 2.6V | 08:25:50 | 02:19:33 | 00:00:00 | |
| DL1XH1-15 | 2026-09-04 00:37:29 | 51.10066 | 8.34863 | 298° | 20km/h | 25883m | -19.8m/s | -50.3°C | 3.6% | 23.4hPa | 2.5V | 08:25:53 | 02:19:30 | 00:00:00 | |
| HSKMA3-T | 2026-09-04 00:37:28 | 51.10071 | 8.34830 | 271° | 22km/h | 25804m | -19.5m/s | -50.3°C | 0.3% | 23.7hPa | 2.6V | 08:25:59 | 02:19:34 | 00:00:00 | |
| DO2JMG | 2026-09-04 00:37:25 | 51.10068 | 8.34855 | 288° | 20km/h | 25863m | -19.8m/s | -50.3°C | 0.4% | 23.5hPa | 2.5V | 08:25:59 | 02:19:31 | 00:00:00 | |
| BIOWL1-15 | 2026-09-04 00:37:24 | 51.10056 | 8.34885 | 316° | 16km/h | 25962m | -19.7m/s | -50.1°C | 0.3% | 23.1hPa | 2.6V | 08:25:59 | 02:19:26 | 00:00:00 | |
| DL1XH-west | 2026-09-04 00:37:21 | 51.10059 | 8.34880 | 308° | 16km/h | 25942m | -19.7m/s | -50.1°C | 0.3% | 23.2hPa | 2.6V | 08:25:59 | 02:19:27 | 00:00:00 | |
| AA1-15 | 2026-09-04 00:37:19 | 51.10053 | 8.34889 | 309° | 13km/h | 25981m | -19.7m/s | -50°C | 0.3% | 23hPa | 2.5V | 08:25:59 | 02:19:25 | 00:00:00 | |
| DL1XH1-15 | 2026-09-04 00:37:19 | 51.10046 | 8.34911 | 287° | 13km/h | 26081m | -19.9m/s | -49.8°C | 3.4% | 22.7hPa | 2.6V | 08:26:03 | 02:19:20 | 00:00:00 | |
| DM0DOS-11 | 2026-09-04 00:37:18 | 51.10049 | 8.34897 | 298° | 13km/h | 26021m | -20.1m/s | -49.8°C | 3.4% | 22.9hPa | 2.5V | 08:26:00 | 02:19:23 | 00:00:00 | |
| HSKMA3-T | 2026-09-04 00:37:18 | 51.10051 | 8.34893 | 313° | 13km/h | 26001m | -19.9m/s | -50°C | 0.3% | 23hPa | 2.5V | 08:25:59 | 02:19:24 | 00:00:00 | |
| DO2JMG | 2026-09-04 00:37:14 | 51.10045 | 8.34911 | 288° | 13km/h | 26081m | -19.9m/s | -49.8°C | 0.2% | 22.7hPa | 2.6V | 08:26:50 | 02:19:20 | 00:00:00 | |
| DO3MHA-11 | 2026-09-04 00:37:14 | 51.10045 | 8.34911 | 288° | 13km/h | 26081m | -19.9m/s | -49.7°C | 3.4% | 22.6hPa | 2.6V | 00:00:00 | 02:19:20 | 00:00:00 | |
| SMARD9-10 | 2026-09-04 00:37:13 | 51.10045 | 8.34911 | 289° | 13km/h | 26081m | -19.9m/s | -49.8°C | 0.8% | 22.7hPa | 2.6V | 00:00:00 | 00:00:00 | 00:00:00 | |
| DM0DOS-11 | 2026-09-04 00:37:12 | 51.10043 | 8.34948 | 290° | 11km/h | 26222m | -20.4m/s | -49.7°C | 3.5% | 22.2hPa | 2.6V | 08:26:10 | 02:19:13 | 00:00:00 | |
| DL1XH-west | 2026-09-04 00:37:10 | 51.10044 | 8.34934 | 276° | 13km/h | 26161m | -20.1m/s | -49.8°C | 0.2% | 22.4hPa | 2.5V | 08:26:50 | 02:19:16 | 00:00:00 | |
| HSKMA3-T | 2026-09-04 00:37:08 | 51.10044 | 8.34944 | 288° | 11km/h | 26202m | -20.2m/s | -49.8°C | 0.3% | 22.3hPa | 2.6V | 08:26:50 | 02:19:14 | 00:00:00 | |
| DO2JMG | 2026-09-04 00:37:04 | 51.10038 | 8.34959 | 324° | 9km/h | 26282m | -20.2m/s | -49.8°C | 0.2% | 22hPa | 2.5V | 08:26:50 | 02:19:10 | 00:00:00 | |
| DL1XH-west | 2026-09-04 00:37:00 | 51.10031 | 8.34972 | 288° | 13km/h | 26364m | -20.5m/s | -49.9°C | 0.4% | 21.7hPa | 2.6V | 08:26:50 | 02:19:06 | 00:00:00 | |
| BIOWL1-15 | 2026-09-04 00:36:59 | 51.10028 | 8.34998 | 276° | 18km/h | 26446m | -20.5m/s | -49.6°C | 0.3% | 21.4hPa | 2.5V | 08:26:50 | 02:19:02 | 00:00:00 | |
| DM0DOS-11 | 2026-09-04 00:36:58 | 51.10028 | 8.34991 | 279° | 18km/h | 26425m | -20.7m/s | -49.8°C | 3.5% | 21.5hPa | 2.5V | 08:26:20 | 02:19:03 | 00:00:00 | |
| HSKMA3-T | 2026-09-04 00:36:58 | 51.10029 | 8.34984 | 277° | 16km/h | 26405m | -20.4m/s | -49.9°C | 0.4% | 21.6hPa | 2.5V | 08:26:50 | 02:19:04 | 00:00:00 | |
| AA1-15 | 2026-09-04 00:36:57 | 51.10029 | 8.34991 | 280° | 18km/h | 26425m | -20.7m/s | -49.8°C | 0.3% | 21.5hPa | 2.5V | 08:26:50 | 02:19:03 | 00:00:00 | |
| DO2JMG | 2026-09-04 00:36:54 | 51.10026 | 8.35012 | 287° | 16km/h | 26487m | -20.9m/s | -49.5°C | 0.3% | 21.3hPa | 2.6V | 08:26:50 | 02:19:00 | 00:00:00 | |
| HTAHTA | 2026-09-04 00:36:54 | 51.10015 | 8.35031 | 332° | 15km/h | 26570m | -21.1m/s | -49.2°C | 0.8% | 21.1hPa | 2.6V | 00:00:00 | 00:00:00 | 00:00:00 | |
| DM0DOS-11 | 2026-09-04 00:36:52 | 51.10004 | 8.35036 | 351° | 15km/h | 26633m | -20.9m/s | -49.1°C | 3.4% | 20.8hPa | 2.6V | 08:26:30 | 02:18:53 | 00:00:00 | |
| DO3DL | 2026-09-04 00:36:52 | 51.10021 | 8.35024 | 308° | 16km/h | 26529m | -20.7m/s | -49.4°C | 0.8% | 21.2hPa | 2.5V | 08:26:00 | 00:00:00 | 00:00:00 | |
| DL1NUX | 2026-09-04 00:36:51 | 51.10011 | 8.35033 | 345° | 16km/h | 26591m | -20.9m/s | -49.1°C | 3.4% | 21hPa | 2.5V | 08:26:28 | 02:18:55 | 00:00:00 | |
| DL1XH-west | 2026-09-04 00:36:50 | 51.10011 | 8.35033 | 345° | 16km/h | 26591m | -20.9m/s | -49.1°C | 0.3% | 21hPa | 2.5V | 08:26:50 | 02:18:55 | 00:00:00 | |
| HSKMA3-T | 2026-09-04 00:36:48 | 51.10007 | 8.35035 | 344° | 15km/h | 26612m | -21m/s | -49.1°C | 0.3% | 20.9hPa | 2.6V | 08:26:50 | 02:18:54 | 00:00:00 | |
| AA1-15 | 2026-09-04 00:36:47 | 51.10004 | 8.35036 | 351° | 15km/h | 26633m | -20.9m/s | -49.1°C | 0.2% | 20.8hPa | 2.6V | 08:26:50 | 02:18:53 | 00:00:00 | |
| GOEST3-10 | 2026-09-04 00:36:47 | 51.10004 | 8.35036 | 352° | 11km/h | 26633m | -20.9m/s | -49.1°C | 3.4% | 20.8hPa | 2.5V | 00:00:00 | 02:18:53 | 00:00:00 | |
| DD1CC3-15 | 2026-09-04 00:36:46 | 51.10003 | 8.35036 | 352° | 15km/h | 26633m | -20.9m/s | -49.1°C | 0.9% | 20.8hPa | 2.5V | 08:26:00 | 00:00:00 | 00:00:00 | |
| DO3DL | 2026-09-04 00:36:45 | 51.09998 | 8.35039 | 343° | 11km/h | 26675m | -20.9m/s | -49.0°C | 0.8% | 20.7hPa | 2.5V | 08:26:00 | 00:00:00 | 00:00:00 | |
| DL1XH-15 | 2026-09-04 00:36:44 | 51.09986 | 8.35052 | 334° | 9km/h | 26800m | -21.5m/s | -48.3°C | 3.2% | 20.3hPa | 2.5V | 08:26:38 | 02:18:45 | 00:00:00 | |
| DO2JMG | 2026-09-04 00:36:44 | 51.09996 | 8.35041 | 325° | 9km/h | 26695m | -20.6m/s | -48.8°C | 0.2% | 20.6hPa | 2.5V | 08:26:50 | 02:18:50 | 00:00:00 | |
| DL1XH-west | 2026-09-04 00:36:39 | 51.09986 | 8.35052 | 334° | 9km/h | 26800m | -21.5m/s | -48.3°C | 0.1% | 20.3hPa | 2.5V | 08:26:50 | 02:18:45 | 00:00:00 | |
| HSKMA3-T | 2026-09-04 00:36:37 | 51.09981 | 8.35055 | 347° | 9km/h | 26843m | -21.4m/s | -48.4°C | 0.2% | 20.2hPa | 2.6V | 08:26:50 | 02:18:43 | 00:00:00 | |
| BIOWL1-15 | 2026-09-04 00:36:34 | 51.09961 | 8.35051 | 27° | 18km/h | 26971m | -21.4m/s | -48.1°C | 0.1% | 19.8hPa | 2.6V | 08:26:50 | 02:18:37 | 00:00:00 | |
| DO2JMG | 2026-09-04 00:36:33 | 51.09969 | 8.35055 | 15° | 15km/h | 26928m | -21.4m/s | -48.2°C | 0.1% | 19.9hPa | 2.5V | 08:26:50 | 02:18:39 | 00:00:00 | |
| DO3MHA-11 | 2026-09-04 00:36:33 | 51.09969 | 8.35055 | 16° | 20km/h | 26928m | -21.4m/s | -48.1°C | 3.3% | 19.9hPa | 2.5V | 08:26:00 | 02:18:39 | 00:00:00 | |
| GOEST3-10 | 2026-09-04 00:36:32 | 51.09965 | 8.35053 | 18° | 20km/h | 26950m | -21.5m/s | -48.2°C | 3.3% | 19.8hPa | 2.6V | 00:00:00 | 00:00:00 | 00:00:00 | |
| DL1NUX | 2026-09-04 00:36:31 | 51.09953 | 8.35043 | 38° | 20km/h | 27014m | -21.5m/s | -47.8°C | 3.2% | 19.6hPa | 2.6V | 08:26:48 | 02:18:35 | 00:00:00 | |
| DL1XH-west | 2026-09-04 00:36:29 | 51.09953 | 8.35043 | 39° | 20km/h | 27014m | -21.5m/s | -47.8°C | 0.1% | 19.6hPa | 2.6V | 08:26:50 | 02:18:35 | 00:00:00 | |
| DL1XH1-15 | 2026-09-04 00:36:29 | 51.09934 | 8.35007 | 57° | 24km/h | 27123m | -21.5m/s | -47.5°C | 3.1% | 19.3hPa | 2.6V | 08:26:53 | 02:18:30 | 00:00:00 | |
| DM0DOS-11 | 2026-09-04 00:36:28 | 51.09945 | 8.35031 | 50° | 22km/h | 27057m | -21.8m/s | -47.6°C | 3.1% | 19.5hPa | 2.5V | 08:26:50 | 02:18:33 | 00:00:00 | |
| HSKMA3-T | 2026-09-04 00:36:27 | 51.09945 | 8.35031 | 51° | 22km/h | 27057m | -21.8m/s | -47.6°C | 0.1% | 19.5hPa | 2.5V | 08:26:50 | 02:18:33 | 00:00:00 | |
| AA1-15 | 2026-09-04 00:36:27 | 51.09941 | 8.35023 | 52° | 24km/h | 27079m | -22m/s | -47.5°C | 0% | 19.4hPa | 2.5V | 08:27:41 | 02:18:32 | 00:00:00 | |
| DO2JMG | 2026-09-04 00:36:23 | 51.09929 | 8.34992 | 62° | 22km/h | 27166m | -22m/s | -47.5°C | 0% | 19.2hPa | 2.6V | 08:27:41 | 02:18:28 | 00:00:00 | |
| DM0DOS-11 | 2026-09-04 00:36:23 | 51.09924 | 8.34960 | 98° | 15km/h | 27276m | -22.1m/s | -47.3°C | 3.1% | 18.9hPa | 2.6V | 08:27:00 | 02:18:23 | 00:00:00 | |
| BIOWL1-15 | 2026-09-04 00:36:20 | 51.09924 | 8.34966 | 90° | 16km/h | 27254m | -22.3m/s | -47.3°C | 0% | 18.9hPa | 2.5V | 08:27:41 | 02:18:24 | 00:00:00 | |
| DL1XH-west | 2026-09-04 00:36:19 | 51.09924 | 8.34972 | 79° | 15km/h | 27232m | -22.2m/s | -47.3°C | 0% | 19hPa | 2.5V | 08:27:41 | 02:18:25 | 00:00:00 | |
| DL1XH1-15 | 2026-09-04 00:36:18 | 51.09929 | 8.34942 | 124° | 18km/h | 27342m | -22.2m/s | -47.3°C | 3.1% | 18.7hPa | 2.5V | 08:27:03 | 02:18:20 | 00:00:00 | |
| HSKMA3-T | 2026-09-04 00:36:17 | 51.09924 | 8.34960 | 99° | 15km/h | 27276m | -22.1m/s | -47.3°C | 0% | 18.9hPa | 2.6V | 08:27:41 | 02:18:23 | 00:00:00 | |
| AA1-15 | 2026-09-04 00:36:15 | 51.09927 | 8.34948 | 118° | 16km/h | 27320m | -22m/s | -47.3°C | 0.1% | 18.7hPa | 2.6V | 08:27:41 | 02:18:21 | 00:00:00 | |
| DO3MHA-12 | 2026-09-04 00:36:15 | 51.09927 | 8.34948 | 118° | 16km/h | 27321m | -22.0m/s | -47.3°C | 3.1% | 18.7hPa | 2.6V | 00:00:00 | 02:18:21 | 00:00:00 | |
| DL3AQ-11 | 2026-09-04 00:36:14 | 51.09932 | 8.34936 | 126° | 16km/h | 27365m | -22.2m/s | -47.2°C | 0.7% | 18.6hPa | 2.5V | 00:00:00 | 00:00:00 | 00:00:00 | |
| DO3MHA-11 | 2026-09-04 00:36:13 | 51.09932 | 8.34936 | 127° | 11km/h | 27365m | -22.1m/s | -47.1°C | 3.0% | 18.6hPa | 2.5V | 00:00:00 | 02:18:19 | 00:00:00 | |
| GOEST3-10 | 2026-09-04 00:36:12 | 51.09934 | 8.34930 | 134° | 18km/h | 27387m | -22.5m/s | -47.0°C | 3.0% | 18.5hPa | 2.5V | 00:00:00 | 00:00:00 | 00:00:00 | |
| DL1XH-15 | 2026-09-04 00:36:11 | 51.09945 | 8.34914 | 141° | 16km/h | 27454m | -22.4m/s | -47°C | 3% | 18.4hPa | 2.5V | 08:27:08 | 02:18:15 | 00:00:00 | |
| DO2JMG | 2026-09-04 00:36:11 | 51.09938 | 8.34924 | 134° | 18km/h | 27409m | -22.4m/s | -47.1°C | 0% | 18.5hPa | 2.6V | 08:27:41 | 02:18:17 | 00:00:00 | |
| DD8BA-10 | 2026-09-04 00:36:11 | 51.09938 | 8.34924 | 135° | 13km/h | 27410m | -22.3m/s | -47.0°C | 3.0% | 18.5hPa | 2.6V | 00:00:00 | 00:00:00 | 00:00:00 | |
| DM0DOS-11 | 2026-09-04 00:36:10 | 51.09952 | 8.34907 | 152° | 13km/h | 27499m | -22.8m/s | -47°C | 3% | 18.2hPa | 2.5V | 08:27:10 | 02:18:13 | 00:00:00 | |
| DL1XH-west | 2026-09-04 00:36:08 | 51.09949 | 8.34910 | 149° | 16km/h | 27477m | -22.7m/s | -47°C | 0% | 18.3hPa | 2.5V | 08:27:41 | 02:18:14 | 00:00:00 | |
| HSKMA3-T | 2026-09-04 00:36:06 | 51.09955 | 8.34905 | 167° | 13km/h | 27522m | -22.9m/s | -47.1°C | 0% | 18.2hPa | 2.6V | 08:27:41 | 02:18:12 | 00:00:00 | |
| AA1-15 | 2026-09-04 00:36:05 | 51.09960 | 8.34905 | 195° | 9km/h | 27569m | -23.3m/s | -47.1°C | 0% | 18.1hPa | 2.5V | 08:27:41 | 02:18:10 | 00:00:00 | |
| DK9SH | 2026-09-04 00:36:05 | 51.09958 | 8.34904 | 171° | 9km/h | 27546m | -23.8m/s | -47.1°C | 0.7% | 18.1hPa | 2.6V | 08:27:00 | 00:00:00 | 00:00:00 | |
| DL1NUX | 2026-09-04 00:36:04 | 51.09967 | 8.34916 | 239° | 7km/h | 27683m | -22.9m/s | -47.2°C | 3.1% | 17.7hPa | 2.6V | 08:27:18 | 02:18:05 | 00:00:00 | |
| DO2JMG | 2026-09-04 00:36:00 | 51.09966 | 8.34913 | 246° | 9km/h | 27660m | -22.9m/s | -47.2°C | 0% | 17.8hPa | 2.6V | 08:27:41 | 02:18:06 | 00:00:00 | |
| DL1XH-west | 2026-09-04 00:35:57 | 51.09968 | 8.34920 | 248° | 2km/h | 27729m | -23.2m/s | -47°C | 0% | 17.6hPa | 2.5V | 08:27:41 | 02:18:03 | 00:00:00 | |
| HSKMA3-T | 2026-09-04 00:35:55 | 51.09967 | 8.34921 | 45° | 2km/h | 27776m | -23.3m/s | -46.9°C | 0% | 17.5hPa | 2.5V | 08:27:41 | 02:18:01 | 00:00:00 | |
| AA1-15 | 2026-09-04 00:35:53 | 51.09966 | 8.34918 | 88° | 4km/h | 27822m | -23.5m/s | -46.9°C | 0% | 17.4hPa | 2.6V | 08:27:41 | 02:17:59 | 00:00:00 | |
| DM0DOS-11 | 2026-09-04 00:35:52 | 51.09969 | 8.34901 | 97° | 9km/h | 27986m | -23.6m/s | -47.2°C | 3.1% | 16.9hPa | 2.6V | 08:27:31 | 02:17:52 | 00:00:00 | |
| GOEST3-10 | 2026-09-04 00:35:52 | 51.09966 | 8.34916 | 87° | 5km/h | 27846m | -22.9m/s | -46.8°C | 2.9% | 17.2hPa | 2.5V | 00:00:00 | 00:00:00 | 00:00:00 | |
| DD8BA-10 | 2026-09-04 00:35:51 | 51.09967 | 8.34914 | 107° | 9km/h | 27869m | -23.4m/s | -46.8°C | 3.0% | 17.2hPa | 2.5V | 00:00:00 | 00:00:00 | 00:00:00 | |
| DO3MHA-11 | 2026-09-04 00:35:50 | 51.09967 | 8.34912 | 102° | 11km/h | 27893m | -23.7m/s | -46.9°C | 3.0% | 17.1hPa | 2.5V | 00:00:00 | 02:17:56 | 00:00:00 | |
| DL1XH1-15 | 2026-09-04 00:35:49 | 51.09969 | 8.34892 | 92° | 13km/h | 28032m | -23.3m/s | -47.2°C | 3.1% | 16.8hPa | 2.5V | 08:27:33 | 02:17:50 | 00:00:00 | |
| DO2JMG | 2026-09-04 00:35:49 | 51.09967 | 8.34910 | 115° | 5km/h | 27916m | -23.3m/s | -47°C | 0% | 17.1hPa | 2.5V | 08:27:41 | 02:17:55 | 00:00:00 | |
| DL1XH-west | 2026-09-04 00:35:46 | 51.09968 | 8.34901 | 98° | 9km/h | 27986m | -23.6m/s | -47.2°C | 0% | 16.9hPa | 2.6V | 08:27:41 | 02:17:52 | 00:00:00 | |
| HSKMA3-T | 2026-09-04 00:35:45 | 51.09969 | 8.34897 | 97° | 9km/h | 28009m | -23.4m/s | -47.2°C | 0% | 16.9hPa | 2.6V | 08:27:41 | 02:17:51 | 00:00:00 | |
| BIOWL1-15 | 2026-09-04 00:35:45 | 51.09969 | 8.34887 | 90° | 11km/h | 28056m | -23.6m/s | -47.2°C | 0% | 16.8hPa | 2.5V | 08:27:41 | 02:17:49 | 00:00:00 | |
| AA1-15 | 2026-09-04 00:35:42 | 51.09969 | 8.34882 | 97° | 16km/h | 28079m | -23.9m/s | -47.1°C | 0% | 16.7hPa | 2.5V | 08:27:41 | 02:17:48 | 00:00:00 | |
| DO2JMG | 2026-09-04 00:35:39 | 51.09972 | 8.34861 | 105° | 20km/h | 28150m | -23.8m/s | -46.9°C | 0% | 16.5hPa | 2.5V | 08:27:41 | 02:17:45 | 00:00:00 | |
| DO3DL | 2026-09-04 00:35:39 | 51.09972 | 8.34861 | 106° | 20km/h | 28150m | -23.8m/s | -46.9°C | 0.7% | 16.5hPa | 2.5V | 08:27:00 | 00:00:00 | 00:00:00 | |
| DL1XH1-15 | 2026-09-04 00:35:38 | 51.09986 | 8.34826 | 142° | 22km/h | 28270m | -23.7m/s | -46.6°C | 3% | 16.2hPa | 2.5V | 08:27:43 | 02:17:40 | 00:00:00 | |
| DL1XH-west | 2026-09-04 00:35:35 | 51.09983 | 8.34831 | 129° | 20km/h | 28246m | -24.1m/s | -46.7°C | 0% | 16.3hPa | 2.6V | 08:28:32 | 02:17:41 | 00:00:00 | |
| HSKMA3-T | 2026-09-04 00:35:34 | 51.09986 | 8.34826 | 143° | 22km/h | 28270m | -23.7m/s | -46.7°C | 0% | 16.2hPa | 2.5V | 08:28:32 | 02:17:40 | 00:00:00 | |
| BIOWL1-15 | 2026-09-04 00:35:32 | 51.10002 | 8.34811 | 164° | 16km/h | 28366m | -24.3m/s | -46.6°C | 0% | 16hPa | 2.6V | 08:28:32 | 02:17:36 | 00:00:00 | |
| AA1-15 | 2026-09-04 00:35:31 | 51.09998 | 8.34814 | 154° | 16km/h | 28342m | -24m/s | -46.6°C | 0% | 16.1hPa | 2.6V | 08:28:32 | 02:17:37 | 00:00:00 | |
| DM0DOS-11 | 2026-09-04 00:35:31 | 51.10013 | 8.34807 | 194° | 9km/h | 28463m | -24.6m/s | -46.5°C | 2.9% | 15.7hPa | 2.5V | 08:27:51 | 02:17:32 | 00:00:00 | |
| DO2JMG | 2026-09-04 00:35:28 | 51.10008 | 8.34807 | 169° | 11km/h | 28414m | -24.6m/s | -46.6°C | 0% | 15.9hPa | 2.5V | 08:28:32 | 02:17:34 | 00:00:00 | |
| DF2AP-13 | 2026-09-04 00:35:28 | 51.10008 | 8.34807 | 170° | 9km/h | 28415m | -24.5m/s | -46.5°C | 2.9% | 15.8hPa | 2.6V | 00:00:00 | 02:17:34 | 00:00:00 | |
| DL1XH1-15 | 2026-09-04 00:35:27 | 51.10017 | 8.34808 | 209° | 9km/h | 28512m | -24.4m/s | -46.5°C | 2.9% | 15.6hPa | 2.6V | 08:27:53 | 02:17:30 | 00:00:00 | |
| DL1XH-west | 2026-09-04 00:35:25 | 51.10015 | 8.34807 | 192° | 7km/h | 28487m | -25m/s | -46.5°C | 0% | 15.7hPa | 2.5V | 08:28:32 | 02:17:31 | 00:00:00 | |
| HSKMA3-T | 2026-09-04 00:35:24 | 51.10017 | 8.34808 | 210° | 9km/h | 28512m | -24.4m/s | -46.5°C | 0% | 15.6hPa | 2.6V | 08:28:32 | 02:17:30 | 00:00:00 | |
| AA1-15 | 2026-09-04 00:35:22 | 51.10023 | 8.34814 | 214° | 9km/h | 28586m | -24.8m/s | -46.4°C | 0% | 15.5hPa | 2.5V | 08:28:32 | 02:17:27 | 00:00:00 | |
| DM0DOS-11 | 2026-09-04 00:35:21 | 51.10029 | 8.34825 | 239° | 7km/h | 28711m | -24.9m/s | -46.5°C | 2.9% | 15.2hPa | 2.6V | 08:28:01 | 02:17:22 | 00:00:00 | |
| BIOWL1-15 | 2026-09-04 00:35:20 | 51.10033 | 8.34832 | 220° | 9km/h | 28786m | -25.4m/s | -46.6°C | 0% | 15hPa | 2.5V | 08:28:32 | 02:17:19 | 00:00:00 | |
| DO3MHA-11 | 2026-09-04 00:35:20 | 51.10025 | 8.34816 | 232° | 9km/h | 28611m | -25.1m/s | -46.4°C | 2.9% | 15.4hPa | 2.5V | 00:00:00 | 02:17:26 | 00:00:00 | |
| DL1XH1-15 | 2026-09-04 00:35:19 | 51.10032 | 8.34829 | 237° | 7km/h | 28761m | -25.4m/s | -46.5°C | 2.9% | 15hPa | 2.5V | 08:28:03 | 02:17:20 | 00:00:00 | |
| DO2JMG | 2026-09-04 00:35:17 | 51.10028 | 8.34823 | 219° | 7km/h | 28685m | -25.5m/s | -46.5°C | 0% | 0hPa | 2.6V | 08:28:32 | 02:17:23 | 00:00:00 | |
| DL1XH-west | 2026-09-04 00:35:15 | 51.10030 | 8.34827 | 227° | 7km/h | 28736m | -25.6m/s | -46.5°C | 0% | 15.1hPa | 2.6V | 08:28:32 | 02:17:21 | 00:00:00 | |
| HSKMA3-T | 2026-09-04 00:35:14 | 51.10032 | 8.34829 | 238° | 7km/h | 28761m | -25.5m/s | -46.5°C | 0% | 15hPa | 2.5V | 08:28:32 | 02:17:20 | 00:00:00 | |
| DD1CC8 | 2026-09-04 00:35:13 | 51.10033 | 8.34832 | 219° | 9km/h | 28787m | -25.4m/s | -46.6°C | 0.7% | 15.0hPa | 2.5V | 00:00:00 | 00:00:00 | 00:00:00 | |
| DL1CLM-18 | 2026-09-04 00:35:12 | 51.10034 | 8.34834 | 230° | 7km/h | 28812m | -25.9m/s | -46.6°C | 0.7% | 14.9hPa | 2.5V | 00:00:00 | 00:00:00 | 00:00:00 | |
| DL1NUX | 2026-09-04 00:35:11 | 51.10040 | 8.34838 | 185° | 11km/h | 28889m | -25.6m/s | -46.8°C | 3% | 14.8hPa | 2.5V | 08:28:08 | 02:17:15 | 00:00:00 | |
| DM0DOS-11 | 2026-09-04 00:35:11 | 51.10047 | 8.34835 | 138° | 9km/h | 28965m | -25.4m/s | -46.8°C | 3% | 14.6hPa | 2.6V | 08:28:11 | 02:17:12 | 00:00:00 | |
| AA1-15 | 2026-09-04 00:35:10 | 51.10038 | 8.34838 | 200° | 9km/h | 28863m | -25.6m/s | -46.8°C | 0% | 14.8hPa | 2.6V | 08:28:32 | 02:17:16 | 00:00:00 | |
| BIOWL1-15 | 2026-09-04 00:35:08 | 51.10043 | 8.34838 | 163° | 9km/h | 28914m | -25.3m/s | -46.9°C | 0% | 14.7hPa | 2.5V | 08:28:32 | 02:17:14 | 00:00:00 | |
| DO2JMG | 2026-09-04 00:35:06 | 51.10047 | 8.34835 | 138° | 9km/h | 28965m | -25.4m/s | -46.8°C | 0% | 0hPa | 2.6V | 08:28:32 | 02:17:12 | 00:00:00 | |
| DL1XH-west | 2026-09-04 00:35:04 | 51.10051 | 8.34831 | 148° | 9km/h | 29016m | -26.1m/s | -47°C | 0% | 14.5hPa | 2.5V | 08:28:32 | 02:17:10 | 00:00:00 | |
| HSKMA3-T | 2026-09-04 00:35:03 | 51.10053 | 8.34830 | 169° | 9km/h | 29042m | -25.5m/s | -47.1°C | 0% | 14.4hPa | 2.5V | 08:28:32 | 02:17:09 | 00:00:00 | |
| DK9SH | 2026-09-04 00:35:03 | 51.10053 | 8.34830 | 170° | 9km/h | 29043m | -25.5m/s | -47.1°C | 0.7% | 14.4hPa | 2.6V | 08:28:00 | 00:00:00 | 00:00:00 | |
| GOEST3-10 | 2026-09-04 00:35:02 | 51.10055 | 8.34829 | 159° | 9km/h | 29068m | -26.0m/s | -47.1°C | 3.1% | 14.3hPa | 2.6V | 00:00:00 | 00:00:00 | 00:00:00 | |
| DL1NUX | 2026-09-04 00:35:01 | 51.10061 | 8.34830 | 196° | 7km/h | 29145m | -26.1m/s | -47.3°C | 3.2% | 14.2hPa | 2.6V | 08:28:18 | 02:17:05 | 00:00:00 | |
| AA1-15 | 2026-09-04 00:35:00 | 51.10059 | 8.34829 | 192° | 9km/h | 29119m | -25.6m/s | -47.3°C | 0.1% | 14.3hPa | 2.6V | 08:28:32 | 02:17:06 | 00:00:00 | |
| DM0DOS-11 | 2026-09-04 00:35:00 | 51.10066 | 8.34833 | 179° | 5km/h | 29224m | -26.2m/s | -47.1°C | 3.2% | 14hPa | 2.5V | 08:28:21 | 02:17:02 | 00:00:00 | |
| BIOWL1-15 | 2026-09-04 00:35:00 | 51.10063 | 8.34831 | 198° | 9km/h | 29171m | -26.2m/s | -47.3°C | 0.2% | 14.2hPa | 2.5V | 08:28:32 | 02:17:04 | 00:00:00 | |
| DO2JMG | 2026-09-04 00:34:56 | 51.10066 | 8.34833 | 180° | 5km/h | 29224m | -26.3m/s | -47.2°C | 0.1% | 0hPa | 2.5V | 08:28:32 | 02:17:02 | 00:00:00 | |
| DL1XH-west | 2026-09-04 00:34:53 | 51.10070 | 8.34830 | 145° | 7km/h | 29303m | -26.1m/s | -47°C | 0.1% | 13.9hPa | 2.6V | 08:28:32 | 02:16:59 | 00:00:00 | |
| HSKMA3-T | 2026-09-04 00:34:52 | 51.10072 | 8.34828 | 135° | 9km/h | 29329m | -26.1m/s | -47°C | 0.1% | 13.8hPa | 2.6V | 08:28:32 | 02:16:58 | 00:00:00 | |
| GOEST3-10 | 2026-09-04 00:34:52 | 51.10072 | 8.34828 | 135° | 13km/h | 29330m | -26.1m/s | -47.0°C | 3.2% | 13.7hPa | 2.5V | 00:00:00 | 00:00:00 | 00:00:00 | |
| DL1XH-15 | 2026-09-04 00:34:51 | 51.10081 | 8.34815 | 145° | 16km/h | 29435m | -26.5m/s | -47.2°C | 3.3% | 13.6hPa | 2.5V | 08:28:29 | 02:16:54 | 00:00:00 | |
| DL1NUX | 2026-09-04 00:34:51 | 51.10078 | 8.34819 | 133° | 15km/h | 29409m | -26.8m/s | -47.1°C | 3.3% | 13.6hPa | 2.5V | 08:28:28 | 02:16:55 | 00:00:00 | |
| AA1-15 | 2026-09-04 00:34:49 | 51.10078 | 8.34819 | 133° | 15km/h | 29409m | -26.8m/s | -47.1°C | 0.2% | 13.6hPa | 2.5V | 08:28:32 | 02:16:55 | 00:00:00 | |
| BIOWL1-15 | 2026-09-04 00:34:48 | 51.10081 | 8.34815 | 145° | 16km/h | 29435m | -26.5m/s | -47.2°C | 0.2% | 13.6hPa | 2.5V | 08:28:32 | 02:16:54 | 00:00:00 | |
| DO2JMG | 2026-09-04 00:34:46 | 51.10088 | 8.34807 | 147° | 16km/h | 29488m | -27.1m/s | -47.1°C | 0.3% | 0hPa | 2.6V | 08:28:32 | 02:16:52 | 00:00:00 | |
| DJ2DS-15 | 2026-09-04 00:34:45 | 51.10092 | 8.34803 | 134° | 18km/h | 29516m | -26.7m/s | -47.1°C | 0.8% | 13.4hPa | 2.5V | 00:00:00 | 00:00:00 | 00:00:00 | |
| DL1XH-west | 2026-09-04 00:34:43 | 51.10098 | 8.34792 | 141° | 18km/h | 29569m | -27.1m/s | -46.9°C | 0.3% | 13.3hPa | 2.5V | 08:29:23 | 02:16:49 | 00:00:00 | |
| HSKMA3-T | 2026-09-04 00:34:42 | 51.10101 | 8.34788 | 138° | 13km/h | 29596m | -27.2m/s | -46.6°C | 0.2% | 13.3hPa | 2.5V | 08:29:23 | 02:16:48 | 00:00:00 | |
| DL1XH-15 | 2026-09-04 00:34:41 | 51.10108 | 8.34776 | 112° | 9km/h | 29705m | -27m/s | -45.4°C | 3.1% | 13hPa | 2.6V | 08:28:39 | 02:16:44 | 00:00:00 | |
| DL1NUX | 2026-09-04 00:34:41 | 51.10107 | 8.34779 | 127° | 11km/h | 29677m | -27.3m/s | -45.7°C | 3.1% | 13.1hPa | 2.6V | 08:28:38 | 02:16:45 | 00:00:00 | |
| DL3AQ-11 | 2026-09-04 00:34:41 | 51.10106 | 8.34782 | 126° | 7km/h | 29650m | -27.1m/s | -45.9°C | 0.7% | 13.1hPa | 2.5V | 00:00:00 | 00:00:00 | 00:00:00 | |
| DM0DOS-11 | 2026-09-04 00:34:40 | 51.10110 | 8.34770 | 121° | 11km/h | 29760m | -27.3m/s | -44.9°C | 3% | 12.9hPa | 2.5V | 08:28:41 | 02:16:42 | 00:00:00 | |
| AA1-15 | 2026-09-04 00:34:39 | 51.10107 | 8.34779 | 128° | 11km/h | 29677m | -27.3m/s | -45.7°C | 0.1% | 13.1hPa | 2.6V | 08:29:23 | 02:16:45 | 00:00:00 | |
| BIOWL1-15 | 2026-09-04 00:34:37 | 51.10110 | 8.34770 | 122° | 11km/h | 29760m | -27.3m/s | -44.9°C | 0% | 12.9hPa | 2.5V | 08:29:23 | 02:16:42 | 00:00:00 | |
| DO2JMG | 2026-09-04 00:34:35 | 51.10111 | 8.34766 | 134° | 13km/h | 29787m | -27.4m/s | -44.6°C | 0% | 0hPa | 2.5V | 08:29:23 | 02:16:41 | 00:00:00 | |
| DL1XH-west | 2026-09-04 00:34:32 | 51.10118 | 8.34755 | 133° | 13km/h | 29869m | -27.5m/s | -44.5°C | 0% | 12.7hPa | 2.5V | 08:29:23 | 02:16:38 | 00:00:00 | |
| GOEST3-10 | 2026-09-04 00:34:32 | 51.10118 | 8.34755 | 133° | 13km/h | 29870m | -27.5m/s | -44.4°C | 2.9% | 12.7hPa | 2.6V | 00:00:00 | 00:00:00 | 00:00:00 | |
| DL1XH-15 | 2026-09-04 00:34:31 | 51.10128 | 8.34743 | 145° | 16km/h | 29980m | -27.5m/s | -44°C | 2.8% | 12.5hPa | 2.6V | 08:28:49 | 02:16:34 | 00:00:00 | |
| HSKMA3-T | 2026-09-04 00:34:31 | 51.10119 | 8.34752 | 144° | 11km/h | 29897m | -27.6m/s | -44.3°C | 0% | 12.6hPa | 2.5V | 08:29:23 | 02:16:37 | 00:00:00 | |
| AA1-15 | 2026-09-04 00:34:29 | 51.10124 | 8.34746 | 149° | 13km/h | 29953m | -27.9m/s | -44.1°C | 0% | 12.5hPa | 2.6V | 08:29:23 | 02:16:35 | 00:00:00 | |
| BIOWL1-15 | 2026-09-04 00:34:27 | 51.10131 | 8.34739 | 146° | 16km/h | 30008m | -27.9m/s | -43.9°C | 0% | 12.4hPa | 2.5V | 08:29:23 | 02:16:33 | 00:00:00 | |
| DO2JMG | 2026-09-04 00:34:25 | 51.10138 | 8.34731 | 145° | 16km/h | 30063m | -27.8m/s | -43.7°C | 0% | 0hPa | 2.5V | 08:29:23 | 02:16:31 | 00:00:00 | |
| DL1XH-west | 2026-09-04 00:34:22 | 51.10147 | 8.34723 | 164° | 13km/h | 30148m | -27.9m/s | -43.3°C | 0% | 12.2hPa | 2.6V | 08:29:23 | 02:16:28 | 00:00:00 | |
| SO1NDE-10 | 2026-09-04 00:34:22 | 51.10147 | 8.34723 | 165° | 5km/h | 30148m | -27.9m/s | -43.3°C | 2.7% | 12.1hPa | 2.6V | 00:00:00 | 02:16:28 | 00:00:00 | |
| DL1XH-15 | 2026-09-04 00:34:21 | 51.10156 | 8.34717 | 168° | 7km/h | 30261m | -28.8m/s | -42.8°C | 2.6% | 12hPa | 2.5V | 08:28:59 | 02:16:24 | 00:00:00 | |
| HSKMA3-T | 2026-09-04 00:34:20 | 51.10153 | 8.34719 | 151° | 9km/h | 30204m | -28.6m/s | -43.1°C | 0% | 12.1hPa | 2.5V | 08:29:23 | 02:16:26 | 00:00:00 | |
| AA1-15 | 2026-09-04 00:34:19 | 51.10155 | 8.34718 | 153° | 4km/h | 30233m | -28.8m/s | -42.9°C | 0% | 12hPa | 2.5V | 08:29:23 | 02:16:25 | 00:00:00 | |
| DM0DOS-11 | 2026-09-04 00:34:18 | 51.10158 | 8.34715 | 184° | 2km/h | 30319m | -28.8m/s | -42.4°C | 2.5% | 11.9hPa | 2.6V | 08:29:01 | 02:16:22 | 00:00:00 | |
| BIOWL1-15 | 2026-09-04 00:34:17 | 51.10158 | 8.34714 | 128° | 5km/h | 30348m | -28.6m/s | -42.2°C | 0% | 11.8hPa | 2.6V | 08:29:23 | 02:16:21 | 00:00:00 | |
| DO2JMG | 2026-09-04 00:34:14 | 51.10158 | 8.34713 | 75° | 2km/h | 30376m | -28.9m/s | -42°C | 0% | 0hPa | 2.5V | 08:29:23 | 02:16:20 | 00:00:00 | |
| DL1XH-west | 2026-09-04 00:34:11 | 51.10158 | 8.34713 | 316° | 2km/h | 30462m | -29.4m/s | -41.5°C | 0% | 11.6hPa | 2.5V | 08:29:23 | 02:16:17 | 00:00:00 | |
| HSKMA3-T | 2026-09-04 00:34:10 | 51.10158 | 8.34713 | 329° | 0km/h | 30491m | -29m/s | -41.4°C | 0% | 11.5hPa | 2.6V | 08:29:23 | 02:16:16 | 00:00:00 | |
| AA1-15 | 2026-09-04 00:34:09 | 51.10158 | 8.34713 | 25° | 2km/h | 30519m | -29.6m/s | -41.2°C | 0% | 11.5hPa | 2.6V | 08:29:23 | 02:16:15 | 00:00:00 | |
| DM0DOS-11 | 2026-09-04 00:34:08 | 51.10157 | 8.34711 | 93° | 2km/h | 30608m | -30m/s | -41.2°C | 2.3% | 11.4hPa | 2.5V | 08:29:11 | 02:16:12 | 00:00:00 | |
| DO3MHA-11 | 2026-09-04 00:34:08 | 51.10157 | 8.34713 | 356° | 4km/h | 30549m | -29.8m/s | -41.1°C | 2.3% | 11.4hPa | 2.5V | 00:00:00 | 02:16:14 | 00:00:00 | |
| DL1XH1-15 | 2026-09-04 00:34:07 | 51.10158 | 8.34710 | 127° | 2km/h | 30667m | -30.2m/s | -41.4°C | 2.3% | 11.3hPa | 2.5V | 08:29:13 | 02:16:10 | 00:00:00 | |
| BIOWL1-15 | 2026-09-04 00:34:04 | 51.10158 | 8.34710 | 128° | 2km/h | 30667m | -30.2m/s | -41.4°C | 0% | 11.3hPa | 2.5V | 08:29:23 | 02:16:10 | 00:00:00 | |
| DL1XH-15 | 2026-09-04 00:34:03 | 51.10156 | 8.34714 | 22° | 5km/h | 30846m | -30.2m/s | -42.1°C | 2.4% | 10.9hPa | 2.5V | 08:29:19 | 02:16:04 | 00:00:00 | |
| DJ2DS-15 | 2026-09-04 00:34:03 | 51.10159 | 8.34710 | 189° | 7km/h | 30698m | -29.7m/s | -41.5°C | 2.3% | 11.2hPa | 2.5V | 00:00:00 | 02:16:09 | 00:00:00 | |
| GOEST3-10 | 2026-09-04 00:34:02 | 51.10160 | 8.34710 | 9° | 5km/h | 30727m | -30.0m/s | -41.6°C | 2.3% | 11.1hPa | 2.5V | 00:00:00 | 00:00:00 | 00:00:00 | |
| DL1NUX | 2026-09-04 00:34:01 | 51.10157 | 8.34713 | 319° | 5km/h | 30816m | -29.9m/s | -42°C | 2.4% | 11hPa | 2.5V | 08:29:18 | 02:16:05 | 00:00:00 | |
| DL1XH-west | 2026-09-04 00:34:01 | 51.10158 | 8.34712 | 347° | 4km/h | 30786m | -30.4m/s | -41.9°C | 0% | 11hPa | 2.5V | 08:29:23 | 02:16:06 | 00:00:00 | |
| DL3AQ-11 | 2026-09-04 00:34:01 | 51.10158 | 8.34712 | 346° | 4km/h | 30786m | -30.4m/s | -41.9°C | 0.5% | 11.0hPa | 2.6V | 00:00:00 | 00:00:00 | 00:00:00 | |
| AM1SDL-15 | 2026-09-04 00:34:00 | 51.10158 | 8.34712 | 347° | 7km/h | 30787m | -30.4m/s | -41.8°C | 2.4% | 11.0hPa | 2.6V | 00:00:00 | 02:16:06 | 00:00:00 | |
| DL1XH1-15 | 2026-09-04 00:33:59 | 51.10152 | 8.34705 | 91° | 11km/h | 30967m | -30.5m/s | -42.3°C | 2.5% | 10.8hPa | 2.6V | 08:29:23 | 02:16:00 | 00:00:00 | |
| HSKMA3-T | 2026-09-04 00:33:59 | 51.10157 | 8.34713 | 320° | 5km/h | 30816m | -29.9m/s | -42°C | 0% | 11hPa | 2.5V | 08:29:23 | 02:16:05 | 00:00:00 | |
| DO3DL | 2026-09-04 00:33:59 | 51.10157 | 8.34713 | 321° | 5km/h | 30817m | -29.9m/s | -42.0°C | 0.5% | 11.0hPa | 2.6V | 08:29:00 | 00:00:00 | 00:00:00 | |
| DM0DOS-11 | 2026-09-04 00:33:58 | 51.10154 | 8.34711 | 68° | 7km/h | 30907m | -30.3m/s | -42.2°C | 2.5% | 10.8hPa | 2.6V | 08:29:21 | 02:16:02 | 00:00:00 | |
| DO2JMG | 2026-09-04 00:33:54 | 51.10152 | 8.34705 | 92° | 11km/h | 30967m | -30.5m/s | 0°C | 0% | 0hPa | 2.6V | 08:29:23 | 02:16:00 | 00:00:00 | |
| BIOWL1-15 | 2026-09-04 00:33:53 | 51.10152 | 8.34702 | 86° | 7km/h | 30998m | -30.6m/s | -42.3°C | 0% | 10.7hPa | 2.5V | 18:12:15 | 02:15:59 | 00:00:00 | |
| DL1XH-15 | 2026-09-04 00:33:52 | 51.10148 | 8.34697 | 342° | 11km/h | 31180m | -30.2m/s | -42.1°C | 2.4% | 10.4hPa | 2.6V | 08:30:00 | 02:15:53 | 00:00:00 | |
| DO3DL | 2026-09-04 00:33:52 | 51.10152 | 8.34699 | 107° | 7km/h | 31029m | -30.7m/s | -42.2°C | 0.6% | 10.6hPa | 2.6V | 00:00:00 | 00:00:00 | 00:00:00 | |
| DL1NUX | 2026-09-04 00:33:51 | 51.10152 | 8.34695 | 346° | 4km/h | 31119m | -30.6m/s | -42.2°C | 2.5% | 10.5hPa | 2.6V | 08:30:00 | 02:15:55 | 00:00:00 | |
| DL1XH-west | 2026-09-04 00:33:50 | 51.10152 | 8.34695 | 68° | 2km/h | 31089m | -30.4m/s | -42.2°C | 0% | 10.6hPa | 2.5V | 18:12:15 | 02:15:56 | 00:00:00 | |
| AA1-15 | 2026-09-04 00:33:48 | 51.10150 | 8.34696 | 348° | 7km/h | 31150m | -30.5m/s | -42.2°C | 0% | 10.5hPa | 2.6V | 18:12:15 | 02:15:54 | 00:00:00 | |
| DO3MHA-11 | 2026-09-04 00:33:48 | 51.10150 | 8.34696 | 348° | 16km/h | 31150m | -30.4m/s | -42.1°C | 2.5% | 10.4hPa | 2.5V | 00:00:00 | 02:15:54 | 00:00:00 | |
| GOEST3-10 | 2026-09-04 00:33:47 | 51.10148 | 8.34697 | 343° | 16km/h | 31180m | -30.2m/s | -42.0°C | 2.4% | 10.4hPa | 2.5V | 00:00:00 | 02:15:53 | 00:00:00 | |
| DO3DL | 2026-09-04 00:33:45 | 51.10141 | 8.34699 | 349° | 16km/h | 31242m | -30.6m/s | -42.0°C | 0.6% | 10.3hPa | 2.5V | 00:00:00 | 00:00:00 | 00:00:00 | |
| DL1NUX | 2026-09-04 00:33:44 | 51.10114 | 8.34691 | 27° | 18km/h | 31428m | -31.9m/s | -42°C | 2.5% | 10hPa | 2.5V | 08:30:00 | 02:15:45 | 00:00:00 | |
| DJ2DS-15 | 2026-09-04 00:33:43 | 51.10132 | 8.34700 | 360° | 24km/h | 31303m | -31.0m/s | -42.0°C | 2.5% | 10.2hPa | 2.5V | 00:00:00 | 02:15:49 | 00:00:00 | |
| DL1XH-15 | 2026-09-04 00:33:42 | 51.10103 | 8.34678 | 42° | 22km/h | 31522m | -32.2m/s | -41.8°C | 2.5% | 9.9hPa | 2.5V | 08:30:00 | 02:15:42 | 00:00:00 | |
| BIOWL1-15 | 2026-09-04 00:33:42 | 51.10127 | 8.34699 | 16° | 20km/h | 31334m | -30.9m/s | -42°C | 0% | 10.2hPa | 2.6V | 18:12:15 | 02:15:48 | 00:00:00 | |
| DL1XH-west | 2026-09-04 00:33:40 | 51.10118 | 8.34695 | 28° | 16km/h | 31396m | -31.1m/s | -42.1°C | 0% | 10.1hPa | 2.6V | 18:12:15 | 02:15:46 | 00:00:00 | |
| DK9SH | 2026-09-04 00:33:40 | 51.10118 | 8.34695 | 29° | 16km/h | 31397m | -31.1m/s | -42.1°C | 0.6% | 10.1hPa | 2.5V | 00:00:00 | 00:00:00 | 00:00:00 | |
| DM0DOS-11 | 2026-09-04 00:33:38 | 51.10103 | 8.34678 | 42° | 22km/h | 31522m | -32.2m/s | -41.8°C | 2.5% | 9.9hPa | 2.5V | 08:30:00 | 02:15:42 | 00:00:00 | |
| AA1-15 | 2026-09-04 00:33:37 | 51.10106 | 8.34683 | 39° | 20km/h | 31491m | -31.8m/s | -41.9°C | 0% | 9.9hPa | 2.5V | 18:12:15 | 02:15:43 | 00:00:00 | |
| DJ3KS | 2026-09-04 00:33:37 | 51.10106 | 8.34683 | 40° | 20km/h | 31491m | -31.8m/s | -41.9°C | 0.6% | 9.9hPa | 2.5V | 00:00:00 | 00:00:00 | 00:00:00 | |
| DL4BBY-15 | 2026-09-04 00:33:36 | 51.10103 | 8.34678 | 43° | 29km/h | 31523m | -32.1m/s | -41.4°C | 0% | 0hPa | 2.5V | 00:00:00 | 00:00:00 | 00:00:00 | |
| DB0ND-19 | 2026-09-04 00:33:35 | 51.10096 | 8.34665 | 62° | 22km/h | 31588m | -32.8m/s | -41.7°C | 0.6% | 9.8hPa | 2.5V | 00:00:00 | 00:00:00 | 00:00:00 | |
| DJ8HS-15 | 2026-09-04 00:33:34 | 51.10096 | 8.34665 | 63° | 26km/h | 31588m | -32.7m/s | -41.7°C | 2.5% | 9.7hPa | 2.5V | 00:00:00 | 02:15:40 | 00:00:00 | |
| DJ2DS-15 | 2026-09-04 00:33:33 | 51.10091 | 8.34648 | 73° | 22km/h | 31653m | -31.9m/s | -41.8°C | 0.6% | 9.7hPa | 2.5V | 00:00:00 | 00:00:00 | 00:00:00 | |
| GOEST3-10 | 2026-09-04 00:33:32 | 51.10090 | 8.34648 | 74° | 27km/h | 31653m | -31.9m/s | -41.8°C | 2.5% | 9.7hPa | 2.5V | 00:00:00 | 00:00:00 | 00:00:00 | |
| DL1NUX | 2026-09-04 00:33:31 | 51.10089 | 8.34615 | 93° | 29km/h | 31748m | -33.2m/s | -41.9°C | 2.6% | 9.6hPa | 2.5V | 08:30:00 | 02:15:35 | 00:00:00 | |
| BIOWL1-15 | 2026-09-04 00:33:31 | 51.10089 | 8.34638 | 84° | 27km/h | 31684m | -31.6m/s | -41.8°C | 0% | 9.7hPa | 2.5V | 18:12:15 | 02:15:37 | 00:00:00 | |
| DL1XH-west | 2026-09-04 00:33:29 | 51.10089 | 8.34615 | 94° | 29km/h | 31748m | -33.2m/s | -41.9°C | 0% | 9.6hPa | 2.5V | 18:12:15 | 02:15:35 | 00:00:00 | |
| DB0UT-7 | 2026-09-04 00:33:29 | 51.10089 | 8.34615 | 94° | 35km/h | 31748m | -33.1m/s | -41.9°C | 2.6% | 9.5hPa | 2.5V | 00:00:00 | 02:15:35 | 00:00:00 | |
| DM0DOS-11 | 2026-09-04 00:33:28 | 51.10092 | 8.34580 | 96° | 29km/h | 31845m | -32.7m/s | -41.8°C | 2.6% | 9.4hPa | 2.6V | 08:30:00 | 02:15:32 | 00:00:00 | |
| DF2AP-13 | 2026-09-04 00:33:28 | 51.10089 | 8.34604 | 100° | 37km/h | 31781m | -32.6m/s | -41.8°C | 2.6% | 9.4hPa | 2.5V | 00:00:00 | 02:15:34 | 00:00:00 | |
| DL1XH1-15 | 2026-09-04 00:33:27 | 51.10093 | 8.34558 | 91° | 27km/h | 31910m | -33.4m/s | -41.4°C | 2.5% | 9.3hPa | 2.5V | 08:30:00 | 02:15:30 | 00:00:00 | |
| AA1-15 | 2026-09-04 00:33:27 | 51.10091 | 8.34592 | 100° | 33km/h | 31813m | -32.2m/s | -41.8°C | 0% | 9.5hPa | 2.6V | 18:12:15 | 02:15:33 | 00:00:00 | |
| DJ2KF-10 | 2026-09-04 00:33:26 | 51.10092 | 8.34580 | 97° | 37km/h | 31845m | -32.7m/s | -41.7°C | 2.6% | 9.4hPa | 2.5V | 00:00:00 | 02:15:32 | 00:00:00 | |
| EDDB2-11 | 2026-09-04 00:33:25 | 51.10093 | 8.34558 | 91° | 26km/h | 31910m | -33.4m/s | -41.4°C | 0.6% | 9.3hPa | 2.5V | 00:00:00 | 00:00:00 | 00:00:00 | |
| DO1YAY-16 | 2026-09-04 00:33:24 | 51.10093 | 8.34558 | 91° | 26km/h | 31910m | -33.4m/s | -41.4°C | 0.6% | 9.3hPa | 2.5V | 00:00:00 | 00:00:00 | 00:00:00 | |
| DJ2DS-15 | 2026-09-04 00:33:23 | 51.10093 | 8.34546 | 97° | 35km/h | 31944m | -33.1m/s | -41.2°C | 2.5% | 9.2hPa | 2.5V | 00:00:00 | 02:15:29 | 00:00:00 | |
| GOEST3-10 | 2026-09-04 00:33:22 | 51.10094 | 8.34534 | 92° | 27km/h | 31977m | -33.3m/s | -41.0°C | 2.5% | 9.2hPa | 2.6V | 00:00:00 | 00:00:00 | 00:00:00 | |
| DL1NUX | 2026-09-04 00:33:21 | 51.10095 | 8.34501 | 104° | 27km/h | 32077m | -34m/s | -40.6°C | 2.4% | 9.1hPa | 2.6V | 08:30:00 | 02:15:25 | 00:00:00 | |
| BIOWL1-15 | 2026-09-04 00:33:20 | 51.10095 | 8.34512 | 93° | 27km/h | 32043m | -33.5m/s | -40.8°C | 0% | 9.2hPa | 2.6V | 18:12:15 | 02:15:26 | 00:00:00 | |
| DL1XH-west | 2026-09-04 00:33:19 | 51.10095 | 8.34501 | 104° | 27km/h | 32077m | -34m/s | -40.7°C | 0% | 9.1hPa | 2.6V | 18:12:15 | 02:15:25 | 00:00:00 | |
| DM0DOS-11 | 2026-09-04 00:33:17 | 51.10099 | 8.34470 | 104° | 22km/h | 32179m | -34.1m/s | -40.3°C | 2.3% | 9hPa | 2.5V | 08:30:00 | 02:15:22 | 00:00:00 | |
| DL1XH1-15 | 2026-09-04 00:33:17 | 51.10101 | 8.34454 | 103° | 18km/h | 32246m | -34m/s | -40.1°C | 2.3% | 8.9hPa | 2.6V | 08:30:00 | 02:15:20 | 00:00:00 | |
| AA1-15 | 2026-09-04 00:33:17 | 51.10098 | 8.34479 | 102° | 24km/h | 32145m | -33.9m/s | -40.4°C | 0% | 9hPa | 2.5V | 18:12:15 | 02:15:23 | 00:00:00 | |
| HSKMA3-T | 2026-09-04 00:33:16 | 51.10099 | 8.34470 | 104° | 24km/h | 32179m | -34.1m/s | -40.3°C | 0% | 9hPa | 2.5V | 18:12:15 | 02:15:22 | 00:00:00 | |
| DL1XH-15 | 2026-09-04 00:33:14 | 51.10102 | 8.34446 | 92° | 20km/h | 32281m | -34.4m/s | -40°C | 2.2% | 8.8hPa | 2.6V | 08:30:00 | 02:15:19 | 00:00:00 | |
| BIOWL1-15 | 2026-09-04 00:33:10 | 51.10106 | 8.34414 | 105° | 33km/h | 32385m | -34m/s | -39.6°C | 0% | 8.7hPa | 2.5V | 18:12:15 | 02:15:16 | 00:00:00 | |
| DL1XH-west | 2026-09-04 00:33:08 | 51.10121 | 8.34366 | 127° | 55km/h | 32483m | -30.5m/s | -39.4°C | 0% | 8.5hPa | 2.6V | 18:12:15 | 02:15:13 | 00:00:00 | |
| DM0DOS-11 | 2026-09-04 00:33:08 | 51.10130 | 8.34349 | 136° | 55km/h | 32514m | -30.1m/s | -39.4°C | 2.2% | 8.5hPa | 2.6V | 08:30:00 | 02:15:12 | 00:00:00 | |
| HSKMA3-T | 2026-09-04 00:33:06 | 51.10130 | 8.34349 | 136° | 55km/h | 32514m | -30.1m/s | -39.4°C | 0% | 8.5hPa | 2.6V | 18:12:15 | 02:15:12 | 00:00:00 | |
| DL1XH1-15 | 2026-09-04 00:33:05 | 51.10151 | 8.34320 | 146° | 58km/h | 32572m | -28.2m/s | -39.5°C | 2.2% | 8.4hPa | 2.5V | 08:30:00 | 02:15:10 | 00:00:00 | |
| DL1XH-15 | 2026-09-04 00:33:04 | 51.10163 | 8.34308 | 150° | 53km/h | 32601m | -28.2m/s | -39.5°C | 2.2% | 8.4hPa | 2.5V | 08:30:00 | 02:15:09 | 00:00:00 | |
| BIOWL1-15 | 2026-09-04 00:32:59 | 51.10225 | 8.34209 | 94° | 22km/h | 32958m | -55.8m/s | -39.1°C | 0% | 8.1hPa | 2.5V | 18:12:15 | 02:15:00 | 00:00:00 | |
| DL1XH1-15 | 2026-09-04 00:32:59 | 51.10225 | 8.34209 | 94° | 22km/h | 32958m | -55.8m/s | -39.1°C | 2% | 8hPa | 2.5V | 08:30:00 | 02:15:00 | 00:00:00 | |
| BIOWL9-15 | 2026-09-04 00:32:59 | 51.10212 | 8.34256 | 134° | 40km/h | 32753m | -35.6m/s | -39.1°C | 0.4% | 8.2hPa | 2.5V | 00:00:00 | 00:00:00 | 00:00:00 | |
| DM0DOS-11 | 2026-09-04 00:32:57 | 51.10222 | 8.34231 | 107° | 31km/h | 32845m | -58.6m/s | -38.6°C | 1.9% | 8.2hPa | 2.5V | 08:30:00 | 02:15:02 | 00:00:00 | |
| DL1XH-west | 2026-09-04 00:32:56 | 51.10222 | 8.34231 | 107° | 31km/h | 32845m | -58.6m/s | -38.6°C | 0% | 8.2hPa | 2.5V | 18:12:15 | 02:15:02 | 00:00:00 | |
| HSKMA3-T | 2026-09-04 00:32:55 | 51.10224 | 8.34219 | 104° | 29km/h | 32902m | -55.9m/s | -38.8°C | 0% | 8.1hPa | 2.5V | 18:12:15 | 02:15:01 | 00:00:00 | |
| DL1XH-15 | 2026-09-04 00:32:54 | 51.10225 | 8.34201 | 93° | 22km/h | 33011m | -50.7m/s | -39.3°C | 2.1% | 8hPa | 2.6V | 08:30:00 | 02:14:59 | 00:00:00 | |
| WPPR-10 | 2026-09-04 00:32:54 | 51.10225 | 8.34201 | 93° | 20km/h | 33012m | -50.7m/s | -39.3°C | 0.5% | 8.0hPa | 2.6V | 00:00:00 | 00:00:00 | 00:00:00 | |
| DO1YAY-16 | 2026-09-04 00:32:53 | 51.10225 | 8.34201 | 93° | 20km/h | 33012m | -50.7m/s | -39.3°C | 0.5% | 8.0hPa | 2.6V | 00:00:00 | 00:00:00 | 00:00:00 | |
| DJ8HS-15 | 2026-09-04 00:32:52 | 51.10225 | 8.34192 | 88° | 27km/h | 33060m | -44.9m/s | -39.4°C | 2.1% | 7.8hPa | 2.6V | 00:00:00 | 02:14:58 | 08:30:00 | |
| DL1NUX | 2026-09-04 00:32:51 | 51.10224 | 8.34168 | 82° | 20km/h | 33162m | -22.2m/s | -39.5°C | 2.1% | 7.7hPa | 2.5V | 08:30:00 | 02:14:55 | 00:00:00 | |
| DD8BA-10 | 2026-09-04 00:32:51 | 51.10225 | 8.34184 | 86° | 16km/h | 33101m | -38.1m/s | -39.5°C | 2.1% | 7.7hPa | 2.6V | 00:00:00 | 00:00:00 | 00:00:00 | |
| DO3DL | 2026-09-04 00:32:50 | 51.10225 | 8.34184 | 86° | 20km/h | 33101m | -38.1m/s | -39.5°C | 0.5% | 7.8hPa | 2.6V | 00:00:00 | 00:00:00 | 00:00:00 | |
| DM0DOS-11 | 2026-09-04 00:32:47 | 51.10221 | 8.34144 | 82° | 22km/h | 33187m | 6.5m/s | -39.6°C | 2.1% | 7.6hPa | 2.6V | 08:30:00 | 02:14:52 | 00:00:00 | |
| DL1XH-west | 2026-09-04 00:32:46 | 51.10222 | 8.34144 | 83° | 22km/h | 33188m | 6.5m/s | -39.6°C | 0% | 7.6hPa | 2.6V | 18:12:15 | 02:14:52 | 00:00:00 | |
| DL1XH1-15 | 2026-09-04 00:32:45 | 51.10220 | 8.34130 | 77° | 13km/h | 33176m | 5.6m/s | -39.6°C | 2.1% | 7.7hPa | 2.6V | 08:30:00 | 02:14:50 | 00:00:00 | |
| HSKMA3-T | 2026-09-04 00:32:45 | 51.10221 | 8.34136 | 76° | 18km/h | 33181m | 5.4m/s | -39.6°C | 0% | 7.6hPa | 2.6V | 18:12:15 | 02:14:51 | 00:00:00 | |
| DL1XH-15 | 2026-09-04 00:32:44 | 51.10220 | 8.34122 | 119° | 7km/h | 33165m | 5.2m/s | -39.7°C | 2.1% | 7.7hPa | 2.5V | 08:30:00 | 02:14:48 | 00:00:00 | |
| AA1-15 | 2026-09-04 00:32:44 | 51.10220 | 8.34130 | 78° | 13km/h | 33176m | 5.6m/s | -39.7°C | 0% | 7.7hPa | 2.6V | 18:12:15 | 02:14:50 | 00:00:00 | |
| DJ2DS-15 | 2026-09-04 00:32:42 | 51.10220 | 8.34122 | 120° | 13km/h | 33165m | 5.2m/s | -39.7°C | 2.1% | 7.6hPa | 2.5V | 00:00:00 | 02:14:48 | 00:00:00 | |
| DD8BA-10 | 2026-09-04 00:32:41 | 51.10221 | 8.34119 | 135° | 13km/h | 33160m | 4.6m/s | -39.7°C | 2.2% | 7.6hPa | 2.5V | 00:00:00 | 00:00:00 | 08:30:00 | |
| BUE01 | 2026-09-04 00:32:40 | 51.10225 | 8.34112 | 119° | 15km/h | 33150m | 5.9m/s | -39.9°C | 0.5% | 7.7hPa | 2.5V | 00:00:00 | 00:00:00 | 00:00:00 | |
| DL1XH1-15 | 2026-09-04 00:32:39 | 51.10233 | 8.34077 | 110° | 15km/h | 33123m | 5.6m/s | -40°C | 2.2% | 7.7hPa | 2.5V | 08:30:00 | 02:14:40 | 00:00:00 | |
| DO3DL | 2026-09-04 00:32:39 | 51.10225 | 8.34112 | 121° | 15km/h | 33150m | 5.9m/s | -39.9°C | 0.5% | 7.7hPa | 2.5V | 00:00:00 | 00:00:00 | 00:00:00 | |
| DD1CC3-15 | 2026-09-04 00:32:38 | 51.10225 | 8.34112 | 121° | 15km/h | 33150m | 5.9m/s | -39.9°C | 0.5% | 7.7hPa | 2.5V | 00:00:00 | 00:00:00 | 00:00:00 | |
| DM0DOS-11 | 2026-09-04 00:32:37 | 51.10230 | 8.34090 | 107° | 20km/h | 33133m | 4.8m/s | -40°C | 2.2% | 7.7hPa | 2.5V | 08:30:00 | 02:14:42 | 00:00:00 | |
| BIOWL1-15 | 2026-09-04 00:32:36 | 51.10230 | 8.34090 | 107° | 20km/h | 33134m | 4.8m/s | -40°C | 0% | 7.7hPa | 2.5V | 18:12:15 | 02:14:42 | 00:00:00 | |
| HSKMA3-T | 2026-09-04 00:32:35 | 51.10232 | 8.34083 | 108° | 18km/h | 33128m | 5.4m/s | -40°C | 0% | 7.7hPa | 2.5V | 18:12:15 | 02:14:41 | 00:00:00 | |
| DL1XH-15 | 2026-09-04 00:32:33 | 51.10234 | 8.34069 | 86° | 7km/h | 33113m | 4.5m/s | -40.1°C | 2.2% | 7.7hPa | 2.6V | 08:30:00 | 02:14:38 | 00:00:00 | |
| AA1-15 | 2026-09-04 00:32:33 | 51.10234 | 8.34072 | 107° | 11km/h | 33117m | 4.9m/s | -40.1°C | 0% | 7.7hPa | 2.5V | 18:12:15 | 02:14:39 | 00:00:00 | |
| GOEST3-10 | 2026-09-04 00:32:32 | 51.10234 | 8.34069 | 87° | 13km/h | 33113m | 4.5m/s | -40.0°C | 2.2% | 7.7hPa | 2.6V | 00:00:00 | 00:00:00 | 00:00:00 | |
| DF7PN | 2026-09-04 00:32:31 | 51.10232 | 8.34063 | 43° | 11km/h | 33103m | 5.9m/s | -40.1°C | 0.5% | 7.7hPa | 2.6V | 00:00:00 | 00:00:00 | 00:00:00 | |
| DL3AQ-11 | 2026-09-04 00:32:30 | 51.10229 | 8.34059 | 43° | 15km/h | 33097m | 5.6m/s | -40.1°C | 0.5% | 7.7hPa | 2.6V | 00:00:00 | 00:00:00 | 00:00:00 | |
| DL1XH1-15 | 2026-09-04 00:32:29 | 51.10221 | 8.34035 | 118° | 9km/h | 33070m | 5.7m/s | -40.2°C | 2.2% | 7.8hPa | 2.6V | 08:30:00 | 02:14:30 | 00:00:00 | |
| DB0UT-7 | 2026-09-04 00:32:29 | 51.10229 | 8.34059 | 44° | 16km/h | 33097m | 5.5m/s | -40.1°C | 2.2% | 7.7hPa | 2.5V | 00:00:00 | 02:14:35 | 00:00:00 | |
| DM0DOS-11 | 2026-09-04 00:32:27 | 51.10222 | 8.34043 | 66° | 13km/h | 33082m | 5.5m/s | -40.1°C | 2.2% | 7.8hPa | 2.5V | 08:30:00 | 02:14:32 | 00:00:00 | |
| HSKMA3-T | 2026-09-04 00:32:25 | 51.10221 | 8.34039 | 86° | 11km/h | 33076m | 6.1m/s | -40.2°C | 0% | 7.8hPa | 2.6V | 18:12:15 | 02:14:31 | 00:00:00 | |
| DL1XH-west | 2026-09-04 00:32:24 | 51.10222 | 8.34035 | 119° | 9km/h | 33070m | 5.7m/s | -40.2°C | 0% | 7.8hPa | 2.6V | 18:12:15 | 02:14:30 | 00:00:00 | |
| DL1XH-15 | 2026-09-04 00:32:23 | 51.10225 | 8.34030 | 134° | 7km/h | 33060m | 4.5m/s | -40.2°C | 2.2% | 7.8hPa | 2.5V | 08:30:00 | 02:14:28 | 00:00:00 | |
| AA1-15 | 2026-09-04 00:32:22 | 51.10224 | 8.34030 | 134° | 7km/h | 33060m | 4.5m/s | -40.2°C | 0% | 7.8hPa | 2.5V | 18:12:15 | 02:14:28 | 00:00:00 | |
| DJ2DS-15 | 2026-09-04 00:32:22 | 51.10224 | 8.34030 | 135° | 15km/h | 33061m | 4.4m/s | -40.1°C | 2.2% | 7.7hPa | 2.5V | 00:00:00 | 02:14:28 | 00:00:00 | |
| DJ2DS-15 | 2026-09-04 00:32:21 | 51.10225 | 8.34025 | 75° | 9km/h | 33050m | 6.0m/s | -40.2°C | 0.5% | 7.8hPa | 2.5V | 00:00:00 | 00:00:00 | 00:00:00 | |
| DL1ZP-14 | 2026-09-04 00:32:20 | 51.10225 | 8.34025 | 75° | 9km/h | 33050m | 6.0m/s | -40.2°C | 0.5% | 7.8hPa | 2.5V | 00:00:00 | 00:00:00 | 00:00:00 | |
| DM0DOS-11 | 2026-09-04 00:32:19 | 51.10218 | 8.34005 | 71° | 13km/h | 33030m | 5.1m/s | -40.2°C | 2.3% | 7.8hPa | 2.6V | 08:30:00 | 02:14:22 | 00:00:00 | |
| DO3DL | 2026-09-04 00:32:18 | 51.10224 | 8.34021 | 61° | 13km/h | 33045m | 5.4m/s | -40.2°C | 0.5% | 7.8hPa | 2.5V | 00:00:00 | 00:00:00 | 00:00:00 | |
| DD1CC3-15 | 2026-09-04 00:32:17 | 51.10222 | 8.34016 | 58° | 16km/h | 33039m | 4.6m/s | -40.2°C | 0.6% | 7.8hPa | 2.5V | 00:00:00 | 00:00:00 | 00:00:00 | |
| DL1XH1-15 | 2026-09-04 00:32:16 | 51.10219 | 8.33997 | 126° | 11km/h | 33019m | 5.8m/s | -40.2°C | 2.3% | 7.8hPa | 2.5V | 08:30:00 | 02:14:20 | 00:00:00 | |
| BIOWL1-15 | 2026-09-04 00:32:16 | 51.10219 | 8.34005 | 71° | 13km/h | 33030m | 5.1m/s | -40.2°C | 0% | 7.8hPa | 2.6V | 18:12:15 | 02:14:22 | 00:00:00 | |
| HSKMA3-T | 2026-09-04 00:32:14 | 51.10219 | 8.33997 | 126° | 11km/h | 33019m | 5.8m/s | -40.2°C | 0% | 7.8hPa | 2.5V | 18:12:15 | 02:14:20 | 00:00:00 | |
| DL1XH-west | 2026-09-04 00:32:13 | 51.10221 | 8.33994 | 145° | 13km/h | 33013m | 5.1m/s | -40.2°C | 0% | 7.8hPa | 2.5V | 18:12:15 | 02:14:19 | 00:00:00 | |
| DL1XH-15 | 2026-09-04 00:32:13 | 51.10224 | 8.33991 | 145° | 15km/h | 33008m | 4.8m/s | -40.2°C | 2.3% | 7.8hPa | 2.5V | 08:30:00 | 02:14:18 | 00:00:00 | |
| AA1-15 | 2026-09-04 00:32:12 | 51.10224 | 8.33991 | 146° | 15km/h | 33008m | 4.8m/s | -40.2°C | 0% | 7.8hPa | 2.5V | 18:12:15 | 02:14:18 | 00:00:00 | |
| DO3DL | 2026-09-04 00:32:12 | 51.10224 | 8.33990 | 147° | 15km/h | 33009m | 4.8m/s | -40.2°C | 0.5% | 7.8hPa | 2.6V | 00:00:00 | 00:00:00 | 00:00:00 | |
| DL1NUX | 2026-09-04 00:32:11 | 51.10230 | 8.33976 | 100° | 18km/h | 32992m | 5.5m/s | -40.1°C | 2.3% | 7.9hPa | 2.6V | 08:30:00 | 02:14:15 | 00:00:00 | |
| DD8BA-10 | 2026-09-04 00:32:11 | 51.10227 | 8.33987 | 135° | 20km/h | 33004m | 5.2m/s | -40.1°C | 2.3% | 7.8hPa | 2.6V | 00:00:00 | 00:00:00 | 00:00:00 | |
| DO2KSM | 2026-09-04 00:32:10 | 51.10229 | 8.33982 | 118° | 16km/h | 32998m | 6.0m/s | -40.1°C | 0.5% | 7.8hPa | 2.5V | 00:00:00 | 00:00:00 | 00:00:00 | |
| DK9SH | 2026-09-04 00:32:09 | 51.10230 | 8.33976 | 101° | 18km/h | 32992m | 5.5m/s | -40.1°C | 0.5% | 7.9hPa | 2.5V | 00:00:00 | 00:00:00 | 00:00:00 | |
| DM0DOS-11 | 2026-09-04 00:32:07 | 51.10231 | 8.33950 | 92° | 24km/h | 32976m | 5.5m/s | -40.1°C | 2.2% | 7.9hPa | 2.5V | 08:30:00 | 02:14:12 | 00:00:00 | |
| DB0NH | 2026-09-04 00:32:07 | 51.10230 | 8.33959 | 91° | 20km/h | 32982m | 5.0m/s | -40.0°C | 2.2% | 7.9hPa | 2.5V | 00:00:00 | 02:14:13 | 08:30:00 | |
| DL1XH1-15 | 2026-09-04 00:32:06 | 51.10233 | 8.33933 | 106° | 22km/h | 32965m | 5.5m/s | -40°C | 2.2% | 7.9hPa | 2.6V | 08:30:00 | 02:14:10 | 00:00:00 | |
| BIOWL1-15 | 2026-09-04 00:32:06 | 51.10231 | 8.33950 | 93° | 24km/h | 32977m | 5.5m/s | -40.1°C | 0% | 7.9hPa | 2.5V | 18:12:15 | 02:14:12 | 00:00:00 | |
| HSKMA3-T | 2026-09-04 00:32:04 | 51.10233 | 8.33933 | 106° | 22km/h | 32965m | 5.6m/s | -40°C | 0% | 7.9hPa | 2.6V | 18:12:15 | 02:14:10 | 00:00:00 | |
| DL1XH-15 | 2026-09-04 00:32:03 | 51.10238 | 8.33909 | 104° | 22km/h | 32950m | 4.7m/s | -40°C | 2.2% | 7.9hPa | 2.5V | 08:30:00 | 02:14:07 | 00:00:00 | |
| DL1XH-west | 2026-09-04 00:32:03 | 51.10234 | 8.33924 | 112° | 22km/h | 32960m | 5m/s | -40°C | 0% | 7.9hPa | 2.6V | 18:12:15 | 02:14:09 | 00:00:00 | |
| AA1-15 | 2026-09-04 00:32:02 | 51.10236 | 8.33917 | 111° | 20km/h | 32955m | 4.6m/s | -40°C | 0% | 7.9hPa | 2.6V | 18:12:15 | 02:14:08 | 00:00:00 | |
| DL3AQ-11 | 2026-09-04 00:32:01 | 51.10239 | 8.33900 | 95° | 22km/h | 32945m | 6.1m/s | -40.0°C | 0.5% | 7.9hPa | 2.5V | 00:00:00 | 00:00:00 | 00:00:00 | |
| DL1XH1-15 | 2026-09-04 00:31:59 | 51.10236 | 8.33847 | 110° | 15km/h | 32912m | 6.5m/s | -39.8°C | 2.2% | 8hPa | 2.5V | 08:30:00 | 02:14:00 | 00:00:00 | |
| DM0DOS-11 | 2026-09-04 00:31:59 | 51.10236 | 8.33862 | 82° | 22km/h | 32923m | 4.7m/s | -39.9°C | 2.2% | 8hPa | 2.6V | 08:30:00 | 02:14:02 | 00:00:00 | |
| BIOWL1-15 | 2026-09-04 00:31:57 | 51.10235 | 8.33854 | 91° | 18km/h | 32918m | 6m/s | -39.9°C | 0% | 8hPa | 2.6V | 18:12:15 | 02:14:01 | 00:00:00 | |
| HSKMA3-T | 2026-09-04 00:31:53 | 51.10238 | 8.33842 | 130° | 15km/h | 32906m | 5.7m/s | -39.8°C | 0% | 8hPa | 2.5V | 18:12:15 | 02:13:59 | 00:00:00 | |
| AA1-15 | 2026-09-04 00:31:52 | 51.10241 | 8.33837 | 137° | 16km/h | 32900m | 4.9m/s | -39.8°C | 0% | 8hPa | 2.5V | 18:12:15 | 02:13:58 | 00:00:00 | |
| EDDB2-11 | 2026-09-04 00:31:52 | 51.10244 | 8.33833 | 129° | 16km/h | 32896m | 4.5m/s | -39.8°C | 0.5% | 8.0hPa | 2.6V | 00:00:00 | 00:00:00 | 00:00:00 | |
| DL1NUX | 2026-09-04 00:31:51 | 51.10247 | 8.33819 | 97° | 22km/h | 32885m | 6.2m/s | -39.8°C | 2.2% | 8hPa | 2.6V | 08:30:00 | 02:13:55 | 00:00:00 | |
| DO1YAY-16 | 2026-09-04 00:31:51 | 51.10244 | 8.33833 | 129° | 16km/h | 32896m | 4.5m/s | -39.8°C | 0.5% | 8.0hPa | 2.5V | 00:00:00 | 00:00:00 | 00:00:00 | |
| DL3AQ-11 | 2026-09-04 00:31:50 | 51.10247 | 8.33819 | 97° | 22km/h | 32885m | 6.2m/s | -39.8°C | 0.5% | 8.0hPa | 2.5V | 00:00:00 | 00:00:00 | 00:00:00 | |
| DM0DOS-11 | 2026-09-04 00:31:49 | 51.10246 | 8.33788 | 82° | 26km/h | 32869m | 5.5m/s | -39.8°C | 2.2% | 8hPa | 2.5V | 08:30:00 | 02:13:52 | 00:00:00 | |
| DL1XH-15 | 2026-09-04 00:31:48 | 51.10246 | 8.33779 | 86° | 24km/h | 32863m | 6.1m/s | -39.9°C | 2.2% | 8hPa | 2.5V | 08:30:00 | 02:13:51 | 00:00:00 | |
| DL1XH1-15 | 2026-09-04 00:31:46 | 51.10246 | 8.33770 | 93° | 20km/h | 32857m | 5.6m/s | -39.9°C | 2.2% | 8.1hPa | 2.5V | 08:30:00 | 02:13:50 | 00:00:00 | |
| DL8DAS-14 | 2026-09-04 00:31:45 | 51.10245 | 8.33779 | 86° | 22km/h | 32863m | 6.1m/s | -39.9°C | 0.5% | 8.0hPa | 2.5V | 00:00:00 | 00:00:00 | 00:00:00 | |
| BIOWL1-15 | 2026-09-04 00:31:44 | 51.10245 | 8.33770 | 93° | 20km/h | 32857m | 5.6m/s | -39.9°C | 0% | 8.1hPa | 2.5V | 18:12:15 | 02:13:50 | 00:00:00 | |
| HSKMA3-T | 2026-09-04 00:31:43 | 51.10246 | 8.33763 | 101° | 16km/h | 32852m | 5.1m/s | -40°C | 0% | 8.1hPa | 2.6V | 18:12:15 | 02:13:49 | 00:00:00 | |
| AA1-15 | 2026-09-04 00:31:42 | 51.10247 | 8.33757 | 104° | 15km/h | 32846m | 5.1m/s | -40°C | 0% | 8hPa | 2.6V | 18:12:15 | 02:13:48 | 00:00:00 | |
| DJ2DS-15 | 2026-09-04 00:31:42 | 51.10247 | 8.33757 | 104° | 13km/h | 32847m | 5.1m/s | -39.9°C | 2.2% | 8.0hPa | 2.5V | 00:00:00 | 02:13:48 | 00:00:00 | |
| DL1NUX | 2026-09-04 00:31:41 | 51.10247 | 8.33738 | 83° | 18km/h | 32829m | 5.9m/s | -40°C | 2.2% | 8.1hPa | 2.5V | 08:30:00 | 02:13:45 | 00:00:00 | |
| DD8BA-10 | 2026-09-04 00:31:41 | 51.10247 | 8.33751 | 99° | 15km/h | 32842m | 5.2m/s | -39.9°C | 2.2% | 8.0hPa | 2.6V | 00:00:00 | 00:00:00 | 00:00:00 | |
| GOEST3-10 | 2026-09-04 00:31:40 | 51.10248 | 8.33745 | 91° | 16km/h | 32836m | 6.1m/s | -39.9°C | 2.2% | 8.0hPa | 2.5V | 00:00:00 | 00:00:00 | 00:00:00 | |
| HEMX73-6 | 2026-09-04 00:31:38 | 51.10247 | 8.33731 | 79° | 22km/h | 32824m | 5.1m/s | 0°C | 0% | 0hPa | 2.6V | 00:00:00 | 02:13:44 | 00:00:00 | |
| DL1XH1-15 | 2026-09-04 00:31:37 | 51.10245 | 8.33708 | 93° | 9km/h | 32801m | 5.2m/s | -40°C | 2.3% | 8.1hPa | 2.6V | 08:30:00 | 02:13:40 | 00:00:00 | |
| DL1XH-west | 2026-09-04 00:31:32 | 51.10245 | 8.33700 | 80° | 11km/h | 32791m | 5.8m/s | -40°C | 0% | 8.1hPa | 2.5V | 18:12:15 | 02:13:38 | 00:00:00 | |
| DO3MHA-11 | 2026-09-04 00:31:32 | 51.10245 | 8.33700 | 80° | 13km/h | 32792m | 5.7m/s | -39.9°C | 2.2% | 8.1hPa | 2.6V | 00:00:00 | 02:13:38 | 00:00:00 | |
| DL1NUX | 2026-09-04 00:31:31 | 51.10241 | 8.33682 | 68° | 16km/h | 32774m | 4.8m/s | -40°C | 2.2% | 8.1hPa | 2.6V | 08:30:00 | 02:13:35 | 00:00:00 | |
| HSKMA3-T | 2026-09-04 00:31:22 | 51.10244 | 8.33655 | 102° | 11km/h | 32736m | 6.1m/s | -40.1°C | 0% | 8.2hPa | 2.6V | 18:12:15 | 02:13:28 | 00:00:00 | |
| BIOWL1-15 | 2026-09-04 00:31:21 | 51.10257 | 8.33574 | 96° | 22km/h | 32664m | 4.9m/s | -40°C | 0% | 8.3hPa | 2.5V | 18:12:15 | 02:13:15 | 00:00:00 | |
| DL1NUX | 2026-09-04 00:31:21 | 51.10243 | 8.33639 | 85° | 15km/h | 32720m | 4.9m/s | -40°C | 2.2% | 8.2hPa | 2.5V | 08:30:00 | 02:13:25 | 00:00:00 | |
| DL1XH-west | 2026-09-04 00:31:21 | 51.10244 | 8.33645 | 81° | 15km/h | 32725m | 4.9m/s | -40°C | 0% | 8.2hPa | 2.6V | 18:12:15 | 02:13:26 | 00:00:00 | |
| AA1-15 | 2026-09-04 00:31:21 | 51.10244 | 8.33650 | 86° | 13km/h | 32730m | 5.5m/s | -40°C | 0% | 8.2hPa | 2.6V | 18:12:15 | 02:13:27 | 00:00:00 | |
| DL3AQ-11 | 2026-09-04 00:31:21 | 51.10244 | 8.33645 | 81° | 15km/h | 32725m | 4.9m/s | -40.0°C | 0.5% | 8.2hPa | 2.6V | 00:00:00 | 00:00:00 | 00:00:00 | |
| DL1XH1-15 | 2026-09-04 00:31:20 | 51.10251 | 8.33615 | 129° | 16km/h | 32692m | 5.1m/s | -40.1°C | 2.2% | 8.2hPa | 2.6V | 08:30:00 | 02:13:20 | 00:00:00 | |
| DL1ZP-14 | 2026-09-04 00:31:19 | 51.10243 | 8.33633 | 95° | 13km/h | 32715m | 5.9m/s | -40.0°C | 0.5% | 8.2hPa | 2.5V | 00:00:00 | 00:00:00 | 00:00:00 | |
| DL4XJ-10 | 2026-09-04 00:31:17 | 51.10244 | 8.33628 | 113° | 15km/h | 32709m | 6.2m/s | -39.6°C | 0% | 0hPa | 2.6V | 00:00:00 | 00:00:00 | 00:00:00 | |
| GOEST3-10 | 2026-09-04 00:31:15 | 51.10248 | 8.33619 | 136° | 18km/h | 32698m | 5.2m/s | -40.0°C | 2.2% | 8.2hPa | 2.6V | 00:00:00 | 02:13:21 | 00:00:00 | |
| DL8DAS-14 | 2026-09-04 00:31:14 | 51.10251 | 8.33615 | 129° | 15km/h | 32693m | 5.1m/s | -40.1°C | 0.5% | 8.2hPa | 2.6V | 00:00:00 | 00:00:00 | 00:00:00 | |
| NBG1-10 | 2026-09-04 00:31:13 | 51.10253 | 8.33609 | 118° | 26km/h | 32687m | 5.5m/s | -40.0°C | 2.2% | 8.2hPa | 2.6V | 00:00:00 | 02:13:19 | 00:00:00 | |
| DL1CLM-18 | 2026-09-04 00:31:12 | 51.10253 | 8.33609 | 119° | 18km/h | 32687m | 5.6m/s | -40.1°C | 0.5% | 8.2hPa | 2.5V | 00:00:00 | 00:00:00 | 00:00:00 | |
| DL1NUX | 2026-09-04 00:31:11 | 51.10257 | 8.33574 | 96° | 22km/h | 32664m | 4.9m/s | -40°C | 2.2% | 8.3hPa | 2.5V | 08:30:00 | 02:13:15 | 00:00:00 | |
| DL1XH-west | 2026-09-04 00:31:11 | 51.10256 | 8.33593 | 97° | 24km/h | 32675m | 5.8m/s | -40°C | 0% | 8.2hPa | 2.5V | 18:12:15 | 02:13:17 | 00:00:00 | |
| AA1-15 | 2026-09-04 00:31:10 | 51.10257 | 8.33584 | 95° | 24km/h | 32669m | 5.1m/s | -40°C | 0% | 8.3hPa | 2.5V | 18:12:15 | 02:13:16 | 00:00:00 | |
| BIOWL1-15 | 2026-09-04 00:31:06 | 51.10262 | 8.33556 | 138° | 15km/h | 32647m | 5.7m/s | -40°C | 0% | 8.3hPa | 2.6V | 18:12:15 | 02:13:12 | 00:00:00 | |
| DL4BBY-15 | 2026-09-04 00:31:06 | 51.10261 | 8.33556 | 138° | 27km/h | 32647m | 5.6m/s | -39.6°C | 0% | 0hPa | 2.5V | 00:00:00 | 00:00:00 | 00:00:00 | |
| DD1CC8 | 2026-09-04 00:31:05 | 51.10267 | 8.33548 | 138° | 15km/h | 32636m | 5.1m/s | -40.0°C | 0.5% | 8.3hPa | 2.5V | 00:00:00 | 00:00:00 | 00:00:00 | |
| AM1SDL-15 | 2026-09-04 00:31:04 | 51.10267 | 8.33548 | 139° | 24km/h | 32636m | 5.1m/s | -40.0°C | 2.2% | 8.3hPa | 2.5V | 00:00:00 | 02:13:10 | 00:00:00 | |
| DJ2DS-15 | 2026-09-04 00:31:02 | 51.10273 | 8.33536 | 114° | 27km/h | 32625m | 6.0m/s | -40.0°C | 2.2% | 8.3hPa | 2.6V | 00:00:00 | 02:13:08 | 00:00:00 | |
| DL1NUX | 2026-09-04 00:31:01 | 51.10278 | 8.33507 | 106° | 29km/h | 32608m | 5.3m/s | -40°C | 2.2% | 8.3hPa | 2.6V | 08:30:00 | 02:13:05 | 00:00:00 | |
| DL1XH-west | 2026-09-04 00:31:01 | 51.10274 | 8.33528 | 105° | 24km/h | 32619m | 5.5m/s | -40°C | 0% | 8.3hPa | 2.6V | 18:12:15 | 02:13:07 | 00:00:00 | |
| AA1-15 | 2026-09-04 00:31:00 | 51.10276 | 8.33518 | 104° | 27km/h | 32613m | 5.2m/s | -40°C | 0% | 8.3hPa | 2.6V | 18:12:15 | 02:13:06 | 00:00:00 | |
| BIOWL1-15 | 2026-09-04 00:30:57 | 51.10307 | 8.33421 | 109° | 29km/h | 32563m | 5.1m/s | -40°C | 0% | 8.4hPa | 2.5V | 18:12:15 | 02:12:57 | 00:00:00 | |
| DM0DOS-11 | 2026-09-04 00:30:56 | 51.10288 | 8.33476 | 126° | 31km/h | 32591m | 5.1m/s | -40°C | 2.2% | 8.4hPa | 2.5V | 08:30:00 | 02:13:02 | 00:00:00 | |
| BIOWL9-15 | 2026-09-04 00:30:55 | 51.10297 | 8.33455 | 123° | 31km/h | 32581m | 6.0m/s | -40.0°C | 0.5% | 8.3hPa | 2.5V | 00:00:00 | 00:00:00 | 00:00:00 | |
| DC6BW-12 | 2026-09-04 00:30:53 | 51.10297 | 8.33455 | 124° | 31km/h | 32581m | 6.0m/s | -40.0°C | 0.5% | 8.4hPa | 2.5V | 00:00:00 | 00:00:00 | 00:00:00 | |
| SO1NDE-10 | 2026-09-04 00:30:52 | 51.10304 | 8.33433 | 113° | 27km/h | 32569m | 5.5m/s | -40.0°C | 2.2% | 8.3hPa | 2.5V | 00:00:00 | 02:12:58 | 00:00:00 | |
| DL1NUX | 2026-09-04 00:30:51 | 51.10312 | 8.33402 | 113° | 22km/h | 32552m | 6.3m/s | -40°C | 2.2% | 8.4hPa | 2.5V | 08:30:00 | 02:12:55 | 00:00:00 | |
| DM0DOS-11 | 2026-09-04 00:30:51 | 51.10319 | 8.33383 | 122° | 20km/h | 32535m | 4.8m/s | -40°C | 2.2% | 8.4hPa | 2.6V | 08:30:00 | 02:12:52 | 00:00:00 | |
| DL1XH-15 | 2026-09-04 00:30:50 | 51.10321 | 8.33376 | 114° | 24km/h | 32530m | 5.8m/s | -40°C | 2.2% | 8.4hPa | 2.6V | 08:30:00 | 02:12:51 | 00:00:00 | |
| DL1XH-west | 2026-09-04 00:30:50 | 51.10309 | 8.33411 | 109° | 26km/h | 32558m | 5.1m/s | -40°C | 0% | 8.4hPa | 2.5V | 18:12:15 | 02:12:56 | 00:00:00 | |
| GOEST3-10 | 2026-09-04 00:30:50 | 51.10309 | 8.33411 | 110° | 20km/h | 32558m | 5.0m/s | -39.9°C | 2.2% | 8.3hPa | 2.5V | 00:00:00 | 00:00:00 | 00:00:00 | |
| DL1XH1-15 | 2026-09-04 00:30:49 | 51.10324 | 8.33366 | 109° | 29km/h | 32524m | 6.3m/s | -40°C | 2.2% | 8.4hPa | 2.5V | 08:30:00 | 02:12:50 | 00:00:00 | |
| AA1-15 | 2026-09-04 00:30:49 | 51.10312 | 8.33402 | 113° | 22km/h | 32552m | 6.3m/s | -40°C | 0% | 8.4hPa | 2.5V | 18:12:15 | 02:12:55 | 00:00:00 | |
| DO3MHA-12 | 2026-09-04 00:30:47 | 51.10316 | 8.33389 | 127° | 31km/h | 32541m | 5.3m/s | -39.9°C | 2.2% | 8.4hPa | 2.6V | 00:00:00 | 02:12:53 | 00:00:00 | |
| DO2KSM | 2026-09-04 00:30:46 | 51.10316 | 8.33389 | 127° | 18km/h | 32541m | 5.4m/s | -40.0°C | 0.5% | 8.4hPa | 2.6V | 00:00:00 | 00:00:00 | 00:00:00 | |
| DO3MHA-11 | 2026-09-04 00:30:45 | 51.10321 | 8.33375 | 115° | 33km/h | 32530m | 5.7m/s | -40.0°C | 2.2% | 8.4hPa | 2.6V | 00:00:00 | 02:12:51 | 00:00:00 | |
| Es werden nur die letzten 3500 von 8533 Frames angezeigt. GPX/KML und Diagramme bleiben verfügbar. | |||||||||||||||